<?xml version='1.0' encoding='UTF-8'?><gpx version="1.1" creator="JPX - https://github.com/jenetics/jpx" xmlns="http://www.topografix.com/GPX/1/1"><trk><trkseg><trkpt lat="44.88251904585453" lon="7.32804663815358"><ele>378.0</ele><time>2026-04-07T08:32:08Z</time></trkpt><trkpt lat="44.88254584726103" lon="7.32794185192325"><ele>378.0</ele><time>2026-04-07T08:32:26Z</time></trkpt><trkpt lat="44.882401392637654" lon="7.327960870124359"><ele>378.0</ele><time>2026-04-07T08:32:28Z</time></trkpt><trkpt lat="44.882329370822774" lon="7.3279712319097605"><ele>378.0</ele><time>2026-04-07T08:32:29Z</time></trkpt><trkpt lat="44.88220215798285" lon="7.327953859680859"><ele>378.0</ele><time>2026-04-07T08:32:31Z</time></trkpt><trkpt lat="44.882103841286074" lon="7.327928989797838"><ele>378.0</ele><time>2026-04-07T08:32:33Z</time></trkpt><trkpt lat="44.88200045441463" lon="7.327914421610375"><ele>378.0</ele><time>2026-04-07T08:32:35Z</time></trkpt><trkpt lat="44.88192545852002" lon="7.327893708544571"><ele>378.0</ele><time>2026-04-07T08:32:36Z</time></trkpt><trkpt lat="44.88184932823402" lon="7.327878692638309"><ele>378.0</ele><time>2026-04-07T08:32:37Z</time></trkpt><trkpt lat="44.881782278562774" lon="7.327851882720155"><ele>378.0</ele><time>2026-04-07T08:32:38Z</time></trkpt><trkpt lat="44.881691188095616" lon="7.327853160392313"><ele>378.0</ele><time>2026-04-07T08:32:40Z</time></trkpt><trkpt lat="44.88163087016334" lon="7.32782171930656"><ele>377.75</ele><time>2026-04-07T08:32:42Z</time></trkpt><trkpt lat="44.88158635538991" lon="7.3277169913873665"><ele>377.5</ele><time>2026-04-07T08:32:44Z</time></trkpt><trkpt lat="44.88160279099209" lon="7.327506082156377"><ele>377.25</ele><time>2026-04-07T08:32:46Z</time></trkpt><trkpt lat="44.88159968352092" lon="7.327370403122546"><ele>377.0</ele><time>2026-04-07T08:32:47Z</time></trkpt><trkpt lat="44.88160767059207" lon="7.327203485151823"><ele>376.75</ele><time>2026-04-07T08:32:48Z</time></trkpt><trkpt lat="44.881614369145574" lon="7.327012661647478"><ele>376.5</ele><time>2026-04-07T08:32:49Z</time></trkpt><trkpt lat="44.88162178391572" lon="7.326823400691198"><ele>376.25</ele><time>2026-04-07T08:32:50Z</time></trkpt><trkpt lat="44.881634059488064" lon="7.3266263769523805"><ele>376.0</ele><time>2026-04-07T08:32:51Z</time></trkpt><trkpt lat="44.88164565617093" lon="7.326415650894092"><ele>376.0</ele><time>2026-04-07T08:32:52Z</time></trkpt><trkpt lat="44.881670546833426" lon="7.326182318823929"><ele>376.0</ele><time>2026-04-07T08:32:53Z</time></trkpt><trkpt lat="44.88166610802094" lon="7.325962986262192"><ele>376.0</ele><time>2026-04-07T08:32:53.999Z</time></trkpt><trkpt lat="44.88167360597733" lon="7.325790164070959"><ele>376.0</ele><time>2026-04-07T08:32:54.999Z</time></trkpt><trkpt lat="44.881679824116674" lon="7.325644951337674"><ele>376.0</ele><time>2026-04-07T08:32:55.999Z</time></trkpt><trkpt lat="44.8816853310118" lon="7.325510511280034"><ele>376.0</ele><time>2026-04-07T08:32:56.999Z</time></trkpt><trkpt lat="44.88169128488359" lon="7.325380940555606"><ele>376.0</ele><time>2026-04-07T08:32:57.999Z</time></trkpt><trkpt lat="44.88169465097205" lon="7.3252652150185735"><ele>376.0</ele><time>2026-04-07T08:32:58.999Z</time></trkpt><trkpt lat="44.881700735698814" lon="7.325165449435088"><ele>376.0</ele><time>2026-04-07T08:32:59.999Z</time></trkpt><trkpt lat="44.8817040947697" lon="7.325068584165856"><ele>376.0</ele><time>2026-04-07T08:33:00.999Z</time></trkpt><trkpt lat="44.881719988385186" lon="7.3249239583167105"><ele>376.0</ele><time>2026-04-07T08:33:02.999Z</time></trkpt><trkpt lat="44.881722131570136" lon="7.324824918393217"><ele>376.0</ele><time>2026-04-07T08:33:21.999Z</time></trkpt><trkpt lat="44.881743290342065" lon="7.3246897514904665"><ele>376.0</ele><time>2026-04-07T08:33:24.999Z</time></trkpt><trkpt lat="44.88176389065658" lon="7.324567323829933"><ele>376.0</ele><time>2026-04-07T08:33:25.999Z</time></trkpt><trkpt lat="44.881793576327276" lon="7.324449004043295"><ele>376.0</ele><time>2026-04-07T08:33:26.999Z</time></trkpt><trkpt lat="44.88184954108925" lon="7.32428250620422"><ele>376.66666666666663</ele><time>2026-04-07T08:33:27.999Z</time></trkpt><trkpt lat="44.88189263858838" lon="7.32408229244537"><ele>377.3333333333333</ele><time>2026-04-07T08:33:28.999Z</time></trkpt><trkpt lat="44.88193887249597" lon="7.323869885521268"><ele>378.0</ele><time>2026-04-07T08:33:29.999Z</time></trkpt><trkpt lat="44.881993915993995" lon="7.323633064183122"><ele>378.0</ele><time>2026-04-07T08:33:30.999Z</time></trkpt><trkpt lat="44.882055016162326" lon="7.32339512104411"><ele>378.0</ele><time>2026-04-07T08:33:31.999Z</time></trkpt><trkpt lat="44.88211605189741" lon="7.323152872429178"><ele>378.0</ele><time>2026-04-07T08:33:32.999Z</time></trkpt><trkpt lat="44.88217963216091" lon="7.322923755918511"><ele>378.0</ele><time>2026-04-07T08:33:33.999Z</time></trkpt><trkpt lat="44.882236079069216" lon="7.322725361522622"><ele>378.0</ele><time>2026-04-07T08:33:34.999Z</time></trkpt><trkpt lat="44.88228886591691" lon="7.322544007450268"><ele>378.0</ele><time>2026-04-07T08:33:35.999Z</time></trkpt><trkpt lat="44.882350721731825" lon="7.322379718297934"><ele>378.0</ele><time>2026-04-07T08:33:36.999Z</time></trkpt><trkpt lat="44.88240139885395" lon="7.322210207812623"><ele>378.0</ele><time>2026-04-07T08:33:37.999Z</time></trkpt><trkpt lat="44.88245561174956" lon="7.3220499495778135"><ele>378.0</ele><time>2026-04-07T08:33:38.999Z</time></trkpt><trkpt lat="44.88250658261331" lon="7.321893081671322"><ele>378.0</ele><time>2026-04-07T08:33:39.999Z</time></trkpt><trkpt lat="44.882558629908196" lon="7.321733302016903"><ele>378.0</ele><time>2026-04-07T08:33:40.999Z</time></trkpt><trkpt lat="44.88262357076209" lon="7.321594634657272"><ele>378.0</ele><time>2026-04-07T08:33:41.999Z</time></trkpt><trkpt lat="44.88269926311988" lon="7.321464425434917"><ele>378.0</ele><time>2026-04-07T08:33:42.999Z</time></trkpt><trkpt lat="44.88276228332486" lon="7.32133237498658"><ele>378.0</ele><time>2026-04-07T08:33:43.999Z</time></trkpt><trkpt lat="44.88282163076296" lon="7.321197630533488"><ele>378.0</ele><time>2026-04-07T08:33:44.999Z</time></trkpt><trkpt lat="44.882904085826254" lon="7.3210573154050245"><ele>378.5</ele><time>2026-04-07T08:33:45.999Z</time></trkpt><trkpt lat="44.88297979566346" lon="7.320909054913795"><ele>379.0</ele><time>2026-04-07T08:33:46.999Z</time></trkpt><trkpt lat="44.88306353040127" lon="7.320768436109341"><ele>379.5</ele><time>2026-04-07T08:33:47.999Z</time></trkpt><trkpt lat="44.883132711148136" lon="7.3206298321174526"><ele>380.0</ele><time>2026-04-07T08:33:48.999Z</time></trkpt><trkpt lat="44.88320635485929" lon="7.320542612578617"><ele>380.33333333333337</ele><time>2026-04-07T08:33:50Z</time></trkpt><trkpt lat="44.88326336381866" lon="7.320453237129974"><ele>380.6666666666667</ele><time>2026-04-07T08:33:51Z</time></trkpt><trkpt lat="44.88331518726523" lon="7.320367928591428"><ele>381.0</ele><time>2026-04-07T08:33:52Z</time></trkpt><trkpt lat="44.88337310368313" lon="7.3202904717935136"><ele>381.3333333333333</ele><time>2026-04-07T08:33:53Z</time></trkpt><trkpt lat="44.883444238619326" lon="7.320179083511005"><ele>381.66666666666663</ele><time>2026-04-07T08:33:55Z</time></trkpt><trkpt lat="44.88349406512298" lon="7.320101468093405"><ele>382.0</ele><time>2026-04-07T08:33:57Z</time></trkpt><trkpt lat="44.88355623564728" lon="7.320035536830564"><ele>382.20000000000005</ele><time>2026-04-07T08:33:59Z</time></trkpt><trkpt lat="44.883601646861656" lon="7.319970843377237"><ele>382.4</ele><time>2026-04-07T08:34:03Z</time></trkpt><trkpt lat="44.88367250810566" lon="7.319873243325441"><ele>382.6</ele><time>2026-04-07T08:34:12Z</time></trkpt><trkpt lat="44.88377438292148" lon="7.319929042047716"><ele>382.79999999999995</ele><time>2026-04-07T08:34:13Z</time></trkpt><trkpt lat="44.88387224406643" lon="7.319917179590545"><ele>383.0</ele><time>2026-04-07T08:34:15Z</time></trkpt><trkpt lat="44.88395944435344" lon="7.319915683041927"><ele>383.0</ele><time>2026-04-07T08:34:20Z</time></trkpt><trkpt lat="44.88387664346881" lon="7.319963253311426"><ele>383.0</ele><time>2026-04-07T08:36:38Z</time></trkpt><trkpt lat="44.88381323450085" lon="7.319938837338746"><ele>383.0</ele><time>2026-04-07T08:36:41Z</time></trkpt><trkpt lat="44.88373409122339" lon="7.319907517809293"><ele>383.0</ele><time>2026-04-07T08:36:43Z</time></trkpt><trkpt lat="44.88363158865681" lon="7.319883447512262"><ele>383.0</ele><time>2026-04-07T08:36:45Z</time></trkpt><trkpt lat="44.883535375368176" lon="7.319850717320721"><ele>383.0</ele><time>2026-04-07T08:36:47Z</time></trkpt><trkpt lat="44.88344714474152" lon="7.3198496604981225"><ele>382.83333333333337</ele><time>2026-04-07T08:36:49Z</time></trkpt><trkpt lat="44.8833993795441" lon="7.319741992434768"><ele>382.6666666666667</ele><time>2026-04-07T08:36:52Z</time></trkpt><trkpt lat="44.883465296461544" lon="7.319627499273093"><ele>382.5</ele><time>2026-04-07T08:36:54Z</time></trkpt><trkpt lat="44.883518916394266" lon="7.319570488039511"><ele>382.3333333333333</ele><time>2026-04-07T08:36:55Z</time></trkpt><trkpt lat="44.883577784719044" lon="7.319485781044965"><ele>382.16666666666663</ele><time>2026-04-07T08:36:56Z</time></trkpt><trkpt lat="44.88363401766566" lon="7.319406516502922"><ele>382.0</ele><time>2026-04-07T08:36:57Z</time></trkpt><trkpt lat="44.88369649823038" lon="7.319325866656713"><ele>382.0</ele><time>2026-04-07T08:36:58Z</time></trkpt><trkpt lat="44.883757966888" lon="7.319231122932503"><ele>382.0</ele><time>2026-04-07T08:36:59Z</time></trkpt><trkpt lat="44.88381250140353" lon="7.319152505316618"><ele>382.0</ele><time>2026-04-07T08:37:00Z</time></trkpt><trkpt lat="44.88386047308524" lon="7.319085770684266"><ele>382.0</ele><time>2026-04-07T08:37:01Z</time></trkpt><trkpt lat="44.88391528472995" lon="7.3190086093897895"><ele>382.0</ele><time>2026-04-07T08:37:02Z</time></trkpt><trkpt lat="44.883969247725574" lon="7.318939889370711"><ele>382.0</ele><time>2026-04-07T08:37:03Z</time></trkpt><trkpt lat="44.8840138340214" lon="7.318860797539259"><ele>382.0</ele><time>2026-04-07T08:37:04Z</time></trkpt><trkpt lat="44.88409495403775" lon="7.318741615893195"><ele>382.0</ele><time>2026-04-07T08:37:06Z</time></trkpt><trkpt lat="44.88416055698515" lon="7.318648349237991"><ele>382.0</ele><time>2026-04-07T08:37:08Z</time></trkpt><trkpt lat="44.88422391441368" lon="7.318567867576103"><ele>382.0</ele><time>2026-04-07T08:37:11.999Z</time></trkpt><trkpt lat="44.8842698301693" lon="7.318494969783638"><ele>382.0</ele><time>2026-04-07T08:37:18.999Z</time></trkpt><trkpt lat="44.88432750466087" lon="7.318425714510677"><ele>382.0</ele><time>2026-04-07T08:37:29.999Z</time></trkpt><trkpt lat="44.88436054582595" lon="7.3183441915443135"><ele>382.0</ele><time>2026-04-07T08:37:31.999Z</time></trkpt><trkpt lat="44.88430971600071" lon="7.318221520666473"><ele>382.0</ele><time>2026-04-07T08:37:33.999Z</time></trkpt><trkpt lat="44.88422990947876" lon="7.318161546463579"><ele>382.0</ele><time>2026-04-07T08:37:34.999Z</time></trkpt><trkpt lat="44.884168568783416" lon="7.3181084767326805"><ele>382.0</ele><time>2026-04-07T08:37:35.999Z</time></trkpt><trkpt lat="44.88409040910244" lon="7.318036828370242"><ele>382.0</ele><time>2026-04-07T08:37:36.999Z</time></trkpt><trkpt lat="44.884004290324924" lon="7.317953555096654"><ele>382.20000000000005</ele><time>2026-04-07T08:37:37.999Z</time></trkpt><trkpt lat="44.883912987385564" lon="7.31786611826199"><ele>382.4</ele><time>2026-04-07T08:37:38.999Z</time></trkpt><trkpt lat="44.88383260095496" lon="7.317792282324654"><ele>382.6</ele><time>2026-04-07T08:37:39.999Z</time></trkpt><trkpt lat="44.8837607691048" lon="7.317726358462618"><ele>382.79999999999995</ele><time>2026-04-07T08:37:40.999Z</time></trkpt><trkpt lat="44.88369073651053" lon="7.317663206957338"><ele>383.0</ele><time>2026-04-07T08:37:41.999Z</time></trkpt><trkpt lat="44.88362094489899" lon="7.317597566746213"><ele>383.0</ele><time>2026-04-07T08:37:42.999Z</time></trkpt><trkpt lat="44.88355026269341" lon="7.317533809155142"><ele>383.0</ele><time>2026-04-07T08:37:43.999Z</time></trkpt><trkpt lat="44.88348149094913" lon="7.317470939639494"><ele>383.0</ele><time>2026-04-07T08:37:44.999Z</time></trkpt><trkpt lat="44.88341023295824" lon="7.31740746985534"><ele>383.0</ele><time>2026-04-07T08:37:45.999Z</time></trkpt><trkpt lat="44.88333662931378" lon="7.317345286025183"><ele>383.0</ele><time>2026-04-07T08:37:46.999Z</time></trkpt><trkpt lat="44.88326081408877" lon="7.317279101174833"><ele>383.0</ele><time>2026-04-07T08:37:47.999Z</time></trkpt><trkpt lat="44.88318173266587" lon="7.3172032223561185"><ele>383.0</ele><time>2026-04-07T08:37:48.999Z</time></trkpt><trkpt lat="44.8830981360552" lon="7.3171210272369365"><ele>383.0</ele><time>2026-04-07T08:37:49.999Z</time></trkpt><trkpt lat="44.88300939220817" lon="7.317040009712077"><ele>383.0</ele><time>2026-04-07T08:37:50.999Z</time></trkpt><trkpt lat="44.882920512999206" lon="7.3169567412995224"><ele>383.0</ele><time>2026-04-07T08:37:51.999Z</time></trkpt><trkpt lat="44.88284519074924" lon="7.316883296636789"><ele>383.0</ele><time>2026-04-07T08:37:52.999Z</time></trkpt><trkpt lat="44.882764931253156" lon="7.316808347438877"><ele>383.0</ele><time>2026-04-07T08:37:53.999Z</time></trkpt><trkpt lat="44.8826879906379" lon="7.316744296446812"><ele>383.0</ele><time>2026-04-07T08:37:54.999Z</time></trkpt><trkpt lat="44.88262119986422" lon="7.316677547715701"><ele>383.0</ele><time>2026-04-07T08:37:55.999Z</time></trkpt><trkpt lat="44.88255614519615" lon="7.316598641580876"><ele>383.0</ele><time>2026-04-07T08:37:56.999Z</time></trkpt><trkpt lat="44.88250589588214" lon="7.316508905365645"><ele>383.0</ele><time>2026-04-07T08:37:57.999Z</time></trkpt><trkpt lat="44.88243976917015" lon="7.316452403352107"><ele>383.0</ele><time>2026-04-07T08:37:58.999Z</time></trkpt><trkpt lat="44.882356060633235" lon="7.31640825520424"><ele>382.75</ele><time>2026-04-07T08:37:59.999Z</time></trkpt><trkpt lat="44.88226282128587" lon="7.316346767139128"><ele>382.5</ele><time>2026-04-07T08:38:00.999Z</time></trkpt><trkpt lat="44.88215842177979" lon="7.316270380189122"><ele>382.25</ele><time>2026-04-07T08:38:02Z</time></trkpt><trkpt lat="44.88204763373087" lon="7.316167260511671"><ele>382.0</ele><time>2026-04-07T08:38:03Z</time></trkpt><trkpt lat="44.88193445049185" lon="7.316058004022906"><ele>382.0</ele><time>2026-04-07T08:38:04Z</time></trkpt><trkpt lat="44.88183594743348" lon="7.315963430269801"><ele>382.0</ele><time>2026-04-07T08:38:05Z</time></trkpt><trkpt lat="44.88173321991549" lon="7.31586750259094"><ele>382.0</ele><time>2026-04-07T08:38:06Z</time></trkpt><trkpt lat="44.881631142190294" lon="7.315772992851075"><ele>382.0</ele><time>2026-04-07T08:38:07Z</time></trkpt><trkpt lat="44.88152964732265" lon="7.3156801351399245"><ele>382.20000000000005</ele><time>2026-04-07T08:38:08Z</time></trkpt><trkpt lat="44.881433071110806" lon="7.315598330114438"><ele>382.4</ele><time>2026-04-07T08:38:09Z</time></trkpt><trkpt lat="44.88134861813917" lon="7.3155404653297005"><ele>382.6</ele><time>2026-04-07T08:38:10Z</time></trkpt><trkpt lat="44.881267411590244" lon="7.315485176702518"><ele>382.79999999999995</ele><time>2026-04-07T08:38:11Z</time></trkpt><trkpt lat="44.88118719467056" lon="7.315426759200162"><ele>383.0</ele><time>2026-04-07T08:38:12Z</time></trkpt><trkpt lat="44.88110721539481" lon="7.315371203436002"><ele>383.1666666666667</ele><time>2026-04-07T08:38:13Z</time></trkpt><trkpt lat="44.8810313692978" lon="7.315322278771947"><ele>383.33333333333337</ele><time>2026-04-07T08:38:14Z</time></trkpt><trkpt lat="44.880956938764655" lon="7.315273320711938"><ele>383.5</ele><time>2026-04-07T08:38:15Z</time></trkpt><trkpt lat="44.88088749755163" lon="7.31522814204826"><ele>383.6666666666667</ele><time>2026-04-07T08:38:16Z</time></trkpt><trkpt lat="44.88081923293025" lon="7.315184203451752"><ele>383.8333333333333</ele><time>2026-04-07T08:38:17Z</time></trkpt><trkpt lat="44.88074931969505" lon="7.315130447999471"><ele>384.0</ele><time>2026-04-07T08:38:18Z</time></trkpt><trkpt lat="44.88068617542379" lon="7.315068352785541"><ele>384.1666666666667</ele><time>2026-04-07T08:38:19Z</time></trkpt><trkpt lat="44.88063992915549" lon="7.314988691840107"><ele>384.33333333333337</ele><time>2026-04-07T08:38:20Z</time></trkpt><trkpt lat="44.88061261421048" lon="7.314880840308287"><ele>384.5</ele><time>2026-04-07T08:38:21Z</time></trkpt><trkpt lat="44.88061440041142" lon="7.314778823088906"><ele>384.6666666666667</ele><time>2026-04-07T08:38:22Z</time></trkpt><trkpt lat="44.88060865141862" lon="7.314678764725806"><ele>384.83333333333337</ele><time>2026-04-07T08:38:23Z</time></trkpt><trkpt lat="44.880587739743795" lon="7.314580021221345"><ele>385.0</ele><time>2026-04-07T08:38:24Z</time></trkpt><trkpt lat="44.88049301024684" lon="7.314510398347675"><ele>385.0</ele><time>2026-04-07T08:38:25Z</time></trkpt><trkpt lat="44.880388927394996" lon="7.314506237518077"><ele>385.0</ele><time>2026-04-07T08:38:26Z</time></trkpt><trkpt lat="44.88027638014991" lon="7.3144958461666585"><ele>385.0</ele><time>2026-04-07T08:38:27Z</time></trkpt><trkpt lat="44.880147243262726" lon="7.314435599286822"><ele>385.0</ele><time>2026-04-07T08:38:28Z</time></trkpt><trkpt lat="44.880010749179576" lon="7.3143324167048895"><ele>385.0</ele><time>2026-04-07T08:38:29Z</time></trkpt><trkpt lat="44.87986935259114" lon="7.3142114636580935"><ele>385.0</ele><time>2026-04-07T08:38:30Z</time></trkpt><trkpt lat="44.879729111039886" lon="7.31409760298915"><ele>385.0</ele><time>2026-04-07T08:38:31Z</time></trkpt><trkpt lat="44.8795924746503" lon="7.313987752672759"><ele>385.0</ele><time>2026-04-07T08:38:32Z</time></trkpt><trkpt lat="44.8794667054566" lon="7.313889431210249"><ele>385.0</ele><time>2026-04-07T08:38:33Z</time></trkpt><trkpt lat="44.8793434431758" lon="7.313791257852886"><ele>385.0</ele><time>2026-04-07T08:38:34Z</time></trkpt><trkpt lat="44.87923438574041" lon="7.313705891591348"><ele>385.0</ele><time>2026-04-07T08:38:35Z</time></trkpt><trkpt lat="44.879125880341874" lon="7.313621291012805"><ele>385.0</ele><time>2026-04-07T08:38:36Z</time></trkpt><trkpt lat="44.87901413816857" lon="7.3135368348567535"><ele>385.0</ele><time>2026-04-07T08:38:37Z</time></trkpt><trkpt lat="44.87889857461661" lon="7.313462967043872"><ele>385.0</ele><time>2026-04-07T08:38:38Z</time></trkpt><trkpt lat="44.878775543386695" lon="7.313399070036588"><ele>385.0</ele><time>2026-04-07T08:38:39Z</time></trkpt><trkpt lat="44.878646617201454" lon="7.313343723260119"><ele>385.0</ele><time>2026-04-07T08:38:40Z</time></trkpt><trkpt lat="44.878520240436224" lon="7.313299600491799"><ele>385.0</ele><time>2026-04-07T08:38:41Z</time></trkpt><trkpt lat="44.87839161483496" lon="7.313257324333612"><ele>385.0</ele><time>2026-04-07T08:38:42Z</time></trkpt><trkpt lat="44.87826176194948" lon="7.313215059184316"><ele>385.0</ele><time>2026-04-07T08:38:43Z</time></trkpt><trkpt lat="44.8781359933012" lon="7.313175798624796"><ele>385.0</ele><time>2026-04-07T08:38:44Z</time></trkpt><trkpt lat="44.8780154251328" lon="7.313136868071374"><ele>385.0</ele><time>2026-04-07T08:38:45Z</time></trkpt><trkpt lat="44.87789939709419" lon="7.313097111352759"><ele>385.0</ele><time>2026-04-07T08:38:46Z</time></trkpt><trkpt lat="44.8777859117899" lon="7.313055390224704"><ele>385.0</ele><time>2026-04-07T08:38:47Z</time></trkpt><trkpt lat="44.87767773949128" lon="7.313014378011311"><ele>384.8</ele><time>2026-04-07T08:38:48Z</time></trkpt><trkpt lat="44.87757348059762" lon="7.312974368139128"><ele>384.6</ele><time>2026-04-07T08:38:49Z</time></trkpt><trkpt lat="44.87747166155455" lon="7.312923084820964"><ele>384.4</ele><time>2026-04-07T08:38:50Z</time></trkpt><trkpt lat="44.87737181716087" lon="7.312860249981607"><ele>384.2</ele><time>2026-04-07T08:38:51Z</time></trkpt><trkpt lat="44.87727587738441" lon="7.312783222144747"><ele>384.0</ele><time>2026-04-07T08:38:52Z</time></trkpt><trkpt lat="44.87719316100185" lon="7.312700866064051"><ele>384.0</ele><time>2026-04-07T08:38:53Z</time></trkpt><trkpt lat="44.877120593740436" lon="7.312621261759597"><ele>384.0</ele><time>2026-04-07T08:38:54Z</time></trkpt><trkpt lat="44.87705016431304" lon="7.312548015167282"><ele>384.0</ele><time>2026-04-07T08:38:55Z</time></trkpt><trkpt lat="44.876984001706816" lon="7.312481165416953"><ele>384.0</ele><time>2026-04-07T08:38:56Z</time></trkpt><trkpt lat="44.87691909125082" lon="7.31241539236887"><ele>384.0</ele><time>2026-04-07T08:38:57Z</time></trkpt><trkpt lat="44.876858840856244" lon="7.312354847989924"><ele>384.0</ele><time>2026-04-07T08:38:58Z</time></trkpt><trkpt lat="44.87679585135929" lon="7.312292464761993"><ele>383.6</ele><time>2026-04-07T08:38:59Z</time></trkpt><trkpt lat="44.87672889362094" lon="7.312224198755407"><ele>383.2</ele><time>2026-04-07T08:39:00Z</time></trkpt><trkpt lat="44.876658328534994" lon="7.312152220831702"><ele>382.8</ele><time>2026-04-07T08:39:01Z</time></trkpt><trkpt lat="44.87657816612008" lon="7.312082684088454"><ele>382.40000000000003</ele><time>2026-04-07T08:39:02Z</time></trkpt><trkpt lat="44.876485076737076" lon="7.312002770447062"><ele>382.0</ele><time>2026-04-07T08:39:03Z</time></trkpt><trkpt lat="44.87638959987626" lon="7.31191899146829"><ele>382.0</ele><time>2026-04-07T08:39:04Z</time></trkpt><trkpt lat="44.876285828023725" lon="7.3118298340149535"><ele>382.0</ele><time>2026-04-07T08:39:05Z</time></trkpt><trkpt lat="44.876179205579454" lon="7.311740021117915"><ele>382.0</ele><time>2026-04-07T08:39:06Z</time></trkpt><trkpt lat="44.876079771661935" lon="7.311658737964638"><ele>382.0</ele><time>2026-04-07T08:39:07Z</time></trkpt><trkpt lat="44.87598603082844" lon="7.31158072914802"><ele>382.0</ele><time>2026-04-07T08:39:08Z</time></trkpt><trkpt lat="44.8758892734295" lon="7.311504328811298"><ele>382.0</ele><time>2026-04-07T08:39:09Z</time></trkpt><trkpt lat="44.875792320415194" lon="7.311426482567378"><ele>382.0</ele><time>2026-04-07T08:39:10Z</time></trkpt><trkpt lat="44.875693408038465" lon="7.311342734853859"><ele>382.0</ele><time>2026-04-07T08:39:11Z</time></trkpt><trkpt lat="44.875592681646296" lon="7.3112580467766595"><ele>382.0</ele><time>2026-04-07T08:39:12Z</time></trkpt><trkpt lat="44.87549085998156" lon="7.311172777465824"><ele>382.0</ele><time>2026-04-07T08:39:13Z</time></trkpt><trkpt lat="44.875392629371234" lon="7.3110799488717175"><ele>382.0</ele><time>2026-04-07T08:39:14Z</time></trkpt><trkpt lat="44.875300868813675" lon="7.310981918863784"><ele>382.0</ele><time>2026-04-07T08:39:15Z</time></trkpt><trkpt lat="44.87521720766769" lon="7.310887703288339"><ele>382.0</ele><time>2026-04-07T08:39:16Z</time></trkpt><trkpt lat="44.87513355195803" lon="7.310783242288942"><ele>382.0</ele><time>2026-04-07T08:39:16.999Z</time></trkpt><trkpt lat="44.87505260003532" lon="7.3106821510579145"><ele>382.0</ele><time>2026-04-07T08:39:17.999Z</time></trkpt><trkpt lat="44.87497859924658" lon="7.310579842083542"><ele>382.0</ele><time>2026-04-07T08:39:18.999Z</time></trkpt><trkpt lat="44.87490503872527" lon="7.310477309886877"><ele>382.0</ele><time>2026-04-07T08:39:19.999Z</time></trkpt><trkpt lat="44.87483123587179" lon="7.310370202805746"><ele>381.6</ele><time>2026-04-07T08:39:20.999Z</time></trkpt><trkpt lat="44.87475960535799" lon="7.310259382637241"><ele>381.20000000000005</ele><time>2026-04-07T08:39:21.999Z</time></trkpt><trkpt lat="44.87469028206288" lon="7.310146284581908"><ele>380.8</ele><time>2026-04-07T08:39:22.999Z</time></trkpt><trkpt lat="44.8746264166507" lon="7.310036784226082"><ele>380.4</ele><time>2026-04-07T08:39:23.999Z</time></trkpt><trkpt lat="44.87456503001263" lon="7.3099280755931835"><ele>380.0</ele><time>2026-04-07T08:39:24.999Z</time></trkpt><trkpt lat="44.87450677641583" lon="7.309811501473155"><ele>380.4</ele><time>2026-04-07T08:39:25.999Z</time></trkpt><trkpt lat="44.874448634614446" lon="7.309698197425879"><ele>380.8</ele><time>2026-04-07T08:39:26.999Z</time></trkpt><trkpt lat="44.87439201447132" lon="7.309582228084"><ele>381.20000000000005</ele><time>2026-04-07T08:39:27.999Z</time></trkpt><trkpt lat="44.87434241023231" lon="7.309465348984621"><ele>381.6</ele><time>2026-04-07T08:39:28.999Z</time></trkpt><trkpt lat="44.8742974227614" lon="7.3093456621682265"><ele>382.0</ele><time>2026-04-07T08:39:29.999Z</time></trkpt><trkpt lat="44.87425300339175" lon="7.3092280106973275"><ele>382.5</ele><time>2026-04-07T08:39:30.999Z</time></trkpt><trkpt lat="44.87421911960827" lon="7.309121261416352"><ele>383.0</ele><time>2026-04-07T08:39:31.999Z</time></trkpt><trkpt lat="44.874192613780465" lon="7.3090184291535065"><ele>383.5</ele><time>2026-04-07T08:39:32.999Z</time></trkpt><trkpt lat="44.874168398387965" lon="7.308925964257249"><ele>384.0</ele><time>2026-04-07T08:39:33.999Z</time></trkpt><trkpt lat="44.87414434572081" lon="7.308842326106541"><ele>384.50000000000006</ele><time>2026-04-07T08:39:34.999Z</time></trkpt><trkpt lat="44.87410269658055" lon="7.308688069901326"><ele>385.0</ele><time>2026-04-07T08:39:36.999Z</time></trkpt><trkpt lat="44.874055377753606" lon="7.308517126277875"><ele>385.00000000000006</ele><time>2026-04-07T08:39:38.999Z</time></trkpt><trkpt lat="44.874026368662186" lon="7.308423299351744"><ele>385.0</ele><time>2026-04-07T08:39:39.999Z</time></trkpt><trkpt lat="44.874001380223746" lon="7.308319025150367"><ele>385.0</ele><time>2026-04-07T08:39:40.999Z</time></trkpt><trkpt lat="44.873986184398646" lon="7.308203488677579"><ele>385.0</ele><time>2026-04-07T08:39:41.999Z</time></trkpt><trkpt lat="44.87397584654437" lon="7.308079464209048"><ele>385.00000000000006</ele><time>2026-04-07T08:39:42.999Z</time></trkpt><trkpt lat="44.87396034358514" lon="7.307936139655759"><ele>385.0</ele><time>2026-04-07T08:39:43.999Z</time></trkpt><trkpt lat="44.87394919802886" lon="7.307812326677547"><ele>385.00000000000006</ele><time>2026-04-07T08:39:44.999Z</time></trkpt><trkpt lat="44.87394029606794" lon="7.307690036281592"><ele>385.0</ele><time>2026-04-07T08:39:45.999Z</time></trkpt><trkpt lat="44.873931881019274" lon="7.307574105464668"><ele>385.0</ele><time>2026-04-07T08:39:46.999Z</time></trkpt><trkpt lat="44.87391948147329" lon="7.307451330202354"><ele>385.0</ele><time>2026-04-07T08:39:47.999Z</time></trkpt><trkpt lat="44.87391146500546" lon="7.307337562232738"><ele>385.00000000000006</ele><time>2026-04-07T08:39:48.999Z</time></trkpt><trkpt lat="44.87390049897095" lon="7.307236101928543"><ele>385.0</ele><time>2026-04-07T08:39:49.999Z</time></trkpt><trkpt lat="44.87389363336722" lon="7.307143861758969"><ele>385.0</ele><time>2026-04-07T08:39:50.999Z</time></trkpt><trkpt lat="44.873880257819565" lon="7.306977989169557"><ele>385.0</ele><time>2026-04-07T08:39:52.999Z</time></trkpt><trkpt lat="44.87387358531656" lon="7.306824743814707"><ele>385.0</ele><time>2026-04-07T08:39:54.999Z</time></trkpt><trkpt lat="44.87385837391999" lon="7.306671028823053"><ele>385.0</ele><time>2026-04-07T08:39:56.999Z</time></trkpt><trkpt lat="44.87382843404805" lon="7.306539869297317"><ele>385.0</ele><time>2026-04-07T08:39:58.999Z</time></trkpt><trkpt lat="44.87376424518079" lon="7.306490072076979"><ele>385.0</ele><time>2026-04-07T08:39:59.999Z</time></trkpt><trkpt lat="44.87363289770329" lon="7.306438182905692"><ele>385.0</ele><time>2026-04-07T08:40:01.999Z</time></trkpt><trkpt lat="44.873546777795724" lon="7.306410922063005"><ele>385.0</ele><time>2026-04-07T08:40:02.999Z</time></trkpt><trkpt lat="44.873454608677136" lon="7.306383628344991"><ele>385.0</ele><time>2026-04-07T08:40:03.999Z</time></trkpt><trkpt lat="44.873377211641866" lon="7.306383776418469"><ele>385.0</ele><time>2026-04-07T08:40:04.999Z</time></trkpt><trkpt lat="44.873300424180144" lon="7.306348315338013"><ele>384.83333333333337</ele><time>2026-04-07T08:40:05.999Z</time></trkpt><trkpt lat="44.87321311821841" lon="7.306330702229298"><ele>384.6666666666667</ele><time>2026-04-07T08:40:06.999Z</time></trkpt><trkpt lat="44.87312635684359" lon="7.306303825106186"><ele>384.5</ele><time>2026-04-07T08:40:08Z</time></trkpt><trkpt lat="44.87304004866915" lon="7.306268403987784"><ele>384.33333333333337</ele><time>2026-04-07T08:40:09Z</time></trkpt><trkpt lat="44.87295987534758" lon="7.306229268073196"><ele>384.1666666666667</ele><time>2026-04-07T08:40:10Z</time></trkpt><trkpt lat="44.872876354292146" lon="7.3061792487383075"><ele>384.0</ele><time>2026-04-07T08:40:11Z</time></trkpt><trkpt lat="44.87280461509016" lon="7.306123137891905"><ele>384.0</ele><time>2026-04-07T08:40:12Z</time></trkpt><trkpt lat="44.872740673861415" lon="7.306062583499905"><ele>384.0</ele><time>2026-04-07T08:40:13Z</time></trkpt><trkpt lat="44.872681402861964" lon="7.305988031047979"><ele>384.0</ele><time>2026-04-07T08:40:14Z</time></trkpt><trkpt lat="44.87263058036932" lon="7.3059008067123745"><ele>384.0</ele><time>2026-04-07T08:40:15Z</time></trkpt><trkpt lat="44.87258424269128" lon="7.305802572448606"><ele>384.0</ele><time>2026-04-07T08:40:16Z</time></trkpt><trkpt lat="44.872539333144445" lon="7.305690663318931"><ele>384.0</ele><time>2026-04-07T08:40:17Z</time></trkpt><trkpt lat="44.872504519584304" lon="7.305571998014641"><ele>384.1666666666667</ele><time>2026-04-07T08:40:18Z</time></trkpt><trkpt lat="44.872477669167644" lon="7.305465793476116"><ele>384.33333333333337</ele><time>2026-04-07T08:40:19Z</time></trkpt><trkpt lat="44.872455802352924" lon="7.30536928022634"><ele>384.5</ele><time>2026-04-07T08:40:20Z</time></trkpt><trkpt lat="44.87243057812815" lon="7.305269467641479"><ele>384.6666666666667</ele><time>2026-04-07T08:40:21Z</time></trkpt><trkpt lat="44.87240213188308" lon="7.305164391440154"><ele>384.83333333333337</ele><time>2026-04-07T08:40:22Z</time></trkpt><trkpt lat="44.87237307619676" lon="7.305064746390661"><ele>385.0</ele><time>2026-04-07T08:40:23Z</time></trkpt><trkpt lat="44.87234342426862" lon="7.304969029117328"><ele>385.00000000000006</ele><time>2026-04-07T08:40:24Z</time></trkpt><trkpt lat="44.8723138294841" lon="7.304875054527217"><ele>385.0</ele><time>2026-04-07T08:40:25Z</time></trkpt><trkpt lat="44.87227998510625" lon="7.304786560544917"><ele>385.0</ele><time>2026-04-07T08:40:26Z</time></trkpt><trkpt lat="44.87224430212159" lon="7.304693395680806"><ele>385.0</ele><time>2026-04-07T08:40:27Z</time></trkpt><trkpt lat="44.87221158665577" lon="7.304594442476399"><ele>385.00000000000006</ele><time>2026-04-07T08:40:28Z</time></trkpt><trkpt lat="44.87217756947726" lon="7.304491492742321"><ele>385.0</ele><time>2026-04-07T08:40:29Z</time></trkpt><trkpt lat="44.872138571421296" lon="7.304383809893886"><ele>385.33333333333337</ele><time>2026-04-07T08:40:30Z</time></trkpt><trkpt lat="44.87209722669415" lon="7.304278898829413"><ele>385.6666666666667</ele><time>2026-04-07T08:40:31Z</time></trkpt><trkpt lat="44.87205369336683" lon="7.304185364435458"><ele>386.0</ele><time>2026-04-07T08:40:32Z</time></trkpt><trkpt lat="44.872011369841616" lon="7.304101902626928"><ele>386.33333333333337</ele><time>2026-04-07T08:40:33Z</time></trkpt><trkpt lat="44.87195760834681" lon="7.304021363011316"><ele>386.6666666666667</ele><time>2026-04-07T08:40:34Z</time></trkpt><trkpt lat="44.87190258150157" lon="7.303939338803863"><ele>387.0</ele><time>2026-04-07T08:40:35Z</time></trkpt><trkpt lat="44.87184064475266" lon="7.30386780935306"><ele>387.0</ele><time>2026-04-07T08:40:36Z</time></trkpt><trkpt lat="44.871778119076026" lon="7.303804992715278"><ele>387.0</ele><time>2026-04-07T08:40:37Z</time></trkpt><trkpt lat="44.871713235636555" lon="7.3037432308468695"><ele>387.0</ele><time>2026-04-07T08:40:38Z</time></trkpt><trkpt lat="44.87164356759954" lon="7.303697221256819"><ele>387.0</ele><time>2026-04-07T08:40:39Z</time></trkpt><trkpt lat="44.87157083855085" lon="7.30365704564526"><ele>387.0</ele><time>2026-04-07T08:40:40Z</time></trkpt><trkpt lat="44.871502096186084" lon="7.303601128798508"><ele>387.0</ele><time>2026-04-07T08:40:41Z</time></trkpt><trkpt lat="44.871437620629194" lon="7.303539954612545"><ele>387.1666666666667</ele><time>2026-04-07T08:40:42Z</time></trkpt><trkpt lat="44.87137878641247" lon="7.303463704749044"><ele>387.33333333333337</ele><time>2026-04-07T08:40:43Z</time></trkpt><trkpt lat="44.87133422521457" lon="7.303375750583318"><ele>387.5</ele><time>2026-04-07T08:40:44Z</time></trkpt><trkpt lat="44.871294490568005" lon="7.303277146913798"><ele>387.6666666666667</ele><time>2026-04-07T08:40:45Z</time></trkpt><trkpt lat="44.87125943280374" lon="7.3031733246035495"><ele>387.83333333333337</ele><time>2026-04-07T08:40:46Z</time></trkpt><trkpt lat="44.871230696250144" lon="7.303063988579801"><ele>388.0</ele><time>2026-04-07T08:40:47Z</time></trkpt><trkpt lat="44.87120248992581" lon="7.302952506577528"><ele>388.00000000000006</ele><time>2026-04-07T08:40:48Z</time></trkpt><trkpt lat="44.87117868790439" lon="7.302846499484395"><ele>388.0</ele><time>2026-04-07T08:40:49Z</time></trkpt><trkpt lat="44.871152031596644" lon="7.302736227977451"><ele>388.0</ele><time>2026-04-07T08:40:50Z</time></trkpt><trkpt lat="44.87112493203461" lon="7.302628845111454"><ele>388.0</ele><time>2026-04-07T08:40:51Z</time></trkpt><trkpt lat="44.87109819556837" lon="7.302521756630519"><ele>388.00000000000006</ele><time>2026-04-07T08:40:52Z</time></trkpt><trkpt lat="44.87107418782488" lon="7.302420870208336"><ele>388.0</ele><time>2026-04-07T08:40:53Z</time></trkpt><trkpt lat="44.8710512346316" lon="7.302320299258353"><ele>388.1666666666667</ele><time>2026-04-07T08:40:54Z</time></trkpt><trkpt lat="44.87101589198946" lon="7.302228759439449"><ele>388.33333333333337</ele><time>2026-04-07T08:40:55Z</time></trkpt><trkpt lat="44.87098919287462" lon="7.302126975919182"><ele>388.5</ele><time>2026-04-07T08:40:56Z</time></trkpt><trkpt lat="44.870957603591194" lon="7.302029145580046"><ele>388.66666666666663</ele><time>2026-04-07T08:40:57Z</time></trkpt><trkpt lat="44.87092652522194" lon="7.301929101672474"><ele>388.8333333333333</ele><time>2026-04-07T08:40:58Z</time></trkpt><trkpt lat="44.870896965632134" lon="7.301826950380686"><ele>389.0</ele><time>2026-04-07T08:40:59Z</time></trkpt><trkpt lat="44.870867620981905" lon="7.301728233759899"><ele>389.8333333333333</ele><time>2026-04-07T08:41:00Z</time></trkpt><trkpt lat="44.87083766842718" lon="7.301631013410438"><ele>390.66666666666663</ele><time>2026-04-07T08:41:01Z</time></trkpt><trkpt lat="44.8708065855587" lon="7.301537119558995"><ele>391.5</ele><time>2026-04-07T08:41:02Z</time></trkpt><trkpt lat="44.87077327298802" lon="7.301449754566563"><ele>392.33333333333337</ele><time>2026-04-07T08:41:03Z</time></trkpt><trkpt lat="44.87074175388171" lon="7.3013695751537995"><ele>393.1666666666667</ele><time>2026-04-07T08:41:04Z</time></trkpt><trkpt lat="44.87068550743813" lon="7.301230799149798"><ele>394.0</ele><time>2026-04-07T08:41:06Z</time></trkpt><trkpt lat="44.87065484432477" lon="7.301149395429929"><ele>394.79999999999995</ele><time>2026-04-07T08:41:09Z</time></trkpt><trkpt lat="44.87078550494167" lon="7.301019172189308"><ele>395.59999999999997</ele><time>2026-04-07T08:41:11Z</time></trkpt><trkpt lat="44.8708523754872" lon="7.3010063657191315"><ele>396.4</ele><time>2026-04-07T08:41:12Z</time></trkpt><trkpt lat="44.87094490083042" lon="7.300985956104235"><ele>397.2</ele><time>2026-04-07T08:41:14Z</time></trkpt><trkpt lat="44.87102436148061" lon="7.300973566910063"><ele>398.0</ele><time>2026-04-07T08:41:16Z</time></trkpt><trkpt lat="44.87099885985081" lon="7.300777984181192"><ele>397.99999999999994</ele><time>2026-04-07T08:41:17Z</time></trkpt><trkpt lat="44.87097392597297" lon="7.300675377997168"><ele>398.0</ele><time>2026-04-07T08:41:18Z</time></trkpt><trkpt lat="44.87097320429112" lon="7.30056079010937"><ele>398.0</ele><time>2026-04-07T08:41:19Z</time></trkpt><trkpt lat="44.870986970889476" lon="7.300431972998819"><ele>398.0</ele><time>2026-04-07T08:41:20Z</time></trkpt><trkpt lat="44.87102197997997" lon="7.300296509360404"><ele>397.99999999999994</ele><time>2026-04-07T08:41:21Z</time></trkpt><trkpt lat="44.87107000952472" lon="7.300207695215056"><ele>398.0</ele><time>2026-04-07T08:41:22Z</time></trkpt><trkpt lat="44.87111882507536" lon="7.300117577661068"><ele>402.0</ele><time>2026-04-07T08:41:22.999Z</time></trkpt><trkpt lat="44.871174552140076" lon="7.300022745625896"><ele>406.0</ele><time>2026-04-07T08:41:23.999Z</time></trkpt><trkpt lat="44.87123357761594" lon="7.299915828516962"><ele>410.0</ele><time>2026-04-07T08:41:24.999Z</time></trkpt><trkpt lat="44.871291547614184" lon="7.299805166751957"><ele>414.0</ele><time>2026-04-07T08:41:25.999Z</time></trkpt><trkpt lat="44.8713522973383" lon="7.299691101437119"><ele>418.0</ele><time>2026-04-07T08:41:26.999Z</time></trkpt><trkpt lat="44.87141110412199" lon="7.299571906367624"><ele>419.2</ele><time>2026-04-07T08:41:27.999Z</time></trkpt><trkpt lat="44.87146662834311" lon="7.299448056889669"><ele>420.4</ele><time>2026-04-07T08:41:28.999Z</time></trkpt><trkpt lat="44.87151918763648" lon="7.299335721721571"><ele>421.59999999999997</ele><time>2026-04-07T08:41:29.999Z</time></trkpt><trkpt lat="44.87157746584577" lon="7.299216142837174"><ele>422.79999999999995</ele><time>2026-04-07T08:41:30.999Z</time></trkpt><trkpt lat="44.87163612757652" lon="7.299093920248957"><ele>424.0</ele><time>2026-04-07T08:41:31.999Z</time></trkpt><trkpt lat="44.87169632066224" lon="7.298979310768722"><ele>424.83333333333337</ele><time>2026-04-07T08:41:32.999Z</time></trkpt><trkpt lat="44.871744817390244" lon="7.298878234312082"><ele>425.6666666666667</ele><time>2026-04-07T08:41:33.999Z</time></trkpt><trkpt lat="44.871789885237895" lon="7.298775148474055"><ele>426.5</ele><time>2026-04-07T08:41:34.999Z</time></trkpt><trkpt lat="44.87182236860919" lon="7.298665038304613"><ele>427.33333333333337</ele><time>2026-04-07T08:41:35.999Z</time></trkpt><trkpt lat="44.87184715644798" lon="7.298547071565797"><ele>428.1666666666667</ele><time>2026-04-07T08:41:36.999Z</time></trkpt><trkpt lat="44.87187670484567" lon="7.298430067243036"><ele>429.0</ele><time>2026-04-07T08:41:37.999Z</time></trkpt><trkpt lat="44.871886435625456" lon="7.298313062013224"><ele>430.4</ele><time>2026-04-07T08:41:38.999Z</time></trkpt><trkpt lat="44.87186940476281" lon="7.2981966173624"><ele>431.79999999999995</ele><time>2026-04-07T08:41:39.999Z</time></trkpt><trkpt lat="44.87183754089971" lon="7.298071800553239"><ele>433.20000000000005</ele><time>2026-04-07T08:41:40.999Z</time></trkpt><trkpt lat="44.871783512738496" lon="7.297956764272554"><ele>434.6</ele><time>2026-04-07T08:41:41.999Z</time></trkpt><trkpt lat="44.87171177650825" lon="7.297847959549723"><ele>436.0</ele><time>2026-04-07T08:41:42.999Z</time></trkpt><trkpt lat="44.87165241463217" lon="7.297741402309667"><ele>436.00000000000006</ele><time>2026-04-07T08:41:43.999Z</time></trkpt><trkpt lat="44.87160992218349" lon="7.2976423561766754"><ele>436.0</ele><time>2026-04-07T08:41:44.999Z</time></trkpt><trkpt lat="44.87158621008013" lon="7.297524716602919"><ele>436.0</ele><time>2026-04-07T08:41:45.999Z</time></trkpt><trkpt lat="44.871586647220504" lon="7.297426109057188"><ele>436.0</ele><time>2026-04-07T08:41:46.999Z</time></trkpt><trkpt lat="44.87159732659123" lon="7.297319634292046"><ele>436.00000000000006</ele><time>2026-04-07T08:41:48.999Z</time></trkpt><trkpt lat="44.87160918350042" lon="7.2972124165622425"><ele>436.0</ele><time>2026-04-07T08:41:52.999Z</time></trkpt><trkpt lat="44.8716519263321" lon="7.297143188898115"><ele>436.0</ele><time>2026-04-07T08:41:59.999Z</time></trkpt><trkpt lat="44.8716285205501" lon="7.297251743983992"><ele>436.0</ele><time>2026-04-07T08:42:03.999Z</time></trkpt><trkpt lat="44.87161430381655" lon="7.297362144066243"><ele>436.0</ele><time>2026-04-07T08:42:05.999Z</time></trkpt><trkpt lat="44.87185120454969" lon="7.29749141569634"><ele>436.0</ele><time>2026-04-07T08:42:08.999Z</time></trkpt><trkpt lat="44.871825308203015" lon="7.297305938810744"><ele>439.20000000000005</ele><time>2026-04-07T08:42:10.999Z</time></trkpt><trkpt lat="44.87183034627408" lon="7.297206280188871"><ele>442.40000000000003</ele><time>2026-04-07T08:42:12.999Z</time></trkpt><trkpt lat="44.87197555866199" lon="7.297247400133119"><ele>445.6</ele><time>2026-04-07T08:42:15Z</time></trkpt><trkpt lat="44.872056667242106" lon="7.29724629508438"><ele>448.8</ele><time>2026-04-07T08:42:16Z</time></trkpt><trkpt lat="44.87213304134911" lon="7.297238742861763"><ele>452.0</ele><time>2026-04-07T08:42:17Z</time></trkpt><trkpt lat="44.872204036124245" lon="7.297195469136491"><ele>452.0</ele><time>2026-04-07T08:42:18Z</time></trkpt><trkpt lat="44.87227671973098" lon="7.297145305655214"><ele>452.00000000000006</ele><time>2026-04-07T08:42:19Z</time></trkpt><trkpt lat="44.872365231141835" lon="7.297099577394605"><ele>452.00000000000006</ele><time>2026-04-07T08:42:20Z</time></trkpt><trkpt lat="44.872459311575334" lon="7.297042185135388"><ele>452.0</ele><time>2026-04-07T08:42:21Z</time></trkpt><trkpt lat="44.872547220968166" lon="7.296973249452491"><ele>452.0</ele><time>2026-04-07T08:42:22Z</time></trkpt><trkpt lat="44.87263066556388" lon="7.2969273864060655"><ele>453.0</ele><time>2026-04-07T08:42:23Z</time></trkpt><trkpt lat="44.87270372067193" lon="7.2968679028698915"><ele>454.00000000000006</ele><time>2026-04-07T08:42:24Z</time></trkpt><trkpt lat="44.87278380829488" lon="7.296797976387362"><ele>455.00000000000006</ele><time>2026-04-07T08:42:25Z</time></trkpt><trkpt lat="44.872865371214104" lon="7.29672726259417"><ele>456.0</ele><time>2026-04-07T08:42:26Z</time></trkpt><trkpt lat="44.87295278963949" lon="7.296654190395769"><ele>457.0</ele><time>2026-04-07T08:42:27Z</time></trkpt><trkpt lat="44.87303796428786" lon="7.296578913653081"><ele>457.0</ele><time>2026-04-07T08:42:28Z</time></trkpt><trkpt lat="44.873129973997784" lon="7.296503669459529"><ele>457.00000000000006</ele><time>2026-04-07T08:42:29Z</time></trkpt><trkpt lat="44.87322336056702" lon="7.296427115801718"><ele>457.00000000000006</ele><time>2026-04-07T08:42:30Z</time></trkpt><trkpt lat="44.87333063634689" lon="7.296370014529743"><ele>457.0</ele><time>2026-04-07T08:42:31Z</time></trkpt><trkpt lat="44.87341414280232" lon="7.296291743336739"><ele>457.0</ele><time>2026-04-07T08:42:32Z</time></trkpt><trkpt lat="44.87349135065657" lon="7.296236946452003"><ele>459.6666666666667</ele><time>2026-04-07T08:42:33Z</time></trkpt><trkpt lat="44.87357694374326" lon="7.296199738523029"><ele>462.33333333333337</ele><time>2026-04-07T08:42:34Z</time></trkpt><trkpt lat="44.87364210969979" lon="7.296185297729852"><ele>465.0</ele><time>2026-04-07T08:42:35Z</time></trkpt><trkpt lat="44.87370645232585" lon="7.2961774059313225"><ele>467.66666666666663</ele><time>2026-04-07T08:42:36Z</time></trkpt><trkpt lat="44.87377706336372" lon="7.2961336717212815"><ele>470.3333333333333</ele><time>2026-04-07T08:42:37Z</time></trkpt><trkpt lat="44.87385205962032" lon="7.296087393235372"><ele>473.0</ele><time>2026-04-07T08:42:38Z</time></trkpt><trkpt lat="44.87391999837993" lon="7.296025571198802"><ele>472.99999999999994</ele><time>2026-04-07T08:42:39Z</time></trkpt><trkpt lat="44.87399169245859" lon="7.295954182219534"><ele>473.0</ele><time>2026-04-07T08:42:40Z</time></trkpt><trkpt lat="44.874062780198955" lon="7.295879782724673"><ele>473.0</ele><time>2026-04-07T08:42:41Z</time></trkpt><trkpt lat="44.87414254017816" lon="7.295809765606457"><ele>473.0</ele><time>2026-04-07T08:42:42Z</time></trkpt><trkpt lat="44.874216869240634" lon="7.295737682363676"><ele>472.99999999999994</ele><time>2026-04-07T08:42:43Z</time></trkpt><trkpt lat="44.87429044119866" lon="7.295669659725553"><ele>473.0</ele><time>2026-04-07T08:42:44Z</time></trkpt><trkpt lat="44.87435909530945" lon="7.2956100931289605"><ele>475.8333333333333</ele><time>2026-04-07T08:42:45Z</time></trkpt><trkpt lat="44.87442283609939" lon="7.295570909792707"><ele>478.66666666666663</ele><time>2026-04-07T08:42:46Z</time></trkpt><trkpt lat="44.87449792557625" lon="7.2955435564332465"><ele>481.5</ele><time>2026-04-07T08:42:47Z</time></trkpt><trkpt lat="44.87458019777185" lon="7.295550134966405"><ele>484.33333333333337</ele><time>2026-04-07T08:42:48Z</time></trkpt><trkpt lat="44.87465441846324" lon="7.295507890691571"><ele>487.1666666666667</ele><time>2026-04-07T08:42:49Z</time></trkpt><trkpt lat="44.87473131736598" lon="7.295466682747208"><ele>490.0</ele><time>2026-04-07T08:42:50Z</time></trkpt><trkpt lat="44.87481139399407" lon="7.2954103235357035"><ele>490.0</ele><time>2026-04-07T08:42:51Z</time></trkpt><trkpt lat="44.87489626895779" lon="7.295338689339854"><ele>490.0</ele><time>2026-04-07T08:42:52Z</time></trkpt><trkpt lat="44.87498655227127" lon="7.295261971666908"><ele>490.0</ele><time>2026-04-07T08:42:53Z</time></trkpt><trkpt lat="44.87509128612736" lon="7.2952095318440655"><ele>490.0</ele><time>2026-04-07T08:42:54Z</time></trkpt><trkpt lat="44.87519233230868" lon="7.295138638916479"><ele>490.0</ele><time>2026-04-07T08:42:55Z</time></trkpt><trkpt lat="44.875291482440694" lon="7.295079383345197"><ele>493.2</ele><time>2026-04-07T08:42:56Z</time></trkpt><trkpt lat="44.87538522517437" lon="7.295024984367763"><ele>496.4</ele><time>2026-04-07T08:42:57Z</time></trkpt><trkpt lat="44.875473252990574" lon="7.294981822175312"><ele>499.6</ele><time>2026-04-07T08:42:58Z</time></trkpt><trkpt lat="44.87555063738292" lon="7.294940329191658"><ele>502.8</ele><time>2026-04-07T08:42:59Z</time></trkpt><trkpt lat="44.87564240359435" lon="7.294908981094599"><ele>506.0</ele><time>2026-04-07T08:43:00Z</time></trkpt><trkpt lat="44.875745397618594" lon="7.294888341767332"><ele>505.99999999999994</ele><time>2026-04-07T08:43:01Z</time></trkpt><trkpt lat="44.87583448072919" lon="7.294865233450696"><ele>506.0</ele><time>2026-04-07T08:43:02Z</time></trkpt><trkpt lat="44.8759076047444" lon="7.29484637786455"><ele>506.0</ele><time>2026-04-07T08:43:03Z</time></trkpt><trkpt lat="44.87602033145967" lon="7.294802857815287"><ele>506.0</ele><time>2026-04-07T08:43:05Z</time></trkpt><trkpt lat="44.87609394698501" lon="7.294771072722908"><ele>505.99999999999994</ele><time>2026-04-07T08:43:06Z</time></trkpt><trkpt lat="44.876176344499164" lon="7.294737812782045"><ele>506.0</ele><time>2026-04-07T08:43:07Z</time></trkpt><trkpt lat="44.876251896401854" lon="7.294693430473886"><ele>508.16666666666663</ele><time>2026-04-07T08:43:08Z</time></trkpt><trkpt lat="44.87632592963296" lon="7.294641964383342"><ele>510.3333333333333</ele><time>2026-04-07T08:43:09Z</time></trkpt><trkpt lat="44.87640199112467" lon="7.294578021459545"><ele>512.5</ele><time>2026-04-07T08:43:10Z</time></trkpt><trkpt lat="44.87648027441556" lon="7.29451567380507"><ele>514.6666666666666</ele><time>2026-04-07T08:43:11Z</time></trkpt><trkpt lat="44.87655936074627" lon="7.294462404653224"><ele>516.8333333333334</ele><time>2026-04-07T08:43:12Z</time></trkpt><trkpt lat="44.87664838305728" lon="7.294412361693754"><ele>519.0</ele><time>2026-04-07T08:43:13Z</time></trkpt><trkpt lat="44.8767437855573" lon="7.294364665314251"><ele>519.6666666666666</ele><time>2026-04-07T08:43:14Z</time></trkpt><trkpt lat="44.876806928255206" lon="7.294339796878668"><ele>520.3333333333334</ele><time>2026-04-07T08:43:15Z</time></trkpt><trkpt lat="44.87690721214069" lon="7.2943248145505875"><ele>521.0</ele><time>2026-04-07T08:43:17Z</time></trkpt><trkpt lat="44.8769772587021" lon="7.294323213749254"><ele>521.6666666666667</ele><time>2026-04-07T08:43:41.999Z</time></trkpt><trkpt lat="44.877054038636054" lon="7.294298574679245"><ele>522.3333333333334</ele><time>2026-04-07T08:43:43.999Z</time></trkpt><trkpt lat="44.87715444400495" lon="7.2942713951504246"><ele>523.0</ele><time>2026-04-07T08:43:45.999Z</time></trkpt><trkpt lat="44.877263566248786" lon="7.294246631297493"><ele>523.0</ele><time>2026-04-07T08:43:47.999Z</time></trkpt><trkpt lat="44.877334415294904" lon="7.294216267416637"><ele>523.0</ele><time>2026-04-07T08:43:48.999Z</time></trkpt><trkpt lat="44.87740961207547" lon="7.294154105669159"><ele>523.0</ele><time>2026-04-07T08:43:49.999Z</time></trkpt><trkpt lat="44.877497465089085" lon="7.294131311264579"><ele>523.0</ele><time>2026-04-07T08:43:50.999Z</time></trkpt><trkpt lat="44.87760055467327" lon="7.294107634986099"><ele>523.0</ele><time>2026-04-07T08:43:51.999Z</time></trkpt><trkpt lat="44.87770474172515" lon="7.294085920012824"><ele>521.3333333333334</ele><time>2026-04-07T08:43:52.999Z</time></trkpt><trkpt lat="44.87780527767122" lon="7.2941053432851595"><ele>519.6666666666667</ele><time>2026-04-07T08:43:53.999Z</time></trkpt><trkpt lat="44.877889420134714" lon="7.294076338821132"><ele>518.0</ele><time>2026-04-07T08:43:54.999Z</time></trkpt><trkpt lat="44.877957907644216" lon="7.294061750856251"><ele>516.3333333333334</ele><time>2026-04-07T08:43:55.999Z</time></trkpt><trkpt lat="44.87802141096164" lon="7.294049979850278"><ele>514.6666666666666</ele><time>2026-04-07T08:43:56.999Z</time></trkpt><trkpt lat="44.87808681651011" lon="7.294054423197927"><ele>513.0</ele><time>2026-04-07T08:43:57.999Z</time></trkpt><trkpt lat="44.87814460802326" lon="7.294017168638516"><ele>513.0</ele><time>2026-04-07T08:43:58.999Z</time></trkpt><trkpt lat="44.87822497797769" lon="7.293971160636424"><ele>513.0</ele><time>2026-04-07T08:43:59.999Z</time></trkpt><trkpt lat="44.878301029754866" lon="7.293928658533336"><ele>513.0</ele><time>2026-04-07T08:44:00.999Z</time></trkpt><trkpt lat="44.87836192423648" lon="7.293885839962906"><ele>513.0</ele><time>2026-04-07T08:44:01.999Z</time></trkpt><trkpt lat="44.87845692240982" lon="7.293765867749237"><ele>513.0</ele><time>2026-04-07T08:44:03.999Z</time></trkpt><trkpt lat="44.87849805934555" lon="7.293682611149763"><ele>513.0</ele><time>2026-04-07T08:44:04.999Z</time></trkpt><trkpt lat="44.87851917220161" lon="7.293584584049022"><ele>512.3333333333334</ele><time>2026-04-07T08:44:05.999Z</time></trkpt><trkpt lat="44.87853480545527" lon="7.293479904836397"><ele>511.66666666666663</ele><time>2026-04-07T08:44:06.999Z</time></trkpt><trkpt lat="44.87853999405658" lon="7.293363014564546"><ele>511.0</ele><time>2026-04-07T08:44:07.999Z</time></trkpt><trkpt lat="44.8785296507756" lon="7.2932461231048995"><ele>510.3333333333333</ele><time>2026-04-07T08:44:08.999Z</time></trkpt><trkpt lat="44.87852428272611" lon="7.293134173848798"><ele>509.66666666666663</ele><time>2026-04-07T08:44:09.999Z</time></trkpt><trkpt lat="44.878522740890396" lon="7.293011312760216"><ele>509.0</ele><time>2026-04-07T08:44:10.999Z</time></trkpt><trkpt lat="44.87853079859686" lon="7.292915976350245"><ele>509.0</ele><time>2026-04-07T08:44:11.999Z</time></trkpt><trkpt lat="44.8785156659709" lon="7.292743239693151"><ele>509.0</ele><time>2026-04-07T08:44:13.999Z</time></trkpt><trkpt lat="44.87849437089063" lon="7.292634316304582"><ele>509.0</ele><time>2026-04-07T08:44:14.999Z</time></trkpt><trkpt lat="44.87845368019795" lon="7.292510134296303"><ele>509.0</ele><time>2026-04-07T08:44:15.999Z</time></trkpt><trkpt lat="44.878417984148804" lon="7.292390282501363"><ele>509.0</ele><time>2026-04-07T08:44:16.999Z</time></trkpt><trkpt lat="44.8783910264622" lon="7.292272270850744"><ele>513.4</ele><time>2026-04-07T08:44:17.999Z</time></trkpt><trkpt lat="44.878325564196714" lon="7.292130160975664"><ele>517.8</ele><time>2026-04-07T08:44:20Z</time></trkpt><trkpt lat="44.878266117490256" lon="7.292083374936441"><ele>522.2</ele><time>2026-04-07T08:44:21Z</time></trkpt><trkpt lat="44.87819999265143" lon="7.29206798304403"><ele>526.6</ele><time>2026-04-07T08:44:22Z</time></trkpt><trkpt lat="44.87810144024296" lon="7.292025830171581"><ele>531.0</ele><time>2026-04-07T08:44:24Z</time></trkpt><trkpt lat="44.87806363627979" lon="7.291896522804827"><ele>531.0</ele><time>2026-04-07T08:44:26Z</time></trkpt><trkpt lat="44.87806021685272" lon="7.291784887467804"><ele>531.0</ele><time>2026-04-07T08:44:27Z</time></trkpt><trkpt lat="44.87805706177675" lon="7.2916510884492585"><ele>531.0</ele><time>2026-04-07T08:44:28Z</time></trkpt><trkpt lat="44.87804936159043" lon="7.291558079727759"><ele>531.0</ele><time>2026-04-07T08:44:29Z</time></trkpt><trkpt lat="44.87797360648703" lon="7.291399607349077"><ele>531.0</ele><time>2026-04-07T08:44:31Z</time></trkpt><trkpt lat="44.877900111604305" lon="7.291312932838798"><ele>532.2</ele><time>2026-04-07T08:44:32Z</time></trkpt><trkpt lat="44.877812238517414" lon="7.291241045729748"><ele>533.4000000000001</ele><time>2026-04-07T08:44:33Z</time></trkpt><trkpt lat="44.87771781738809" lon="7.291179964675438"><ele>534.6</ele><time>2026-04-07T08:44:34Z</time></trkpt><trkpt lat="44.877618960946776" lon="7.2911075125934515"><ele>535.8000000000001</ele><time>2026-04-07T08:44:35Z</time></trkpt><trkpt lat="44.877515783972335" lon="7.2910231372508525"><ele>537.0</ele><time>2026-04-07T08:44:36Z</time></trkpt><trkpt lat="44.87742689377383" lon="7.290965233648461"><ele>537.0</ele><time>2026-04-07T08:44:37Z</time></trkpt><trkpt lat="44.87734216762722" lon="7.290910786035634"><ele>537.0</ele><time>2026-04-07T08:44:38Z</time></trkpt><trkpt lat="44.87727153060439" lon="7.290863113924071"><ele>537.0</ele><time>2026-04-07T08:44:39Z</time></trkpt><trkpt lat="44.8771901109865" lon="7.290780964162721"><ele>537.0</ele><time>2026-04-07T08:44:41Z</time></trkpt><trkpt lat="44.877137168158946" lon="7.290646867804848"><ele>537.0</ele><time>2026-04-07T08:44:43Z</time></trkpt><trkpt lat="44.8771104619057" lon="7.290539803732489"><ele>538.4</ele><time>2026-04-07T08:44:44Z</time></trkpt><trkpt lat="44.87708903041821" lon="7.29040887786928"><ele>539.8000000000001</ele><time>2026-04-07T08:44:45Z</time></trkpt><trkpt lat="44.877072464475226" lon="7.290263144907497"><ele>541.2</ele><time>2026-04-07T08:44:46Z</time></trkpt><trkpt lat="44.877071085835496" lon="7.290109425403635"><ele>542.6</ele><time>2026-04-07T08:44:47Z</time></trkpt><trkpt lat="44.87710254585606" lon="7.289939351078579"><ele>544.0</ele><time>2026-04-07T08:44:48Z</time></trkpt><trkpt lat="44.87709443497133" lon="7.289804590635751"><ele>543.0</ele><time>2026-04-07T08:44:49Z</time></trkpt><trkpt lat="44.877080995765624" lon="7.28968213110115"><ele>542.0</ele><time>2026-04-07T08:44:50Z</time></trkpt><trkpt lat="44.877053684882426" lon="7.289567504454873"><ele>541.0</ele><time>2026-04-07T08:44:51Z</time></trkpt><trkpt lat="44.87701380236668" lon="7.2894418658598035"><ele>540.0</ele><time>2026-04-07T08:44:52Z</time></trkpt><trkpt lat="44.87695265256705" lon="7.289327144098583"><ele>539.0</ele><time>2026-04-07T08:44:53Z</time></trkpt><trkpt lat="44.87690103676077" lon="7.289217978914717"><ele>539.0</ele><time>2026-04-07T08:44:54Z</time></trkpt><trkpt lat="44.87683766366208" lon="7.289113111934771"><ele>539.0</ele><time>2026-04-07T08:44:55Z</time></trkpt><trkpt lat="44.87676174270039" lon="7.289042021602537"><ele>539.0</ele><time>2026-04-07T08:44:56Z</time></trkpt><trkpt lat="44.87671709588258" lon="7.288962334522905"><ele>539.0</ele><time>2026-04-07T08:44:57Z</time></trkpt><trkpt lat="44.87671467519696" lon="7.288804876654231"><ele>539.0</ele><time>2026-04-07T08:44:59Z</time></trkpt><trkpt lat="44.87671463351283" lon="7.288698731509501"><ele>539.0</ele><time>2026-04-07T08:45:00Z</time></trkpt><trkpt lat="44.87672137575718" lon="7.288569121473651"><ele>541.2</ele><time>2026-04-07T08:45:01Z</time></trkpt><trkpt lat="44.87672764678809" lon="7.288438479845419"><ele>543.4</ele><time>2026-04-07T08:45:02Z</time></trkpt><trkpt lat="44.876750337942525" lon="7.2883058380610235"><ele>545.6</ele><time>2026-04-07T08:45:03Z</time></trkpt><trkpt lat="44.87675253434354" lon="7.288177208466119"><ele>547.8</ele><time>2026-04-07T08:45:04Z</time></trkpt><trkpt lat="44.87673380290428" lon="7.288062301122532"><ele>550.0</ele><time>2026-04-07T08:45:05Z</time></trkpt><trkpt lat="44.87670285998427" lon="7.287939646913518"><ele>552.0</ele><time>2026-04-07T08:45:06Z</time></trkpt><trkpt lat="44.87665642299178" lon="7.287822345475206"><ele>554.0</ele><time>2026-04-07T08:45:07Z</time></trkpt><trkpt lat="44.876620430527865" lon="7.28771653770454"><ele>556.0</ele><time>2026-04-07T08:45:08Z</time></trkpt><trkpt lat="44.87658920586918" lon="7.287616301564394"><ele>558.0</ele><time>2026-04-07T08:45:10Z</time></trkpt><trkpt lat="44.876598141886745" lon="7.287527823193419"><ele>560.0</ele><time>2026-04-07T08:45:28Z</time></trkpt><trkpt lat="44.87665158351936" lon="7.287575426213963"><ele>562.0</ele><time>2026-04-07T08:45:29Z</time></trkpt><trkpt lat="44.87674934672889" lon="7.287581535856814"><ele>562.0</ele><time>2026-04-07T08:45:30.999Z</time></trkpt><trkpt lat="44.876803888436775" lon="7.287503064122665"><ele>562.0</ele><time>2026-04-07T08:45:31.999Z</time></trkpt><trkpt lat="44.8768441517946" lon="7.287422717412288"><ele>562.0</ele><time>2026-04-07T08:45:32.999Z</time></trkpt><trkpt lat="44.876907990199385" lon="7.287314348960998"><ele>562.0</ele><time>2026-04-07T08:45:34.999Z</time></trkpt><trkpt lat="44.87700202164312" lon="7.287250636183054"><ele>562.0</ele><time>2026-04-07T08:45:36.999Z</time></trkpt><trkpt lat="44.87706541035704" lon="7.287158889724656"><ele>562.0</ele><time>2026-04-07T08:45:38.999Z</time></trkpt><trkpt lat="44.877158167406755" lon="7.287042924116722"><ele>562.0</ele><time>2026-04-07T08:45:40.999Z</time></trkpt><trkpt lat="44.87725967695491" lon="7.286919652876949"><ele>562.0</ele><time>2026-04-07T08:45:42.999Z</time></trkpt><trkpt lat="44.87730202730701" lon="7.286842199905205"><ele>562.0</ele><time>2026-04-07T08:45:43.999Z</time></trkpt><trkpt lat="44.87741238825958" lon="7.286732511014334"><ele>562.0</ele><time>2026-04-07T08:45:45.999Z</time></trkpt><trkpt lat="44.87746508838893" lon="7.2866521631986"><ele>562.0</ele><time>2026-04-07T08:45:46.999Z</time></trkpt><trkpt lat="44.87752387089012" lon="7.286583824327007"><ele>562.0</ele><time>2026-04-07T08:45:47.999Z</time></trkpt><trkpt lat="44.877564626518854" lon="7.286491468608194"><ele>562.0</ele><time>2026-04-07T08:45:48.999Z</time></trkpt><trkpt lat="44.87760322992457" lon="7.286383500526153"><ele>562.0</ele><time>2026-04-07T08:45:49.999Z</time></trkpt><trkpt lat="44.87763799897299" lon="7.286258361625023"><ele>562.0</ele><time>2026-04-07T08:45:50.999Z</time></trkpt><trkpt lat="44.8776568844379" lon="7.286151379387343"><ele>562.0</ele><time>2026-04-07T08:45:51.999Z</time></trkpt><trkpt lat="44.87766494637592" lon="7.286039318161893"><ele>562.0</ele><time>2026-04-07T08:45:52.999Z</time></trkpt><trkpt lat="44.8776592335836" lon="7.285927280979989"><ele>558.6666666666667</ele><time>2026-04-07T08:45:53.999Z</time></trkpt><trkpt lat="44.877674530741736" lon="7.2858133377202945"><ele>555.3333333333334</ele><time>2026-04-07T08:45:54.999Z</time></trkpt><trkpt lat="44.87767061869943" lon="7.28569833494736"><ele>552.0</ele><time>2026-04-07T08:45:55.999Z</time></trkpt><trkpt lat="44.87767231339883" lon="7.285586251429331"><ele>548.6666666666666</ele><time>2026-04-07T08:45:56.999Z</time></trkpt><trkpt lat="44.877666556440154" lon="7.285474929971632"><ele>545.3333333333333</ele><time>2026-04-07T08:45:57.999Z</time></trkpt><trkpt lat="44.87766424581598" lon="7.28536248246794"><ele>542.0</ele><time>2026-04-07T08:45:58.999Z</time></trkpt><trkpt lat="44.877660880626415" lon="7.2852598700063975"><ele>542.0</ele><time>2026-04-07T08:45:59.999Z</time></trkpt><trkpt lat="44.87768320211386" lon="7.285153228032913"><ele>542.0</ele><time>2026-04-07T08:46:00.999Z</time></trkpt><trkpt lat="44.877733234608925" lon="7.285062633446438"><ele>542.0</ele><time>2026-04-07T08:46:01.999Z</time></trkpt><trkpt lat="44.87778907723216" lon="7.284988743402059"><ele>542.0</ele><time>2026-04-07T08:46:02.999Z</time></trkpt><trkpt lat="44.87785479504495" lon="7.284971287665394"><ele>542.0</ele><time>2026-04-07T08:46:03.999Z</time></trkpt><trkpt lat="44.877917733741306" lon="7.28496557162222"><ele>542.0</ele><time>2026-04-07T08:46:04.999Z</time></trkpt><trkpt lat="44.87798639694133" lon="7.284957671551375"><ele>542.0</ele><time>2026-04-07T08:46:05.999Z</time></trkpt><trkpt lat="44.87805715639495" lon="7.284926803315307"><ele>542.0</ele><time>2026-04-07T08:46:06.999Z</time></trkpt><trkpt lat="44.8781193845786" lon="7.284910612732165"><ele>542.0</ele><time>2026-04-07T08:46:07.999Z</time></trkpt><trkpt lat="44.87827925359072" lon="7.284839055899399"><ele>542.0</ele><time>2026-04-07T08:46:09.999Z</time></trkpt><trkpt lat="44.87836279297737" lon="7.284760979351928"><ele>542.0</ele><time>2026-04-07T08:46:10.999Z</time></trkpt><trkpt lat="44.8784371200837" lon="7.284675978706567"><ele>542.0</ele><time>2026-04-07T08:46:11.999Z</time></trkpt><trkpt lat="44.878517262554574" lon="7.284593136073709"><ele>538.6666666666666</ele><time>2026-04-07T08:46:12.999Z</time></trkpt><trkpt lat="44.87859647105867" lon="7.284512783542908"><ele>535.3333333333333</ele><time>2026-04-07T08:46:13.999Z</time></trkpt><trkpt lat="44.878655873725755" lon="7.284418823388651"><ele>532.0</ele><time>2026-04-07T08:46:14.999Z</time></trkpt><trkpt lat="44.878727250526225" lon="7.284352515140422"><ele>528.6666666666666</ele><time>2026-04-07T08:46:15.999Z</time></trkpt><trkpt lat="44.878783144553395" lon="7.284272502986144"><ele>525.3333333333334</ele><time>2026-04-07T08:46:16.999Z</time></trkpt><trkpt lat="44.87882296459402" lon="7.284156021760965"><ele>522.0</ele><time>2026-04-07T08:46:17.999Z</time></trkpt><trkpt lat="44.878862501422105" lon="7.284047813452902"><ele>522.0</ele><time>2026-04-07T08:46:18.999Z</time></trkpt><trkpt lat="44.878899984359464" lon="7.283957712721033"><ele>522.0</ele><time>2026-04-07T08:46:19.999Z</time></trkpt><trkpt lat="44.87891872103583" lon="7.2838635489321"><ele>522.0</ele><time>2026-04-07T08:46:20.999Z</time></trkpt><trkpt lat="44.87894117914347" lon="7.283753698496105"><ele>522.0</ele><time>2026-04-07T08:46:21.999Z</time></trkpt><trkpt lat="44.87894122939569" lon="7.283646726192721"><ele>522.0</ele><time>2026-04-07T08:46:22.999Z</time></trkpt><trkpt lat="44.878980300966056" lon="7.283487606407666"><ele>522.0</ele><time>2026-04-07T08:46:24.999Z</time></trkpt><trkpt lat="44.8790560332902" lon="7.283452677498821"><ele>520.8000000000001</ele><time>2026-04-07T08:46:26Z</time></trkpt><trkpt lat="44.87910251559016" lon="7.2833665466770565"><ele>519.6</ele><time>2026-04-07T08:46:27Z</time></trkpt><trkpt lat="44.87916508706672" lon="7.283281900391513"><ele>518.4000000000001</ele><time>2026-04-07T08:46:28Z</time></trkpt><trkpt lat="44.87924347449004" lon="7.283188400321649"><ele>517.2</ele><time>2026-04-07T08:46:29Z</time></trkpt><trkpt lat="44.879313795981574" lon="7.283087032685545"><ele>516.0</ele><time>2026-04-07T08:46:30Z</time></trkpt><trkpt lat="44.879394301027205" lon="7.282967524872171"><ele>516.0</ele><time>2026-04-07T08:46:31Z</time></trkpt><trkpt lat="44.879470846871456" lon="7.282852533450479"><ele>516.0</ele><time>2026-04-07T08:46:32Z</time></trkpt><trkpt lat="44.87954570528804" lon="7.282743812004645"><ele>516.0</ele><time>2026-04-07T08:46:33Z</time></trkpt><trkpt lat="44.8796212091483" lon="7.28264306195998"><ele>516.0</ele><time>2026-04-07T08:46:34Z</time></trkpt><trkpt lat="44.879696256342704" lon="7.282555334257265"><ele>516.0</ele><time>2026-04-07T08:46:35Z</time></trkpt><trkpt lat="44.879770770101494" lon="7.282478784674861"><ele>516.0</ele><time>2026-04-07T08:46:36Z</time></trkpt><trkpt lat="44.87983721423349" lon="7.282402104648785"><ele>516.0</ele><time>2026-04-07T08:46:37Z</time></trkpt><trkpt lat="44.87989841482807" lon="7.282332390717125"><ele>516.0</ele><time>2026-04-07T08:46:38Z</time></trkpt><trkpt lat="44.879961379089806" lon="7.282260167294009"><ele>516.0</ele><time>2026-04-07T08:46:39Z</time></trkpt><trkpt lat="44.88002146943067" lon="7.282181064404006"><ele>516.0</ele><time>2026-04-07T08:46:40Z</time></trkpt><trkpt lat="44.880072909435334" lon="7.28208131702582"><ele>516.0</ele><time>2026-04-07T08:46:42Z</time></trkpt><trkpt lat="44.88011813553621" lon="7.282003389641013"><ele>513.1666666666666</ele><time>2026-04-07T08:46:53Z</time></trkpt><trkpt lat="44.880180589643956" lon="7.281900990823414"><ele>510.33333333333337</ele><time>2026-04-07T08:46:55Z</time></trkpt><trkpt lat="44.88021077955764" lon="7.281786803368438"><ele>507.5</ele><time>2026-04-07T08:46:57Z</time></trkpt><trkpt lat="44.88024291645676" lon="7.2817054909101495"><ele>504.6666666666667</ele><time>2026-04-07T08:47:01Z</time></trkpt><trkpt lat="44.88020977946401" lon="7.2818062234331915"><ele>501.83333333333337</ele><time>2026-04-07T08:47:24Z</time></trkpt><trkpt lat="44.88018021642798" lon="7.281901602741723"><ele>499.0</ele><time>2026-04-07T08:47:25Z</time></trkpt><trkpt lat="44.88013922779824" lon="7.281995747435253"><ele>504.6666666666667</ele><time>2026-04-07T08:47:26Z</time></trkpt><trkpt lat="44.88003118214582" lon="7.282215629130619"><ele>510.33333333333337</ele><time>2026-04-07T08:47:27Z</time></trkpt><trkpt lat="44.87995831877769" lon="7.282360648599338"><ele>516.0</ele><time>2026-04-07T08:47:28Z</time></trkpt><trkpt lat="44.8798050939261" lon="7.282414500403484"><ele>516.0</ele><time>2026-04-07T08:47:29Z</time></trkpt><trkpt lat="44.87968277889831" lon="7.282550751769052"><ele>516.0</ele><time>2026-04-07T08:47:30Z</time></trkpt><trkpt lat="44.87955988691042" lon="7.2827034727499"><ele>516.0</ele><time>2026-04-07T08:47:31Z</time></trkpt><trkpt lat="44.87946136553387" lon="7.282841923432663"><ele>516.0</ele><time>2026-04-07T08:47:32Z</time></trkpt><trkpt lat="44.87936086220677" lon="7.282996570572283"><ele>516.0</ele><time>2026-04-07T08:47:33Z</time></trkpt><trkpt lat="44.879262032808626" lon="7.283139932791129"><ele>516.0</ele><time>2026-04-07T08:47:33.999Z</time></trkpt><trkpt lat="44.879178322617214" lon="7.283256543635354"><ele>516.0</ele><time>2026-04-07T08:47:34.999Z</time></trkpt><trkpt lat="44.879115409316626" lon="7.283342769793833"><ele>518.5</ele><time>2026-04-07T08:47:35.999Z</time></trkpt><trkpt lat="44.87905800330051" lon="7.283406482267364"><ele>521.0</ele><time>2026-04-07T08:47:36.999Z</time></trkpt><trkpt lat="44.87899935674095" lon="7.283467456258246"><ele>523.5</ele><time>2026-04-07T08:47:37.999Z</time></trkpt><trkpt lat="44.878942545087476" lon="7.283530747380161"><ele>526.0</ele><time>2026-04-07T08:47:38.999Z</time></trkpt><trkpt lat="44.878918207601075" lon="7.283630975582547"><ele>528.5</ele><time>2026-04-07T08:47:39.999Z</time></trkpt><trkpt lat="44.87890967525547" lon="7.283754467451916"><ele>531.0</ele><time>2026-04-07T08:47:40.999Z</time></trkpt><trkpt lat="44.878888045246214" lon="7.283875242169219"><ele>529.5</ele><time>2026-04-07T08:47:41.999Z</time></trkpt><trkpt lat="44.878860553942545" lon="7.283980152127308"><ele>528.0</ele><time>2026-04-07T08:47:42.999Z</time></trkpt><trkpt lat="44.87882754756173" lon="7.284109795096229"><ele>526.5</ele><time>2026-04-07T08:47:43.999Z</time></trkpt><trkpt lat="44.878773768857435" lon="7.284194573973716"><ele>525.0</ele><time>2026-04-07T08:47:44.999Z</time></trkpt><trkpt lat="44.87873432632511" lon="7.284267334559379"><ele>523.5</ele><time>2026-04-07T08:47:45.999Z</time></trkpt><trkpt lat="44.8786971146699" lon="7.2843570853978505"><ele>522.0</ele><time>2026-04-07T08:47:46.999Z</time></trkpt><trkpt lat="44.87862047661295" lon="7.284421674864753"><ele>522.0</ele><time>2026-04-07T08:47:47.999Z</time></trkpt><trkpt lat="44.87854236380301" lon="7.284505321174877"><ele>522.0</ele><time>2026-04-07T08:47:48.999Z</time></trkpt><trkpt lat="44.878459100149776" lon="7.284600312349831"><ele>522.0</ele><time>2026-04-07T08:47:49.999Z</time></trkpt><trkpt lat="44.87837296702968" lon="7.284690635480513"><ele>522.0</ele><time>2026-04-07T08:47:50.999Z</time></trkpt><trkpt lat="44.87828143196909" lon="7.284780264072739"><ele>522.0</ele><time>2026-04-07T08:47:51.999Z</time></trkpt><trkpt lat="44.87819197567355" lon="7.284860053105939"><ele>525.3333333333334</ele><time>2026-04-07T08:47:52.999Z</time></trkpt><trkpt lat="44.87812101706899" lon="7.2848733876257254"><ele>528.6666666666666</ele><time>2026-04-07T08:47:53.999Z</time></trkpt><trkpt lat="44.87805311420551" lon="7.284898697224977"><ele>532.0</ele><time>2026-04-07T08:47:54.999Z</time></trkpt><trkpt lat="44.87797252167518" lon="7.284910494232639"><ele>535.3333333333333</ele><time>2026-04-07T08:47:55.999Z</time></trkpt><trkpt lat="44.87787995153515" lon="7.284915041792251"><ele>538.6666666666666</ele><time>2026-04-07T08:47:56.999Z</time></trkpt><trkpt lat="44.877805468565114" lon="7.284942830170207"><ele>542.0</ele><time>2026-04-07T08:47:57.999Z</time></trkpt><trkpt lat="44.87774587858928" lon="7.285007810466126"><ele>542.0</ele><time>2026-04-07T08:47:58.999Z</time></trkpt><trkpt lat="44.877692985945934" lon="7.2851002554935596"><ele>542.0</ele><time>2026-04-07T08:47:59.999Z</time></trkpt><trkpt lat="44.87765521399195" lon="7.285215068987809"><ele>542.0</ele><time>2026-04-07T08:48:00.999Z</time></trkpt><trkpt lat="44.87763584480819" lon="7.285347121391154"><ele>542.0</ele><time>2026-04-07T08:48:01.999Z</time></trkpt><trkpt lat="44.87763615538449" lon="7.285492409962399"><ele>542.0</ele><time>2026-04-07T08:48:02.999Z</time></trkpt><trkpt lat="44.87764205449555" lon="7.285646595108733"><ele>541.4</ele><time>2026-04-07T08:48:03.999Z</time></trkpt><trkpt lat="44.87764052876751" lon="7.285787458928902"><ele>540.8000000000001</ele><time>2026-04-07T08:48:04.999Z</time></trkpt><trkpt lat="44.87763865160393" lon="7.285906956603769"><ele>540.2</ele><time>2026-04-07T08:48:05.999Z</time></trkpt><trkpt lat="44.8776448720178" lon="7.286028909494547"><ele>539.6</ele><time>2026-04-07T08:48:06.999Z</time></trkpt><trkpt lat="44.87762301822207" lon="7.286157209060548"><ele>539.0</ele><time>2026-04-07T08:48:07.999Z</time></trkpt><trkpt lat="44.87760276116104" lon="7.28628633967858"><ele>543.6</ele><time>2026-04-07T08:48:08.999Z</time></trkpt><trkpt lat="44.87756092322427" lon="7.286401201831234"><ele>548.2</ele><time>2026-04-07T08:48:09.999Z</time></trkpt><trkpt lat="44.87751478437977" lon="7.286515980443858"><ele>552.8000000000001</ele><time>2026-04-07T08:48:10.999Z</time></trkpt><trkpt lat="44.87745842584227" lon="7.286627345378037"><ele>557.4</ele><time>2026-04-07T08:48:11.999Z</time></trkpt><trkpt lat="44.877389379815064" lon="7.2867090916381585"><ele>562.0</ele><time>2026-04-07T08:48:12.999Z</time></trkpt><trkpt lat="44.87731945018454" lon="7.286788304442667"><ele>562.0</ele><time>2026-04-07T08:48:13.999Z</time></trkpt><trkpt lat="44.877255325613675" lon="7.286863076108617"><ele>562.0</ele><time>2026-04-07T08:48:14.999Z</time></trkpt><trkpt lat="44.877203236480554" lon="7.286955454311425"><ele>562.0</ele><time>2026-04-07T08:48:15.999Z</time></trkpt><trkpt lat="44.877147278594364" lon="7.287015276230229"><ele>562.0</ele><time>2026-04-07T08:48:16.999Z</time></trkpt><trkpt lat="44.87707160824313" lon="7.287107574964925"><ele>562.0</ele><time>2026-04-07T08:48:18.999Z</time></trkpt><trkpt lat="44.87700882822043" lon="7.287176682825839"><ele>562.0</ele><time>2026-04-07T08:48:20.999Z</time></trkpt><trkpt lat="44.87695615691159" lon="7.287255590352793"><ele>562.0</ele><time>2026-04-07T08:48:22.999Z</time></trkpt><trkpt lat="44.876897598551956" lon="7.287373732521847"><ele>562.0</ele><time>2026-04-07T08:48:24.999Z</time></trkpt><trkpt lat="44.876853040546074" lon="7.287446475385482"><ele>562.0</ele><time>2026-04-07T08:48:25.999Z</time></trkpt><trkpt lat="44.87680224334967" lon="7.287511105252136"><ele>562.0</ele><time>2026-04-07T08:48:26.999Z</time></trkpt><trkpt lat="44.8767082242303" lon="7.287599261173114"><ele>562.0</ele><time>2026-04-07T08:48:28.999Z</time></trkpt><trkpt lat="44.876605124236406" lon="7.287536063195695"><ele>562.0</ele><time>2026-04-07T08:48:30.999Z</time></trkpt><trkpt lat="44.876551805677956" lon="7.28741353614587"><ele>562.0</ele><time>2026-04-07T08:48:33Z</time></trkpt><trkpt lat="44.87652825119048" lon="7.28724223188219"><ele>562.0</ele><time>2026-04-07T08:48:35Z</time></trkpt><trkpt lat="44.87650562016542" lon="7.287139088465816"><ele>562.0</ele><time>2026-04-07T08:48:36Z</time></trkpt><trkpt lat="44.876480131799255" lon="7.287021268809889"><ele>562.0</ele><time>2026-04-07T08:48:37Z</time></trkpt><trkpt lat="44.876440540677756" lon="7.28690189237426"><ele>563.8333333333334</ele><time>2026-04-07T08:48:38Z</time></trkpt><trkpt lat="44.87640018600666" lon="7.286809111399442"><ele>565.6666666666667</ele><time>2026-04-07T08:48:39Z</time></trkpt><trkpt lat="44.876343993269636" lon="7.28670817377022"><ele>567.5</ele><time>2026-04-07T08:48:40Z</time></trkpt><trkpt lat="44.87627150132966" lon="7.286621422143658"><ele>569.3333333333334</ele><time>2026-04-07T08:48:41Z</time></trkpt><trkpt lat="44.876226608666755" lon="7.286521046098145"><ele>571.1666666666666</ele><time>2026-04-07T08:48:42Z</time></trkpt><trkpt lat="44.87617447240651" lon="7.28643680818845"><ele>573.0</ele><time>2026-04-07T08:48:43Z</time></trkpt><trkpt lat="44.87611945187829" lon="7.286361232095269"><ele>575.1999999999999</ele><time>2026-04-07T08:48:44Z</time></trkpt><trkpt lat="44.8760730797746" lon="7.286224544761231"><ele>577.4</ele><time>2026-04-07T08:48:46Z</time></trkpt><trkpt lat="44.876015612591836" lon="7.286129802836912"><ele>579.5999999999999</ele><time>2026-04-07T08:48:48Z</time></trkpt><trkpt lat="44.87589432431152" lon="7.286140761946218"><ele>581.8</ele><time>2026-04-07T08:48:50Z</time></trkpt><trkpt lat="44.87581876840298" lon="7.2862007492297325"><ele>584.0</ele><time>2026-04-07T08:48:51Z</time></trkpt><trkpt lat="44.875728072951375" lon="7.286253534674547"><ele>584.0</ele><time>2026-04-07T08:48:52Z</time></trkpt><trkpt lat="44.87561882889773" lon="7.286286042595939"><ele>584.0</ele><time>2026-04-07T08:48:53Z</time></trkpt><trkpt lat="44.87553287041916" lon="7.286297267934132"><ele>584.0</ele><time>2026-04-07T08:48:54Z</time></trkpt><trkpt lat="44.87545281965898" lon="7.286311492158807"><ele>584.0</ele><time>2026-04-07T08:48:55Z</time></trkpt><trkpt lat="44.875362700869466" lon="7.286359109796189"><ele>584.0</ele><time>2026-04-07T08:48:56Z</time></trkpt><trkpt lat="44.875264124031304" lon="7.286380993606671"><ele>583.0</ele><time>2026-04-07T08:48:57Z</time></trkpt><trkpt lat="44.87518107811225" lon="7.286445265010646"><ele>582.0</ele><time>2026-04-07T08:48:58Z</time></trkpt><trkpt lat="44.87509657615516" lon="7.286533052840674"><ele>581.0</ele><time>2026-04-07T08:48:59Z</time></trkpt><trkpt lat="44.87501771866018" lon="7.286613960925036"><ele>580.0</ele><time>2026-04-07T08:49:00Z</time></trkpt><trkpt lat="44.87496387491435" lon="7.286664893722391"><ele>579.0</ele><time>2026-04-07T08:49:01Z</time></trkpt><trkpt lat="44.87490055526959" lon="7.2866697447863755"><ele>578.0</ele><time>2026-04-07T08:49:02Z</time></trkpt><trkpt lat="44.87483728375058" lon="7.286676841022528"><ele>578.0</ele><time>2026-04-07T08:49:03Z</time></trkpt><trkpt lat="44.87475499113006" lon="7.286686448515186"><ele>578.0</ele><time>2026-04-07T08:49:04Z</time></trkpt><trkpt lat="44.87465656684484" lon="7.28668297655112"><ele>578.0</ele><time>2026-04-07T08:49:05Z</time></trkpt><trkpt lat="44.87455390601184" lon="7.28667776986409"><ele>578.0</ele><time>2026-04-07T08:49:06Z</time></trkpt><trkpt lat="44.874443930952985" lon="7.286677707261519"><ele>578.0</ele><time>2026-04-07T08:49:07Z</time></trkpt><trkpt lat="44.87434762564758" lon="7.286671344885886"><ele>579.1666666666666</ele><time>2026-04-07T08:49:08Z</time></trkpt><trkpt lat="44.874262285089735" lon="7.286675948434695"><ele>580.3333333333333</ele><time>2026-04-07T08:49:09Z</time></trkpt><trkpt lat="44.8741855139325" lon="7.286705866737214"><ele>581.5</ele><time>2026-04-07T08:49:10Z</time></trkpt><trkpt lat="44.87410257293526" lon="7.2867438907301665"><ele>582.6666666666666</ele><time>2026-04-07T08:49:11Z</time></trkpt><trkpt lat="44.874030480614515" lon="7.286754279660708"><ele>583.8333333333334</ele><time>2026-04-07T08:49:12Z</time></trkpt><trkpt lat="44.87393391466992" lon="7.286790852808578"><ele>585.0</ele><time>2026-04-07T08:49:14Z</time></trkpt><trkpt lat="44.873848273349566" lon="7.2868188371027145"><ele>585.0</ele><time>2026-04-07T08:49:17Z</time></trkpt><trkpt lat="44.873769266725525" lon="7.286841101891853"><ele>585.0</ele><time>2026-04-07T08:49:19Z</time></trkpt><trkpt lat="44.87367145867356" lon="7.286923640045763"><ele>585.0</ele><time>2026-04-07T08:49:21Z</time></trkpt><trkpt lat="44.87356060774711" lon="7.286934266880959"><ele>585.0</ele><time>2026-04-07T08:49:23Z</time></trkpt><trkpt lat="44.87346343914609" lon="7.286901523949578"><ele>585.0</ele><time>2026-04-07T08:49:25Z</time></trkpt><trkpt lat="44.873461384083676" lon="7.286768584196382"><ele>585.5</ele><time>2026-04-07T08:49:26Z</time></trkpt><trkpt lat="44.87343332704499" lon="7.286663361223956"><ele>586.0</ele><time>2026-04-07T08:49:27Z</time></trkpt><trkpt lat="44.873421722415245" lon="7.286554256522021"><ele>586.5</ele><time>2026-04-07T08:49:28Z</time></trkpt><trkpt lat="44.87339533472696" lon="7.286446909256057"><ele>587.0</ele><time>2026-04-07T08:49:29Z</time></trkpt><trkpt lat="44.87338094036015" lon="7.286315798002619"><ele>587.5</ele><time>2026-04-07T08:49:30Z</time></trkpt><trkpt lat="44.87333832111064" lon="7.286179456680939"><ele>588.0</ele><time>2026-04-07T08:49:31Z</time></trkpt><trkpt lat="44.87330128056845" lon="7.286024116002745"><ele>588.0</ele><time>2026-04-07T08:49:32Z</time></trkpt><trkpt lat="44.873277799634764" lon="7.285880849328739"><ele>588.0</ele><time>2026-04-07T08:49:33Z</time></trkpt><trkpt lat="44.87324652188771" lon="7.2857381911539"><ele>588.0</ele><time>2026-04-07T08:49:34Z</time></trkpt><trkpt lat="44.873243399563606" lon="7.28559768399801"><ele>588.0</ele><time>2026-04-07T08:49:35Z</time></trkpt><trkpt lat="44.873229517676755" lon="7.28545132720715"><ele>588.0</ele><time>2026-04-07T08:49:36Z</time></trkpt><trkpt lat="44.873227396470945" lon="7.285306018749619"><ele>588.25</ele><time>2026-04-07T08:49:37Z</time></trkpt><trkpt lat="44.87323437049811" lon="7.285149758876937"><ele>588.5</ele><time>2026-04-07T08:49:38Z</time></trkpt><trkpt lat="44.87325595428414" lon="7.284973212479731"><ele>588.75</ele><time>2026-04-07T08:49:39Z</time></trkpt><trkpt lat="44.873284549536976" lon="7.284811800999547"><ele>589.0</ele><time>2026-04-07T08:49:40Z</time></trkpt><trkpt lat="44.8733171480454" lon="7.284671124886255"><ele>587.4</ele><time>2026-04-07T08:49:40.999Z</time></trkpt><trkpt lat="44.87335130684723" lon="7.284536200032323"><ele>585.8</ele><time>2026-04-07T08:49:41.999Z</time></trkpt><trkpt lat="44.873390602016286" lon="7.284402205167733"><ele>584.2</ele><time>2026-04-07T08:49:42.999Z</time></trkpt><trkpt lat="44.87344306228501" lon="7.284278706036766"><ele>582.6</ele><time>2026-04-07T08:49:43.999Z</time></trkpt><trkpt lat="44.87349105260628" lon="7.284146690542291"><ele>581.0</ele><time>2026-04-07T08:49:44.999Z</time></trkpt><trkpt lat="44.87353791943786" lon="7.284011171757655"><ele>588.25</ele><time>2026-04-07T08:49:45.999Z</time></trkpt><trkpt lat="44.87358889803024" lon="7.283865800574854"><ele>595.5</ele><time>2026-04-07T08:49:46.999Z</time></trkpt><trkpt lat="44.87363788995994" lon="7.283710834477392"><ele>602.75</ele><time>2026-04-07T08:49:47.999Z</time></trkpt><trkpt lat="44.873689511813474" lon="7.283540855274595"><ele>610.0</ele><time>2026-04-07T08:49:48.999Z</time></trkpt><trkpt lat="44.873727098562064" lon="7.283364768545009"><ele>610.0</ele><time>2026-04-07T08:49:49.999Z</time></trkpt><trkpt lat="44.87374789557464" lon="7.283210394152393"><ele>610.0</ele><time>2026-04-07T08:49:50.999Z</time></trkpt><trkpt lat="44.87376400099883" lon="7.28305476464206"><ele>610.0</ele><time>2026-04-07T08:49:51.999Z</time></trkpt><trkpt lat="44.87378438800815" lon="7.282907287238581"><ele>610.0</ele><time>2026-04-07T08:49:52.999Z</time></trkpt><trkpt lat="44.87381073881824" lon="7.282774078128978"><ele>610.0</ele><time>2026-04-07T08:49:53.999Z</time></trkpt><trkpt lat="44.873845520932846" lon="7.28266544228151"><ele>609.6</ele><time>2026-04-07T08:49:54.999Z</time></trkpt><trkpt lat="44.87390002694688" lon="7.282563312295205"><ele>609.2</ele><time>2026-04-07T08:49:55.999Z</time></trkpt><trkpt lat="44.87397740260334" lon="7.2824748785090385"><ele>608.8</ele><time>2026-04-07T08:49:56.999Z</time></trkpt><trkpt lat="44.874065024059455" lon="7.282393047066852"><ele>608.4</ele><time>2026-04-07T08:49:57.999Z</time></trkpt><trkpt lat="44.87415056391947" lon="7.282298470304323"><ele>608.0</ele><time>2026-04-07T08:49:58.999Z</time></trkpt><trkpt lat="44.87422119125177" lon="7.282169954362077"><ele>614.75</ele><time>2026-04-07T08:49:59.999Z</time></trkpt><trkpt lat="44.8742839568375" lon="7.282013584247989"><ele>621.5</ele><time>2026-04-07T08:50:00.999Z</time></trkpt><trkpt lat="44.87436307805065" lon="7.281866373307665"><ele>628.25</ele><time>2026-04-07T08:50:01.999Z</time></trkpt><trkpt lat="44.874444230621556" lon="7.281747200693491"><ele>635.0</ele><time>2026-04-07T08:50:02.999Z</time></trkpt><trkpt lat="44.87450517899879" lon="7.281628478953508"><ele>635.0</ele><time>2026-04-07T08:50:03.999Z</time></trkpt><trkpt lat="44.87452704156634" lon="7.281522011242492"><ele>635.0</ele><time>2026-04-07T08:50:04.999Z</time></trkpt><trkpt lat="44.87451915212593" lon="7.281403849831848"><ele>635.0</ele><time>2026-04-07T08:50:05.999Z</time></trkpt><trkpt lat="44.87446867351422" lon="7.281278151762167"><ele>635.0</ele><time>2026-04-07T08:50:06.999Z</time></trkpt><trkpt lat="44.87438975075726" lon="7.281167742298742"><ele>635.0</ele><time>2026-04-07T08:50:07.999Z</time></trkpt><trkpt lat="44.8742964083416" lon="7.2810400373808735"><ele>633.6</ele><time>2026-04-07T08:50:08.999Z</time></trkpt><trkpt lat="44.874222295601555" lon="7.280928402196411"><ele>632.2</ele><time>2026-04-07T08:50:09.999Z</time></trkpt><trkpt lat="44.87415583060923" lon="7.280840577663582"><ele>630.8</ele><time>2026-04-07T08:50:10.999Z</time></trkpt><trkpt lat="44.87409160781086" lon="7.280766007110661"><ele>629.4</ele><time>2026-04-07T08:50:11.999Z</time></trkpt><trkpt lat="44.87404555625613" lon="7.2806747571853805"><ele>628.0</ele><time>2026-04-07T08:50:12.999Z</time></trkpt><trkpt lat="44.87402005076709" lon="7.280532955096092"><ele>628.0</ele><time>2026-04-07T08:50:13.999Z</time></trkpt><trkpt lat="44.874026930852644" lon="7.280375086969144"><ele>628.0</ele><time>2026-04-07T08:50:14.999Z</time></trkpt><trkpt lat="44.874059958097895" lon="7.280220612916622"><ele>628.0</ele><time>2026-04-07T08:50:15.999Z</time></trkpt><trkpt lat="44.87407860024029" lon="7.280066084738262"><ele>628.0</ele><time>2026-04-07T08:50:16.999Z</time></trkpt><trkpt lat="44.87407849200082" lon="7.279941561130035"><ele>628.0</ele><time>2026-04-07T08:50:17.999Z</time></trkpt><trkpt lat="44.87406217068454" lon="7.27982736692392"><ele>631.1666666666667</ele><time>2026-04-07T08:50:18.999Z</time></trkpt><trkpt lat="44.8740087504369" lon="7.279724253345216"><ele>634.3333333333334</ele><time>2026-04-07T08:50:19.999Z</time></trkpt><trkpt lat="44.8739394591554" lon="7.279641365606263"><ele>637.5</ele><time>2026-04-07T08:50:20.999Z</time></trkpt><trkpt lat="44.87387372222102" lon="7.279553615356868"><ele>640.6666666666666</ele><time>2026-04-07T08:50:21.999Z</time></trkpt><trkpt lat="44.873810806434754" lon="7.279471871811828"><ele>643.8333333333333</ele><time>2026-04-07T08:50:22.999Z</time></trkpt><trkpt lat="44.87376228368552" lon="7.279408063301879"><ele>647.0</ele><time>2026-04-07T08:50:23.999Z</time></trkpt><trkpt lat="44.873710848464135" lon="7.27934625959808"><ele>647.0</ele><time>2026-04-07T08:50:24.999Z</time></trkpt><trkpt lat="44.873657751128725" lon="7.279274739322332"><ele>647.0</ele><time>2026-04-07T08:50:25.999Z</time></trkpt><trkpt lat="44.87361255856071" lon="7.2791778444160755"><ele>647.0</ele><time>2026-04-07T08:50:26.999Z</time></trkpt><trkpt lat="44.87357349060526" lon="7.279071543754526"><ele>647.0</ele><time>2026-04-07T08:50:27.999Z</time></trkpt><trkpt lat="44.873554977167025" lon="7.278959896707539"><ele>647.0</ele><time>2026-04-07T08:50:28.999Z</time></trkpt><trkpt lat="44.873553707318834" lon="7.278847993510085"><ele>647.0</ele><time>2026-04-07T08:50:29.999Z</time></trkpt><trkpt lat="44.87355185675213" lon="7.27873589979118"><ele>647.5</ele><time>2026-04-07T08:50:30.999Z</time></trkpt><trkpt lat="44.87354726720701" lon="7.278618297464985"><ele>648.0</ele><time>2026-04-07T08:50:31.999Z</time></trkpt><trkpt lat="44.87354336197263" lon="7.278499670864241"><ele>648.5</ele><time>2026-04-07T08:50:32.999Z</time></trkpt><trkpt lat="44.873535640294186" lon="7.278384667907508"><ele>649.0</ele><time>2026-04-07T08:50:33.999Z</time></trkpt><trkpt lat="44.87352601719878" lon="7.278279714018075"><ele>649.5</ele><time>2026-04-07T08:50:34.999Z</time></trkpt><trkpt lat="44.87352505532211" lon="7.278179697564812"><ele>650.0</ele><time>2026-04-07T08:50:35.999Z</time></trkpt><trkpt lat="44.87353468085725" lon="7.278083372905843"><ele>650.0</ele><time>2026-04-07T08:50:36.999Z</time></trkpt><trkpt lat="44.87354190859871" lon="7.277986208401411"><ele>650.0</ele><time>2026-04-07T08:50:38Z</time></trkpt><trkpt lat="44.87355771143703" lon="7.27789467875165"><ele>650.0</ele><time>2026-04-07T08:50:39Z</time></trkpt><trkpt lat="44.87362722921296" lon="7.277739803183059"><ele>650.0</ele><time>2026-04-07T08:50:41Z</time></trkpt><trkpt lat="44.87368143847262" lon="7.277664191783974"><ele>650.0</ele><time>2026-04-07T08:50:42Z</time></trkpt><trkpt lat="44.87374114065974" lon="7.277579300068906"><ele>650.0</ele><time>2026-04-07T08:50:43Z</time></trkpt><trkpt lat="44.87381389264887" lon="7.277472353352254"><ele>650.0</ele><time>2026-04-07T08:50:44Z</time></trkpt><trkpt lat="44.873870446175275" lon="7.277349869989456"><ele>650.0</ele><time>2026-04-07T08:50:45Z</time></trkpt><trkpt lat="44.87388789166385" lon="7.2772058868926095"><ele>650.0</ele><time>2026-04-07T08:50:46Z</time></trkpt><trkpt lat="44.87390221916187" lon="7.2770657569945945"><ele>650.0</ele><time>2026-04-07T08:50:47Z</time></trkpt><trkpt lat="44.87389822151379" lon="7.276947044550708"><ele>650.0</ele><time>2026-04-07T08:50:48Z</time></trkpt><trkpt lat="44.873880037339546" lon="7.276828947796879"><ele>651.4</ele><time>2026-04-07T08:50:49Z</time></trkpt><trkpt lat="44.87378629974193" lon="7.276755536211943"><ele>652.8</ele><time>2026-04-07T08:50:50Z</time></trkpt><trkpt lat="44.873700497122684" lon="7.276703803612009"><ele>654.2</ele><time>2026-04-07T08:50:51Z</time></trkpt><trkpt lat="44.87363264237998" lon="7.2766401601053445"><ele>655.6</ele><time>2026-04-07T08:50:52Z</time></trkpt><trkpt lat="44.87356577955486" lon="7.276560093529904"><ele>657.0</ele><time>2026-04-07T08:50:53Z</time></trkpt><trkpt lat="44.87351293505542" lon="7.276454448729796"><ele>655.0</ele><time>2026-04-07T08:50:54Z</time></trkpt><trkpt lat="44.87348357139231" lon="7.276335712837075"><ele>653.0</ele><time>2026-04-07T08:50:55Z</time></trkpt><trkpt lat="44.873469212821114" lon="7.276210554428233"><ele>651.0</ele><time>2026-04-07T08:50:56Z</time></trkpt><trkpt lat="44.87345505024568" lon="7.276090490698795"><ele>649.0</ele><time>2026-04-07T08:50:57Z</time></trkpt><trkpt lat="44.87342386251809" lon="7.275980352597638"><ele>647.0</ele><time>2026-04-07T08:50:58Z</time></trkpt><trkpt lat="44.87337911974423" lon="7.275877231601976"><ele>645.0</ele><time>2026-04-07T08:50:59Z</time></trkpt><trkpt lat="44.87332822603588" lon="7.275782615038783"><ele>645.0</ele><time>2026-04-07T08:51:00Z</time></trkpt><trkpt lat="44.87325396164607" lon="7.275718326332158"><ele>645.0</ele><time>2026-04-07T08:51:01Z</time></trkpt><trkpt lat="44.873161282380295" lon="7.275683207271651"><ele>645.0</ele><time>2026-04-07T08:51:02Z</time></trkpt><trkpt lat="44.87304642733247" lon="7.275627548479165"><ele>645.0</ele><time>2026-04-07T08:51:03Z</time></trkpt><trkpt lat="44.872925018219895" lon="7.2755446833707875"><ele>645.0</ele><time>2026-04-07T08:51:04Z</time></trkpt><trkpt lat="44.87284181146953" lon="7.275441936145442"><ele>651.5</ele><time>2026-04-07T08:51:05Z</time></trkpt><trkpt lat="44.87277853997624" lon="7.275299747894158"><ele>658.0</ele><time>2026-04-07T08:51:06Z</time></trkpt><trkpt lat="44.87272054931112" lon="7.275111381075038"><ele>664.5</ele><time>2026-04-07T08:51:07Z</time></trkpt><trkpt lat="44.87266799214796" lon="7.274927661798006"><ele>671.0</ele><time>2026-04-07T08:51:08Z</time></trkpt><trkpt lat="44.87263390295777" lon="7.274748765420396"><ele>667.5999999999999</ele><time>2026-04-07T08:51:09Z</time></trkpt><trkpt lat="44.87262712806345" lon="7.274552091238165"><ele>664.2</ele><time>2026-04-07T08:51:10Z</time></trkpt><trkpt lat="44.87262819345109" lon="7.274387758906773"><ele>660.8</ele><time>2026-04-07T08:51:11Z</time></trkpt><trkpt lat="44.8726134919602" lon="7.2742725101627395"><ele>657.4000000000001</ele><time>2026-04-07T08:51:12Z</time></trkpt><trkpt lat="44.872555669078835" lon="7.274185704519291"><ele>654.0</ele><time>2026-04-07T08:51:13Z</time></trkpt><trkpt lat="44.87246145589417" lon="7.274130208547624"><ele>654.0</ele><time>2026-04-07T08:51:14Z</time></trkpt><trkpt lat="44.87235459387089" lon="7.2741033007008875"><ele>654.0</ele><time>2026-04-07T08:51:15Z</time></trkpt><trkpt lat="44.87225340063726" lon="7.27404750990611"><ele>654.0</ele><time>2026-04-07T08:51:16Z</time></trkpt><trkpt lat="44.87218750367269" lon="7.273903266619648"><ele>654.0</ele><time>2026-04-07T08:51:17Z</time></trkpt><trkpt lat="44.87209330648425" lon="7.273773404253307"><ele>653.2</ele><time>2026-04-07T08:51:18Z</time></trkpt><trkpt lat="44.87197962106623" lon="7.273668410485487"><ele>652.4000000000001</ele><time>2026-04-07T08:51:19Z</time></trkpt><trkpt lat="44.871868497430505" lon="7.273582845580413"><ele>651.6</ele><time>2026-04-07T08:51:20Z</time></trkpt><trkpt lat="44.871798711235414" lon="7.273493521362564"><ele>650.8</ele><time>2026-04-07T08:51:21Z</time></trkpt><trkpt lat="44.87176100628367" lon="7.273384593671071"><ele>650.0</ele><time>2026-04-07T08:51:22Z</time></trkpt><trkpt lat="44.871744788585886" lon="7.273231883083343"><ele>656.75</ele><time>2026-04-07T08:51:23Z</time></trkpt><trkpt lat="44.87172388812234" lon="7.273084328848199"><ele>663.5</ele><time>2026-04-07T08:51:24Z</time></trkpt><trkpt lat="44.87165668687413" lon="7.2729801677681385"><ele>670.25</ele><time>2026-04-07T08:51:25Z</time></trkpt><trkpt lat="44.87156588234366" lon="7.272900506953361"><ele>677.0</ele><time>2026-04-07T08:51:26Z</time></trkpt><trkpt lat="44.87142857351982" lon="7.272854776503223"><ele>677.0</ele><time>2026-04-07T08:51:27Z</time></trkpt><trkpt lat="44.871272690782995" lon="7.272792576658902"><ele>677.0</ele><time>2026-04-07T08:51:28Z</time></trkpt><trkpt lat="44.87112078748625" lon="7.272717479527485"><ele>677.0</ele><time>2026-04-07T08:51:29Z</time></trkpt><trkpt lat="44.87099623205966" lon="7.272659963481677"><ele>672.5</ele><time>2026-04-07T08:51:30Z</time></trkpt><trkpt lat="44.87087948945565" lon="7.272580726232743"><ele>668.0</ele><time>2026-04-07T08:51:31Z</time></trkpt><trkpt lat="44.87077125451398" lon="7.272465729882239"><ele>663.5</ele><time>2026-04-07T08:51:32Z</time></trkpt><trkpt lat="44.87066735284459" lon="7.2723642262406205"><ele>659.0</ele><time>2026-04-07T08:51:33Z</time></trkpt><trkpt lat="44.87057769946919" lon="7.272277171843552"><ele>664.0</ele><time>2026-04-07T08:51:34Z</time></trkpt><trkpt lat="44.8704939697328" lon="7.272208000265582"><ele>669.0</ele><time>2026-04-07T08:51:35Z</time></trkpt><trkpt lat="44.870413965437784" lon="7.272140239724269"><ele>674.0</ele><time>2026-04-07T08:51:36Z</time></trkpt><trkpt lat="44.87033173927053" lon="7.272099497643067"><ele>679.0</ele><time>2026-04-07T08:51:37Z</time></trkpt><trkpt lat="44.87024051114353" lon="7.272125791305467"><ele>684.0</ele><time>2026-04-07T08:51:38Z</time></trkpt><trkpt lat="44.870162542956784" lon="7.272149988777131"><ele>681.0</ele><time>2026-04-07T08:51:39Z</time></trkpt><trkpt lat="44.87012659723472" lon="7.272323811686307"><ele>678.0</ele><time>2026-04-07T08:51:40Z</time></trkpt><trkpt lat="44.870105713796576" lon="7.272479631057752"><ele>675.0</ele><time>2026-04-07T08:51:41Z</time></trkpt><trkpt lat="44.87008885182397" lon="7.27266540546938"><ele>672.0</ele><time>2026-04-07T08:51:42Z</time></trkpt><trkpt lat="44.87003852589102" lon="7.272896670665259"><ele>669.2</ele><time>2026-04-07T08:51:43Z</time></trkpt><trkpt lat="44.87002498509718" lon="7.273107053024297"><ele>666.4000000000001</ele><time>2026-04-07T08:51:44Z</time></trkpt><trkpt lat="44.87002071186911" lon="7.27327102535464"><ele>663.5999999999999</ele><time>2026-04-07T08:51:45Z</time></trkpt><trkpt lat="44.8700123776076" lon="7.27338845517602"><ele>660.8</ele><time>2026-04-07T08:51:46Z</time></trkpt><trkpt lat="44.87000446865482" lon="7.27349098929136"><ele>658.0</ele><time>2026-04-07T08:51:47Z</time></trkpt><trkpt lat="44.869939052802145" lon="7.273587869091219"><ele>658.0</ele><time>2026-04-07T08:51:48Z</time></trkpt><trkpt lat="44.86984881359031" lon="7.2736399591674985"><ele>658.0</ele><time>2026-04-07T08:51:48.999Z</time></trkpt><trkpt lat="44.86974866127708" lon="7.273643713078434"><ele>658.0</ele><time>2026-04-07T08:51:49.999Z</time></trkpt><trkpt lat="44.86963447865532" lon="7.273634357921758"><ele>658.0</ele><time>2026-04-07T08:51:50.999Z</time></trkpt><trkpt lat="44.86950485952844" lon="7.273600058342032"><ele>658.0</ele><time>2026-04-07T08:51:51.999Z</time></trkpt><trkpt lat="44.86939364729683" lon="7.273538472871792"><ele>656.75</ele><time>2026-04-07T08:51:52.999Z</time></trkpt><trkpt lat="44.86927458056788" lon="7.273435712022773"><ele>655.5</ele><time>2026-04-07T08:51:53.999Z</time></trkpt><trkpt lat="44.869188145014185" lon="7.27328661457479"><ele>654.25</ele><time>2026-04-07T08:51:54.999Z</time></trkpt><trkpt lat="44.86910387430238" lon="7.273112039166124"><ele>653.0</ele><time>2026-04-07T08:51:55.999Z</time></trkpt><trkpt lat="44.869021957538095" lon="7.272931319994669"><ele>660.3333333333333</ele><time>2026-04-07T08:51:56.999Z</time></trkpt><trkpt lat="44.86896128607539" lon="7.272725532408803"><ele>667.6666666666666</ele><time>2026-04-07T08:51:57.999Z</time></trkpt><trkpt lat="44.868913065696596" lon="7.2724887203116575"><ele>675.0</ele><time>2026-04-07T08:51:58.999Z</time></trkpt><trkpt lat="44.868879156548296" lon="7.272250442181762"><ele>680.3333333333334</ele><time>2026-04-07T08:51:59.999Z</time></trkpt><trkpt lat="44.86884049011091" lon="7.271985358455057"><ele>685.6666666666667</ele><time>2026-04-07T08:52:00.999Z</time></trkpt><trkpt lat="44.86880117557648" lon="7.27170189552168"><ele>691.0</ele><time>2026-04-07T08:52:01.999Z</time></trkpt><trkpt lat="44.868763058816285" lon="7.27141047689308"><ele>695.3333333333334</ele><time>2026-04-07T08:52:02.999Z</time></trkpt><trkpt lat="44.868722287704934" lon="7.271118721468784"><ele>699.6666666666666</ele><time>2026-04-07T08:52:03.999Z</time></trkpt><trkpt lat="44.86869022823174" lon="7.270827003725069"><ele>704.0</ele><time>2026-04-07T08:52:04.999Z</time></trkpt><trkpt lat="44.868683539009474" lon="7.270571145284046"><ele>708.0</ele><time>2026-04-07T08:52:05.999Z</time></trkpt><trkpt lat="44.86868145362145" lon="7.2703433655163465"><ele>712.0</ele><time>2026-04-07T08:52:06.999Z</time></trkpt><trkpt lat="44.8686806518393" lon="7.270155623537658"><ele>716.0</ele><time>2026-04-07T08:52:07.999Z</time></trkpt><trkpt lat="44.86867154639419" lon="7.270001924607565"><ele>720.0</ele><time>2026-04-07T08:52:08.999Z</time></trkpt><trkpt lat="44.86864739101948" lon="7.269879059178954"><ele>720.0</ele><time>2026-04-07T08:52:09.999Z</time></trkpt><trkpt lat="44.86859436513219" lon="7.269776324422929"><ele>720.0</ele><time>2026-04-07T08:52:10.999Z</time></trkpt><trkpt lat="44.86851758752491" lon="7.269706895955676"><ele>720.0</ele><time>2026-04-07T08:52:11.999Z</time></trkpt><trkpt lat="44.86841358109088" lon="7.269680785152886"><ele>720.0</ele><time>2026-04-07T08:52:12.999Z</time></trkpt><trkpt lat="44.8683024764279" lon="7.269703504103714"><ele>720.0</ele><time>2026-04-07T08:52:13.999Z</time></trkpt><trkpt lat="44.868179615393935" lon="7.269760455622082"><ele>711.25</ele><time>2026-04-07T08:52:14.999Z</time></trkpt><trkpt lat="44.86804437993658" lon="7.269834808081287"><ele>702.5</ele><time>2026-04-07T08:52:15.999Z</time></trkpt><trkpt lat="44.86792184297029" lon="7.269942510583009"><ele>693.75</ele><time>2026-04-07T08:52:16.999Z</time></trkpt><trkpt lat="44.867826653346505" lon="7.270065216411407"><ele>685.0</ele><time>2026-04-07T08:52:17.999Z</time></trkpt><trkpt lat="44.86774039400948" lon="7.270165974201935"><ele>685.0</ele><time>2026-04-07T08:52:18.999Z</time></trkpt><trkpt lat="44.86764512759382" lon="7.270194505681372"><ele>685.0</ele><time>2026-04-07T08:52:19.999Z</time></trkpt><trkpt lat="44.86753114929396" lon="7.270177726976753"><ele>685.0</ele><time>2026-04-07T08:52:20.999Z</time></trkpt><trkpt lat="44.86743148991949" lon="7.270107614859045"><ele>685.0</ele><time>2026-04-07T08:52:21.999Z</time></trkpt><trkpt lat="44.86737111619583" lon="7.269969946603248"><ele>685.0</ele><time>2026-04-07T08:52:22.999Z</time></trkpt><trkpt lat="44.867291339629766" lon="7.269837841417789"><ele>697.25</ele><time>2026-04-07T08:52:23.999Z</time></trkpt><trkpt lat="44.86720848749647" lon="7.269716316921699"><ele>709.5</ele><time>2026-04-07T08:52:24.999Z</time></trkpt><trkpt lat="44.86709219637421" lon="7.269625209856858"><ele>721.75</ele><time>2026-04-07T08:52:25.999Z</time></trkpt><trkpt lat="44.86697685064618" lon="7.269539597960043"><ele>734.0</ele><time>2026-04-07T08:52:26.999Z</time></trkpt><trkpt lat="44.86689044627419" lon="7.269480069222113"><ele>734.0</ele><time>2026-04-07T08:52:27.999Z</time></trkpt><trkpt lat="44.86680490186566" lon="7.269428634447339"><ele>734.0</ele><time>2026-04-07T08:52:28.999Z</time></trkpt><trkpt lat="44.86672111644252" lon="7.269427122325682"><ele>734.0</ele><time>2026-04-07T08:52:29.999Z</time></trkpt><trkpt lat="44.86664462543136" lon="7.269489214398638"><ele>734.0</ele><time>2026-04-07T08:52:30.999Z</time></trkpt><trkpt lat="44.86657859087123" lon="7.269584218074576"><ele>734.0</ele><time>2026-04-07T08:52:31.999Z</time></trkpt><trkpt lat="44.86651374496214" lon="7.269709337725609"><ele>728.25</ele><time>2026-04-07T08:52:32.999Z</time></trkpt><trkpt lat="44.866434183989945" lon="7.269827612673732"><ele>722.5</ele><time>2026-04-07T08:52:33.999Z</time></trkpt><trkpt lat="44.866340260431215" lon="7.269933252833285"><ele>716.75</ele><time>2026-04-07T08:52:34.999Z</time></trkpt><trkpt lat="44.866233496015475" lon="7.270006863940952"><ele>711.0</ele><time>2026-04-07T08:52:35.999Z</time></trkpt><trkpt lat="44.86612992920145" lon="7.270068277799459"><ele>711.0</ele><time>2026-04-07T08:52:36.999Z</time></trkpt><trkpt lat="44.866032793230765" lon="7.270165154528237"><ele>711.0</ele><time>2026-04-07T08:52:37.999Z</time></trkpt><trkpt lat="44.86596669055751" lon="7.270281712705665"><ele>711.0</ele><time>2026-04-07T08:52:38.999Z</time></trkpt><trkpt lat="44.8659137663287" lon="7.27037581143842"><ele>711.0</ele><time>2026-04-07T08:52:39.999Z</time></trkpt><trkpt lat="44.865860082141594" lon="7.270444419673603"><ele>711.0</ele><time>2026-04-07T08:52:40.999Z</time></trkpt><trkpt lat="44.865786996144166" lon="7.270473047001392"><ele>714.6666666666666</ele><time>2026-04-07T08:52:41.999Z</time></trkpt><trkpt lat="44.865711006882776" lon="7.270479084515855"><ele>718.3333333333334</ele><time>2026-04-07T08:52:42.999Z</time></trkpt><trkpt lat="44.86564170125021" lon="7.2704767621992055"><ele>722.0</ele><time>2026-04-07T08:52:44Z</time></trkpt><trkpt lat="44.86553416911044" lon="7.270473104942336"><ele>725.6666666666667</ele><time>2026-04-07T08:52:46Z</time></trkpt><trkpt lat="44.86545330445949" lon="7.270431886616959"><ele>729.3333333333334</ele><time>2026-04-07T08:52:48Z</time></trkpt><trkpt lat="44.865429778106524" lon="7.270345587744046"><ele>733.0</ele><time>2026-04-07T08:52:51Z</time></trkpt><trkpt lat="44.86533096035494" lon="7.270422414676559"><ele>733.0</ele><time>2026-04-07T08:52:52Z</time></trkpt><trkpt lat="44.86547680638574" lon="7.270460624862929"><ele>733.0</ele><time>2026-04-07T08:53:02Z</time></trkpt><trkpt lat="44.86541598087948" lon="7.270508634697591"><ele>733.0</ele><time>2026-04-07T08:54:56Z</time></trkpt><trkpt lat="44.865442788132825" lon="7.270365716690058"><ele>733.0</ele><time>2026-04-07T08:59:49Z</time></trkpt><trkpt lat="44.86543056418862" lon="7.2702647962445655"><ele>733.0</ele><time>2026-04-07T08:59:50Z</time></trkpt><trkpt lat="44.865401467971225" lon="7.270180955592438"><ele>733.0</ele><time>2026-04-07T08:59:51Z</time></trkpt><trkpt lat="44.86533849311342" lon="7.270127730482804"><ele>733.0</ele><time>2026-04-07T08:59:52Z</time></trkpt><trkpt lat="44.86527289760464" lon="7.270081030438335"><ele>733.0</ele><time>2026-04-07T08:59:53Z</time></trkpt><trkpt lat="44.86517061016275" lon="7.270003737035471"><ele>733.0</ele><time>2026-04-07T08:59:55Z</time></trkpt><trkpt lat="44.86510778833566" lon="7.269933742699024"><ele>733.0</ele><time>2026-04-07T08:59:56Z</time></trkpt><trkpt lat="44.86506221508879" lon="7.26985936506808"><ele>733.0</ele><time>2026-04-07T08:59:57Z</time></trkpt><trkpt lat="44.865020316242045" lon="7.2697342003394105"><ele>734.2</ele><time>2026-04-07T08:59:59Z</time></trkpt><trkpt lat="44.86499660978769" lon="7.2696506944924435"><ele>735.4</ele><time>2026-04-07T09:00:01Z</time></trkpt><trkpt lat="44.86488173920499" lon="7.269645025470069"><ele>736.6</ele><time>2026-04-07T09:00:03Z</time></trkpt><trkpt lat="44.86480059570866" lon="7.269670087744709"><ele>737.8000000000001</ele><time>2026-04-07T09:00:04Z</time></trkpt><trkpt lat="44.864716456071086" lon="7.269703203883768"><ele>739.0</ele><time>2026-04-07T09:00:05Z</time></trkpt><trkpt lat="44.86460374450635" lon="7.269753436079557"><ele>739.0</ele><time>2026-04-07T09:00:07Z</time></trkpt><trkpt lat="44.86454044659937" lon="7.269760248120223"><ele>739.0</ele><time>2026-04-07T09:00:08Z</time></trkpt><trkpt lat="44.86446154783025" lon="7.269748598415158"><ele>739.0</ele><time>2026-04-07T09:00:09Z</time></trkpt><trkpt lat="44.86437488639205" lon="7.269747859257303"><ele>739.0</ele><time>2026-04-07T09:00:10Z</time></trkpt><trkpt lat="44.86429489978771" lon="7.269736738522169"><ele>739.0</ele><time>2026-04-07T09:00:11Z</time></trkpt><trkpt lat="44.86419510822788" lon="7.269727816095175"><ele>739.0</ele><time>2026-04-07T09:00:11.999Z</time></trkpt><trkpt lat="44.864099553802184" lon="7.269710016100252"><ele>742.0</ele><time>2026-04-07T09:00:12.999Z</time></trkpt><trkpt lat="44.864011917942825" lon="7.269704406471057"><ele>745.0</ele><time>2026-04-07T09:00:13.999Z</time></trkpt><trkpt lat="44.863931579120866" lon="7.269695708449019"><ele>748.0</ele><time>2026-04-07T09:00:14.999Z</time></trkpt><trkpt lat="44.86384677672396" lon="7.269683078592663"><ele>751.0</ele><time>2026-04-07T09:00:15.999Z</time></trkpt><trkpt lat="44.86375567639134" lon="7.269688352812091"><ele>754.0</ele><time>2026-04-07T09:00:16.999Z</time></trkpt><trkpt lat="44.86365863590526" lon="7.269698179762959"><ele>757.0</ele><time>2026-04-07T09:00:17.999Z</time></trkpt><trkpt lat="44.86355956447532" lon="7.269732281807827"><ele>756.4000000000001</ele><time>2026-04-07T09:00:18.999Z</time></trkpt><trkpt lat="44.86345338829579" lon="7.26977890139678"><ele>755.8000000000001</ele><time>2026-04-07T09:00:19.999Z</time></trkpt><trkpt lat="44.863359115891676" lon="7.269830319164298"><ele>755.2</ele><time>2026-04-07T09:00:20.999Z</time></trkpt><trkpt lat="44.86326945675268" lon="7.269869655216495"><ele>754.6</ele><time>2026-04-07T09:00:21.999Z</time></trkpt><trkpt lat="44.86316451065436" lon="7.2699138289623955"><ele>754.0</ele><time>2026-04-07T09:00:22.999Z</time></trkpt><trkpt lat="44.86306750880195" lon="7.269955159204158"><ele>756.75</ele><time>2026-04-07T09:00:23.999Z</time></trkpt><trkpt lat="44.86296971289051" lon="7.269990174512733"><ele>759.5</ele><time>2026-04-07T09:00:24.999Z</time></trkpt><trkpt lat="44.86285596490944" lon="7.270040575832192"><ele>762.25</ele><time>2026-04-07T09:00:25.999Z</time></trkpt><trkpt lat="44.86274590715005" lon="7.270087990865656"><ele>765.0</ele><time>2026-04-07T09:00:26.999Z</time></trkpt><trkpt lat="44.862631753466076" lon="7.2701311919306715"><ele>766.0</ele><time>2026-04-07T09:00:27.999Z</time></trkpt><trkpt lat="44.86250018365022" lon="7.270177606887467"><ele>767.0</ele><time>2026-04-07T09:00:28.999Z</time></trkpt><trkpt lat="44.862358052991894" lon="7.27022430022114"><ele>768.0</ele><time>2026-04-07T09:00:29.999Z</time></trkpt><trkpt lat="44.86223441860098" lon="7.270244813276511"><ele>769.0</ele><time>2026-04-07T09:00:30.999Z</time></trkpt><trkpt lat="44.862125439805666" lon="7.27025097455224"><ele>769.0</ele><time>2026-04-07T09:00:31.999Z</time></trkpt><trkpt lat="44.86201721937544" lon="7.270249303095457"><ele>769.0</ele><time>2026-04-07T09:00:32.999Z</time></trkpt><trkpt lat="44.861912477095956" lon="7.270245783125247"><ele>769.0</ele><time>2026-04-07T09:00:33.999Z</time></trkpt><trkpt lat="44.8618005711318" lon="7.270220139590384"><ele>769.0</ele><time>2026-04-07T09:00:34.999Z</time></trkpt><trkpt lat="44.86168863157894" lon="7.27018447067549"><ele>769.0</ele><time>2026-04-07T09:00:35.999Z</time></trkpt><trkpt lat="44.861582022856396" lon="7.270147268380423"><ele>770.2</ele><time>2026-04-07T09:00:36.999Z</time></trkpt><trkpt lat="44.861474528330334" lon="7.270138570887714"><ele>771.4000000000001</ele><time>2026-04-07T09:00:37.999Z</time></trkpt><trkpt lat="44.86136168617456" lon="7.2701454743868155"><ele>772.6</ele><time>2026-04-07T09:00:38.999Z</time></trkpt><trkpt lat="44.86124406530022" lon="7.270158968781965"><ele>773.8</ele><time>2026-04-07T09:00:39.999Z</time></trkpt><trkpt lat="44.861153008741" lon="7.27017872627011"><ele>775.0</ele><time>2026-04-07T09:00:40.999Z</time></trkpt><trkpt lat="44.86106660292664" lon="7.270197823234157"><ele>775.0</ele><time>2026-04-07T09:00:41.999Z</time></trkpt><trkpt lat="44.86097619104499" lon="7.270183212547325"><ele>775.0</ele><time>2026-04-07T09:00:42.999Z</time></trkpt><trkpt lat="44.86089423288803" lon="7.270130440433365"><ele>775.0</ele><time>2026-04-07T09:00:43.999Z</time></trkpt><trkpt lat="44.86081944432957" lon="7.270046813104277"><ele>775.0</ele><time>2026-04-07T09:00:44.999Z</time></trkpt><trkpt lat="44.86075750999749" lon="7.269940736985623"><ele>775.0</ele><time>2026-04-07T09:00:45.999Z</time></trkpt><trkpt lat="44.860700001641646" lon="7.269835519254869"><ele>779.6</ele><time>2026-04-07T09:00:46.999Z</time></trkpt><trkpt lat="44.86063784593424" lon="7.269731803326736"><ele>784.2</ele><time>2026-04-07T09:00:47.999Z</time></trkpt><trkpt lat="44.860566738845236" lon="7.269639982390136"><ele>788.8</ele><time>2026-04-07T09:00:48.999Z</time></trkpt><trkpt lat="44.86047690246479" lon="7.269573479158532"><ele>793.4</ele><time>2026-04-07T09:00:49.999Z</time></trkpt><trkpt lat="44.86038892211296" lon="7.269497229390069"><ele>798.0</ele><time>2026-04-07T09:00:50.999Z</time></trkpt><trkpt lat="44.86029376344328" lon="7.269435056661685"><ele>798.0</ele><time>2026-04-07T09:00:51.999Z</time></trkpt><trkpt lat="44.860205379877684" lon="7.269360774948079"><ele>798.0</ele><time>2026-04-07T09:00:52.999Z</time></trkpt><trkpt lat="44.86012889231491" lon="7.2692766413391805"><ele>798.0</ele><time>2026-04-07T09:00:53.999Z</time></trkpt><trkpt lat="44.86005577651349" lon="7.269195696972742"><ele>798.0</ele><time>2026-04-07T09:00:54.999Z</time></trkpt><trkpt lat="44.8599744331615" lon="7.269123589279515"><ele>798.0</ele><time>2026-04-07T09:00:55.999Z</time></trkpt><trkpt lat="44.85990762899472" lon="7.269033079029593"><ele>802.4</ele><time>2026-04-07T09:00:56.999Z</time></trkpt><trkpt lat="44.85985642171121" lon="7.268918634289093"><ele>806.8</ele><time>2026-04-07T09:00:57.999Z</time></trkpt><trkpt lat="44.85980283742119" lon="7.268794366004351"><ele>811.2</ele><time>2026-04-07T09:00:58.999Z</time></trkpt><trkpt lat="44.85975028338748" lon="7.268669454132859"><ele>815.6</ele><time>2026-04-07T09:00:59.999Z</time></trkpt><trkpt lat="44.859687087383264" lon="7.268573350735681"><ele>820.0</ele><time>2026-04-07T09:01:00.999Z</time></trkpt><trkpt lat="44.85960060001842" lon="7.268502848111811"><ele>820.0</ele><time>2026-04-07T09:01:01.999Z</time></trkpt><trkpt lat="44.8595098474008" lon="7.2684258650440015"><ele>820.0</ele><time>2026-04-07T09:01:02.999Z</time></trkpt><trkpt lat="44.85941573189141" lon="7.2683440315423455"><ele>820.0</ele><time>2026-04-07T09:01:03.999Z</time></trkpt><trkpt lat="44.85932902352764" lon="7.268282041745947"><ele>820.0</ele><time>2026-04-07T09:01:04.999Z</time></trkpt><trkpt lat="44.85923841032908" lon="7.268189531578814"><ele>820.0</ele><time>2026-04-07T09:01:05.999Z</time></trkpt><trkpt lat="44.85915536444059" lon="7.268072095984549"><ele>821.8</ele><time>2026-04-07T09:01:06.999Z</time></trkpt><trkpt lat="44.859087894215364" lon="7.2679351906756215"><ele>823.6</ele><time>2026-04-07T09:01:08Z</time></trkpt><trkpt lat="44.85903711439003" lon="7.26780520952215"><ele>825.4000000000001</ele><time>2026-04-07T09:01:09Z</time></trkpt><trkpt lat="44.85897094892717" lon="7.267691376270124"><ele>827.2</ele><time>2026-04-07T09:01:10Z</time></trkpt><trkpt lat="44.858898079922966" lon="7.267591297998801"><ele>829.0</ele><time>2026-04-07T09:01:11Z</time></trkpt><trkpt lat="44.858820483365875" lon="7.26747020869343"><ele>829.0</ele><time>2026-04-07T09:01:12Z</time></trkpt><trkpt lat="44.85873804439285" lon="7.2673658302936035"><ele>829.0</ele><time>2026-04-07T09:01:13Z</time></trkpt><trkpt lat="44.858673497348576" lon="7.267281026473584"><ele>829.0</ele><time>2026-04-07T09:01:14Z</time></trkpt><trkpt lat="44.85863647478434" lon="7.267173299504398"><ele>829.0</ele><time>2026-04-07T09:01:15Z</time></trkpt><trkpt lat="44.85864929957956" lon="7.267055736223332"><ele>829.0</ele><time>2026-04-07T09:01:16Z</time></trkpt><trkpt lat="44.858694591986435" lon="7.2669547828502825"><ele>827.4000000000001</ele><time>2026-04-07T09:01:17Z</time></trkpt><trkpt lat="44.85873143758197" lon="7.26686669774297"><ele>825.8</ele><time>2026-04-07T09:01:18Z</time></trkpt><trkpt lat="44.858727001644354" lon="7.266755367649687"><ele>824.2</ele><time>2026-04-07T09:01:19Z</time></trkpt><trkpt lat="44.85869520158609" lon="7.266644659928376"><ele>822.5999999999999</ele><time>2026-04-07T09:01:20Z</time></trkpt><trkpt lat="44.85863071674307" lon="7.266528686392613"><ele>821.0</ele><time>2026-04-07T09:01:21Z</time></trkpt><trkpt lat="44.85854488232354" lon="7.266395134429355"><ele>819.25</ele><time>2026-04-07T09:01:22Z</time></trkpt><trkpt lat="44.858469548580906" lon="7.266246606118582"><ele>817.5</ele><time>2026-04-07T09:01:23Z</time></trkpt><trkpt lat="44.85840763456962" lon="7.266085450522339"><ele>815.75</ele><time>2026-04-07T09:01:24Z</time></trkpt><trkpt lat="44.85838849941588" lon="7.265930402188706"><ele>814.0</ele><time>2026-04-07T09:01:25Z</time></trkpt><trkpt lat="44.85838058389132" lon="7.265770458752396"><ele>816.2</ele><time>2026-04-07T09:01:26Z</time></trkpt><trkpt lat="44.85838989202105" lon="7.265604268226554"><ele>818.4000000000001</ele><time>2026-04-07T09:01:27Z</time></trkpt><trkpt lat="44.8584219543918" lon="7.265466941755244"><ele>820.6</ele><time>2026-04-07T09:01:28Z</time></trkpt><trkpt lat="44.85846408073163" lon="7.265380165297062"><ele>822.8</ele><time>2026-04-07T09:01:29Z</time></trkpt><trkpt lat="44.85848960360712" lon="7.265280735187715"><ele>825.0</ele><time>2026-04-07T09:01:30Z</time></trkpt><trkpt lat="44.85849164249647" lon="7.265160441960884"><ele>825.0</ele><time>2026-04-07T09:01:31Z</time></trkpt><trkpt lat="44.858488461133355" lon="7.26503632179705"><ele>825.0</ele><time>2026-04-07T09:01:32Z</time></trkpt><trkpt lat="44.85845488036386" lon="7.2648950127152485"><ele>825.0</ele><time>2026-04-07T09:01:33Z</time></trkpt><trkpt lat="44.85840206588965" lon="7.264746511483559"><ele>825.0</ele><time>2026-04-07T09:01:34Z</time></trkpt><trkpt lat="44.85833786208048" lon="7.264605199503228"><ele>825.0</ele><time>2026-04-07T09:01:35Z</time></trkpt><trkpt lat="44.858283712825795" lon="7.264462645367093"><ele>831.0</ele><time>2026-04-07T09:01:36Z</time></trkpt><trkpt lat="44.858240108914536" lon="7.2643257881317265"><ele>837.0</ele><time>2026-04-07T09:01:37Z</time></trkpt><trkpt lat="44.85820709228318" lon="7.2642105743969845"><ele>843.0</ele><time>2026-04-07T09:01:38Z</time></trkpt><trkpt lat="44.85821853492688" lon="7.264116479587191"><ele>849.0</ele><time>2026-04-07T09:01:39Z</time></trkpt><trkpt lat="44.858239731929665" lon="7.264012318768573"><ele>855.0</ele><time>2026-04-07T09:01:40Z</time></trkpt><trkpt lat="44.85829559800569" lon="7.263919268523392"><ele>861.0</ele><time>2026-04-07T09:01:41Z</time></trkpt><trkpt lat="44.85836447644214" lon="7.2638487313130495"><ele>858.5</ele><time>2026-04-07T09:01:42Z</time></trkpt><trkpt lat="44.85845621578818" lon="7.263790364483954"><ele>856.0</ele><time>2026-04-07T09:01:43Z</time></trkpt><trkpt lat="44.85854246695807" lon="7.263778455529562"><ele>853.5</ele><time>2026-04-07T09:01:44Z</time></trkpt><trkpt lat="44.858608459179585" lon="7.263734487654654"><ele>851.0</ele><time>2026-04-07T09:01:45Z</time></trkpt><trkpt lat="44.85866118836191" lon="7.2636494058488035"><ele>848.5</ele><time>2026-04-07T09:01:46Z</time></trkpt><trkpt lat="44.858688502257216" lon="7.263519717349188"><ele>846.0</ele><time>2026-04-07T09:01:47Z</time></trkpt><trkpt lat="44.85869992098399" lon="7.263375737806269"><ele>846.0</ele><time>2026-04-07T09:01:48Z</time></trkpt><trkpt lat="44.858692329728235" lon="7.263254350097263"><ele>846.0</ele><time>2026-04-07T09:01:49Z</time></trkpt><trkpt lat="44.858658933185474" lon="7.263134800304857"><ele>846.0</ele><time>2026-04-07T09:01:50Z</time></trkpt><trkpt lat="44.858591198199264" lon="7.263022913091719"><ele>846.0</ele><time>2026-04-07T09:01:51Z</time></trkpt><trkpt lat="44.85851582412236" lon="7.262920149588269"><ele>846.0</ele><time>2026-04-07T09:01:52Z</time></trkpt><trkpt lat="44.858443179651985" lon="7.262852454161106"><ele>845.8</ele><time>2026-04-07T09:01:53Z</time></trkpt><trkpt lat="44.85835996919487" lon="7.262807943766716"><ele>845.5999999999999</ele><time>2026-04-07T09:01:54Z</time></trkpt><trkpt lat="44.858264225610064" lon="7.262794517617503"><ele>845.4</ele><time>2026-04-07T09:01:55Z</time></trkpt><trkpt lat="44.85814972499664" lon="7.262796638491909"><ele>845.2</ele><time>2026-04-07T09:01:56Z</time></trkpt><trkpt lat="44.85803493306756" lon="7.262803175082869"><ele>845.0</ele><time>2026-04-07T09:01:57Z</time></trkpt><trkpt lat="44.85792546980569" lon="7.262811108970058"><ele>845.0</ele><time>2026-04-07T09:01:58Z</time></trkpt><trkpt lat="44.85783066111853" lon="7.262807958608671"><ele>845.0</ele><time>2026-04-07T09:01:59Z</time></trkpt><trkpt lat="44.857732560871405" lon="7.262763960182845"><ele>845.0</ele><time>2026-04-07T09:02:00Z</time></trkpt><trkpt lat="44.85763548627499" lon="7.262672091772037"><ele>845.0</ele><time>2026-04-07T09:02:01Z</time></trkpt><trkpt lat="44.8575566146069" lon="7.262525222591283"><ele>845.0</ele><time>2026-04-07T09:02:02Z</time></trkpt><trkpt lat="44.85747638324245" lon="7.262385013898592"><ele>846.4</ele><time>2026-04-07T09:02:03Z</time></trkpt><trkpt lat="44.857438421395884" lon="7.26225263746967"><ele>847.8</ele><time>2026-04-07T09:02:04Z</time></trkpt><trkpt lat="44.85742403966833" lon="7.262105622323635"><ele>849.2</ele><time>2026-04-07T09:02:05Z</time></trkpt><trkpt lat="44.8574317845329" lon="7.261955229885677"><ele>850.6</ele><time>2026-04-07T09:02:06Z</time></trkpt><trkpt lat="44.85741217005206" lon="7.261793426314034"><ele>852.0</ele><time>2026-04-07T09:02:07Z</time></trkpt><trkpt lat="44.85736576517701" lon="7.2616216068353525"><ele>852.0</ele><time>2026-04-07T09:02:08Z</time></trkpt><trkpt lat="44.857329832245405" lon="7.2614605509030445"><ele>852.0</ele><time>2026-04-07T09:02:09Z</time></trkpt><trkpt lat="44.857296047197686" lon="7.261312158208854"><ele>852.0</ele><time>2026-04-07T09:02:10Z</time></trkpt><trkpt lat="44.857288071444664" lon="7.261157367048124"><ele>852.0</ele><time>2026-04-07T09:02:11Z</time></trkpt><trkpt lat="44.85730374342815" lon="7.260992985815532"><ele>850.8</ele><time>2026-04-07T09:02:12Z</time></trkpt><trkpt lat="44.85733234693892" lon="7.260858969312643"><ele>849.6</ele><time>2026-04-07T09:02:13Z</time></trkpt><trkpt lat="44.857348655605634" lon="7.260743096936192"><ele>848.4</ele><time>2026-04-07T09:02:14Z</time></trkpt><trkpt lat="44.857336863338844" lon="7.260612066335111"><ele>847.1999999999999</ele><time>2026-04-07T09:02:15Z</time></trkpt><trkpt lat="44.85731631329615" lon="7.2604632404396305"><ele>846.0</ele><time>2026-04-07T09:02:16Z</time></trkpt><trkpt lat="44.857291991093426" lon="7.260326646159006"><ele>844.8333333333334</ele><time>2026-04-07T09:02:16.999Z</time></trkpt><trkpt lat="44.85726791303535" lon="7.260218080330667"><ele>843.6666666666667</ele><time>2026-04-07T09:02:17.999Z</time></trkpt><trkpt lat="44.85722751539814" lon="7.260135840818083"><ele>842.5</ele><time>2026-04-07T09:02:18.999Z</time></trkpt><trkpt lat="44.85716783982369" lon="7.260064932640985"><ele>841.3333333333334</ele><time>2026-04-07T09:02:19.999Z</time></trkpt><trkpt lat="44.85709361617986" lon="7.259998924062197"><ele>840.1666666666667</ele><time>2026-04-07T09:02:20.999Z</time></trkpt><trkpt lat="44.857010596757156" lon="7.259962257899736"><ele>839.0</ele><time>2026-04-07T09:02:21.999Z</time></trkpt><trkpt lat="44.85691771318523" lon="7.259963930225951"><ele>839.0</ele><time>2026-04-07T09:02:22.999Z</time></trkpt><trkpt lat="44.856817599677136" lon="7.259988041035165"><ele>839.0</ele><time>2026-04-07T09:02:23.999Z</time></trkpt><trkpt lat="44.856709863654466" lon="7.260039192445447"><ele>839.0</ele><time>2026-04-07T09:02:24.999Z</time></trkpt><trkpt lat="44.85661155575786" lon="7.260132530336899"><ele>839.0</ele><time>2026-04-07T09:02:25.999Z</time></trkpt><trkpt lat="44.85651466142159" lon="7.260228599604388"><ele>842.0</ele><time>2026-04-07T09:02:26.999Z</time></trkpt><trkpt lat="44.856414990731835" lon="7.260329703540932"><ele>845.0</ele><time>2026-04-07T09:02:27.999Z</time></trkpt><trkpt lat="44.85630573430121" lon="7.260456891636705"><ele>848.0</ele><time>2026-04-07T09:02:28.999Z</time></trkpt><trkpt lat="44.85621690648946" lon="7.260589318620485"><ele>851.0</ele><time>2026-04-07T09:02:29.999Z</time></trkpt><trkpt lat="44.85613718448267" lon="7.260705205946589"><ele>851.8</ele><time>2026-04-07T09:02:30.999Z</time></trkpt><trkpt lat="44.856059781312105" lon="7.260807067074784"><ele>852.5999999999999</ele><time>2026-04-07T09:02:31.999Z</time></trkpt><trkpt lat="44.85597778916358" lon="7.260885638498565"><ele>853.4</ele><time>2026-04-07T09:02:32.999Z</time></trkpt><trkpt lat="44.855881565844854" lon="7.260935927404948"><ele>854.2</ele><time>2026-04-07T09:02:33.999Z</time></trkpt><trkpt lat="44.85578994445942" lon="7.260961256364738"><ele>855.0</ele><time>2026-04-07T09:02:34.999Z</time></trkpt><trkpt lat="44.855705388649895" lon="7.2609460883156185"><ele>855.0</ele><time>2026-04-07T09:02:35.999Z</time></trkpt><trkpt lat="44.85562823928635" lon="7.260905114057821"><ele>855.0</ele><time>2026-04-07T09:02:36.999Z</time></trkpt><trkpt lat="44.85555741424116" lon="7.260818591871022"><ele>855.0</ele><time>2026-04-07T09:02:37.999Z</time></trkpt><trkpt lat="44.85548386888564" lon="7.260698408169421"><ele>855.0</ele><time>2026-04-07T09:02:38.999Z</time></trkpt><trkpt lat="44.855393824287745" lon="7.260554623845867"><ele>855.0</ele><time>2026-04-07T09:02:39.999Z</time></trkpt><trkpt lat="44.85529438263653" lon="7.260396907513959"><ele>855.5</ele><time>2026-04-07T09:02:40.999Z</time></trkpt><trkpt lat="44.8552030418252" lon="7.260224551457559"><ele>856.0</ele><time>2026-04-07T09:02:41.999Z</time></trkpt><trkpt lat="44.855130600811755" lon="7.260044272717926"><ele>856.5</ele><time>2026-04-07T09:02:42.999Z</time></trkpt><trkpt lat="44.85507355067151" lon="7.259857636705582"><ele>857.0</ele><time>2026-04-07T09:02:43.999Z</time></trkpt><trkpt lat="44.85502422069237" lon="7.259683866402835"><ele>854.6</ele><time>2026-04-07T09:02:44.999Z</time></trkpt><trkpt lat="44.854965527800196" lon="7.2595374689058705"><ele>852.2</ele><time>2026-04-07T09:02:45.999Z</time></trkpt><trkpt lat="44.85490573009" lon="7.259420849504968"><ele>849.8</ele><time>2026-04-07T09:02:46.999Z</time></trkpt><trkpt lat="44.85482842824272" lon="7.259319352953247"><ele>847.4</ele><time>2026-04-07T09:02:47.999Z</time></trkpt><trkpt lat="44.8547475877048" lon="7.259224671733816"><ele>845.0</ele><time>2026-04-07T09:02:48.999Z</time></trkpt><trkpt lat="44.85467997479209" lon="7.259125362353274"><ele>845.0</ele><time>2026-04-07T09:02:49.999Z</time></trkpt><trkpt lat="44.85464088011818" lon="7.259017147042493"><ele>845.0</ele><time>2026-04-07T09:02:50.999Z</time></trkpt><trkpt lat="44.85465323097835" lon="7.25890199294791"><ele>845.0</ele><time>2026-04-07T09:02:51.999Z</time></trkpt><trkpt lat="44.85468374919735" lon="7.258781141233329"><ele>845.0</ele><time>2026-04-07T09:02:52.999Z</time></trkpt><trkpt lat="44.85472234558127" lon="7.258658853416486"><ele>845.0</ele><time>2026-04-07T09:02:53.999Z</time></trkpt><trkpt lat="44.85471834180246" lon="7.258521795272018"><ele>844.4</ele><time>2026-04-07T09:02:54.999Z</time></trkpt><trkpt lat="44.854683730867194" lon="7.258388407933386"><ele>843.8</ele><time>2026-04-07T09:02:55.999Z</time></trkpt><trkpt lat="44.854631686287256" lon="7.2582634853815575"><ele>843.2</ele><time>2026-04-07T09:02:56.999Z</time></trkpt><trkpt lat="44.85459332668304" lon="7.258124710878126"><ele>842.6</ele><time>2026-04-07T09:02:57.999Z</time></trkpt><trkpt lat="44.8545650802204" lon="7.257967959393414"><ele>842.0</ele><time>2026-04-07T09:02:58.999Z</time></trkpt><trkpt lat="44.8545503969241" lon="7.257831260465603"><ele>840.6</ele><time>2026-04-07T09:02:59.999Z</time></trkpt><trkpt lat="44.85451675371648" lon="7.2577086249364875"><ele>839.2</ele><time>2026-04-07T09:03:00.999Z</time></trkpt><trkpt lat="44.85447232843283" lon="7.2575894543077215"><ele>837.8</ele><time>2026-04-07T09:03:01.999Z</time></trkpt><trkpt lat="44.8544192877467" lon="7.257456234325115"><ele>836.4</ele><time>2026-04-07T09:03:02.999Z</time></trkpt><trkpt lat="44.854357473899526" lon="7.25731637404548"><ele>835.0</ele><time>2026-04-07T09:03:03.999Z</time></trkpt><trkpt lat="44.85429432913286" lon="7.257185411031575"><ele>838.0</ele><time>2026-04-07T09:03:04.999Z</time></trkpt><trkpt lat="44.85424234341981" lon="7.257061594514547"><ele>841.0</ele><time>2026-04-07T09:03:05.999Z</time></trkpt><trkpt lat="44.854194240965235" lon="7.256919963577809"><ele>844.0</ele><time>2026-04-07T09:03:06.999Z</time></trkpt><trkpt lat="44.8541469260617" lon="7.256784402136559"><ele>847.0</ele><time>2026-04-07T09:03:07.999Z</time></trkpt><trkpt lat="44.8541037582631" lon="7.256662906656264"><ele>850.0</ele><time>2026-04-07T09:03:08.999Z</time></trkpt><trkpt lat="44.8540695898905" lon="7.256530397525807"><ele>850.8</ele><time>2026-04-07T09:03:09.999Z</time></trkpt><trkpt lat="44.85403900655374" lon="7.25639884037857"><ele>851.6</ele><time>2026-04-07T09:03:10.999Z</time></trkpt><trkpt lat="44.854007118312104" lon="7.256273954334882"><ele>852.4000000000001</ele><time>2026-04-07T09:03:11.999Z</time></trkpt><trkpt lat="44.853972654113996" lon="7.256157277550797"><ele>853.2</ele><time>2026-04-07T09:03:12.999Z</time></trkpt><trkpt lat="44.8539404588482" lon="7.256028227435718"><ele>854.0</ele><time>2026-04-07T09:03:14Z</time></trkpt><trkpt lat="44.85390828566428" lon="7.255893792446518"><ele>854.0</ele><time>2026-04-07T09:03:15Z</time></trkpt><trkpt lat="44.853887363856984" lon="7.255745536367793"><ele>854.0000000000001</ele><time>2026-04-07T09:03:16Z</time></trkpt><trkpt lat="44.853876207074435" lon="7.255569053367271"><ele>854.0000000000001</ele><time>2026-04-07T09:03:17Z</time></trkpt><trkpt lat="44.853864527747255" lon="7.2554169401164295"><ele>854.0</ele><time>2026-04-07T09:03:18Z</time></trkpt><trkpt lat="44.85385785581577" lon="7.255288075124007"><ele>854.0</ele><time>2026-04-07T09:03:19Z</time></trkpt><trkpt lat="44.85384064147667" lon="7.255173750275308"><ele>853.5000000000001</ele><time>2026-04-07T09:03:20Z</time></trkpt><trkpt lat="44.85383664990586" lon="7.255059603722998"><ele>853.0</ele><time>2026-04-07T09:03:21Z</time></trkpt><trkpt lat="44.853853629013344" lon="7.254962888120772"><ele>852.5</ele><time>2026-04-07T09:03:22Z</time></trkpt><trkpt lat="44.85388339001506" lon="7.254880664560587"><ele>852.0</ele><time>2026-04-07T09:03:23Z</time></trkpt><trkpt lat="44.85393422327811" lon="7.2547989157619845"><ele>851.5000000000001</ele><time>2026-04-07T09:03:24Z</time></trkpt><trkpt lat="44.85398499904565" lon="7.254684054636251"><ele>851.0</ele><time>2026-04-07T09:03:25Z</time></trkpt><trkpt lat="44.854033836366746" lon="7.254548299287049"><ele>851.0</ele><time>2026-04-07T09:03:26Z</time></trkpt><trkpt lat="44.85408572578655" lon="7.2543975875207725"><ele>851.0</ele><time>2026-04-07T09:03:27Z</time></trkpt><trkpt lat="44.8541272501643" lon="7.25427604104308"><ele>851.0</ele><time>2026-04-07T09:03:28Z</time></trkpt><trkpt lat="44.85415898377544" lon="7.254136934663127"><ele>851.0</ele><time>2026-04-07T09:03:29Z</time></trkpt><trkpt lat="44.854180197118794" lon="7.253991367331655"><ele>851.0</ele><time>2026-04-07T09:03:30Z</time></trkpt><trkpt lat="44.85419399784543" lon="7.253836030735516"><ele>851.0</ele><time>2026-04-07T09:03:31Z</time></trkpt><trkpt lat="44.85419615834104" lon="7.253678803980603"><ele>851.0</ele><time>2026-04-07T09:03:32Z</time></trkpt><trkpt lat="44.854184817603" lon="7.2535127638080015"><ele>851.0</ele><time>2026-04-07T09:03:33Z</time></trkpt><trkpt lat="44.85418351522267" lon="7.253352345824565"><ele>851.0</ele><time>2026-04-07T09:03:34Z</time></trkpt><trkpt lat="44.85416944623537" lon="7.253192014208982"><ele>852.4</ele><time>2026-04-07T09:03:35Z</time></trkpt><trkpt lat="44.8541284569844" lon="7.253037734395569"><ele>853.8</ele><time>2026-04-07T09:03:36Z</time></trkpt><trkpt lat="44.854107023179964" lon="7.2529054213319135"><ele>855.1999999999999</ele><time>2026-04-07T09:03:37Z</time></trkpt><trkpt lat="44.854076610001385" lon="7.252775406094526"><ele>856.5999999999999</ele><time>2026-04-07T09:03:38Z</time></trkpt><trkpt lat="44.85405172002954" lon="7.252658482711118"><ele>858.0</ele><time>2026-04-07T09:03:39Z</time></trkpt><trkpt lat="44.85404128736299" lon="7.252555591598193"><ele>858.0</ele><time>2026-04-07T09:03:40Z</time></trkpt><trkpt lat="44.85404498799924" lon="7.252457220169299"><ele>858.0</ele><time>2026-04-07T09:03:41Z</time></trkpt><trkpt lat="44.854090839599145" lon="7.252298664857987"><ele>858.0</ele><time>2026-04-07T09:03:43Z</time></trkpt><trkpt lat="44.854130923377475" lon="7.2522003673874496"><ele>858.0</ele><time>2026-04-07T09:03:44Z</time></trkpt><trkpt lat="44.85417853901822" lon="7.252075417889896"><ele>858.0</ele><time>2026-04-07T09:03:45Z</time></trkpt><trkpt lat="44.85423721604125" lon="7.251943969230963"><ele>857.4</ele><time>2026-04-07T09:03:46Z</time></trkpt><trkpt lat="44.854305478697434" lon="7.2518084747513605"><ele>856.8</ele><time>2026-04-07T09:03:47Z</time></trkpt><trkpt lat="44.85437135571891" lon="7.25170312598282"><ele>856.2</ele><time>2026-04-07T09:03:48Z</time></trkpt><trkpt lat="44.8544431513434" lon="7.251605202079646"><ele>855.6</ele><time>2026-04-07T09:03:49Z</time></trkpt><trkpt lat="44.85451263818307" lon="7.25150951942181"><ele>855.0</ele><time>2026-04-07T09:03:50Z</time></trkpt><trkpt lat="44.854583360479225" lon="7.25140822274631"><ele>855.0</ele><time>2026-04-07T09:03:51Z</time></trkpt><trkpt lat="44.85463960901283" lon="7.251303593944249"><ele>855.0</ele><time>2026-04-07T09:03:52Z</time></trkpt><trkpt lat="44.85468415654457" lon="7.251190600180751"><ele>855.0</ele><time>2026-04-07T09:03:53Z</time></trkpt><trkpt lat="44.85471046283964" lon="7.251088629464802"><ele>855.0</ele><time>2026-04-07T09:03:54Z</time></trkpt><trkpt lat="44.85472792925469" lon="7.2510020317815"><ele>855.0</ele><time>2026-04-07T09:03:55Z</time></trkpt><trkpt lat="44.8547639337809" lon="7.250862086606476"><ele>855.0</ele><time>2026-04-07T09:03:57Z</time></trkpt><trkpt lat="44.85479393421888" lon="7.250780562868601"><ele>855.0</ele><time>2026-04-07T09:03:59Z</time></trkpt><trkpt lat="44.85481969456502" lon="7.250653694630989"><ele>855.0</ele><time>2026-04-07T09:04:18Z</time></trkpt><trkpt lat="44.85481202358931" lon="7.250559297839559"><ele>855.0</ele><time>2026-04-07T09:04:19Z</time></trkpt><trkpt lat="44.854808448077904" lon="7.250445967088392"><ele>855.0</ele><time>2026-04-07T09:04:20Z</time></trkpt><trkpt lat="44.85479821694367" lon="7.250350878424704"><ele>855.0</ele><time>2026-04-07T09:04:21Z</time></trkpt><trkpt lat="44.85476392256665" lon="7.250211447030069"><ele>855.0</ele><time>2026-04-07T09:04:23Z</time></trkpt><trkpt lat="44.854735231127336" lon="7.250093303115484"><ele>855.0</ele><time>2026-04-07T09:04:23.999Z</time></trkpt><trkpt lat="44.85470093678026" lon="7.249993499155378"><ele>855.0</ele><time>2026-04-07T09:04:24.999Z</time></trkpt><trkpt lat="44.85467721402839" lon="7.2499027717223195"><ele>855.0</ele><time>2026-04-07T09:04:25.999Z</time></trkpt><trkpt lat="44.85467565944733" lon="7.249809594778538"><ele>855.0</ele><time>2026-04-07T09:04:26.999Z</time></trkpt><trkpt lat="44.85469121942305" lon="7.24970606095855"><ele>855.0</ele><time>2026-04-07T09:04:27.999Z</time></trkpt><trkpt lat="44.85471969560891" lon="7.249586424042146"><ele>855.0</ele><time>2026-04-07T09:04:28.999Z</time></trkpt><trkpt lat="44.854760218975855" lon="7.249474185650268"><ele>858.0</ele><time>2026-04-07T09:04:29.999Z</time></trkpt><trkpt lat="44.85480239978539" lon="7.2493541373641195"><ele>861.0</ele><time>2026-04-07T09:04:30.999Z</time></trkpt><trkpt lat="44.85486845107725" lon="7.249227625772342"><ele>864.0</ele><time>2026-04-07T09:04:31.999Z</time></trkpt><trkpt lat="44.85491737115699" lon="7.249111340865098"><ele>867.0</ele><time>2026-04-07T09:04:32.999Z</time></trkpt><trkpt lat="44.854981139107586" lon="7.249010058549982"><ele>870.0</ele><time>2026-04-07T09:04:33.999Z</time></trkpt><trkpt lat="44.855036398646114" lon="7.248910694733277"><ele>871.5</ele><time>2026-04-07T09:04:34.999Z</time></trkpt><trkpt lat="44.855108649098206" lon="7.248774232941693"><ele>873.0</ele><time>2026-04-07T09:04:36.999Z</time></trkpt><trkpt lat="44.85516141180909" lon="7.248699193897808"><ele>874.5</ele><time>2026-04-07T09:04:37.999Z</time></trkpt><trkpt lat="44.85523739896396" lon="7.248675993600493"><ele>876.0</ele><time>2026-04-07T09:04:38.999Z</time></trkpt><trkpt lat="44.8553183123573" lon="7.248642352968318"><ele>877.5</ele><time>2026-04-07T09:04:39.999Z</time></trkpt><trkpt lat="44.85540402892378" lon="7.248616959532686"><ele>879.0</ele><time>2026-04-07T09:04:40.999Z</time></trkpt><trkpt lat="44.855472815556844" lon="7.248611080127977"><ele>879.0</ele><time>2026-04-07T09:04:41.999Z</time></trkpt><trkpt lat="44.855556648325624" lon="7.248611915485782"><ele>879.0000000000001</ele><time>2026-04-07T09:04:42.999Z</time></trkpt><trkpt lat="44.855646159750364" lon="7.248645957459881"><ele>879.0000000000001</ele><time>2026-04-07T09:04:43.999Z</time></trkpt><trkpt lat="44.85577136314827" lon="7.248594571800535"><ele>879.0</ele><time>2026-04-07T09:04:45.999Z</time></trkpt><trkpt lat="44.85587098621831" lon="7.248521924602179"><ele>879.0</ele><time>2026-04-07T09:04:47.999Z</time></trkpt><trkpt lat="44.855943696062376" lon="7.248484290020844"><ele>873.2</ele><time>2026-04-07T09:04:48.999Z</time></trkpt><trkpt lat="44.8560133456359" lon="7.248333338921276"><ele>867.4000000000001</ele><time>2026-04-07T09:04:50.999Z</time></trkpt><trkpt lat="44.85604535652822" lon="7.248225540664674"><ele>861.6</ele><time>2026-04-07T09:04:51.999Z</time></trkpt><trkpt lat="44.85607177010514" lon="7.248132949157573"><ele>855.8</ele><time>2026-04-07T09:04:52.999Z</time></trkpt><trkpt lat="44.85610125413981" lon="7.247971659333318"><ele>850.0</ele><time>2026-04-07T09:04:54.999Z</time></trkpt><trkpt lat="44.85608660832572" lon="7.247862576124585"><ele>850.0</ele><time>2026-04-07T09:04:55.999Z</time></trkpt><trkpt lat="44.85604819972812" lon="7.247751704737826"><ele>850.0</ele><time>2026-04-07T09:04:56.999Z</time></trkpt><trkpt lat="44.85599556751528" lon="7.24760474307032"><ele>850.0</ele><time>2026-04-07T09:04:57.999Z</time></trkpt><trkpt lat="44.85594383368024" lon="7.247470134052344"><ele>850.0</ele><time>2026-04-07T09:04:58.999Z</time></trkpt><trkpt lat="44.85587348657914" lon="7.247295154036182"><ele>855.0</ele><time>2026-04-07T09:04:59.999Z</time></trkpt><trkpt lat="44.85579620503512" lon="7.247167708438432"><ele>860.0</ele><time>2026-04-07T09:05:00.999Z</time></trkpt><trkpt lat="44.85575275952665" lon="7.247067368759069"><ele>865.0</ele><time>2026-04-07T09:05:01.999Z</time></trkpt><trkpt lat="44.85570081739397" lon="7.24690114391062"><ele>870.0</ele><time>2026-04-07T09:05:02.999Z</time></trkpt><trkpt lat="44.855666801412035" lon="7.246752358461503"><ele>875.0</ele><time>2026-04-07T09:05:03.999Z</time></trkpt><trkpt lat="44.85563580974708" lon="7.24663064649781"><ele>875.0000000000001</ele><time>2026-04-07T09:05:04.999Z</time></trkpt><trkpt lat="44.85557383750293" lon="7.246554107933344"><ele>875.0</ele><time>2026-04-07T09:05:05.999Z</time></trkpt><trkpt lat="44.85553333423131" lon="7.246428161136738"><ele>875.0</ele><time>2026-04-07T09:05:06.999Z</time></trkpt><trkpt lat="44.85548135520969" lon="7.2463390663295995"><ele>875.0</ele><time>2026-04-07T09:05:07.999Z</time></trkpt><trkpt lat="44.85546101127904" lon="7.246245787851853"><ele>875.0000000000001</ele><time>2026-04-07T09:05:08.999Z</time></trkpt><trkpt lat="44.85543490965023" lon="7.246154783196436"><ele>875.0</ele><time>2026-04-07T09:05:09.999Z</time></trkpt><trkpt lat="44.855415513464656" lon="7.246056776378218"><ele>874.8</ele><time>2026-04-07T09:05:10.999Z</time></trkpt><trkpt lat="44.855408431750085" lon="7.245932449084678"><ele>874.6</ele><time>2026-04-07T09:05:11.999Z</time></trkpt><trkpt lat="44.85541165653283" lon="7.24574656067269"><ele>874.4000000000001</ele><time>2026-04-07T09:05:13.999Z</time></trkpt><trkpt lat="44.85538336403709" lon="7.2456299204740775"><ele>874.2</ele><time>2026-04-07T09:05:14.999Z</time></trkpt><trkpt lat="44.8553482711416" lon="7.245470045615776"><ele>874.0</ele><time>2026-04-07T09:05:15.999Z</time></trkpt><trkpt lat="44.85532232750037" lon="7.245338768356216"><ele>874.0</ele><time>2026-04-07T09:05:16.999Z</time></trkpt><trkpt lat="44.85532675392458" lon="7.245222899133281"><ele>874.0000000000001</ele><time>2026-04-07T09:05:17.999Z</time></trkpt><trkpt lat="44.855311837374785" lon="7.245121002601776"><ele>874.0000000000001</ele><time>2026-04-07T09:05:18.999Z</time></trkpt><trkpt lat="44.85529086100051" lon="7.245000591877298"><ele>874.0</ele><time>2026-04-07T09:05:20Z</time></trkpt><trkpt lat="44.855278817152424" lon="7.24489384982877"><ele>874.0</ele><time>2026-04-07T09:05:21Z</time></trkpt><trkpt lat="44.85521685083736" lon="7.244729916977846"><ele>873.8333333333333</ele><time>2026-04-07T09:05:23Z</time></trkpt><trkpt lat="44.85515091235015" lon="7.244635417066175"><ele>873.6666666666666</ele><time>2026-04-07T09:05:24Z</time></trkpt><trkpt lat="44.85511190393854" lon="7.244556383246497"><ele>873.5</ele><time>2026-04-07T09:05:25Z</time></trkpt><trkpt lat="44.85509092174992" lon="7.2444351855478315"><ele>873.3333333333333</ele><time>2026-04-07T09:05:27Z</time></trkpt><trkpt lat="44.85503394233998" lon="7.244378099051188"><ele>873.1666666666666</ele><time>2026-04-07T09:05:30Z</time></trkpt><trkpt lat="44.85499017681866" lon="7.2444861514563055"><ele>873.0</ele><time>2026-04-07T09:05:32Z</time></trkpt><trkpt lat="44.855013750097086" lon="7.244651265732169"><ele>880.8</ele><time>2026-04-07T09:05:34Z</time></trkpt><trkpt lat="44.85499357829688" lon="7.244817855923734"><ele>888.5999999999999</ele><time>2026-04-07T09:05:36Z</time></trkpt><trkpt lat="44.854961724454206" lon="7.244897702126826"><ele>896.4000000000001</ele><time>2026-04-07T09:05:37Z</time></trkpt><trkpt lat="44.85493623515988" lon="7.244980487098062"><ele>904.2</ele><time>2026-04-07T09:05:38Z</time></trkpt><trkpt lat="44.85487547443959" lon="7.24513723003782"><ele>912.0</ele><time>2026-04-07T09:05:40Z</time></trkpt><trkpt lat="44.8548519097626" lon="7.2452915023536635"><ele>912.0</ele><time>2026-04-07T09:05:42Z</time></trkpt><trkpt lat="44.854804891580756" lon="7.245427605759498"><ele>912.0</ele><time>2026-04-07T09:05:44Z</time></trkpt><trkpt lat="44.854747414805104" lon="7.245501974685594"><ele>912.0</ele><time>2026-04-07T09:05:46Z</time></trkpt><trkpt lat="44.85469231800075" lon="7.245546185439262"><ele>912.0</ele><time>2026-04-07T09:05:47Z</time></trkpt><trkpt lat="44.854630481433226" lon="7.245609790641749"><ele>912.0</ele><time>2026-04-07T09:05:48Z</time></trkpt><trkpt lat="44.85458426341378" lon="7.245687328397364"><ele>912.0</ele><time>2026-04-07T09:05:49Z</time></trkpt><trkpt lat="44.85454480579607" lon="7.245793857913336"><ele>912.0</ele><time>2026-04-07T09:05:50Z</time></trkpt><trkpt lat="44.85448777946481" lon="7.245915605298493"><ele>912.0</ele><time>2026-04-07T09:05:51Z</time></trkpt><trkpt lat="44.854444982184084" lon="7.246011767431345"><ele>912.0</ele><time>2026-04-07T09:05:52Z</time></trkpt><trkpt lat="44.85441500816171" lon="7.2461211667676455"><ele>912.0</ele><time>2026-04-07T09:05:53Z</time></trkpt><trkpt lat="44.85441072608446" lon="7.246210472556118"><ele>912.0</ele><time>2026-04-07T09:05:54Z</time></trkpt><trkpt lat="44.854391607760355" lon="7.2463079588478365"><ele>912.0</ele><time>2026-04-07T09:05:55Z</time></trkpt><trkpt lat="44.854376782621124" lon="7.246425793103517"><ele>912.3333333333334</ele><time>2026-04-07T09:05:56Z</time></trkpt><trkpt lat="44.85435667975174" lon="7.24652739215815"><ele>912.6666666666667</ele><time>2026-04-07T09:05:57Z</time></trkpt><trkpt lat="44.85433248921971" lon="7.246627916371978"><ele>913.0</ele><time>2026-04-07T09:05:58Z</time></trkpt><trkpt lat="44.85430857022019" lon="7.2467204277254815"><ele>913.3333333333334</ele><time>2026-04-07T09:05:59Z</time></trkpt><trkpt lat="44.85423870092547" lon="7.246853844447116"><ele>913.6666666666667</ele><time>2026-04-07T09:06:01Z</time></trkpt><trkpt lat="44.85418408688199" lon="7.246955595075862"><ele>914.0</ele><time>2026-04-07T09:06:03Z</time></trkpt><trkpt lat="44.85411233863688" lon="7.246960415131315"><ele>918.8333333333334</ele><time>2026-04-07T09:06:05Z</time></trkpt><trkpt lat="44.854045540060014" lon="7.246854080287733"><ele>923.6666666666667</ele><time>2026-04-07T09:06:07Z</time></trkpt><trkpt lat="44.854016608328614" lon="7.24668836254111"><ele>928.5</ele><time>2026-04-07T09:06:09Z</time></trkpt><trkpt lat="44.85398503032403" lon="7.246605177274485"><ele>933.3333333333333</ele><time>2026-04-07T09:06:10Z</time></trkpt><trkpt lat="44.85396105356915" lon="7.246506606758639"><ele>938.1666666666666</ele><time>2026-04-07T09:06:11Z</time></trkpt><trkpt lat="44.85392601468937" lon="7.246418225584195"><ele>943.0</ele><time>2026-04-07T09:06:12Z</time></trkpt><trkpt lat="44.85390189642309" lon="7.246329155429212"><ele>944.4999999999999</ele><time>2026-04-07T09:06:13Z</time></trkpt><trkpt lat="44.85387597362153" lon="7.246223400797812"><ele>946.0</ele><time>2026-04-07T09:06:14Z</time></trkpt><trkpt lat="44.85384537263804" lon="7.246034420506973"><ele>947.5</ele><time>2026-04-07T09:06:16Z</time></trkpt><trkpt lat="44.85382254275529" lon="7.2459144078581845"><ele>949.0</ele><time>2026-04-07T09:06:17Z</time></trkpt><trkpt lat="44.85381385014544" lon="7.245814245147859"><ele>950.4999999999999</ele><time>2026-04-07T09:06:18Z</time></trkpt><trkpt lat="44.85378828131036" lon="7.2457218805625185"><ele>952.0</ele><time>2026-04-07T09:06:19Z</time></trkpt><trkpt lat="44.853761661875126" lon="7.245605895606691"><ele>951.9999999999999</ele><time>2026-04-07T09:06:21Z</time></trkpt><trkpt lat="44.85373798385742" lon="7.245492606638746"><ele>952.0</ele><time>2026-04-07T09:06:24Z</time></trkpt><trkpt lat="44.8536650027825" lon="7.2454639054241285"><ele>952.0</ele><time>2026-04-07T09:06:28Z</time></trkpt><trkpt lat="44.85363890258774" lon="7.245609145934178"><ele>952.0</ele><time>2026-04-07T09:06:29.999Z</time></trkpt><trkpt lat="44.85362150315439" lon="7.245701170566078"><ele>951.9999999999999</ele><time>2026-04-07T09:06:30.999Z</time></trkpt><trkpt lat="44.85358677678997" lon="7.245782794679907"><ele>952.0</ele><time>2026-04-07T09:06:31.999Z</time></trkpt><trkpt lat="44.85349425340921" lon="7.2458251012680135"><ele>955.8</ele><time>2026-04-07T09:06:33.999Z</time></trkpt><trkpt lat="44.85339381863858" lon="7.245723806016282"><ele>959.6</ele><time>2026-04-07T09:06:35.999Z</time></trkpt><trkpt lat="44.85329108348058" lon="7.245587295051986"><ele>963.3999999999999</ele><time>2026-04-07T09:06:37.999Z</time></trkpt><trkpt lat="44.853239799866394" lon="7.245534809196546"><ele>967.1999999999999</ele><time>2026-04-07T09:06:38.999Z</time></trkpt><trkpt lat="44.853185999862376" lon="7.245465199696474"><ele>971.0</ele><time>2026-04-07T09:06:39.999Z</time></trkpt><trkpt lat="44.85311992726367" lon="7.245326999092956"><ele>973.5000000000001</ele><time>2026-04-07T09:06:41.999Z</time></trkpt><trkpt lat="44.853066225782214" lon="7.245237670674282"><ele>976.0</ele><time>2026-04-07T09:06:42.999Z</time></trkpt><trkpt lat="44.853031885648925" lon="7.2451372122888085"><ele>978.5</ele><time>2026-04-07T09:06:43.999Z</time></trkpt><trkpt lat="44.8529970151617" lon="7.24502565145906"><ele>981.0</ele><time>2026-04-07T09:06:44.999Z</time></trkpt><trkpt lat="44.852980698200504" lon="7.244928255033759"><ele>983.5000000000001</ele><time>2026-04-07T09:06:45.999Z</time></trkpt><trkpt lat="44.85298484376772" lon="7.24481533860905"><ele>986.0</ele><time>2026-04-07T09:06:46.999Z</time></trkpt><trkpt lat="44.852985295948095" lon="7.244687152585054"><ele>986.5999999999999</ele><time>2026-04-07T09:06:47.999Z</time></trkpt><trkpt lat="44.853016988768026" lon="7.244511058379929"><ele>987.1999999999999</ele><time>2026-04-07T09:06:49.999Z</time></trkpt><trkpt lat="44.853043600990425" lon="7.244402323290056"><ele>987.8000000000001</ele><time>2026-04-07T09:06:50.999Z</time></trkpt><trkpt lat="44.85304842067305" lon="7.244269509791038"><ele>988.4000000000001</ele><time>2026-04-07T09:06:52.999Z</time></trkpt><trkpt lat="44.852973661766256" lon="7.2442334074020875"><ele>989.0</ele><time>2026-04-07T09:06:54.999Z</time></trkpt><trkpt lat="44.852879154293774" lon="7.244235314061478"><ele>989.0</ele><time>2026-04-07T09:06:56.999Z</time></trkpt><trkpt lat="44.852788825278864" lon="7.244229857255238"><ele>989.0000000000001</ele><time>2026-04-07T09:06:58.999Z</time></trkpt><trkpt lat="44.85274813812298" lon="7.24409718158832"><ele>989.0000000000001</ele><time>2026-04-07T09:07:00.999Z</time></trkpt><trkpt lat="44.852728066228465" lon="7.243917360079582"><ele>989.0</ele><time>2026-04-07T09:07:02.999Z</time></trkpt><trkpt lat="44.852709878248696" lon="7.2437943926810595"><ele>989.0</ele><time>2026-04-07T09:07:03.999Z</time></trkpt><trkpt lat="44.85271087293399" lon="7.24364851125539"><ele>989.1666666666667</ele><time>2026-04-07T09:07:04.999Z</time></trkpt><trkpt lat="44.852724815729815" lon="7.24353538595449"><ele>989.3333333333334</ele><time>2026-04-07T09:07:05.999Z</time></trkpt><trkpt lat="44.85271715568219" lon="7.243429836005515"><ele>989.5</ele><time>2026-04-07T09:07:06.999Z</time></trkpt><trkpt lat="44.852700190203855" lon="7.243337467130028"><ele>989.6666666666667</ele><time>2026-04-07T09:07:07.999Z</time></trkpt><trkpt lat="44.852667739449004" lon="7.243194904434659"><ele>989.8333333333334</ele><time>2026-04-07T09:07:09.999Z</time></trkpt><trkpt lat="44.852629484573924" lon="7.24311119268967"><ele>990.0</ele><time>2026-04-07T09:07:12.999Z</time></trkpt><trkpt lat="44.85254768627606" lon="7.243031713320442"><ele>995.2</ele><time>2026-04-07T09:07:14.999Z</time></trkpt><trkpt lat="44.85247022029602" lon="7.24295009554096"><ele>1000.4</ele><time>2026-04-07T09:07:16.999Z</time></trkpt><trkpt lat="44.85237245644176" lon="7.242875350891324"><ele>1005.5999999999999</ele><time>2026-04-07T09:07:18.999Z</time></trkpt><trkpt lat="44.85232934997785" lon="7.242803609309996"><ele>1010.8</ele><time>2026-04-07T09:07:20.999Z</time></trkpt><trkpt lat="44.85226743276064" lon="7.242674436812583"><ele>1016.0</ele><time>2026-04-07T09:07:22.999Z</time></trkpt><trkpt lat="44.852246227303915" lon="7.242580716581137"><ele>1016.0</ele><time>2026-04-07T09:07:23.999Z</time></trkpt><trkpt lat="44.85222038822167" lon="7.242470098759777"><ele>1016.0</ele><time>2026-04-07T09:07:24.999Z</time></trkpt><trkpt lat="44.852196712194214" lon="7.2423673545766105"><ele>1016.0</ele><time>2026-04-07T09:07:26Z</time></trkpt><trkpt lat="44.85217709953197" lon="7.242266705326209"><ele>1016.0</ele><time>2026-04-07T09:07:27Z</time></trkpt><trkpt lat="44.85214865429179" lon="7.242187343122896"><ele>1016.0</ele><time>2026-04-07T09:07:28Z</time></trkpt><trkpt lat="44.852105953977876" lon="7.242121417924584"><ele>1016.0</ele><time>2026-04-07T09:07:29Z</time></trkpt><trkpt lat="44.85204055160422" lon="7.242068409275573"><ele>1016.0</ele><time>2026-04-07T09:07:30Z</time></trkpt><trkpt lat="44.8519622583591" lon="7.242016562031881"><ele>1017.0000000000001</ele><time>2026-04-07T09:07:31Z</time></trkpt><trkpt lat="44.85187124547071" lon="7.241978205365092"><ele>1018.0</ele><time>2026-04-07T09:07:32Z</time></trkpt><trkpt lat="44.85181402671335" lon="7.241936769247067"><ele>1019.0</ele><time>2026-04-07T09:07:33Z</time></trkpt><trkpt lat="44.851712573695565" lon="7.241857904738439"><ele>1020.0</ele><time>2026-04-07T09:07:35Z</time></trkpt><trkpt lat="44.85167070862481" lon="7.241783325117371"><ele>1021.0000000000001</ele><time>2026-04-07T09:07:36Z</time></trkpt><trkpt lat="44.851636930176625" lon="7.241679674736074"><ele>1022.0</ele><time>2026-04-07T09:07:37Z</time></trkpt><trkpt lat="44.851563862521026" lon="7.241618133497254"><ele>1022.0</ele><time>2026-04-07T09:07:38Z</time></trkpt><trkpt lat="44.85145837361048" lon="7.2415901650671834"><ele>1022.0</ele><time>2026-04-07T09:07:39Z</time></trkpt><trkpt lat="44.85138077906325" lon="7.241560343329141"><ele>1022.0</ele><time>2026-04-07T09:07:40Z</time></trkpt><trkpt lat="44.851303916045204" lon="7.241545189338284"><ele>1022.0</ele><time>2026-04-07T09:07:41Z</time></trkpt><trkpt lat="44.8512208030449" lon="7.241485466906571"><ele>1022.0</ele><time>2026-04-07T09:07:43Z</time></trkpt><trkpt lat="44.85119552967825" lon="7.241343491578653"><ele>1026.6</ele><time>2026-04-07T09:07:45Z</time></trkpt><trkpt lat="44.85118517694128" lon="7.241235377522661"><ele>1031.2</ele><time>2026-04-07T09:07:46Z</time></trkpt><trkpt lat="44.851161059364806" lon="7.241101604529268"><ele>1035.8</ele><time>2026-04-07T09:07:47Z</time></trkpt><trkpt lat="44.85115805970229" lon="7.240987044863853"><ele>1040.4</ele><time>2026-04-07T09:07:48Z</time></trkpt><trkpt lat="44.85112682465103" lon="7.240884161577516"><ele>1045.0</ele><time>2026-04-07T09:07:49Z</time></trkpt><trkpt lat="44.85106362911422" lon="7.240725337258551"><ele>1045.0</ele><time>2026-04-07T09:07:51Z</time></trkpt><trkpt lat="44.851026509050065" lon="7.240637245733709"><ele>1045.0</ele><time>2026-04-07T09:07:52Z</time></trkpt><trkpt lat="44.85099368522563" lon="7.24054289259832"><ele>1045.0</ele><time>2026-04-07T09:07:53Z</time></trkpt><trkpt lat="44.850935814095976" lon="7.240477507274948"><ele>1045.0</ele><time>2026-04-07T09:07:54Z</time></trkpt><trkpt lat="44.8508609913995" lon="7.240450332412634"><ele>1045.0</ele><time>2026-04-07T09:07:55Z</time></trkpt><trkpt lat="44.85075813899889" lon="7.240426792684565"><ele>1045.0</ele><time>2026-04-07T09:07:56Z</time></trkpt><trkpt lat="44.85067082830763" lon="7.240481742449123"><ele>1047.3333333333333</ele><time>2026-04-07T09:07:57Z</time></trkpt><trkpt lat="44.85053315717445" lon="7.24052605850606"><ele>1049.6666666666665</ele><time>2026-04-07T09:07:59Z</time></trkpt><trkpt lat="44.85047266905857" lon="7.240563879419048"><ele>1052.0</ele><time>2026-04-07T09:08:00Z</time></trkpt><trkpt lat="44.850396819275595" lon="7.240598025189156"><ele>1054.3333333333333</ele><time>2026-04-07T09:08:01Z</time></trkpt><trkpt lat="44.85032477893301" lon="7.240599716054808"><ele>1056.6666666666667</ele><time>2026-04-07T09:08:02Z</time></trkpt><trkpt lat="44.850257037038695" lon="7.240598154018067"><ele>1059.0</ele><time>2026-04-07T09:08:03Z</time></trkpt><trkpt lat="44.85012944905731" lon="7.240656556553721"><ele>1057.8333333333333</ele><time>2026-04-07T09:08:05Z</time></trkpt><trkpt lat="44.85005599640543" lon="7.240703951631674"><ele>1056.6666666666667</ele><time>2026-04-07T09:08:06Z</time></trkpt><trkpt lat="44.85000501894502" lon="7.240781282526326"><ele>1055.5</ele><time>2026-04-07T09:08:07Z</time></trkpt><trkpt lat="44.84991340976638" lon="7.240825578376985"><ele>1054.3333333333335</ele><time>2026-04-07T09:08:09Z</time></trkpt><trkpt lat="44.84983092968298" lon="7.240743324196935"><ele>1053.1666666666667</ele><time>2026-04-07T09:08:11Z</time></trkpt><trkpt lat="44.849818583815946" lon="7.240635338184365"><ele>1052.0</ele><time>2026-04-07T09:08:12Z</time></trkpt><trkpt lat="44.84972956159619" lon="7.2405412815432095"><ele>1052.0</ele><time>2026-04-07T09:08:14Z</time></trkpt><trkpt lat="44.84965805714035" lon="7.2404158426368985"><ele>1052.0</ele><time>2026-04-07T09:08:18Z</time></trkpt><trkpt lat="44.8495844754296" lon="7.240333976191115"><ele>1052.0</ele><time>2026-04-07T09:08:19Z</time></trkpt><trkpt lat="44.849509724471496" lon="7.240285698503453"><ele>1052.0</ele><time>2026-04-07T09:08:20Z</time></trkpt><trkpt lat="44.849424214251556" lon="7.240286255654537"><ele>1052.0</ele><time>2026-04-07T09:08:21Z</time></trkpt><trkpt lat="44.84933546808101" lon="7.240310887579541"><ele>1049.6</ele><time>2026-04-07T09:08:22Z</time></trkpt><trkpt lat="44.84920913849301" lon="7.240335477019965"><ele>1047.2</ele><time>2026-04-07T09:08:23Z</time></trkpt><trkpt lat="44.849110262729745" lon="7.240362397505194"><ele>1044.8</ele><time>2026-04-07T09:08:24Z</time></trkpt><trkpt lat="44.849033244527824" lon="7.2403695714172285"><ele>1042.4</ele><time>2026-04-07T09:08:25Z</time></trkpt><trkpt lat="44.84890501575462" lon="7.240360934771919"><ele>1040.0</ele><time>2026-04-07T09:08:27Z</time></trkpt><trkpt lat="44.84884485495286" lon="7.240310711696536"><ele>1040.0</ele><time>2026-04-07T09:08:28Z</time></trkpt><trkpt lat="44.848708370417505" lon="7.240365382098775"><ele>1040.0</ele><time>2026-04-07T09:08:30Z</time></trkpt><trkpt lat="44.848631733120804" lon="7.24038364485675"><ele>1040.0</ele><time>2026-04-07T09:08:31Z</time></trkpt><trkpt lat="44.848511738163744" lon="7.240430642318854"><ele>1040.0</ele><time>2026-04-07T09:08:33Z</time></trkpt><trkpt lat="44.84843202504083" lon="7.240416030363953"><ele>1040.0</ele><time>2026-04-07T09:08:33.999Z</time></trkpt><trkpt lat="44.848350785806986" lon="7.240392416624454"><ele>1039.6</ele><time>2026-04-07T09:08:34.999Z</time></trkpt><trkpt lat="44.84821901529514" lon="7.240344857802433"><ele>1039.2</ele><time>2026-04-07T09:08:36.999Z</time></trkpt><trkpt lat="44.84814086080194" lon="7.240252057700328"><ele>1038.8</ele><time>2026-04-07T09:08:38.999Z</time></trkpt><trkpt lat="44.84808925745511" lon="7.24010546236685"><ele>1038.4</ele><time>2026-04-07T09:08:40.999Z</time></trkpt><trkpt lat="44.84803477778771" lon="7.240034533638619"><ele>1038.0</ele><time>2026-04-07T09:08:41.999Z</time></trkpt><trkpt lat="44.8479673615482" lon="7.239999602780489"><ele>1038.0</ele><time>2026-04-07T09:08:42.999Z</time></trkpt><trkpt lat="44.84785296706134" lon="7.239981446176559"><ele>1038.0</ele><time>2026-04-07T09:08:44.999Z</time></trkpt><trkpt lat="44.84774085109611" lon="7.239977031728651"><ele>1038.0</ele><time>2026-04-07T09:08:46.999Z</time></trkpt><trkpt lat="44.84764411274311" lon="7.239990537723309"><ele>1038.0</ele><time>2026-04-07T09:08:48.999Z</time></trkpt><trkpt lat="44.84753543921392" lon="7.240034155987374"><ele>1038.0</ele><time>2026-04-07T09:08:50.999Z</time></trkpt><trkpt lat="44.84739097219472" lon="7.240003301763484"><ele>1038.5</ele><time>2026-04-07T09:08:52.999Z</time></trkpt><trkpt lat="44.84731386694439" lon="7.239959196559894"><ele>1039.0</ele><time>2026-04-07T09:08:53.999Z</time></trkpt><trkpt lat="44.84725030555234" lon="7.239891945772518"><ele>1039.5</ele><time>2026-04-07T09:08:54.999Z</time></trkpt><trkpt lat="44.84719571216215" lon="7.239827264211439"><ele>1040.0</ele><time>2026-04-07T09:08:55.999Z</time></trkpt><trkpt lat="44.84716374195429" lon="7.239725079648871"><ele>1040.5</ele><time>2026-04-07T09:08:56.999Z</time></trkpt><trkpt lat="44.847123081727986" lon="7.23963318320922"><ele>1041.0</ele><time>2026-04-07T09:08:57.999Z</time></trkpt><trkpt lat="44.847080382699055" lon="7.2395552314201375"><ele>1041.0</ele><time>2026-04-07T09:08:58.999Z</time></trkpt><trkpt lat="44.847040347494904" lon="7.23946238423469"><ele>1041.0</ele><time>2026-04-07T09:08:59.999Z</time></trkpt><trkpt lat="44.84699217265976" lon="7.2393708112985875"><ele>1041.0</ele><time>2026-04-07T09:09:00.999Z</time></trkpt><trkpt lat="44.846945234861515" lon="7.2392665287209415"><ele>1041.0</ele><time>2026-04-07T09:09:01.999Z</time></trkpt><trkpt lat="44.84691823991368" lon="7.239136212162105"><ele>1041.0</ele><time>2026-04-07T09:09:02.999Z</time></trkpt><trkpt lat="44.84693068150794" lon="7.2389940326332285"><ele>1041.0</ele><time>2026-04-07T09:09:03.999Z</time></trkpt><trkpt lat="44.84696235357136" lon="7.238859927746182"><ele>1041.0</ele><time>2026-04-07T09:09:04.999Z</time></trkpt><trkpt lat="44.84700894291969" lon="7.238730072492388"><ele>1041.0</ele><time>2026-04-07T09:09:05.999Z</time></trkpt><trkpt lat="44.84706595999692" lon="7.238590711429502"><ele>1041.0</ele><time>2026-04-07T09:09:06.999Z</time></trkpt><trkpt lat="44.84713516103382" lon="7.238464117059108"><ele>1041.0</ele><time>2026-04-07T09:09:07.999Z</time></trkpt><trkpt lat="44.847210323729584" lon="7.238361404814447"><ele>1041.0</ele><time>2026-04-07T09:09:08.999Z</time></trkpt><trkpt lat="44.84728904595213" lon="7.238243959478505"><ele>1041.0</ele><time>2026-04-07T09:09:09.999Z</time></trkpt><trkpt lat="44.847380642850936" lon="7.238144248011037"><ele>1041.0</ele><time>2026-04-07T09:09:10.999Z</time></trkpt><trkpt lat="44.847462859725155" lon="7.238026204190107"><ele>1041.0</ele><time>2026-04-07T09:09:11.999Z</time></trkpt><trkpt lat="44.8475493487125" lon="7.237903239475475"><ele>1041.0</ele><time>2026-04-07T09:09:12.999Z</time></trkpt><trkpt lat="44.847648564932435" lon="7.2377244195379795"><ele>1043.6</ele><time>2026-04-07T09:09:13.999Z</time></trkpt><trkpt lat="44.84773155862886" lon="7.237615646328077"><ele>1046.1999999999998</ele><time>2026-04-07T09:09:14.999Z</time></trkpt><trkpt lat="44.84780378286419" lon="7.2374843453302224"><ele>1048.8000000000002</ele><time>2026-04-07T09:09:15.999Z</time></trkpt><trkpt lat="44.84787220848632" lon="7.237356181319957"><ele>1051.4</ele><time>2026-04-07T09:09:16.999Z</time></trkpt><trkpt lat="44.84793942048108" lon="7.237254321330116"><ele>1054.0</ele><time>2026-04-07T09:09:17.999Z</time></trkpt><trkpt lat="44.848014378019506" lon="7.237182365417274"><ele>1054.0</ele><time>2026-04-07T09:09:18.999Z</time></trkpt><trkpt lat="44.848121857015734" lon="7.237153638731766"><ele>1054.0</ele><time>2026-04-07T09:09:19.999Z</time></trkpt><trkpt lat="44.84821515823883" lon="7.2371006940904055"><ele>1054.0</ele><time>2026-04-07T09:09:20.999Z</time></trkpt><trkpt lat="44.84832032992868" lon="7.237089277975904"><ele>1054.0</ele><time>2026-04-07T09:09:21.999Z</time></trkpt><trkpt lat="44.848404328076185" lon="7.2370550780608625"><ele>1054.0</ele><time>2026-04-07T09:09:22.999Z</time></trkpt><trkpt lat="44.84847070818305" lon="7.237012689711065"><ele>1057.8</ele><time>2026-04-07T09:09:23.999Z</time></trkpt><trkpt lat="44.848540069378316" lon="7.2369003901543145"><ele>1061.6000000000001</ele><time>2026-04-07T09:09:24.999Z</time></trkpt><trkpt lat="44.84857685206251" lon="7.236754333793729"><ele>1065.4</ele><time>2026-04-07T09:09:25.999Z</time></trkpt><trkpt lat="44.84861460306926" lon="7.236596144186341"><ele>1069.2</ele><time>2026-04-07T09:09:26.999Z</time></trkpt><trkpt lat="44.8486435011786" lon="7.23647214640803"><ele>1073.0</ele><time>2026-04-07T09:09:27.999Z</time></trkpt><trkpt lat="44.84866466803679" lon="7.2363511138246315"><ele>1073.0</ele><time>2026-04-07T09:09:28.999Z</time></trkpt><trkpt lat="44.84868611997872" lon="7.236233785545881"><ele>1073.0</ele><time>2026-04-07T09:09:29.999Z</time></trkpt><trkpt lat="44.84871496944661" lon="7.2361275015789355"><ele>1073.0</ele><time>2026-04-07T09:09:30.999Z</time></trkpt><trkpt lat="44.84875761845094" lon="7.2360160008765435"><ele>1073.0</ele><time>2026-04-07T09:09:32Z</time></trkpt><trkpt lat="44.848796272352665" lon="7.235905795111765"><ele>1073.0</ele><time>2026-04-07T09:09:33Z</time></trkpt><trkpt lat="44.84887718331829" lon="7.235807345670178"><ele>1073.0</ele><time>2026-04-07T09:09:34Z</time></trkpt><trkpt lat="44.8489702158803" lon="7.235722481238252"><ele>1073.0</ele><time>2026-04-07T09:09:35Z</time></trkpt><trkpt lat="44.84906013283053" lon="7.23564368609032"><ele>1073.0</ele><time>2026-04-07T09:09:36Z</time></trkpt><trkpt lat="44.84913220503925" lon="7.235575796723154"><ele>1073.0</ele><time>2026-04-07T09:09:37Z</time></trkpt><trkpt lat="44.849188242958405" lon="7.23550052724992"><ele>1073.0</ele><time>2026-04-07T09:09:38Z</time></trkpt><trkpt lat="44.84922087642513" lon="7.235393482104703"><ele>1073.4</ele><time>2026-04-07T09:09:39Z</time></trkpt><trkpt lat="44.84920018928103" lon="7.235234963126256"><ele>1073.8</ele><time>2026-04-07T09:09:40Z</time></trkpt><trkpt lat="44.849127162152264" lon="7.235115535135246"><ele>1074.2</ele><time>2026-04-07T09:09:41Z</time></trkpt><trkpt lat="44.84906190619901" lon="7.2350028655381395"><ele>1074.6</ele><time>2026-04-07T09:09:42Z</time></trkpt><trkpt lat="44.8490077114655" lon="7.234892293620888"><ele>1075.0</ele><time>2026-04-07T09:09:43Z</time></trkpt><trkpt lat="44.84898916609426" lon="7.23479025835111"><ele>1075.0</ele><time>2026-04-07T09:09:44Z</time></trkpt><trkpt lat="44.84899293661561" lon="7.234674361690886"><ele>1075.0</ele><time>2026-04-07T09:09:45Z</time></trkpt><trkpt lat="44.849019847846016" lon="7.2345431004468095"><ele>1075.0</ele><time>2026-04-07T09:09:46Z</time></trkpt><trkpt lat="44.84902638229047" lon="7.234391752427808"><ele>1075.0</ele><time>2026-04-07T09:09:47Z</time></trkpt><trkpt lat="44.84904710652428" lon="7.23422057830291"><ele>1075.0</ele><time>2026-04-07T09:09:48Z</time></trkpt><trkpt lat="44.849076671115924" lon="7.234054349307407"><ele>1073.8</ele><time>2026-04-07T09:09:49Z</time></trkpt><trkpt lat="44.84910671065317" lon="7.233907330655982"><ele>1072.6</ele><time>2026-04-07T09:09:50Z</time></trkpt><trkpt lat="44.849131029286134" lon="7.23375500821701"><ele>1071.4</ele><time>2026-04-07T09:09:51Z</time></trkpt><trkpt lat="44.849132474410716" lon="7.233597829459733"><ele>1070.2</ele><time>2026-04-07T09:09:52Z</time></trkpt><trkpt lat="44.84913677661814" lon="7.233442159579344"><ele>1069.0</ele><time>2026-04-07T09:09:53Z</time></trkpt><trkpt lat="44.849106532099526" lon="7.233303585693583"><ele>1069.0</ele><time>2026-04-07T09:09:54Z</time></trkpt><trkpt lat="44.84910935928435" lon="7.23317491874245"><ele>1069.0</ele><time>2026-04-07T09:09:55Z</time></trkpt><trkpt lat="44.84912237676811" lon="7.233022537098095"><ele>1069.0</ele><time>2026-04-07T09:09:56Z</time></trkpt><trkpt lat="44.849150294774184" lon="7.232861096238362"><ele>1069.0</ele><time>2026-04-07T09:09:57Z</time></trkpt><trkpt lat="44.849176123341174" lon="7.232690530996913"><ele>1069.0</ele><time>2026-04-07T09:09:58Z</time></trkpt><trkpt lat="44.8491789097346" lon="7.232537700486867"><ele>1068.4</ele><time>2026-04-07T09:09:59Z</time></trkpt><trkpt lat="44.84917508140968" lon="7.232395598513787"><ele>1067.8000000000002</ele><time>2026-04-07T09:10:00Z</time></trkpt><trkpt lat="44.84917633642608" lon="7.232260387504677"><ele>1067.1999999999998</ele><time>2026-04-07T09:10:01Z</time></trkpt><trkpt lat="44.8491863511865" lon="7.232130809228784"><ele>1066.6</ele><time>2026-04-07T09:10:02Z</time></trkpt><trkpt lat="44.849205291403564" lon="7.2319908641349215"><ele>1066.0</ele><time>2026-04-07T09:10:03Z</time></trkpt><trkpt lat="44.84925083222715" lon="7.23185360698901"><ele>1068.0</ele><time>2026-04-07T09:10:04Z</time></trkpt><trkpt lat="44.849320327954" lon="7.231730542157085"><ele>1070.0</ele><time>2026-04-07T09:10:05Z</time></trkpt><trkpt lat="44.84939404741739" lon="7.23163240339751"><ele>1072.0</ele><time>2026-04-07T09:10:06Z</time></trkpt><trkpt lat="44.84947221010612" lon="7.231558486335846"><ele>1074.0</ele><time>2026-04-07T09:10:07Z</time></trkpt><trkpt lat="44.849559400246235" lon="7.231516591296465"><ele>1076.0</ele><time>2026-04-07T09:10:08Z</time></trkpt><trkpt lat="44.84965654544539" lon="7.2314899234921866"><ele>1076.0</ele><time>2026-04-07T09:10:09Z</time></trkpt><trkpt lat="44.84975953205361" lon="7.231476342962459"><ele>1076.0</ele><time>2026-04-07T09:10:10Z</time></trkpt><trkpt lat="44.849870811792414" lon="7.231467769372249"><ele>1076.0</ele><time>2026-04-07T09:10:11Z</time></trkpt><trkpt lat="44.84997775195003" lon="7.231489987798117"><ele>1076.0</ele><time>2026-04-07T09:10:12Z</time></trkpt><trkpt lat="44.85007201957936" lon="7.23146296069186"><ele>1076.0</ele><time>2026-04-07T09:10:13Z</time></trkpt><trkpt lat="44.8501754139639" lon="7.2314637552462715"><ele>1075.5</ele><time>2026-04-07T09:10:14Z</time></trkpt><trkpt lat="44.85028025449653" lon="7.231472987592026"><ele>1075.0</ele><time>2026-04-07T09:10:15Z</time></trkpt><trkpt lat="44.85035263044577" lon="7.231485776053258"><ele>1074.5</ele><time>2026-04-07T09:10:16Z</time></trkpt><trkpt lat="44.85043047505801" lon="7.231500610810016"><ele>1074.0</ele><time>2026-04-07T09:10:18Z</time></trkpt><trkpt lat="44.85051375581806" lon="7.231570329244745"><ele>1073.5</ele><time>2026-04-07T09:10:22Z</time></trkpt><trkpt lat="44.85054455293311" lon="7.23168839405791"><ele>1073.0</ele><time>2026-04-07T09:10:24Z</time></trkpt><trkpt lat="44.85061066600407" lon="7.23182914239426"><ele>1073.0</ele><time>2026-04-07T09:10:26Z</time></trkpt><trkpt lat="44.85065281546344" lon="7.231911964730138"><ele>1073.0</ele><time>2026-04-07T09:10:27Z</time></trkpt><trkpt lat="44.850710362372624" lon="7.23198332718573"><ele>1073.0</ele><time>2026-04-07T09:10:28Z</time></trkpt><trkpt lat="44.85075714176324" lon="7.232064634720808"><ele>1073.0</ele><time>2026-04-07T09:10:29Z</time></trkpt><trkpt lat="44.850797605961425" lon="7.232151539846844"><ele>1073.0</ele><time>2026-04-07T09:10:30Z</time></trkpt><trkpt lat="44.850849688497945" lon="7.232223125150102"><ele>1073.0</ele><time>2026-04-07T09:10:31Z</time></trkpt><trkpt lat="44.850912062830226" lon="7.232301382985343"><ele>1077.8</ele><time>2026-04-07T09:10:32Z</time></trkpt><trkpt lat="44.85099541996077" lon="7.232393880207728"><ele>1082.6</ele><time>2026-04-07T09:10:33Z</time></trkpt><trkpt lat="44.85108455538397" lon="7.232466838867073"><ele>1087.4</ele><time>2026-04-07T09:10:34Z</time></trkpt><trkpt lat="44.8511611208195" lon="7.232566175212093"><ele>1092.2</ele><time>2026-04-07T09:10:35Z</time></trkpt><trkpt lat="44.85123569131124" lon="7.232648772127757"><ele>1097.0</ele><time>2026-04-07T09:10:36Z</time></trkpt><trkpt lat="44.85128758357084" lon="7.232736888549201"><ele>1097.0</ele><time>2026-04-07T09:10:37Z</time></trkpt><trkpt lat="44.851339206965235" lon="7.232867479254884"><ele>1097.0</ele><time>2026-04-07T09:10:39Z</time></trkpt><trkpt lat="44.851412569194494" lon="7.232938084901517"><ele>1097.0</ele><time>2026-04-07T09:10:40Z</time></trkpt><trkpt lat="44.851476173849825" lon="7.233045284405392"><ele>1097.0</ele><time>2026-04-07T09:10:40.999Z</time></trkpt><trkpt lat="44.85151764796495" lon="7.233121534298285"><ele>1097.0</ele><time>2026-04-07T09:10:41.999Z</time></trkpt><trkpt lat="44.85154139524145" lon="7.233221551918433"><ele>1097.0</ele><time>2026-04-07T09:10:42.999Z</time></trkpt><trkpt lat="44.8515754430061" lon="7.233346222415091"><ele>1100.2</ele><time>2026-04-07T09:10:43.999Z</time></trkpt><trkpt lat="44.85169412128607" lon="7.233423188280356"><ele>1103.4</ele><time>2026-04-07T09:10:45.999Z</time></trkpt><trkpt lat="44.851750303129265" lon="7.233373629337081"><ele>1106.6</ele><time>2026-04-07T09:10:47.999Z</time></trkpt><trkpt lat="44.85187877461207" lon="7.233363797487408"><ele>1109.8</ele><time>2026-04-07T09:10:49.999Z</time></trkpt><trkpt lat="44.851961098080004" lon="7.23326474458948"><ele>1113.0</ele><time>2026-04-07T09:10:51.999Z</time></trkpt><trkpt lat="44.85201654712866" lon="7.233317182194618"><ele>1114.4</ele><time>2026-04-07T09:10:52.999Z</time></trkpt><trkpt lat="44.852081455675744" lon="7.233451168798552"><ele>1115.8</ele><time>2026-04-07T09:10:54.999Z</time></trkpt><trkpt lat="44.852109205716296" lon="7.23354299320816"><ele>1117.2</ele><time>2026-04-07T09:10:55.999Z</time></trkpt><trkpt lat="44.852214300678824" lon="7.233624792696174"><ele>1118.6</ele><time>2026-04-07T09:10:57.999Z</time></trkpt><trkpt lat="44.8523008663783" lon="7.233667035326505"><ele>1120.0</ele><time>2026-04-07T09:10:58.999Z</time></trkpt><trkpt lat="44.85237910174277" lon="7.23369209364728"><ele>1120.0</ele><time>2026-04-07T09:10:59.999Z</time></trkpt><trkpt lat="44.852448092360284" lon="7.233728906684159"><ele>1120.0</ele><time>2026-04-07T09:11:00.999Z</time></trkpt><trkpt lat="44.85251364866275" lon="7.2337636067221425"><ele>1120.0</ele><time>2026-04-07T09:11:01.999Z</time></trkpt><trkpt lat="44.85257288367967" lon="7.233802809216018"><ele>1120.0</ele><time>2026-04-07T09:11:02.999Z</time></trkpt><trkpt lat="44.85263030207389" lon="7.233841969291457"><ele>1120.0</ele><time>2026-04-07T09:11:03.999Z</time></trkpt><trkpt lat="44.85272673749787" lon="7.2339348877272975"><ele>1120.0</ele><time>2026-04-07T09:11:05.999Z</time></trkpt><trkpt lat="44.85284166970829" lon="7.234057149476981"><ele>1123.3333333333333</ele><time>2026-04-07T09:11:07.999Z</time></trkpt><trkpt lat="44.85292312011327" lon="7.234107362720474"><ele>1126.6666666666665</ele><time>2026-04-07T09:11:08.999Z</time></trkpt><trkpt lat="44.85303873359418" lon="7.23410417586422"><ele>1130.0</ele><time>2026-04-07T09:11:10.999Z</time></trkpt><trkpt lat="44.85310064836087" lon="7.234173534855513"><ele>1133.3333333333333</ele><time>2026-04-07T09:11:12.999Z</time></trkpt><trkpt lat="44.853045238242665" lon="7.234253298103069"><ele>1136.6666666666667</ele><time>2026-04-07T09:11:14.999Z</time></trkpt><trkpt lat="44.85297919892207" lon="7.234317137241205"><ele>1140.0</ele><time>2026-04-07T09:11:15.999Z</time></trkpt><trkpt lat="44.85294109071426" lon="7.234481311044386"><ele>1140.0</ele><time>2026-04-07T09:11:17.999Z</time></trkpt><trkpt lat="44.85294593054304" lon="7.234585893823275"><ele>1140.0</ele><time>2026-04-07T09:11:18.999Z</time></trkpt><trkpt lat="44.85294937532594" lon="7.234699510586303"><ele>1140.0</ele><time>2026-04-07T09:11:19.999Z</time></trkpt><trkpt lat="44.852935412639" lon="7.23479256020242"><ele>1140.0</ele><time>2026-04-07T09:11:20.999Z</time></trkpt><trkpt lat="44.85293011042305" lon="7.234895191290606"><ele>1140.0</ele><time>2026-04-07T09:11:21.999Z</time></trkpt><trkpt lat="44.85292293463459" lon="7.234999707305628"><ele>1140.0</ele><time>2026-04-07T09:11:22.999Z</time></trkpt><trkpt lat="44.85292428433059" lon="7.235106043708306"><ele>1140.0</ele><time>2026-04-07T09:11:23.999Z</time></trkpt><trkpt lat="44.85290983783182" lon="7.235206380785422"><ele>1141.6666666666667</ele><time>2026-04-07T09:11:24.999Z</time></trkpt><trkpt lat="44.85288493914772" lon="7.235293144745327"><ele>1143.3333333333333</ele><time>2026-04-07T09:11:25.999Z</time></trkpt><trkpt lat="44.852868452800266" lon="7.235385666668025"><ele>1145.0</ele><time>2026-04-07T09:11:26.999Z</time></trkpt><trkpt lat="44.852845007609204" lon="7.235576677421149"><ele>1146.6666666666665</ele><time>2026-04-07T09:11:28.999Z</time></trkpt><trkpt lat="44.85283912579157" lon="7.235680550786631"><ele>1148.3333333333333</ele><time>2026-04-07T09:11:29.999Z</time></trkpt><trkpt lat="44.852813752320294" lon="7.235781106019908"><ele>1150.0</ele><time>2026-04-07T09:11:30.999Z</time></trkpt><trkpt lat="44.852798148219534" lon="7.2359011971640745"><ele>1152.0</ele><time>2026-04-07T09:11:31.999Z</time></trkpt><trkpt lat="44.85278227870553" lon="7.2360240064089725"><ele>1154.0</ele><time>2026-04-07T09:11:32.999Z</time></trkpt><trkpt lat="44.85277573030648" lon="7.236133940092409"><ele>1156.0</ele><time>2026-04-07T09:11:33.999Z</time></trkpt><trkpt lat="44.85280031269184" lon="7.23622204864103"><ele>1158.0</ele><time>2026-04-07T09:11:34.999Z</time></trkpt><trkpt lat="44.852874318106124" lon="7.236315509978795"><ele>1160.0</ele><time>2026-04-07T09:11:36.999Z</time></trkpt><trkpt lat="44.852938086176664" lon="7.236315079101657"><ele>1162.0</ele><time>2026-04-07T09:11:38Z</time></trkpt><trkpt lat="44.853004335472974" lon="7.236294055979813"><ele>1162.0</ele><time>2026-04-07T09:11:39Z</time></trkpt><trkpt lat="44.85308734805264" lon="7.236278785117559"><ele>1162.0</ele><time>2026-04-07T09:11:40Z</time></trkpt><trkpt lat="44.85316589203709" lon="7.236277120362356"><ele>1162.0</ele><time>2026-04-07T09:11:41Z</time></trkpt><trkpt lat="44.85324977834899" lon="7.236273401578133"><ele>1162.0</ele><time>2026-04-07T09:11:42Z</time></trkpt><trkpt lat="44.85338234844973" lon="7.236273155535735"><ele>1162.0</ele><time>2026-04-07T09:11:43Z</time></trkpt><trkpt lat="44.853466374905864" lon="7.236256058502846"><ele>1163.6666666666665</ele><time>2026-04-07T09:11:44Z</time></trkpt><trkpt lat="44.853539146502435" lon="7.236248527509343"><ele>1165.3333333333333</ele><time>2026-04-07T09:11:45Z</time></trkpt><trkpt lat="44.853619645876584" lon="7.236237149676398"><ele>1167.0</ele><time>2026-04-07T09:11:46Z</time></trkpt><trkpt lat="44.8536947245879" lon="7.23622704281708"><ele>1168.6666666666667</ele><time>2026-04-07T09:11:47Z</time></trkpt><trkpt lat="44.85378335076891" lon="7.236200735063577"><ele>1170.3333333333335</ele><time>2026-04-07T09:11:48Z</time></trkpt><trkpt lat="44.85387089022266" lon="7.236155121125948"><ele>1172.0</ele><time>2026-04-07T09:11:49Z</time></trkpt><trkpt lat="44.853947319371265" lon="7.236100137967998"><ele>1172.0</ele><time>2026-04-07T09:11:50Z</time></trkpt><trkpt lat="44.85401468215158" lon="7.236046823284528"><ele>1172.0</ele><time>2026-04-07T09:11:51Z</time></trkpt><trkpt lat="44.854087145898966" lon="7.23599459051457"><ele>1172.0</ele><time>2026-04-07T09:11:52Z</time></trkpt><trkpt lat="44.85415000443168" lon="7.235958610191106"><ele>1172.0</ele><time>2026-04-07T09:11:53Z</time></trkpt><trkpt lat="44.85422568153426" lon="7.235930056305559"><ele>1172.0</ele><time>2026-04-07T09:11:54Z</time></trkpt><trkpt lat="44.85429958212603" lon="7.235894107285002"><ele>1172.0</ele><time>2026-04-07T09:11:55Z</time></trkpt><trkpt lat="44.854372861901815" lon="7.235842035521437"><ele>1171.8</ele><time>2026-04-07T09:11:56Z</time></trkpt><trkpt lat="44.85450185106864" lon="7.2357448001792335"><ele>1171.6</ele><time>2026-04-07T09:11:58Z</time></trkpt><trkpt lat="44.854590290996335" lon="7.235672506983598"><ele>1171.3999999999999</ele><time>2026-04-07T09:11:59Z</time></trkpt><trkpt lat="44.85466344982161" lon="7.235608456510339"><ele>1171.2</ele><time>2026-04-07T09:12:00Z</time></trkpt><trkpt lat="44.8547315940451" lon="7.235543666697573"><ele>1171.0</ele><time>2026-04-07T09:12:01Z</time></trkpt><trkpt lat="44.8548171552775" lon="7.235491764657249"><ele>1171.6666666666665</ele><time>2026-04-07T09:12:02Z</time></trkpt><trkpt lat="44.854868879184416" lon="7.235411700892515"><ele>1172.3333333333333</ele><time>2026-04-07T09:12:03Z</time></trkpt><trkpt lat="44.85493052535093" lon="7.235343443888663"><ele>1173.0</ele><time>2026-04-07T09:12:04Z</time></trkpt><trkpt lat="44.854996724381415" lon="7.235299904684118"><ele>1173.6666666666667</ele><time>2026-04-07T09:12:05Z</time></trkpt><trkpt lat="44.85511341965096" lon="7.235258431285684"><ele>1174.3333333333335</ele><time>2026-04-07T09:12:07Z</time></trkpt><trkpt lat="44.85518413518023" lon="7.235237260396442"><ele>1175.0</ele><time>2026-04-07T09:12:08Z</time></trkpt><trkpt lat="44.85526951738968" lon="7.235218249933892"><ele>1177.0</ele><time>2026-04-07T09:12:09Z</time></trkpt><trkpt lat="44.85536660464101" lon="7.235168087638166"><ele>1179.0</ele><time>2026-04-07T09:12:10Z</time></trkpt><trkpt lat="44.85547236040844" lon="7.235137476245374"><ele>1181.0</ele><time>2026-04-07T09:12:11Z</time></trkpt><trkpt lat="44.85560974605696" lon="7.235126258694955"><ele>1183.0</ele><time>2026-04-07T09:12:12Z</time></trkpt><trkpt lat="44.85572926290866" lon="7.235120299710149"><ele>1183.0</ele><time>2026-04-07T09:12:13Z</time></trkpt><trkpt lat="44.855853300777305" lon="7.2350809484436045"><ele>1183.0</ele><time>2026-04-07T09:12:14Z</time></trkpt><trkpt lat="44.85596450329126" lon="7.235040744013801"><ele>1183.0</ele><time>2026-04-07T09:12:15Z</time></trkpt><trkpt lat="44.85606380105211" lon="7.235003872766415"><ele>1183.0</ele><time>2026-04-07T09:12:16Z</time></trkpt><trkpt lat="44.85616111115989" lon="7.234964225868176"><ele>1183.0</ele><time>2026-04-07T09:12:17Z</time></trkpt><trkpt lat="44.856255950328816" lon="7.234926813708836"><ele>1183.5</ele><time>2026-04-07T09:12:18Z</time></trkpt><trkpt lat="44.856329189162295" lon="7.234887502548948"><ele>1184.0</ele><time>2026-04-07T09:12:19Z</time></trkpt><trkpt lat="44.856377925079926" lon="7.234807322248252"><ele>1184.5</ele><time>2026-04-07T09:12:20Z</time></trkpt><trkpt lat="44.856438211774766" lon="7.234741611422557"><ele>1185.0</ele><time>2026-04-07T09:12:21Z</time></trkpt><trkpt lat="44.85654533950069" lon="7.234625689499219"><ele>1185.5</ele><time>2026-04-07T09:12:23Z</time></trkpt><trkpt lat="44.85661037927811" lon="7.234578910218037"><ele>1186.0</ele><time>2026-04-07T09:12:24Z</time></trkpt><trkpt lat="44.85669705503239" lon="7.234501675865356"><ele>1186.2</ele><time>2026-04-07T09:12:25Z</time></trkpt><trkpt lat="44.856774549918654" lon="7.234400963463786"><ele>1186.3999999999999</ele><time>2026-04-07T09:12:26Z</time></trkpt><trkpt lat="44.85685950261703" lon="7.234342505408647"><ele>1186.6</ele><time>2026-04-07T09:12:27Z</time></trkpt><trkpt lat="44.856940781717796" lon="7.234252210148999"><ele>1186.8</ele><time>2026-04-07T09:12:28Z</time></trkpt><trkpt lat="44.857013983994385" lon="7.2341581128060355"><ele>1187.0</ele><time>2026-04-07T09:12:29Z</time></trkpt><trkpt lat="44.857088155002195" lon="7.234047021955872"><ele>1191.5</ele><time>2026-04-07T09:12:30Z</time></trkpt><trkpt lat="44.85713426434808" lon="7.233930622201705"><ele>1196.0</ele><time>2026-04-07T09:12:31Z</time></trkpt><trkpt lat="44.8571864694668" lon="7.233838966679384"><ele>1200.5</ele><time>2026-04-07T09:12:32Z</time></trkpt><trkpt lat="44.85723379566626" lon="7.233736160240502"><ele>1205.0</ele><time>2026-04-07T09:12:33Z</time></trkpt><trkpt lat="44.85728817429876" lon="7.2336384274871985"><ele>1209.5</ele><time>2026-04-07T09:12:34Z</time></trkpt><trkpt lat="44.857327923127514" lon="7.233529842498698"><ele>1214.0</ele><time>2026-04-07T09:12:35Z</time></trkpt><trkpt lat="44.85738306022484" lon="7.23345030272861"><ele>1214.0</ele><time>2026-04-07T09:12:36Z</time></trkpt><trkpt lat="44.8574237478309" lon="7.233377766075671"><ele>1214.0</ele><time>2026-04-07T09:12:37Z</time></trkpt><trkpt lat="44.85746899331646" lon="7.233306320043009"><ele>1214.0</ele><time>2026-04-07T09:12:38Z</time></trkpt><trkpt lat="44.85750505763912" lon="7.233226239268149"><ele>1214.0</ele><time>2026-04-07T09:12:39Z</time></trkpt><trkpt lat="44.857596450091215" lon="7.233173142449903"><ele>1214.0</ele><time>2026-04-07T09:12:40Z</time></trkpt><trkpt lat="44.85765098946834" lon="7.2330880010843295"><ele>1214.0</ele><time>2026-04-07T09:12:41Z</time></trkpt><trkpt lat="44.857707343125114" lon="7.232963285307177"><ele>1219.5</ele><time>2026-04-07T09:12:43Z</time></trkpt><trkpt lat="44.857791135079474" lon="7.232832080063994"><ele>1225.0</ele><time>2026-04-07T09:12:45Z</time></trkpt><trkpt lat="44.85784282662978" lon="7.232758770990548"><ele>1230.5</ele><time>2026-04-07T09:12:46Z</time></trkpt><trkpt lat="44.85793660874909" lon="7.232641042324789"><ele>1236.0</ele><time>2026-04-07T09:12:47.999Z</time></trkpt><trkpt lat="44.85803901189241" lon="7.232511366101222"><ele>1236.0</ele><time>2026-04-07T09:12:49.999Z</time></trkpt><trkpt lat="44.85809247775592" lon="7.23241140322856"><ele>1236.0</ele><time>2026-04-07T09:12:50.999Z</time></trkpt><trkpt lat="44.85814744477701" lon="7.232362477054159"><ele>1236.0</ele><time>2026-04-07T09:12:51.999Z</time></trkpt><trkpt lat="44.85820725741408" lon="7.232291400061144"><ele>1236.0</ele><time>2026-04-07T09:12:52.999Z</time></trkpt><trkpt lat="44.858267660137095" lon="7.232143947817542"><ele>1236.0</ele><time>2026-04-07T09:12:54.999Z</time></trkpt><trkpt lat="44.858302615119456" lon="7.231962706378182"><ele>1236.5</ele><time>2026-04-07T09:12:56.999Z</time></trkpt><trkpt lat="44.85831607347315" lon="7.231868027570709"><ele>1237.0</ele><time>2026-04-07T09:12:57.999Z</time></trkpt><trkpt lat="44.85831689374752" lon="7.231777209183764"><ele>1237.5</ele><time>2026-04-07T09:12:58.999Z</time></trkpt><trkpt lat="44.85835986770867" lon="7.2316812651746005"><ele>1238.0</ele><time>2026-04-07T09:12:59.999Z</time></trkpt><trkpt lat="44.8583874644987" lon="7.231579248762514"><ele>1238.5</ele><time>2026-04-07T09:13:00.999Z</time></trkpt><trkpt lat="44.85843001111655" lon="7.231460860977168"><ele>1239.0</ele><time>2026-04-07T09:13:01.999Z</time></trkpt><trkpt lat="44.858476925051036" lon="7.2313543877374595"><ele>1242.0</ele><time>2026-04-07T09:13:02.999Z</time></trkpt><trkpt lat="44.8585374246744" lon="7.231245943724307"><ele>1245.0</ele><time>2026-04-07T09:13:03.999Z</time></trkpt><trkpt lat="44.858600800648034" lon="7.231166986979114"><ele>1248.0</ele><time>2026-04-07T09:13:04.999Z</time></trkpt><trkpt lat="44.85864330738967" lon="7.231071519286845"><ele>1251.0</ele><time>2026-04-07T09:13:05.999Z</time></trkpt><trkpt lat="44.85870266033264" lon="7.231020119114968"><ele>1254.0</ele><time>2026-04-07T09:13:06.999Z</time></trkpt><trkpt lat="44.858759245791695" lon="7.2309625962985145"><ele>1257.0</ele><time>2026-04-07T09:13:07.999Z</time></trkpt><trkpt lat="44.85886875698783" lon="7.230861337760832"><ele>1257.0</ele><time>2026-04-07T09:13:09.999Z</time></trkpt><trkpt lat="44.85893239505231" lon="7.230806643609244"><ele>1257.0</ele><time>2026-04-07T09:13:10.999Z</time></trkpt><trkpt lat="44.85900187936839" lon="7.230748660953416"><ele>1257.0</ele><time>2026-04-07T09:13:11.999Z</time></trkpt><trkpt lat="44.85906208617743" lon="7.230699303457404"><ele>1257.0</ele><time>2026-04-07T09:13:12.999Z</time></trkpt><trkpt lat="44.85912902429487" lon="7.230643526595338"><ele>1257.0</ele><time>2026-04-07T09:13:13.999Z</time></trkpt><trkpt lat="44.8591958157451" lon="7.230587229990664"><ele>1257.0</ele><time>2026-04-07T09:13:14.999Z</time></trkpt><trkpt lat="44.85926276573981" lon="7.230530799761068"><ele>1258.3333333333333</ele><time>2026-04-07T09:13:15.999Z</time></trkpt><trkpt lat="44.85932266348342" lon="7.230437111474644"><ele>1259.6666666666667</ele><time>2026-04-07T09:13:16.999Z</time></trkpt><trkpt lat="44.85938768278286" lon="7.230392687244103"><ele>1261.0</ele><time>2026-04-07T09:13:17.999Z</time></trkpt><trkpt lat="44.85945283239475" lon="7.230373040234917"><ele>1262.3333333333335</ele><time>2026-04-07T09:13:18.999Z</time></trkpt><trkpt lat="44.8595214703235" lon="7.23032247682457"><ele>1263.6666666666667</ele><time>2026-04-07T09:13:19.999Z</time></trkpt><trkpt lat="44.859609492521955" lon="7.23025544563728"><ele>1265.0</ele><time>2026-04-07T09:13:20.999Z</time></trkpt><trkpt lat="44.85968991682605" lon="7.230209642433084"><ele>1265.0</ele><time>2026-04-07T09:13:21.999Z</time></trkpt><trkpt lat="44.859763586117076" lon="7.2301551187208215"><ele>1265.0</ele><time>2026-04-07T09:13:22.999Z</time></trkpt><trkpt lat="44.85983809742748" lon="7.230087297443741"><ele>1265.0</ele><time>2026-04-07T09:13:23.999Z</time></trkpt><trkpt lat="44.85991327326179" lon="7.230017536589721"><ele>1265.0</ele><time>2026-04-07T09:13:24.999Z</time></trkpt><trkpt lat="44.85997388547936" lon="7.229945272960162"><ele>1265.0</ele><time>2026-04-07T09:13:25.999Z</time></trkpt><trkpt lat="44.86004875471286" lon="7.2298548519309875"><ele>1265.0</ele><time>2026-04-07T09:13:26.999Z</time></trkpt><trkpt lat="44.86011267909951" lon="7.22975685859137"><ele>1268.6666666666667</ele><time>2026-04-07T09:13:27.999Z</time></trkpt><trkpt lat="44.8601626986256" lon="7.22965873953834"><ele>1272.3333333333335</ele><time>2026-04-07T09:13:28.999Z</time></trkpt><trkpt lat="44.86020834777212" lon="7.229567477101795"><ele>1276.0</ele><time>2026-04-07T09:13:29.999Z</time></trkpt><trkpt lat="44.860268143003665" lon="7.229495541183488"><ele>1279.6666666666667</ele><time>2026-04-07T09:13:30.999Z</time></trkpt><trkpt lat="44.86031311942639" lon="7.229405013910401"><ele>1283.3333333333333</ele><time>2026-04-07T09:13:31.999Z</time></trkpt><trkpt lat="44.86036533449435" lon="7.229345465177278"><ele>1287.0</ele><time>2026-04-07T09:13:32.999Z</time></trkpt><trkpt lat="44.86043081954694" lon="7.229281981299251"><ele>1287.0</ele><time>2026-04-07T09:13:33.999Z</time></trkpt><trkpt lat="44.860484700755244" lon="7.229212082821665"><ele>1287.0</ele><time>2026-04-07T09:13:34.999Z</time></trkpt><trkpt lat="44.860543688266816" lon="7.2291353763669255"><ele>1287.0</ele><time>2026-04-07T09:13:35.999Z</time></trkpt><trkpt lat="44.860571761825646" lon="7.229048865093972"><ele>1287.0</ele><time>2026-04-07T09:13:36.999Z</time></trkpt><trkpt lat="44.86064059398371" lon="7.228997516072395"><ele>1287.0</ele><time>2026-04-07T09:13:37.999Z</time></trkpt><trkpt lat="44.860700957074165" lon="7.228934656105209"><ele>1287.0</ele><time>2026-04-07T09:13:38.999Z</time></trkpt><trkpt lat="44.86075558757197" lon="7.228877765940804"><ele>1287.0</ele><time>2026-04-07T09:13:39.999Z</time></trkpt><trkpt lat="44.86082664441849" lon="7.228809985032473"><ele>1285.5</ele><time>2026-04-07T09:13:40.999Z</time></trkpt><trkpt lat="44.860891599842816" lon="7.228751960607611"><ele>1284.0</ele><time>2026-04-07T09:13:41.999Z</time></trkpt><trkpt lat="44.86095879591772" lon="7.228694978107167"><ele>1282.5</ele><time>2026-04-07T09:13:42.999Z</time></trkpt><trkpt lat="44.861020645769585" lon="7.228644541841505"><ele>1281.0</ele><time>2026-04-07T09:13:44Z</time></trkpt><trkpt lat="44.861097305787965" lon="7.228587904710547"><ele>1279.5</ele><time>2026-04-07T09:13:45Z</time></trkpt><trkpt lat="44.86117272421911" lon="7.228514906479541"><ele>1278.0</ele><time>2026-04-07T09:13:46Z</time></trkpt><trkpt lat="44.86125157716765" lon="7.22847792822808"><ele>1278.8333333333333</ele><time>2026-04-07T09:13:47Z</time></trkpt><trkpt lat="44.86131624408464" lon="7.228429749983797"><ele>1279.6666666666667</ele><time>2026-04-07T09:13:48Z</time></trkpt><trkpt lat="44.86137144079334" lon="7.2283744483230405"><ele>1280.5</ele><time>2026-04-07T09:13:49Z</time></trkpt><trkpt lat="44.86143568671105" lon="7.228334512663026"><ele>1281.3333333333335</ele><time>2026-04-07T09:13:50Z</time></trkpt><trkpt lat="44.86149812155009" lon="7.228290543834835"><ele>1282.1666666666667</ele><time>2026-04-07T09:13:51Z</time></trkpt><trkpt lat="44.86161003936342" lon="7.228226993948284"><ele>1283.0</ele><time>2026-04-07T09:13:53Z</time></trkpt><trkpt lat="44.86169392504329" lon="7.228140395625532"><ele>1283.0</ele><time>2026-04-07T09:13:55Z</time></trkpt><trkpt lat="44.86174015683052" lon="7.228060563438957"><ele>1283.0</ele><time>2026-04-07T09:13:56Z</time></trkpt><trkpt lat="44.86182543648994" lon="7.227932474230867"><ele>1283.0</ele><time>2026-04-07T09:13:58Z</time></trkpt><trkpt lat="44.86187994323712" lon="7.2278586278388435"><ele>1283.0</ele><time>2026-04-07T09:13:59Z</time></trkpt><trkpt lat="44.861942256421955" lon="7.227772022323689"><ele>1283.0</ele><time>2026-04-07T09:14:00Z</time></trkpt><trkpt lat="44.86201314629188" lon="7.2276906092166024"><ele>1284.0</ele><time>2026-04-07T09:14:01Z</time></trkpt><trkpt lat="44.86206806318798" lon="7.227618442182743"><ele>1285.0</ele><time>2026-04-07T09:14:02Z</time></trkpt><trkpt lat="44.86211726920465" lon="7.227544457166545"><ele>1286.0</ele><time>2026-04-07T09:14:03Z</time></trkpt><trkpt lat="44.862170756465645" lon="7.227460693041424"><ele>1287.0</ele><time>2026-04-07T09:14:04Z</time></trkpt><trkpt lat="44.862237712311035" lon="7.227379435831265"><ele>1288.0</ele><time>2026-04-07T09:14:05Z</time></trkpt><trkpt lat="44.862302606276415" lon="7.2273201306278425"><ele>1289.0</ele><time>2026-04-07T09:14:06Z</time></trkpt><trkpt lat="44.8623683069298" lon="7.227283143491738"><ele>1289.0</ele><time>2026-04-07T09:14:07Z</time></trkpt><trkpt lat="44.86242683662375" lon="7.2272258884789995"><ele>1289.0</ele><time>2026-04-07T09:14:08Z</time></trkpt><trkpt lat="44.86248260805286" lon="7.227173160211058"><ele>1289.0</ele><time>2026-04-07T09:14:09Z</time></trkpt><trkpt lat="44.862580935307" lon="7.2271150931582"><ele>1289.0</ele><time>2026-04-07T09:14:11Z</time></trkpt><trkpt lat="44.86264359374891" lon="7.227052535229858"><ele>1289.0</ele><time>2026-04-07T09:14:13Z</time></trkpt><trkpt lat="44.862711414103444" lon="7.2270067372324425"><ele>1289.0</ele><time>2026-04-07T09:14:15Z</time></trkpt><trkpt lat="44.86279491164288" lon="7.226993855853348"><ele>1293.0</ele><time>2026-04-07T09:14:17Z</time></trkpt><trkpt lat="44.86285478011544" lon="7.226901708998493"><ele>1297.0</ele><time>2026-04-07T09:14:19Z</time></trkpt><trkpt lat="44.862929490228936" lon="7.2268696999453965"><ele>1301.0</ele><time>2026-04-07T09:14:21Z</time></trkpt><trkpt lat="44.86303987452922" lon="7.226810871720813"><ele>1305.0</ele><time>2026-04-07T09:14:23Z</time></trkpt><trkpt lat="44.86310420660118" lon="7.226801795393569"><ele>1309.0</ele><time>2026-04-07T09:14:24Z</time></trkpt><trkpt lat="44.86318291012789" lon="7.226901919022785"><ele>1309.0</ele><time>2026-04-07T09:14:25Z</time></trkpt><trkpt lat="44.86329372182393" lon="7.226868262229474"><ele>1309.0</ele><time>2026-04-07T09:14:27Z</time></trkpt><trkpt lat="44.86336222056337" lon="7.226846461890253"><ele>1309.0</ele><time>2026-04-07T09:14:28Z</time></trkpt><trkpt lat="44.863466618368726" lon="7.226806895559045"><ele>1309.0</ele><time>2026-04-07T09:14:30Z</time></trkpt><trkpt lat="44.86355938994406" lon="7.226675532387081"><ele>1309.0</ele><time>2026-04-07T09:14:32Z</time></trkpt><trkpt lat="44.863595666606486" lon="7.226582235210183"><ele>1308.8333333333333</ele><time>2026-04-07T09:14:33Z</time></trkpt><trkpt lat="44.863625236360136" lon="7.226478952099855"><ele>1308.6666666666665</ele><time>2026-04-07T09:14:34Z</time></trkpt><trkpt lat="44.86365268232745" lon="7.226373114660229"><ele>1308.5</ele><time>2026-04-07T09:14:35Z</time></trkpt><trkpt lat="44.86368221980221" lon="7.226249454252982"><ele>1308.3333333333333</ele><time>2026-04-07T09:14:37Z</time></trkpt><trkpt lat="44.86371533690485" lon="7.226172036862534"><ele>1308.1666666666667</ele><time>2026-04-07T09:14:38Z</time></trkpt><trkpt lat="44.8637955269153" lon="7.226042099814173"><ele>1308.0</ele><time>2026-04-07T09:14:40Z</time></trkpt><trkpt lat="44.86384439455815" lon="7.225967116590424"><ele>1308.0</ele><time>2026-04-07T09:14:41Z</time></trkpt><trkpt lat="44.863859818550445" lon="7.225878686679101"><ele>1308.0</ele><time>2026-04-07T09:14:42Z</time></trkpt><trkpt lat="44.86387895242578" lon="7.225789960188783"><ele>1308.0</ele><time>2026-04-07T09:14:43Z</time></trkpt><trkpt lat="44.86390856114991" lon="7.22569982451158"><ele>1308.0</ele><time>2026-04-07T09:14:44Z</time></trkpt><trkpt lat="44.863978635517576" lon="7.2255484995907775"><ele>1308.0</ele><time>2026-04-07T09:14:46Z</time></trkpt><trkpt lat="44.86403118762032" lon="7.22540820799645"><ele>1308.0</ele><time>2026-04-07T09:14:48Z</time></trkpt><trkpt lat="44.86406186104765" lon="7.225326323111891"><ele>1307.6666666666667</ele><time>2026-04-07T09:14:49Z</time></trkpt><trkpt lat="44.86409690071632" lon="7.225233974360839"><ele>1307.3333333333333</ele><time>2026-04-07T09:14:50Z</time></trkpt><trkpt lat="44.864133357042796" lon="7.225138823709452"><ele>1307.0</ele><time>2026-04-07T09:14:51Z</time></trkpt><trkpt lat="44.86417030339478" lon="7.225023017493174"><ele>1306.6666666666665</ele><time>2026-04-07T09:14:52Z</time></trkpt><trkpt lat="44.86421005532256" lon="7.22492452386478"><ele>1306.3333333333333</ele><time>2026-04-07T09:14:53Z</time></trkpt><trkpt lat="44.86425091270314" lon="7.224831434018177"><ele>1306.0</ele><time>2026-04-07T09:14:53.999Z</time></trkpt><trkpt lat="44.86428549767405" lon="7.224747267491606"><ele>1304.3333333333333</ele><time>2026-04-07T09:14:54.999Z</time></trkpt><trkpt lat="44.864336237456975" lon="7.224645497313452"><ele>1302.6666666666665</ele><time>2026-04-07T09:14:55.999Z</time></trkpt><trkpt lat="44.86438611049336" lon="7.224540008220937"><ele>1301.0</ele><time>2026-04-07T09:14:56.999Z</time></trkpt><trkpt lat="44.86443778960483" lon="7.224452034918615"><ele>1299.3333333333333</ele><time>2026-04-07T09:14:57.999Z</time></trkpt><trkpt lat="44.86448543302385" lon="7.224347538276581"><ele>1297.6666666666667</ele><time>2026-04-07T09:14:58.999Z</time></trkpt><trkpt lat="44.864517801701005" lon="7.224257984758964"><ele>1296.0</ele><time>2026-04-07T09:14:59.999Z</time></trkpt><trkpt lat="44.864552144277994" lon="7.224156796010559"><ele>1296.0</ele><time>2026-04-07T09:15:00.999Z</time></trkpt><trkpt lat="44.86460423482048" lon="7.224077261887105"><ele>1296.0</ele><time>2026-04-07T09:15:01.999Z</time></trkpt><trkpt lat="44.864642920120005" lon="7.223995693079129"><ele>1296.0</ele><time>2026-04-07T09:15:02.999Z</time></trkpt><trkpt lat="44.864713975002566" lon="7.223846962976873"><ele>1296.0</ele><time>2026-04-07T09:15:04.999Z</time></trkpt><trkpt lat="44.86476409385477" lon="7.223703354553995"><ele>1296.0</ele><time>2026-04-07T09:15:06.999Z</time></trkpt><trkpt lat="44.86482851492444" lon="7.223590877265654"><ele>1299.0</ele><time>2026-04-07T09:15:08.999Z</time></trkpt><trkpt lat="44.86489339843258" lon="7.223470525329386"><ele>1302.0</ele><time>2026-04-07T09:15:10.999Z</time></trkpt><trkpt lat="44.86494157099867" lon="7.223356626063684"><ele>1305.0</ele><time>2026-04-07T09:15:11.999Z</time></trkpt><trkpt lat="44.86498742935682" lon="7.223243262990029"><ele>1308.0</ele><time>2026-04-07T09:15:12.999Z</time></trkpt><trkpt lat="44.865031417094336" lon="7.223129548355776"><ele>1311.0</ele><time>2026-04-07T09:15:13.999Z</time></trkpt><trkpt lat="44.86506670524246" lon="7.223037468114019"><ele>1309.8</ele><time>2026-04-07T09:15:14.999Z</time></trkpt><trkpt lat="44.86512507383704" lon="7.22288516213901"><ele>1308.6</ele><time>2026-04-07T09:15:16.999Z</time></trkpt><trkpt lat="44.86517995833642" lon="7.222741947515741"><ele>1307.4</ele><time>2026-04-07T09:15:18.999Z</time></trkpt><trkpt lat="44.86521538760057" lon="7.222649892509914"><ele>1306.2</ele><time>2026-04-07T09:15:19.999Z</time></trkpt><trkpt lat="44.86525671203259" lon="7.222543169402038"><ele>1305.0</ele><time>2026-04-07T09:15:20.999Z</time></trkpt><trkpt lat="44.86530060893605" lon="7.222429372740427"><ele>1305.0</ele><time>2026-04-07T09:15:21.999Z</time></trkpt><trkpt lat="44.86534391421033" lon="7.222317109903132"><ele>1305.0</ele><time>2026-04-07T09:15:22.999Z</time></trkpt><trkpt lat="44.86538814457509" lon="7.222203560655436"><ele>1305.0</ele><time>2026-04-07T09:15:23.999Z</time></trkpt><trkpt lat="44.86542658416923" lon="7.222108662075295"><ele>1305.0</ele><time>2026-04-07T09:15:24.999Z</time></trkpt><trkpt lat="44.86546449948722" lon="7.222015057832307"><ele>1305.0</ele><time>2026-04-07T09:15:25.999Z</time></trkpt><trkpt lat="44.86550837839295" lon="7.2219069245340775"><ele>1305.0</ele><time>2026-04-07T09:15:26.999Z</time></trkpt><trkpt lat="44.865551196633696" lon="7.22181994679348"><ele>1307.1666666666667</ele><time>2026-04-07T09:15:27.999Z</time></trkpt><trkpt lat="44.86559570513178" lon="7.221723169209508"><ele>1309.3333333333333</ele><time>2026-04-07T09:15:28.999Z</time></trkpt><trkpt lat="44.8656368908206" lon="7.221610713331976"><ele>1311.5</ele><time>2026-04-07T09:15:29.999Z</time></trkpt><trkpt lat="44.86567551309339" lon="7.221502901518057"><ele>1313.6666666666665</ele><time>2026-04-07T09:15:30.999Z</time></trkpt><trkpt lat="44.86570438989483" lon="7.221417258035981"><ele>1315.8333333333333</ele><time>2026-04-07T09:15:31.999Z</time></trkpt><trkpt lat="44.86573684086886" lon="7.22132392823653"><ele>1318.0</ele><time>2026-04-07T09:15:32.999Z</time></trkpt><trkpt lat="44.86577530400115" lon="7.221208759441612"><ele>1318.0</ele><time>2026-04-07T09:15:33.999Z</time></trkpt><trkpt lat="44.86579132172127" lon="7.221094832569989"><ele>1318.0</ele><time>2026-04-07T09:15:34.999Z</time></trkpt><trkpt lat="44.86581430855663" lon="7.220997512961779"><ele>1318.0</ele><time>2026-04-07T09:15:35.999Z</time></trkpt><trkpt lat="44.86583730892637" lon="7.220845263898716"><ele>1318.0</ele><time>2026-04-07T09:15:37.999Z</time></trkpt><trkpt lat="44.86588372125564" lon="7.22071679395661"><ele>1318.0</ele><time>2026-04-07T09:15:39.999Z</time></trkpt><trkpt lat="44.86594611261028" lon="7.220606262825753"><ele>1319.0</ele><time>2026-04-07T09:15:42.999Z</time></trkpt><trkpt lat="44.86606235167841" lon="7.220558286293415"><ele>1320.0</ele><time>2026-04-07T09:15:44.999Z</time></trkpt><trkpt lat="44.86613433300818" lon="7.220510133956189"><ele>1321.0</ele><time>2026-04-07T09:15:45.999Z</time></trkpt><trkpt lat="44.866196928360694" lon="7.220455060353723"><ele>1322.0</ele><time>2026-04-07T09:15:46.999Z</time></trkpt><trkpt lat="44.866255895302466" lon="7.22040217735089"><ele>1323.0</ele><time>2026-04-07T09:15:47.999Z</time></trkpt><trkpt lat="44.86631661493163" lon="7.2203486413885765"><ele>1324.0</ele><time>2026-04-07T09:15:48.999Z</time></trkpt><trkpt lat="44.866389529515345" lon="7.220269692354468"><ele>1324.0</ele><time>2026-04-07T09:15:50Z</time></trkpt><trkpt lat="44.86647182584389" lon="7.220217618587039"><ele>1324.0</ele><time>2026-04-07T09:15:51Z</time></trkpt><trkpt lat="44.86658741066334" lon="7.220112612141618"><ele>1324.0</ele><time>2026-04-07T09:15:53Z</time></trkpt><trkpt lat="44.86666421329858" lon="7.220041511010992"><ele>1324.0</ele><time>2026-04-07T09:15:54Z</time></trkpt><trkpt lat="44.86674472341876" lon="7.219964674774471"><ele>1324.0</ele><time>2026-04-07T09:15:55Z</time></trkpt><trkpt lat="44.866814086500305" lon="7.21987909150566"><ele>1325.0</ele><time>2026-04-07T09:15:56Z</time></trkpt><trkpt lat="44.86691233112587" lon="7.219819861507539"><ele>1326.0</ele><time>2026-04-07T09:15:57Z</time></trkpt><trkpt lat="44.86701801325149" lon="7.219764084307085"><ele>1327.0</ele><time>2026-04-07T09:15:58Z</time></trkpt><trkpt lat="44.86710541945498" lon="7.219705999011675"><ele>1328.0</ele><time>2026-04-07T09:15:59Z</time></trkpt><trkpt lat="44.867179162394876" lon="7.219641085447238"><ele>1329.0</ele><time>2026-04-07T09:16:00Z</time></trkpt><trkpt lat="44.867237113092855" lon="7.219579750956892"><ele>1329.0</ele><time>2026-04-07T09:16:01Z</time></trkpt><trkpt lat="44.867306703478484" lon="7.219473927106624"><ele>1329.0</ele><time>2026-04-07T09:16:03Z</time></trkpt><trkpt lat="44.86732138814361" lon="7.219336115175678"><ele>1329.0</ele><time>2026-04-07T09:16:05Z</time></trkpt><trkpt lat="44.86735642066503" lon="7.219219681780822"><ele>1329.0</ele><time>2026-04-07T09:16:08Z</time></trkpt><trkpt lat="44.86741608652041" lon="7.219081272397541"><ele>1329.0</ele><time>2026-04-07T09:16:10Z</time></trkpt><trkpt lat="44.8674844229869" lon="7.218974418455132"><ele>1331.2</ele><time>2026-04-07T09:16:13Z</time></trkpt><trkpt lat="44.86755614360792" lon="7.2188077659878855"><ele>1333.4</ele><time>2026-04-07T09:16:16Z</time></trkpt><trkpt lat="44.86764784938024" lon="7.218718614593085"><ele>1335.6</ele><time>2026-04-07T09:16:17Z</time></trkpt><trkpt lat="44.86772782590002" lon="7.218668355763625"><ele>1337.8</ele><time>2026-04-07T09:16:18Z</time></trkpt><trkpt lat="44.867781716160565" lon="7.21857147086041"><ele>1340.0</ele><time>2026-04-07T09:16:19Z</time></trkpt><trkpt lat="44.86784269320669" lon="7.218487673905316"><ele>1340.0</ele><time>2026-04-07T09:16:20Z</time></trkpt><trkpt lat="44.867950224713255" lon="7.218352119076178"><ele>1340.0</ele><time>2026-04-07T09:16:22Z</time></trkpt><trkpt lat="44.86799456887697" lon="7.218251941349173"><ele>1340.0</ele><time>2026-04-07T09:16:23Z</time></trkpt><trkpt lat="44.86804066544772" lon="7.218161106721938"><ele>1340.0</ele><time>2026-04-07T09:16:24Z</time></trkpt><trkpt lat="44.86809509669959" lon="7.218093250712181"><ele>1340.0</ele><time>2026-04-07T09:16:25Z</time></trkpt><trkpt lat="44.86816056112828" lon="7.2180388392592505"><ele>1341.8333333333335</ele><time>2026-04-07T09:16:26Z</time></trkpt><trkpt lat="44.868224750917754" lon="7.217978946628476"><ele>1343.6666666666667</ele><time>2026-04-07T09:16:27Z</time></trkpt><trkpt lat="44.86829590865099" lon="7.217896845233977"><ele>1345.5</ele><time>2026-04-07T09:16:28Z</time></trkpt><trkpt lat="44.868350557185565" lon="7.21781338935089"><ele>1347.3333333333333</ele><time>2026-04-07T09:16:29Z</time></trkpt><trkpt lat="44.86841460710999" lon="7.217741609650401"><ele>1349.1666666666665</ele><time>2026-04-07T09:16:30Z</time></trkpt><trkpt lat="44.86845720454406" lon="7.2176759015640215"><ele>1351.0</ele><time>2026-04-07T09:16:31Z</time></trkpt><trkpt lat="44.86851490992431" lon="7.217609047621155"><ele>1351.0</ele><time>2026-04-07T09:16:32Z</time></trkpt><trkpt lat="44.868556389865546" lon="7.217530377497572"><ele>1351.0</ele><time>2026-04-07T09:16:33Z</time></trkpt><trkpt lat="44.86860785318215" lon="7.217459108280663"><ele>1351.0</ele><time>2026-04-07T09:16:34Z</time></trkpt><trkpt lat="44.868705033754345" lon="7.217357337379439"><ele>1351.0</ele><time>2026-04-07T09:16:36Z</time></trkpt><trkpt lat="44.86874225723139" lon="7.217262587906339"><ele>1351.0</ele><time>2026-04-07T09:16:37Z</time></trkpt><trkpt lat="44.86878853010793" lon="7.217187744792108"><ele>1351.0</ele><time>2026-04-07T09:16:38Z</time></trkpt><trkpt lat="44.868830159663084" lon="7.217097622703863"><ele>1347.8</ele><time>2026-04-07T09:16:39Z</time></trkpt><trkpt lat="44.86886671480296" lon="7.216983820416789"><ele>1344.6</ele><time>2026-04-07T09:16:40Z</time></trkpt><trkpt lat="44.868920973115046" lon="7.216865596010973"><ele>1341.4</ele><time>2026-04-07T09:16:41Z</time></trkpt><trkpt lat="44.86894959748234" lon="7.216698750539346"><ele>1338.2</ele><time>2026-04-07T09:16:43Z</time></trkpt><trkpt lat="44.86893231092719" lon="7.216594698711825"><ele>1335.0</ele><time>2026-04-07T09:16:44Z</time></trkpt><trkpt lat="44.868922797289" lon="7.216493730335533"><ele>1332.6</ele><time>2026-04-07T09:16:45Z</time></trkpt><trkpt lat="44.86890700625234" lon="7.216324233040046"><ele>1330.2</ele><time>2026-04-07T09:16:47Z</time></trkpt><trkpt lat="44.86891843240222" lon="7.216228260820946"><ele>1327.8000000000002</ele><time>2026-04-07T09:16:48Z</time></trkpt><trkpt lat="44.868938409767196" lon="7.21612124567475"><ele>1325.4</ele><time>2026-04-07T09:16:49Z</time></trkpt><trkpt lat="44.868947806137626" lon="7.216026274987547"><ele>1323.0</ele><time>2026-04-07T09:16:50Z</time></trkpt><trkpt lat="44.868998285725645" lon="7.21585897463587"><ele>1323.0</ele><time>2026-04-07T09:16:52Z</time></trkpt><trkpt lat="44.869071819722414" lon="7.215728282593913"><ele>1323.0</ele><time>2026-04-07T09:16:54Z</time></trkpt><trkpt lat="44.869124162107845" lon="7.215669348449587"><ele>1323.0</ele><time>2026-04-07T09:16:55Z</time></trkpt><trkpt lat="44.86919005135069" lon="7.215614327612555"><ele>1323.0</ele><time>2026-04-07T09:16:56Z</time></trkpt><trkpt lat="44.869261926751584" lon="7.21554689850939"><ele>1323.0</ele><time>2026-04-07T09:16:57Z</time></trkpt><trkpt lat="44.86934518198948" lon="7.2154378187140455"><ele>1327.0</ele><time>2026-04-07T09:16:58Z</time></trkpt><trkpt lat="44.86941834879162" lon="7.21534809812609"><ele>1331.0</ele><time>2026-04-07T09:16:58.999Z</time></trkpt><trkpt lat="44.86947775280005" lon="7.215238700893494"><ele>1335.0</ele><time>2026-04-07T09:16:59.999Z</time></trkpt><trkpt lat="44.869528957410886" lon="7.215128905303183"><ele>1339.0</ele><time>2026-04-07T09:17:00.999Z</time></trkpt><trkpt lat="44.8695646093202" lon="7.215028407671177"><ele>1343.0</ele><time>2026-04-07T09:17:01.999Z</time></trkpt><trkpt lat="44.869595034728334" lon="7.214914632739952"><ele>1340.2</ele><time>2026-04-07T09:17:02.999Z</time></trkpt><trkpt lat="44.86959344452357" lon="7.214809143012681"><ele>1337.4</ele><time>2026-04-07T09:17:03.999Z</time></trkpt><trkpt lat="44.86961949739255" lon="7.214683851718212"><ele>1334.6000000000001</ele><time>2026-04-07T09:17:05.999Z</time></trkpt><trkpt lat="44.86960866314733" lon="7.214555927186561"><ele>1331.8000000000002</ele><time>2026-04-07T09:17:07.999Z</time></trkpt><trkpt lat="44.8696215456075" lon="7.21443125587972"><ele>1329.0</ele><time>2026-04-07T09:17:09.999Z</time></trkpt><trkpt lat="44.86965681716118" lon="7.2142775222172535"><ele>1329.0</ele><time>2026-04-07T09:17:11.999Z</time></trkpt><trkpt lat="44.86968185777743" lon="7.214191972074726"><ele>1329.0</ele><time>2026-04-07T09:17:12.999Z</time></trkpt><trkpt lat="44.86971065443723" lon="7.214080937138626"><ele>1329.0</ele><time>2026-04-07T09:17:13.999Z</time></trkpt><trkpt lat="44.86973004214995" lon="7.213947582461912"><ele>1329.0</ele><time>2026-04-07T09:17:14.999Z</time></trkpt><trkpt lat="44.869754324591185" lon="7.213846508187304"><ele>1329.0</ele><time>2026-04-07T09:17:15.999Z</time></trkpt><trkpt lat="44.869795904294826" lon="7.213758574087168"><ele>1329.0</ele><time>2026-04-07T09:17:16.999Z</time></trkpt><trkpt lat="44.86982199105124" lon="7.213668707174209"><ele>1328.6666666666667</ele><time>2026-04-07T09:17:17.999Z</time></trkpt><trkpt lat="44.86987379429757" lon="7.213592442190512"><ele>1328.3333333333333</ele><time>2026-04-07T09:17:18.999Z</time></trkpt><trkpt lat="44.869969564678776" lon="7.213502685269728"><ele>1328.0</ele><time>2026-04-07T09:17:20.999Z</time></trkpt><trkpt lat="44.87003470860696" lon="7.213453096248741"><ele>1327.6666666666665</ele><time>2026-04-07T09:17:21.999Z</time></trkpt><trkpt lat="44.87009658310045" lon="7.213427693581394"><ele>1327.3333333333333</ele><time>2026-04-07T09:17:22.999Z</time></trkpt><trkpt lat="44.87016125052856" lon="7.213408983851993"><ele>1327.0</ele><time>2026-04-07T09:17:23.999Z</time></trkpt><trkpt lat="44.870227775107104" lon="7.213383775682171"><ele>1327.0000000000002</ele><time>2026-04-07T09:17:24.999Z</time></trkpt><trkpt lat="44.87029410777341" lon="7.213384302726796"><ele>1327.0</ele><time>2026-04-07T09:17:25.999Z</time></trkpt><trkpt lat="44.870354595605875" lon="7.21341097479471"><ele>1327.0</ele><time>2026-04-07T09:17:26.999Z</time></trkpt><trkpt lat="44.87043252225487" lon="7.213451380893363"><ele>1327.0</ele><time>2026-04-07T09:17:27.999Z</time></trkpt><trkpt lat="44.870502800644594" lon="7.213459537647494"><ele>1327.0</ele><time>2026-04-07T09:17:28.999Z</time></trkpt><trkpt lat="44.87056778328864" lon="7.213455322761029"><ele>1327.0000000000002</ele><time>2026-04-07T09:17:29.999Z</time></trkpt><trkpt lat="44.87065137428049" lon="7.21344660691644"><ele>1327.0</ele><time>2026-04-07T09:17:30.999Z</time></trkpt><trkpt lat="44.87071862519078" lon="7.213392468697687"><ele>1327.0</ele><time>2026-04-07T09:17:32.999Z</time></trkpt><trkpt lat="44.87074253378996" lon="7.213309827903901"><ele>1327.0</ele><time>2026-04-07T09:17:34.999Z</time></trkpt><trkpt lat="44.870796492302986" lon="7.2132303443064085"><ele>1327.0</ele><time>2026-04-07T09:17:37.999Z</time></trkpt><trkpt lat="44.870861305475735" lon="7.213161475866825"><ele>1327.0</ele><time>2026-04-07T09:17:40.999Z</time></trkpt><trkpt lat="44.87089886162281" lon="7.213055832912259"><ele>1327.0</ele><time>2026-04-07T09:17:43.999Z</time></trkpt><trkpt lat="44.87086925287511" lon="7.2129543293852185"><ele>1327.0</ele><time>2026-04-07T09:17:47.999Z</time></trkpt><trkpt lat="44.87081506066524" lon="7.2128800290844834"><ele>1321.3999999999999</ele><time>2026-04-07T09:17:51.999Z</time></trkpt><trkpt lat="44.87075636235001" lon="7.212776370091991"><ele>1315.8</ele><time>2026-04-07T09:17:54.999Z</time></trkpt><trkpt lat="44.87069259037749" lon="7.212715701484311"><ele>1310.2</ele><time>2026-04-07T09:17:57Z</time></trkpt><trkpt lat="44.870570451373965" lon="7.212715391589692"><ele>1304.6</ele><time>2026-04-07T09:18:55Z</time></trkpt><trkpt lat="44.870638944414374" lon="7.212721197646186"><ele>1299.0</ele><time>2026-04-07T09:19:02Z</time></trkpt><trkpt lat="44.870729642530435" lon="7.2127225081465935"><ele>1299.0</ele><time>2026-04-07T09:19:04.999Z</time></trkpt><trkpt lat="44.870798625609126" lon="7.212864402234176"><ele>1299.0</ele><time>2026-04-07T09:19:06.999Z</time></trkpt><trkpt lat="44.87085410567774" lon="7.212962496789694"><ele>1299.0</ele><time>2026-04-07T09:19:08.999Z</time></trkpt><trkpt lat="44.870899035056986" lon="7.213029451896746"><ele>1299.0</ele><time>2026-04-07T09:19:10.999Z</time></trkpt><trkpt lat="44.87085466633448" lon="7.213155680492872"><ele>1299.0</ele><time>2026-04-07T09:19:13.999Z</time></trkpt><trkpt lat="44.870783764530294" lon="7.213176321707861"><ele>1299.0</ele><time>2026-04-07T09:19:15.999Z</time></trkpt><trkpt lat="44.87074305451626" lon="7.213317637035061"><ele>1303.6666666666667</ele><time>2026-04-07T09:19:18.999Z</time></trkpt><trkpt lat="44.870675278038284" lon="7.213394325250323"><ele>1308.3333333333333</ele><time>2026-04-07T09:19:20.999Z</time></trkpt><trkpt lat="44.870611414548264" lon="7.213407745467686"><ele>1313.0</ele><time>2026-04-07T09:19:23.999Z</time></trkpt><trkpt lat="44.87048394827964" lon="7.213421363167169"><ele>1317.6666666666665</ele><time>2026-04-07T09:19:34.999Z</time></trkpt><trkpt lat="44.870413712449185" lon="7.213422883592714"><ele>1322.3333333333333</ele><time>2026-04-07T09:19:35.999Z</time></trkpt><trkpt lat="44.87033211830792" lon="7.2134093146234255"><ele>1327.0</ele><time>2026-04-07T09:19:37.999Z</time></trkpt><trkpt lat="44.87025805073843" lon="7.213398768941197"><ele>1327.0</ele><time>2026-04-07T09:19:39.999Z</time></trkpt><trkpt lat="44.87016446247586" lon="7.2134066769111564"><ele>1327.0</ele><time>2026-04-07T09:19:41.999Z</time></trkpt><trkpt lat="44.870056553305574" lon="7.213460841041131"><ele>1327.0</ele><time>2026-04-07T09:19:43.999Z</time></trkpt><trkpt lat="44.86995971447845" lon="7.213536885961211"><ele>1327.0</ele><time>2026-04-07T09:19:45.999Z</time></trkpt><trkpt lat="44.86989421295288" lon="7.213585804667355"><ele>1327.0</ele><time>2026-04-07T09:19:46.999Z</time></trkpt><trkpt lat="44.86984523204161" lon="7.213698602123805"><ele>1327.3333333333333</ele><time>2026-04-07T09:19:48.999Z</time></trkpt><trkpt lat="44.86980987760621" lon="7.213787394309433"><ele>1327.6666666666665</ele><time>2026-04-07T09:19:49.999Z</time></trkpt><trkpt lat="44.86977010359512" lon="7.213887131674639"><ele>1328.0</ele><time>2026-04-07T09:19:50.999Z</time></trkpt><trkpt lat="44.86974157894271" lon="7.214027994736664"><ele>1328.3333333333333</ele><time>2026-04-07T09:19:51.999Z</time></trkpt><trkpt lat="44.869711000142566" lon="7.214145189438136"><ele>1328.6666666666667</ele><time>2026-04-07T09:19:52.999Z</time></trkpt><trkpt lat="44.86967772293105" lon="7.214264303791494"><ele>1329.0</ele><time>2026-04-07T09:19:53.999Z</time></trkpt><trkpt lat="44.86966093284841" lon="7.214375170299613"><ele>1329.0</ele><time>2026-04-07T09:19:54.999Z</time></trkpt><trkpt lat="44.86963984722021" lon="7.214471213059613"><ele>1329.0</ele><time>2026-04-07T09:19:55.999Z</time></trkpt><trkpt lat="44.86962395955041" lon="7.214563946623352"><ele>1329.0</ele><time>2026-04-07T09:19:56.999Z</time></trkpt><trkpt lat="44.86962006601204" lon="7.21473691925709"><ele>1329.0</ele><time>2026-04-07T09:19:58.999Z</time></trkpt><trkpt lat="44.869622876045106" lon="7.2148305975038864"><ele>1329.0</ele><time>2026-04-07T09:19:59.999Z</time></trkpt><trkpt lat="44.86959162375427" lon="7.2149351972246105"><ele>1329.0</ele><time>2026-04-07T09:20:00.999Z</time></trkpt><trkpt lat="44.86956050370929" lon="7.215050663566524"><ele>1331.3333333333333</ele><time>2026-04-07T09:20:02Z</time></trkpt><trkpt lat="44.869505925374604" lon="7.215174256515015"><ele>1333.6666666666667</ele><time>2026-04-07T09:20:03Z</time></trkpt><trkpt lat="44.86944861276729" lon="7.215295756360367"><ele>1336.0</ele><time>2026-04-07T09:20:04Z</time></trkpt><trkpt lat="44.86940908978845" lon="7.215365696032069"><ele>1338.3333333333335</ele><time>2026-04-07T09:20:05Z</time></trkpt><trkpt lat="44.86934147746006" lon="7.215453397928947"><ele>1340.6666666666667</ele><time>2026-04-07T09:20:06Z</time></trkpt><trkpt lat="44.8692769033822" lon="7.215528608652768"><ele>1343.0</ele><time>2026-04-07T09:20:07Z</time></trkpt><trkpt lat="44.869215495456395" lon="7.215588094639854"><ele>1339.0</ele><time>2026-04-07T09:20:08Z</time></trkpt><trkpt lat="44.869113497782536" lon="7.215677438677091"><ele>1335.0</ele><time>2026-04-07T09:20:10Z</time></trkpt><trkpt lat="44.8690126230953" lon="7.215797464437778"><ele>1331.0</ele><time>2026-04-07T09:20:12Z</time></trkpt><trkpt lat="44.86897926821432" lon="7.215878842607433"><ele>1327.0</ele><time>2026-04-07T09:20:13Z</time></trkpt><trkpt lat="44.86895297733538" lon="7.215967786484087"><ele>1323.0</ele><time>2026-04-07T09:20:14Z</time></trkpt><trkpt lat="44.86892419943793" lon="7.216051299716734"><ele>1323.0</ele><time>2026-04-07T09:20:15Z</time></trkpt><trkpt lat="44.86890576006144" lon="7.216150587990024"><ele>1323.0</ele><time>2026-04-07T09:20:16Z</time></trkpt><trkpt lat="44.868892702014904" lon="7.216249899768306"><ele>1323.0</ele><time>2026-04-07T09:20:17Z</time></trkpt><trkpt lat="44.86890231956145" lon="7.216356449319392"><ele>1323.0</ele><time>2026-04-07T09:20:18Z</time></trkpt><trkpt lat="44.868904085520285" lon="7.216551816479727"><ele>1323.0</ele><time>2026-04-07T09:20:20Z</time></trkpt><trkpt lat="44.86891725121866" lon="7.21664384702345"><ele>1323.0</ele><time>2026-04-07T09:20:21Z</time></trkpt><trkpt lat="44.86891511553513" lon="7.216738555183505"><ele>1325.0</ele><time>2026-04-07T09:20:22Z</time></trkpt><trkpt lat="44.86889159800927" lon="7.2168235501939435"><ele>1327.0</ele><time>2026-04-07T09:20:23Z</time></trkpt><trkpt lat="44.86886374684917" lon="7.21690410403701"><ele>1329.0</ele><time>2026-04-07T09:20:24Z</time></trkpt><trkpt lat="44.868826985374575" lon="7.217008031870216"><ele>1331.0</ele><time>2026-04-07T09:20:25Z</time></trkpt><trkpt lat="44.86879062263741" lon="7.217105768005489"><ele>1333.0</ele><time>2026-04-07T09:20:26Z</time></trkpt><trkpt lat="44.868753018225604" lon="7.217196730907939"><ele>1335.0</ele><time>2026-04-07T09:20:27Z</time></trkpt><trkpt lat="44.86866600355989" lon="7.217345173275093"><ele>1337.6666666666667</ele><time>2026-04-07T09:20:29Z</time></trkpt><trkpt lat="44.868606622230374" lon="7.2174273526253305"><ele>1340.3333333333333</ele><time>2026-04-07T09:20:30Z</time></trkpt><trkpt lat="44.86855798101174" lon="7.217514241017059"><ele>1343.0</ele><time>2026-04-07T09:20:31Z</time></trkpt><trkpt lat="44.86850157375922" lon="7.2175713214405235"><ele>1345.6666666666665</ele><time>2026-04-07T09:20:32Z</time></trkpt><trkpt lat="44.868449807242804" lon="7.217647923166522"><ele>1348.3333333333333</ele><time>2026-04-07T09:20:33Z</time></trkpt><trkpt lat="44.86839523914558" lon="7.217743450194466"><ele>1351.0</ele><time>2026-04-07T09:20:34Z</time></trkpt><trkpt lat="44.868362626618776" lon="7.217848600368105"><ele>1349.1666666666665</ele><time>2026-04-07T09:20:35Z</time></trkpt><trkpt lat="44.86830679841912" lon="7.217926075299531"><ele>1347.3333333333333</ele><time>2026-04-07T09:20:36Z</time></trkpt><trkpt lat="44.868281469448256" lon="7.218041847471908"><ele>1345.5</ele><time>2026-04-07T09:20:37Z</time></trkpt><trkpt lat="44.86822784463056" lon="7.2181409704414214"><ele>1343.6666666666667</ele><time>2026-04-07T09:20:38Z</time></trkpt><trkpt lat="44.86816290673984" lon="7.218246919215155"><ele>1341.8333333333335</ele><time>2026-04-07T09:20:39Z</time></trkpt><trkpt lat="44.86809154703472" lon="7.218335899133084"><ele>1340.0</ele><time>2026-04-07T09:20:40Z</time></trkpt><trkpt lat="44.868016721804715" lon="7.2184078731975925"><ele>1340.0</ele><time>2026-04-07T09:20:41Z</time></trkpt><trkpt lat="44.86793401253272" lon="7.21847912776899"><ele>1340.0</ele><time>2026-04-07T09:20:42Z</time></trkpt><trkpt lat="44.86786733481969" lon="7.218518594904207"><ele>1340.0</ele><time>2026-04-07T09:20:43Z</time></trkpt><trkpt lat="44.867801662421826" lon="7.2185860459926605"><ele>1340.0</ele><time>2026-04-07T09:20:44Z</time></trkpt><trkpt lat="44.867730527884106" lon="7.2186731054949105"><ele>1340.0</ele><time>2026-04-07T09:20:45Z</time></trkpt><trkpt lat="44.8676590962736" lon="7.218720685672643"><ele>1340.0</ele><time>2026-04-07T09:20:46Z</time></trkpt><trkpt lat="44.86760167288021" lon="7.218778893455058"><ele>1338.4285714285713</ele><time>2026-04-07T09:20:47Z</time></trkpt><trkpt lat="44.86756075581777" lon="7.218859627290285"><ele>1336.857142857143</ele><time>2026-04-07T09:20:48Z</time></trkpt><trkpt lat="44.86751395646482" lon="7.218919940344364"><ele>1335.2857142857142</ele><time>2026-04-07T09:20:49Z</time></trkpt><trkpt lat="44.86746148645425" lon="7.218978954377664"><ele>1333.7142857142858</ele><time>2026-04-07T09:20:50Z</time></trkpt><trkpt lat="44.86738920612348" lon="7.2190537692739465"><ele>1332.142857142857</ele><time>2026-04-07T09:20:51Z</time></trkpt><trkpt lat="44.86735878925412" lon="7.219145621965923"><ele>1330.5714285714284</ele><time>2026-04-07T09:20:52Z</time></trkpt><trkpt lat="44.86730624421167" lon="7.2192159083062615"><ele>1329.0</ele><time>2026-04-07T09:20:53Z</time></trkpt><trkpt lat="44.867276540972654" lon="7.219375723712358"><ele>1329.0</ele><time>2026-04-07T09:20:55Z</time></trkpt><trkpt lat="44.867253573364096" lon="7.219474154563739"><ele>1329.0</ele><time>2026-04-07T09:20:57Z</time></trkpt><trkpt lat="44.86719256481919" lon="7.219580744146567"><ele>1329.0</ele><time>2026-04-07T09:20:59Z</time></trkpt><trkpt lat="44.867124807385984" lon="7.219646313767105"><ele>1329.0</ele><time>2026-04-07T09:21:00Z</time></trkpt><trkpt lat="44.867051883887015" lon="7.219715068350195"><ele>1329.0</ele><time>2026-04-07T09:21:01Z</time></trkpt><trkpt lat="44.86698004729971" lon="7.219760638730827"><ele>1329.0</ele><time>2026-04-07T09:21:02Z</time></trkpt><trkpt lat="44.866893960586786" lon="7.21980277800664"><ele>1328.0</ele><time>2026-04-07T09:21:03Z</time></trkpt><trkpt lat="44.866819729068844" lon="7.21984885027803"><ele>1327.0</ele><time>2026-04-07T09:21:04Z</time></trkpt><trkpt lat="44.866676573321286" lon="7.219922011092865"><ele>1326.0</ele><time>2026-04-07T09:21:06Z</time></trkpt><trkpt lat="44.86662005241788" lon="7.219972548870937"><ele>1325.0</ele><time>2026-04-07T09:21:07Z</time></trkpt><trkpt lat="44.86655997640995" lon="7.220030963807814"><ele>1324.0</ele><time>2026-04-07T09:21:08Z</time></trkpt><trkpt lat="44.86648461819506" lon="7.220104525534185"><ele>1324.0</ele><time>2026-04-07T09:21:09Z</time></trkpt><trkpt lat="44.866410120205174" lon="7.220185185416134"><ele>1324.0</ele><time>2026-04-07T09:21:10Z</time></trkpt><trkpt lat="44.8663519072013" lon="7.220261490603623"><ele>1324.0</ele><time>2026-04-07T09:21:11Z</time></trkpt><trkpt lat="44.866290189210766" lon="7.2203304627663"><ele>1324.0</ele><time>2026-04-07T09:21:12Z</time></trkpt><trkpt lat="44.86623950752212" lon="7.2203898629016265"><ele>1324.0</ele><time>2026-04-07T09:21:12.999Z</time></trkpt><trkpt lat="44.86616724333927" lon="7.220454641196526"><ele>1324.0</ele><time>2026-04-07T09:21:13.999Z</time></trkpt><trkpt lat="44.866101472581796" lon="7.220514630226022"><ele>1324.0</ele><time>2026-04-07T09:21:14.999Z</time></trkpt><trkpt lat="44.866035906565436" lon="7.220563636413166"><ele>1324.0</ele><time>2026-04-07T09:21:15.999Z</time></trkpt><trkpt lat="44.865965256152066" lon="7.220592301664526"><ele>1324.0</ele><time>2026-04-07T09:21:16.999Z</time></trkpt><trkpt lat="44.865885170278915" lon="7.220646035029034"><ele>1324.0</ele><time>2026-04-07T09:21:18.999Z</time></trkpt><trkpt lat="44.8658328284299" lon="7.220713680410292"><ele>1324.0</ele><time>2026-04-07T09:21:20.999Z</time></trkpt><trkpt lat="44.865795780892775" lon="7.220813432265361"><ele>1324.0</ele><time>2026-04-07T09:21:22.999Z</time></trkpt><trkpt lat="44.86577005602715" lon="7.2209626048247415"><ele>1323.1666666666665</ele><time>2026-04-07T09:21:24.999Z</time></trkpt><trkpt lat="44.865748578998165" lon="7.2210525256828255"><ele>1322.3333333333333</ele><time>2026-04-07T09:21:25.999Z</time></trkpt><trkpt lat="44.865722029400715" lon="7.221167850257208"><ele>1321.5</ele><time>2026-04-07T09:21:26.999Z</time></trkpt><trkpt lat="44.86569200097985" lon="7.221279608630286"><ele>1320.6666666666667</ele><time>2026-04-07T09:21:27.999Z</time></trkpt><trkpt lat="44.86566924705616" lon="7.221409599130991"><ele>1319.8333333333335</ele><time>2026-04-07T09:21:28.999Z</time></trkpt><trkpt lat="44.865643831593786" lon="7.221508844560675"><ele>1319.0</ele><time>2026-04-07T09:21:29.999Z</time></trkpt><trkpt lat="44.8656055626301" lon="7.221593115534189"><ele>1319.0</ele><time>2026-04-07T09:21:30.999Z</time></trkpt><trkpt lat="44.86557542413946" lon="7.22168383701152"><ele>1319.0</ele><time>2026-04-07T09:21:31.999Z</time></trkpt><trkpt lat="44.865527373047186" lon="7.2217628929765025"><ele>1319.0</ele><time>2026-04-07T09:21:32.999Z</time></trkpt><trkpt lat="44.86548882338782" lon="7.221860433205102"><ele>1319.0</ele><time>2026-04-07T09:21:33.999Z</time></trkpt><trkpt lat="44.86545000747061" lon="7.221957667485496"><ele>1319.0</ele><time>2026-04-07T09:21:34.999Z</time></trkpt><trkpt lat="44.86541088404844" lon="7.222038802564804"><ele>1319.0</ele><time>2026-04-07T09:21:35.999Z</time></trkpt><trkpt lat="44.865333416485065" lon="7.222153781598808"><ele>1319.0</ele><time>2026-04-07T09:21:37.999Z</time></trkpt><trkpt lat="44.865292742573125" lon="7.222232522134762"><ele>1319.0</ele><time>2026-04-07T09:21:38.999Z</time></trkpt><trkpt lat="44.8652554942486" lon="7.222327331386451"><ele>1319.0</ele><time>2026-04-07T09:21:39.999Z</time></trkpt><trkpt lat="44.865232379585215" lon="7.222422973911888"><ele>1319.0</ele><time>2026-04-07T09:21:40.999Z</time></trkpt><trkpt lat="44.865192325528994" lon="7.222522609223299"><ele>1319.0</ele><time>2026-04-07T09:21:41.999Z</time></trkpt><trkpt lat="44.86515249959917" lon="7.222610560114993"><ele>1319.0</ele><time>2026-04-07T09:21:42.999Z</time></trkpt><trkpt lat="44.86512865278885" lon="7.222716987945273"><ele>1317.6</ele><time>2026-04-07T09:21:43.999Z</time></trkpt><trkpt lat="44.86510937341258" lon="7.222809403286203"><ele>1316.2</ele><time>2026-04-07T09:21:44.999Z</time></trkpt><trkpt lat="44.86506688062581" lon="7.222974777660205"><ele>1314.8</ele><time>2026-04-07T09:21:46.999Z</time></trkpt><trkpt lat="44.86502940671624" lon="7.223049057490449"><ele>1313.3999999999999</ele><time>2026-04-07T09:21:47.999Z</time></trkpt><trkpt lat="44.86494824032597" lon="7.223238245447879"><ele>1312.0</ele><time>2026-04-07T09:21:49.999Z</time></trkpt><trkpt lat="44.86489217316757" lon="7.223370646353209"><ele>1312.0</ele><time>2026-04-07T09:21:50.999Z</time></trkpt><trkpt lat="44.86484350522791" lon="7.223465768465667"><ele>1312.0</ele><time>2026-04-07T09:21:51.999Z</time></trkpt><trkpt lat="44.86477656975099" lon="7.223596976475434"><ele>1312.0</ele><time>2026-04-07T09:21:53.999Z</time></trkpt><trkpt lat="44.8647355845259" lon="7.223721800989508"><ele>1312.0</ele><time>2026-04-07T09:21:56.999Z</time></trkpt><trkpt lat="44.86467964830351" lon="7.223793219996615"><ele>1312.0</ele><time>2026-04-07T09:21:58.999Z</time></trkpt><trkpt lat="44.864631974254785" lon="7.223892226928968"><ele>1309.0</ele><time>2026-04-07T09:22:02.999Z</time></trkpt><trkpt lat="44.86460476081974" lon="7.224001417723978"><ele>1306.0</ele><time>2026-04-07T09:22:05.999Z</time></trkpt><trkpt lat="44.86456892489436" lon="7.2241031486473455"><ele>1303.0</ele><time>2026-04-07T09:22:09Z</time></trkpt><trkpt lat="44.864239772243366" lon="7.224777336160634"><ele>1303.5</ele><time>2026-04-07T09:22:11Z</time></trkpt><trkpt lat="44.86419421214433" lon="7.2248861476010005"><ele>1304.0</ele><time>2026-04-07T09:22:12Z</time></trkpt><trkpt lat="44.86416264119437" lon="7.224992459055663"><ele>1304.5</ele><time>2026-04-07T09:22:13Z</time></trkpt><trkpt lat="44.864114528323725" lon="7.225071920904504"><ele>1305.0</ele><time>2026-04-07T09:22:14Z</time></trkpt><trkpt lat="44.86408304247497" lon="7.225148913636293"><ele>1305.5</ele><time>2026-04-07T09:22:15Z</time></trkpt><trkpt lat="44.864034341975305" lon="7.22522603718138"><ele>1306.0</ele><time>2026-04-07T09:22:16Z</time></trkpt><trkpt lat="44.86399677033808" lon="7.225325734405855"><ele>1306.0</ele><time>2026-04-07T09:22:17Z</time></trkpt><trkpt lat="44.863963269168366" lon="7.225435340930787"><ele>1306.0</ele><time>2026-04-07T09:22:18Z</time></trkpt><trkpt lat="44.863935751686434" lon="7.225561774093092"><ele>1306.0</ele><time>2026-04-07T09:22:19Z</time></trkpt><trkpt lat="44.86389585468475" lon="7.225669210397268"><ele>1306.0</ele><time>2026-04-07T09:22:20Z</time></trkpt><trkpt lat="44.86386002579418" lon="7.225767247368634"><ele>1306.0</ele><time>2026-04-07T09:22:21Z</time></trkpt><trkpt lat="44.86382566515992" lon="7.225861266500934"><ele>1306.0</ele><time>2026-04-07T09:22:22Z</time></trkpt><trkpt lat="44.86378864541197" lon="7.225962562224306"><ele>1306.3333333333333</ele><time>2026-04-07T09:22:23Z</time></trkpt><trkpt lat="44.863753127614025" lon="7.22605740250504"><ele>1306.6666666666665</ele><time>2026-04-07T09:22:24Z</time></trkpt><trkpt lat="44.863718914777365" lon="7.22614693136708"><ele>1307.0</ele><time>2026-04-07T09:22:25Z</time></trkpt><trkpt lat="44.86368588100361" lon="7.226242895919053"><ele>1307.3333333333333</ele><time>2026-04-07T09:22:27Z</time></trkpt><trkpt lat="44.863650385681126" lon="7.22633058815"><ele>1307.6666666666667</ele><time>2026-04-07T09:22:28Z</time></trkpt><trkpt lat="44.86359343151793" lon="7.226507317334328"><ele>1308.0</ele><time>2026-04-07T09:22:30Z</time></trkpt><trkpt lat="44.86354753367237" lon="7.2266028324111575"><ele>1308.2</ele><time>2026-04-07T09:22:31Z</time></trkpt><trkpt lat="44.86345958269071" lon="7.226714708949705"><ele>1308.4</ele><time>2026-04-07T09:22:33Z</time></trkpt><trkpt lat="44.86335485972007" lon="7.226721269570772"><ele>1308.6000000000001</ele><time>2026-04-07T09:22:35Z</time></trkpt><trkpt lat="44.86327453293614" lon="7.226738127396352"><ele>1308.8000000000002</ele><time>2026-04-07T09:22:36Z</time></trkpt><trkpt lat="44.86321024064871" lon="7.226758667821932"><ele>1309.0</ele><time>2026-04-07T09:22:37Z</time></trkpt><trkpt lat="44.86302142495529" lon="7.226787821083324"><ele>1309.0</ele><time>2026-04-07T09:22:39Z</time></trkpt><trkpt lat="44.862937335229724" lon="7.226824867137799"><ele>1309.0</ele><time>2026-04-07T09:22:40Z</time></trkpt><trkpt lat="44.86286700665844" lon="7.226865340700931"><ele>1309.0</ele><time>2026-04-07T09:22:41Z</time></trkpt><trkpt lat="44.86279748795041" lon="7.226917934620623"><ele>1309.0</ele><time>2026-04-07T09:22:42Z</time></trkpt><trkpt lat="44.86269573289578" lon="7.22701435444577"><ele>1309.0</ele><time>2026-04-07T09:22:44Z</time></trkpt><trkpt lat="44.86262064969589" lon="7.227086104239127"><ele>1308.8333333333333</ele><time>2026-04-07T09:22:45Z</time></trkpt><trkpt lat="44.86255314320722" lon="7.2271350276040875"><ele>1308.6666666666665</ele><time>2026-04-07T09:22:46Z</time></trkpt><trkpt lat="44.86249004740947" lon="7.227193585675513"><ele>1308.5</ele><time>2026-04-07T09:22:47Z</time></trkpt><trkpt lat="44.862383138304665" lon="7.227218517173326"><ele>1308.3333333333333</ele><time>2026-04-07T09:22:48Z</time></trkpt><trkpt lat="44.862325705993804" lon="7.227297080136358"><ele>1308.1666666666667</ele><time>2026-04-07T09:22:49Z</time></trkpt><trkpt lat="44.86227579075472" lon="7.227351801548342"><ele>1308.0</ele><time>2026-04-07T09:22:50Z</time></trkpt><trkpt lat="44.862191482037616" lon="7.227387713718257"><ele>1308.0</ele><time>2026-04-07T09:22:51Z</time></trkpt><trkpt lat="44.86212946459161" lon="7.227458864202608"><ele>1308.0</ele><time>2026-04-07T09:22:52Z</time></trkpt><trkpt lat="44.86206010204187" lon="7.227542468194829"><ele>1308.0</ele><time>2026-04-07T09:22:53Z</time></trkpt><trkpt lat="44.861997441611884" lon="7.227624883784929"><ele>1308.0</ele><time>2026-04-07T09:22:54Z</time></trkpt><trkpt lat="44.861934485716844" lon="7.227710802590786"><ele>1308.0</ele><time>2026-04-07T09:22:55Z</time></trkpt><trkpt lat="44.861879628135206" lon="7.22778579571899"><ele>1308.0</ele><time>2026-04-07T09:22:56Z</time></trkpt><trkpt lat="44.861812068555764" lon="7.227881042086984"><ele>1305.8000000000002</ele><time>2026-04-07T09:22:57Z</time></trkpt><trkpt lat="44.86175869209423" lon="7.227956198893211"><ele>1303.6</ele><time>2026-04-07T09:22:58Z</time></trkpt><trkpt lat="44.86170781074022" lon="7.228023003856886"><ele>1301.4</ele><time>2026-04-07T09:22:59Z</time></trkpt><trkpt lat="44.86165196287776" lon="7.2281532117128044"><ele>1299.1999999999998</ele><time>2026-04-07T09:23:01Z</time></trkpt><trkpt lat="44.86155222890267" lon="7.228245284092468"><ele>1297.0</ele><time>2026-04-07T09:23:03Z</time></trkpt><trkpt lat="44.861440048810515" lon="7.228313361036781"><ele>1297.0</ele><time>2026-04-07T09:23:05Z</time></trkpt><trkpt lat="44.86133540038669" lon="7.22840765993732"><ele>1297.0</ele><time>2026-04-07T09:23:07Z</time></trkpt><trkpt lat="44.861267056996354" lon="7.228441107664397"><ele>1297.0</ele><time>2026-04-07T09:23:08Z</time></trkpt><trkpt lat="44.86119145857374" lon="7.228470373591714"><ele>1297.0</ele><time>2026-04-07T09:23:09Z</time></trkpt><trkpt lat="44.86112655970465" lon="7.228518660917689"><ele>1297.0</ele><time>2026-04-07T09:23:10Z</time></trkpt><trkpt lat="44.861062194382114" lon="7.228572551520012"><ele>1297.0</ele><time>2026-04-07T09:23:11Z</time></trkpt><trkpt lat="44.86098725198618" lon="7.228608829697395"><ele>1293.8333333333333</ele><time>2026-04-07T09:23:12Z</time></trkpt><trkpt lat="44.8609199254129" lon="7.228689509762429"><ele>1290.6666666666665</ele><time>2026-04-07T09:23:13Z</time></trkpt><trkpt lat="44.86084413910809" lon="7.228736289354468"><ele>1287.5</ele><time>2026-04-07T09:23:14Z</time></trkpt><trkpt lat="44.86078968219761" lon="7.228783651412106"><ele>1284.3333333333333</ele><time>2026-04-07T09:23:15Z</time></trkpt><trkpt lat="44.8607329252187" lon="7.228842110241666"><ele>1281.1666666666667</ele><time>2026-04-07T09:23:16Z</time></trkpt><trkpt lat="44.86067811856916" lon="7.228892678460562"><ele>1278.0</ele><time>2026-04-07T09:23:17Z</time></trkpt><trkpt lat="44.86060518351672" lon="7.228967932037455"><ele>1279.2857142857144</ele><time>2026-04-07T09:23:17.999Z</time></trkpt><trkpt lat="44.860550424702666" lon="7.2290365964517544"><ele>1280.5714285714287</ele><time>2026-04-07T09:23:18.999Z</time></trkpt><trkpt lat="44.86050667905068" lon="7.229111851104588"><ele>1281.857142857143</ele><time>2026-04-07T09:23:19.999Z</time></trkpt><trkpt lat="44.86046001034051" lon="7.229210788187435"><ele>1283.1428571428573</ele><time>2026-04-07T09:23:20.999Z</time></trkpt><trkpt lat="44.86041199625273" lon="7.229288513533482"><ele>1284.4285714285716</ele><time>2026-04-07T09:23:21.999Z</time></trkpt><trkpt lat="44.86036258917295" lon="7.229364267029229"><ele>1285.7142857142858</ele><time>2026-04-07T09:23:22.999Z</time></trkpt><trkpt lat="44.86030501136713" lon="7.229426968807043"><ele>1287.0</ele><time>2026-04-07T09:23:23.999Z</time></trkpt><trkpt lat="44.86024744221937" lon="7.229503900019695"><ele>1287.0</ele><time>2026-04-07T09:23:24.999Z</time></trkpt><trkpt lat="44.86020044270787" lon="7.229586311170961"><ele>1287.0</ele><time>2026-04-07T09:23:25.999Z</time></trkpt><trkpt lat="44.86013210083624" lon="7.229622149660524"><ele>1287.0</ele><time>2026-04-07T09:23:26.999Z</time></trkpt><trkpt lat="44.86008454912565" lon="7.2296946717167705"><ele>1287.0</ele><time>2026-04-07T09:23:27.999Z</time></trkpt><trkpt lat="44.86002904926973" lon="7.229777131842488"><ele>1287.0</ele><time>2026-04-07T09:23:28.999Z</time></trkpt><trkpt lat="44.85997008974464" lon="7.229851972215568"><ele>1287.0</ele><time>2026-04-07T09:23:29.999Z</time></trkpt><trkpt lat="44.85990440255584" lon="7.229931887015826"><ele>1283.3333333333333</ele><time>2026-04-07T09:23:30.999Z</time></trkpt><trkpt lat="44.85984320934265" lon="7.230002663643182"><ele>1279.6666666666667</ele><time>2026-04-07T09:23:31.999Z</time></trkpt><trkpt lat="44.85978832130129" lon="7.230114434968744"><ele>1276.0</ele><time>2026-04-07T09:23:32.999Z</time></trkpt><trkpt lat="44.859706125783454" lon="7.2301654768626955"><ele>1272.3333333333335</ele><time>2026-04-07T09:23:33.999Z</time></trkpt><trkpt lat="44.859617620702394" lon="7.2302224722925414"><ele>1268.6666666666667</ele><time>2026-04-07T09:23:34.999Z</time></trkpt><trkpt lat="44.85954982420975" lon="7.230264707678489"><ele>1265.0</ele><time>2026-04-07T09:23:35.999Z</time></trkpt><trkpt lat="44.85947954668265" lon="7.230309096894247"><ele>1265.0</ele><time>2026-04-07T09:23:36.999Z</time></trkpt><trkpt lat="44.85939352842081" lon="7.230340257294868"><ele>1265.0</ele><time>2026-04-07T09:23:37.999Z</time></trkpt><trkpt lat="44.859323233048784" lon="7.230388123637511"><ele>1265.0</ele><time>2026-04-07T09:23:38.999Z</time></trkpt><trkpt lat="44.85923770100157" lon="7.230433942503464"><ele>1265.0</ele><time>2026-04-07T09:23:39.999Z</time></trkpt><trkpt lat="44.85915416288512" lon="7.230473976378288"><ele>1265.0</ele><time>2026-04-07T09:23:40.999Z</time></trkpt><trkpt lat="44.85909733401068" lon="7.230532021984514"><ele>1265.0</ele><time>2026-04-07T09:23:41.999Z</time></trkpt><trkpt lat="44.85903461212401" lon="7.230588748675542"><ele>1263.6666666666667</ele><time>2026-04-07T09:23:42.999Z</time></trkpt><trkpt lat="44.858979312133144" lon="7.230651283252669"><ele>1262.3333333333335</ele><time>2026-04-07T09:23:43.999Z</time></trkpt><trkpt lat="44.85892542036714" lon="7.230714336427171"><ele>1261.0</ele><time>2026-04-07T09:23:44.999Z</time></trkpt><trkpt lat="44.85887276344531" lon="7.2307768366044805"><ele>1259.6666666666667</ele><time>2026-04-07T09:23:45.999Z</time></trkpt><trkpt lat="44.85881817288933" lon="7.230855225362524"><ele>1258.3333333333333</ele><time>2026-04-07T09:23:46.999Z</time></trkpt><trkpt lat="44.858724357364125" lon="7.2309499231972545"><ele>1257.0</ele><time>2026-04-07T09:23:48.999Z</time></trkpt><trkpt lat="44.85866870040322" lon="7.2310067977919665"><ele>1257.0</ele><time>2026-04-07T09:23:49.999Z</time></trkpt><trkpt lat="44.85862080365317" lon="7.231080976706677"><ele>1257.0</ele><time>2026-04-07T09:23:50.999Z</time></trkpt><trkpt lat="44.85858253863721" lon="7.231166730147772"><ele>1257.0</ele><time>2026-04-07T09:23:51.999Z</time></trkpt><trkpt lat="44.85855179211372" lon="7.2312682690754615"><ele>1257.0</ele><time>2026-04-07T09:23:52.999Z</time></trkpt><trkpt lat="44.85850314636473" lon="7.2313414975112025"><ele>1257.0</ele><time>2026-04-07T09:23:53.999Z</time></trkpt><trkpt lat="44.85844096345515" lon="7.23143802731037"><ele>1257.0</ele><time>2026-04-07T09:23:54.999Z</time></trkpt><trkpt lat="44.85840903708282" lon="7.231536693930014"><ele>1254.8333333333333</ele><time>2026-04-07T09:23:55.999Z</time></trkpt><trkpt lat="44.858372057597876" lon="7.231633779963112"><ele>1252.6666666666667</ele><time>2026-04-07T09:23:56.999Z</time></trkpt><trkpt lat="44.85833815570503" lon="7.231728466428056"><ele>1250.5</ele><time>2026-04-07T09:23:57.999Z</time></trkpt><trkpt lat="44.85829098293174" lon="7.231838622711315"><ele>1248.3333333333335</ele><time>2026-04-07T09:23:59.999Z</time></trkpt><trkpt lat="44.858254818364415" lon="7.231984807735709"><ele>1246.1666666666667</ele><time>2026-04-07T09:24:01.999Z</time></trkpt><trkpt lat="44.85825270492661" lon="7.232112361521222"><ele>1244.0</ele><time>2026-04-07T09:24:03.999Z</time></trkpt><trkpt lat="44.85821828826784" lon="7.232260054546851"><ele>1242.4</ele><time>2026-04-07T09:24:05.999Z</time></trkpt><trkpt lat="44.85816254227638" lon="7.232320865696168"><ele>1240.8000000000002</ele><time>2026-04-07T09:24:06.999Z</time></trkpt><trkpt lat="44.85810925856851" lon="7.232372532184189"><ele>1239.1999999999998</ele><time>2026-04-07T09:24:07.999Z</time></trkpt><trkpt lat="44.85799860169928" lon="7.232472914835526"><ele>1237.6</ele><time>2026-04-07T09:24:09.999Z</time></trkpt><trkpt lat="44.857916268121755" lon="7.2325501209200365"><ele>1236.0</ele><time>2026-04-07T09:24:11.999Z</time></trkpt><trkpt lat="44.857837161482145" lon="7.232664850447001"><ele>1236.0</ele><time>2026-04-07T09:24:14Z</time></trkpt><trkpt lat="44.85776392938467" lon="7.23278422793838"><ele>1236.0</ele><time>2026-04-07T09:24:16Z</time></trkpt><trkpt lat="44.857719180444995" lon="7.232849323109528"><ele>1236.0</ele><time>2026-04-07T09:24:17Z</time></trkpt><trkpt lat="44.85768287693615" lon="7.232941498890192"><ele>1236.0</ele><time>2026-04-07T09:24:18Z</time></trkpt><trkpt lat="44.85765515926767" lon="7.233028769786246"><ele>1236.0</ele><time>2026-04-07T09:24:19Z</time></trkpt><trkpt lat="44.85757073897557" lon="7.2331476965368555"><ele>1236.0</ele><time>2026-04-07T09:24:21Z</time></trkpt><trkpt lat="44.85749260929117" lon="7.233245129625589"><ele>1232.857142857143</ele><time>2026-04-07T09:24:23Z</time></trkpt><trkpt lat="44.85743719016298" lon="7.233299948518076"><ele>1229.7142857142858</ele><time>2026-04-07T09:24:24Z</time></trkpt><trkpt lat="44.857385740695875" lon="7.233360430344775"><ele>1226.5714285714284</ele><time>2026-04-07T09:24:25Z</time></trkpt><trkpt lat="44.8573342205318" lon="7.233435656472243"><ele>1223.4285714285716</ele><time>2026-04-07T09:24:26Z</time></trkpt><trkpt lat="44.85730216689101" lon="7.2335291137881645"><ele>1220.2857142857142</ele><time>2026-04-07T09:24:27Z</time></trkpt><trkpt lat="44.85726759082804" lon="7.2336222597359265"><ele>1217.142857142857</ele><time>2026-04-07T09:24:28Z</time></trkpt><trkpt lat="44.85723209770322" lon="7.23371366643011"><ele>1214.0</ele><time>2026-04-07T09:24:29Z</time></trkpt><trkpt lat="44.857188990174535" lon="7.233806921124912"><ele>1213.9999999999998</ele><time>2026-04-07T09:24:30Z</time></trkpt><trkpt lat="44.857142644456445" lon="7.233884169213647"><ele>1214.0</ele><time>2026-04-07T09:24:31Z</time></trkpt><trkpt lat="44.857096610665096" lon="7.233947392499645"><ele>1214.0</ele><time>2026-04-07T09:24:32Z</time></trkpt><trkpt lat="44.85704655187273" lon="7.234022520367791"><ele>1214.0</ele><time>2026-04-07T09:24:33Z</time></trkpt><trkpt lat="44.85698856440502" lon="7.234095600103002"><ele>1214.0</ele><time>2026-04-07T09:24:34Z</time></trkpt><trkpt lat="44.85694049148468" lon="7.2341734554913595"><ele>1213.9999999999998</ele><time>2026-04-07T09:24:35Z</time></trkpt><trkpt lat="44.8568697638365" lon="7.234245292313411"><ele>1214.0</ele><time>2026-04-07T09:24:36Z</time></trkpt><trkpt lat="44.85678273263647" lon="7.234370958587955"><ele>1210.6666666666667</ele><time>2026-04-07T09:24:38Z</time></trkpt><trkpt lat="44.85672758617412" lon="7.234435335928668"><ele>1207.3333333333335</ele><time>2026-04-07T09:24:39Z</time></trkpt><trkpt lat="44.8566763247729" lon="7.234511959536695"><ele>1204.0</ele><time>2026-04-07T09:24:40Z</time></trkpt><trkpt lat="44.856622675487756" lon="7.234574144064282"><ele>1200.6666666666667</ele><time>2026-04-07T09:24:41Z</time></trkpt><trkpt lat="44.85650894234025" lon="7.234651979693365"><ele>1197.3333333333333</ele><time>2026-04-07T09:24:43Z</time></trkpt><trkpt lat="44.856436103105786" lon="7.234706847429264"><ele>1194.0</ele><time>2026-04-07T09:24:44Z</time></trkpt><trkpt lat="44.85632765742087" lon="7.234805569313951"><ele>1192.6666666666667</ele><time>2026-04-07T09:24:46Z</time></trkpt><trkpt lat="44.856274207760414" lon="7.234864853092459"><ele>1191.3333333333333</ele><time>2026-04-07T09:24:47Z</time></trkpt><trkpt lat="44.85619251262679" lon="7.234914630591064"><ele>1190.0</ele><time>2026-04-07T09:24:48Z</time></trkpt><trkpt lat="44.856117486788854" lon="7.234950696532432"><ele>1188.6666666666665</ele><time>2026-04-07T09:24:49Z</time></trkpt><trkpt lat="44.85602523312502" lon="7.2349888920366086"><ele>1187.3333333333333</ele><time>2026-04-07T09:24:50Z</time></trkpt><trkpt lat="44.8559322173619" lon="7.235025809901209"><ele>1186.0</ele><time>2026-04-07T09:24:51Z</time></trkpt><trkpt lat="44.85582200983171" lon="7.2350488110546"><ele>1185.3999999999999</ele><time>2026-04-07T09:24:52Z</time></trkpt><trkpt lat="44.8557165555989" lon="7.23509613633325"><ele>1184.8</ele><time>2026-04-07T09:24:53Z</time></trkpt><trkpt lat="44.85562153686633" lon="7.235128321229948"><ele>1184.1999999999998</ele><time>2026-04-07T09:24:54Z</time></trkpt><trkpt lat="44.8555276421282" lon="7.235160283852064"><ele>1183.6</ele><time>2026-04-07T09:24:55Z</time></trkpt><trkpt lat="44.855431730785476" lon="7.2351685423885135"><ele>1183.0</ele><time>2026-04-07T09:24:56Z</time></trkpt><trkpt lat="44.8553257802645" lon="7.235189199483944"><ele>1183.0</ele><time>2026-04-07T09:24:57Z</time></trkpt><trkpt lat="44.8552261175273" lon="7.235218794093614"><ele>1183.0</ele><time>2026-04-07T09:24:58Z</time></trkpt><trkpt lat="44.85514153130775" lon="7.235216110512597"><ele>1183.0</ele><time>2026-04-07T09:24:59Z</time></trkpt><trkpt lat="44.85503430256306" lon="7.235239416277773"><ele>1183.0</ele><time>2026-04-07T09:25:01Z</time></trkpt><trkpt lat="44.85496907251493" lon="7.235269031038279"><ele>1183.0</ele><time>2026-04-07T09:25:02Z</time></trkpt><trkpt lat="44.85490374184172" lon="7.235332557507251"><ele>1183.0</ele><time>2026-04-07T09:25:03Z</time></trkpt><trkpt lat="44.85484743132371" lon="7.2353788228846225"><ele>1181.6666666666665</ele><time>2026-04-07T09:25:04Z</time></trkpt><trkpt lat="44.854737192556996" lon="7.23548212641274"><ele>1180.3333333333333</ele><time>2026-04-07T09:25:06Z</time></trkpt><trkpt lat="44.854695989209326" lon="7.235571172794857"><ele>1179.0</ele><time>2026-04-07T09:25:07Z</time></trkpt><trkpt lat="44.854639839117624" lon="7.235645969125184"><ele>1177.6666666666667</ele><time>2026-04-07T09:25:08Z</time></trkpt><trkpt lat="44.85459087345712" lon="7.23571008484073"><ele>1176.3333333333335</ele><time>2026-04-07T09:25:09Z</time></trkpt><trkpt lat="44.854522684088344" lon="7.235748267104058"><ele>1175.0</ele><time>2026-04-07T09:25:10Z</time></trkpt><trkpt lat="44.8544365609971" lon="7.23578579214964"><ele>1174.5</ele><time>2026-04-07T09:25:11Z</time></trkpt><trkpt lat="44.854370455403746" lon="7.235815731951916"><ele>1174.0</ele><time>2026-04-07T09:25:12Z</time></trkpt><trkpt lat="44.85428741360735" lon="7.235904423824147"><ele>1173.5</ele><time>2026-04-07T09:25:14Z</time></trkpt><trkpt lat="44.85421989437259" lon="7.235926237695776"><ele>1173.0</ele><time>2026-04-07T09:25:15Z</time></trkpt><trkpt lat="44.85415810994852" lon="7.2359441242020965"><ele>1172.5</ele><time>2026-04-07T09:25:16Z</time></trkpt><trkpt lat="44.85408101780854" lon="7.23597135341908"><ele>1172.0</ele><time>2026-04-07T09:25:17Z</time></trkpt><trkpt lat="44.85401033418544" lon="7.236027382235641"><ele>1172.0</ele><time>2026-04-07T09:25:18Z</time></trkpt><trkpt lat="44.853944741732" lon="7.236093396260374"><ele>1172.0</ele><time>2026-04-07T09:25:19Z</time></trkpt><trkpt lat="44.85389212435381" lon="7.236156816031404"><ele>1172.0</ele><time>2026-04-07T09:25:20Z</time></trkpt><trkpt lat="44.85380368941336" lon="7.236225836652453"><ele>1172.0</ele><time>2026-04-07T09:25:21.999Z</time></trkpt><trkpt lat="44.853667592839436" lon="7.23625736185114"><ele>1172.0</ele><time>2026-04-07T09:25:23.999Z</time></trkpt><trkpt lat="44.85359311036663" lon="7.236274517195644"><ele>1172.0</ele><time>2026-04-07T09:25:24.999Z</time></trkpt><trkpt lat="44.85349452293987" lon="7.236274274949259"><ele>1172.0</ele><time>2026-04-07T09:25:25.999Z</time></trkpt><trkpt lat="44.853405307082355" lon="7.236276301550246"><ele>1172.0</ele><time>2026-04-07T09:25:26.999Z</time></trkpt><trkpt lat="44.85332059248912" lon="7.2363068783702325"><ele>1172.0</ele><time>2026-04-07T09:25:27.999Z</time></trkpt><trkpt lat="44.853234318993216" lon="7.236309453081952"><ele>1172.0</ele><time>2026-04-07T09:25:28.999Z</time></trkpt><trkpt lat="44.853138405752176" lon="7.236300662331957"><ele>1170.3333333333335</ele><time>2026-04-07T09:25:29.999Z</time></trkpt><trkpt lat="44.8530471693077" lon="7.2362869315375855"><ele>1168.6666666666667</ele><time>2026-04-07T09:25:30.999Z</time></trkpt><trkpt lat="44.85296838501225" lon="7.236293098607407"><ele>1167.0</ele><time>2026-04-07T09:25:31.999Z</time></trkpt><trkpt lat="44.85289829908344" lon="7.236292489043645"><ele>1165.3333333333333</ele><time>2026-04-07T09:25:32.999Z</time></trkpt><trkpt lat="44.85282248696434" lon="7.236222330910229"><ele>1163.6666666666665</ele><time>2026-04-07T09:25:35.999Z</time></trkpt><trkpt lat="44.8528164624043" lon="7.236133755494478"><ele>1162.0</ele><time>2026-04-07T09:25:36.999Z</time></trkpt><trkpt lat="44.852837512438704" lon="7.23600218702399"><ele>1162.0</ele><time>2026-04-07T09:25:38.999Z</time></trkpt><trkpt lat="44.85285064839879" lon="7.23583031340016"><ele>1162.0</ele><time>2026-04-07T09:25:40.999Z</time></trkpt><trkpt lat="44.852870912938776" lon="7.23568200437789"><ele>1162.0</ele><time>2026-04-07T09:25:41.999Z</time></trkpt><trkpt lat="44.85288088972745" lon="7.235588011765823"><ele>1162.0</ele><time>2026-04-07T09:25:42.999Z</time></trkpt><trkpt lat="44.852881992485344" lon="7.235418131927204"><ele>1162.0</ele><time>2026-04-07T09:25:44.999Z</time></trkpt><trkpt lat="44.852900583555105" lon="7.2352623934196645"><ele>1159.6</ele><time>2026-04-07T09:25:46.999Z</time></trkpt><trkpt lat="44.85290664868522" lon="7.23506674534729"><ele>1157.2</ele><time>2026-04-07T09:25:48.999Z</time></trkpt><trkpt lat="44.85292465020474" lon="7.23497993231849"><ele>1154.8</ele><time>2026-04-07T09:25:49.999Z</time></trkpt><trkpt lat="44.85294061383172" lon="7.234814447056371"><ele>1152.4</ele><time>2026-04-07T09:25:51.999Z</time></trkpt><trkpt lat="44.85294644729217" lon="7.234715352336114"><ele>1150.0</ele><time>2026-04-07T09:25:52.999Z</time></trkpt><trkpt lat="44.85296478122737" lon="7.234613499969846"><ele>1148.0</ele><time>2026-04-07T09:25:53.999Z</time></trkpt><trkpt lat="44.852962209226405" lon="7.234449509293531"><ele>1146.0</ele><time>2026-04-07T09:25:55.999Z</time></trkpt><trkpt lat="44.85297283072987" lon="7.2343496072780304"><ele>1144.0</ele><time>2026-04-07T09:25:57.999Z</time></trkpt><trkpt lat="44.85305131521953" lon="7.234264481721874"><ele>1142.0</ele><time>2026-04-07T09:25:59.999Z</time></trkpt><trkpt lat="44.85309823650561" lon="7.234165139573666"><ele>1140.0</ele><time>2026-04-07T09:26:01.999Z</time></trkpt><trkpt lat="44.85304145118147" lon="7.234069719501125"><ele>1140.0</ele><time>2026-04-07T09:26:03.999Z</time></trkpt><trkpt lat="44.8529507223305" lon="7.2340128203289344"><ele>1140.0</ele><time>2026-04-07T09:26:05.999Z</time></trkpt><trkpt lat="44.85285649879469" lon="7.234001901539137"><ele>1140.0</ele><time>2026-04-07T09:26:07.999Z</time></trkpt><trkpt lat="44.852794673833145" lon="7.233974219370385"><ele>1140.0</ele><time>2026-04-07T09:26:08.999Z</time></trkpt><trkpt lat="44.852735777132814" lon="7.23392201984348"><ele>1140.0</ele><time>2026-04-07T09:26:09.999Z</time></trkpt><trkpt lat="44.85267917428569" lon="7.233859943686902"><ele>1140.0</ele><time>2026-04-07T09:26:10.999Z</time></trkpt><trkpt lat="44.85262318905361" lon="7.233794269868001"><ele>1135.0</ele><time>2026-04-07T09:26:11.999Z</time></trkpt><trkpt lat="44.8525206131615" lon="7.233726193757176"><ele>1130.0</ele><time>2026-04-07T09:26:13.999Z</time></trkpt><trkpt lat="44.852417948673526" lon="7.233715914142211"><ele>1125.0</ele><time>2026-04-07T09:26:15.999Z</time></trkpt><trkpt lat="44.85230796390388" lon="7.233634994376778"><ele>1120.0</ele><time>2026-04-07T09:26:17.999Z</time></trkpt><trkpt lat="44.852203260240245" lon="7.2335748695808135"><ele>1120.0</ele><time>2026-04-07T09:26:20Z</time></trkpt><trkpt lat="44.852119219750556" lon="7.233503666466793"><ele>1120.0</ele><time>2026-04-07T09:26:22Z</time></trkpt><trkpt lat="44.85202770283201" lon="7.2334423850642935"><ele>1120.0</ele><time>2026-04-07T09:26:24Z</time></trkpt><trkpt lat="44.85197929867102" lon="7.233294680024241"><ele>1120.0</ele><time>2026-04-07T09:26:26Z</time></trkpt><trkpt lat="44.85188440049096" lon="7.233243756561492"><ele>1120.0</ele><time>2026-04-07T09:26:28Z</time></trkpt><trkpt lat="44.851806630052195" lon="7.233261333367411"><ele>1118.8333333333333</ele><time>2026-04-07T09:26:29Z</time></trkpt><trkpt lat="44.851741597501544" lon="7.233292553006553"><ele>1117.6666666666665</ele><time>2026-04-07T09:26:30Z</time></trkpt><trkpt lat="44.8516621972144" lon="7.233356574251057"><ele>1116.5</ele><time>2026-04-07T09:26:32Z</time></trkpt><trkpt lat="44.85157808695172" lon="7.233345256793936"><ele>1115.3333333333333</ele><time>2026-04-07T09:26:34Z</time></trkpt><trkpt lat="44.85153374117405" lon="7.233211633250794"><ele>1114.1666666666667</ele><time>2026-04-07T09:26:36Z</time></trkpt><trkpt lat="44.851508790928534" lon="7.233114592120908"><ele>1113.0</ele><time>2026-04-07T09:26:37Z</time></trkpt><trkpt lat="44.85147196833716" lon="7.233035690271022"><ele>1109.8</ele><time>2026-04-07T09:26:38Z</time></trkpt><trkpt lat="44.85138266253185" lon="7.232922601918219"><ele>1106.6</ele><time>2026-04-07T09:26:40Z</time></trkpt><trkpt lat="44.85130766822691" lon="7.232784971782165"><ele>1103.4</ele><time>2026-04-07T09:26:42Z</time></trkpt><trkpt lat="44.851263055895544" lon="7.232714169606444"><ele>1100.2</ele><time>2026-04-07T09:26:43Z</time></trkpt><trkpt lat="44.851205823513695" lon="7.23263366812853"><ele>1097.0</ele><time>2026-04-07T09:26:44Z</time></trkpt><trkpt lat="44.85110934330505" lon="7.232499525019257"><ele>1097.0</ele><time>2026-04-07T09:26:46Z</time></trkpt><trkpt lat="44.85105800464903" lon="7.232436560247548"><ele>1097.0</ele><time>2026-04-07T09:26:47Z</time></trkpt><trkpt lat="44.851006036876676" lon="7.232368377683398"><ele>1097.0</ele><time>2026-04-07T09:26:48Z</time></trkpt><trkpt lat="44.85095187203484" lon="7.232302682950707"><ele>1097.0</ele><time>2026-04-07T09:26:49Z</time></trkpt><trkpt lat="44.85088573166507" lon="7.232226281463755"><ele>1097.0</ele><time>2026-04-07T09:26:50Z</time></trkpt><trkpt lat="44.850817799283845" lon="7.232113604238671"><ele>1097.0</ele><time>2026-04-07T09:26:52Z</time></trkpt><trkpt lat="44.850743624441904" lon="7.232001807900535"><ele>1093.0</ele><time>2026-04-07T09:26:54Z</time></trkpt><trkpt lat="44.850671298423094" lon="7.23187542568787"><ele>1089.0</ele><time>2026-04-07T09:26:56Z</time></trkpt><trkpt lat="44.85063592117493" lon="7.231794343590147"><ele>1085.0</ele><time>2026-04-07T09:26:57Z</time></trkpt><trkpt lat="44.85058108072489" lon="7.2316929592936114"><ele>1081.0</ele><time>2026-04-07T09:26:58Z</time></trkpt><trkpt lat="44.85053855539488" lon="7.231605242474909"><ele>1077.0</ele><time>2026-04-07T09:27:00Z</time></trkpt><trkpt lat="44.85053687561804" lon="7.231481091814369"><ele>1073.0</ele><time>2026-04-07T09:27:03Z</time></trkpt><trkpt lat="44.85047337064601" lon="7.231436457395137"><ele>1070.5</ele><time>2026-04-07T09:27:31.999Z</time></trkpt><trkpt lat="44.85038313268844" lon="7.231446871923991"><ele>1068.0</ele><time>2026-04-07T09:27:33.999Z</time></trkpt><trkpt lat="44.8503098974451" lon="7.231434582653777"><ele>1065.5</ele><time>2026-04-07T09:27:34.999Z</time></trkpt><trkpt lat="44.850229479439385" lon="7.231435068568533"><ele>1063.0</ele><time>2026-04-07T09:27:35.999Z</time></trkpt><trkpt lat="44.850144684750795" lon="7.231428687119177"><ele>1060.5</ele><time>2026-04-07T09:27:36.999Z</time></trkpt><trkpt lat="44.85005730889398" lon="7.231435353623686"><ele>1058.0</ele><time>2026-04-07T09:27:37.999Z</time></trkpt><trkpt lat="44.849965236540854" lon="7.231442637498938"><ele>1058.0</ele><time>2026-04-07T09:27:38.999Z</time></trkpt><trkpt lat="44.84989145673091" lon="7.23144386060913"><ele>1058.0</ele><time>2026-04-07T09:27:39.999Z</time></trkpt><trkpt lat="44.849825146983115" lon="7.231444776492387"><ele>1058.0</ele><time>2026-04-07T09:27:40.999Z</time></trkpt><trkpt lat="44.84969920215965" lon="7.231452670664616"><ele>1058.0</ele><time>2026-04-07T09:27:42.999Z</time></trkpt><trkpt lat="44.84963408275419" lon="7.231462687503355"><ele>1058.0</ele><time>2026-04-07T09:27:43.999Z</time></trkpt><trkpt lat="44.8495607224295" lon="7.231477115246722"><ele>1058.0</ele><time>2026-04-07T09:27:44.999Z</time></trkpt><trkpt lat="44.84947737000566" lon="7.2315107716257065"><ele>1059.4</ele><time>2026-04-07T09:27:45.999Z</time></trkpt><trkpt lat="44.84939951915503" lon="7.231572503761346"><ele>1060.8</ele><time>2026-04-07T09:27:46.999Z</time></trkpt><trkpt lat="44.8493136553418" lon="7.231661836373218"><ele>1062.2</ele><time>2026-04-07T09:27:47.999Z</time></trkpt><trkpt lat="44.84924796088138" lon="7.2317692369636015"><ele>1063.6</ele><time>2026-04-07T09:27:48.999Z</time></trkpt><trkpt lat="44.84919629010851" lon="7.23189254089028"><ele>1065.0</ele><time>2026-04-07T09:27:49.999Z</time></trkpt><trkpt lat="44.84916029581009" lon="7.232029003131323"><ele>1065.0</ele><time>2026-04-07T09:27:50.999Z</time></trkpt><trkpt lat="44.84914860136633" lon="7.23217668492719"><ele>1065.0</ele><time>2026-04-07T09:27:51.999Z</time></trkpt><trkpt lat="44.849130829867576" lon="7.232324119978106"><ele>1065.0</ele><time>2026-04-07T09:27:52.999Z</time></trkpt><trkpt lat="44.849127848932056" lon="7.232478209101282"><ele>1065.0</ele><time>2026-04-07T09:27:53.999Z</time></trkpt><trkpt lat="44.84912293951999" lon="7.232631966609619"><ele>1065.0</ele><time>2026-04-07T09:27:54.999Z</time></trkpt><trkpt lat="44.849129943165075" lon="7.232797303152726"><ele>1065.2</ele><time>2026-04-07T09:27:55.999Z</time></trkpt><trkpt lat="44.849104293815856" lon="7.232953121586344"><ele>1065.4</ele><time>2026-04-07T09:27:56.999Z</time></trkpt><trkpt lat="44.84909166820267" lon="7.233085783214436"><ele>1065.6</ele><time>2026-04-07T09:27:57.999Z</time></trkpt><trkpt lat="44.84908514485648" lon="7.233244376538428"><ele>1065.8</ele><time>2026-04-07T09:27:58.999Z</time></trkpt><trkpt lat="44.84910253321405" lon="7.233393955892739"><ele>1066.0</ele><time>2026-04-07T09:27:59.999Z</time></trkpt><trkpt lat="44.84911290671325" lon="7.233563407643277"><ele>1066.6</ele><time>2026-04-07T09:28:00.999Z</time></trkpt><trkpt lat="44.84910677807128" lon="7.233714601325788"><ele>1067.1999999999998</ele><time>2026-04-07T09:28:01.999Z</time></trkpt><trkpt lat="44.849090526088375" lon="7.233851010880431"><ele>1067.8000000000002</ele><time>2026-04-07T09:28:02.999Z</time></trkpt><trkpt lat="44.84906009739788" lon="7.233990735700733"><ele>1068.4</ele><time>2026-04-07T09:28:03.999Z</time></trkpt><trkpt lat="44.849035346610826" lon="7.234134976847325"><ele>1069.0</ele><time>2026-04-07T09:28:04.999Z</time></trkpt><trkpt lat="44.84901356650755" lon="7.234284208720668"><ele>1070.2</ele><time>2026-04-07T09:28:05.999Z</time></trkpt><trkpt lat="44.84898636557515" lon="7.234446652004435"><ele>1071.4</ele><time>2026-04-07T09:28:06.999Z</time></trkpt><trkpt lat="44.84896434314424" lon="7.234581393155549"><ele>1072.6</ele><time>2026-04-07T09:28:07.999Z</time></trkpt><trkpt lat="44.84895242109099" lon="7.2346962513082795"><ele>1073.8</ele><time>2026-04-07T09:28:08.999Z</time></trkpt><trkpt lat="44.8489599687448" lon="7.234819162329985"><ele>1075.0</ele><time>2026-04-07T09:28:09.999Z</time></trkpt><trkpt lat="44.84899460385926" lon="7.2349289861561115"><ele>1075.2</ele><time>2026-04-07T09:28:10.999Z</time></trkpt><trkpt lat="44.84905634853549" lon="7.235041625090172"><ele>1075.4</ele><time>2026-04-07T09:28:11.999Z</time></trkpt><trkpt lat="44.84912014495991" lon="7.235154713226948"><ele>1075.6</ele><time>2026-04-07T09:28:12.999Z</time></trkpt><trkpt lat="44.84917168832394" lon="7.235262384140886"><ele>1075.8</ele><time>2026-04-07T09:28:13.999Z</time></trkpt><trkpt lat="44.84919013779094" lon="7.235368691466162"><ele>1076.0</ele><time>2026-04-07T09:28:14.999Z</time></trkpt><trkpt lat="44.84917435270403" lon="7.235479325705509"><ele>1076.0</ele><time>2026-04-07T09:28:15.999Z</time></trkpt><trkpt lat="44.84911210426234" lon="7.2355682418225475"><ele>1076.0</ele><time>2026-04-07T09:28:16.999Z</time></trkpt><trkpt lat="44.84902975155048" lon="7.235638134759514"><ele>1076.0</ele><time>2026-04-07T09:28:17.999Z</time></trkpt><trkpt lat="44.84893301412852" lon="7.235710993282478"><ele>1076.0</ele><time>2026-04-07T09:28:18.999Z</time></trkpt><trkpt lat="44.84885226371544" lon="7.235791145198103"><ele>1076.0</ele><time>2026-04-07T09:28:19.999Z</time></trkpt><trkpt lat="44.848787582317364" lon="7.235871582198155"><ele>1075.5</ele><time>2026-04-07T09:28:20.999Z</time></trkpt><trkpt lat="44.848734369401136" lon="7.2359761812918855"><ele>1075.0</ele><time>2026-04-07T09:28:21.999Z</time></trkpt><trkpt lat="44.84868522781114" lon="7.236071988049068"><ele>1074.5</ele><time>2026-04-07T09:28:22.999Z</time></trkpt><trkpt lat="44.848643149780365" lon="7.236171966375486"><ele>1074.0</ele><time>2026-04-07T09:28:23.999Z</time></trkpt><trkpt lat="44.848624993211146" lon="7.236279242766116"><ele>1073.5</ele><time>2026-04-07T09:28:24.999Z</time></trkpt><trkpt lat="44.84860824984484" lon="7.236379690405263"><ele>1073.0</ele><time>2026-04-07T09:28:26Z</time></trkpt><trkpt lat="44.848587521845836" lon="7.236482764574141"><ele>1075.3333333333335</ele><time>2026-04-07T09:28:27Z</time></trkpt><trkpt lat="44.84856813201516" lon="7.236585849944766"><ele>1077.6666666666667</ele><time>2026-04-07T09:28:28Z</time></trkpt><trkpt lat="44.8485581894014" lon="7.236694133849926"><ele>1080.0</ele><time>2026-04-07T09:28:29Z</time></trkpt><trkpt lat="44.848534677606246" lon="7.23681481620107"><ele>1082.3333333333333</ele><time>2026-04-07T09:28:30Z</time></trkpt><trkpt lat="44.848490958288956" lon="7.236916635751554"><ele>1084.6666666666665</ele><time>2026-04-07T09:28:31Z</time></trkpt><trkpt lat="44.848433233610145" lon="7.236986622243831"><ele>1087.0</ele><time>2026-04-07T09:28:32Z</time></trkpt><trkpt lat="44.84835287705093" lon="7.23702860411501"><ele>1083.1666666666665</ele><time>2026-04-07T09:28:33Z</time></trkpt><trkpt lat="44.848257500713316" lon="7.237051634655059"><ele>1079.3333333333333</ele><time>2026-04-07T09:28:34Z</time></trkpt><trkpt lat="44.84817200492662" lon="7.237080383402028"><ele>1075.5</ele><time>2026-04-07T09:28:35Z</time></trkpt><trkpt lat="44.848093739781994" lon="7.237106703766053"><ele>1071.6666666666667</ele><time>2026-04-07T09:28:36Z</time></trkpt><trkpt lat="44.84802167208274" lon="7.237152393923426"><ele>1067.8333333333335</ele><time>2026-04-07T09:28:37Z</time></trkpt><trkpt lat="44.847955142821824" lon="7.23722315690462"><ele>1064.0</ele><time>2026-04-07T09:28:38Z</time></trkpt><trkpt lat="44.847895849022066" lon="7.237318041227392"><ele>1064.0</ele><time>2026-04-07T09:28:39Z</time></trkpt><trkpt lat="44.84783498516779" lon="7.237427739824168"><ele>1064.0</ele><time>2026-04-07T09:28:40Z</time></trkpt><trkpt lat="44.84776702101053" lon="7.237548582464709"><ele>1064.0</ele><time>2026-04-07T09:28:41Z</time></trkpt><trkpt lat="44.847691771837034" lon="7.237663504880521"><ele>1064.0</ele><time>2026-04-07T09:28:42Z</time></trkpt><trkpt lat="44.847613783953996" lon="7.237765569874711"><ele>1064.0</ele><time>2026-04-07T09:28:43Z</time></trkpt><trkpt lat="44.84753135669017" lon="7.237869019216085"><ele>1059.4</ele><time>2026-04-07T09:28:44Z</time></trkpt><trkpt lat="44.84745186510414" lon="7.2379764427160564"><ele>1054.8000000000002</ele><time>2026-04-07T09:28:45Z</time></trkpt><trkpt lat="44.84737579143859" lon="7.238090975531553"><ele>1050.1999999999998</ele><time>2026-04-07T09:28:46Z</time></trkpt><trkpt lat="44.8473071397607" lon="7.238210331827496"><ele>1045.6</ele><time>2026-04-07T09:28:47Z</time></trkpt><trkpt lat="44.84723051832897" lon="7.238324127912135"><ele>1041.0</ele><time>2026-04-07T09:28:48Z</time></trkpt><trkpt lat="44.847154605274746" lon="7.238429624704483"><ele>1041.0</ele><time>2026-04-07T09:28:49Z</time></trkpt><trkpt lat="44.84708794875302" lon="7.238534307777356"><ele>1041.0</ele><time>2026-04-07T09:28:50Z</time></trkpt><trkpt lat="44.84704184813428" lon="7.238632149999207"><ele>1041.0</ele><time>2026-04-07T09:28:51Z</time></trkpt><trkpt lat="44.84700417034668" lon="7.238739387420634"><ele>1041.0</ele><time>2026-04-07T09:28:52Z</time></trkpt><trkpt lat="44.846967876880775" lon="7.23885022937465"><ele>1041.0</ele><time>2026-04-07T09:28:53Z</time></trkpt><trkpt lat="44.846944023786094" lon="7.2389629853877135"><ele>1041.0</ele><time>2026-04-07T09:28:54Z</time></trkpt><trkpt lat="44.84692254999864" lon="7.239070746469038"><ele>1041.0</ele><time>2026-04-07T09:28:55Z</time></trkpt><trkpt lat="44.846923110831476" lon="7.239183006186978"><ele>1041.0</ele><time>2026-04-07T09:28:56Z</time></trkpt><trkpt lat="44.846950638858154" lon="7.239291292461689"><ele>1041.0</ele><time>2026-04-07T09:28:57Z</time></trkpt><trkpt lat="44.84699284276154" lon="7.239404582600025"><ele>1041.0</ele><time>2026-04-07T09:28:58Z</time></trkpt><trkpt lat="44.84704634694401" lon="7.239522006276524"><ele>1041.0</ele><time>2026-04-07T09:28:59Z</time></trkpt><trkpt lat="44.847106042154486" lon="7.239637828855539"><ele>1041.0</ele><time>2026-04-07T09:29:00Z</time></trkpt><trkpt lat="44.847163313508325" lon="7.2397501894095635"><ele>1041.0</ele><time>2026-04-07T09:29:01Z</time></trkpt><trkpt lat="44.84720661496689" lon="7.23985197020568"><ele>1041.0</ele><time>2026-04-07T09:29:02Z</time></trkpt><trkpt lat="44.847267142676614" lon="7.239928869201335"><ele>1041.0</ele><time>2026-04-07T09:29:03Z</time></trkpt><trkpt lat="44.84734236406395" lon="7.239981606042424"><ele>1041.0</ele><time>2026-04-07T09:29:04Z</time></trkpt><trkpt lat="44.847424549885" lon="7.240006936295528"><ele>1041.0</ele><time>2026-04-07T09:29:05Z</time></trkpt><trkpt lat="44.84748967972774" lon="7.240043530048674"><ele>1040.5</ele><time>2026-04-07T09:29:06Z</time></trkpt><trkpt lat="44.84755401700125" lon="7.2400494780528275"><ele>1040.0</ele><time>2026-04-07T09:29:07Z</time></trkpt><trkpt lat="44.84764584815606" lon="7.240043098141422"><ele>1039.5</ele><time>2026-04-07T09:29:09Z</time></trkpt><trkpt lat="44.84766728182403" lon="7.2401532599986105"><ele>1039.0</ele><time>2026-04-07T09:29:12Z</time></trkpt><trkpt lat="44.84755171303199" lon="7.240141801967707"><ele>1038.5</ele><time>2026-04-07T09:29:14Z</time></trkpt><trkpt lat="44.84747230788039" lon="7.240138962915059"><ele>1038.0</ele><time>2026-04-07T09:29:15Z</time></trkpt><trkpt lat="44.84738586289171" lon="7.240107636471127"><ele>1035.8</ele><time>2026-04-07T09:29:16Z</time></trkpt><trkpt lat="44.84730016459678" lon="7.240076706539169"><ele>1033.6</ele><time>2026-04-07T09:29:17Z</time></trkpt><trkpt lat="44.84721626096125" lon="7.24004970440569"><ele>1031.4</ele><time>2026-04-07T09:29:18Z</time></trkpt><trkpt lat="44.84712513951537" lon="7.2400179518238135"><ele>1029.2</ele><time>2026-04-07T09:29:19Z</time></trkpt><trkpt lat="44.847033537970155" lon="7.2399721906913985"><ele>1027.0</ele><time>2026-04-07T09:29:20Z</time></trkpt><trkpt lat="44.84694616621405" lon="7.2399167827699795"><ele>1027.0</ele><time>2026-04-07T09:29:21Z</time></trkpt><trkpt lat="44.846859607529375" lon="7.239891904524712"><ele>1027.0</ele><time>2026-04-07T09:29:22Z</time></trkpt><trkpt lat="44.846769899505475" lon="7.239885831976064"><ele>1027.0</ele><time>2026-04-07T09:29:23Z</time></trkpt><trkpt lat="44.846674566640125" lon="7.239867875916999"><ele>1027.0</ele><time>2026-04-07T09:29:24Z</time></trkpt><trkpt lat="44.84657067920335" lon="7.239877736515451"><ele>1027.0</ele><time>2026-04-07T09:29:25Z</time></trkpt><trkpt lat="44.84645603599308" lon="7.239907770276689"><ele>1024.6</ele><time>2026-04-07T09:29:26Z</time></trkpt><trkpt lat="44.84634255777563" lon="7.239941740585412"><ele>1022.2</ele><time>2026-04-07T09:29:27Z</time></trkpt><trkpt lat="44.846231921012254" lon="7.239973379029608"><ele>1019.8</ele><time>2026-04-07T09:29:28Z</time></trkpt><trkpt lat="44.8461303328154" lon="7.240011369959002"><ele>1017.4</ele><time>2026-04-07T09:29:29Z</time></trkpt><trkpt lat="44.84603037577784" lon="7.240051500436076"><ele>1015.0</ele><time>2026-04-07T09:29:30Z</time></trkpt><trkpt lat="44.84592812874281" lon="7.240065262621982"><ele>1013.2</ele><time>2026-04-07T09:29:31Z</time></trkpt><trkpt lat="44.84581821807441" lon="7.240058438213316"><ele>1011.4</ele><time>2026-04-07T09:29:32Z</time></trkpt><trkpt lat="44.8457121117096" lon="7.240029670849243"><ele>1009.5999999999999</ele><time>2026-04-07T09:29:33Z</time></trkpt><trkpt lat="44.84560612554069" lon="7.239998398326379"><ele>1007.8</ele><time>2026-04-07T09:29:34Z</time></trkpt><trkpt lat="44.84550326778992" lon="7.239966590950675"><ele>1006.0</ele><time>2026-04-07T09:29:35Z</time></trkpt><trkpt lat="44.84540404627212" lon="7.239905613850905"><ele>1006.0</ele><time>2026-04-07T09:29:36Z</time></trkpt><trkpt lat="44.84532935391142" lon="7.23982241009703"><ele>1005.9999999999999</ele><time>2026-04-07T09:29:37Z</time></trkpt><trkpt lat="44.84526962765919" lon="7.239708409376185"><ele>1005.9999999999999</ele><time>2026-04-07T09:29:37.999Z</time></trkpt><trkpt lat="44.845231159122484" lon="7.239579875679923"><ele>1006.0</ele><time>2026-04-07T09:29:38.999Z</time></trkpt><trkpt lat="44.84518993145286" lon="7.239471078056027"><ele>1006.0</ele><time>2026-04-07T09:29:39.999Z</time></trkpt><trkpt lat="44.84515047674158" lon="7.239372640537261"><ele>1004.7142857142858</ele><time>2026-04-07T09:29:40.999Z</time></trkpt><trkpt lat="44.84510105733865" lon="7.239292993375704"><ele>1003.4285714285716</ele><time>2026-04-07T09:29:41.999Z</time></trkpt><trkpt lat="44.84504632377218" lon="7.239240958500852"><ele>1002.1428571428571</ele><time>2026-04-07T09:29:42.999Z</time></trkpt><trkpt lat="44.84498379131309" lon="7.239220340692285"><ele>1000.8571428571429</ele><time>2026-04-07T09:29:43.999Z</time></trkpt><trkpt lat="44.84492070390267" lon="7.2392285284638325"><ele>999.5714285714286</ele><time>2026-04-07T09:29:44.999Z</time></trkpt><trkpt lat="44.84485357788292" lon="7.239251539356557"><ele>998.2857142857142</ele><time>2026-04-07T09:29:45.999Z</time></trkpt><trkpt lat="44.84478085307797" lon="7.239293222350525"><ele>996.9999999999999</ele><time>2026-04-07T09:29:46.999Z</time></trkpt><trkpt lat="44.84470554699" lon="7.239350782368025"><ele>997.0</ele><time>2026-04-07T09:29:47.999Z</time></trkpt><trkpt lat="44.84463607139594" lon="7.239435270943988"><ele>997.0</ele><time>2026-04-07T09:29:48.999Z</time></trkpt><trkpt lat="44.844567951760105" lon="7.239537542506679"><ele>997.0</ele><time>2026-04-07T09:29:49.999Z</time></trkpt><trkpt lat="44.84449630333177" lon="7.239657289810527"><ele>997.0</ele><time>2026-04-07T09:29:50.999Z</time></trkpt><trkpt lat="44.844433569683446" lon="7.239781720924231"><ele>997.0</ele><time>2026-04-07T09:29:51.999Z</time></trkpt><trkpt lat="44.84438075002914" lon="7.239904429176503"><ele>996.8</ele><time>2026-04-07T09:29:52.999Z</time></trkpt><trkpt lat="44.844341222507744" lon="7.240035713487646"><ele>996.6</ele><time>2026-04-07T09:29:53.999Z</time></trkpt><trkpt lat="44.844307984630625" lon="7.240173644153279"><ele>996.3999999999999</ele><time>2026-04-07T09:29:54.999Z</time></trkpt><trkpt lat="44.8442776291427" lon="7.240324858082131"><ele>996.1999999999999</ele><time>2026-04-07T09:29:55.999Z</time></trkpt><trkpt lat="44.84425560102223" lon="7.240476679464181"><ele>996.0</ele><time>2026-04-07T09:29:56.999Z</time></trkpt><trkpt lat="44.84423024349374" lon="7.240622668413892"><ele>992.8</ele><time>2026-04-07T09:29:57.999Z</time></trkpt><trkpt lat="44.8441951975931" lon="7.240760926536292"><ele>989.5999999999999</ele><time>2026-04-07T09:29:58.999Z</time></trkpt><trkpt lat="44.84415746988292" lon="7.240869854149595"><ele>986.4</ele><time>2026-04-07T09:29:59.999Z</time></trkpt><trkpt lat="44.84408851716797" lon="7.240964697339719"><ele>983.2</ele><time>2026-04-07T09:30:00.999Z</time></trkpt><trkpt lat="44.84398692671266" lon="7.2410445177037435"><ele>980.0</ele><time>2026-04-07T09:30:01.999Z</time></trkpt><trkpt lat="44.843870745296066" lon="7.2411273213495"><ele>980.0</ele><time>2026-04-07T09:30:02.999Z</time></trkpt><trkpt lat="44.8437521828164" lon="7.24121796275952"><ele>980.0</ele><time>2026-04-07T09:30:03.999Z</time></trkpt><trkpt lat="44.84362568395753" lon="7.241291634335275"><ele>980.0</ele><time>2026-04-07T09:30:04.999Z</time></trkpt><trkpt lat="44.84348965167364" lon="7.241364870906431"><ele>980.0</ele><time>2026-04-07T09:30:05.999Z</time></trkpt><trkpt lat="44.843350328923535" lon="7.241441854626354"><ele>977.0</ele><time>2026-04-07T09:30:06.999Z</time></trkpt><trkpt lat="44.84321291881664" lon="7.241522161256346"><ele>974.0</ele><time>2026-04-07T09:30:07.999Z</time></trkpt><trkpt lat="44.843076124935344" lon="7.241614046065213"><ele>971.0</ele><time>2026-04-07T09:30:08.999Z</time></trkpt><trkpt lat="44.84295026124541" lon="7.241719551947736"><ele>968.0</ele><time>2026-04-07T09:30:09.999Z</time></trkpt><trkpt lat="44.84284376756578" lon="7.241819050427422"><ele>968.0</ele><time>2026-04-07T09:30:10.999Z</time></trkpt><trkpt lat="44.84274857751228" lon="7.241901063983231"><ele>968.0</ele><time>2026-04-07T09:30:11.999Z</time></trkpt><trkpt lat="44.84265115865556" lon="7.241948850859799"><ele>968.0</ele><time>2026-04-07T09:30:12.999Z</time></trkpt><trkpt lat="44.84253654460394" lon="7.24196760302814"><ele>968.0</ele><time>2026-04-07T09:30:13.999Z</time></trkpt><trkpt lat="44.842410118851944" lon="7.2419568225703586"><ele>966.5</ele><time>2026-04-07T09:30:14.999Z</time></trkpt><trkpt lat="44.84228356099021" lon="7.241926242639906"><ele>965.0</ele><time>2026-04-07T09:30:15.999Z</time></trkpt><trkpt lat="44.84215813706894" lon="7.241908247929751"><ele>963.5</ele><time>2026-04-07T09:30:16.999Z</time></trkpt><trkpt lat="44.84204408990504" lon="7.241899002283489"><ele>962.0</ele><time>2026-04-07T09:30:17.999Z</time></trkpt><trkpt lat="44.84195307545043" lon="7.241891836637736"><ele>962.0000000000001</ele><time>2026-04-07T09:30:18.999Z</time></trkpt><trkpt lat="44.84186773639535" lon="7.2418500855008485"><ele>962.0</ele><time>2026-04-07T09:30:19.999Z</time></trkpt><trkpt lat="44.84178877655132" lon="7.24178719371924"><ele>962.0</ele><time>2026-04-07T09:30:20.999Z</time></trkpt><trkpt lat="44.84174394112002" lon="7.241680120340212"><ele>962.0</ele><time>2026-04-07T09:30:21.999Z</time></trkpt><trkpt lat="44.84167930030983" lon="7.241602455821488"><ele>962.0000000000001</ele><time>2026-04-07T09:30:22.999Z</time></trkpt><trkpt lat="44.84167332580821" lon="7.241477378537218"><ele>962.0</ele><time>2026-04-07T09:30:23.999Z</time></trkpt><trkpt lat="44.841671390511976" lon="7.24135681936626"><ele>960.3333333333334</ele><time>2026-04-07T09:30:24.999Z</time></trkpt><trkpt lat="44.84166316011322" lon="7.241223850094441"><ele>958.6666666666667</ele><time>2026-04-07T09:30:25.999Z</time></trkpt><trkpt lat="44.84169187887859" lon="7.241090648624832"><ele>957.0</ele><time>2026-04-07T09:30:26.999Z</time></trkpt><trkpt lat="44.84172014362038" lon="7.240956363075168"><ele>955.3333333333333</ele><time>2026-04-07T09:30:27.999Z</time></trkpt><trkpt lat="44.84175105644858" lon="7.24086840312792"><ele>953.6666666666666</ele><time>2026-04-07T09:30:28.999Z</time></trkpt><trkpt lat="44.84179645676584" lon="7.240793947716029"><ele>952.0</ele><time>2026-04-07T09:30:29.999Z</time></trkpt><trkpt lat="44.841891784351944" lon="7.240699684559207"><ele>950.0</ele><time>2026-04-07T09:30:32Z</time></trkpt><trkpt lat="44.841957464625224" lon="7.2406149770101935"><ele>948.0</ele><time>2026-04-07T09:30:34Z</time></trkpt><trkpt lat="44.84195928989412" lon="7.240502453267859"><ele>946.0</ele><time>2026-04-07T09:30:36Z</time></trkpt><trkpt lat="44.841856824925564" lon="7.24040451971494"><ele>944.0</ele><time>2026-04-07T09:30:38Z</time></trkpt><trkpt lat="44.84178525216764" lon="7.240422139531059"><ele>942.0</ele><time>2026-04-07T09:30:39Z</time></trkpt><trkpt lat="44.84170383222368" lon="7.24047275867277"><ele>942.0</ele><time>2026-04-07T09:30:40Z</time></trkpt><trkpt lat="44.84162554616084" lon="7.240541139046599"><ele>942.0</ele><time>2026-04-07T09:30:41Z</time></trkpt><trkpt lat="44.841569537105805" lon="7.240626679644734"><ele>942.0</ele><time>2026-04-07T09:30:42Z</time></trkpt><trkpt lat="44.84150999408929" lon="7.2406963265557955"><ele>942.0</ele><time>2026-04-07T09:30:43Z</time></trkpt><trkpt lat="44.84145029192502" lon="7.240785176016601"><ele>942.0</ele><time>2026-04-07T09:30:44Z</time></trkpt><trkpt lat="44.841386078568064" lon="7.240891801339481"><ele>942.0</ele><time>2026-04-07T09:30:45Z</time></trkpt><trkpt lat="44.84133023740723" lon="7.2410327180703025"><ele>944.0</ele><time>2026-04-07T09:30:46Z</time></trkpt><trkpt lat="44.841278470748" lon="7.241200985479702"><ele>946.0</ele><time>2026-04-07T09:30:47Z</time></trkpt><trkpt lat="44.841240533208655" lon="7.241356782791344"><ele>948.0</ele><time>2026-04-07T09:30:48Z</time></trkpt><trkpt lat="44.84123385636473" lon="7.241484351385416"><ele>950.0</ele><time>2026-04-07T09:30:49Z</time></trkpt><trkpt lat="44.841207068464634" lon="7.241578487083714"><ele>952.0</ele><time>2026-04-07T09:30:50Z</time></trkpt><trkpt lat="44.841179020230946" lon="7.241715665217307"><ele>952.4999999999999</ele><time>2026-04-07T09:30:52Z</time></trkpt><trkpt lat="44.841123419984264" lon="7.241762330013269"><ele>953.0</ele><time>2026-04-07T09:30:56Z</time></trkpt><trkpt lat="44.8410930212164" lon="7.241867405189895"><ele>953.5</ele><time>2026-04-07T09:32:39Z</time></trkpt><trkpt lat="44.841091967018684" lon="7.241984770198161"><ele>954.0</ele><time>2026-04-07T09:32:41Z</time></trkpt><trkpt lat="44.84110111691547" lon="7.242129809051554"><ele>954.4999999999999</ele><time>2026-04-07T09:32:43Z</time></trkpt><trkpt lat="44.84113770098731" lon="7.24227154182365"><ele>955.0</ele><time>2026-04-07T09:32:45Z</time></trkpt><trkpt lat="44.84118661210678" lon="7.242460056331848"><ele>954.9999999999999</ele><time>2026-04-07T09:32:47Z</time></trkpt><trkpt lat="44.841247011281396" lon="7.242602414963155"><ele>955.0</ele><time>2026-04-07T09:32:49Z</time></trkpt><trkpt lat="44.841318218357394" lon="7.242723287709104"><ele>955.0</ele><time>2026-04-07T09:32:51Z</time></trkpt><trkpt lat="44.84135107929758" lon="7.242808047200685"><ele>955.0</ele><time>2026-04-07T09:32:52Z</time></trkpt><trkpt lat="44.84140053223459" lon="7.242884323110943"><ele>954.9999999999999</ele><time>2026-04-07T09:32:53Z</time></trkpt><trkpt lat="44.8414522306981" lon="7.242959642134026"><ele>955.0</ele><time>2026-04-07T09:32:54Z</time></trkpt><trkpt lat="44.84149700602496" lon="7.243039928125288"><ele>951.0</ele><time>2026-04-07T09:32:55Z</time></trkpt><trkpt lat="44.841509157728716" lon="7.2432530723392405"><ele>947.0</ele><time>2026-04-07T09:32:57Z</time></trkpt><trkpt lat="44.84158395265025" lon="7.243385904106956"><ele>943.0</ele><time>2026-04-07T09:32:59Z</time></trkpt><trkpt lat="44.84164133181758" lon="7.243477708229858"><ele>939.0</ele><time>2026-04-07T09:33:01Z</time></trkpt><trkpt lat="44.84171893678036" lon="7.243564245517167"><ele>939.0</ele><time>2026-04-07T09:33:03Z</time></trkpt><trkpt lat="44.841753507758575" lon="7.243641990684194"><ele>939.0</ele><time>2026-04-07T09:33:04Z</time></trkpt><trkpt lat="44.841835720459166" lon="7.243753653300954"><ele>939.0</ele><time>2026-04-07T09:33:06Z</time></trkpt><trkpt lat="44.84188881487354" lon="7.243815619103969"><ele>939.0</ele><time>2026-04-07T09:33:07Z</time></trkpt><trkpt lat="44.84196074664403" lon="7.243861933216261"><ele>939.0</ele><time>2026-04-07T09:33:08Z</time></trkpt><trkpt lat="44.8420311772748" lon="7.243894821953425"><ele>939.0</ele><time>2026-04-07T09:33:09Z</time></trkpt><trkpt lat="44.842100256252714" lon="7.243946539712931"><ele>936.8571428571429</ele><time>2026-04-07T09:33:10Z</time></trkpt><trkpt lat="44.84216496787637" lon="7.243998778853912"><ele>934.7142857142857</ele><time>2026-04-07T09:33:11Z</time></trkpt><trkpt lat="44.84223543825139" lon="7.2440596448834835"><ele>932.5714285714286</ele><time>2026-04-07T09:33:12Z</time></trkpt><trkpt lat="44.842296419304596" lon="7.244109293673497"><ele>930.4285714285714</ele><time>2026-04-07T09:33:13Z</time></trkpt><trkpt lat="44.84235326672229" lon="7.244157657497027"><ele>928.2857142857142</ele><time>2026-04-07T09:33:14Z</time></trkpt><trkpt lat="44.84240636551955" lon="7.244236116416999"><ele>926.1428571428571</ele><time>2026-04-07T09:33:15Z</time></trkpt><trkpt lat="44.84246622341688" lon="7.244289869708567"><ele>924.0</ele><time>2026-04-07T09:33:16Z</time></trkpt><trkpt lat="44.84251507126446" lon="7.244354168502639"><ele>924.0</ele><time>2026-04-07T09:33:17Z</time></trkpt><trkpt lat="44.84261057362839" lon="7.244436598357701"><ele>924.0000000000001</ele><time>2026-04-07T09:33:19Z</time></trkpt><trkpt lat="44.84267353361332" lon="7.244468834147326"><ele>924.0000000000001</ele><time>2026-04-07T09:33:20Z</time></trkpt><trkpt lat="44.84277426352646" lon="7.244521698721759"><ele>924.0</ele><time>2026-04-07T09:33:22Z</time></trkpt><trkpt lat="44.84286440830065" lon="7.244554830018326"><ele>924.0</ele><time>2026-04-07T09:33:24Z</time></trkpt><trkpt lat="44.842951225151666" lon="7.24452268109796"><ele>922.4000000000001</ele><time>2026-04-07T09:33:26Z</time></trkpt><trkpt lat="44.84304074234953" lon="7.244401333925576"><ele>920.8000000000001</ele><time>2026-04-07T09:33:28Z</time></trkpt><trkpt lat="44.84315800438686" lon="7.244328339471103"><ele>919.1999999999999</ele><time>2026-04-07T09:33:30Z</time></trkpt><trkpt lat="44.8432209872866" lon="7.2442837330292535"><ele>917.5999999999999</ele><time>2026-04-07T09:33:31Z</time></trkpt><trkpt lat="44.84328466231018" lon="7.244238887750157"><ele>916.0</ele><time>2026-04-07T09:33:32Z</time></trkpt><trkpt lat="44.843404730017504" lon="7.244174281639607"><ele>915.9999999999999</ele><time>2026-04-07T09:33:34Z</time></trkpt><trkpt lat="44.843458690304644" lon="7.244110336183742"><ele>916.0</ele><time>2026-04-07T09:33:35Z</time></trkpt><trkpt lat="44.84352433945519" lon="7.244022031868519"><ele>916.0</ele><time>2026-04-07T09:33:37Z</time></trkpt><trkpt lat="44.843589663328515" lon="7.243987449858937"><ele>916.0</ele><time>2026-04-07T09:33:39Z</time></trkpt><trkpt lat="44.84365857232575" lon="7.244075111869874"><ele>915.9999999999999</ele><time>2026-04-07T09:33:43Z</time></trkpt><trkpt lat="44.8436770849555" lon="7.244190073729207"><ele>916.0</ele><time>2026-04-07T09:33:45Z</time></trkpt><trkpt lat="44.84369744218255" lon="7.2443776171772285"><ele>911.3333333333333</ele><time>2026-04-07T09:33:47Z</time></trkpt><trkpt lat="44.84369768476606" lon="7.244485078137042"><ele>906.6666666666666</ele><time>2026-04-07T09:33:48Z</time></trkpt><trkpt lat="44.84374556607471" lon="7.244565178410914"><ele>902.0</ele><time>2026-04-07T09:33:49.999Z</time></trkpt><trkpt lat="44.84381978957055" lon="7.2446193299659685"><ele>897.3333333333333</ele><time>2026-04-07T09:33:51.999Z</time></trkpt><trkpt lat="44.84390898661722" lon="7.244634145800484"><ele>892.6666666666666</ele><time>2026-04-07T09:33:53.999Z</time></trkpt><trkpt lat="44.843995013338976" lon="7.244580206197824"><ele>888.0</ele><time>2026-04-07T09:33:55.999Z</time></trkpt><trkpt lat="44.84406352965001" lon="7.244475650676158"><ele>888.0</ele><time>2026-04-07T09:33:57.999Z</time></trkpt><trkpt lat="44.84407114069294" lon="7.244345984364111"><ele>888.0</ele><time>2026-04-07T09:33:59.999Z</time></trkpt><trkpt lat="44.84411081308241" lon="7.24424792347438"><ele>888.0</ele><time>2026-04-07T09:34:02.999Z</time></trkpt><trkpt lat="44.84416116394969" lon="7.24433414757219"><ele>888.0</ele><time>2026-04-07T09:34:06.999Z</time></trkpt><trkpt lat="44.84416079179837" lon="7.244459035512016"><ele>888.0</ele><time>2026-04-07T09:34:08.999Z</time></trkpt><trkpt lat="44.84417446773227" lon="7.244585187736751"><ele>888.0</ele><time>2026-04-07T09:34:10.999Z</time></trkpt><trkpt lat="44.844152757076586" lon="7.244690507373781"><ele>886.4</ele><time>2026-04-07T09:34:11.999Z</time></trkpt><trkpt lat="44.84413740938095" lon="7.244858247349977"><ele>884.8</ele><time>2026-04-07T09:34:13.999Z</time></trkpt><trkpt lat="44.844093800577056" lon="7.2450028437021805"><ele>883.2</ele><time>2026-04-07T09:34:15.999Z</time></trkpt><trkpt lat="44.844056334529306" lon="7.245087950166017"><ele>881.6</ele><time>2026-04-07T09:34:16.999Z</time></trkpt><trkpt lat="44.843967679808706" lon="7.245196965077946"><ele>880.0</ele><time>2026-04-07T09:34:18.999Z</time></trkpt><trkpt lat="44.8438417046082" lon="7.245269143229147"><ele>879.9999999999999</ele><time>2026-04-07T09:34:20.999Z</time></trkpt><trkpt lat="44.84377134323985" lon="7.245314042395516"><ele>880.0</ele><time>2026-04-07T09:34:21.999Z</time></trkpt><trkpt lat="44.84370336615819" lon="7.245339337967683"><ele>880.0</ele><time>2026-04-07T09:34:22.999Z</time></trkpt><trkpt lat="44.8436353278979" lon="7.245367939974113"><ele>880.0</ele><time>2026-04-07T09:34:23.999Z</time></trkpt><trkpt lat="44.84357556669093" lon="7.245400639878046"><ele>879.9999999999999</ele><time>2026-04-07T09:34:24.999Z</time></trkpt><trkpt lat="44.84346285414007" lon="7.245446097899269"><ele>880.0</ele><time>2026-04-07T09:34:26.999Z</time></trkpt><trkpt lat="44.84336867157258" lon="7.245510085043356"><ele>883.8</ele><time>2026-04-07T09:34:28.999Z</time></trkpt><trkpt lat="44.84328553685726" lon="7.245550243236898"><ele>887.6</ele><time>2026-04-07T09:34:30.999Z</time></trkpt><trkpt lat="44.843191007820124" lon="7.245485090413243"><ele>891.4000000000001</ele><time>2026-04-07T09:34:32.999Z</time></trkpt><trkpt lat="44.84312680235972" lon="7.24544415308807"><ele>895.2</ele><time>2026-04-07T09:34:33.999Z</time></trkpt><trkpt lat="44.84306357346185" lon="7.245403493922685"><ele>899.0</ele><time>2026-04-07T09:34:34.999Z</time></trkpt><trkpt lat="44.84294812051337" lon="7.245348063924792"><ele>899.0</ele><time>2026-04-07T09:34:36.999Z</time></trkpt><trkpt lat="44.842835314437224" lon="7.245323020324404"><ele>899.0000000000001</ele><time>2026-04-07T09:34:38.999Z</time></trkpt><trkpt lat="44.8427222347005" lon="7.2452491558037595"><ele>899.0000000000001</ele><time>2026-04-07T09:34:40.999Z</time></trkpt><trkpt lat="44.84261443727286" lon="7.245158966198937"><ele>899.0</ele><time>2026-04-07T09:34:42.999Z</time></trkpt><trkpt lat="44.8425488785606" lon="7.245129975927549"><ele>899.0</ele><time>2026-04-07T09:34:44Z</time></trkpt><trkpt lat="44.842417558707524" lon="7.245070804932326"><ele>897.2</ele><time>2026-04-07T09:34:46Z</time></trkpt><trkpt lat="44.84235598010178" lon="7.245046330125797"><ele>895.4000000000001</ele><time>2026-04-07T09:34:47Z</time></trkpt><trkpt lat="44.84224275229476" lon="7.245042491139937"><ele>893.6</ele><time>2026-04-07T09:34:49Z</time></trkpt><trkpt lat="44.84216485445243" lon="7.245055920568716"><ele>891.8</ele><time>2026-04-07T09:34:50Z</time></trkpt><trkpt lat="44.84203895013568" lon="7.245041330384072"><ele>890.0</ele><time>2026-04-07T09:34:52Z</time></trkpt><trkpt lat="44.84192503689871" lon="7.245046740608876"><ele>890.0000000000001</ele><time>2026-04-07T09:34:54Z</time></trkpt><trkpt lat="44.84186518249713" lon="7.245019214783334"><ele>890.0</ele><time>2026-04-07T09:34:55Z</time></trkpt><trkpt lat="44.84179830833868" lon="7.244990185481824"><ele>890.0</ele><time>2026-04-07T09:34:56Z</time></trkpt><trkpt lat="44.841738959877404" lon="7.2449539515601975"><ele>890.0</ele><time>2026-04-07T09:34:57Z</time></trkpt><trkpt lat="44.84166661825278" lon="7.244890835257362"><ele>890.0000000000001</ele><time>2026-04-07T09:34:58Z</time></trkpt><trkpt lat="44.841599649523495" lon="7.24486414775332"><ele>890.0</ele><time>2026-04-07T09:34:59Z</time></trkpt><trkpt lat="44.84150022434468" lon="7.244762365909002"><ele>892.8333333333334</ele><time>2026-04-07T09:35:01Z</time></trkpt><trkpt lat="44.84144113181963" lon="7.244716413924971"><ele>895.6666666666667</ele><time>2026-04-07T09:35:02Z</time></trkpt><trkpt lat="44.841376211385665" lon="7.244707898058722"><ele>898.5</ele><time>2026-04-07T09:35:03Z</time></trkpt><trkpt lat="44.84128964421714" lon="7.2446523668024465"><ele>901.3333333333333</ele><time>2026-04-07T09:35:05Z</time></trkpt><trkpt lat="44.8412110742846" lon="7.244515419797373"><ele>904.1666666666666</ele><time>2026-04-07T09:35:07Z</time></trkpt><trkpt lat="44.841177722200015" lon="7.2444383587209105"><ele>907.0</ele><time>2026-04-07T09:35:08Z</time></trkpt><trkpt lat="44.841117474008435" lon="7.244291394840372"><ele>907.0</ele><time>2026-04-07T09:35:10Z</time></trkpt><trkpt lat="44.841040606797385" lon="7.244182592511327"><ele>907.0</ele><time>2026-04-07T09:35:12Z</time></trkpt><trkpt lat="44.84094327736703" lon="7.244162737817475"><ele>907.0</ele><time>2026-04-07T09:35:15Z</time></trkpt><trkpt lat="44.84086080638865" lon="7.244204506916211"><ele>907.0</ele><time>2026-04-07T09:35:17Z</time></trkpt><trkpt lat="44.840793453046814" lon="7.244205029985143"><ele>907.0</ele><time>2026-04-07T09:35:18Z</time></trkpt><trkpt lat="44.84069947827669" lon="7.244205159173898"><ele>903.1666666666666</ele><time>2026-04-07T09:35:19Z</time></trkpt><trkpt lat="44.840613857237145" lon="7.244201931100534"><ele>899.3333333333333</ele><time>2026-04-07T09:35:20Z</time></trkpt><trkpt lat="44.840534393915945" lon="7.244183876780924"><ele>895.5</ele><time>2026-04-07T09:35:21Z</time></trkpt><trkpt lat="44.840444370157954" lon="7.244186576813007"><ele>891.6666666666667</ele><time>2026-04-07T09:35:22Z</time></trkpt><trkpt lat="44.84037987148412" lon="7.244197100059366"><ele>887.8333333333334</ele><time>2026-04-07T09:35:23Z</time></trkpt><trkpt lat="44.840318004250484" lon="7.244222261014757"><ele>884.0</ele><time>2026-04-07T09:35:24Z</time></trkpt><trkpt lat="44.840252299485556" lon="7.244288609374413"><ele>884.0000000000001</ele><time>2026-04-07T09:35:26Z</time></trkpt><trkpt lat="44.84016622915743" lon="7.244360706084733"><ele>884.0</ele><time>2026-04-07T09:35:32Z</time></trkpt><trkpt lat="44.84009363494501" lon="7.2444898992179585"><ele>884.0</ele><time>2026-04-07T09:35:34Z</time></trkpt><trkpt lat="44.840045594281555" lon="7.244562496745737"><ele>884.0</ele><time>2026-04-07T09:35:35Z</time></trkpt><trkpt lat="44.83998503147986" lon="7.24463975850081"><ele>884.0000000000001</ele><time>2026-04-07T09:35:36Z</time></trkpt><trkpt lat="44.839918871181524" lon="7.244695825252495"><ele>884.0</ele><time>2026-04-07T09:35:37Z</time></trkpt><trkpt lat="44.839863468539" lon="7.244758487418856"><ele>879.6666666666667</ele><time>2026-04-07T09:35:38Z</time></trkpt><trkpt lat="44.839801267874925" lon="7.244799322775195"><ele>875.3333333333334</ele><time>2026-04-07T09:35:39Z</time></trkpt><trkpt lat="44.83974448622673" lon="7.244843240567125"><ele>871.0</ele><time>2026-04-07T09:35:40Z</time></trkpt><trkpt lat="44.83967354193728" lon="7.244907236533075"><ele>866.6666666666667</ele><time>2026-04-07T09:35:42Z</time></trkpt><trkpt lat="44.83958255504835" lon="7.244993046935576"><ele>862.3333333333334</ele><time>2026-04-07T09:35:44Z</time></trkpt><trkpt lat="44.83951964174716" lon="7.245034567711626"><ele>858.0</ele><time>2026-04-07T09:35:45Z</time></trkpt><trkpt lat="44.839448174146256" lon="7.245078239628283"><ele>858.0</ele><time>2026-04-07T09:35:46Z</time></trkpt><trkpt lat="44.839375752372334" lon="7.245132723717993"><ele>858.0</ele><time>2026-04-07T09:35:47Z</time></trkpt><trkpt lat="44.83931214815538" lon="7.245202655734243"><ele>858.0</ele><time>2026-04-07T09:35:48Z</time></trkpt><trkpt lat="44.839248545562306" lon="7.245220767732246"><ele>858.0</ele><time>2026-04-07T09:35:49Z</time></trkpt><trkpt lat="44.83919585509135" lon="7.245271631476805"><ele>858.0</ele><time>2026-04-07T09:35:50Z</time></trkpt><trkpt lat="44.83913130109366" lon="7.245389385706734"><ele>858.0</ele><time>2026-04-07T09:35:52Z</time></trkpt><trkpt lat="44.83907826499008" lon="7.245444835557752"><ele>858.3333333333334</ele><time>2026-04-07T09:35:53Z</time></trkpt><trkpt lat="44.839020069111356" lon="7.245527859363745"><ele>858.6666666666667</ele><time>2026-04-07T09:35:54Z</time></trkpt><trkpt lat="44.83896221231416" lon="7.2455931628842665"><ele>859.0</ele><time>2026-04-07T09:35:55Z</time></trkpt><trkpt lat="44.8389229239504" lon="7.245670282082341"><ele>859.3333333333334</ele><time>2026-04-07T09:35:55.999Z</time></trkpt><trkpt lat="44.83881757565809" lon="7.245746937593084"><ele>859.6666666666667</ele><time>2026-04-07T09:35:57.999Z</time></trkpt><trkpt lat="44.83874487179598" lon="7.2457680774040005"><ele>860.0</ele><time>2026-04-07T09:35:58.999Z</time></trkpt><trkpt lat="44.83867644042078" lon="7.2457944720634275"><ele>860.0</ele><time>2026-04-07T09:35:59.999Z</time></trkpt><trkpt lat="44.83859515392917" lon="7.245807556518155"><ele>860.0</ele><time>2026-04-07T09:36:00.999Z</time></trkpt><trkpt lat="44.83851887399362" lon="7.245830743101124"><ele>860.0</ele><time>2026-04-07T09:36:01.999Z</time></trkpt><trkpt lat="44.83842560013985" lon="7.245837615886307"><ele>860.0</ele><time>2026-04-07T09:36:03.999Z</time></trkpt><trkpt lat="44.83836291618036" lon="7.24574324913514"><ele>860.0</ele><time>2026-04-07T09:36:05.999Z</time></trkpt><trkpt lat="44.838299127116414" lon="7.2455834233125085"><ele>865.8333333333334</ele><time>2026-04-07T09:36:07.999Z</time></trkpt><trkpt lat="44.838237363009014" lon="7.2454750093386595"><ele>871.6666666666667</ele><time>2026-04-07T09:36:08.999Z</time></trkpt><trkpt lat="44.83820434677477" lon="7.245392361133374"><ele>877.5</ele><time>2026-04-07T09:36:09.999Z</time></trkpt><trkpt lat="44.8381371172395" lon="7.245280731502021"><ele>883.3333333333333</ele><time>2026-04-07T09:36:10.999Z</time></trkpt><trkpt lat="44.838096240000844" lon="7.245204183345637"><ele>889.1666666666666</ele><time>2026-04-07T09:36:11.999Z</time></trkpt><trkpt lat="44.838053165475436" lon="7.24512665733234"><ele>895.0</ele><time>2026-04-07T09:36:12.999Z</time></trkpt><trkpt lat="44.83802591244713" lon="7.245023897547381"><ele>894.9999999999999</ele><time>2026-04-07T09:36:13.999Z</time></trkpt><trkpt lat="44.83796976371144" lon="7.244960511904606"><ele>895.0</ele><time>2026-04-07T09:36:14.999Z</time></trkpt><trkpt lat="44.83791614986511" lon="7.24490484303447"><ele>895.0</ele><time>2026-04-07T09:36:15.999Z</time></trkpt><trkpt lat="44.83785605186743" lon="7.244858179674524"><ele>895.0</ele><time>2026-04-07T09:36:16.999Z</time></trkpt><trkpt lat="44.837800058999356" lon="7.244776111497745"><ele>894.9999999999999</ele><time>2026-04-07T09:36:17.999Z</time></trkpt><trkpt lat="44.83775741111768" lon="7.2446669031079445"><ele>895.0</ele><time>2026-04-07T09:36:18.999Z</time></trkpt><trkpt lat="44.83770832077599" lon="7.244582233350981"><ele>895.2</ele><time>2026-04-07T09:36:19.999Z</time></trkpt><trkpt lat="44.837669958361595" lon="7.244503527359348"><ele>895.4</ele><time>2026-04-07T09:36:20.999Z</time></trkpt><trkpt lat="44.837641366554095" lon="7.244370995441727"><ele>895.5999999999999</ele><time>2026-04-07T09:36:22.999Z</time></trkpt><trkpt lat="44.837528096321634" lon="7.244345280573349"><ele>895.8</ele><time>2026-04-07T09:36:24.999Z</time></trkpt><trkpt lat="44.83741684575538" lon="7.244312577264736"><ele>896.0</ele><time>2026-04-07T09:36:26.999Z</time></trkpt><trkpt lat="44.83730836557839" lon="7.244377765685674"><ele>896.0</ele><time>2026-04-07T09:36:28.999Z</time></trkpt><trkpt lat="44.83721672796754" lon="7.244506233212998"><ele>895.9999999999999</ele><time>2026-04-07T09:36:30.999Z</time></trkpt><trkpt lat="44.837126548792476" lon="7.244562728849794"><ele>895.9999999999999</ele><time>2026-04-07T09:36:32.999Z</time></trkpt><trkpt lat="44.837059654271584" lon="7.2445762803921445"><ele>896.0</ele><time>2026-04-07T09:36:34.999Z</time></trkpt><trkpt lat="44.83699787318409" lon="7.244556643944766"><ele>896.0</ele><time>2026-04-07T09:36:39.999Z</time></trkpt><trkpt lat="44.836898587444814" lon="7.24458747979596"><ele>893.1666666666667</ele><time>2026-04-07T09:36:45.999Z</time></trkpt><trkpt lat="44.836787627771095" lon="7.244613528776854"><ele>890.3333333333334</ele><time>2026-04-07T09:36:47.999Z</time></trkpt><trkpt lat="44.83669241933066" lon="7.244591836241772"><ele>887.5</ele><time>2026-04-07T09:36:50Z</time></trkpt><trkpt lat="44.83660922966287" lon="7.2445542749471965"><ele>884.6666666666667</ele><time>2026-04-07T09:36:52Z</time></trkpt><trkpt lat="44.83654575716734" lon="7.244590212120929"><ele>881.8333333333334</ele><time>2026-04-07T09:36:54Z</time></trkpt><trkpt lat="44.83647575991716" lon="7.244653521535659"><ele>879.0</ele><time>2026-04-07T09:36:56Z</time></trkpt><trkpt lat="44.83644383847454" lon="7.244738191801297"><ele>878.3333333333334</ele><time>2026-04-07T09:36:58Z</time></trkpt><trkpt lat="44.8363746706393" lon="7.244824117922031"><ele>877.6666666666667</ele><time>2026-04-07T09:37:01Z</time></trkpt><trkpt lat="44.83632748498304" lon="7.244887239897024"><ele>877.0</ele><time>2026-04-07T09:37:03Z</time></trkpt><trkpt lat="44.83629107436558" lon="7.245001670480292"><ele>876.3333333333334</ele><time>2026-04-07T09:37:06Z</time></trkpt><trkpt lat="44.83622034040701" lon="7.245084273699899"><ele>875.6666666666667</ele><time>2026-04-07T09:37:08Z</time></trkpt><trkpt lat="44.836174956048275" lon="7.245197059500011"><ele>875.0</ele><time>2026-04-07T09:37:11Z</time></trkpt><trkpt lat="44.836117207556256" lon="7.245239362983956"><ele>875.0</ele><time>2026-04-07T09:37:13Z</time></trkpt><trkpt lat="44.836062170981755" lon="7.2453041088562165"><ele>875.0</ele><time>2026-04-07T09:37:15Z</time></trkpt><trkpt lat="44.836036103198204" lon="7.245392400620496"><ele>875.0</ele><time>2026-04-07T09:37:17Z</time></trkpt><trkpt lat="44.83602149585113" lon="7.245525003154439"><ele>875.0</ele><time>2026-04-07T09:37:19Z</time></trkpt><trkpt lat="44.83599409611967" lon="7.245698104412493"><ele>875.0</ele><time>2026-04-07T09:37:21Z</time></trkpt><trkpt lat="44.835960744274594" lon="7.245817518463138"><ele>871.5</ele><time>2026-04-07T09:37:22Z</time></trkpt><trkpt lat="44.83593378146566" lon="7.245946866673156"><ele>868.0</ele><time>2026-04-07T09:37:23Z</time></trkpt><trkpt lat="44.83589477371543" lon="7.2461224736035295"><ele>864.5</ele><time>2026-04-07T09:37:24Z</time></trkpt><trkpt lat="44.8358575037705" lon="7.246322978984907"><ele>861.0</ele><time>2026-04-07T09:37:25Z</time></trkpt><trkpt lat="44.83582366011955" lon="7.246527335412329"><ele>859.5</ele><time>2026-04-07T09:37:26Z</time></trkpt><trkpt lat="44.835789423575996" lon="7.246688340465448"><ele>858.0</ele><time>2026-04-07T09:37:27Z</time></trkpt><trkpt lat="44.83575196297422" lon="7.246808008243363"><ele>856.5</ele><time>2026-04-07T09:37:28Z</time></trkpt><trkpt lat="44.83572194740271" lon="7.246895626428055"><ele>855.0</ele><time>2026-04-07T09:37:29Z</time></trkpt><trkpt lat="44.835673188074836" lon="7.246978255918809"><ele>853.5</ele><time>2026-04-07T09:37:30Z</time></trkpt><trkpt lat="44.83560075993905" lon="7.2470216847737134"><ele>852.0</ele><time>2026-04-07T09:37:31Z</time></trkpt><trkpt lat="44.835515945223634" lon="7.2470764022926595"><ele>852.0</ele><time>2026-04-07T09:37:32Z</time></trkpt><trkpt lat="44.8354610291798" lon="7.247134813990386"><ele>852.0</ele><time>2026-04-07T09:37:33Z</time></trkpt><trkpt lat="44.83541461576224" lon="7.2472138541488835"><ele>852.0</ele><time>2026-04-07T09:37:34Z</time></trkpt><trkpt lat="44.835359284797796" lon="7.247303652441338"><ele>852.0</ele><time>2026-04-07T09:37:35Z</time></trkpt><trkpt lat="44.83531589701884" lon="7.247377207871876"><ele>852.0</ele><time>2026-04-07T09:37:36Z</time></trkpt><trkpt lat="44.835274025260304" lon="7.247452406296965"><ele>852.0</ele><time>2026-04-07T09:37:37Z</time></trkpt><trkpt lat="44.835197169132435" lon="7.247583663861242"><ele>850.6</ele><time>2026-04-07T09:37:39Z</time></trkpt><trkpt lat="44.835110126462105" lon="7.247694938451866"><ele>849.2</ele><time>2026-04-07T09:37:41Z</time></trkpt><trkpt lat="44.83506544578601" lon="7.247766429863756"><ele>847.8</ele><time>2026-04-07T09:37:42Z</time></trkpt><trkpt lat="44.83498426588681" lon="7.247890800350409"><ele>846.4</ele><time>2026-04-07T09:37:44Z</time></trkpt><trkpt lat="44.83491072045949" lon="7.248001731439474"><ele>845.0</ele><time>2026-04-07T09:37:46Z</time></trkpt><trkpt lat="44.834821514230896" lon="7.248105324021167"><ele>844.0000000000001</ele><time>2026-04-07T09:37:48Z</time></trkpt><trkpt lat="44.834765164635485" lon="7.248150416443724"><ele>843.0</ele><time>2026-04-07T09:37:49Z</time></trkpt><trkpt lat="44.83470249556586" lon="7.248160396686065"><ele>842.0</ele><time>2026-04-07T09:37:50Z</time></trkpt><trkpt lat="44.83461298295868" lon="7.248248950654529"><ele>841.0</ele><time>2026-04-07T09:37:52Z</time></trkpt><trkpt lat="44.83452340461491" lon="7.248322003608639"><ele>840.0000000000001</ele><time>2026-04-07T09:37:54Z</time></trkpt><trkpt lat="44.834470964216315" lon="7.248445549311449"><ele>839.0</ele><time>2026-04-07T09:37:56Z</time></trkpt><trkpt lat="44.834409118341505" lon="7.248611684902204"><ele>839.0000000000001</ele><time>2026-04-07T09:37:58Z</time></trkpt><trkpt lat="44.83437007705315" lon="7.24868776731658"><ele>839.0</ele><time>2026-04-07T09:37:59Z</time></trkpt><trkpt lat="44.83430895048505" lon="7.248801057283334"><ele>839.0</ele><time>2026-04-07T09:38:00.999Z</time></trkpt><trkpt lat="44.8342597436049" lon="7.2488881964996725"><ele>839.0</ele><time>2026-04-07T09:38:02.999Z</time></trkpt><trkpt lat="44.83421481165908" lon="7.248967764189344"><ele>839.0000000000001</ele><time>2026-04-07T09:38:04.999Z</time></trkpt><trkpt lat="44.83415619012115" lon="7.249001236799161"><ele>839.0</ele><time>2026-04-07T09:38:06.999Z</time></trkpt><trkpt lat="44.834156898135944" lon="7.248887623880686"><ele>836.2</ele><time>2026-04-07T09:38:08.999Z</time></trkpt><trkpt lat="44.83411397207655" lon="7.249073816503706"><ele>833.4000000000001</ele><time>2026-04-07T09:38:10.999Z</time></trkpt><trkpt lat="44.834081303825045" lon="7.248901679699484"><ele>830.6</ele><time>2026-04-07T09:38:12.999Z</time></trkpt><trkpt lat="44.834057562773175" lon="7.248802298075845"><ele>827.8</ele><time>2026-04-07T09:38:13.999Z</time></trkpt><trkpt lat="44.83402950194056" lon="7.248708752924793"><ele>825.0</ele><time>2026-04-07T09:38:14.999Z</time></trkpt><trkpt lat="44.83400282399868" lon="7.248624382978704"><ele>824.1666666666666</ele><time>2026-04-07T09:38:15.999Z</time></trkpt><trkpt lat="44.8339388666198" lon="7.248502651067191"><ele>823.3333333333333</ele><time>2026-04-07T09:38:17.999Z</time></trkpt><trkpt lat="44.83388094642406" lon="7.24846142562837"><ele>822.5</ele><time>2026-04-07T09:38:18.999Z</time></trkpt><trkpt lat="44.83380666886497" lon="7.248429332301877"><ele>821.6666666666666</ele><time>2026-04-07T09:38:19.999Z</time></trkpt><trkpt lat="44.8337199505912" lon="7.248394671290041"><ele>820.8333333333333</ele><time>2026-04-07T09:38:20.999Z</time></trkpt><trkpt lat="44.83363485360879" lon="7.24835950982169"><ele>820.0</ele><time>2026-04-07T09:38:21.999Z</time></trkpt><trkpt lat="44.83355329955102" lon="7.24832243110099"><ele>819.9999999999999</ele><time>2026-04-07T09:38:22.999Z</time></trkpt><trkpt lat="44.83347296565056" lon="7.2482906086359336"><ele>820.0</ele><time>2026-04-07T09:38:23.999Z</time></trkpt><trkpt lat="44.83339787699859" lon="7.248267239621551"><ele>820.0</ele><time>2026-04-07T09:38:24.999Z</time></trkpt><trkpt lat="44.83334016801747" lon="7.248205883590238"><ele>820.0</ele><time>2026-04-07T09:38:25.999Z</time></trkpt><trkpt lat="44.83327671270377" lon="7.248176566453202"><ele>819.9999999999999</ele><time>2026-04-07T09:38:26.999Z</time></trkpt><trkpt lat="44.83321263768713" lon="7.248170401110786"><ele>820.0</ele><time>2026-04-07T09:38:28.999Z</time></trkpt><trkpt lat="44.83312273127798" lon="7.248123411423274"><ele>817.3333333333333</ele><time>2026-04-07T09:38:31.999Z</time></trkpt><trkpt lat="44.833031668571074" lon="7.248175673791013"><ele>814.6666666666666</ele><time>2026-04-07T09:38:34.999Z</time></trkpt><trkpt lat="44.83296442716149" lon="7.248250016401148"><ele>812.0</ele><time>2026-04-07T09:38:36.999Z</time></trkpt><trkpt lat="44.832908523832266" lon="7.248341468666873"><ele>809.3333333333333</ele><time>2026-04-07T09:38:38.999Z</time></trkpt><trkpt lat="44.83283533229358" lon="7.248411975569701"><ele>806.6666666666666</ele><time>2026-04-07T09:38:40.999Z</time></trkpt><trkpt lat="44.83275703339597" lon="7.2483994813706705"><ele>804.0</ele><time>2026-04-07T09:38:42.999Z</time></trkpt><trkpt lat="44.83271078972651" lon="7.248294593243132"><ele>804.0</ele><time>2026-04-07T09:38:44.999Z</time></trkpt><trkpt lat="44.83266861150044" lon="7.2481550613508325"><ele>804.0</ele><time>2026-04-07T09:38:46.999Z</time></trkpt><trkpt lat="44.832641950383945" lon="7.248025539561729"><ele>804.0</ele><time>2026-04-07T09:38:48.999Z</time></trkpt><trkpt lat="44.832597581498064" lon="7.2478698969585755"><ele>804.0</ele><time>2026-04-07T09:38:50.999Z</time></trkpt><trkpt lat="44.83256723021982" lon="7.247788544860704"><ele>804.0</ele><time>2026-04-07T09:38:53.999Z</time></trkpt><trkpt lat="44.83253293568344" lon="7.247697667920784"><ele>800.8000000000001</ele><time>2026-04-07T09:38:56Z</time></trkpt><trkpt lat="44.832467398819034" lon="7.247756902993067"><ele>797.6</ele><time>2026-04-07T09:38:59Z</time></trkpt><trkpt lat="44.83242308191542" lon="7.247891234410367"><ele>794.4</ele><time>2026-04-07T09:39:01Z</time></trkpt><trkpt lat="44.832380790966944" lon="7.2480287359864635"><ele>791.2</ele><time>2026-04-07T09:39:03Z</time></trkpt><trkpt lat="44.83232590775169" lon="7.24818055504241"><ele>788.0</ele><time>2026-04-07T09:39:05Z</time></trkpt><trkpt lat="44.83231306211367" lon="7.248334161829937"><ele>788.0</ele><time>2026-04-07T09:39:07Z</time></trkpt><trkpt lat="44.832258810216025" lon="7.248474274155218"><ele>788.0</ele><time>2026-04-07T09:39:09Z</time></trkpt><trkpt lat="44.83223015577351" lon="7.248556209770833"><ele>788.0</ele><time>2026-04-07T09:39:10Z</time></trkpt><trkpt lat="44.83212920816384" lon="7.2486328764507295"><ele>788.0</ele><time>2026-04-07T09:39:12Z</time></trkpt><trkpt lat="44.83207196804047" lon="7.248788077850404"><ele>788.0</ele><time>2026-04-07T09:39:14Z</time></trkpt><trkpt lat="44.832055809884686" lon="7.2488751295097655"><ele>788.4</ele><time>2026-04-07T09:39:15Z</time></trkpt><trkpt lat="44.832030153109514" lon="7.249021169564751"><ele>788.8</ele><time>2026-04-07T09:39:17Z</time></trkpt><trkpt lat="44.83203141594126" lon="7.2491231951065815"><ele>789.2</ele><time>2026-04-07T09:39:19Z</time></trkpt><trkpt lat="44.83197522351966" lon="7.249231641907487"><ele>789.6</ele><time>2026-04-07T09:39:40Z</time></trkpt><trkpt lat="44.83191417183781" lon="7.249340642543745"><ele>790.0</ele><time>2026-04-07T09:39:43Z</time></trkpt><trkpt lat="44.83186462980571" lon="7.2494348629264085"><ele>785.4999999999999</ele><time>2026-04-07T09:39:45Z</time></trkpt><trkpt lat="44.83180135326908" lon="7.249481803655816"><ele>781.0</ele><time>2026-04-07T09:39:47Z</time></trkpt><trkpt lat="44.83175044942112" lon="7.24956121884297"><ele>776.5</ele><time>2026-04-07T09:39:49Z</time></trkpt><trkpt lat="44.831741273874826" lon="7.249667215580306"><ele>772.0</ele><time>2026-04-07T09:39:51Z</time></trkpt><trkpt lat="44.83175701740146" lon="7.249784110281482"><ele>767.5</ele><time>2026-04-07T09:39:53Z</time></trkpt><trkpt lat="44.8317817347937" lon="7.24987406519328"><ele>763.0</ele><time>2026-04-07T09:39:55Z</time></trkpt><trkpt lat="44.83180199770643" lon="7.2499781509109456"><ele>763.0</ele><time>2026-04-07T09:39:57Z</time></trkpt><trkpt lat="44.831813465296726" lon="7.250085987827413"><ele>763.0</ele><time>2026-04-07T09:39:59Z</time></trkpt><trkpt lat="44.8317777824151" lon="7.2501767442255405"><ele>763.0</ele><time>2026-04-07T09:40:01Z</time></trkpt><trkpt lat="44.831689746677036" lon="7.250266864362023"><ele>763.0</ele><time>2026-04-07T09:40:03Z</time></trkpt><trkpt lat="44.83159563149338" lon="7.250329247684014"><ele>763.0</ele><time>2026-04-07T09:40:05Z</time></trkpt><trkpt lat="44.83149865042735" lon="7.250403778616607"><ele>763.0</ele><time>2026-04-07T09:40:06.999Z</time></trkpt><trkpt lat="44.8314253623445" lon="7.250483838834114"><ele>763.0</ele><time>2026-04-07T09:40:08.999Z</time></trkpt><trkpt lat="44.83132669083771" lon="7.250550857272471"><ele>763.0</ele><time>2026-04-07T09:40:10.999Z</time></trkpt><trkpt lat="44.831236661542405" lon="7.250531603875838"><ele>763.0</ele><time>2026-04-07T09:40:12.999Z</time></trkpt><trkpt lat="44.83110118917087" lon="7.250521731461663"><ele>763.0</ele><time>2026-04-07T09:40:14.999Z</time></trkpt><trkpt lat="44.831028042283144" lon="7.250518168275224"><ele>759.3333333333334</ele><time>2026-04-07T09:40:15.999Z</time></trkpt><trkpt lat="44.830949425562046" lon="7.2505025837143915"><ele>755.6666666666667</ele><time>2026-04-07T09:40:16.999Z</time></trkpt><trkpt lat="44.83082736758289" lon="7.250544632955639"><ele>752.0</ele><time>2026-04-07T09:40:18.999Z</time></trkpt><trkpt lat="44.83076747340856" lon="7.250593740172575"><ele>748.3333333333334</ele><time>2026-04-07T09:40:19.999Z</time></trkpt><trkpt lat="44.830710589237476" lon="7.250635546936589"><ele>744.6666666666666</ele><time>2026-04-07T09:40:20.999Z</time></trkpt><trkpt lat="44.83065414841367" lon="7.250686960829795"><ele>741.0</ele><time>2026-04-07T09:40:21.999Z</time></trkpt><trkpt lat="44.83059299250804" lon="7.250746434047527"><ele>739.6666666666666</ele><time>2026-04-07T09:40:22.999Z</time></trkpt><trkpt lat="44.83052476015509" lon="7.250797387255625"><ele>738.3333333333334</ele><time>2026-04-07T09:40:23.999Z</time></trkpt><trkpt lat="44.83045202531685" lon="7.2508266341376695"><ele>737.0</ele><time>2026-04-07T09:40:24.999Z</time></trkpt><trkpt lat="44.830374662966136" lon="7.250879737290775"><ele>735.6666666666667</ele><time>2026-04-07T09:40:25.999Z</time></trkpt><trkpt lat="44.83030458386876" lon="7.250932446409366"><ele>734.3333333333334</ele><time>2026-04-07T09:40:26.999Z</time></trkpt><trkpt lat="44.830247305512444" lon="7.250970216095758"><ele>733.0</ele><time>2026-04-07T09:40:27.999Z</time></trkpt><trkpt lat="44.830146245205974" lon="7.251056843022934"><ele>730.5999999999999</ele><time>2026-04-07T09:40:29.999Z</time></trkpt><trkpt lat="44.83004082233286" lon="7.251178937403963"><ele>728.1999999999999</ele><time>2026-04-07T09:40:31.999Z</time></trkpt><trkpt lat="44.82998991432681" lon="7.251236202968378"><ele>725.8</ele><time>2026-04-07T09:40:32.999Z</time></trkpt><trkpt lat="44.82993976121817" lon="7.251303067431247"><ele>723.4</ele><time>2026-04-07T09:40:33.999Z</time></trkpt><trkpt lat="44.8298577474299" lon="7.251408240942255"><ele>721.0</ele><time>2026-04-07T09:40:35.999Z</time></trkpt><trkpt lat="44.82975949833875" lon="7.251465889602726"><ele>718.8333333333334</ele><time>2026-04-07T09:40:37.999Z</time></trkpt><trkpt lat="44.82966984575843" lon="7.251559755039227"><ele>716.6666666666667</ele><time>2026-04-07T09:40:39.999Z</time></trkpt><trkpt lat="44.82963211540933" lon="7.251637728387058"><ele>714.5</ele><time>2026-04-07T09:40:40.999Z</time></trkpt><trkpt lat="44.82959671477907" lon="7.251723448548195"><ele>712.3333333333334</ele><time>2026-04-07T09:40:41.999Z</time></trkpt><trkpt lat="44.82953096933717" lon="7.2518159890696525"><ele>710.1666666666666</ele><time>2026-04-07T09:40:42.999Z</time></trkpt><trkpt lat="44.82947540012621" lon="7.251913305951056"><ele>708.0</ele><time>2026-04-07T09:40:43.999Z</time></trkpt><trkpt lat="44.82941563395752" lon="7.252003681072282"><ele>708.0</ele><time>2026-04-07T09:40:44.999Z</time></trkpt><trkpt lat="44.829359806085634" lon="7.252109387256673"><ele>708.0</ele><time>2026-04-07T09:40:45.999Z</time></trkpt><trkpt lat="44.82932708217542" lon="7.252199427448218"><ele>708.0</ele><time>2026-04-07T09:40:46.999Z</time></trkpt><trkpt lat="44.82927143975814" lon="7.252291539084333"><ele>708.0</ele><time>2026-04-07T09:40:47.999Z</time></trkpt><trkpt lat="44.82921862991954" lon="7.252366766778078"><ele>708.0</ele><time>2026-04-07T09:40:48.999Z</time></trkpt><trkpt lat="44.8290904669513" lon="7.252325350703263"><ele>707.5999999999999</ele><time>2026-04-07T09:40:50.999Z</time></trkpt><trkpt lat="44.828995356503206" lon="7.252171531753681"><ele>707.1999999999999</ele><time>2026-04-07T09:40:52.999Z</time></trkpt><trkpt lat="44.82895483610745" lon="7.252071230921016"><ele>706.8</ele><time>2026-04-07T09:40:53.999Z</time></trkpt><trkpt lat="44.828967603238354" lon="7.251951803903495"><ele>706.4</ele><time>2026-04-07T09:40:54.999Z</time></trkpt><trkpt lat="44.82895589799237" lon="7.25183455336751"><ele>706.0</ele><time>2026-04-07T09:40:55.999Z</time></trkpt><trkpt lat="44.82893558211319" lon="7.251712670883751"><ele>706.0</ele><time>2026-04-07T09:40:56.999Z</time></trkpt><trkpt lat="44.82889893497767" lon="7.251596116055828"><ele>706.0</ele><time>2026-04-07T09:40:57.999Z</time></trkpt><trkpt lat="44.828864172731265" lon="7.251484028434916"><ele>706.0</ele><time>2026-04-07T09:40:58.999Z</time></trkpt><trkpt lat="44.82881618588722" lon="7.2513884860002795"><ele>706.0</ele><time>2026-04-07T09:40:59.999Z</time></trkpt><trkpt lat="44.82876148316637" lon="7.251287982440919"><ele>706.0</ele><time>2026-04-07T09:41:00.999Z</time></trkpt><trkpt lat="44.82873586012336" lon="7.251190369358337"><ele>706.0</ele><time>2026-04-07T09:41:02Z</time></trkpt><trkpt lat="44.82877422828251" lon="7.251074791514009"><ele>705.4</ele><time>2026-04-07T09:41:03Z</time></trkpt><trkpt lat="44.82879394535845" lon="7.250933024949585"><ele>704.8</ele><time>2026-04-07T09:41:04Z</time></trkpt><trkpt lat="44.828807912771175" lon="7.250817182304513"><ele>704.1999999999999</ele><time>2026-04-07T09:41:05Z</time></trkpt><trkpt lat="44.82884505123046" lon="7.250720890698954"><ele>703.5999999999999</ele><time>2026-04-07T09:41:06Z</time></trkpt><trkpt lat="44.82886869365034" lon="7.250630346852439"><ele>703.0</ele><time>2026-04-07T09:41:07Z</time></trkpt><trkpt lat="44.828969311489" lon="7.250514714206751"><ele>700.8333333333334</ele><time>2026-04-07T09:41:09Z</time></trkpt><trkpt lat="44.829035409579824" lon="7.250484635743058"><ele>698.6666666666667</ele><time>2026-04-07T09:41:10Z</time></trkpt><trkpt lat="44.82910919447928" lon="7.250444548041275"><ele>696.5</ele><time>2026-04-07T09:41:11Z</time></trkpt><trkpt lat="44.82918166256692" lon="7.250423150762004"><ele>694.3333333333334</ele><time>2026-04-07T09:41:12Z</time></trkpt><trkpt lat="44.82926724925081" lon="7.250336658993208"><ele>692.1666666666666</ele><time>2026-04-07T09:41:14Z</time></trkpt><trkpt lat="44.829269747733875" lon="7.250228608689102"><ele>690.0</ele><time>2026-04-07T09:41:15Z</time></trkpt><trkpt lat="44.82923350035751" lon="7.250120554752144"><ele>690.0</ele><time>2026-04-07T09:41:16Z</time></trkpt><trkpt lat="44.82919565210965" lon="7.249996024979272"><ele>690.0</ele><time>2026-04-07T09:41:17Z</time></trkpt><trkpt lat="44.82915186738653" lon="7.249881548968643"><ele>690.0</ele><time>2026-04-07T09:41:18Z</time></trkpt><trkpt lat="44.82909426767362" lon="7.2497956145513776"><ele>690.0</ele><time>2026-04-07T09:41:19Z</time></trkpt><trkpt lat="44.829029454422745" lon="7.249747560116093"><ele>690.0</ele><time>2026-04-07T09:41:20Z</time></trkpt><trkpt lat="44.82894785095348" lon="7.249724842845939"><ele>690.0</ele><time>2026-04-07T09:41:21Z</time></trkpt><trkpt lat="44.82887651381328" lon="7.24969640312917"><ele>688.0</ele><time>2026-04-07T09:41:22Z</time></trkpt><trkpt lat="44.82881201427144" lon="7.249662293597917"><ele>686.0</ele><time>2026-04-07T09:41:23Z</time></trkpt><trkpt lat="44.82876726907554" lon="7.249591425370351"><ele>684.0</ele><time>2026-04-07T09:41:24Z</time></trkpt><trkpt lat="44.828746559410334" lon="7.249485112396394"><ele>682.0</ele><time>2026-04-07T09:41:25Z</time></trkpt><trkpt lat="44.828736196570794" lon="7.24936099626466"><ele>680.0</ele><time>2026-04-07T09:41:26Z</time></trkpt><trkpt lat="44.828747270981616" lon="7.249252537616579"><ele>678.0</ele><time>2026-04-07T09:41:27Z</time></trkpt><trkpt lat="44.82881635925385" lon="7.249115771759036"><ele>678.0</ele><time>2026-04-07T09:41:29Z</time></trkpt><trkpt lat="44.82890907605783" lon="7.249080534129914"><ele>678.0</ele><time>2026-04-07T09:41:30Z</time></trkpt><trkpt lat="44.828978912936876" lon="7.249033249918689"><ele>678.0</ele><time>2026-04-07T09:41:31Z</time></trkpt><trkpt lat="44.829028088219246" lon="7.248962008907499"><ele>678.0</ele><time>2026-04-07T09:41:32Z</time></trkpt><trkpt lat="44.82906971975156" lon="7.248879776354023"><ele>678.0</ele><time>2026-04-07T09:41:33Z</time></trkpt><trkpt lat="44.829096648597634" lon="7.2487738966666475"><ele>678.0</ele><time>2026-04-07T09:41:34Z</time></trkpt><trkpt lat="44.829131103102675" lon="7.248691125447894"><ele>676.5</ele><time>2026-04-07T09:41:35Z</time></trkpt><trkpt lat="44.829187426060145" lon="7.248636552405108"><ele>675.0</ele><time>2026-04-07T09:41:36Z</time></trkpt><trkpt lat="44.82926001444409" lon="7.248597860219659"><ele>673.5</ele><time>2026-04-07T09:41:37Z</time></trkpt><trkpt lat="44.829329556239635" lon="7.248593505328721"><ele>672.0</ele><time>2026-04-07T09:41:38Z</time></trkpt><trkpt lat="44.82941476022956" lon="7.248485990670963"><ele>670.5</ele><time>2026-04-07T09:41:40Z</time></trkpt><trkpt lat="44.82941507817502" lon="7.248362813789133"><ele>669.0</ele><time>2026-04-07T09:41:41Z</time></trkpt><trkpt lat="44.829368380401846" lon="7.248277497244523"><ele>669.0</ele><time>2026-04-07T09:41:42Z</time></trkpt><trkpt lat="44.829320154216006" lon="7.248210549083258"><ele>669.0</ele><time>2026-04-07T09:41:44Z</time></trkpt><trkpt lat="44.829284936068284" lon="7.24813607152099"><ele>669.0</ele><time>2026-04-07T09:42:08Z</time></trkpt><trkpt lat="44.82924448742942" lon="7.248000620706651"><ele>669.0</ele><time>2026-04-07T09:42:42.999Z</time></trkpt><trkpt lat="44.82919554829198" lon="7.247927395607962"><ele>669.0</ele><time>2026-04-07T09:42:47.999Z</time></trkpt><trkpt lat="44.82913562278797" lon="7.247840542370726"><ele>669.0</ele><time>2026-04-07T09:42:56.999Z</time></trkpt><trkpt lat="44.82909507884161" lon="7.247748000071189"><ele>668.6666666666666</ele><time>2026-04-07T09:42:59.999Z</time></trkpt><trkpt lat="44.829085985837864" lon="7.247644546952218"><ele>668.3333333333334</ele><time>2026-04-07T09:43:02.999Z</time></trkpt><trkpt lat="44.82908437560125" lon="7.247515797812902"><ele>668.0</ele><time>2026-04-07T09:44:08Z</time></trkpt><trkpt lat="44.82906975744874" lon="7.247359325178902"><ele>667.6666666666667</ele><time>2026-04-07T09:44:10Z</time></trkpt><trkpt lat="44.82906881097903" lon="7.247258213031258"><ele>667.3333333333334</ele><time>2026-04-07T09:44:11Z</time></trkpt><trkpt lat="44.829077294886794" lon="7.247150649463667"><ele>667.0</ele><time>2026-04-07T09:44:12Z</time></trkpt><trkpt lat="44.82907684179501" lon="7.2470276567130005"><ele>666.0</ele><time>2026-04-07T09:44:13Z</time></trkpt><trkpt lat="44.829087529201686" lon="7.246884846884442"><ele>665.0</ele><time>2026-04-07T09:44:14Z</time></trkpt><trkpt lat="44.8290939944697" lon="7.246733316984764"><ele>664.0</ele><time>2026-04-07T09:44:15Z</time></trkpt><trkpt lat="44.82909905282332" lon="7.24658519132511"><ele>663.0</ele><time>2026-04-07T09:44:16Z</time></trkpt><trkpt lat="44.82910765679034" lon="7.246444297039872"><ele>662.0</ele><time>2026-04-07T09:44:17Z</time></trkpt><trkpt lat="44.82910362071759" lon="7.246290052181072"><ele>661.2</ele><time>2026-04-07T09:44:18Z</time></trkpt><trkpt lat="44.82909682411927" lon="7.246119942904301"><ele>660.4000000000001</ele><time>2026-04-07T09:44:18.999Z</time></trkpt><trkpt lat="44.829099843166745" lon="7.2459535864971105"><ele>659.5999999999999</ele><time>2026-04-07T09:44:19.999Z</time></trkpt><trkpt lat="44.829068888144334" lon="7.24581802337973"><ele>658.8</ele><time>2026-04-07T09:44:20.999Z</time></trkpt><trkpt lat="44.82905143373694" lon="7.2456919110658"><ele>658.0</ele><time>2026-04-07T09:44:21.999Z</time></trkpt><trkpt lat="44.829040327839905" lon="7.245570731719467"><ele>656.6666666666667</ele><time>2026-04-07T09:44:22.999Z</time></trkpt><trkpt lat="44.829042739626125" lon="7.2454707211205225"><ele>655.3333333333334</ele><time>2026-04-07T09:44:23.999Z</time></trkpt><trkpt lat="44.8290607874764" lon="7.2453655799532966"><ele>654.0</ele><time>2026-04-07T09:44:24.999Z</time></trkpt><trkpt lat="44.82910860074056" lon="7.245268624647899"><ele>652.6666666666666</ele><time>2026-04-07T09:44:25.999Z</time></trkpt><trkpt lat="44.82916231259314" lon="7.245152529483005"><ele>651.3333333333333</ele><time>2026-04-07T09:44:26.999Z</time></trkpt><trkpt lat="44.82923596552592" lon="7.245032411215357"><ele>650.0</ele><time>2026-04-07T09:44:27.999Z</time></trkpt><trkpt lat="44.82930999210111" lon="7.244935666614719"><ele>650.0</ele><time>2026-04-07T09:44:28.999Z</time></trkpt><trkpt lat="44.82939133174721" lon="7.244879137271229"><ele>650.0</ele><time>2026-04-07T09:44:29.999Z</time></trkpt><trkpt lat="44.82948852141161" lon="7.244802568393303"><ele>650.0</ele><time>2026-04-07T09:44:30.999Z</time></trkpt><trkpt lat="44.82957907452063" lon="7.24473161135881"><ele>650.0</ele><time>2026-04-07T09:44:31.999Z</time></trkpt><trkpt lat="44.82969073779428" lon="7.244694614626366"><ele>650.0</ele><time>2026-04-07T09:44:32.999Z</time></trkpt><trkpt lat="44.82980720311963" lon="7.244662223161363"><ele>648.3333333333333</ele><time>2026-04-07T09:44:33.999Z</time></trkpt><trkpt lat="44.829901238101776" lon="7.244634215599623"><ele>646.6666666666666</ele><time>2026-04-07T09:44:34.999Z</time></trkpt><trkpt lat="44.829994800294635" lon="7.24462156754717"><ele>645.0</ele><time>2026-04-07T09:44:35.999Z</time></trkpt><trkpt lat="44.830080993253866" lon="7.244624777459459"><ele>643.3333333333334</ele><time>2026-04-07T09:44:36.999Z</time></trkpt><trkpt lat="44.83015718747046" lon="7.244641234514286"><ele>641.6666666666667</ele><time>2026-04-07T09:44:37.999Z</time></trkpt><trkpt lat="44.83021864240957" lon="7.244661167379056"><ele>640.0</ele><time>2026-04-07T09:44:38.999Z</time></trkpt><trkpt lat="44.83031117178501" lon="7.244578008261641"><ele>640.0</ele><time>2026-04-07T09:44:40.999Z</time></trkpt><trkpt lat="44.83031819998556" lon="7.24447159445839"><ele>640.0</ele><time>2026-04-07T09:44:41.999Z</time></trkpt><trkpt lat="44.8302585279258" lon="7.244337882424001"><ele>640.0</ele><time>2026-04-07T09:44:42.999Z</time></trkpt><trkpt lat="44.830184287769576" lon="7.244240451090415"><ele>640.0</ele><time>2026-04-07T09:44:43.999Z</time></trkpt><trkpt lat="44.83012390632294" lon="7.24410565571157"><ele>640.0</ele><time>2026-04-07T09:44:44.999Z</time></trkpt><trkpt lat="44.8300675265989" lon="7.243981286279817"><ele>638.75</ele><time>2026-04-07T09:44:45.999Z</time></trkpt><trkpt lat="44.83001844314778" lon="7.2438649144054335"><ele>637.5</ele><time>2026-04-07T09:44:46.999Z</time></trkpt><trkpt lat="44.82997605382092" lon="7.243722620611578"><ele>636.25</ele><time>2026-04-07T09:44:47.999Z</time></trkpt><trkpt lat="44.829943298750365" lon="7.243532765143705"><ele>635.0</ele><time>2026-04-07T09:44:48.999Z</time></trkpt><trkpt lat="44.82991220841501" lon="7.243379558185649"><ele>635.0</ele><time>2026-04-07T09:44:49.999Z</time></trkpt><trkpt lat="44.82990183444314" lon="7.2432638530763365"><ele>635.0</ele><time>2026-04-07T09:44:50.999Z</time></trkpt><trkpt lat="44.82993023873678" lon="7.24316222137275"><ele>635.0</ele><time>2026-04-07T09:44:51.999Z</time></trkpt><trkpt lat="44.82998367384197" lon="7.243073787113381"><ele>635.0</ele><time>2026-04-07T09:44:52.999Z</time></trkpt><trkpt lat="44.830041662863614" lon="7.243011504816523"><ele>635.0</ele><time>2026-04-07T09:44:53.999Z</time></trkpt><trkpt lat="44.83012388249969" lon="7.2429755995633025"><ele>635.0</ele><time>2026-04-07T09:44:54.999Z</time></trkpt><trkpt lat="44.830217608454845" lon="7.242888848457938"><ele>639.6</ele><time>2026-04-07T09:44:55.999Z</time></trkpt><trkpt lat="44.83030560051829" lon="7.242788432879252"><ele>644.2</ele><time>2026-04-07T09:44:56.999Z</time></trkpt><trkpt lat="44.83036522964896" lon="7.2426858596136325"><ele>648.8</ele><time>2026-04-07T09:44:57.999Z</time></trkpt><trkpt lat="44.83041273237051" lon="7.242592868516445"><ele>653.4</ele><time>2026-04-07T09:44:58.999Z</time></trkpt><trkpt lat="44.830448926555874" lon="7.242448937186693"><ele>658.0</ele><time>2026-04-07T09:45:00.999Z</time></trkpt><trkpt lat="44.830408200891505" lon="7.242369040919331"><ele>657.4</ele><time>2026-04-07T09:45:01.999Z</time></trkpt><trkpt lat="44.830336059202146" lon="7.242290577253602"><ele>656.8</ele><time>2026-04-07T09:45:02.999Z</time></trkpt><trkpt lat="44.83024308868282" lon="7.242263885520623"><ele>656.2</ele><time>2026-04-07T09:45:03.999Z</time></trkpt><trkpt lat="44.830143452640144" lon="7.242275509348855"><ele>655.6</ele><time>2026-04-07T09:45:04.999Z</time></trkpt><trkpt lat="44.830030003506764" lon="7.242272204148844"><ele>655.0</ele><time>2026-04-07T09:45:05.999Z</time></trkpt><trkpt lat="44.82992165259673" lon="7.242257243199908"><ele>650.2</ele><time>2026-04-07T09:45:06.999Z</time></trkpt><trkpt lat="44.82981931906591" lon="7.242210215447031"><ele>645.4</ele><time>2026-04-07T09:45:07.999Z</time></trkpt><trkpt lat="44.82972841042972" lon="7.242193148352373"><ele>640.6</ele><time>2026-04-07T09:45:08.999Z</time></trkpt><trkpt lat="44.82966473990147" lon="7.242137145952628"><ele>635.8</ele><time>2026-04-07T09:45:09.999Z</time></trkpt><trkpt lat="44.829607422018164" lon="7.242083819579876"><ele>631.0</ele><time>2026-04-07T09:45:10.999Z</time></trkpt><trkpt lat="44.82954877928878" lon="7.241941372415192"><ele>631.0</ele><time>2026-04-07T09:45:12.999Z</time></trkpt><trkpt lat="44.82958911749677" lon="7.241839160963117"><ele>631.0</ele><time>2026-04-07T09:45:14Z</time></trkpt><trkpt lat="44.82959541353569" lon="7.2416897556996895"><ele>631.0</ele><time>2026-04-07T09:45:15Z</time></trkpt><trkpt lat="44.82960654353487" lon="7.241542109516128"><ele>631.0</ele><time>2026-04-07T09:45:16Z</time></trkpt><trkpt lat="44.829621155484034" lon="7.241413933774006"><ele>631.0</ele><time>2026-04-07T09:45:17Z</time></trkpt><trkpt lat="44.82964941444379" lon="7.241299411150647"><ele>630.4285714285714</ele><time>2026-04-07T09:45:18Z</time></trkpt><trkpt lat="44.82969547445419" lon="7.241192337449924"><ele>629.8571428571428</ele><time>2026-04-07T09:45:19Z</time></trkpt><trkpt lat="44.82974200083213" lon="7.241111329073858"><ele>629.2857142857142</ele><time>2026-04-07T09:45:20Z</time></trkpt><trkpt lat="44.82977776050234" lon="7.241024145161798"><ele>628.7142857142858</ele><time>2026-04-07T09:45:21Z</time></trkpt><trkpt lat="44.82978967487556" lon="7.240935977692825"><ele>628.1428571428571</ele><time>2026-04-07T09:45:22Z</time></trkpt><trkpt lat="44.82976748029313" lon="7.240852490468421"><ele>627.5714285714286</ele><time>2026-04-07T09:45:23Z</time></trkpt><trkpt lat="44.829711565827736" lon="7.240802878001119"><ele>627.0</ele><time>2026-04-07T09:45:24Z</time></trkpt><trkpt lat="44.82963225163286" lon="7.240792785582567"><ele>627.0</ele><time>2026-04-07T09:45:25Z</time></trkpt><trkpt lat="44.8295264343385" lon="7.240768076393853"><ele>627.0</ele><time>2026-04-07T09:45:26Z</time></trkpt><trkpt lat="44.829383498577336" lon="7.240727526585733"><ele>627.0</ele><time>2026-04-07T09:45:27Z</time></trkpt><trkpt lat="44.829223736754905" lon="7.240681284369865"><ele>627.0</ele><time>2026-04-07T09:45:28Z</time></trkpt><trkpt lat="44.829072461349284" lon="7.240676042474262"><ele>622.0</ele><time>2026-04-07T09:45:29Z</time></trkpt><trkpt lat="44.82892533358713" lon="7.240663596918455"><ele>617.0</ele><time>2026-04-07T09:45:30Z</time></trkpt><trkpt lat="44.82879872655298" lon="7.240661020538819"><ele>612.0</ele><time>2026-04-07T09:45:31Z</time></trkpt><trkpt lat="44.82869901155913" lon="7.240662641587188"><ele>607.0</ele><time>2026-04-07T09:45:32Z</time></trkpt><trkpt lat="44.828621882982674" lon="7.24066394273947"><ele>607.0</ele><time>2026-04-07T09:45:33Z</time></trkpt><trkpt lat="44.82854983369527" lon="7.240658568885382"><ele>607.0</ele><time>2026-04-07T09:45:34Z</time></trkpt><trkpt lat="44.82846757943818" lon="7.2406574768616885"><ele>607.0</ele><time>2026-04-07T09:45:35Z</time></trkpt><trkpt lat="44.828377146482154" lon="7.240660167924194"><ele>607.0</ele><time>2026-04-07T09:45:36Z</time></trkpt><trkpt lat="44.82828388955559" lon="7.2406651424768596"><ele>607.0</ele><time>2026-04-07T09:45:37Z</time></trkpt><trkpt lat="44.828188278607335" lon="7.240731425605278"><ele>607.0</ele><time>2026-04-07T09:45:38Z</time></trkpt><trkpt lat="44.828084689159674" lon="7.240824504264066"><ele>604.5</ele><time>2026-04-07T09:45:39Z</time></trkpt><trkpt lat="44.82797810921997" lon="7.240939428812529"><ele>602.0</ele><time>2026-04-07T09:45:40Z</time></trkpt><trkpt lat="44.82786697461434" lon="7.24105449965254"><ele>599.5</ele><time>2026-04-07T09:45:41Z</time></trkpt><trkpt lat="44.82775637868684" lon="7.2411575803042725"><ele>597.0</ele><time>2026-04-07T09:45:42Z</time></trkpt><trkpt lat="44.82764435878148" lon="7.241269992018695"><ele>594.25</ele><time>2026-04-07T09:45:43Z</time></trkpt><trkpt lat="44.82754929308591" lon="7.241368536588764"><ele>591.5</ele><time>2026-04-07T09:45:44Z</time></trkpt><trkpt lat="44.82745475989467" lon="7.241457121402865"><ele>588.75</ele><time>2026-04-07T09:45:45Z</time></trkpt><trkpt lat="44.827356413188994" lon="7.241527687558742"><ele>586.0</ele><time>2026-04-07T09:45:46Z</time></trkpt><trkpt lat="44.827251100194296" lon="7.241573504885852"><ele>584.6666666666667</ele><time>2026-04-07T09:45:47Z</time></trkpt><trkpt lat="44.82716120427409" lon="7.241605581071257"><ele>583.3333333333334</ele><time>2026-04-07T09:45:48Z</time></trkpt><trkpt lat="44.827088496086695" lon="7.241631604645408"><ele>582.0</ele><time>2026-04-07T09:45:49Z</time></trkpt><trkpt lat="44.82699494603927" lon="7.241652614984192"><ele>580.6666666666666</ele><time>2026-04-07T09:45:51Z</time></trkpt><trkpt lat="44.82693643309674" lon="7.241698094476522"><ele>579.3333333333333</ele><time>2026-04-07T09:46:05Z</time></trkpt><trkpt lat="44.82685244045815" lon="7.241683898850311"><ele>578.0</ele><time>2026-04-07T09:46:28.999Z</time></trkpt><trkpt lat="44.826761639622845" lon="7.241626390974593"><ele>577.6</ele><time>2026-04-07T09:46:30.999Z</time></trkpt><trkpt lat="44.8266874869099" lon="7.241609287063801"><ele>577.1999999999999</ele><time>2026-04-07T09:46:33.999Z</time></trkpt><trkpt lat="44.82662213399883" lon="7.241597639582107"><ele>576.8</ele><time>2026-04-07T09:46:35.999Z</time></trkpt><trkpt lat="44.826512816936514" lon="7.241548547196279"><ele>576.4</ele><time>2026-04-07T09:46:37.999Z</time></trkpt><trkpt lat="44.82643687646786" lon="7.241476491117939"><ele>576.0</ele><time>2026-04-07T09:46:39.999Z</time></trkpt><trkpt lat="44.82634605396103" lon="7.2413496735935"><ele>576.0</ele><time>2026-04-07T09:46:41.999Z</time></trkpt><trkpt lat="44.82630698281385" lon="7.241268067623972"><ele>576.0</ele><time>2026-04-07T09:46:42.999Z</time></trkpt><trkpt lat="44.826276563138606" lon="7.24116981685214"><ele>576.0</ele><time>2026-04-07T09:46:43.999Z</time></trkpt><trkpt lat="44.826252076325794" lon="7.241052747125897"><ele>576.0</ele><time>2026-04-07T09:46:44.999Z</time></trkpt><trkpt lat="44.826245519861395" lon="7.240922288092209"><ele>576.0</ele><time>2026-04-07T09:46:45.999Z</time></trkpt><trkpt lat="44.826253411927574" lon="7.240777279576937"><ele>576.0</ele><time>2026-04-07T09:46:46.999Z</time></trkpt><trkpt lat="44.826282196715376" lon="7.240606793600094"><ele>575.6</ele><time>2026-04-07T09:46:47.999Z</time></trkpt><trkpt lat="44.826301644569405" lon="7.240458110367524"><ele>575.2</ele><time>2026-04-07T09:46:48.999Z</time></trkpt><trkpt lat="44.82631862054894" lon="7.240319987187995"><ele>574.8</ele><time>2026-04-07T09:46:49.999Z</time></trkpt><trkpt lat="44.82634315060842" lon="7.240183606629409"><ele>574.4</ele><time>2026-04-07T09:46:50.999Z</time></trkpt><trkpt lat="44.8263694095226" lon="7.240084775045187"><ele>574.0</ele><time>2026-04-07T09:46:51.999Z</time></trkpt><trkpt lat="44.826394510559204" lon="7.23998198545249"><ele>574.0</ele><time>2026-04-07T09:46:52.999Z</time></trkpt><trkpt lat="44.82641440357317" lon="7.239886860612054"><ele>574.0</ele><time>2026-04-07T09:46:53.999Z</time></trkpt><trkpt lat="44.826457355951085" lon="7.239777382065823"><ele>574.0</ele><time>2026-04-07T09:46:55.999Z</time></trkpt><trkpt lat="44.82622707563984" lon="7.239593891898036"><ele>574.0</ele><time>2026-04-07T09:46:57.999Z</time></trkpt><trkpt lat="44.826125295016986" lon="7.239523602518466"><ele>574.25</ele><time>2026-04-07T09:46:58.999Z</time></trkpt><trkpt lat="44.82599053579249" lon="7.239485713214671"><ele>574.5</ele><time>2026-04-07T09:46:59.999Z</time></trkpt><trkpt lat="44.82585518300883" lon="7.239420773479202"><ele>574.75</ele><time>2026-04-07T09:47:00.999Z</time></trkpt><trkpt lat="44.82570838298497" lon="7.2393428079771"><ele>575.0</ele><time>2026-04-07T09:47:01.999Z</time></trkpt><trkpt lat="44.825534767180095" lon="7.239252855160446"><ele>572.0</ele><time>2026-04-07T09:47:02.999Z</time></trkpt><trkpt lat="44.82534126512995" lon="7.239167006845188"><ele>569.0</ele><time>2026-04-07T09:47:03.999Z</time></trkpt><trkpt lat="44.825154796347924" lon="7.239076904573399"><ele>566.0</ele><time>2026-04-07T09:47:04.999Z</time></trkpt><trkpt lat="44.82498015475042" lon="7.238992614631816"><ele>561.3333333333333</ele><time>2026-04-07T09:47:05.999Z</time></trkpt><trkpt lat="44.82481702972547" lon="7.2389153082072255"><ele>556.6666666666666</ele><time>2026-04-07T09:47:06.999Z</time></trkpt><trkpt lat="44.82467682586522" lon="7.2388477181852355"><ele>552.0</ele><time>2026-04-07T09:47:07.999Z</time></trkpt><trkpt lat="44.82454251081356" lon="7.238788879916224"><ele>552.0</ele><time>2026-04-07T09:47:08.999Z</time></trkpt><trkpt lat="44.82441646227392" lon="7.2387436877822955"><ele>552.0</ele><time>2026-04-07T09:47:09.999Z</time></trkpt><trkpt lat="44.82429173227503" lon="7.238732088251621"><ele>552.0</ele><time>2026-04-07T09:47:10.999Z</time></trkpt><trkpt lat="44.824157124525215" lon="7.238762610458571"><ele>552.0</ele><time>2026-04-07T09:47:11.999Z</time></trkpt><trkpt lat="44.82401186915839" lon="7.238844472773127"><ele>551.0</ele><time>2026-04-07T09:47:12.999Z</time></trkpt><trkpt lat="44.82386652081506" lon="7.238954237645743"><ele>550.0</ele><time>2026-04-07T09:47:13.999Z</time></trkpt><trkpt lat="44.82372136236935" lon="7.239061687592494"><ele>549.0</ele><time>2026-04-07T09:47:14.999Z</time></trkpt><trkpt lat="44.8235603797548" lon="7.239163950677032"><ele>546.3333333333334</ele><time>2026-04-07T09:47:15.999Z</time></trkpt><trkpt lat="44.8233944193039" lon="7.239261870594527"><ele>543.6666666666667</ele><time>2026-04-07T09:47:16.999Z</time></trkpt><trkpt lat="44.82323262794364" lon="7.239333153294262"><ele>541.0</ele><time>2026-04-07T09:47:17.999Z</time></trkpt><trkpt lat="44.82308247866414" lon="7.239384297284207"><ele>541.0</ele><time>2026-04-07T09:47:18.999Z</time></trkpt><trkpt lat="44.822956625579735" lon="7.23943117122335"><ele>541.0</ele><time>2026-04-07T09:47:20Z</time></trkpt><trkpt lat="44.82284607526317" lon="7.239481442271932"><ele>541.0</ele><time>2026-04-07T09:47:21Z</time></trkpt><trkpt lat="44.82274256552305" lon="7.2395487992786105"><ele>541.0</ele><time>2026-04-07T09:47:22Z</time></trkpt><trkpt lat="44.82265605504847" lon="7.239649044946558"><ele>539.0</ele><time>2026-04-07T09:47:23Z</time></trkpt><trkpt lat="44.822594779662865" lon="7.239786622131335"><ele>537.0</ele><time>2026-04-07T09:47:24Z</time></trkpt><trkpt lat="44.82255881678436" lon="7.239934511620658"><ele>535.0</ele><time>2026-04-07T09:47:25Z</time></trkpt><trkpt lat="44.82255354490357" lon="7.240103919494495"><ele>533.0</ele><time>2026-04-07T09:47:26Z</time></trkpt><trkpt lat="44.82257827275743" lon="7.2402870638649865"><ele>532.5</ele><time>2026-04-07T09:47:27Z</time></trkpt><trkpt lat="44.82258679316331" lon="7.240491420610542"><ele>532.0</ele><time>2026-04-07T09:47:28Z</time></trkpt><trkpt lat="44.82261377214803" lon="7.24068489119734"><ele>531.5</ele><time>2026-04-07T09:47:29Z</time></trkpt><trkpt lat="44.822646796547986" lon="7.240869951570813"><ele>531.0</ele><time>2026-04-07T09:47:30Z</time></trkpt><trkpt lat="44.822689481588306" lon="7.241054633123879"><ele>532.0</ele><time>2026-04-07T09:47:31Z</time></trkpt><trkpt lat="44.82275601037332" lon="7.241247062759586"><ele>533.0</ele><time>2026-04-07T09:47:32Z</time></trkpt><trkpt lat="44.822849867468115" lon="7.241454139997112"><ele>534.0</ele><time>2026-04-07T09:47:33Z</time></trkpt><trkpt lat="44.822965314918164" lon="7.241647136529016"><ele>534.0</ele><time>2026-04-07T09:47:34Z</time></trkpt><trkpt lat="44.823049081515414" lon="7.241846759746758"><ele>534.0</ele><time>2026-04-07T09:47:35Z</time></trkpt><trkpt lat="44.82311947219265" lon="7.242042162872751"><ele>534.0</ele><time>2026-04-07T09:47:36Z</time></trkpt><trkpt lat="44.823176163181344" lon="7.242258392370725"><ele>532.25</ele><time>2026-04-07T09:47:37Z</time></trkpt><trkpt lat="44.82321275377188" lon="7.242466408432345"><ele>530.5</ele><time>2026-04-07T09:47:38Z</time></trkpt><trkpt lat="44.82325437549581" lon="7.242659870533751"><ele>528.75</ele><time>2026-04-07T09:47:39Z</time></trkpt><trkpt lat="44.82329874608193" lon="7.242844292895023"><ele>527.0</ele><time>2026-04-07T09:47:40Z</time></trkpt><trkpt lat="44.82334091171829" lon="7.243009154789"><ele>525.8000000000001</ele><time>2026-04-07T09:47:41Z</time></trkpt><trkpt lat="44.82336748523685" lon="7.243163812719739"><ele>524.6</ele><time>2026-04-07T09:47:42Z</time></trkpt><trkpt lat="44.823377979039876" lon="7.243304977717419"><ele>523.4000000000001</ele><time>2026-04-07T09:47:43Z</time></trkpt><trkpt lat="44.823351138972505" lon="7.243444107412495"><ele>522.2</ele><time>2026-04-07T09:47:44Z</time></trkpt><trkpt lat="44.82329302133834" lon="7.243577288434593"><ele>521.0</ele><time>2026-04-07T09:47:45Z</time></trkpt><trkpt lat="44.823207281113426" lon="7.243685135707185"><ele>521.0</ele><time>2026-04-07T09:47:46Z</time></trkpt><trkpt lat="44.823096622360865" lon="7.243761295644696"><ele>521.0</ele><time>2026-04-07T09:47:47Z</time></trkpt><trkpt lat="44.82297290365062" lon="7.2438098700588816"><ele>521.0</ele><time>2026-04-07T09:47:48Z</time></trkpt><trkpt lat="44.822856361355974" lon="7.243868641035402"><ele>521.0</ele><time>2026-04-07T09:47:49Z</time></trkpt><trkpt lat="44.8227589798269" lon="7.243919321276137"><ele>520.6666666666666</ele><time>2026-04-07T09:47:50Z</time></trkpt><trkpt lat="44.82267038231049" lon="7.243966377956897"><ele>520.3333333333333</ele><time>2026-04-07T09:47:51Z</time></trkpt><trkpt lat="44.822591599473" lon="7.244000047422235"><ele>520.0</ele><time>2026-04-07T09:47:52Z</time></trkpt><trkpt lat="44.82252677406697" lon="7.2440256511629135"><ele>519.6666666666666</ele><time>2026-04-07T09:47:53Z</time></trkpt><trkpt lat="44.82243286345033" lon="7.244072233802263"><ele>519.3333333333334</ele><time>2026-04-07T09:47:55Z</time></trkpt><trkpt lat="44.82238259214497" lon="7.244170464378112"><ele>519.0</ele><time>2026-04-07T09:47:57Z</time></trkpt><trkpt lat="44.822417280585896" lon="7.244295231545579"><ele>517.8333333333334</ele><time>2026-04-07T09:47:58Z</time></trkpt><trkpt lat="44.822447962158684" lon="7.244417317340651"><ele>516.6666666666666</ele><time>2026-04-07T09:47:59Z</time></trkpt><trkpt lat="44.822452803275546" lon="7.24455195099647"><ele>515.5</ele><time>2026-04-07T09:48:00Z</time></trkpt><trkpt lat="44.8224371038863" lon="7.244654150064553"><ele>514.3333333333333</ele><time>2026-04-07T09:48:01Z</time></trkpt><trkpt lat="44.822397992716105" lon="7.244753324709005"><ele>513.1666666666666</ele><time>2026-04-07T09:48:02Z</time></trkpt><trkpt lat="44.822328647997814" lon="7.244844237360942"><ele>512.0</ele><time>2026-04-07T09:48:03Z</time></trkpt><trkpt lat="44.82223609668001" lon="7.2449215419026"><ele>511.75</ele><time>2026-04-07T09:48:04Z</time></trkpt><trkpt lat="44.82213182445076" lon="7.244981011983722"><ele>511.5</ele><time>2026-04-07T09:48:05Z</time></trkpt><trkpt lat="44.82199732511817" lon="7.245055852537123"><ele>511.25</ele><time>2026-04-07T09:48:06Z</time></trkpt><trkpt lat="44.82184289192148" lon="7.245152726689351"><ele>511.0</ele><time>2026-04-07T09:48:07Z</time></trkpt><trkpt lat="44.82170263312532" lon="7.2452369604537"><ele>509.5</ele><time>2026-04-07T09:48:08Z</time></trkpt><trkpt lat="44.82157924659307" lon="7.2453417802477835"><ele>508.0</ele><time>2026-04-07T09:48:09Z</time></trkpt><trkpt lat="44.821465181252684" lon="7.245470754813301"><ele>506.5</ele><time>2026-04-07T09:48:10Z</time></trkpt><trkpt lat="44.82135405667006" lon="7.245609101781496"><ele>505.0</ele><time>2026-04-07T09:48:11Z</time></trkpt><trkpt lat="44.821250794036864" lon="7.245737348127209"><ele>504.6</ele><time>2026-04-07T09:48:12Z</time></trkpt><trkpt lat="44.821153011695024" lon="7.2458493983035845"><ele>504.2</ele><time>2026-04-07T09:48:13Z</time></trkpt><trkpt lat="44.82107413703012" lon="7.24594046053521"><ele>503.79999999999995</ele><time>2026-04-07T09:48:14Z</time></trkpt><trkpt lat="44.821003458589374" lon="7.246024428030069"><ele>503.4</ele><time>2026-04-07T09:48:15Z</time></trkpt><trkpt lat="44.820927545954916" lon="7.246077498529303"><ele>503.0</ele><time>2026-04-07T09:48:16Z</time></trkpt><trkpt lat="44.82084458861624" lon="7.246127215273314"><ele>502.59999999999997</ele><time>2026-04-07T09:48:17Z</time></trkpt><trkpt lat="44.82074097905864" lon="7.246195864025618"><ele>502.19999999999993</ele><time>2026-04-07T09:48:18Z</time></trkpt><trkpt lat="44.82064049934209" lon="7.24624135679705"><ele>501.8</ele><time>2026-04-07T09:48:19Z</time></trkpt><trkpt lat="44.820547864023325" lon="7.246277354293454"><ele>501.4</ele><time>2026-04-07T09:48:20Z</time></trkpt><trkpt lat="44.820469274890414" lon="7.246306838844165"><ele>501.0</ele><time>2026-04-07T09:48:21Z</time></trkpt><trkpt lat="44.820386096024166" lon="7.246331861084315"><ele>501.0</ele><time>2026-04-07T09:48:22Z</time></trkpt><trkpt lat="44.82030432293409" lon="7.246335881851203"><ele>501.0</ele><time>2026-04-07T09:48:23Z</time></trkpt><trkpt lat="44.82021970579664" lon="7.246313543744386"><ele>501.0</ele><time>2026-04-07T09:48:24Z</time></trkpt><trkpt lat="44.82012112061293" lon="7.246300987470478"><ele>501.0</ele><time>2026-04-07T09:48:25Z</time></trkpt><trkpt lat="44.82001042390733" lon="7.246282913858122"><ele>501.0</ele><time>2026-04-07T09:48:26Z</time></trkpt><trkpt lat="44.81989303093511" lon="7.24625030314722"><ele>500.25</ele><time>2026-04-07T09:48:27Z</time></trkpt><trkpt lat="44.81976538620536" lon="7.2462265849144885"><ele>499.5</ele><time>2026-04-07T09:48:27.999Z</time></trkpt><trkpt lat="44.819626683707284" lon="7.246207460249701"><ele>498.75</ele><time>2026-04-07T09:48:28.999Z</time></trkpt><trkpt lat="44.819485182744174" lon="7.246180622431815"><ele>498.0</ele><time>2026-04-07T09:48:29.999Z</time></trkpt><trkpt lat="44.8193474719118" lon="7.246151182838274"><ele>496.75</ele><time>2026-04-07T09:48:30.999Z</time></trkpt><trkpt lat="44.819210244811465" lon="7.246122269962397"><ele>495.5</ele><time>2026-04-07T09:48:31.999Z</time></trkpt><trkpt lat="44.819077030771744" lon="7.246100780200059"><ele>494.25</ele><time>2026-04-07T09:48:32.999Z</time></trkpt><trkpt lat="44.81895310817255" lon="7.246074027633324"><ele>493.0</ele><time>2026-04-07T09:48:33.999Z</time></trkpt><trkpt lat="44.81884526069522" lon="7.246050167837028"><ele>493.0</ele><time>2026-04-07T09:48:34.999Z</time></trkpt><trkpt lat="44.818729892897245" lon="7.246024877112068"><ele>493.0</ele><time>2026-04-07T09:48:35.999Z</time></trkpt><trkpt lat="44.81859863192485" lon="7.24600074661761"><ele>493.0</ele><time>2026-04-07T09:48:36.999Z</time></trkpt><trkpt lat="44.81845655274538" lon="7.245969406138446"><ele>493.0</ele><time>2026-04-07T09:48:37.999Z</time></trkpt><trkpt lat="44.818308888787854" lon="7.245942722479828"><ele>491.25</ele><time>2026-04-07T09:48:38.999Z</time></trkpt><trkpt lat="44.818167733646796" lon="7.2459184354168995"><ele>489.5</ele><time>2026-04-07T09:48:39.999Z</time></trkpt><trkpt lat="44.818022309955545" lon="7.245900539205636"><ele>487.75</ele><time>2026-04-07T09:48:40.999Z</time></trkpt><trkpt lat="44.8178877634606" lon="7.245873934568102"><ele>486.0</ele><time>2026-04-07T09:48:41.999Z</time></trkpt><trkpt lat="44.81774988441537" lon="7.245844353788545"><ele>485.33333333333337</ele><time>2026-04-07T09:48:42.999Z</time></trkpt><trkpt lat="44.81758196604154" lon="7.2458135513701105"><ele>484.6666666666667</ele><time>2026-04-07T09:48:43.999Z</time></trkpt><trkpt lat="44.81739359167453" lon="7.245782285542218"><ele>484.0</ele><time>2026-04-07T09:48:44.999Z</time></trkpt><trkpt lat="44.81722675137434" lon="7.245748582586435"><ele>484.0</ele><time>2026-04-07T09:48:45.999Z</time></trkpt><trkpt lat="44.817076310250265" lon="7.245717149021846"><ele>484.0</ele><time>2026-04-07T09:48:46.999Z</time></trkpt><trkpt lat="44.816931361216554" lon="7.245688148769405"><ele>484.0</ele><time>2026-04-07T09:48:47.999Z</time></trkpt><trkpt lat="44.81678943210466" lon="7.245663997340681"><ele>484.0</ele><time>2026-04-07T09:48:48.999Z</time></trkpt><trkpt lat="44.81665302741665" lon="7.245633434576009"><ele>483.6</ele><time>2026-04-07T09:48:49.999Z</time></trkpt><trkpt lat="44.81652475043638" lon="7.245613632419773"><ele>483.2</ele><time>2026-04-07T09:48:50.999Z</time></trkpt><trkpt lat="44.81641141235673" lon="7.245591644240467"><ele>482.80000000000007</ele><time>2026-04-07T09:48:51.999Z</time></trkpt><trkpt lat="44.81630757949379" lon="7.245567572415026"><ele>482.40000000000003</ele><time>2026-04-07T09:48:52.999Z</time></trkpt><trkpt lat="44.81622002213774" lon="7.245549207295605"><ele>482.0</ele><time>2026-04-07T09:48:53.999Z</time></trkpt><trkpt lat="44.816129205951626" lon="7.2455280441100225"><ele>482.0</ele><time>2026-04-07T09:48:54.999Z</time></trkpt><trkpt lat="44.816029493116766" lon="7.245501268294192"><ele>482.00000000000006</ele><time>2026-04-07T09:48:55.999Z</time></trkpt><trkpt lat="44.815927460730414" lon="7.245478694914286"><ele>482.00000000000006</ele><time>2026-04-07T09:48:56.999Z</time></trkpt><trkpt lat="44.81581793268376" lon="7.245458749206043"><ele>482.0</ele><time>2026-04-07T09:48:57.999Z</time></trkpt><trkpt lat="44.815704833680094" lon="7.245442712823301"><ele>482.0</ele><time>2026-04-07T09:48:58.999Z</time></trkpt><trkpt lat="44.81559007288929" lon="7.245418993863857"><ele>481.6</ele><time>2026-04-07T09:48:59.999Z</time></trkpt><trkpt lat="44.8154841136313" lon="7.245391890227118"><ele>481.20000000000005</ele><time>2026-04-07T09:49:00.999Z</time></trkpt><trkpt lat="44.815381174305536" lon="7.245371773255209"><ele>480.8</ele><time>2026-04-07T09:49:01.999Z</time></trkpt><trkpt lat="44.815275273267076" lon="7.245356098128345"><ele>480.4</ele><time>2026-04-07T09:49:02.999Z</time></trkpt><trkpt lat="44.81516284892745" lon="7.245340735380512"><ele>480.0</ele><time>2026-04-07T09:49:03.999Z</time></trkpt><trkpt lat="44.81504603888678" lon="7.24532745007958"><ele>480.0</ele><time>2026-04-07T09:49:04.999Z</time></trkpt><trkpt lat="44.8149320758066" lon="7.245305463107633"><ele>480.0</ele><time>2026-04-07T09:49:05.999Z</time></trkpt><trkpt lat="44.814817600141346" lon="7.24528281205866"><ele>480.0</ele><time>2026-04-07T09:49:06.999Z</time></trkpt><trkpt lat="44.81470047559754" lon="7.245252956576026"><ele>480.0</ele><time>2026-04-07T09:49:07.999Z</time></trkpt><trkpt lat="44.8145933685018" lon="7.245227520876581"><ele>480.0</ele><time>2026-04-07T09:49:08.999Z</time></trkpt><trkpt lat="44.814492811885884" lon="7.245212908087227"><ele>480.0</ele><time>2026-04-07T09:49:09.999Z</time></trkpt><trkpt lat="44.81440305718771" lon="7.245206402390202"><ele>480.0</ele><time>2026-04-07T09:49:10.999Z</time></trkpt><trkpt lat="44.81431969261414" lon="7.245195326670642"><ele>480.0</ele><time>2026-04-07T09:49:11.999Z</time></trkpt><trkpt lat="44.81425288740525" lon="7.245184645229282"><ele>480.0</ele><time>2026-04-07T09:49:12.999Z</time></trkpt><trkpt lat="44.81418745722565" lon="7.245178298682904"><ele>480.0</ele><time>2026-04-07T09:49:13.999Z</time></trkpt><trkpt lat="44.8140734992026" lon="7.245155905972014"><ele>479.6666666666667</ele><time>2026-04-07T09:49:15.999Z</time></trkpt><trkpt lat="44.81399833306821" lon="7.2451306717117"><ele>479.33333333333337</ele><time>2026-04-07T09:49:18.999Z</time></trkpt><trkpt lat="44.81391648865004" lon="7.245108898673788"><ele>479.0</ele><time>2026-04-07T09:49:21.999Z</time></trkpt><trkpt lat="44.8138619332138" lon="7.245058374939736"><ele>478.6666666666667</ele><time>2026-04-07T09:49:23.999Z</time></trkpt><trkpt lat="44.81377892935135" lon="7.245038477577667"><ele>478.33333333333337</ele><time>2026-04-07T09:49:26Z</time></trkpt><trkpt lat="44.81370597435793" lon="7.245152292601258"><ele>478.0</ele><time>2026-04-07T09:49:28Z</time></trkpt><trkpt lat="44.8137062466266" lon="7.245334695870054"><ele>478.00000000000006</ele><time>2026-04-07T09:49:30Z</time></trkpt><trkpt lat="44.81370790707817" lon="7.245436409556203"><ele>478.0</ele><time>2026-04-07T09:49:31Z</time></trkpt><trkpt lat="44.81370654093669" lon="7.245556441442535"><ele>478.0</ele><time>2026-04-07T09:49:32Z</time></trkpt><trkpt lat="44.813693729001486" lon="7.245690694904964"><ele>478.0</ele><time>2026-04-07T09:49:33Z</time></trkpt><trkpt lat="44.81368241292853" lon="7.245830371253118"><ele>478.00000000000006</ele><time>2026-04-07T09:49:34Z</time></trkpt><trkpt lat="44.81367555378641" lon="7.245957145840291"><ele>478.0</ele><time>2026-04-07T09:49:35Z</time></trkpt><trkpt lat="44.81365178978375" lon="7.246073251130737"><ele>477.83333333333337</ele><time>2026-04-07T09:49:36Z</time></trkpt><trkpt lat="44.81363712136331" lon="7.246180515378153"><ele>477.6666666666667</ele><time>2026-04-07T09:49:37Z</time></trkpt><trkpt lat="44.81363575879173" lon="7.246283697219813"><ele>477.5</ele><time>2026-04-07T09:49:38Z</time></trkpt><trkpt lat="44.81363442986822" lon="7.24640613501962"><ele>477.33333333333337</ele><time>2026-04-07T09:49:39Z</time></trkpt><trkpt lat="44.813615970910355" lon="7.246545248244952"><ele>477.1666666666667</ele><time>2026-04-07T09:49:40Z</time></trkpt><trkpt lat="44.81360626030789" lon="7.24666666083427"><ele>477.0</ele><time>2026-04-07T09:49:41Z</time></trkpt><trkpt lat="44.81358490730961" lon="7.246785017856102"><ele>477.0</ele><time>2026-04-07T09:49:42Z</time></trkpt><trkpt lat="44.813568733036206" lon="7.246908117381101"><ele>477.0</ele><time>2026-04-07T09:49:43Z</time></trkpt><trkpt lat="44.81356429340105" lon="7.247039155339004"><ele>477.0</ele><time>2026-04-07T09:49:44Z</time></trkpt><trkpt lat="44.81355240517329" lon="7.247151562020919"><ele>477.0</ele><time>2026-04-07T09:49:45Z</time></trkpt><trkpt lat="44.81354574853169" lon="7.247255283667071"><ele>477.0</ele><time>2026-04-07T09:49:46Z</time></trkpt><trkpt lat="44.81354035593223" lon="7.24735654878069"><ele>477.0</ele><time>2026-04-07T09:49:47Z</time></trkpt><trkpt lat="44.81353094643598" lon="7.247452860373399"><ele>476.85714285714283</ele><time>2026-04-07T09:49:48Z</time></trkpt><trkpt lat="44.81352622992242" lon="7.24755330861608"><ele>476.71428571428567</ele><time>2026-04-07T09:49:49Z</time></trkpt><trkpt lat="44.81351856223962" lon="7.247651218679131"><ele>476.57142857142856</ele><time>2026-04-07T09:49:50Z</time></trkpt><trkpt lat="44.81350374841818" lon="7.247745871898725"><ele>476.42857142857144</ele><time>2026-04-07T09:49:51Z</time></trkpt><trkpt lat="44.81349535136977" lon="7.24783558428277"><ele>476.2857142857143</ele><time>2026-04-07T09:49:52Z</time></trkpt><trkpt lat="44.813488166321996" lon="7.247933272421889"><ele>476.1428571428571</ele><time>2026-04-07T09:49:53Z</time></trkpt><trkpt lat="44.81347286045787" lon="7.248031345455172"><ele>476.0</ele><time>2026-04-07T09:49:54Z</time></trkpt><trkpt lat="44.813460447670096" lon="7.2481317314756915"><ele>475.16666666666663</ele><time>2026-04-07T09:49:55Z</time></trkpt><trkpt lat="44.81345069266598" lon="7.248231318243297"><ele>474.3333333333333</ele><time>2026-04-07T09:49:56Z</time></trkpt><trkpt lat="44.81343658670065" lon="7.2483381708256776"><ele>473.5</ele><time>2026-04-07T09:49:57Z</time></trkpt><trkpt lat="44.813423423380236" lon="7.2484578637394455"><ele>472.66666666666663</ele><time>2026-04-07T09:49:58Z</time></trkpt><trkpt lat="44.813414671306184" lon="7.248591052623521"><ele>471.8333333333333</ele><time>2026-04-07T09:49:59Z</time></trkpt><trkpt lat="44.81340462417924" lon="7.248709024730677"><ele>471.0</ele><time>2026-04-07T09:50:00Z</time></trkpt><trkpt lat="44.81339007719275" lon="7.248830534339666"><ele>471.0</ele><time>2026-04-07T09:50:01Z</time></trkpt><trkpt lat="44.81337535098602" lon="7.248953140024795"><ele>471.0</ele><time>2026-04-07T09:50:02Z</time></trkpt><trkpt lat="44.81336333801993" lon="7.249067758190206"><ele>471.0</ele><time>2026-04-07T09:50:03Z</time></trkpt><trkpt lat="44.813355904211456" lon="7.2491869218811145"><ele>471.0</ele><time>2026-04-07T09:50:04Z</time></trkpt><trkpt lat="44.8133388589408" lon="7.249304055642522"><ele>471.0</ele><time>2026-04-07T09:50:05Z</time></trkpt><trkpt lat="44.81332775273008" lon="7.249425306525939"><ele>471.0</ele><time>2026-04-07T09:50:06Z</time></trkpt><trkpt lat="44.81331519385815" lon="7.24955182918797"><ele>470.8333333333333</ele><time>2026-04-07T09:50:07Z</time></trkpt><trkpt lat="44.81330398585058" lon="7.2496671913488635"><ele>470.66666666666663</ele><time>2026-04-07T09:50:08Z</time></trkpt><trkpt lat="44.813294461447" lon="7.249769685900654"><ele>470.5</ele><time>2026-04-07T09:50:09Z</time></trkpt><trkpt lat="44.81329318469275" lon="7.249865064215068"><ele>470.3333333333333</ele><time>2026-04-07T09:50:10Z</time></trkpt><trkpt lat="44.81328407189594" lon="7.250001985992283"><ele>470.16666666666663</ele><time>2026-04-07T09:50:12Z</time></trkpt><trkpt lat="44.81327599890633" lon="7.250097655511559"><ele>470.0</ele><time>2026-04-07T09:50:13Z</time></trkpt><trkpt lat="44.8132576834457" lon="7.250245787379635"><ele>469.8</ele><time>2026-04-07T09:50:14Z</time></trkpt><trkpt lat="44.81323864955435" lon="7.250401904089262"><ele>469.6</ele><time>2026-04-07T09:50:15Z</time></trkpt><trkpt lat="44.81322435813353" lon="7.250545949920147"><ele>469.4</ele><time>2026-04-07T09:50:16Z</time></trkpt><trkpt lat="44.81320974947263" lon="7.250680018431435"><ele>469.2</ele><time>2026-04-07T09:50:17Z</time></trkpt><trkpt lat="44.81319228225383" lon="7.25083050175077"><ele>469.0</ele><time>2026-04-07T09:50:18Z</time></trkpt><trkpt lat="44.81317735287348" lon="7.250994246180127"><ele>468.5</ele><time>2026-04-07T09:50:19Z</time></trkpt><trkpt lat="44.813158502959354" lon="7.251166107146905"><ele>468.0</ele><time>2026-04-07T09:50:20Z</time></trkpt><trkpt lat="44.81314138709075" lon="7.251340378616663"><ele>467.5</ele><time>2026-04-07T09:50:21Z</time></trkpt><trkpt lat="44.81312237290062" lon="7.251517902452814"><ele>467.0</ele><time>2026-04-07T09:50:22Z</time></trkpt><trkpt lat="44.81310432166154" lon="7.251694957110961"><ele>467.0</ele><time>2026-04-07T09:50:23Z</time></trkpt><trkpt lat="44.81308760545504" lon="7.25187052181255"><ele>467.0</ele><time>2026-04-07T09:50:24Z</time></trkpt><trkpt lat="44.81307183945761" lon="7.252050043526997"><ele>467.0</ele><time>2026-04-07T09:50:25Z</time></trkpt><trkpt lat="44.81305486003175" lon="7.252233143137894"><ele>467.0</ele><time>2026-04-07T09:50:26Z</time></trkpt><trkpt lat="44.8130337804836" lon="7.252420206678597"><ele>467.0</ele><time>2026-04-07T09:50:27Z</time></trkpt><trkpt lat="44.81300826287256" lon="7.252611515714002"><ele>467.0</ele><time>2026-04-07T09:50:28Z</time></trkpt><trkpt lat="44.81298361364324" lon="7.252811570219303"><ele>467.0</ele><time>2026-04-07T09:50:29Z</time></trkpt><trkpt lat="44.81296380773831" lon="7.253021548051209"><ele>467.0</ele><time>2026-04-07T09:50:30Z</time></trkpt><trkpt lat="44.81294230539889" lon="7.253241120711359"><ele>466.3333333333333</ele><time>2026-04-07T09:50:31Z</time></trkpt><trkpt lat="44.81292028152763" lon="7.253463963682213"><ele>465.66666666666663</ele><time>2026-04-07T09:50:32Z</time></trkpt><trkpt lat="44.81290142461367" lon="7.253675934604983"><ele>465.0</ele><time>2026-04-07T09:50:33Z</time></trkpt><trkpt lat="44.81288513426149" lon="7.253876457423061"><ele>464.75</ele><time>2026-04-07T09:50:33.999Z</time></trkpt><trkpt lat="44.81286737443269" lon="7.25407163833615"><ele>464.5</ele><time>2026-04-07T09:50:34.999Z</time></trkpt><trkpt lat="44.81284865496323" lon="7.254266772938014"><ele>464.25</ele><time>2026-04-07T09:50:35.999Z</time></trkpt><trkpt lat="44.812830720006204" lon="7.254456137147433"><ele>464.0</ele><time>2026-04-07T09:50:36.999Z</time></trkpt><trkpt lat="44.81281079953432" lon="7.254648368694479"><ele>463.25</ele><time>2026-04-07T09:50:37.999Z</time></trkpt><trkpt lat="44.81279413916333" lon="7.254842152396741"><ele>462.5</ele><time>2026-04-07T09:50:38.999Z</time></trkpt><trkpt lat="44.81277395691063" lon="7.2550408269296325"><ele>461.75</ele><time>2026-04-07T09:50:39.999Z</time></trkpt><trkpt lat="44.81275297042888" lon="7.255254782211772"><ele>461.0</ele><time>2026-04-07T09:50:40.999Z</time></trkpt><trkpt lat="44.81273201828669" lon="7.255469439010214"><ele>460.75</ele><time>2026-04-07T09:50:41.999Z</time></trkpt><trkpt lat="44.812711217609156" lon="7.255664593311173"><ele>460.5</ele><time>2026-04-07T09:50:42.999Z</time></trkpt><trkpt lat="44.81269370681685" lon="7.255855223425693"><ele>460.25</ele><time>2026-04-07T09:50:43.999Z</time></trkpt><trkpt lat="44.81267329810839" lon="7.256039906738046"><ele>460.0</ele><time>2026-04-07T09:50:44.999Z</time></trkpt><trkpt lat="44.81265120350547" lon="7.25623135374441"><ele>459.25</ele><time>2026-04-07T09:50:45.999Z</time></trkpt><trkpt lat="44.812632773756135" lon="7.256427490148261"><ele>458.5</ele><time>2026-04-07T09:50:46.999Z</time></trkpt><trkpt lat="44.81261747446133" lon="7.256632658914122"><ele>457.75</ele><time>2026-04-07T09:50:47.999Z</time></trkpt><trkpt lat="44.8125981897079" lon="7.256849711941618"><ele>457.0</ele><time>2026-04-07T09:50:48.999Z</time></trkpt><trkpt lat="44.81257241465289" lon="7.257099098094024"><ele>456.0</ele><time>2026-04-07T09:50:49.999Z</time></trkpt><trkpt lat="44.81254532200667" lon="7.2573695762581725"><ele>455.0</ele><time>2026-04-07T09:50:50.999Z</time></trkpt><trkpt lat="44.81251946095349" lon="7.257616386133229"><ele>454.0</ele><time>2026-04-07T09:50:51.999Z</time></trkpt><trkpt lat="44.812496175254296" lon="7.2578542832790784"><ele>454.0</ele><time>2026-04-07T09:50:52.999Z</time></trkpt><trkpt lat="44.81247160634815" lon="7.258083044758776"><ele>454.0</ele><time>2026-04-07T09:50:53.999Z</time></trkpt><trkpt lat="44.812445310680296" lon="7.258334567717851"><ele>454.0</ele><time>2026-04-07T09:50:54.999Z</time></trkpt><trkpt lat="44.81241758222376" lon="7.258570455084772"><ele>454.0</ele><time>2026-04-07T09:50:55.999Z</time></trkpt><trkpt lat="44.812385657157314" lon="7.25886484858136"><ele>454.0</ele><time>2026-04-07T09:50:56.999Z</time></trkpt><trkpt lat="44.81236677924278" lon="7.259104100183452"><ele>454.0</ele><time>2026-04-07T09:50:57.999Z</time></trkpt><trkpt lat="44.812345543469256" lon="7.259342428900962"><ele>453.33333333333337</ele><time>2026-04-07T09:50:58.999Z</time></trkpt><trkpt lat="44.812321175748714" lon="7.259584675494132"><ele>452.66666666666663</ele><time>2026-04-07T09:50:59.999Z</time></trkpt><trkpt lat="44.812297655707944" lon="7.259824350408499"><ele>452.0</ele><time>2026-04-07T09:51:00.999Z</time></trkpt><trkpt lat="44.81227158924885" lon="7.260065253336248"><ele>451.3333333333333</ele><time>2026-04-07T09:51:01.999Z</time></trkpt><trkpt lat="44.81224562433324" lon="7.260304776281468"><ele>450.66666666666663</ele><time>2026-04-07T09:51:02.999Z</time></trkpt><trkpt lat="44.812220873357305" lon="7.260547598847238"><ele>450.0</ele><time>2026-04-07T09:51:03.999Z</time></trkpt><trkpt lat="44.812198200016134" lon="7.2607735399530275"><ele>449.66666666666663</ele><time>2026-04-07T09:51:04.999Z</time></trkpt><trkpt lat="44.81217376274932" lon="7.260991922847817"><ele>449.3333333333333</ele><time>2026-04-07T09:51:05.999Z</time></trkpt><trkpt lat="44.81215300519044" lon="7.261210704001273"><ele>449.0</ele><time>2026-04-07T09:51:06.999Z</time></trkpt><trkpt lat="44.81213370828515" lon="7.261423731128942"><ele>449.0</ele><time>2026-04-07T09:51:07.999Z</time></trkpt><trkpt lat="44.81212137316674" lon="7.261626074333711"><ele>449.0</ele><time>2026-04-07T09:51:08.999Z</time></trkpt><trkpt lat="44.81210130551839" lon="7.261832347717063"><ele>449.0</ele><time>2026-04-07T09:51:09.999Z</time></trkpt><trkpt lat="44.81207176708839" lon="7.262035091431771"><ele>449.0</ele><time>2026-04-07T09:51:10.999Z</time></trkpt><trkpt lat="44.812057309271225" lon="7.262246858998096"><ele>448.75</ele><time>2026-04-07T09:51:11.999Z</time></trkpt><trkpt lat="44.81203575959641" lon="7.262454404363612"><ele>448.5</ele><time>2026-04-07T09:51:12.999Z</time></trkpt><trkpt lat="44.81201331721245" lon="7.262657863360987"><ele>448.25</ele><time>2026-04-07T09:51:13.999Z</time></trkpt><trkpt lat="44.81199324032097" lon="7.262861291818733"><ele>448.0</ele><time>2026-04-07T09:51:14.999Z</time></trkpt><trkpt lat="44.81197560966009" lon="7.263064084443147"><ele>447.33333333333337</ele><time>2026-04-07T09:51:15.999Z</time></trkpt><trkpt lat="44.811954944559716" lon="7.263271026336469"><ele>446.66666666666663</ele><time>2026-04-07T09:51:16.999Z</time></trkpt><trkpt lat="44.811932933871375" lon="7.263479927029131"><ele>446.0</ele><time>2026-04-07T09:51:17.999Z</time></trkpt><trkpt lat="44.81191694754716" lon="7.263693402537355"><ele>446.0</ele><time>2026-04-07T09:51:18.999Z</time></trkpt><trkpt lat="44.81190255415698" lon="7.263904300496042"><ele>446.0</ele><time>2026-04-07T09:51:19.999Z</time></trkpt><trkpt lat="44.81188100381977" lon="7.264118584886271"><ele>446.0</ele><time>2026-04-07T09:51:20.999Z</time></trkpt><trkpt lat="44.8118588871091" lon="7.264312115075312"><ele>446.0</ele><time>2026-04-07T09:51:21.999Z</time></trkpt><trkpt lat="44.81183786493063" lon="7.264512911833737"><ele>445.25</ele><time>2026-04-07T09:51:22.999Z</time></trkpt><trkpt lat="44.81181789107757" lon="7.264732753219558"><ele>444.5</ele><time>2026-04-07T09:51:23.999Z</time></trkpt><trkpt lat="44.81179915960476" lon="7.26493688208511"><ele>443.75</ele><time>2026-04-07T09:51:24.999Z</time></trkpt><trkpt lat="44.81178035610506" lon="7.265124170803482"><ele>443.0</ele><time>2026-04-07T09:51:25.999Z</time></trkpt><trkpt lat="44.81176314694417" lon="7.265296944036108"><ele>442.59999999999997</ele><time>2026-04-07T09:51:26.999Z</time></trkpt><trkpt lat="44.81174576931715" lon="7.2654465847815"><ele>442.19999999999993</ele><time>2026-04-07T09:51:27.999Z</time></trkpt><trkpt lat="44.811727876271526" lon="7.26559005651064"><ele>441.8</ele><time>2026-04-07T09:51:28.999Z</time></trkpt><trkpt lat="44.81170610948372" lon="7.265722724226462"><ele>441.4</ele><time>2026-04-07T09:51:29.999Z</time></trkpt><trkpt lat="44.81169345781101" lon="7.265817214494343"><ele>441.0</ele><time>2026-04-07T09:51:30.999Z</time></trkpt><trkpt lat="44.81164797315799" lon="7.265963819893606"><ele>440.8333333333333</ele><time>2026-04-07T09:51:33Z</time></trkpt><trkpt lat="44.81158657768469" lon="7.266029988878295"><ele>440.66666666666663</ele><time>2026-04-07T09:51:35Z</time></trkpt><trkpt lat="44.81165166540001" lon="7.266058409982892"><ele>440.5</ele><time>2026-04-07T09:51:36Z</time></trkpt><trkpt lat="44.81151051667249" lon="7.2661051282427245"><ele>440.3333333333333</ele><time>2026-04-07T09:51:48Z</time></trkpt><trkpt lat="44.81147456778434" lon="7.266183604288714"><ele>440.16666666666663</ele><time>2026-04-07T09:52:04Z</time></trkpt><trkpt lat="44.81148501253693" lon="7.266280997501918"><ele>440.0</ele><time>2026-04-07T09:56:28Z</time></trkpt><trkpt lat="44.81150171030495" lon="7.266403942993097"><ele>439.6</ele><time>2026-04-07T09:56:29Z</time></trkpt><trkpt lat="44.811553692810186" lon="7.2664920735042475"><ele>439.2</ele><time>2026-04-07T09:56:31Z</time></trkpt><trkpt lat="44.8116250235828" lon="7.266670907170904"><ele>438.79999999999995</ele><time>2026-04-07T09:56:37Z</time></trkpt><trkpt lat="44.81161217558409" lon="7.266778881872469"><ele>438.4</ele><time>2026-04-07T09:56:38Z</time></trkpt><trkpt lat="44.81159334519207" lon="7.266885699361657"><ele>438.0</ele><time>2026-04-07T09:56:39Z</time></trkpt><trkpt lat="44.811577913957855" lon="7.2670272078823865"><ele>438.0</ele><time>2026-04-07T09:56:40Z</time></trkpt><trkpt lat="44.811563814176665" lon="7.267197135769523"><ele>438.0</ele><time>2026-04-07T09:56:41Z</time></trkpt><trkpt lat="44.81155054340822" lon="7.267371468222075"><ele>438.0</ele><time>2026-04-07T09:56:42Z</time></trkpt><trkpt lat="44.81153930597499" lon="7.267523431280544"><ele>438.0</ele><time>2026-04-07T09:56:43Z</time></trkpt><trkpt lat="44.81152502780833" lon="7.267677666225115"><ele>438.0</ele><time>2026-04-07T09:56:44Z</time></trkpt><trkpt lat="44.81151019157698" lon="7.267814479345232"><ele>437.99999999999994</ele><time>2026-04-07T09:56:45Z</time></trkpt><trkpt lat="44.811498633357424" lon="7.267945633255985"><ele>437.99999999999994</ele><time>2026-04-07T09:56:46Z</time></trkpt><trkpt lat="44.81148311710413" lon="7.268086410482862"><ele>438.0</ele><time>2026-04-07T09:56:47Z</time></trkpt><trkpt lat="44.81146772869161" lon="7.268235868094115"><ele>438.0</ele><time>2026-04-07T09:56:48Z</time></trkpt><trkpt lat="44.81145348240597" lon="7.268383815127436"><ele>437.75</ele><time>2026-04-07T09:56:49Z</time></trkpt><trkpt lat="44.81144145409544" lon="7.268545007326033"><ele>437.5</ele><time>2026-04-07T09:56:50Z</time></trkpt><trkpt lat="44.81142663630692" lon="7.268723512502341"><ele>437.25</ele><time>2026-04-07T09:56:51Z</time></trkpt><trkpt lat="44.811408771289955" lon="7.268908909140753"><ele>437.0</ele><time>2026-04-07T09:56:52Z</time></trkpt><trkpt lat="44.811391714596354" lon="7.269078957753036"><ele>436.5</ele><time>2026-04-07T09:56:53Z</time></trkpt><trkpt lat="44.811377395083504" lon="7.269243059462036"><ele>436.0</ele><time>2026-04-07T09:56:53.999Z</time></trkpt><trkpt lat="44.81135733299294" lon="7.269420061533483"><ele>435.5</ele><time>2026-04-07T09:56:54.999Z</time></trkpt><trkpt lat="44.81134009505134" lon="7.2695913949700675"><ele>435.0</ele><time>2026-04-07T09:56:55.999Z</time></trkpt><trkpt lat="44.81132626984888" lon="7.269738659848844"><ele>434.5</ele><time>2026-04-07T09:56:56.999Z</time></trkpt><trkpt lat="44.811311973789486" lon="7.269888547241708"><ele>434.0</ele><time>2026-04-07T09:56:57.999Z</time></trkpt><trkpt lat="44.8112908299916" lon="7.27005564997282"><ele>433.5</ele><time>2026-04-07T09:56:58.999Z</time></trkpt><trkpt lat="44.81127192202135" lon="7.270229359050968"><ele>433.0</ele><time>2026-04-07T09:56:59.999Z</time></trkpt><trkpt lat="44.81124810663397" lon="7.270414071418996"><ele>433.0</ele><time>2026-04-07T09:57:00.999Z</time></trkpt><trkpt lat="44.81122596770345" lon="7.270587467697577"><ele>432.99999999999994</ele><time>2026-04-07T09:57:01.999Z</time></trkpt><trkpt lat="44.81120862369374" lon="7.270769016857421"><ele>432.99999999999994</ele><time>2026-04-07T09:57:02.999Z</time></trkpt><trkpt lat="44.81119829851305" lon="7.270908095651496"><ele>433.0</ele><time>2026-04-07T09:57:03.999Z</time></trkpt><trkpt lat="44.81117666702335" lon="7.271029576455103"><ele>433.0</ele><time>2026-04-07T09:57:04.999Z</time></trkpt><trkpt lat="44.811163435567245" lon="7.2711252873168"><ele>433.00000000000006</ele><time>2026-04-07T09:57:05.999Z</time></trkpt><trkpt lat="44.811135025924315" lon="7.271262958934053"><ele>433.0</ele><time>2026-04-07T09:57:07.999Z</time></trkpt><trkpt lat="44.81112178567126" lon="7.271350880571668"><ele>433.0</ele><time>2026-04-07T09:57:09.999Z</time></trkpt><trkpt lat="44.811113127312716" lon="7.271466936606851"><ele>433.0</ele><time>2026-04-07T09:57:43.999Z</time></trkpt><trkpt lat="44.811113722810305" lon="7.271567813576781"><ele>433.00000000000006</ele><time>2026-04-07T09:57:44.999Z</time></trkpt><trkpt lat="44.81110689924386" lon="7.2716900580928705"><ele>433.0</ele><time>2026-04-07T09:57:45.999Z</time></trkpt><trkpt lat="44.811096954799545" lon="7.271805962707779"><ele>433.0</ele><time>2026-04-07T09:57:46.999Z</time></trkpt><trkpt lat="44.81108134614132" lon="7.271922606117239"><ele>432.99999999999994</ele><time>2026-04-07T09:57:47.999Z</time></trkpt><trkpt lat="44.81106853268574" lon="7.272056749445427"><ele>432.99999999999994</ele><time>2026-04-07T09:57:48.999Z</time></trkpt><trkpt lat="44.811053583902655" lon="7.272198695763058"><ele>433.0</ele><time>2026-04-07T09:57:50Z</time></trkpt><trkpt lat="44.811039402694774" lon="7.272352482625741"><ele>433.0</ele><time>2026-04-07T09:57:51Z</time></trkpt><trkpt lat="44.81102494540525" lon="7.27250432749584"><ele>432.75</ele><time>2026-04-07T09:57:52Z</time></trkpt><trkpt lat="44.81101045435782" lon="7.272661044270968"><ele>432.5</ele><time>2026-04-07T09:57:53Z</time></trkpt><trkpt lat="44.810997246956575" lon="7.272834258530276"><ele>432.25</ele><time>2026-04-07T09:57:54Z</time></trkpt><trkpt lat="44.810976978888434" lon="7.2730314051045015"><ele>432.0</ele><time>2026-04-07T09:57:55Z</time></trkpt><trkpt lat="44.810953733966976" lon="7.273247770431586"><ele>431.0</ele><time>2026-04-07T09:57:56Z</time></trkpt><trkpt lat="44.810934844768006" lon="7.273461748472078"><ele>430.0</ele><time>2026-04-07T09:57:57Z</time></trkpt><trkpt lat="44.81091876561635" lon="7.273668258151806"><ele>429.0</ele><time>2026-04-07T09:57:58Z</time></trkpt><trkpt lat="44.810902399932665" lon="7.273894950410515"><ele>429.0</ele><time>2026-04-07T09:57:59Z</time></trkpt><trkpt lat="44.81088392868205" lon="7.274134802806751"><ele>429.0</ele><time>2026-04-07T09:58:00Z</time></trkpt><trkpt lat="44.81086122482118" lon="7.27437683157694"><ele>429.0</ele><time>2026-04-07T09:58:01Z</time></trkpt><trkpt lat="44.81084297895082" lon="7.274623737940792"><ele>429.0</ele><time>2026-04-07T09:58:02Z</time></trkpt><trkpt lat="44.8108208551072" lon="7.274869957521396"><ele>429.0</ele><time>2026-04-07T09:58:03Z</time></trkpt><trkpt lat="44.81079223816701" lon="7.2751444328267105"><ele>429.0</ele><time>2026-04-07T09:58:04Z</time></trkpt><trkpt lat="44.81076500382672" lon="7.275439278041244"><ele>428.0</ele><time>2026-04-07T09:58:05Z</time></trkpt><trkpt lat="44.81073590053593" lon="7.275740652494516"><ele>427.0</ele><time>2026-04-07T09:58:06Z</time></trkpt><trkpt lat="44.810706395110756" lon="7.276035766649093"><ele>426.0</ele><time>2026-04-07T09:58:07Z</time></trkpt><trkpt lat="44.81067784618222" lon="7.276314707508798"><ele>425.66666666666663</ele><time>2026-04-07T09:58:08Z</time></trkpt><trkpt lat="44.810659864676204" lon="7.276570512612188"><ele>425.3333333333333</ele><time>2026-04-07T09:58:09Z</time></trkpt><trkpt lat="44.81064154957938" lon="7.276816346551003"><ele>425.0</ele><time>2026-04-07T09:58:10Z</time></trkpt><trkpt lat="44.81061936900025" lon="7.277054550212773"><ele>423.66666666666663</ele><time>2026-04-07T09:58:11Z</time></trkpt><trkpt lat="44.81059431435004" lon="7.277306218793529"><ele>422.33333333333337</ele><time>2026-04-07T09:58:12Z</time></trkpt><trkpt lat="44.81057251890492" lon="7.277542626070567"><ele>421.0</ele><time>2026-04-07T09:58:13Z</time></trkpt><trkpt lat="44.81055406915034" lon="7.277769746822007"><ele>421.0</ele><time>2026-04-07T09:58:14Z</time></trkpt><trkpt lat="44.810532749859114" lon="7.277978392404529"><ele>421.0</ele><time>2026-04-07T09:58:15Z</time></trkpt><trkpt lat="44.810511289471336" lon="7.278193459237153"><ele>421.0</ele><time>2026-04-07T09:58:16Z</time></trkpt><trkpt lat="44.81049175125672" lon="7.278410668726588"><ele>422.0</ele><time>2026-04-07T09:58:17Z</time></trkpt><trkpt lat="44.810470815828076" lon="7.278628414918004"><ele>423.0</ele><time>2026-04-07T09:58:18Z</time></trkpt><trkpt lat="44.81044763382501" lon="7.27884998880519"><ele>424.0</ele><time>2026-04-07T09:58:19Z</time></trkpt><trkpt lat="44.810425999598976" lon="7.2790711692329735"><ele>424.0</ele><time>2026-04-07T09:58:20Z</time></trkpt><trkpt lat="44.81040408415879" lon="7.279291062544268"><ele>424.0</ele><time>2026-04-07T09:58:21Z</time></trkpt><trkpt lat="44.8103836971265" lon="7.27949432632514"><ele>424.0</ele><time>2026-04-07T09:58:22Z</time></trkpt><trkpt lat="44.81036272486015" lon="7.279695473291041"><ele>424.0</ele><time>2026-04-07T09:58:23Z</time></trkpt><trkpt lat="44.8103424858092" lon="7.279899225112361"><ele>423.33333333333337</ele><time>2026-04-07T09:58:24Z</time></trkpt><trkpt lat="44.810321701198255" lon="7.280109287385534"><ele>422.66666666666663</ele><time>2026-04-07T09:58:25Z</time></trkpt><trkpt lat="44.81030148698647" lon="7.280327480786647"><ele>422.0</ele><time>2026-04-07T09:58:26Z</time></trkpt><trkpt lat="44.810281907735764" lon="7.280546506096104"><ele>421.0</ele><time>2026-04-07T09:58:27Z</time></trkpt><trkpt lat="44.81025871719457" lon="7.280757197656137"><ele>420.0</ele><time>2026-04-07T09:58:28Z</time></trkpt><trkpt lat="44.810234017904456" lon="7.280971642118628"><ele>419.0</ele><time>2026-04-07T09:58:29Z</time></trkpt><trkpt lat="44.810216576318226" lon="7.281174148100815"><ele>419.0</ele><time>2026-04-07T09:58:30Z</time></trkpt><trkpt lat="44.810196285484786" lon="7.2813782743728135"><ele>419.0</ele><time>2026-04-07T09:58:31Z</time></trkpt><trkpt lat="44.81017464182593" lon="7.281579010481086"><ele>419.0</ele><time>2026-04-07T09:58:32Z</time></trkpt><trkpt lat="44.81014996731472" lon="7.2817870188197675"><ele>419.0</ele><time>2026-04-07T09:58:33Z</time></trkpt><trkpt lat="44.810126982828756" lon="7.281999609699129"><ele>418.3333333333333</ele><time>2026-04-07T09:58:34Z</time></trkpt><trkpt lat="44.8101018877176" lon="7.282219508089151"><ele>417.66666666666663</ele><time>2026-04-07T09:58:35Z</time></trkpt><trkpt lat="44.8100786938909" lon="7.282442751138177"><ele>417.0</ele><time>2026-04-07T09:58:36Z</time></trkpt><trkpt lat="44.81005269116273" lon="7.282656170154979"><ele>417.0</ele><time>2026-04-07T09:58:37Z</time></trkpt><trkpt lat="44.81002614597134" lon="7.282853695835926"><ele>417.0</ele><time>2026-04-07T09:58:38Z</time></trkpt><trkpt lat="44.80999716818049" lon="7.283046561160838"><ele>417.0</ele><time>2026-04-07T09:58:39Z</time></trkpt><trkpt lat="44.80996642210129" lon="7.2832328863476485"><ele>417.0</ele><time>2026-04-07T09:58:40Z</time></trkpt><trkpt lat="44.809929387959414" lon="7.283415733312159"><ele>417.25</ele><time>2026-04-07T09:58:41Z</time></trkpt><trkpt lat="44.809885380586" lon="7.283599395023066"><ele>417.5</ele><time>2026-04-07T09:58:42Z</time></trkpt><trkpt lat="44.80983801073094" lon="7.283781828916299"><ele>417.75</ele><time>2026-04-07T09:58:43Z</time></trkpt><trkpt lat="44.80978603276563" lon="7.283964675589538"><ele>418.0</ele><time>2026-04-07T09:58:44Z</time></trkpt><trkpt lat="44.809726383741484" lon="7.284145563060121"><ele>419.0</ele><time>2026-04-07T09:58:45Z</time></trkpt><trkpt lat="44.8096651186128" lon="7.284320240124305"><ele>420.0</ele><time>2026-04-07T09:58:46Z</time></trkpt><trkpt lat="44.809608213671595" lon="7.2844797466331865"><ele>421.0</ele><time>2026-04-07T09:58:47Z</time></trkpt><trkpt lat="44.809550007712815" lon="7.284643415201329"><ele>422.0</ele><time>2026-04-07T09:58:48Z</time></trkpt><trkpt lat="44.80949095843561" lon="7.2848075421888625"><ele>423.25</ele><time>2026-04-07T09:58:49Z</time></trkpt><trkpt lat="44.809433345983024" lon="7.28497262948266"><ele>424.5</ele><time>2026-04-07T09:58:50Z</time></trkpt><trkpt lat="44.80937641501978" lon="7.285124111859895"><ele>425.75</ele><time>2026-04-07T09:58:51Z</time></trkpt><trkpt lat="44.80932028015987" lon="7.285273678786817"><ele>427.0</ele><time>2026-04-07T09:58:52Z</time></trkpt><trkpt lat="44.80926809314725" lon="7.285423115504043"><ele>426.0</ele><time>2026-04-07T09:58:53Z</time></trkpt><trkpt lat="44.80921975038917" lon="7.2855649307947115"><ele>425.00000000000006</ele><time>2026-04-07T09:58:54Z</time></trkpt><trkpt lat="44.809171896322894" lon="7.285695658670271"><ele>424.0</ele><time>2026-04-07T09:58:55Z</time></trkpt><trkpt lat="44.80912196776332" lon="7.285830118751727"><ele>423.0</ele><time>2026-04-07T09:58:56Z</time></trkpt><trkpt lat="44.8090731046195" lon="7.285963727849473"><ele>422.0</ele><time>2026-04-07T09:58:57Z</time></trkpt><trkpt lat="44.809028628213916" lon="7.286081674453186"><ele>421.99999999999994</ele><time>2026-04-07T09:58:58Z</time></trkpt><trkpt lat="44.80898831756054" lon="7.28619657031077"><ele>422.0</ele><time>2026-04-07T09:58:59Z</time></trkpt><trkpt lat="44.80895040028939" lon="7.286310780871973"><ele>422.0</ele><time>2026-04-07T09:58:59.999Z</time></trkpt><trkpt lat="44.80891279502696" lon="7.286427385896614"><ele>422.0</ele><time>2026-04-07T09:59:00.999Z</time></trkpt><trkpt lat="44.80887877237859" lon="7.286538253721939"><ele>421.99999999999994</ele><time>2026-04-07T09:59:01.999Z</time></trkpt><trkpt lat="44.80884714884447" lon="7.2866443946538855"><ele>422.0</ele><time>2026-04-07T09:59:02.999Z</time></trkpt><trkpt lat="44.80881642570484" lon="7.28675013420413"><ele>422.2857142857143</ele><time>2026-04-07T09:59:03.999Z</time></trkpt><trkpt lat="44.80878962234759" lon="7.286849873047859"><ele>422.57142857142856</ele><time>2026-04-07T09:59:04.999Z</time></trkpt><trkpt lat="44.8087643338023" lon="7.28694589893115"><ele>422.8571428571429</ele><time>2026-04-07T09:59:05.999Z</time></trkpt><trkpt lat="44.80873777372287" lon="7.2870501050292775"><ele>423.1428571428571</ele><time>2026-04-07T09:59:06.999Z</time></trkpt><trkpt lat="44.80871391517906" lon="7.287153009489558"><ele>423.4285714285714</ele><time>2026-04-07T09:59:07.999Z</time></trkpt><trkpt lat="44.80869237910079" lon="7.287251168347725"><ele>423.7142857142857</ele><time>2026-04-07T09:59:08.999Z</time></trkpt><trkpt lat="44.808673610555935" lon="7.287340954542416"><ele>424.0</ele><time>2026-04-07T09:59:09.999Z</time></trkpt><trkpt lat="44.808644245693955" lon="7.287496534608898"><ele>424.6</ele><time>2026-04-07T09:59:11.999Z</time></trkpt><trkpt lat="44.808619227208176" lon="7.287652697268864"><ele>425.2</ele><time>2026-04-07T09:59:13.999Z</time></trkpt><trkpt lat="44.808595075160774" lon="7.28779156102882"><ele>425.80000000000007</ele><time>2026-04-07T09:59:15.999Z</time></trkpt><trkpt lat="44.808561592985896" lon="7.287935699934586"><ele>426.40000000000003</ele><time>2026-04-07T09:59:17.999Z</time></trkpt><trkpt lat="44.80852495669394" lon="7.288008024018251"><ele>427.0</ele><time>2026-04-07T09:59:18.999Z</time></trkpt><trkpt lat="44.80847239760435" lon="7.288163839854506"><ele>424.20000000000005</ele><time>2026-04-07T09:59:20.999Z</time></trkpt><trkpt lat="44.808389422305744" lon="7.288212114622566"><ele>421.40000000000003</ele><time>2026-04-07T09:59:21.999Z</time></trkpt><trkpt lat="44.8083006869858" lon="7.28820835549155"><ele>418.6</ele><time>2026-04-07T09:59:22.999Z</time></trkpt><trkpt lat="44.80822970761512" lon="7.288208673669926"><ele>415.79999999999995</ele><time>2026-04-07T09:59:23.999Z</time></trkpt><trkpt lat="44.80809851624998" lon="7.2881514205395534"><ele>413.0</ele><time>2026-04-07T09:59:25.999Z</time></trkpt><trkpt lat="44.80801615796504" lon="7.288120842565258"><ele>413.0</ele><time>2026-04-07T09:59:26.999Z</time></trkpt><trkpt lat="44.807919116085976" lon="7.288087827312065"><ele>413.0</ele><time>2026-04-07T09:59:27.999Z</time></trkpt><trkpt lat="44.80781035470044" lon="7.288044028117518"><ele>413.0</ele><time>2026-04-07T09:59:28.999Z</time></trkpt><trkpt lat="44.80767962214832" lon="7.287966831583979"><ele>413.0</ele><time>2026-04-07T09:59:29.999Z</time></trkpt><trkpt lat="44.8075132595313" lon="7.287889679016783"><ele>411.0</ele><time>2026-04-07T09:59:30.999Z</time></trkpt><trkpt lat="44.807361928834304" lon="7.287819883005174"><ele>409.0</ele><time>2026-04-07T09:59:31.999Z</time></trkpt><trkpt lat="44.807220648830395" lon="7.287762157437064"><ele>407.0</ele><time>2026-04-07T09:59:32.999Z</time></trkpt><trkpt lat="44.807080425174256" lon="7.287678615840648"><ele>407.0</ele><time>2026-04-07T09:59:33.999Z</time></trkpt><trkpt lat="44.80695020122902" lon="7.287614027668301"><ele>407.0</ele><time>2026-04-07T09:59:34.999Z</time></trkpt><trkpt lat="44.806830661615386" lon="7.287561861696511"><ele>407.0</ele><time>2026-04-07T09:59:35.999Z</time></trkpt><trkpt lat="44.80673076574453" lon="7.287527312379669"><ele>407.0</ele><time>2026-04-07T09:59:36.999Z</time></trkpt><trkpt lat="44.80664997457732" lon="7.287501824334412"><ele>407.0</ele><time>2026-04-07T09:59:37.999Z</time></trkpt><trkpt lat="44.806574100334736" lon="7.287469284945291"><ele>408.20000000000005</ele><time>2026-04-07T09:59:38.999Z</time></trkpt><trkpt lat="44.80650542614888" lon="7.287405266363603"><ele>409.4</ele><time>2026-04-07T09:59:39.999Z</time></trkpt><trkpt lat="44.806453851568655" lon="7.287312413535207"><ele>410.6</ele><time>2026-04-07T09:59:40.999Z</time></trkpt><trkpt lat="44.80642414622576" lon="7.287175533308447"><ele>411.79999999999995</ele><time>2026-04-07T09:59:41.999Z</time></trkpt><trkpt lat="44.806411332225814" lon="7.287014920848815"><ele>413.0</ele><time>2026-04-07T09:59:42.999Z</time></trkpt><trkpt lat="44.80640390427584" lon="7.286833398424775"><ele>413.3333333333333</ele><time>2026-04-07T09:59:43.999Z</time></trkpt><trkpt lat="44.806378039318915" lon="7.286622182253227"><ele>413.66666666666663</ele><time>2026-04-07T09:59:44.999Z</time></trkpt><trkpt lat="44.80636476175782" lon="7.2863951388344015"><ele>414.0</ele><time>2026-04-07T09:59:45.999Z</time></trkpt><trkpt lat="44.80635495432851" lon="7.286186199082011"><ele>415.0</ele><time>2026-04-07T09:59:46.999Z</time></trkpt><trkpt lat="44.80636047738322" lon="7.285944796284044"><ele>416.0</ele><time>2026-04-07T09:59:47.999Z</time></trkpt><trkpt lat="44.806371837400484" lon="7.285695197543474"><ele>417.0</ele><time>2026-04-07T09:59:48.999Z</time></trkpt><trkpt lat="44.806386683099205" lon="7.2854393381691045"><ele>417.5</ele><time>2026-04-07T09:59:49.999Z</time></trkpt><trkpt lat="44.80640549763251" lon="7.285218173468742"><ele>418.0</ele><time>2026-04-07T09:59:50.999Z</time></trkpt><trkpt lat="44.806429096990826" lon="7.285012514247704"><ele>418.5</ele><time>2026-04-07T09:59:51.999Z</time></trkpt><trkpt lat="44.80644876767011" lon="7.28481997544142"><ele>419.0</ele><time>2026-04-07T09:59:52.999Z</time></trkpt><trkpt lat="44.8064664593627" lon="7.284648554750433"><ele>419.0</ele><time>2026-04-07T09:59:53.999Z</time></trkpt><trkpt lat="44.80650689160524" lon="7.284499845909853"><ele>419.0</ele><time>2026-04-07T09:59:54.999Z</time></trkpt><trkpt lat="44.806536875506666" lon="7.284363268578626"><ele>419.0</ele><time>2026-04-07T09:59:56Z</time></trkpt><trkpt lat="44.80652973255507" lon="7.284218140704949"><ele>419.0</ele><time>2026-04-07T09:59:57Z</time></trkpt><trkpt lat="44.80650362202435" lon="7.284058095714768"><ele>419.0</ele><time>2026-04-07T09:59:58Z</time></trkpt><trkpt lat="44.806477007620266" lon="7.283902545108735"><ele>419.0</ele><time>2026-04-07T09:59:59Z</time></trkpt><trkpt lat="44.806459475552586" lon="7.283760025973368"><ele>419.0</ele><time>2026-04-07T10:00:00Z</time></trkpt><trkpt lat="44.80644067774277" lon="7.28364155157573"><ele>419.0</ele><time>2026-04-07T10:00:01Z</time></trkpt><trkpt lat="44.806417084964174" lon="7.283508323691167"><ele>419.0</ele><time>2026-04-07T10:00:02Z</time></trkpt><trkpt lat="44.8063807251817" lon="7.283343737400563"><ele>419.0</ele><time>2026-04-07T10:00:03Z</time></trkpt><trkpt lat="44.80636360164082" lon="7.283139775665176"><ele>420.0</ele><time>2026-04-07T10:00:04Z</time></trkpt><trkpt lat="44.80635479875127" lon="7.282915024268526"><ele>421.0</ele><time>2026-04-07T10:00:05Z</time></trkpt><trkpt lat="44.80634209549367" lon="7.2826881679179785"><ele>422.0</ele><time>2026-04-07T10:00:06Z</time></trkpt><trkpt lat="44.80634023658763" lon="7.282467483018477"><ele>421.66666666666663</ele><time>2026-04-07T10:00:07Z</time></trkpt><trkpt lat="44.8063538358669" lon="7.282226243453115"><ele>421.33333333333337</ele><time>2026-04-07T10:00:08Z</time></trkpt><trkpt lat="44.80638506268126" lon="7.2819785452855195"><ele>421.0</ele><time>2026-04-07T10:00:09Z</time></trkpt><trkpt lat="44.8064359873399" lon="7.281721081204022"><ele>421.0</ele><time>2026-04-07T10:00:10Z</time></trkpt><trkpt lat="44.80650651591468" lon="7.281457822596024"><ele>421.0</ele><time>2026-04-07T10:00:11Z</time></trkpt><trkpt lat="44.80656847777051" lon="7.281207908276885"><ele>421.0</ele><time>2026-04-07T10:00:12Z</time></trkpt><trkpt lat="44.8066153191499" lon="7.280956419100873"><ele>421.6666666666667</ele><time>2026-04-07T10:00:13Z</time></trkpt><trkpt lat="44.80664769319373" lon="7.2806912183259245"><ele>422.33333333333337</ele><time>2026-04-07T10:00:14Z</time></trkpt><trkpt lat="44.80667445584302" lon="7.2804224067906995"><ele>423.0</ele><time>2026-04-07T10:00:15Z</time></trkpt><trkpt lat="44.80668580001735" lon="7.280150903129071"><ele>423.33333333333337</ele><time>2026-04-07T10:00:16Z</time></trkpt><trkpt lat="44.80668555607751" lon="7.279871682404069"><ele>423.6666666666667</ele><time>2026-04-07T10:00:17Z</time></trkpt><trkpt lat="44.80667696370275" lon="7.27958370024093"><ele>424.0</ele><time>2026-04-07T10:00:18Z</time></trkpt><trkpt lat="44.80665894636734" lon="7.279275762403822"><ele>424.5</ele><time>2026-04-07T10:00:19Z</time></trkpt><trkpt lat="44.806635944635815" lon="7.2789545118390215"><ele>425.0</ele><time>2026-04-07T10:00:20Z</time></trkpt><trkpt lat="44.806634069633326" lon="7.278624692612916"><ele>427.0</ele><time>2026-04-07T10:00:21Z</time></trkpt><trkpt lat="44.80664870117437" lon="7.2783152072647015"><ele>429.0</ele><time>2026-04-07T10:00:22Z</time></trkpt><trkpt lat="44.80667052213235" lon="7.277992819637493"><ele>431.5</ele><time>2026-04-07T10:00:23Z</time></trkpt><trkpt lat="44.80670757849841" lon="7.277663851118942"><ele>434.0</ele><time>2026-04-07T10:00:24Z</time></trkpt><trkpt lat="44.80676309248477" lon="7.27736544006616"><ele>431.5</ele><time>2026-04-07T10:00:25Z</time></trkpt><trkpt lat="44.80684604134479" lon="7.277069110104819"><ele>429.0</ele><time>2026-04-07T10:00:26Z</time></trkpt><trkpt lat="44.8069452262327" lon="7.276773235529865"><ele>429.0</ele><time>2026-04-07T10:00:27Z</time></trkpt><trkpt lat="44.807041213078136" lon="7.276467785017105"><ele>429.0</ele><time>2026-04-07T10:00:28Z</time></trkpt><trkpt lat="44.80713902504849" lon="7.276149246173408"><ele>433.5</ele><time>2026-04-07T10:00:29Z</time></trkpt><trkpt lat="44.80724294042461" lon="7.275829843452348"><ele>438.0</ele><time>2026-04-07T10:00:30Z</time></trkpt><trkpt lat="44.80734580450667" lon="7.27550385115156"><ele>441.66666666666663</ele><time>2026-04-07T10:00:31Z</time></trkpt><trkpt lat="44.80743756809935" lon="7.275211614503107"><ele>445.3333333333333</ele><time>2026-04-07T10:00:32Z</time></trkpt><trkpt lat="44.807514432241184" lon="7.274961105917839"><ele>449.0</ele><time>2026-04-07T10:00:33Z</time></trkpt><trkpt lat="44.80757345472102" lon="7.274756556894185"><ele>450.66666666666663</ele><time>2026-04-07T10:00:34Z</time></trkpt><trkpt lat="44.80761418859109" lon="7.274553671518204"><ele>452.33333333333337</ele><time>2026-04-07T10:00:35Z</time></trkpt><trkpt lat="44.80762005531235" lon="7.2743406715644685"><ele>454.0</ele><time>2026-04-07T10:00:36Z</time></trkpt><trkpt lat="44.80759053778208" lon="7.274120925196331"><ele>455.33333333333337</ele><time>2026-04-07T10:00:37Z</time></trkpt><trkpt lat="44.80753554830019" lon="7.273923126892074"><ele>456.66666666666663</ele><time>2026-04-07T10:00:38Z</time></trkpt><trkpt lat="44.807448383851124" lon="7.273744508290254"><ele>458.0</ele><time>2026-04-07T10:00:39Z</time></trkpt><trkpt lat="44.8073416648082" lon="7.273580246746346"><ele>458.0</ele><time>2026-04-07T10:00:40Z</time></trkpt><trkpt lat="44.80721816704361" lon="7.273427786483246"><ele>458.0</ele><time>2026-04-07T10:00:41Z</time></trkpt><trkpt lat="44.807108212764575" lon="7.273273251084612"><ele>458.0</ele><time>2026-04-07T10:00:42Z</time></trkpt><trkpt lat="44.80700652605199" lon="7.273126314367722"><ele>457.5</ele><time>2026-04-07T10:00:43Z</time></trkpt><trkpt lat="44.80691765123428" lon="7.272999806921618"><ele>457.0</ele><time>2026-04-07T10:00:44Z</time></trkpt><trkpt lat="44.806848516848916" lon="7.272869978391985"><ele>456.5</ele><time>2026-04-07T10:00:45Z</time></trkpt><trkpt lat="44.8067940259149" lon="7.272688886418618"><ele>456.0</ele><time>2026-04-07T10:00:46Z</time></trkpt><trkpt lat="44.8067211193654" lon="7.272494712225501"><ele>456.0</ele><time>2026-04-07T10:00:47Z</time></trkpt><trkpt lat="44.80665090483069" lon="7.272285846604002"><ele>456.0</ele><time>2026-04-07T10:00:48Z</time></trkpt><trkpt lat="44.80658389189224" lon="7.272050150030709"><ele>456.0</ele><time>2026-04-07T10:00:49Z</time></trkpt><trkpt lat="44.80650398889362" lon="7.271818710990565"><ele>456.33333333333337</ele><time>2026-04-07T10:00:50Z</time></trkpt><trkpt lat="44.806410431928064" lon="7.2715625658701395"><ele>456.6666666666667</ele><time>2026-04-07T10:00:51Z</time></trkpt><trkpt lat="44.806308068354284" lon="7.271298831491399"><ele>457.0</ele><time>2026-04-07T10:00:52Z</time></trkpt><trkpt lat="44.80620674888029" lon="7.271038842494924"><ele>457.33333333333337</ele><time>2026-04-07T10:00:53Z</time></trkpt><trkpt lat="44.80611118908449" lon="7.270794977685075"><ele>457.66666666666663</ele><time>2026-04-07T10:00:54Z</time></trkpt><trkpt lat="44.80600652697045" lon="7.270528660988666"><ele>458.0</ele><time>2026-04-07T10:00:55Z</time></trkpt><trkpt lat="44.80590560445845" lon="7.270249339511439"><ele>458.0</ele><time>2026-04-07T10:00:56Z</time></trkpt><trkpt lat="44.80582753009266" lon="7.269985400598083"><ele>458.0</ele><time>2026-04-07T10:00:57Z</time></trkpt><trkpt lat="44.80576860534106" lon="7.269697971763084"><ele>458.0</ele><time>2026-04-07T10:00:58Z</time></trkpt><trkpt lat="44.80572385540655" lon="7.26937759288808"><ele>459.5</ele><time>2026-04-07T10:00:59Z</time></trkpt><trkpt lat="44.8056804727322" lon="7.26906149456465"><ele>461.0</ele><time>2026-04-07T10:01:00Z</time></trkpt><trkpt lat="44.805631824181106" lon="7.268744199956362"><ele>461.0</ele><time>2026-04-07T10:01:01Z</time></trkpt><trkpt lat="44.80557866229158" lon="7.268419418902339"><ele>461.0</ele><time>2026-04-07T10:01:02Z</time></trkpt><trkpt lat="44.80552433856436" lon="7.268090682187528"><ele>463.0</ele><time>2026-04-07T10:01:03Z</time></trkpt><trkpt lat="44.80546641007449" lon="7.267762888041682"><ele>465.0</ele><time>2026-04-07T10:01:04Z</time></trkpt><trkpt lat="44.805400939159966" lon="7.2674335249939555"><ele>465.0</ele><time>2026-04-07T10:01:05Z</time></trkpt><trkpt lat="44.80533036504174" lon="7.267119085634279"><ele>465.0</ele><time>2026-04-07T10:01:06Z</time></trkpt><trkpt lat="44.80526882902481" lon="7.26682885138813"><ele>465.0</ele><time>2026-04-07T10:01:06.999Z</time></trkpt><trkpt lat="44.80522290903101" lon="7.2665353993676165"><ele>465.33333333333337</ele><time>2026-04-07T10:01:07.999Z</time></trkpt><trkpt lat="44.805197890939304" lon="7.266229387179799"><ele>465.6666666666667</ele><time>2026-04-07T10:01:08.999Z</time></trkpt><trkpt lat="44.80519432656992" lon="7.265927574215549"><ele>466.0</ele><time>2026-04-07T10:01:09.999Z</time></trkpt><trkpt lat="44.80520805931912" lon="7.265626757665551"><ele>466.0</ele><time>2026-04-07T10:01:10.999Z</time></trkpt><trkpt lat="44.80524295806039" lon="7.265329125655218"><ele>466.0</ele><time>2026-04-07T10:01:11.999Z</time></trkpt><trkpt lat="44.805303497106664" lon="7.265036617720265"><ele>466.0</ele><time>2026-04-07T10:01:12.999Z</time></trkpt><trkpt lat="44.80536411050482" lon="7.264751191220587"><ele>466.6666666666667</ele><time>2026-04-07T10:01:13.999Z</time></trkpt><trkpt lat="44.80541980969569" lon="7.264462350971757"><ele>467.33333333333337</ele><time>2026-04-07T10:01:14.999Z</time></trkpt><trkpt lat="44.805477236427315" lon="7.26415269252012"><ele>468.0</ele><time>2026-04-07T10:01:15.999Z</time></trkpt><trkpt lat="44.80552762413852" lon="7.263863344100815"><ele>466.33333333333337</ele><time>2026-04-07T10:01:16.999Z</time></trkpt><trkpt lat="44.80556914725376" lon="7.263580544852465"><ele>464.6666666666667</ele><time>2026-04-07T10:01:17.999Z</time></trkpt><trkpt lat="44.80559192566293" lon="7.2633064327157735"><ele>463.0</ele><time>2026-04-07T10:01:18.999Z</time></trkpt><trkpt lat="44.80559025425023" lon="7.263025223767416"><ele>462.33333333333337</ele><time>2026-04-07T10:01:19.999Z</time></trkpt><trkpt lat="44.80556423501654" lon="7.262728239902291"><ele>461.66666666666663</ele><time>2026-04-07T10:01:20.999Z</time></trkpt><trkpt lat="44.8055169567602" lon="7.262431918571445"><ele>461.0</ele><time>2026-04-07T10:01:21.999Z</time></trkpt><trkpt lat="44.80545079831034" lon="7.262134567826109"><ele>461.0</ele><time>2026-04-07T10:01:22.999Z</time></trkpt><trkpt lat="44.805372577274134" lon="7.2618383235131505"><ele>461.0</ele><time>2026-04-07T10:01:23.999Z</time></trkpt><trkpt lat="44.8053117714626" lon="7.261533565710776"><ele>461.0</ele><time>2026-04-07T10:01:24.999Z</time></trkpt><trkpt lat="44.80528086655615" lon="7.261209776589051"><ele>464.0</ele><time>2026-04-07T10:01:25.999Z</time></trkpt><trkpt lat="44.80527251086944" lon="7.260874707965963"><ele>467.0</ele><time>2026-04-07T10:01:26.999Z</time></trkpt><trkpt lat="44.80526277113815" lon="7.26053308713815"><ele>468.5</ele><time>2026-04-07T10:01:27.999Z</time></trkpt><trkpt lat="44.805253879485804" lon="7.260204180149073"><ele>470.0</ele><time>2026-04-07T10:01:28.999Z</time></trkpt><trkpt lat="44.805254127175274" lon="7.2598573795192145"><ele>472.0</ele><time>2026-04-07T10:01:29.999Z</time></trkpt><trkpt lat="44.8052641232187" lon="7.25950377891421"><ele>474.0</ele><time>2026-04-07T10:01:30.999Z</time></trkpt><trkpt lat="44.8052793338539" lon="7.259147650156023"><ele>475.33333333333337</ele><time>2026-04-07T10:01:31.999Z</time></trkpt><trkpt lat="44.805298478135875" lon="7.258830380181993"><ele>476.6666666666667</ele><time>2026-04-07T10:01:32.999Z</time></trkpt><trkpt lat="44.805310727316815" lon="7.25854294310642"><ele>478.0</ele><time>2026-04-07T10:01:33.999Z</time></trkpt><trkpt lat="44.80531277904073" lon="7.258279130760379"><ele>478.0</ele><time>2026-04-07T10:01:34.999Z</time></trkpt><trkpt lat="44.80528898299705" lon="7.25802520520363"><ele>478.0</ele><time>2026-04-07T10:01:35.999Z</time></trkpt><trkpt lat="44.80523316795278" lon="7.257774020483517"><ele>478.0</ele><time>2026-04-07T10:01:36.999Z</time></trkpt><trkpt lat="44.80514691910417" lon="7.257534249462569"><ele>478.0</ele><time>2026-04-07T10:01:37.999Z</time></trkpt><trkpt lat="44.805047502000065" lon="7.257311291886935"><ele>478.0</ele><time>2026-04-07T10:01:38.999Z</time></trkpt><trkpt lat="44.80497959874451" lon="7.257110057835114"><ele>478.0</ele><time>2026-04-07T10:01:39.999Z</time></trkpt><trkpt lat="44.80491439083177" lon="7.256921801122162"><ele>479.75</ele><time>2026-04-07T10:01:40.999Z</time></trkpt><trkpt lat="44.80484599839395" lon="7.256736344197437"><ele>481.5</ele><time>2026-04-07T10:01:41.999Z</time></trkpt><trkpt lat="44.8047898509976" lon="7.256570386531581"><ele>483.25</ele><time>2026-04-07T10:01:42.999Z</time></trkpt><trkpt lat="44.8047531900105" lon="7.256423444180525"><ele>485.0</ele><time>2026-04-07T10:01:43.999Z</time></trkpt><trkpt lat="44.80472961232585" lon="7.256299532997336"><ele>485.49999999999994</ele><time>2026-04-07T10:01:44.999Z</time></trkpt><trkpt lat="44.80473173971522" lon="7.2561870416398735"><ele>486.0</ele><time>2026-04-07T10:01:45.999Z</time></trkpt><trkpt lat="44.804763895377555" lon="7.256083434607201"><ele>486.5</ele><time>2026-04-07T10:01:46.999Z</time></trkpt><trkpt lat="44.804803699437315" lon="7.255983970279411"><ele>487.0</ele><time>2026-04-07T10:01:47.999Z</time></trkpt><trkpt lat="44.80480982310697" lon="7.255877814519247"><ele>487.49999999999994</ele><time>2026-04-07T10:01:48.999Z</time></trkpt><trkpt lat="44.804775700826745" lon="7.255758797422408"><ele>488.0</ele><time>2026-04-07T10:01:49.999Z</time></trkpt><trkpt lat="44.804711017639725" lon="7.255647332954"><ele>488.5</ele><time>2026-04-07T10:01:50.999Z</time></trkpt><trkpt lat="44.80467101274248" lon="7.255516434097292"><ele>489.0</ele><time>2026-04-07T10:01:51.999Z</time></trkpt><trkpt lat="44.80468052509862" lon="7.25535721730151"><ele>489.5</ele><time>2026-04-07T10:01:52.999Z</time></trkpt><trkpt lat="44.804719471032115" lon="7.255191697468742"><ele>490.0</ele><time>2026-04-07T10:01:53.999Z</time></trkpt><trkpt lat="44.80477158155862" lon="7.2550404052851425"><ele>490.0</ele><time>2026-04-07T10:01:54.999Z</time></trkpt><trkpt lat="44.80482034340611" lon="7.2549235728139125"><ele>490.0</ele><time>2026-04-07T10:01:55.999Z</time></trkpt><trkpt lat="44.804863939780994" lon="7.254791470377795"><ele>490.0</ele><time>2026-04-07T10:01:56.999Z</time></trkpt><trkpt lat="44.8048995797445" lon="7.254644041728287"><ele>490.0</ele><time>2026-04-07T10:01:57.999Z</time></trkpt><trkpt lat="44.80493269095249" lon="7.254480124208979"><ele>490.0</ele><time>2026-04-07T10:01:58.999Z</time></trkpt><trkpt lat="44.80495258124959" lon="7.254311840860777"><ele>490.25</ele><time>2026-04-07T10:01:59.999Z</time></trkpt><trkpt lat="44.8049576267693" lon="7.254150517854338"><ele>490.5</ele><time>2026-04-07T10:02:00.999Z</time></trkpt><trkpt lat="44.80494754554179" lon="7.253989983101821"><ele>490.75</ele><time>2026-04-07T10:02:02Z</time></trkpt><trkpt lat="44.80492576901436" lon="7.253830626938498"><ele>491.0</ele><time>2026-04-07T10:02:03Z</time></trkpt><trkpt lat="44.80489098607739" lon="7.253675221355951"><ele>490.75</ele><time>2026-04-07T10:02:04Z</time></trkpt><trkpt lat="44.804840163299055" lon="7.253521795771388"><ele>490.5</ele><time>2026-04-07T10:02:05Z</time></trkpt><trkpt lat="44.804777881045794" lon="7.2533553855111705"><ele>490.25</ele><time>2026-04-07T10:02:06Z</time></trkpt><trkpt lat="44.804709823514195" lon="7.253173311560171"><ele>490.0</ele><time>2026-04-07T10:02:07Z</time></trkpt><trkpt lat="44.804638534818515" lon="7.252976851769952"><ele>490.0</ele><time>2026-04-07T10:02:08Z</time></trkpt><trkpt lat="44.80456507441393" lon="7.252768421513215"><ele>490.0</ele><time>2026-04-07T10:02:09Z</time></trkpt><trkpt lat="44.8044872179748" lon="7.252543498734232"><ele>490.0</ele><time>2026-04-07T10:02:10Z</time></trkpt><trkpt lat="44.80441415908823" lon="7.252330708635615"><ele>490.6666666666667</ele><time>2026-04-07T10:02:11Z</time></trkpt><trkpt lat="44.8043343722599" lon="7.252108247640873"><ele>491.33333333333337</ele><time>2026-04-07T10:02:12Z</time></trkpt><trkpt lat="44.804254847285236" lon="7.251892022326767"><ele>492.0</ele><time>2026-04-07T10:02:13Z</time></trkpt><trkpt lat="44.80417048119683" lon="7.251671088655507"><ele>494.0</ele><time>2026-04-07T10:02:14Z</time></trkpt><trkpt lat="44.80408371452637" lon="7.251452608671068"><ele>496.0</ele><time>2026-04-07T10:02:15Z</time></trkpt><trkpt lat="44.80400126877448" lon="7.25124918467038"><ele>498.0</ele><time>2026-04-07T10:02:16Z</time></trkpt><trkpt lat="44.80392178148802" lon="7.251052120804184"><ele>498.0</ele><time>2026-04-07T10:02:17Z</time></trkpt><trkpt lat="44.803840885327645" lon="7.250859940557559"><ele>498.0</ele><time>2026-04-07T10:02:18Z</time></trkpt><trkpt lat="44.803757105820246" lon="7.250673171704039"><ele>498.0</ele><time>2026-04-07T10:02:19Z</time></trkpt><trkpt lat="44.803668134530554" lon="7.250490187070347"><ele>497.25</ele><time>2026-04-07T10:02:20Z</time></trkpt><trkpt lat="44.80357166495762" lon="7.250322285790014"><ele>496.5</ele><time>2026-04-07T10:02:21Z</time></trkpt><trkpt lat="44.80348356258197" lon="7.250168098984497"><ele>495.75</ele><time>2026-04-07T10:02:22Z</time></trkpt><trkpt lat="44.803406453406446" lon="7.250030643777302"><ele>495.0</ele><time>2026-04-07T10:02:23Z</time></trkpt><trkpt lat="44.80333674428172" lon="7.249915021446531"><ele>495.6</ele><time>2026-04-07T10:02:24Z</time></trkpt><trkpt lat="44.80328700838689" lon="7.249823724501033"><ele>496.2</ele><time>2026-04-07T10:02:25Z</time></trkpt><trkpt lat="44.803244417200624" lon="7.24975636109328"><ele>496.79999999999995</ele><time>2026-04-07T10:02:26Z</time></trkpt><trkpt lat="44.80318085984639" lon="7.249669322519309"><ele>497.4</ele><time>2026-04-07T10:02:28Z</time></trkpt><trkpt lat="44.80305604595961" lon="7.249755073099629"><ele>498.0</ele><time>2026-04-07T10:02:29Z</time></trkpt><trkpt lat="44.802973599071414" lon="7.249791261639193"><ele>499.0</ele><time>2026-04-07T10:02:30Z</time></trkpt><trkpt lat="44.80288525131063" lon="7.24982552493621"><ele>500.0</ele><time>2026-04-07T10:02:31Z</time></trkpt><trkpt lat="44.802795818923634" lon="7.249855045931055"><ele>501.0</ele><time>2026-04-07T10:02:32Z</time></trkpt><trkpt lat="44.802720429421804" lon="7.249896364569651"><ele>502.0</ele><time>2026-04-07T10:02:33Z</time></trkpt><trkpt lat="44.80263860693264" lon="7.249928074078245"><ele>503.0</ele><time>2026-04-07T10:02:34Z</time></trkpt><trkpt lat="44.802575226680034" lon="7.249963029098465"><ele>504.0</ele><time>2026-04-07T10:02:35Z</time></trkpt><trkpt lat="44.80245244394282" lon="7.249984013849172"><ele>505.0</ele><time>2026-04-07T10:02:37Z</time></trkpt><trkpt lat="44.80238632894314" lon="7.250005440871041"><ele>506.0</ele><time>2026-04-07T10:02:38Z</time></trkpt><trkpt lat="44.80231885623655" lon="7.249997329242438"><ele>507.0</ele><time>2026-04-07T10:02:39Z</time></trkpt><trkpt lat="44.80224986363235" lon="7.249982591197541"><ele>508.0</ele><time>2026-04-07T10:02:40Z</time></trkpt><trkpt lat="44.802174838851364" lon="7.250011063846154"><ele>509.0</ele><time>2026-04-07T10:02:41Z</time></trkpt><trkpt lat="44.802096699670315" lon="7.250054780650627"><ele>510.0</ele><time>2026-04-07T10:02:42Z</time></trkpt><trkpt lat="44.80203467557586" lon="7.250162984812291"><ele>510.0</ele><time>2026-04-07T10:02:43Z</time></trkpt><trkpt lat="44.80197650971707" lon="7.250239130548942"><ele>510.0</ele><time>2026-04-07T10:02:44Z</time></trkpt><trkpt lat="44.80191437261018" lon="7.250289525078213"><ele>510.0</ele><time>2026-04-07T10:02:45Z</time></trkpt><trkpt lat="44.801877648428864" lon="7.250371964646033"><ele>510.0</ele><time>2026-04-07T10:02:46Z</time></trkpt><trkpt lat="44.801817024685306" lon="7.250444568243674"><ele>510.0</ele><time>2026-04-07T10:02:49Z</time></trkpt><trkpt lat="44.80174983945933" lon="7.250500427336178"><ele>510.0</ele><time>2026-04-07T10:02:51Z</time></trkpt><trkpt lat="44.80165335216918" lon="7.250594003310397"><ele>510.0</ele><time>2026-04-07T10:02:53Z</time></trkpt><trkpt lat="44.801598253458955" lon="7.25063773808626"><ele>510.00000000000006</ele><time>2026-04-07T10:02:54Z</time></trkpt><trkpt lat="44.801536031475884" lon="7.250681820703663"><ele>510.0</ele><time>2026-04-07T10:02:55Z</time></trkpt><trkpt lat="44.80146074548566" lon="7.250714064997844"><ele>510.0</ele><time>2026-04-07T10:02:56Z</time></trkpt><trkpt lat="44.80138489128534" lon="7.250751906692763"><ele>510.00000000000006</ele><time>2026-04-07T10:02:57Z</time></trkpt><trkpt lat="44.80131531462029" lon="7.250759785517905"><ele>510.0</ele><time>2026-04-07T10:02:58Z</time></trkpt><trkpt lat="44.80124509465667" lon="7.250821477011611"><ele>510.0</ele><time>2026-04-07T10:02:59Z</time></trkpt><trkpt lat="44.80116065233217" lon="7.250872342968032"><ele>510.0</ele><time>2026-04-07T10:03:00Z</time></trkpt><trkpt lat="44.80106843524508" lon="7.2509242710019075"><ele>510.0</ele><time>2026-04-07T10:03:01Z</time></trkpt><trkpt lat="44.80098353308286" lon="7.250980682304686"><ele>510.0</ele><time>2026-04-07T10:03:02Z</time></trkpt><trkpt lat="44.80090721262812" lon="7.251035963568508"><ele>510.0</ele><time>2026-04-07T10:03:03Z</time></trkpt><trkpt lat="44.80083458348226" lon="7.251090615490038"><ele>510.0</ele><time>2026-04-07T10:03:04Z</time></trkpt><trkpt lat="44.800757322847254" lon="7.251155447010371"><ele>510.4</ele><time>2026-04-07T10:03:05Z</time></trkpt><trkpt lat="44.80069981825887" lon="7.251228171343954"><ele>510.8</ele><time>2026-04-07T10:03:06Z</time></trkpt><trkpt lat="44.80064269587812" lon="7.25130327229887"><ele>511.20000000000005</ele><time>2026-04-07T10:03:07Z</time></trkpt><trkpt lat="44.80062048366781" lon="7.251425299934974"><ele>511.6</ele><time>2026-04-07T10:03:08Z</time></trkpt><trkpt lat="44.80064533995693" lon="7.2515693227016245"><ele>512.0</ele><time>2026-04-07T10:03:09Z</time></trkpt><trkpt lat="44.80068542696845" lon="7.2517104950937865"><ele>512.4</ele><time>2026-04-07T10:03:10Z</time></trkpt><trkpt lat="44.80074444546189" lon="7.25185361065778"><ele>512.8000000000001</ele><time>2026-04-07T10:03:10.999Z</time></trkpt><trkpt lat="44.800800109519315" lon="7.252008934566378"><ele>513.2</ele><time>2026-04-07T10:03:11.999Z</time></trkpt><trkpt lat="44.80083749567374" lon="7.252150519754713"><ele>513.6</ele><time>2026-04-07T10:03:12.999Z</time></trkpt><trkpt lat="44.80085926109385" lon="7.252275302256162"><ele>514.0</ele><time>2026-04-07T10:03:13.999Z</time></trkpt><trkpt lat="44.80087700566264" lon="7.252400725855113"><ele>514.0</ele><time>2026-04-07T10:03:14.999Z</time></trkpt><trkpt lat="44.800890676107386" lon="7.252518622452176"><ele>514.0</ele><time>2026-04-07T10:03:15.999Z</time></trkpt><trkpt lat="44.800854435596115" lon="7.25263781697227"><ele>514.0</ele><time>2026-04-07T10:03:16.999Z</time></trkpt><trkpt lat="44.80080816972937" lon="7.252785281451566"><ele>514.0</ele><time>2026-04-07T10:03:17.999Z</time></trkpt><trkpt lat="44.80074066616861" lon="7.252929644086438"><ele>514.0</ele><time>2026-04-07T10:03:18.999Z</time></trkpt><trkpt lat="44.80069346042538" lon="7.253056344768964"><ele>513.5</ele><time>2026-04-07T10:03:19.999Z</time></trkpt><trkpt lat="44.80064599423687" lon="7.2531902858197785"><ele>513.0</ele><time>2026-04-07T10:03:20.999Z</time></trkpt><trkpt lat="44.80056117644422" lon="7.253331865748302"><ele>512.5</ele><time>2026-04-07T10:03:21.999Z</time></trkpt><trkpt lat="44.80046828840955" lon="7.253489595674315"><ele>512.0</ele><time>2026-04-07T10:03:22.999Z</time></trkpt><trkpt lat="44.800368499677205" lon="7.253643658909056"><ele>512.0</ele><time>2026-04-07T10:03:23.999Z</time></trkpt><trkpt lat="44.80026401669199" lon="7.253783464215839"><ele>512.0</ele><time>2026-04-07T10:03:24.999Z</time></trkpt><trkpt lat="44.800165128113946" lon="7.253915956736234"><ele>512.0</ele><time>2026-04-07T10:03:25.999Z</time></trkpt><trkpt lat="44.80007324471249" lon="7.254048948810549"><ele>512.0</ele><time>2026-04-07T10:03:26.999Z</time></trkpt><trkpt lat="44.79998110819865" lon="7.254154836354268"><ele>511.8</ele><time>2026-04-07T10:03:27.999Z</time></trkpt><trkpt lat="44.79989751206711" lon="7.254234208403634"><ele>511.6</ele><time>2026-04-07T10:03:28.999Z</time></trkpt><trkpt lat="44.79981566332054" lon="7.25428680067489"><ele>511.40000000000003</ele><time>2026-04-07T10:03:29.999Z</time></trkpt><trkpt lat="44.79972947456585" lon="7.254310942104519"><ele>511.20000000000005</ele><time>2026-04-07T10:03:30.999Z</time></trkpt><trkpt lat="44.799639355751424" lon="7.254358167768453"><ele>511.0</ele><time>2026-04-07T10:03:31.999Z</time></trkpt><trkpt lat="44.799549967964815" lon="7.254435726263065"><ele>511.0</ele><time>2026-04-07T10:03:32.999Z</time></trkpt><trkpt lat="44.79949044239215" lon="7.254567184316246"><ele>511.0</ele><time>2026-04-07T10:03:33.999Z</time></trkpt><trkpt lat="44.799415092188525" lon="7.254707128948501"><ele>511.0</ele><time>2026-04-07T10:03:34.999Z</time></trkpt><trkpt lat="44.79932783553362" lon="7.254846375989584"><ele>511.0</ele><time>2026-04-07T10:03:35.999Z</time></trkpt><trkpt lat="44.79921772349768" lon="7.254981507300713"><ele>512.0</ele><time>2026-04-07T10:03:36.999Z</time></trkpt><trkpt lat="44.79911935076464" lon="7.255086207453505"><ele>513.0</ele><time>2026-04-07T10:03:37.999Z</time></trkpt><trkpt lat="44.799043721555705" lon="7.255214068463323"><ele>514.0</ele><time>2026-04-07T10:03:38.999Z</time></trkpt><trkpt lat="44.79899428562382" lon="7.255333302532047"><ele>515.0</ele><time>2026-04-07T10:03:39.999Z</time></trkpt><trkpt lat="44.79896166129667" lon="7.255446590804459"><ele>516.0</ele><time>2026-04-07T10:03:40.999Z</time></trkpt><trkpt lat="44.79895837965666" lon="7.2555886615615055"><ele>517.6</ele><time>2026-04-07T10:03:41.999Z</time></trkpt><trkpt lat="44.79898095895648" lon="7.255722902580385"><ele>519.2</ele><time>2026-04-07T10:03:42.999Z</time></trkpt><trkpt lat="44.799016145840646" lon="7.255846243474817"><ele>520.8</ele><time>2026-04-07T10:03:43.999Z</time></trkpt><trkpt lat="44.79906553363995" lon="7.255978615108195"><ele>522.4</ele><time>2026-04-07T10:03:44.999Z</time></trkpt><trkpt lat="44.79911397212416" lon="7.25611048008658"><ele>524.0</ele><time>2026-04-07T10:03:45.999Z</time></trkpt><trkpt lat="44.799146267342266" lon="7.256257081834061"><ele>524.0</ele><time>2026-04-07T10:03:46.999Z</time></trkpt><trkpt lat="44.79915633829094" lon="7.256416436398521"><ele>524.0</ele><time>2026-04-07T10:03:47.999Z</time></trkpt><trkpt lat="44.799150140621855" lon="7.256580663975216"><ele>524.0</ele><time>2026-04-07T10:03:48.999Z</time></trkpt><trkpt lat="44.79913601780929" lon="7.2567481860209195"><ele>524.0</ele><time>2026-04-07T10:03:49.999Z</time></trkpt><trkpt lat="44.79912286207871" lon="7.256881042699788"><ele>524.0</ele><time>2026-04-07T10:03:50.999Z</time></trkpt><trkpt lat="44.799103918168036" lon="7.257009614960016"><ele>527.0</ele><time>2026-04-07T10:03:51.999Z</time></trkpt><trkpt lat="44.79906076436661" lon="7.257138012454573"><ele>530.0</ele><time>2026-04-07T10:03:52.999Z</time></trkpt><trkpt lat="44.79900777058085" lon="7.2572634637608004"><ele>533.0</ele><time>2026-04-07T10:03:53.999Z</time></trkpt><trkpt lat="44.79897766440406" lon="7.257403701169448"><ele>536.0</ele><time>2026-04-07T10:03:54.999Z</time></trkpt><trkpt lat="44.79897109870829" lon="7.2575747866145575"><ele>539.0</ele><time>2026-04-07T10:03:55.999Z</time></trkpt><trkpt lat="44.79896729693469" lon="7.257749218339493"><ele>540.6666666666666</ele><time>2026-04-07T10:03:56.999Z</time></trkpt><trkpt lat="44.79896297593708" lon="7.257893245761186"><ele>542.3333333333333</ele><time>2026-04-07T10:03:57.999Z</time></trkpt><trkpt lat="44.79895645393307" lon="7.258015621643116"><ele>544.0</ele><time>2026-04-07T10:03:58.999Z</time></trkpt><trkpt lat="44.79894649763489" lon="7.258136068842908"><ele>545.6666666666666</ele><time>2026-04-07T10:03:59.999Z</time></trkpt><trkpt lat="44.79893346898809" lon="7.258225255950796"><ele>547.3333333333334</ele><time>2026-04-07T10:04:00.999Z</time></trkpt><trkpt lat="44.79891987523741" lon="7.2583381208300795"><ele>549.0</ele><time>2026-04-07T10:04:02.999Z</time></trkpt><trkpt lat="44.798795722244776" lon="7.258378638810747"><ele>550.4</ele><time>2026-04-07T10:04:04.999Z</time></trkpt><trkpt lat="44.79871654622413" lon="7.258350521755913"><ele>551.8</ele><time>2026-04-07T10:04:05.999Z</time></trkpt><trkpt lat="44.798631762302456" lon="7.258324500367389"><ele>553.2</ele><time>2026-04-07T10:04:06.999Z</time></trkpt><trkpt lat="44.79853452261907" lon="7.258312125090311"><ele>554.6</ele><time>2026-04-07T10:04:08Z</time></trkpt><trkpt lat="44.79843021071607" lon="7.258292128964945"><ele>556.0</ele><time>2026-04-07T10:04:09Z</time></trkpt><trkpt lat="44.79831435277937" lon="7.2582588194749835"><ele>556.5</ele><time>2026-04-07T10:04:10Z</time></trkpt><trkpt lat="44.798192574662416" lon="7.25826147212522"><ele>557.0</ele><time>2026-04-07T10:04:11Z</time></trkpt><trkpt lat="44.79809321491565" lon="7.258216247265118"><ele>557.5</ele><time>2026-04-07T10:04:12Z</time></trkpt><trkpt lat="44.79797114451182" lon="7.258206061859857"><ele>558.0</ele><time>2026-04-07T10:04:13Z</time></trkpt><trkpt lat="44.79784823487389" lon="7.2581992904374895"><ele>558.0</ele><time>2026-04-07T10:04:14Z</time></trkpt><trkpt lat="44.7977496408512" lon="7.258196305961824"><ele>558.0</ele><time>2026-04-07T10:04:15Z</time></trkpt><trkpt lat="44.7976682391003" lon="7.258191806514241"><ele>558.0</ele><time>2026-04-07T10:04:16Z</time></trkpt><trkpt lat="44.797598494217134" lon="7.25819568425026"><ele>558.0</ele><time>2026-04-07T10:04:17Z</time></trkpt><trkpt lat="44.79753619549717" lon="7.2582142668506835"><ele>558.0</ele><time>2026-04-07T10:04:18Z</time></trkpt><trkpt lat="44.797451402540624" lon="7.258241817399332"><ele>558.0</ele><time>2026-04-07T10:04:27Z</time></trkpt><trkpt lat="44.79737772662392" lon="7.2582492712490945"><ele>559.0</ele><time>2026-04-07T10:04:29Z</time></trkpt><trkpt lat="44.79727936621311" lon="7.258282290465227"><ele>560.0</ele><time>2026-04-07T10:04:31Z</time></trkpt><trkpt lat="44.79718254418481" lon="7.258334730438726"><ele>561.0</ele><time>2026-04-07T10:04:33Z</time></trkpt><trkpt lat="44.797084965915225" lon="7.258338312096813"><ele>562.0</ele><time>2026-04-07T10:04:35Z</time></trkpt><trkpt lat="44.79695591086366" lon="7.258362762807574"><ele>563.0</ele><time>2026-04-07T10:04:37Z</time></trkpt><trkpt lat="44.79689008277338" lon="7.258376524664918"><ele>562.6666666666666</ele><time>2026-04-07T10:04:38Z</time></trkpt><trkpt lat="44.79681905353001" lon="7.258404863105594"><ele>562.3333333333333</ele><time>2026-04-07T10:04:39Z</time></trkpt><trkpt lat="44.796745095010714" lon="7.258438108714875"><ele>562.0</ele><time>2026-04-07T10:04:40Z</time></trkpt><trkpt lat="44.79668002799525" lon="7.258459236461467"><ele>561.6666666666666</ele><time>2026-04-07T10:04:41Z</time></trkpt><trkpt lat="44.79658067677101" lon="7.258568685418685"><ele>561.3333333333334</ele><time>2026-04-07T10:04:43Z</time></trkpt><trkpt lat="44.796532433957594" lon="7.258649305805664"><ele>561.0</ele><time>2026-04-07T10:04:44Z</time></trkpt><trkpt lat="44.79648557683585" lon="7.25873278678394"><ele>561.0</ele><time>2026-04-07T10:04:45Z</time></trkpt><trkpt lat="44.796410951099695" lon="7.2588723259702395"><ele>561.0</ele><time>2026-04-07T10:04:47Z</time></trkpt><trkpt lat="44.79640219177528" lon="7.258965640513511"><ele>561.0</ele><time>2026-04-07T10:04:48Z</time></trkpt><trkpt lat="44.79637202527358" lon="7.25907299622525"><ele>561.0</ele><time>2026-04-07T10:04:49Z</time></trkpt><trkpt lat="44.79632898672042" lon="7.259180080832125"><ele>561.0</ele><time>2026-04-07T10:04:50Z</time></trkpt><trkpt lat="44.79626714690926" lon="7.259281693271713"><ele>562.3333333333334</ele><time>2026-04-07T10:04:51Z</time></trkpt><trkpt lat="44.796226942199716" lon="7.259352183274806"><ele>563.6666666666666</ele><time>2026-04-07T10:04:52Z</time></trkpt><trkpt lat="44.796168777925466" lon="7.259461149478373"><ele>565.0</ele><time>2026-04-07T10:04:54Z</time></trkpt><trkpt lat="44.796116440879516" lon="7.2596091064096235"><ele>566.3333333333333</ele><time>2026-04-07T10:04:56Z</time></trkpt><trkpt lat="44.79610525494207" lon="7.259716729388561"><ele>567.6666666666666</ele><time>2026-04-07T10:04:57Z</time></trkpt><trkpt lat="44.7960949982181" lon="7.259811589299178"><ele>569.0</ele><time>2026-04-07T10:04:58Z</time></trkpt><trkpt lat="44.79608675563601" lon="7.259979660595552"><ele>571.5</ele><time>2026-04-07T10:05:00Z</time></trkpt><trkpt lat="44.796130978212794" lon="7.260152321728072"><ele>574.0</ele><time>2026-04-07T10:05:02Z</time></trkpt><trkpt lat="44.7961693836232" lon="7.260257956952712"><ele>576.5</ele><time>2026-04-07T10:05:03Z</time></trkpt><trkpt lat="44.796218402261935" lon="7.260343857986323"><ele>579.0</ele><time>2026-04-07T10:05:04Z</time></trkpt><trkpt lat="44.7962624379813" lon="7.260421022057462"><ele>581.5</ele><time>2026-04-07T10:05:05Z</time></trkpt><trkpt lat="44.79630607648036" lon="7.260508626391422"><ele>584.0</ele><time>2026-04-07T10:05:06Z</time></trkpt><trkpt lat="44.7963421615855" lon="7.2606638639245435"><ele>586.4</ele><time>2026-04-07T10:05:08Z</time></trkpt><trkpt lat="44.79631123792972" lon="7.260815850299473"><ele>588.8</ele><time>2026-04-07T10:05:10Z</time></trkpt><trkpt lat="44.79631619253868" lon="7.260984660640137"><ele>591.2</ele><time>2026-04-07T10:05:12Z</time></trkpt><trkpt lat="44.79630065515704" lon="7.261088442480003"><ele>593.6</ele><time>2026-04-07T10:05:13.999Z</time></trkpt><trkpt lat="44.79621562338664" lon="7.261099041345524"><ele>596.0</ele><time>2026-04-07T10:05:15.999Z</time></trkpt><trkpt lat="44.796123398531954" lon="7.261021147677058"><ele>596.0</ele><time>2026-04-07T10:05:17.999Z</time></trkpt><trkpt lat="44.79604978182658" lon="7.260941622471179"><ele>596.0</ele><time>2026-04-07T10:05:18.999Z</time></trkpt><trkpt lat="44.795974596048886" lon="7.260892409618228"><ele>596.0</ele><time>2026-04-07T10:05:19.999Z</time></trkpt><trkpt lat="44.795903612216236" lon="7.260829654986474"><ele>596.0</ele><time>2026-04-07T10:05:20.999Z</time></trkpt><trkpt lat="44.79580910174867" lon="7.260708256359573"><ele>596.0</ele><time>2026-04-07T10:05:22.999Z</time></trkpt><trkpt lat="44.79577420593858" lon="7.260613920595528"><ele>596.4</ele><time>2026-04-07T10:05:23.999Z</time></trkpt><trkpt lat="44.795721080849326" lon="7.2605562722496195"><ele>596.8</ele><time>2026-04-07T10:05:24.999Z</time></trkpt><trkpt lat="44.795617491519295" lon="7.2604857499082085"><ele>597.1999999999999</ele><time>2026-04-07T10:05:26.999Z</time></trkpt><trkpt lat="44.79555502213832" lon="7.260500729817558"><ele>597.6</ele><time>2026-04-07T10:05:27.999Z</time></trkpt><trkpt lat="44.795450617196074" lon="7.260569423564314"><ele>598.0</ele><time>2026-04-07T10:05:29.999Z</time></trkpt><trkpt lat="44.795376575937205" lon="7.2607206064600645"><ele>598.0</ele><time>2026-04-07T10:05:31.999Z</time></trkpt><trkpt lat="44.79532730353405" lon="7.260790625058527"><ele>598.0</ele><time>2026-04-07T10:05:32.999Z</time></trkpt><trkpt lat="44.795271239093985" lon="7.260866520345254"><ele>598.0</ele><time>2026-04-07T10:05:33.999Z</time></trkpt><trkpt lat="44.79523354286222" lon="7.260941659426002"><ele>598.0</ele><time>2026-04-07T10:05:34.999Z</time></trkpt><trkpt lat="44.79515500259564" lon="7.261058367260751"><ele>598.0</ele><time>2026-04-07T10:05:36.999Z</time></trkpt><trkpt lat="44.795047668420025" lon="7.261107650896997"><ele>598.0</ele><time>2026-04-07T10:05:38.999Z</time></trkpt><trkpt lat="44.79497674346088" lon="7.261102041057495"><ele>599.2857142857142</ele><time>2026-04-07T10:05:39.999Z</time></trkpt><trkpt lat="44.79491163636984" lon="7.261126644861888"><ele>600.5714285714286</ele><time>2026-04-07T10:05:40.999Z</time></trkpt><trkpt lat="44.794820624867704" lon="7.261195800419837"><ele>601.8571428571429</ele><time>2026-04-07T10:05:42.999Z</time></trkpt><trkpt lat="44.79475588906558" lon="7.261227864227622"><ele>603.1428571428571</ele><time>2026-04-07T10:05:43.999Z</time></trkpt><trkpt lat="44.79470788043995" lon="7.261290823063094"><ele>604.4285714285714</ele><time>2026-04-07T10:05:44.999Z</time></trkpt><trkpt lat="44.79465495121872" lon="7.261358525892165"><ele>605.7142857142857</ele><time>2026-04-07T10:05:45.999Z</time></trkpt><trkpt lat="44.79460747025773" lon="7.261430122012428"><ele>607.0</ele><time>2026-04-07T10:05:46.999Z</time></trkpt><trkpt lat="44.79449629658378" lon="7.261496261663506"><ele>609.4</ele><time>2026-04-07T10:05:48.999Z</time></trkpt><trkpt lat="44.79436628446543" lon="7.261451149245271"><ele>611.8000000000001</ele><time>2026-04-07T10:05:50.999Z</time></trkpt><trkpt lat="44.794250775436666" lon="7.261450806435349"><ele>614.2</ele><time>2026-04-07T10:05:52.999Z</time></trkpt><trkpt lat="44.79419418451147" lon="7.261365599626207"><ele>616.6</ele><time>2026-04-07T10:05:54.999Z</time></trkpt><trkpt lat="44.7941624922902" lon="7.261259311594914"><ele>619.0</ele><time>2026-04-07T10:05:56.999Z</time></trkpt><trkpt lat="44.794098291673116" lon="7.261345838672606"><ele>620.0</ele><time>2026-04-07T10:05:59.999Z</time></trkpt><trkpt lat="44.79407581030815" lon="7.2614325554535935"><ele>621.0</ele><time>2026-04-07T10:06:00.999Z</time></trkpt><trkpt lat="44.79403720345665" lon="7.261555260367638"><ele>622.0</ele><time>2026-04-07T10:06:02.999Z</time></trkpt><trkpt lat="44.79404456268099" lon="7.261647316065392"><ele>623.0</ele><time>2026-04-07T10:06:03.999Z</time></trkpt><trkpt lat="44.794054626471315" lon="7.261746303460492"><ele>624.0</ele><time>2026-04-07T10:06:04.999Z</time></trkpt><trkpt lat="44.79408967278991" lon="7.261829008892186"><ele>625.0</ele><time>2026-04-07T10:06:05.999Z</time></trkpt><trkpt lat="44.794126725660284" lon="7.261956324018972"><ele>625.0</ele><time>2026-04-07T10:06:07.999Z</time></trkpt><trkpt lat="44.794096498779474" lon="7.262072451509912"><ele>625.0</ele><time>2026-04-07T10:06:09.999Z</time></trkpt><trkpt lat="44.79411200619395" lon="7.262253783901527"><ele>625.0</ele><time>2026-04-07T10:06:11.999Z</time></trkpt><trkpt lat="44.794118255125355" lon="7.262346013041064"><ele>625.0</ele><time>2026-04-07T10:06:12.999Z</time></trkpt><trkpt lat="44.79411918261185" lon="7.2624397931215805"><ele>625.0</ele><time>2026-04-07T10:06:14Z</time></trkpt><trkpt lat="44.794108729583336" lon="7.262539275339533"><ele>625.0</ele><time>2026-04-07T10:06:15Z</time></trkpt><trkpt lat="44.794128381760885" lon="7.262641057370687"><ele>626.6</ele><time>2026-04-07T10:06:16Z</time></trkpt><trkpt lat="44.794145963350076" lon="7.262736300434496"><ele>628.2</ele><time>2026-04-07T10:06:17Z</time></trkpt><trkpt lat="44.79417152540433" lon="7.26282286731143"><ele>629.8</ele><time>2026-04-07T10:06:18Z</time></trkpt><trkpt lat="44.79419398195211" lon="7.2629971976523"><ele>631.4</ele><time>2026-04-07T10:06:20Z</time></trkpt><trkpt lat="44.79421032555157" lon="7.263167636357873"><ele>633.0</ele><time>2026-04-07T10:06:22Z</time></trkpt><trkpt lat="44.79420353752167" lon="7.263264148325407"><ele>633.6666666666666</ele><time>2026-04-07T10:06:23Z</time></trkpt><trkpt lat="44.794198152937824" lon="7.263427329441147"><ele>634.3333333333334</ele><time>2026-04-07T10:06:25Z</time></trkpt><trkpt lat="44.7942158682102" lon="7.263557622785826"><ele>635.0</ele><time>2026-04-07T10:06:27Z</time></trkpt><trkpt lat="44.794167159292314" lon="7.263616621436697"><ele>635.6666666666667</ele><time>2026-04-07T10:06:31Z</time></trkpt><trkpt lat="44.79408306422192" lon="7.263592850667115"><ele>636.3333333333334</ele><time>2026-04-07T10:06:33Z</time></trkpt><trkpt lat="44.79399836186643" lon="7.263563205999419"><ele>637.0</ele><time>2026-04-07T10:06:34Z</time></trkpt><trkpt lat="44.793916792706305" lon="7.263550385740225"><ele>637.0</ele><time>2026-04-07T10:06:35Z</time></trkpt><trkpt lat="44.79385045349168" lon="7.263544439388366"><ele>637.0</ele><time>2026-04-07T10:06:36Z</time></trkpt><trkpt lat="44.79377980310698" lon="7.2635298631001115"><ele>637.0</ele><time>2026-04-07T10:06:37Z</time></trkpt><trkpt lat="44.79365700032906" lon="7.263508918459333"><ele>637.0</ele><time>2026-04-07T10:06:39Z</time></trkpt><trkpt lat="44.79359075807331" lon="7.263505978297696"><ele>637.0</ele><time>2026-04-07T10:06:40Z</time></trkpt><trkpt lat="44.79349236509668" lon="7.263479298662788"><ele>637.0</ele><time>2026-04-07T10:06:42Z</time></trkpt><trkpt lat="44.793391512450675" lon="7.263397124674473"><ele>636.6</ele><time>2026-04-07T10:06:44Z</time></trkpt><trkpt lat="44.7933633704081" lon="7.263276007393653"><ele>636.2</ele><time>2026-04-07T10:06:46Z</time></trkpt><trkpt lat="44.793384166617784" lon="7.263083980579417"><ele>635.8</ele><time>2026-04-07T10:06:48Z</time></trkpt><trkpt lat="44.793424104832916" lon="7.262936459190273"><ele>635.4</ele><time>2026-04-07T10:06:49Z</time></trkpt><trkpt lat="44.79345351245591" lon="7.262822433641435"><ele>635.0</ele><time>2026-04-07T10:06:50Z</time></trkpt><trkpt lat="44.79346930714827" lon="7.262728040951276"><ele>635.8</ele><time>2026-04-07T10:06:51Z</time></trkpt><trkpt lat="44.79346849366526" lon="7.262544898385986"><ele>636.6</ele><time>2026-04-07T10:06:53Z</time></trkpt><trkpt lat="44.79345364200767" lon="7.262430793222844"><ele>637.4</ele><time>2026-04-07T10:06:54Z</time></trkpt><trkpt lat="44.79341642452748" lon="7.262311949772601"><ele>638.2</ele><time>2026-04-07T10:06:55Z</time></trkpt><trkpt lat="44.79338444506549" lon="7.262230966363878"><ele>639.0</ele><time>2026-04-07T10:06:56Z</time></trkpt><trkpt lat="44.79329726875702" lon="7.262111629281496"><ele>640.0</ele><time>2026-04-07T10:06:58Z</time></trkpt><trkpt lat="44.7932334233834" lon="7.262065616549215"><ele>641.0</ele><time>2026-04-07T10:06:59Z</time></trkpt><trkpt lat="44.793150829613495" lon="7.262036477322727"><ele>642.0</ele><time>2026-04-07T10:07:00Z</time></trkpt><trkpt lat="44.79305296241727" lon="7.2619931352152465"><ele>643.0</ele><time>2026-04-07T10:07:01Z</time></trkpt><trkpt lat="44.79293327348238" lon="7.261920914092384"><ele>644.0</ele><time>2026-04-07T10:07:02Z</time></trkpt><trkpt lat="44.79283786765672" lon="7.2618525453191225"><ele>644.0</ele><time>2026-04-07T10:07:03Z</time></trkpt><trkpt lat="44.79273758411098" lon="7.261845093840474"><ele>644.0</ele><time>2026-04-07T10:07:04Z</time></trkpt><trkpt lat="44.79263542019676" lon="7.261807666153958"><ele>644.0</ele><time>2026-04-07T10:07:05Z</time></trkpt><trkpt lat="44.792541764768444" lon="7.261791490195847"><ele>644.0</ele><time>2026-04-07T10:07:06Z</time></trkpt><trkpt lat="44.7924394741926" lon="7.261797645529018"><ele>644.0</ele><time>2026-04-07T10:07:07Z</time></trkpt><trkpt lat="44.79235451375427" lon="7.26179936865449"><ele>644.4000000000001</ele><time>2026-04-07T10:07:08Z</time></trkpt><trkpt lat="44.792267956684285" lon="7.261799222310854"><ele>644.8</ele><time>2026-04-07T10:07:09Z</time></trkpt><trkpt lat="44.7921716028659" lon="7.261743261048993"><ele>645.2</ele><time>2026-04-07T10:07:10Z</time></trkpt><trkpt lat="44.792066373703776" lon="7.261725508664032"><ele>645.5999999999999</ele><time>2026-04-07T10:07:11Z</time></trkpt><trkpt lat="44.791956204424935" lon="7.2616913322437995"><ele>646.0</ele><time>2026-04-07T10:07:12Z</time></trkpt><trkpt lat="44.791877749744586" lon="7.261682840587932"><ele>646.5999999999999</ele><time>2026-04-07T10:07:13Z</time></trkpt><trkpt lat="44.791811495518765" lon="7.261692444796328"><ele>647.2</ele><time>2026-04-07T10:07:14Z</time></trkpt><trkpt lat="44.791724030561035" lon="7.2616426208175024"><ele>647.8</ele><time>2026-04-07T10:07:16Z</time></trkpt><trkpt lat="44.7916863291864" lon="7.261501887183739"><ele>648.4000000000001</ele><time>2026-04-07T10:07:18Z</time></trkpt><trkpt lat="44.79168734282736" lon="7.261342229067328"><ele>649.0</ele><time>2026-04-07T10:07:20Z</time></trkpt><trkpt lat="44.791732084203296" lon="7.2611841103009445"><ele>649.0</ele><time>2026-04-07T10:07:22Z</time></trkpt><trkpt lat="44.79174593176027" lon="7.261084129334171"><ele>649.0</ele><time>2026-04-07T10:07:23Z</time></trkpt><trkpt lat="44.79175284051444" lon="7.260980092940674"><ele>649.0</ele><time>2026-04-07T10:07:24Z</time></trkpt><trkpt lat="44.79177207163944" lon="7.260882281644003"><ele>649.0</ele><time>2026-04-07T10:07:25Z</time></trkpt><trkpt lat="44.79178407442219" lon="7.260765709478032"><ele>649.0</ele><time>2026-04-07T10:07:25.999Z</time></trkpt><trkpt lat="44.79179881096575" lon="7.26064120604994"><ele>649.0</ele><time>2026-04-07T10:07:26.999Z</time></trkpt><trkpt lat="44.79180852421774" lon="7.260516395930998"><ele>650.2</ele><time>2026-04-07T10:07:27.999Z</time></trkpt><trkpt lat="44.79182536210207" lon="7.260414585865056"><ele>651.4000000000001</ele><time>2026-04-07T10:07:28.999Z</time></trkpt><trkpt lat="44.79183612937011" lon="7.260277899327764"><ele>652.6</ele><time>2026-04-07T10:07:29.999Z</time></trkpt><trkpt lat="44.791849381502374" lon="7.26015764631793"><ele>653.8</ele><time>2026-04-07T10:07:30.999Z</time></trkpt><trkpt lat="44.791885353335836" lon="7.259966087840633"><ele>655.0</ele><time>2026-04-07T10:07:32.999Z</time></trkpt><trkpt lat="44.7919101227112" lon="7.2598397430387145"><ele>660.3333333333334</ele><time>2026-04-07T10:07:33.999Z</time></trkpt><trkpt lat="44.79192724145788" lon="7.259735222984637"><ele>665.6666666666667</ele><time>2026-04-07T10:07:34.999Z</time></trkpt><trkpt lat="44.79192826538652" lon="7.259645679315402"><ele>671.0</ele><time>2026-04-07T10:07:35.999Z</time></trkpt><trkpt lat="44.791933107882976" lon="7.259480599574345"><ele>676.3333333333334</ele><time>2026-04-07T10:07:37.999Z</time></trkpt><trkpt lat="44.791939475150485" lon="7.2593733863556205"><ele>681.6666666666666</ele><time>2026-04-07T10:07:39.999Z</time></trkpt><trkpt lat="44.791906440162094" lon="7.259221891050503"><ele>687.0</ele><time>2026-04-07T10:07:41.999Z</time></trkpt><trkpt lat="44.79188729220392" lon="7.259132636178402"><ele>687.0</ele><time>2026-04-07T10:07:42.999Z</time></trkpt><trkpt lat="44.791864438165305" lon="7.258963523549717"><ele>687.0</ele><time>2026-04-07T10:07:44.999Z</time></trkpt><trkpt lat="44.79185347522226" lon="7.258871742369496"><ele>687.0</ele><time>2026-04-07T10:07:45.999Z</time></trkpt><trkpt lat="44.79185187446108" lon="7.25877710790807"><ele>687.0</ele><time>2026-04-07T10:07:46.999Z</time></trkpt><trkpt lat="44.79184981513502" lon="7.258669832917151"><ele>687.0</ele><time>2026-04-07T10:07:47.999Z</time></trkpt><trkpt lat="44.79184227996557" lon="7.258569166458418"><ele>687.0</ele><time>2026-04-07T10:07:48.999Z</time></trkpt><trkpt lat="44.79181813909672" lon="7.258445722771268"><ele>687.5</ele><time>2026-04-07T10:07:49.999Z</time></trkpt><trkpt lat="44.7918059007539" lon="7.258345303125662"><ele>688.0</ele><time>2026-04-07T10:07:50.999Z</time></trkpt><trkpt lat="44.79179275150433" lon="7.258209577736025"><ele>688.5</ele><time>2026-04-07T10:07:51.999Z</time></trkpt><trkpt lat="44.79178332155707" lon="7.258106205162106"><ele>689.0</ele><time>2026-04-07T10:07:52.999Z</time></trkpt><trkpt lat="44.791752443650836" lon="7.25796419377593"><ele>689.5</ele><time>2026-04-07T10:07:54.999Z</time></trkpt><trkpt lat="44.79174339891736" lon="7.25782679933958"><ele>690.0</ele><time>2026-04-07T10:07:56.999Z</time></trkpt><trkpt lat="44.79172827213098" lon="7.257645915573582"><ele>690.0</ele><time>2026-04-07T10:07:58.999Z</time></trkpt><trkpt lat="44.7917215789725" lon="7.257546768037742"><ele>690.0</ele><time>2026-04-07T10:07:59.999Z</time></trkpt><trkpt lat="44.79172463352279" lon="7.257431076437667"><ele>690.0</ele><time>2026-04-07T10:08:00.999Z</time></trkpt><trkpt lat="44.791727963663305" lon="7.2573214886234725"><ele>690.0</ele><time>2026-04-07T10:08:01.999Z</time></trkpt><trkpt lat="44.791686440393505" lon="7.257233404332993"><ele>690.0</ele><time>2026-04-07T10:08:02.999Z</time></trkpt><trkpt lat="44.791620420591464" lon="7.2571344290052835"><ele>690.0</ele><time>2026-04-07T10:08:04.999Z</time></trkpt><trkpt lat="44.79157821462535" lon="7.257020659308741"><ele>690.0</ele><time>2026-04-07T10:08:06.999Z</time></trkpt><trkpt lat="44.79151962562922" lon="7.256906667220977"><ele>690.0</ele><time>2026-04-07T10:08:08.999Z</time></trkpt><trkpt lat="44.79151509828296" lon="7.256807636575256"><ele>690.0</ele><time>2026-04-07T10:08:10.999Z</time></trkpt><trkpt lat="44.79149291569322" lon="7.2567244012002545"><ele>690.0</ele><time>2026-04-07T10:08:12.999Z</time></trkpt><trkpt lat="44.79145410364571" lon="7.256632886182071"><ele>690.0</ele><time>2026-04-07T10:08:14.999Z</time></trkpt><trkpt lat="44.79139788961091" lon="7.256451851836504"><ele>690.0</ele><time>2026-04-07T10:08:16.999Z</time></trkpt><trkpt lat="44.79135952375468" lon="7.256336336054702"><ele>690.0</ele><time>2026-04-07T10:08:17.999Z</time></trkpt><trkpt lat="44.791324255354745" lon="7.256244477570276"><ele>690.0</ele><time>2026-04-07T10:08:18.999Z</time></trkpt><trkpt lat="44.79128279196881" lon="7.256104186083141"><ele>690.0</ele><time>2026-04-07T10:08:20Z</time></trkpt><trkpt lat="44.791240808887565" lon="7.255971067362155"><ele>690.0</ele><time>2026-04-07T10:08:21Z</time></trkpt><trkpt lat="44.79124903114374" lon="7.255840047852467"><ele>690.0</ele><time>2026-04-07T10:08:22Z</time></trkpt><trkpt lat="44.79125551725197" lon="7.255715756296914"><ele>688.6</ele><time>2026-04-07T10:08:23Z</time></trkpt><trkpt lat="44.79124587444842" lon="7.255591519866608"><ele>687.2</ele><time>2026-04-07T10:08:24Z</time></trkpt><trkpt lat="44.79121519389425" lon="7.255444596085734"><ele>685.8</ele><time>2026-04-07T10:08:25Z</time></trkpt><trkpt lat="44.79118793284628" lon="7.25531617647688"><ele>684.4</ele><time>2026-04-07T10:08:26Z</time></trkpt><trkpt lat="44.79115310657496" lon="7.255207478574373"><ele>683.0</ele><time>2026-04-07T10:08:27Z</time></trkpt><trkpt lat="44.79110889718809" lon="7.2551037495682005"><ele>683.0</ele><time>2026-04-07T10:08:28Z</time></trkpt><trkpt lat="44.79104643985511" lon="7.255004802027507"><ele>683.0</ele><time>2026-04-07T10:08:29Z</time></trkpt><trkpt lat="44.79097772492506" lon="7.2549139630167385"><ele>683.0</ele><time>2026-04-07T10:08:30Z</time></trkpt><trkpt lat="44.790896615019484" lon="7.254818832306873"><ele>683.0</ele><time>2026-04-07T10:08:31Z</time></trkpt><trkpt lat="44.79081409247479" lon="7.254722012725545"><ele>683.0</ele><time>2026-04-07T10:08:32Z</time></trkpt><trkpt lat="44.79073559677204" lon="7.254638951067544"><ele>686.75</ele><time>2026-04-07T10:08:33Z</time></trkpt><trkpt lat="44.790642639776536" lon="7.254568187943618"><ele>690.5</ele><time>2026-04-07T10:08:34Z</time></trkpt><trkpt lat="44.790537451373716" lon="7.254511590481497"><ele>694.25</ele><time>2026-04-07T10:08:35Z</time></trkpt><trkpt lat="44.790414527087776" lon="7.254455694385966"><ele>698.0</ele><time>2026-04-07T10:08:36Z</time></trkpt><trkpt lat="44.79029597104664" lon="7.254408231254384"><ele>698.0</ele><time>2026-04-07T10:08:37Z</time></trkpt><trkpt lat="44.79019159128604" lon="7.254356942967601"><ele>698.0</ele><time>2026-04-07T10:08:38Z</time></trkpt><trkpt lat="44.79008650986458" lon="7.25429603342401"><ele>698.0</ele><time>2026-04-07T10:08:39Z</time></trkpt><trkpt lat="44.79002096968624" lon="7.25425159481561"><ele>698.0</ele><time>2026-04-07T10:08:40Z</time></trkpt><trkpt lat="44.789946546477736" lon="7.254207813503312"><ele>698.0</ele><time>2026-04-07T10:08:41Z</time></trkpt><trkpt lat="44.789891079834156" lon="7.254162224771158"><ele>698.0</ele><time>2026-04-07T10:08:42Z</time></trkpt><trkpt lat="44.789798199393985" lon="7.254109324721329"><ele>700.6666666666666</ele><time>2026-04-07T10:08:44Z</time></trkpt><trkpt lat="44.789738333543355" lon="7.254055470757605"><ele>703.3333333333333</ele><time>2026-04-07T10:08:46Z</time></trkpt><trkpt lat="44.789662730601606" lon="7.254000313831968"><ele>706.0</ele><time>2026-04-07T10:08:49Z</time></trkpt><trkpt lat="44.789572059885245" lon="7.2539789369504675"><ele>708.6666666666666</ele><time>2026-04-07T10:08:51Z</time></trkpt><trkpt lat="44.7895101627983" lon="7.253918880276411"><ele>711.3333333333334</ele><time>2026-04-07T10:08:52Z</time></trkpt><trkpt lat="44.789460166700565" lon="7.253852701567537"><ele>714.0</ele><time>2026-04-07T10:08:53Z</time></trkpt><trkpt lat="44.78940135404338" lon="7.253765350220839"><ele>714.0</ele><time>2026-04-07T10:08:54Z</time></trkpt><trkpt lat="44.78936317971364" lon="7.25368529901714"><ele>714.0</ele><time>2026-04-07T10:08:55Z</time></trkpt><trkpt lat="44.7893152217862" lon="7.253548761016934"><ele>714.0</ele><time>2026-04-07T10:08:57Z</time></trkpt><trkpt lat="44.78931480218723" lon="7.253390798516025"><ele>714.0</ele><time>2026-04-07T10:08:59Z</time></trkpt><trkpt lat="44.78934420840719" lon="7.253300770384546"><ele>714.0</ele><time>2026-04-07T10:09:00Z</time></trkpt><trkpt lat="44.789412587134606" lon="7.253249665405165"><ele>714.0</ele><time>2026-04-07T10:09:01Z</time></trkpt><trkpt lat="44.78946689004063" lon="7.253155116176932"><ele>715.6666666666666</ele><time>2026-04-07T10:09:02Z</time></trkpt><trkpt lat="44.789538588116955" lon="7.253083868822714"><ele>717.3333333333334</ele><time>2026-04-07T10:09:03Z</time></trkpt><trkpt lat="44.789584273920354" lon="7.252999088135001"><ele>719.0</ele><time>2026-04-07T10:09:04Z</time></trkpt><trkpt lat="44.78964558576273" lon="7.2529236281261555"><ele>720.6666666666667</ele><time>2026-04-07T10:09:05Z</time></trkpt><trkpt lat="44.78967137565223" lon="7.252824810626394"><ele>722.3333333333334</ele><time>2026-04-07T10:09:06Z</time></trkpt><trkpt lat="44.78972332297945" lon="7.252721791703522"><ele>724.0</ele><time>2026-04-07T10:09:07Z</time></trkpt><trkpt lat="44.78975036540676" lon="7.252628196203146"><ele>724.0</ele><time>2026-04-07T10:09:08Z</time></trkpt><trkpt lat="44.789762900388304" lon="7.252488614782341"><ele>724.0</ele><time>2026-04-07T10:09:10Z</time></trkpt><trkpt lat="44.789801174480104" lon="7.252332430147898"><ele>724.0</ele><time>2026-04-07T10:09:13Z</time></trkpt><trkpt lat="44.78979866062387" lon="7.252192733847312"><ele>724.0</ele><time>2026-04-07T10:09:15Z</time></trkpt><trkpt lat="44.78977021236433" lon="7.252003015138988"><ele>724.0</ele><time>2026-04-07T10:09:17Z</time></trkpt><trkpt lat="44.78973617716603" lon="7.251878998078374"><ele>724.0</ele><time>2026-04-07T10:09:18Z</time></trkpt><trkpt lat="44.78969784180024" lon="7.251754852575809"><ele>724.0</ele><time>2026-04-07T10:09:19Z</time></trkpt><trkpt lat="44.789656786414" lon="7.25163073054194"><ele>724.0</ele><time>2026-04-07T10:09:20Z</time></trkpt><trkpt lat="44.789633906516755" lon="7.251512516749367"><ele>724.0</ele><time>2026-04-07T10:09:21Z</time></trkpt><trkpt lat="44.789596011383885" lon="7.251407283829454"><ele>723.8333333333334</ele><time>2026-04-07T10:09:22Z</time></trkpt><trkpt lat="44.789560341601614" lon="7.251301227367413"><ele>723.6666666666667</ele><time>2026-04-07T10:09:23Z</time></trkpt><trkpt lat="44.78954353173793" lon="7.251195553667628"><ele>723.5</ele><time>2026-04-07T10:09:24Z</time></trkpt><trkpt lat="44.78953439746941" lon="7.2510734900354885"><ele>723.3333333333334</ele><time>2026-04-07T10:09:25Z</time></trkpt><trkpt lat="44.78955235366773" lon="7.25096602305547"><ele>723.1666666666666</ele><time>2026-04-07T10:09:26Z</time></trkpt><trkpt lat="44.78956660785852" lon="7.250837009330561"><ele>723.0</ele><time>2026-04-07T10:09:27Z</time></trkpt><trkpt lat="44.78957057569053" lon="7.250718672699003"><ele>724.4</ele><time>2026-04-07T10:09:28Z</time></trkpt><trkpt lat="44.78958894868099" lon="7.2505807319446465"><ele>725.8</ele><time>2026-04-07T10:09:28.999Z</time></trkpt><trkpt lat="44.78960979217967" lon="7.250443463469811"><ele>727.2</ele><time>2026-04-07T10:09:29.999Z</time></trkpt><trkpt lat="44.78963162776319" lon="7.250299989477134"><ele>728.6</ele><time>2026-04-07T10:09:30.999Z</time></trkpt><trkpt lat="44.789643176172426" lon="7.250173885656341"><ele>730.0</ele><time>2026-04-07T10:09:31.999Z</time></trkpt><trkpt lat="44.78964485338709" lon="7.2500627002731814"><ele>730.0</ele><time>2026-04-07T10:09:32.999Z</time></trkpt><trkpt lat="44.78966250501324" lon="7.249961843697689"><ele>730.0</ele><time>2026-04-07T10:09:33.999Z</time></trkpt><trkpt lat="44.78968149526963" lon="7.249859630153047"><ele>730.0</ele><time>2026-04-07T10:09:34.999Z</time></trkpt><trkpt lat="44.78969703704923" lon="7.249749106326871"><ele>730.0</ele><time>2026-04-07T10:09:35.999Z</time></trkpt><trkpt lat="44.789697676252416" lon="7.249609696401884"><ele>730.0</ele><time>2026-04-07T10:09:36.999Z</time></trkpt><trkpt lat="44.78967725194767" lon="7.249492036724413"><ele>730.0</ele><time>2026-04-07T10:09:37.999Z</time></trkpt><trkpt lat="44.78963606023859" lon="7.249361992698283"><ele>730.6</ele><time>2026-04-07T10:09:38.999Z</time></trkpt><trkpt lat="44.78958000338958" lon="7.249241712895269"><ele>731.2</ele><time>2026-04-07T10:09:39.999Z</time></trkpt><trkpt lat="44.78951365320006" lon="7.249132425479304"><ele>731.8</ele><time>2026-04-07T10:09:40.999Z</time></trkpt><trkpt lat="44.78942215485717" lon="7.249011254981259"><ele>732.4</ele><time>2026-04-07T10:09:41.999Z</time></trkpt><trkpt lat="44.78933278444478" lon="7.248916180554359"><ele>733.0</ele><time>2026-04-07T10:09:42.999Z</time></trkpt><trkpt lat="44.789265362289854" lon="7.248850785388718"><ele>733.5</ele><time>2026-04-07T10:09:43.999Z</time></trkpt><trkpt lat="44.78918077043935" lon="7.248795375804982"><ele>734.0</ele><time>2026-04-07T10:09:44.999Z</time></trkpt><trkpt lat="44.78910502490003" lon="7.248754059766003"><ele>734.5</ele><time>2026-04-07T10:09:45.999Z</time></trkpt><trkpt lat="44.78903100572075" lon="7.248754395715373"><ele>735.0</ele><time>2026-04-07T10:09:46.999Z</time></trkpt><trkpt lat="44.78896018899714" lon="7.2487576654087365"><ele>735.5</ele><time>2026-04-07T10:09:47.999Z</time></trkpt><trkpt lat="44.78887896750065" lon="7.248798082350841"><ele>736.0</ele><time>2026-04-07T10:09:48.999Z</time></trkpt><trkpt lat="44.78880340079125" lon="7.248853382627827"><ele>736.0</ele><time>2026-04-07T10:09:49.999Z</time></trkpt><trkpt lat="44.78871383713426" lon="7.248933512198612"><ele>736.0</ele><time>2026-04-07T10:09:50.999Z</time></trkpt><trkpt lat="44.78862290058326" lon="7.24901609211051"><ele>736.0</ele><time>2026-04-07T10:09:51.999Z</time></trkpt><trkpt lat="44.78851389657155" lon="7.249047998219475"><ele>736.0</ele><time>2026-04-07T10:09:52.999Z</time></trkpt><trkpt lat="44.78841700866705" lon="7.249068335155517"><ele>736.0</ele><time>2026-04-07T10:09:53.999Z</time></trkpt><trkpt lat="44.788332645459406" lon="7.249076375668334"><ele>742.0</ele><time>2026-04-07T10:09:54.999Z</time></trkpt><trkpt lat="44.788219277693756" lon="7.2490446687446575"><ele>748.0</ele><time>2026-04-07T10:09:55.999Z</time></trkpt><trkpt lat="44.78809425919386" lon="7.249060422721751"><ele>754.0</ele><time>2026-04-07T10:09:56.999Z</time></trkpt><trkpt lat="44.78797404896357" lon="7.249086137319625"><ele>760.0</ele><time>2026-04-07T10:09:57.999Z</time></trkpt><trkpt lat="44.78788430253892" lon="7.249110328013811"><ele>760.0</ele><time>2026-04-07T10:09:58.999Z</time></trkpt><trkpt lat="44.787795755120065" lon="7.249136467476846"><ele>760.0</ele><time>2026-04-07T10:09:59.999Z</time></trkpt><trkpt lat="44.787685248916745" lon="7.249170056824203"><ele>760.0</ele><time>2026-04-07T10:10:00.999Z</time></trkpt><trkpt lat="44.7875808257576" lon="7.2492319070836"><ele>760.0</ele><time>2026-04-07T10:10:01.999Z</time></trkpt><trkpt lat="44.787485073888014" lon="7.2492586814797555"><ele>760.0</ele><time>2026-04-07T10:10:02.999Z</time></trkpt><trkpt lat="44.7873940773809" lon="7.249283217519863"><ele>760.8</ele><time>2026-04-07T10:10:03.999Z</time></trkpt><trkpt lat="44.78731457767612" lon="7.249304164272656"><ele>761.6</ele><time>2026-04-07T10:10:04.999Z</time></trkpt><trkpt lat="44.787223807487024" lon="7.249325621286476"><ele>762.4000000000001</ele><time>2026-04-07T10:10:05.999Z</time></trkpt><trkpt lat="44.787125100215455" lon="7.249376621388212"><ele>763.2</ele><time>2026-04-07T10:10:06.999Z</time></trkpt><trkpt lat="44.78703249217916" lon="7.249450834400878"><ele>764.0</ele><time>2026-04-07T10:10:07.999Z</time></trkpt><trkpt lat="44.78692619517303" lon="7.249534015100974"><ele>763.75</ele><time>2026-04-07T10:10:08.999Z</time></trkpt><trkpt lat="44.786813221288924" lon="7.249607134207517"><ele>763.5</ele><time>2026-04-07T10:10:09.999Z</time></trkpt><trkpt lat="44.78669038509822" lon="7.249684174129324"><ele>763.25</ele><time>2026-04-07T10:10:10.999Z</time></trkpt><trkpt lat="44.786584343619374" lon="7.249717643478266"><ele>763.0</ele><time>2026-04-07T10:10:11.999Z</time></trkpt><trkpt lat="44.78649689860555" lon="7.249777362041609"><ele>765.8</ele><time>2026-04-07T10:10:12.999Z</time></trkpt><trkpt lat="44.786404989440044" lon="7.249840129511697"><ele>768.5999999999999</ele><time>2026-04-07T10:10:13.999Z</time></trkpt><trkpt lat="44.786315835949026" lon="7.249897851522305"><ele>771.4000000000001</ele><time>2026-04-07T10:10:14.999Z</time></trkpt><trkpt lat="44.786229741346865" lon="7.249951377618216"><ele>774.2</ele><time>2026-04-07T10:10:15.999Z</time></trkpt><trkpt lat="44.78614161252533" lon="7.2500051063322815"><ele>777.0</ele><time>2026-04-07T10:10:16.999Z</time></trkpt><trkpt lat="44.786047287766024" lon="7.2500626613081"><ele>776.0</ele><time>2026-04-07T10:10:17.999Z</time></trkpt><trkpt lat="44.785959441235114" lon="7.250115929281419"><ele>775.0</ele><time>2026-04-07T10:10:18.999Z</time></trkpt><trkpt lat="44.78585953625632" lon="7.250174592070544"><ele>774.0</ele><time>2026-04-07T10:10:19.999Z</time></trkpt><trkpt lat="44.78575944525184" lon="7.250233364076594"><ele>773.0</ele><time>2026-04-07T10:10:20.999Z</time></trkpt><trkpt lat="44.78564162028343" lon="7.250302403210471"><ele>772.0</ele><time>2026-04-07T10:10:21.999Z</time></trkpt><trkpt lat="44.785551659502744" lon="7.250355073938449"><ele>772.0</ele><time>2026-04-07T10:10:22.999Z</time></trkpt><trkpt lat="44.78547227859426" lon="7.250420208671499"><ele>772.0</ele><time>2026-04-07T10:10:23.999Z</time></trkpt><trkpt lat="44.78539162971015" lon="7.250450657558813"><ele>772.0</ele><time>2026-04-07T10:10:24.999Z</time></trkpt><trkpt lat="44.78529729942994" lon="7.250508064900315"><ele>772.0</ele><time>2026-04-07T10:10:26Z</time></trkpt><trkpt lat="44.78520663798883" lon="7.250564603199486"><ele>772.0</ele><time>2026-04-07T10:10:27Z</time></trkpt><trkpt lat="44.785130674683224" lon="7.250611977163667"><ele>776.2</ele><time>2026-04-07T10:10:28Z</time></trkpt><trkpt lat="44.785021214939086" lon="7.250680174190341"><ele>780.4000000000001</ele><time>2026-04-07T10:10:30Z</time></trkpt><trkpt lat="44.784940747279705" lon="7.250732266718037"><ele>784.5999999999999</ele><time>2026-04-07T10:10:31Z</time></trkpt><trkpt lat="44.784857330062394" lon="7.25078139093772"><ele>788.8</ele><time>2026-04-07T10:10:32Z</time></trkpt><trkpt lat="44.784761379167946" lon="7.250826355418775"><ele>793.0</ele><time>2026-04-07T10:10:33Z</time></trkpt><trkpt lat="44.784669610749454" lon="7.250861465706107"><ele>793.0</ele><time>2026-04-07T10:10:34Z</time></trkpt><trkpt lat="44.784581760989006" lon="7.250924162282839"><ele>793.0</ele><time>2026-04-07T10:10:35Z</time></trkpt><trkpt lat="44.78447969783514" lon="7.250983036563742"><ele>793.0</ele><time>2026-04-07T10:10:36Z</time></trkpt><trkpt lat="44.78439568179473" lon="7.251017175228589"><ele>793.0</ele><time>2026-04-07T10:10:37Z</time></trkpt><trkpt lat="44.78430977535392" lon="7.251082038924275"><ele>793.0</ele><time>2026-04-07T10:10:38Z</time></trkpt><trkpt lat="44.7842083961491" lon="7.25111698310169"><ele>793.4</ele><time>2026-04-07T10:10:39Z</time></trkpt><trkpt lat="44.78411262857981" lon="7.251172375620386"><ele>793.8</ele><time>2026-04-07T10:10:40Z</time></trkpt><trkpt lat="44.78402253722502" lon="7.251251244995215"><ele>794.2</ele><time>2026-04-07T10:10:41Z</time></trkpt><trkpt lat="44.78392551205849" lon="7.251286831493956"><ele>794.6</ele><time>2026-04-07T10:10:42Z</time></trkpt><trkpt lat="44.78383703287457" lon="7.251344095982182"><ele>795.0</ele><time>2026-04-07T10:10:43Z</time></trkpt><trkpt lat="44.783738007039" lon="7.251412688890982"><ele>799.0</ele><time>2026-04-07T10:10:44Z</time></trkpt><trkpt lat="44.7836434092491" lon="7.25148425808746"><ele>803.0</ele><time>2026-04-07T10:10:45Z</time></trkpt><trkpt lat="44.783557151000636" lon="7.251564885432945"><ele>807.0</ele><time>2026-04-07T10:10:46Z</time></trkpt><trkpt lat="44.78346709204866" lon="7.2516319004385466"><ele>811.0</ele><time>2026-04-07T10:10:47Z</time></trkpt><trkpt lat="44.7833744884543" lon="7.251697570338211"><ele>815.0</ele><time>2026-04-07T10:10:48Z</time></trkpt><trkpt lat="44.78327654038067" lon="7.251757966322713"><ele>815.0000000000001</ele><time>2026-04-07T10:10:49Z</time></trkpt><trkpt lat="44.78320777225486" lon="7.251796443860125"><ele>815.0</ele><time>2026-04-07T10:10:50Z</time></trkpt><trkpt lat="44.78311889604523" lon="7.25181060804622"><ele>815.0</ele><time>2026-04-07T10:10:51Z</time></trkpt><trkpt lat="44.78305690349507" lon="7.251856733447261"><ele>815.0</ele><time>2026-04-07T10:10:52Z</time></trkpt><trkpt lat="44.78296105497238" lon="7.251787360305339"><ele>815.0000000000001</ele><time>2026-04-07T10:10:53Z</time></trkpt><trkpt lat="44.78287751262299" lon="7.2517949898410725"><ele>815.0</ele><time>2026-04-07T10:10:54Z</time></trkpt><trkpt lat="44.78279147889416" lon="7.251818655084001"><ele>815.0</ele><time>2026-04-07T10:10:55Z</time></trkpt><trkpt lat="44.78271202210866" lon="7.251884685209429"><ele>815.0</ele><time>2026-04-07T10:10:56Z</time></trkpt><trkpt lat="44.782634700971265" lon="7.251918884223309"><ele>815.0</ele><time>2026-04-07T10:10:57Z</time></trkpt><trkpt lat="44.78252794456201" lon="7.251976069181901"><ele>815.0</ele><time>2026-04-07T10:10:59Z</time></trkpt><trkpt lat="44.782512929737294" lon="7.252117472977295"><ele>815.0</ele><time>2026-04-07T10:11:01Z</time></trkpt><trkpt lat="44.782560912431556" lon="7.25219470629296"><ele>815.0</ele><time>2026-04-07T10:11:02Z</time></trkpt><trkpt lat="44.78264332153116" lon="7.252208550252906"><ele>815.0</ele><time>2026-04-07T10:11:03Z</time></trkpt><trkpt lat="44.78272101272755" lon="7.252196544350935"><ele>815.0</ele><time>2026-04-07T10:11:04Z</time></trkpt><trkpt lat="44.78282262434374" lon="7.252289590446654"><ele>815.0</ele><time>2026-04-07T10:11:06Z</time></trkpt><trkpt lat="44.78283140935448" lon="7.252443546049432"><ele>815.0</ele><time>2026-04-07T10:11:08Z</time></trkpt><trkpt lat="44.782836131043304" lon="7.252614833837852"><ele>818.4</ele><time>2026-04-07T10:11:10Z</time></trkpt><trkpt lat="44.78283027814861" lon="7.2527418169665125"><ele>821.8</ele><time>2026-04-07T10:11:12Z</time></trkpt><trkpt lat="44.78282650643612" lon="7.252935563855725"><ele>825.2</ele><time>2026-04-07T10:11:14Z</time></trkpt><trkpt lat="44.78281846309695" lon="7.253063408736793"><ele>828.6</ele><time>2026-04-07T10:11:15Z</time></trkpt><trkpt lat="44.78281232717461" lon="7.253163992274405"><ele>832.0</ele><time>2026-04-07T10:11:16Z</time></trkpt><trkpt lat="44.78280685397559" lon="7.253296501297278"><ele>833.1666666666666</ele><time>2026-04-07T10:11:18Z</time></trkpt><trkpt lat="44.78277779984422" lon="7.25338172019727"><ele>834.3333333333333</ele><time>2026-04-07T10:11:20Z</time></trkpt><trkpt lat="44.78275651050656" lon="7.253472409734154"><ele>835.5</ele><time>2026-04-07T10:11:28Z</time></trkpt><trkpt lat="44.78275409136598" lon="7.2535733043772295"><ele>836.6666666666667</ele><time>2026-04-07T10:11:37.999Z</time></trkpt><trkpt lat="44.78264055243487" lon="7.253582715945112"><ele>837.8333333333334</ele><time>2026-04-07T10:11:39.999Z</time></trkpt><trkpt lat="44.782570086756806" lon="7.253571391005439"><ele>839.0</ele><time>2026-04-07T10:11:40.999Z</time></trkpt><trkpt lat="44.78250400706878" lon="7.253568788305238"><ele>840.0</ele><time>2026-04-07T10:11:41.999Z</time></trkpt><trkpt lat="44.78240375440331" lon="7.253563307112557"><ele>841.0</ele><time>2026-04-07T10:11:42.999Z</time></trkpt><trkpt lat="44.78228923607828" lon="7.253536570595452"><ele>842.0</ele><time>2026-04-07T10:11:43.999Z</time></trkpt><trkpt lat="44.78220163518989" lon="7.253475781201393"><ele>843.0</ele><time>2026-04-07T10:11:44.999Z</time></trkpt><trkpt lat="44.782129801922004" lon="7.253385365084919"><ele>844.0</ele><time>2026-04-07T10:11:45.999Z</time></trkpt><trkpt lat="44.78205073948623" lon="7.25327237869847"><ele>844.0</ele><time>2026-04-07T10:11:46.999Z</time></trkpt><trkpt lat="44.78194024932816" lon="7.253152113899872"><ele>844.0</ele><time>2026-04-07T10:11:47.999Z</time></trkpt><trkpt lat="44.78184746368281" lon="7.252981076873992"><ele>844.0</ele><time>2026-04-07T10:11:48.999Z</time></trkpt><trkpt lat="44.78174920070285" lon="7.25286220558723"><ele>844.0</ele><time>2026-04-07T10:11:49.999Z</time></trkpt><trkpt lat="44.781666625095035" lon="7.252738837924136"><ele>847.2</ele><time>2026-04-07T10:11:50.999Z</time></trkpt><trkpt lat="44.78159100049415" lon="7.252636509785966"><ele>850.4000000000001</ele><time>2026-04-07T10:11:51.999Z</time></trkpt><trkpt lat="44.78153733815045" lon="7.2525825806576405"><ele>853.6</ele><time>2026-04-07T10:11:52.999Z</time></trkpt><trkpt lat="44.78139529573048" lon="7.252590823767277"><ele>856.8</ele><time>2026-04-07T10:11:54.999Z</time></trkpt><trkpt lat="44.78128432178076" lon="7.252599967027792"><ele>860.0</ele><time>2026-04-07T10:11:55.999Z</time></trkpt><trkpt lat="44.78116769368512" lon="7.252616327290332"><ele>860.0</ele><time>2026-04-07T10:11:56.999Z</time></trkpt><trkpt lat="44.78106869498138" lon="7.25260640756422"><ele>860.0</ele><time>2026-04-07T10:11:57.999Z</time></trkpt><trkpt lat="44.78100352081609" lon="7.252531956607281"><ele>860.0</ele><time>2026-04-07T10:11:58.999Z</time></trkpt><trkpt lat="44.78089478992001" lon="7.252478300526469"><ele>860.0</ele><time>2026-04-07T10:11:59.999Z</time></trkpt><trkpt lat="44.7807799274115" lon="7.252460017038382"><ele>860.0</ele><time>2026-04-07T10:12:00.999Z</time></trkpt><trkpt lat="44.780677517011924" lon="7.252461326250107"><ele>863.5</ele><time>2026-04-07T10:12:01.999Z</time></trkpt><trkpt lat="44.78055973698905" lon="7.252500145818457"><ele>867.0</ele><time>2026-04-07T10:12:02.999Z</time></trkpt><trkpt lat="44.78045028742904" lon="7.252518935318936"><ele>870.5</ele><time>2026-04-07T10:12:03.999Z</time></trkpt><trkpt lat="44.78032846937287" lon="7.2525660002966115"><ele>874.0</ele><time>2026-04-07T10:12:04.999Z</time></trkpt><trkpt lat="44.78020605608819" lon="7.252643386650179"><ele>876.5</ele><time>2026-04-07T10:12:05.999Z</time></trkpt><trkpt lat="44.7800794638253" lon="7.252664691667439"><ele>879.0</ele><time>2026-04-07T10:12:06.999Z</time></trkpt><trkpt lat="44.77997658217144" lon="7.252622295696736"><ele>881.5</ele><time>2026-04-07T10:12:07.999Z</time></trkpt><trkpt lat="44.77986958112777" lon="7.252590994229677"><ele>884.0</ele><time>2026-04-07T10:12:08.999Z</time></trkpt><trkpt lat="44.7797464117807" lon="7.252584577670927"><ele>884.0</ele><time>2026-04-07T10:12:09.999Z</time></trkpt><trkpt lat="44.77962074967685" lon="7.25256429131011"><ele>884.0</ele><time>2026-04-07T10:12:10.999Z</time></trkpt><trkpt lat="44.77950338756322" lon="7.25257806439679"><ele>884.0</ele><time>2026-04-07T10:12:11.999Z</time></trkpt><trkpt lat="44.779388698408084" lon="7.2526147592986545"><ele>884.0</ele><time>2026-04-07T10:12:12.999Z</time></trkpt><trkpt lat="44.77927799113161" lon="7.252636489614215"><ele>885.4000000000001</ele><time>2026-04-07T10:12:13.999Z</time></trkpt><trkpt lat="44.779160703594364" lon="7.252647351037567"><ele>886.8000000000001</ele><time>2026-04-07T10:12:14.999Z</time></trkpt><trkpt lat="44.77904463059726" lon="7.25266386614388"><ele>888.1999999999999</ele><time>2026-04-07T10:12:15.999Z</time></trkpt><trkpt lat="44.7789375746535" lon="7.252687176393722"><ele>889.5999999999999</ele><time>2026-04-07T10:12:16.999Z</time></trkpt><trkpt lat="44.7788364297013" lon="7.252704523361382"><ele>891.0</ele><time>2026-04-07T10:12:17.999Z</time></trkpt><trkpt lat="44.77874114384111" lon="7.2527213277726075"><ele>891.0</ele><time>2026-04-07T10:12:18.999Z</time></trkpt><trkpt lat="44.77865415651643" lon="7.252727518282318"><ele>890.9999999999999</ele><time>2026-04-07T10:12:19.999Z</time></trkpt><trkpt lat="44.778536756334766" lon="7.252749515776209"><ele>890.9999999999999</ele><time>2026-04-07T10:12:21.999Z</time></trkpt><trkpt lat="44.77844556784626" lon="7.252761329228212"><ele>891.0</ele><time>2026-04-07T10:12:23.999Z</time></trkpt><trkpt lat="44.77836761655878" lon="7.2527498549166145"><ele>891.0</ele><time>2026-04-07T10:12:26.999Z</time></trkpt><trkpt lat="44.778291487057366" lon="7.252408113843368"><ele>893.1428571428572</ele><time>2026-04-07T10:12:30.999Z</time></trkpt><trkpt lat="44.77829167543974" lon="7.252318059726198"><ele>895.2857142857142</ele><time>2026-04-07T10:12:32Z</time></trkpt><trkpt lat="44.778295315595585" lon="7.2522204893841025"><ele>897.4285714285713</ele><time>2026-04-07T10:12:33Z</time></trkpt><trkpt lat="44.77830018869222" lon="7.25210600548577"><ele>899.5714285714286</ele><time>2026-04-07T10:12:34Z</time></trkpt><trkpt lat="44.778310847252875" lon="7.251984862319048"><ele>901.7142857142857</ele><time>2026-04-07T10:12:35Z</time></trkpt><trkpt lat="44.778324065757054" lon="7.251885613304331"><ele>903.8571428571428</ele><time>2026-04-07T10:12:36Z</time></trkpt><trkpt lat="44.7783406036473" lon="7.251796806379669"><ele>905.9999999999999</ele><time>2026-04-07T10:12:37Z</time></trkpt><trkpt lat="44.77836090389672" lon="7.251635017941825"><ele>906.5999999999999</ele><time>2026-04-07T10:12:39Z</time></trkpt><trkpt lat="44.77837610454308" lon="7.25149185492335"><ele>907.1999999999999</ele><time>2026-04-07T10:12:41Z</time></trkpt><trkpt lat="44.77834888922946" lon="7.251350356714129"><ele>907.8000000000001</ele><time>2026-04-07T10:12:43Z</time></trkpt><trkpt lat="44.778332748448285" lon="7.251247038007981"><ele>908.4000000000001</ele><time>2026-04-07T10:12:44Z</time></trkpt><trkpt lat="44.77831371492105" lon="7.251128729541163"><ele>909.0</ele><time>2026-04-07T10:12:45Z</time></trkpt><trkpt lat="44.7783027270648" lon="7.251009493284515"><ele>909.0</ele><time>2026-04-07T10:12:46Z</time></trkpt><trkpt lat="44.778292540025525" lon="7.250904782766306"><ele>909.0000000000001</ele><time>2026-04-07T10:12:47Z</time></trkpt><trkpt lat="44.77829475761354" lon="7.250785760425483"><ele>909.0000000000001</ele><time>2026-04-07T10:12:48Z</time></trkpt><trkpt lat="44.77828679166183" lon="7.250665369578261"><ele>909.0</ele><time>2026-04-07T10:12:49Z</time></trkpt><trkpt lat="44.778260046644476" lon="7.250494822915645"><ele>909.0</ele><time>2026-04-07T10:12:51Z</time></trkpt><trkpt lat="44.77818227097316" lon="7.250383291330587"><ele>908.1428571428571</ele><time>2026-04-07T10:12:53Z</time></trkpt><trkpt lat="44.77813328609133" lon="7.250301387743126"><ele>907.2857142857143</ele><time>2026-04-07T10:12:54Z</time></trkpt><trkpt lat="44.77808698278802" lon="7.2502268000401076"><ele>906.4285714285714</ele><time>2026-04-07T10:12:55Z</time></trkpt><trkpt lat="44.778037114712724" lon="7.250155664637004"><ele>905.5714285714286</ele><time>2026-04-07T10:12:56Z</time></trkpt><trkpt lat="44.77799873095894" lon="7.2500727468015285"><ele>904.7142857142858</ele><time>2026-04-07T10:12:57Z</time></trkpt><trkpt lat="44.777984124375415" lon="7.249978032042197"><ele>903.8571428571429</ele><time>2026-04-07T10:12:58Z</time></trkpt><trkpt lat="44.77793641337324" lon="7.249888061457583"><ele>903.0</ele><time>2026-04-07T10:12:59Z</time></trkpt><trkpt lat="44.77788431479275" lon="7.249772546995696"><ele>901.2</ele><time>2026-04-07T10:13:00Z</time></trkpt><trkpt lat="44.77782739329919" lon="7.249672836916854"><ele>899.4</ele><time>2026-04-07T10:13:01Z</time></trkpt><trkpt lat="44.77776900683533" lon="7.24953809456925"><ele>897.6000000000001</ele><time>2026-04-07T10:13:02Z</time></trkpt><trkpt lat="44.77771356957537" lon="7.249438141183226"><ele>895.8000000000001</ele><time>2026-04-07T10:13:03Z</time></trkpt><trkpt lat="44.7776705126051" lon="7.249338924453107"><ele>894.0</ele><time>2026-04-07T10:13:04Z</time></trkpt><trkpt lat="44.77760425715581" lon="7.249168398004422"><ele>898.0</ele><time>2026-04-07T10:13:06Z</time></trkpt><trkpt lat="44.777568018642214" lon="7.249083511398066"><ele>902.0</ele><time>2026-04-07T10:13:07Z</time></trkpt><trkpt lat="44.7775267893974" lon="7.248991226348127"><ele>906.0</ele><time>2026-04-07T10:13:08Z</time></trkpt><trkpt lat="44.777470019821166" lon="7.248917394976473"><ele>910.0</ele><time>2026-04-07T10:13:09Z</time></trkpt><trkpt lat="44.77741160290114" lon="7.248851508236306"><ele>914.0</ele><time>2026-04-07T10:13:10Z</time></trkpt><trkpt lat="44.77734441371022" lon="7.248779748472174"><ele>918.0</ele><time>2026-04-07T10:13:11Z</time></trkpt><trkpt lat="44.77728402091358" lon="7.24873104892487"><ele>918.0</ele><time>2026-04-07T10:13:12Z</time></trkpt><trkpt lat="44.777213713920375" lon="7.248734578286492"><ele>918.0</ele><time>2026-04-07T10:13:13Z</time></trkpt><trkpt lat="44.77714743037966" lon="7.2487196222484895"><ele>918.0</ele><time>2026-04-07T10:13:14Z</time></trkpt><trkpt lat="44.77706904957437" lon="7.24868575350571"><ele>918.0</ele><time>2026-04-07T10:13:15Z</time></trkpt><trkpt lat="44.77697173680336" lon="7.24864146247475"><ele>918.0</ele><time>2026-04-07T10:13:17Z</time></trkpt><trkpt lat="44.77690790939434" lon="7.248592606174779"><ele>918.0</ele><time>2026-04-07T10:13:18Z</time></trkpt><trkpt lat="44.7768151673694" lon="7.248487436184555"><ele>923.0</ele><time>2026-04-07T10:13:20Z</time></trkpt><trkpt lat="44.776760771275256" lon="7.248405920529409"><ele>928.0</ele><time>2026-04-07T10:13:21Z</time></trkpt><trkpt lat="44.776708078959864" lon="7.248318630204005"><ele>933.0</ele><time>2026-04-07T10:13:22Z</time></trkpt><trkpt lat="44.7766627813971" lon="7.248254484321797"><ele>938.0</ele><time>2026-04-07T10:13:23Z</time></trkpt><trkpt lat="44.776632384490505" lon="7.24810354566944"><ele>943.0</ele><time>2026-04-07T10:13:25Z</time></trkpt><trkpt lat="44.776681660833496" lon="7.2479629566124935"><ele>948.0</ele><time>2026-04-07T10:13:27Z</time></trkpt><trkpt lat="44.7767461585266" lon="7.247858261718754"><ele>949.5</ele><time>2026-04-07T10:13:29Z</time></trkpt><trkpt lat="44.77679040443014" lon="7.247768210388296"><ele>951.0</ele><time>2026-04-07T10:13:30Z</time></trkpt><trkpt lat="44.77685930992517" lon="7.247641950630658"><ele>952.5</ele><time>2026-04-07T10:13:32Z</time></trkpt><trkpt lat="44.77690174917547" lon="7.2475736254096965"><ele>954.0</ele><time>2026-04-07T10:13:33Z</time></trkpt><trkpt lat="44.77697316742077" lon="7.247526646823604"><ele>955.5</ele><time>2026-04-07T10:13:34Z</time></trkpt><trkpt lat="44.77703795250485" lon="7.247458724228118"><ele>957.0</ele><time>2026-04-07T10:13:35Z</time></trkpt><trkpt lat="44.777095051963094" lon="7.247369388224854"><ele>953.0</ele><time>2026-04-07T10:13:36Z</time></trkpt><trkpt lat="44.77715835894049" lon="7.24730660929408"><ele>949.0</ele><time>2026-04-07T10:13:37Z</time></trkpt><trkpt lat="44.77723898644285" lon="7.247176713034357"><ele>945.0</ele><time>2026-04-07T10:13:39Z</time></trkpt><trkpt lat="44.77729364708918" lon="7.247122094643177"><ele>941.0</ele><time>2026-04-07T10:13:39.999Z</time></trkpt><trkpt lat="44.77729165243825" lon="7.246945426336233"><ele>937.0</ele><time>2026-04-07T10:13:41.999Z</time></trkpt><trkpt lat="44.77727313605734" lon="7.246847109590698"><ele>936.9999999999999</ele><time>2026-04-07T10:13:42.999Z</time></trkpt><trkpt lat="44.777269607206875" lon="7.246747923976873"><ele>937.0</ele><time>2026-04-07T10:13:43.999Z</time></trkpt><trkpt lat="44.77725820657535" lon="7.246657621418505"><ele>937.0</ele><time>2026-04-07T10:13:44.999Z</time></trkpt><trkpt lat="44.77720450294141" lon="7.246586679991343"><ele>937.0</ele><time>2026-04-07T10:13:45.999Z</time></trkpt><trkpt lat="44.77713678636885" lon="7.246515953970903"><ele>936.9999999999999</ele><time>2026-04-07T10:13:46.999Z</time></trkpt><trkpt lat="44.77705041060856" lon="7.246430440748879"><ele>937.0</ele><time>2026-04-07T10:13:47.999Z</time></trkpt><trkpt lat="44.776988976563494" lon="7.246370775175542"><ele>937.4999999999999</ele><time>2026-04-07T10:13:48.999Z</time></trkpt><trkpt lat="44.77693407216939" lon="7.246303872382055"><ele>938.0</ele><time>2026-04-07T10:13:49.999Z</time></trkpt><trkpt lat="44.77687865385155" lon="7.246223712462642"><ele>938.5</ele><time>2026-04-07T10:13:50.999Z</time></trkpt><trkpt lat="44.77679521491128" lon="7.24614865791163"><ele>939.0</ele><time>2026-04-07T10:13:51.999Z</time></trkpt><trkpt lat="44.7767159309905" lon="7.246071138583373"><ele>939.4999999999999</ele><time>2026-04-07T10:13:52.999Z</time></trkpt><trkpt lat="44.77664146771398" lon="7.246011493803639"><ele>940.0</ele><time>2026-04-07T10:13:53.999Z</time></trkpt><trkpt lat="44.77657177557832" lon="7.245922312763114"><ele>939.9999999999999</ele><time>2026-04-07T10:13:54.999Z</time></trkpt><trkpt lat="44.77650339863468" lon="7.245868995607672"><ele>940.0</ele><time>2026-04-07T10:13:55.999Z</time></trkpt><trkpt lat="44.77644071053139" lon="7.2458142943661725"><ele>940.0</ele><time>2026-04-07T10:13:56.999Z</time></trkpt><trkpt lat="44.776372877665814" lon="7.2457525255863136"><ele>940.0</ele><time>2026-04-07T10:13:57.999Z</time></trkpt><trkpt lat="44.77630465647402" lon="7.245696366287955"><ele>939.9999999999999</ele><time>2026-04-07T10:13:58.999Z</time></trkpt><trkpt lat="44.77619927161986" lon="7.245596964988197"><ele>940.0</ele><time>2026-04-07T10:14:00.999Z</time></trkpt><trkpt lat="44.776107827255444" lon="7.245497163761914"><ele>937.75</ele><time>2026-04-07T10:14:02.999Z</time></trkpt><trkpt lat="44.77603172599014" lon="7.245381153295844"><ele>935.5</ele><time>2026-04-07T10:14:04.999Z</time></trkpt><trkpt lat="44.77594403119982" lon="7.245285900968693"><ele>933.25</ele><time>2026-04-07T10:14:06.999Z</time></trkpt><trkpt lat="44.77584024855635" lon="7.245212932836234"><ele>931.0</ele><time>2026-04-07T10:14:08.999Z</time></trkpt><trkpt lat="44.77577721340285" lon="7.245075047725971"><ele>935.6666666666666</ele><time>2026-04-07T10:14:10.999Z</time></trkpt><trkpt lat="44.775753683630015" lon="7.244988632543887"><ele>940.3333333333333</ele><time>2026-04-07T10:14:11.999Z</time></trkpt><trkpt lat="44.7757341674379" lon="7.244898482481208"><ele>945.0</ele><time>2026-04-07T10:14:12.999Z</time></trkpt><trkpt lat="44.77568384054176" lon="7.244807124783124"><ele>949.6666666666667</ele><time>2026-04-07T10:14:13.999Z</time></trkpt><trkpt lat="44.77567049443352" lon="7.244720238313583"><ele>954.3333333333334</ele><time>2026-04-07T10:14:14.999Z</time></trkpt><trkpt lat="44.77564991085311" lon="7.244636094566368"><ele>959.0</ele><time>2026-04-07T10:14:15.999Z</time></trkpt><trkpt lat="44.77567537916262" lon="7.2444479904888235"><ele>960.3333333333334</ele><time>2026-04-07T10:14:17.999Z</time></trkpt><trkpt lat="44.77567013812307" lon="7.244342649236105"><ele>961.6666666666667</ele><time>2026-04-07T10:14:18.999Z</time></trkpt><trkpt lat="44.77566873510569" lon="7.244248274766745"><ele>963.0</ele><time>2026-04-07T10:14:19.999Z</time></trkpt><trkpt lat="44.77564559792068" lon="7.244124722187597"><ele>964.3333333333333</ele><time>2026-04-07T10:14:21.999Z</time></trkpt><trkpt lat="44.77570442315212" lon="7.2440279558237615"><ele>965.6666666666666</ele><time>2026-04-07T10:14:24.999Z</time></trkpt><trkpt lat="44.77577561563416" lon="7.244000735387277"><ele>967.0</ele><time>2026-04-07T10:14:26.999Z</time></trkpt><trkpt lat="44.77584879319745" lon="7.244032427045865"><ele>966.9999999999999</ele><time>2026-04-07T10:14:28.999Z</time></trkpt><trkpt lat="44.77592431808067" lon="7.244057695906559"><ele>967.0</ele><time>2026-04-07T10:14:30.999Z</time></trkpt><trkpt lat="44.775972242996126" lon="7.244117885691407"><ele>967.0</ele><time>2026-04-07T10:14:32.999Z</time></trkpt><trkpt lat="44.77607678458859" lon="7.244108207328774"><ele>967.0</ele><time>2026-04-07T10:14:33.999Z</time></trkpt><trkpt lat="44.77616104415151" lon="7.24411612559856"><ele>966.9999999999999</ele><time>2026-04-07T10:14:34.999Z</time></trkpt><trkpt lat="44.7762475920251" lon="7.244090497811731"><ele>967.0</ele><time>2026-04-07T10:14:35.999Z</time></trkpt><trkpt lat="44.77632340918043" lon="7.244088702350827"><ele>965.2857142857143</ele><time>2026-04-07T10:14:36.999Z</time></trkpt><trkpt lat="44.77640806950419" lon="7.24408745461827"><ele>963.5714285714284</ele><time>2026-04-07T10:14:38Z</time></trkpt><trkpt lat="44.77647856975612" lon="7.244075240336422"><ele>961.8571428571428</ele><time>2026-04-07T10:14:39Z</time></trkpt><trkpt lat="44.77652355964282" lon="7.244012238994938"><ele>960.1428571428571</ele><time>2026-04-07T10:14:40Z</time></trkpt><trkpt lat="44.77658900043557" lon="7.243985314216713"><ele>958.4285714285713</ele><time>2026-04-07T10:14:41Z</time></trkpt><trkpt lat="44.77664907783185" lon="7.243951314581654"><ele>956.7142857142856</ele><time>2026-04-07T10:14:42Z</time></trkpt><trkpt lat="44.77673155331119" lon="7.243935399829952"><ele>954.9999999999999</ele><time>2026-04-07T10:14:43Z</time></trkpt><trkpt lat="44.776803323576324" lon="7.243915627957445"><ele>955.1666666666666</ele><time>2026-04-07T10:14:44Z</time></trkpt><trkpt lat="44.77689468860213" lon="7.243919793060113"><ele>955.3333333333333</ele><time>2026-04-07T10:14:45Z</time></trkpt><trkpt lat="44.776966113522086" lon="7.243917994830921"><ele>955.5</ele><time>2026-04-07T10:14:46Z</time></trkpt><trkpt lat="44.777039125363366" lon="7.243905563879191"><ele>955.6666666666667</ele><time>2026-04-07T10:14:47Z</time></trkpt><trkpt lat="44.77712740051048" lon="7.2439053599682515"><ele>955.8333333333334</ele><time>2026-04-07T10:14:48Z</time></trkpt><trkpt lat="44.777199413811765" lon="7.243896748224938"><ele>956.0</ele><time>2026-04-07T10:14:49Z</time></trkpt><trkpt lat="44.7772663419228" lon="7.243890029563412"><ele>956.0000000000001</ele><time>2026-04-07T10:14:50Z</time></trkpt><trkpt lat="44.777364611005474" lon="7.2437920157985385"><ele>956.0</ele><time>2026-04-07T10:14:52Z</time></trkpt><trkpt lat="44.77740235775647" lon="7.243719690346447"><ele>956.0</ele><time>2026-04-07T10:14:53Z</time></trkpt><trkpt lat="44.77739766778344" lon="7.243565764194481"><ele>956.0</ele><time>2026-04-07T10:14:55Z</time></trkpt><trkpt lat="44.777378983589195" lon="7.243477468320733"><ele>956.0000000000001</ele><time>2026-04-07T10:14:56Z</time></trkpt><trkpt lat="44.777372201544736" lon="7.243377479377105"><ele>956.0</ele><time>2026-04-07T10:14:57Z</time></trkpt><trkpt lat="44.77737056015747" lon="7.24328550013475"><ele>956.0000000000001</ele><time>2026-04-07T10:14:58Z</time></trkpt><trkpt lat="44.777385919688356" lon="7.243171099601278"><ele>956.0</ele><time>2026-04-07T10:14:59Z</time></trkpt><trkpt lat="44.777406493767984" lon="7.243062257559675"><ele>956.0000000000001</ele><time>2026-04-07T10:15:00Z</time></trkpt><trkpt lat="44.777442905455324" lon="7.2429793297974605"><ele>956.0000000000001</ele><time>2026-04-07T10:15:01Z</time></trkpt><trkpt lat="44.777480703479576" lon="7.242900590839233"><ele>956.0</ele><time>2026-04-07T10:15:02Z</time></trkpt><trkpt lat="44.77752880218102" lon="7.242827543301226"><ele>956.0000000000001</ele><time>2026-04-07T10:15:03Z</time></trkpt><trkpt lat="44.777593248641466" lon="7.242767857906077"><ele>956.0000000000001</ele><time>2026-04-07T10:15:04Z</time></trkpt><trkpt lat="44.777644509671816" lon="7.242706704967537"><ele>953.8</ele><time>2026-04-07T10:15:05Z</time></trkpt><trkpt lat="44.77767742342588" lon="7.2425525782420115"><ele>951.5999999999999</ele><time>2026-04-07T10:15:07Z</time></trkpt><trkpt lat="44.77770919339112" lon="7.242443789397163"><ele>949.4</ele><time>2026-04-07T10:15:08Z</time></trkpt><trkpt lat="44.77773105890982" lon="7.242302117810677"><ele>947.2</ele><time>2026-04-07T10:15:09Z</time></trkpt><trkpt lat="44.7777467373843" lon="7.242163919520799"><ele>945.0</ele><time>2026-04-07T10:15:10Z</time></trkpt><trkpt lat="44.777772016483105" lon="7.242025668813442"><ele>945.0</ele><time>2026-04-07T10:15:11Z</time></trkpt><trkpt lat="44.777772189053785" lon="7.241933415671405"><ele>945.0</ele><time>2026-04-07T10:15:12Z</time></trkpt><trkpt lat="44.7777739045792" lon="7.24183259893713"><ele>945.0</ele><time>2026-04-07T10:15:13Z</time></trkpt><trkpt lat="44.77777866931638" lon="7.241726201287825"><ele>945.0</ele><time>2026-04-07T10:15:14Z</time></trkpt><trkpt lat="44.77779314880058" lon="7.241613735826359"><ele>945.0</ele><time>2026-04-07T10:15:15Z</time></trkpt><trkpt lat="44.777807823220854" lon="7.241510637158686"><ele>945.0</ele><time>2026-04-07T10:15:16Z</time></trkpt><trkpt lat="44.77779900460042" lon="7.241410257070364"><ele>945.0</ele><time>2026-04-07T10:15:17Z</time></trkpt><trkpt lat="44.77779544602332" lon="7.241298360188812"><ele>947.4285714285714</ele><time>2026-04-07T10:15:18Z</time></trkpt><trkpt lat="44.77777994716335" lon="7.241205900959622"><ele>949.8571428571429</ele><time>2026-04-07T10:15:19Z</time></trkpt><trkpt lat="44.77774006747562" lon="7.241116286475848"><ele>952.2857142857142</ele><time>2026-04-07T10:15:20Z</time></trkpt><trkpt lat="44.77770902971368" lon="7.241032070588019"><ele>954.7142857142857</ele><time>2026-04-07T10:15:21Z</time></trkpt><trkpt lat="44.7776854839388" lon="7.240946085569721"><ele>957.1428571428571</ele><time>2026-04-07T10:15:22Z</time></trkpt><trkpt lat="44.777668412196036" lon="7.24084431638764"><ele>959.5714285714284</ele><time>2026-04-07T10:15:23Z</time></trkpt><trkpt lat="44.77766175849097" lon="7.2407474809713985"><ele>961.9999999999999</ele><time>2026-04-07T10:15:24Z</time></trkpt><trkpt lat="44.77765624218271" lon="7.24064243034966"><ele>967.2</ele><time>2026-04-07T10:15:26Z</time></trkpt><trkpt lat="44.77771369766677" lon="7.240541737130578"><ele>972.4000000000001</ele><time>2026-04-07T10:15:28Z</time></trkpt><trkpt lat="44.77777779485621" lon="7.240490067260063"><ele>977.5999999999999</ele><time>2026-04-07T10:15:29Z</time></trkpt><trkpt lat="44.77784923114586" lon="7.240381922247708"><ele>982.8</ele><time>2026-04-07T10:15:31Z</time></trkpt><trkpt lat="44.77789886195144" lon="7.240322006053916"><ele>988.0</ele><time>2026-04-07T10:15:32Z</time></trkpt><trkpt lat="44.77799986232203" lon="7.240243673471287"><ele>987.9999999999999</ele><time>2026-04-07T10:15:34Z</time></trkpt><trkpt lat="44.7780758580835" lon="7.2402422645407265"><ele>988.0</ele><time>2026-04-07T10:15:35Z</time></trkpt><trkpt lat="44.77816755185342" lon="7.240247772864628"><ele>988.0</ele><time>2026-04-07T10:15:36Z</time></trkpt><trkpt lat="44.77826449821636" lon="7.240234186639029"><ele>988.0</ele><time>2026-04-07T10:15:37Z</time></trkpt><trkpt lat="44.778344430863754" lon="7.240207775070777"><ele>987.9999999999999</ele><time>2026-04-07T10:15:38Z</time></trkpt><trkpt lat="44.77841810638844" lon="7.240165010811876"><ele>988.0</ele><time>2026-04-07T10:15:39Z</time></trkpt><trkpt lat="44.77848161807794" lon="7.240136901200769"><ele>989.9999999999999</ele><time>2026-04-07T10:15:40Z</time></trkpt><trkpt lat="44.77858648828387" lon="7.2401447575154725"><ele>992.0</ele><time>2026-04-07T10:15:41Z</time></trkpt><trkpt lat="44.77865565712376" lon="7.240137890103975"><ele>994.0</ele><time>2026-04-07T10:15:42Z</time></trkpt><trkpt lat="44.778716677223" lon="7.240163887937664"><ele>996.0</ele><time>2026-04-07T10:15:43Z</time></trkpt><trkpt lat="44.778837904003865" lon="7.240212478388824"><ele>997.9999999999999</ele><time>2026-04-07T10:15:44.999Z</time></trkpt><trkpt lat="44.77891419699772" lon="7.240214193340245"><ele>1000.0</ele><time>2026-04-07T10:15:45.999Z</time></trkpt><trkpt lat="44.778999932292855" lon="7.240183655512531"><ele>1000.0</ele><time>2026-04-07T10:15:46.999Z</time></trkpt><trkpt lat="44.77906443265954" lon="7.240197620583461"><ele>1000.0</ele><time>2026-04-07T10:15:47.999Z</time></trkpt><trkpt lat="44.77914391205369" lon="7.240186803120279"><ele>1000.0</ele><time>2026-04-07T10:15:48.999Z</time></trkpt><trkpt lat="44.77926575521752" lon="7.240174209818221"><ele>1000.0</ele><time>2026-04-07T10:15:50.999Z</time></trkpt><trkpt lat="44.77936243808258" lon="7.240178859688265"><ele>1000.0</ele><time>2026-04-07T10:15:52.999Z</time></trkpt><trkpt lat="44.779449954210754" lon="7.24025732892037"><ele>997.75</ele><time>2026-04-07T10:15:54.999Z</time></trkpt><trkpt lat="44.77950012872785" lon="7.240328881713984"><ele>995.5</ele><time>2026-04-07T10:15:56.999Z</time></trkpt><trkpt lat="44.779557437401934" lon="7.240382497196287"><ele>993.25</ele><time>2026-04-07T10:15:58.999Z</time></trkpt><trkpt lat="44.779736599514955" lon="7.240649681564791"><ele>991.0</ele><time>2026-04-07T10:16:00.999Z</time></trkpt><trkpt lat="44.77980431462105" lon="7.240678645756077"><ele>990.9999999999999</ele><time>2026-04-07T10:16:01.999Z</time></trkpt><trkpt lat="44.779856771237846" lon="7.240742110713141"><ele>991.0</ele><time>2026-04-07T10:16:02.999Z</time></trkpt><trkpt lat="44.77990526614396" lon="7.2408022750170336"><ele>991.0</ele><time>2026-04-07T10:16:03.999Z</time></trkpt><trkpt lat="44.77997213047977" lon="7.240827575523148"><ele>991.0</ele><time>2026-04-07T10:16:04.999Z</time></trkpt><trkpt lat="44.78004053039217" lon="7.240848266869489"><ele>990.9999999999999</ele><time>2026-04-07T10:16:05.999Z</time></trkpt><trkpt lat="44.7801077023213" lon="7.240827985365523"><ele>991.0</ele><time>2026-04-07T10:16:06.999Z</time></trkpt><trkpt lat="44.78021734675741" lon="7.240765112176582"><ele>994.1999999999999</ele><time>2026-04-07T10:16:08.999Z</time></trkpt><trkpt lat="44.78029186277738" lon="7.24073861143258"><ele>997.3999999999999</ele><time>2026-04-07T10:16:10.999Z</time></trkpt><trkpt lat="44.78044460981287" lon="7.240763054291866"><ele>1000.6</ele><time>2026-04-07T10:16:18.999Z</time></trkpt><trkpt lat="44.78053574740771" lon="7.240758931153917"><ele>1003.8</ele><time>2026-04-07T10:16:20.999Z</time></trkpt><trkpt lat="44.7806242930229" lon="7.2407811169390275"><ele>1007.0</ele><time>2026-04-07T10:16:21.999Z</time></trkpt><trkpt lat="44.78069416694793" lon="7.240856924007597"><ele>1007.0</ele><time>2026-04-07T10:16:22.999Z</time></trkpt><trkpt lat="44.780752619337825" lon="7.240905474187232"><ele>1007.0</ele><time>2026-04-07T10:16:23.999Z</time></trkpt><trkpt lat="44.78081324720075" lon="7.240988467210637"><ele>1007.0</ele><time>2026-04-07T10:16:24.999Z</time></trkpt><trkpt lat="44.78087500409219" lon="7.241056522023202"><ele>1007.0</ele><time>2026-04-07T10:16:25.999Z</time></trkpt><trkpt lat="44.78093600045477" lon="7.2411229225820914"><ele>1007.0</ele><time>2026-04-07T10:16:26.999Z</time></trkpt><trkpt lat="44.78099979101196" lon="7.241132457532195"><ele>1007.0</ele><time>2026-04-07T10:16:27.999Z</time></trkpt><trkpt lat="44.78107129000251" lon="7.241150345936422"><ele>1007.0</ele><time>2026-04-07T10:16:28.999Z</time></trkpt><trkpt lat="44.78115594970878" lon="7.24116307053885"><ele>1007.2</ele><time>2026-04-07T10:16:29.999Z</time></trkpt><trkpt lat="44.78124158814319" lon="7.241139993938654"><ele>1007.4000000000001</ele><time>2026-04-07T10:16:30.999Z</time></trkpt><trkpt lat="44.781309366566674" lon="7.241142367167796"><ele>1007.5999999999999</ele><time>2026-04-07T10:16:31.999Z</time></trkpt><trkpt lat="44.78142561819697" lon="7.2411706703144905"><ele>1007.8</ele><time>2026-04-07T10:16:33.999Z</time></trkpt><trkpt lat="44.78153704357712" lon="7.241174624953747"><ele>1008.0</ele><time>2026-04-07T10:16:35.999Z</time></trkpt><trkpt lat="44.78163091307461" lon="7.2410661472059115"><ele>1008.0</ele><time>2026-04-07T10:16:37.999Z</time></trkpt><trkpt lat="44.78168255421286" lon="7.240983246516045"><ele>1008.0</ele><time>2026-04-07T10:16:38.999Z</time></trkpt><trkpt lat="44.78172692791753" lon="7.240876118402427"><ele>1008.0</ele><time>2026-04-07T10:16:39.999Z</time></trkpt><trkpt lat="44.78179690936765" lon="7.2407724773868996"><ele>1008.0</ele><time>2026-04-07T10:16:40.999Z</time></trkpt><trkpt lat="44.7818528994599" lon="7.240674412810336"><ele>1008.0</ele><time>2026-04-07T10:16:41.999Z</time></trkpt><trkpt lat="44.78193354620979" lon="7.240584203378015"><ele>1005.5999999999999</ele><time>2026-04-07T10:16:42.999Z</time></trkpt><trkpt lat="44.781994562639106" lon="7.240497044811066"><ele>1003.1999999999999</ele><time>2026-04-07T10:16:44Z</time></trkpt><trkpt lat="44.78204710442043" lon="7.240402525601009"><ele>1000.8</ele><time>2026-04-07T10:16:45Z</time></trkpt><trkpt lat="44.78209439711142" lon="7.24030242468288"><ele>998.4</ele><time>2026-04-07T10:16:46Z</time></trkpt><trkpt lat="44.78215701299931" lon="7.240214247680281"><ele>996.0</ele><time>2026-04-07T10:16:47Z</time></trkpt><trkpt lat="44.782198319785785" lon="7.240047733570919"><ele>996.0</ele><time>2026-04-07T10:16:49Z</time></trkpt><trkpt lat="44.7822266234526" lon="7.239949358388273"><ele>996.0</ele><time>2026-04-07T10:16:50Z</time></trkpt><trkpt lat="44.78227512820475" lon="7.239852353590076"><ele>996.0</ele><time>2026-04-07T10:16:51Z</time></trkpt><trkpt lat="44.78232382566167" lon="7.239758230392701"><ele>996.0</ele><time>2026-04-07T10:16:52Z</time></trkpt><trkpt lat="44.782367500389746" lon="7.239674919152248"><ele>996.0</ele><time>2026-04-07T10:16:53Z</time></trkpt><trkpt lat="44.782442377307966" lon="7.239593892191477"><ele>996.0</ele><time>2026-04-07T10:16:54Z</time></trkpt><trkpt lat="44.782495502483314" lon="7.23954261497838"><ele>996.6666666666666</ele><time>2026-04-07T10:16:55Z</time></trkpt><trkpt lat="44.78255455287306" lon="7.239482352396854"><ele>997.3333333333333</ele><time>2026-04-07T10:16:56Z</time></trkpt><trkpt lat="44.782629057629755" lon="7.239447079908391"><ele>998.0</ele><time>2026-04-07T10:16:57Z</time></trkpt><trkpt lat="44.7827151156829" lon="7.239360697483776"><ele>998.6666666666666</ele><time>2026-04-07T10:16:58Z</time></trkpt><trkpt lat="44.7827678810535" lon="7.239265647662694"><ele>999.3333333333333</ele><time>2026-04-07T10:16:59Z</time></trkpt><trkpt lat="44.78282345524566" lon="7.239176190683923"><ele>1000.0</ele><time>2026-04-07T10:17:00Z</time></trkpt><trkpt lat="44.78287052085392" lon="7.239097414562012"><ele>1000.4999999999999</ele><time>2026-04-07T10:17:01Z</time></trkpt><trkpt lat="44.782932578704425" lon="7.23894405275345"><ele>1001.0</ele><time>2026-04-07T10:17:03Z</time></trkpt><trkpt lat="44.782949756924175" lon="7.238811927788483"><ele>1001.5</ele><time>2026-04-07T10:17:05Z</time></trkpt><trkpt lat="44.782931869327186" lon="7.238712063997301"><ele>1002.0</ele><time>2026-04-07T10:17:19Z</time></trkpt><trkpt lat="44.78292274819804" lon="7.238602216664149"><ele>1002.4999999999999</ele><time>2026-04-07T10:17:21Z</time></trkpt><trkpt lat="44.78286499339357" lon="7.238532267226437"><ele>1003.0</ele><time>2026-04-07T10:17:23Z</time></trkpt><trkpt lat="44.7827700339992" lon="7.23849290862117"><ele>1002.9999999999999</ele><time>2026-04-07T10:17:25Z</time></trkpt><trkpt lat="44.782705882961594" lon="7.238495363063138"><ele>1003.0</ele><time>2026-04-07T10:17:26Z</time></trkpt><trkpt lat="44.782634735709145" lon="7.23851218565238"><ele>1003.0</ele><time>2026-04-07T10:17:27Z</time></trkpt><trkpt lat="44.78254827902634" lon="7.238522529241148"><ele>1003.0</ele><time>2026-04-07T10:17:28Z</time></trkpt><trkpt lat="44.78246720840375" lon="7.238563847170963"><ele>1002.9999999999999</ele><time>2026-04-07T10:17:29Z</time></trkpt><trkpt lat="44.782402229626264" lon="7.238559027995121"><ele>1003.0</ele><time>2026-04-07T10:17:30Z</time></trkpt><trkpt lat="44.78232200835005" lon="7.238542546381356"><ele>1003.2</ele><time>2026-04-07T10:17:31Z</time></trkpt><trkpt lat="44.7821888381179" lon="7.238488140265005"><ele>1003.4</ele><time>2026-04-07T10:17:33Z</time></trkpt><trkpt lat="44.782115864591006" lon="7.238458870703009"><ele>1003.6000000000001</ele><time>2026-04-07T10:17:34Z</time></trkpt><trkpt lat="44.78199113062455" lon="7.238393008605258"><ele>1003.8000000000001</ele><time>2026-04-07T10:17:36Z</time></trkpt><trkpt lat="44.78192396053428" lon="7.23836556608438"><ele>1004.0</ele><time>2026-04-07T10:17:37Z</time></trkpt><trkpt lat="44.781849059034805" lon="7.238312832161279"><ele>1002.6666666666667</ele><time>2026-04-07T10:17:38Z</time></trkpt><trkpt lat="44.78177247346779" lon="7.23825928350201"><ele>1001.3333333333334</ele><time>2026-04-07T10:17:39Z</time></trkpt><trkpt lat="44.78169748211956" lon="7.2382118988173465"><ele>1000.0</ele><time>2026-04-07T10:17:40Z</time></trkpt><trkpt lat="44.78163214430754" lon="7.238156942770124"><ele>998.6666666666667</ele><time>2026-04-07T10:17:41Z</time></trkpt><trkpt lat="44.78157233386119" lon="7.238083608877545"><ele>997.3333333333334</ele><time>2026-04-07T10:17:42Z</time></trkpt><trkpt lat="44.78151504493349" lon="7.238029777041243"><ele>996.0</ele><time>2026-04-07T10:17:43Z</time></trkpt><trkpt lat="44.78145029784544" lon="7.237958423983219"><ele>996.0</ele><time>2026-04-07T10:17:45Z</time></trkpt><trkpt lat="44.781365733819236" lon="7.237864831166645"><ele>995.9999999999999</ele><time>2026-04-07T10:17:47Z</time></trkpt><trkpt lat="44.78126001829913" lon="7.237755482609407"><ele>995.9999999999999</ele><time>2026-04-07T10:17:49Z</time></trkpt><trkpt lat="44.78119451168159" lon="7.237697343324043"><ele>996.0</ele><time>2026-04-07T10:17:50Z</time></trkpt><trkpt lat="44.781099842428624" lon="7.237630496093511"><ele>996.0</ele><time>2026-04-07T10:17:52Z</time></trkpt><trkpt lat="44.781045747290825" lon="7.237572040378252"><ele>997.6666666666666</ele><time>2026-04-07T10:17:53Z</time></trkpt><trkpt lat="44.78099122508556" lon="7.237503501310927"><ele>999.3333333333333</ele><time>2026-04-07T10:17:53.999Z</time></trkpt><trkpt lat="44.78092792871357" lon="7.237448683666134"><ele>1001.0</ele><time>2026-04-07T10:17:54.999Z</time></trkpt><trkpt lat="44.7808835906254" lon="7.237370973034275"><ele>1002.6666666666666</ele><time>2026-04-07T10:17:55.999Z</time></trkpt><trkpt lat="44.78084455185032" lon="7.237267238069733"><ele>1004.3333333333333</ele><time>2026-04-07T10:17:56.999Z</time></trkpt><trkpt lat="44.78079249741845" lon="7.237192273077493"><ele>1006.0</ele><time>2026-04-07T10:17:57.999Z</time></trkpt><trkpt lat="44.78074967896397" lon="7.237104267827983"><ele>1006.0</ele><time>2026-04-07T10:17:58.999Z</time></trkpt><trkpt lat="44.780729228724766" lon="7.237017649570815"><ele>1006.0000000000001</ele><time>2026-04-07T10:17:59.999Z</time></trkpt><trkpt lat="44.78070127255085" lon="7.236923887792707"><ele>1006.0</ele><time>2026-04-07T10:18:00.999Z</time></trkpt><trkpt lat="44.78067483086742" lon="7.236818566151249"><ele>1006.0</ele><time>2026-04-07T10:18:01.999Z</time></trkpt><trkpt lat="44.78062433181878" lon="7.236734987337609"><ele>1006.0000000000001</ele><time>2026-04-07T10:18:02.999Z</time></trkpt><trkpt lat="44.78060463583643" lon="7.236648854798905"><ele>1006.0</ele><time>2026-04-07T10:18:03.999Z</time></trkpt><trkpt lat="44.78059003512372" lon="7.236548028609729"><ele>1006.0</ele><time>2026-04-07T10:18:04.999Z</time></trkpt><trkpt lat="44.780556871147304" lon="7.236461818934201"><ele>1004.1666666666666</ele><time>2026-04-07T10:18:05.999Z</time></trkpt><trkpt lat="44.78054241170313" lon="7.236346858417972"><ele>1002.3333333333333</ele><time>2026-04-07T10:18:06.999Z</time></trkpt><trkpt lat="44.780534270447895" lon="7.236238606289945"><ele>1000.5</ele><time>2026-04-07T10:18:07.999Z</time></trkpt><trkpt lat="44.78051837851335" lon="7.236130807895841"><ele>998.6666666666667</ele><time>2026-04-07T10:18:08.999Z</time></trkpt><trkpt lat="44.78047993162398" lon="7.23598655601132"><ele>996.8333333333334</ele><time>2026-04-07T10:18:10.999Z</time></trkpt><trkpt lat="44.780407799113284" lon="7.235936813992641"><ele>995.0</ele><time>2026-04-07T10:18:12.999Z</time></trkpt><trkpt lat="44.78029190291626" lon="7.23592723699036"><ele>995.0</ele><time>2026-04-07T10:18:14.999Z</time></trkpt><trkpt lat="44.780228437911035" lon="7.235914763244411"><ele>995.0</ele><time>2026-04-07T10:18:15.999Z</time></trkpt><trkpt lat="44.78016681143577" lon="7.235891317595055"><ele>995.0</ele><time>2026-04-07T10:18:16.999Z</time></trkpt><trkpt lat="44.78010768240826" lon="7.235860099943659"><ele>995.0</ele><time>2026-04-07T10:18:17.999Z</time></trkpt><trkpt lat="44.780047806632304" lon="7.235819636899823"><ele>995.0</ele><time>2026-04-07T10:18:18.999Z</time></trkpt><trkpt lat="44.77997631552003" lon="7.235784157701496"><ele>995.0</ele><time>2026-04-07T10:18:19.999Z</time></trkpt><trkpt lat="44.77991618022755" lon="7.235733989302804"><ele>995.0</ele><time>2026-04-07T10:18:20.999Z</time></trkpt><trkpt lat="44.77985177224509" lon="7.235679531898778"><ele>993.8</ele><time>2026-04-07T10:18:21.999Z</time></trkpt><trkpt lat="44.7797980273888" lon="7.235630372765515"><ele>992.6</ele><time>2026-04-07T10:18:22.999Z</time></trkpt><trkpt lat="44.779687837481426" lon="7.235600413351585"><ele>991.4000000000001</ele><time>2026-04-07T10:18:24.999Z</time></trkpt><trkpt lat="44.7795838535372" lon="7.235561992242836"><ele>990.2</ele><time>2026-04-07T10:18:26.999Z</time></trkpt><trkpt lat="44.77953096018111" lon="7.235501146352016"><ele>989.0</ele><time>2026-04-07T10:18:27.999Z</time></trkpt><trkpt lat="44.77942680136288" lon="7.235372087667742"><ele>989.0</ele><time>2026-04-07T10:18:29.999Z</time></trkpt><trkpt lat="44.77936733279449" lon="7.235178213838883"><ele>989.0000000000001</ele><time>2026-04-07T10:18:31.999Z</time></trkpt><trkpt lat="44.779287397104106" lon="7.235111187221829"><ele>989.0000000000001</ele><time>2026-04-07T10:18:32.999Z</time></trkpt><trkpt lat="44.77921829125831" lon="7.235036547723902"><ele>989.0</ele><time>2026-04-07T10:18:33.999Z</time></trkpt><trkpt lat="44.77917203994373" lon="7.234963658730912"><ele>989.0</ele><time>2026-04-07T10:18:34.999Z</time></trkpt><trkpt lat="44.779120249605555" lon="7.23490592111602"><ele>989.8333333333334</ele><time>2026-04-07T10:18:35.999Z</time></trkpt><trkpt lat="44.779065145604505" lon="7.234847440713845"><ele>990.6666666666667</ele><time>2026-04-07T10:18:36.999Z</time></trkpt><trkpt lat="44.77896457957175" lon="7.234775836154573"><ele>991.5</ele><time>2026-04-07T10:18:38.999Z</time></trkpt><trkpt lat="44.77890163033525" lon="7.234759002736252"><ele>992.3333333333333</ele><time>2026-04-07T10:18:39.999Z</time></trkpt><trkpt lat="44.77883858582754" lon="7.2347536255859275"><ele>993.1666666666666</ele><time>2026-04-07T10:18:40.999Z</time></trkpt><trkpt lat="44.77876820871085" lon="7.2347500640361755"><ele>994.0</ele><time>2026-04-07T10:18:41.999Z</time></trkpt><trkpt lat="44.77869043971938" lon="7.234768008216178"><ele>993.9999999999999</ele><time>2026-04-07T10:18:42.999Z</time></trkpt><trkpt lat="44.778610075595715" lon="7.2347636664011965"><ele>994.0</ele><time>2026-04-07T10:18:43.999Z</time></trkpt><trkpt lat="44.778504876941625" lon="7.234728834274081"><ele>994.0</ele><time>2026-04-07T10:18:44.999Z</time></trkpt><trkpt lat="44.77841262617472" lon="7.234720484263894"><ele>994.0</ele><time>2026-04-07T10:18:45.999Z</time></trkpt><trkpt lat="44.778338993718705" lon="7.234717214330124"><ele>993.9999999999999</ele><time>2026-04-07T10:18:46.999Z</time></trkpt><trkpt lat="44.77825831924479" lon="7.234702576195794"><ele>994.0</ele><time>2026-04-07T10:18:47.999Z</time></trkpt><trkpt lat="44.77818180412532" lon="7.2347156701448325"><ele>995.4000000000001</ele><time>2026-04-07T10:18:48.999Z</time></trkpt><trkpt lat="44.77810447149328" lon="7.234734255152213"><ele>996.8000000000001</ele><time>2026-04-07T10:18:50Z</time></trkpt><trkpt lat="44.77803768689227" lon="7.234754752400885"><ele>998.1999999999999</ele><time>2026-04-07T10:18:51Z</time></trkpt><trkpt lat="44.77790223225616" lon="7.234816223085231"><ele>999.5999999999999</ele><time>2026-04-07T10:18:53Z</time></trkpt><trkpt lat="44.777807286961675" lon="7.234829196198753"><ele>1001.0</ele><time>2026-04-07T10:18:54Z</time></trkpt><trkpt lat="44.77771536221127" lon="7.234831049215251"><ele>1002.0</ele><time>2026-04-07T10:18:55Z</time></trkpt><trkpt lat="44.777634073393564" lon="7.234841624212775"><ele>1002.9999999999999</ele><time>2026-04-07T10:18:56Z</time></trkpt><trkpt lat="44.77756691318943" lon="7.234853764532809"><ele>1003.9999999999999</ele><time>2026-04-07T10:18:57Z</time></trkpt><trkpt lat="44.77745145493496" lon="7.234848180445483"><ele>1005.0</ele><time>2026-04-07T10:18:59Z</time></trkpt><trkpt lat="44.777337713478246" lon="7.234813829507663"><ele>1006.0</ele><time>2026-04-07T10:19:01Z</time></trkpt><trkpt lat="44.77726674574315" lon="7.234795112207102"><ele>1005.9999999999999</ele><time>2026-04-07T10:19:02Z</time></trkpt><trkpt lat="44.77718255890679" lon="7.234775714696868"><ele>1006.0</ele><time>2026-04-07T10:19:03Z</time></trkpt><trkpt lat="44.777089433825495" lon="7.234751014975098"><ele>1006.0</ele><time>2026-04-07T10:19:04Z</time></trkpt><trkpt lat="44.77700839346066" lon="7.234711431649149"><ele>1006.0</ele><time>2026-04-07T10:19:05Z</time></trkpt><trkpt lat="44.77693070517161" lon="7.234707848042679"><ele>1005.9999999999999</ele><time>2026-04-07T10:19:06Z</time></trkpt><trkpt lat="44.77686008969345" lon="7.234716367912777"><ele>1006.0</ele><time>2026-04-07T10:19:07Z</time></trkpt><trkpt lat="44.77679141940121" lon="7.234718808240173"><ele>1006.9999999999999</ele><time>2026-04-07T10:19:08Z</time></trkpt><trkpt lat="44.77673129198483" lon="7.234748402229485"><ele>1008.0</ele><time>2026-04-07T10:19:09Z</time></trkpt><trkpt lat="44.776607642501425" lon="7.234725938966029"><ele>1009.0</ele><time>2026-04-07T10:19:11Z</time></trkpt><trkpt lat="44.77653331026727" lon="7.234697750731124"><ele>1010.0</ele><time>2026-04-07T10:19:12Z</time></trkpt><trkpt lat="44.776455860166045" lon="7.234686361219793"><ele>1010.9999999999999</ele><time>2026-04-07T10:19:13Z</time></trkpt><trkpt lat="44.776375845831886" lon="7.234713849733216"><ele>1012.0</ele><time>2026-04-07T10:19:14Z</time></trkpt><trkpt lat="44.77628842398061" lon="7.2347204209524625"><ele>1011.9999999999999</ele><time>2026-04-07T10:19:15Z</time></trkpt><trkpt lat="44.776208185220554" lon="7.234709997326003"><ele>1012.0</ele><time>2026-04-07T10:19:16Z</time></trkpt><trkpt lat="44.776135209578065" lon="7.234716097506314"><ele>1012.0</ele><time>2026-04-07T10:19:17Z</time></trkpt><trkpt lat="44.77606512029084" lon="7.234707090842462"><ele>1012.0</ele><time>2026-04-07T10:19:18Z</time></trkpt><trkpt lat="44.77599755093016" lon="7.234700818944529"><ele>1011.9999999999999</ele><time>2026-04-07T10:19:19Z</time></trkpt><trkpt lat="44.77586000815265" lon="7.23472793322423"><ele>1012.0</ele><time>2026-04-07T10:19:21Z</time></trkpt><trkpt lat="44.77578355070832" lon="7.2347618354312395"><ele>1016.9999999999999</ele><time>2026-04-07T10:19:22Z</time></trkpt><trkpt lat="44.775708491284085" lon="7.234810448926727"><ele>1022.0</ele><time>2026-04-07T10:19:23Z</time></trkpt><trkpt lat="44.77563643202153" lon="7.2348672794812305"><ele>1027.0</ele><time>2026-04-07T10:19:24Z</time></trkpt><trkpt lat="44.77557405922387" lon="7.234935325217288"><ele>1032.0</ele><time>2026-04-07T10:19:25Z</time></trkpt><trkpt lat="44.77553688960379" lon="7.235010028920237"><ele>1037.0</ele><time>2026-04-07T10:19:26Z</time></trkpt><trkpt lat="44.77549872162564" lon="7.235082941730948"><ele>1042.0</ele><time>2026-04-07T10:19:27Z</time></trkpt><trkpt lat="44.7754408410069" lon="7.235186897194908"><ele>1042.0</ele><time>2026-04-07T10:19:29Z</time></trkpt><trkpt lat="44.77538300530003" lon="7.235271152235057"><ele>1042.0</ele><time>2026-04-07T10:19:31Z</time></trkpt><trkpt lat="44.77535014385204" lon="7.235429412115186"><ele>1042.0</ele><time>2026-04-07T10:19:33Z</time></trkpt><trkpt lat="44.77527501097801" lon="7.235519809478857"><ele>1042.0</ele><time>2026-04-07T10:19:35Z</time></trkpt><trkpt lat="44.775211481830446" lon="7.2356203948843865"><ele>1042.0</ele><time>2026-04-07T10:19:37Z</time></trkpt><trkpt lat="44.77514257840485" lon="7.235711673065462"><ele>1042.8</ele><time>2026-04-07T10:19:39Z</time></trkpt><trkpt lat="44.77508619834605" lon="7.235810938338056"><ele>1043.6</ele><time>2026-04-07T10:19:41Z</time></trkpt><trkpt lat="44.774989224601114" lon="7.235891779105767"><ele>1044.3999999999999</ele><time>2026-04-07T10:19:44Z</time></trkpt><trkpt lat="44.77490049988201" lon="7.235913102714948"><ele>1045.2</ele><time>2026-04-07T10:19:46Z</time></trkpt><trkpt lat="44.774829174375654" lon="7.235943825833101"><ele>1046.0</ele><time>2026-04-07T10:19:47Z</time></trkpt><trkpt lat="44.77473526966172" lon="7.236053341143368"><ele>1046.0</ele><time>2026-04-07T10:19:49Z</time></trkpt><trkpt lat="44.77467350251794" lon="7.236126263656408"><ele>1046.0</ele><time>2026-04-07T10:19:51Z</time></trkpt><trkpt lat="44.774606044013645" lon="7.236169639175611"><ele>1046.0</ele><time>2026-04-07T10:19:53Z</time></trkpt><trkpt lat="44.774542554753396" lon="7.2362105574569835"><ele>1046.0</ele><time>2026-04-07T10:19:57Z</time></trkpt><trkpt lat="44.774465289653" lon="7.236234518539413"><ele>1046.0</ele><time>2026-04-07T10:19:58.999Z</time></trkpt><trkpt lat="44.774375474601385" lon="7.236256982196926"><ele>1046.0</ele><time>2026-04-07T10:20:00.999Z</time></trkpt><trkpt lat="44.774293712674364" lon="7.2362948733794905"><ele>1044.3333333333335</ele><time>2026-04-07T10:20:01.999Z</time></trkpt><trkpt lat="44.77422128838329" lon="7.236309709257566"><ele>1042.6666666666667</ele><time>2026-04-07T10:20:02.999Z</time></trkpt><trkpt lat="44.77415287408787" lon="7.236320287035912"><ele>1041.0</ele><time>2026-04-07T10:20:03.999Z</time></trkpt><trkpt lat="44.774079693246094" lon="7.236337134793463"><ele>1039.3333333333333</ele><time>2026-04-07T10:20:04.999Z</time></trkpt><trkpt lat="44.774004993810415" lon="7.236332666395191"><ele>1037.6666666666665</ele><time>2026-04-07T10:20:05.999Z</time></trkpt><trkpt lat="44.773873490593026" lon="7.236334755930996"><ele>1036.0</ele><time>2026-04-07T10:20:07.999Z</time></trkpt><trkpt lat="44.773808678057755" lon="7.236320635295927"><ele>1036.0</ele><time>2026-04-07T10:20:08.999Z</time></trkpt><trkpt lat="44.77373729810378" lon="7.236301863748099"><ele>1036.0</ele><time>2026-04-07T10:20:09.999Z</time></trkpt><trkpt lat="44.77364229145741" lon="7.2362124870914"><ele>1036.0</ele><time>2026-04-07T10:20:11.999Z</time></trkpt><trkpt lat="44.77357593379816" lon="7.2361408714123465"><ele>1036.0</ele><time>2026-04-07T10:20:13.999Z</time></trkpt><trkpt lat="44.77349019622003" lon="7.236092005921536"><ele>1036.0</ele><time>2026-04-07T10:20:15.999Z</time></trkpt><trkpt lat="44.77340355215107" lon="7.236062407919866"><ele>1039.8</ele><time>2026-04-07T10:20:17.999Z</time></trkpt><trkpt lat="44.77330520477417" lon="7.2360071897829705"><ele>1043.6</ele><time>2026-04-07T10:20:19.999Z</time></trkpt><trkpt lat="44.77322957599525" lon="7.235983025917157"><ele>1047.4</ele><time>2026-04-07T10:20:22.999Z</time></trkpt><trkpt lat="44.773150573942786" lon="7.235906844515059"><ele>1051.2</ele><time>2026-04-07T10:20:24.999Z</time></trkpt><trkpt lat="44.77306040583941" lon="7.2358826087605195"><ele>1055.0</ele><time>2026-04-07T10:20:27.999Z</time></trkpt><trkpt lat="44.7729042996002" lon="7.235901059691084"><ele>1055.0</ele><time>2026-04-07T10:20:29.999Z</time></trkpt><trkpt lat="44.772798854441135" lon="7.235963571773764"><ele>1055.0</ele><time>2026-04-07T10:20:31.999Z</time></trkpt><trkpt lat="44.77272511854563" lon="7.236043840350038"><ele>1055.0</ele><time>2026-04-07T10:20:33.999Z</time></trkpt><trkpt lat="44.772675340562074" lon="7.236137145134903"><ele>1055.0</ele><time>2026-04-07T10:20:35.999Z</time></trkpt><trkpt lat="44.772604146745536" lon="7.2361588067154825"><ele>1055.0</ele><time>2026-04-07T10:20:37.999Z</time></trkpt><trkpt lat="44.77249571071925" lon="7.236179456036491"><ele>1054.1666666666667</ele><time>2026-04-07T10:20:40.999Z</time></trkpt><trkpt lat="44.7724184978429" lon="7.236171476767707"><ele>1053.3333333333335</ele><time>2026-04-07T10:20:41.999Z</time></trkpt><trkpt lat="44.77232907636444" lon="7.236216875857109"><ele>1052.5</ele><time>2026-04-07T10:20:43.999Z</time></trkpt><trkpt lat="44.7722573538652" lon="7.236192362805239"><ele>1051.6666666666667</ele><time>2026-04-07T10:20:45.999Z</time></trkpt><trkpt lat="44.77218950316936" lon="7.236168533394748"><ele>1050.8333333333333</ele><time>2026-04-07T10:20:48.999Z</time></trkpt><trkpt lat="44.772108180772015" lon="7.23623143117547"><ele>1050.0</ele><time>2026-04-07T10:20:50.999Z</time></trkpt><trkpt lat="44.77200299232071" lon="7.236283070801545"><ele>1050.0</ele><time>2026-04-07T10:20:52.999Z</time></trkpt><trkpt lat="44.771890399290086" lon="7.236336010614638"><ele>1050.0</ele><time>2026-04-07T10:20:54.999Z</time></trkpt><trkpt lat="44.771824925891266" lon="7.236359783766952"><ele>1050.0</ele><time>2026-04-07T10:20:56Z</time></trkpt><trkpt lat="44.77176222533391" lon="7.236397952554446"><ele>1050.0</ele><time>2026-04-07T10:20:57Z</time></trkpt><trkpt lat="44.771662843959795" lon="7.236450355411538"><ele>1050.0</ele><time>2026-04-07T10:20:59Z</time></trkpt><trkpt lat="44.7715840899014" lon="7.2365277488111746"><ele>1055.25</ele><time>2026-04-07T10:21:01Z</time></trkpt><trkpt lat="44.771537106139235" lon="7.236679541594688"><ele>1060.5</ele><time>2026-04-07T10:21:03Z</time></trkpt><trkpt lat="44.77150165923155" lon="7.236808132039695"><ele>1065.75</ele><time>2026-04-07T10:21:05Z</time></trkpt><trkpt lat="44.77144662165142" lon="7.236951996114642"><ele>1071.0</ele><time>2026-04-07T10:21:07Z</time></trkpt><trkpt lat="44.77138018823875" lon="7.237096784514758"><ele>1071.0</ele><time>2026-04-07T10:21:09Z</time></trkpt><trkpt lat="44.77134480848242" lon="7.237172792020909"><ele>1071.0</ele><time>2026-04-07T10:21:10Z</time></trkpt><trkpt lat="44.77131103431856" lon="7.237306191484769"><ele>1071.0</ele><time>2026-04-07T10:21:12Z</time></trkpt><trkpt lat="44.77134330277978" lon="7.23743552404699"><ele>1071.0</ele><time>2026-04-07T10:21:14Z</time></trkpt><trkpt lat="44.77128059252668" lon="7.2374531326907245"><ele>1071.0</ele><time>2026-04-07T10:21:15Z</time></trkpt><trkpt lat="44.77120492134929" lon="7.2375153236196565"><ele>1071.0</ele><time>2026-04-07T10:21:17Z</time></trkpt><trkpt lat="44.77110394266496" lon="7.237591918648666"><ele>1072.6666666666667</ele><time>2026-04-07T10:21:19Z</time></trkpt><trkpt lat="44.77102754325623" lon="7.23764373810558"><ele>1074.3333333333333</ele><time>2026-04-07T10:21:21Z</time></trkpt><trkpt lat="44.77096859506429" lon="7.237574112225355"><ele>1076.0</ele><time>2026-04-07T10:21:26Z</time></trkpt><trkpt lat="44.770888264441886" lon="7.237554752893686"><ele>1077.6666666666665</ele><time>2026-04-07T10:21:28Z</time></trkpt><trkpt lat="44.77081200284374" lon="7.237511881695356"><ele>1079.3333333333333</ele><time>2026-04-07T10:21:30Z</time></trkpt><trkpt lat="44.77072041921122" lon="7.237509021956751"><ele>1081.0</ele><time>2026-04-07T10:21:32Z</time></trkpt><trkpt lat="44.77060563952241" lon="7.237432477491329"><ele>1081.0</ele><time>2026-04-07T10:21:34Z</time></trkpt><trkpt lat="44.770531247244065" lon="7.237378551838854"><ele>1081.0</ele><time>2026-04-07T10:21:35Z</time></trkpt><trkpt lat="44.7704206571191" lon="7.237294507990673"><ele>1081.0</ele><time>2026-04-07T10:21:37Z</time></trkpt><trkpt lat="44.770329286588506" lon="7.2372426147505005"><ele>1081.0</ele><time>2026-04-07T10:21:39Z</time></trkpt><trkpt lat="44.77026526742711" lon="7.237233486560394"><ele>1081.0</ele><time>2026-04-07T10:21:40Z</time></trkpt><trkpt lat="44.77016900136105" lon="7.23730416588639"><ele>1080.3333333333333</ele><time>2026-04-07T10:21:42Z</time></trkpt><trkpt lat="44.770132312413935" lon="7.237413324420527"><ele>1079.6666666666665</ele><time>2026-04-07T10:21:44Z</time></trkpt><trkpt lat="44.7700999591825" lon="7.237492656807882"><ele>1079.0</ele><time>2026-04-07T10:21:45Z</time></trkpt><trkpt lat="44.770072860563744" lon="7.237645989914014"><ele>1078.3333333333333</ele><time>2026-04-07T10:21:47Z</time></trkpt><trkpt lat="44.77002438081209" lon="7.2377515712267035"><ele>1077.6666666666667</ele><time>2026-04-07T10:21:49Z</time></trkpt><trkpt lat="44.769934172370824" lon="7.237783986766195"><ele>1077.0</ele><time>2026-04-07T10:21:51Z</time></trkpt><trkpt lat="44.76985711075054" lon="7.23777210928442"><ele>1077.0</ele><time>2026-04-07T10:21:53Z</time></trkpt><trkpt lat="44.76976953033614" lon="7.23770894989203"><ele>1077.0</ele><time>2026-04-07T10:21:55Z</time></trkpt><trkpt lat="44.769674503038054" lon="7.237711657523799"><ele>1077.0</ele><time>2026-04-07T10:21:57Z</time></trkpt><trkpt lat="44.769586959938344" lon="7.237634659861341"><ele>1077.0</ele><time>2026-04-07T10:21:59Z</time></trkpt><trkpt lat="44.76950335751317" lon="7.237602113465045"><ele>1077.0</ele><time>2026-04-07T10:22:01Z</time></trkpt><trkpt lat="44.76939999055206" lon="7.237499933299651"><ele>1077.0</ele><time>2026-04-07T10:22:02.999Z</time></trkpt><trkpt lat="44.76932231852706" lon="7.237455060867481"><ele>1077.0</ele><time>2026-04-07T10:22:03.999Z</time></trkpt><trkpt lat="44.769227919998116" lon="7.237396450336754"><ele>1077.0</ele><time>2026-04-07T10:22:04.999Z</time></trkpt><trkpt lat="44.7691425029671" lon="7.237338744607117"><ele>1077.0</ele><time>2026-04-07T10:22:05.999Z</time></trkpt><trkpt lat="44.76907091229129" lon="7.237285647634634"><ele>1077.0</ele><time>2026-04-07T10:22:06.999Z</time></trkpt><trkpt lat="44.768990346852114" lon="7.237238279000333"><ele>1077.0</ele><time>2026-04-07T10:22:08.999Z</time></trkpt><trkpt lat="44.76888636647882" lon="7.237223857860179"><ele>1077.0</ele><time>2026-04-07T10:22:10.999Z</time></trkpt><trkpt lat="44.76882295066828" lon="7.237249361465826"><ele>1077.0</ele><time>2026-04-07T10:22:11.999Z</time></trkpt><trkpt lat="44.76872128416189" lon="7.237296830451762"><ele>1077.0</ele><time>2026-04-07T10:22:13.999Z</time></trkpt><trkpt lat="44.768658882067406" lon="7.237377482265601"><ele>1077.0</ele><time>2026-04-07T10:22:15.999Z</time></trkpt><trkpt lat="44.7686083099905" lon="7.237462667628143"><ele>1077.0</ele><time>2026-04-07T10:22:17.999Z</time></trkpt><trkpt lat="44.76854716099269" lon="7.237506156225502"><ele>1077.5</ele><time>2026-04-07T10:22:19.999Z</time></trkpt><trkpt lat="44.768460574820416" lon="7.237499719316417"><ele>1078.0</ele><time>2026-04-07T10:22:22.999Z</time></trkpt><trkpt lat="44.768400906897675" lon="7.237439530130279"><ele>1078.5</ele><time>2026-04-07T10:22:23.999Z</time></trkpt><trkpt lat="44.76833012022739" lon="7.237354990753613"><ele>1079.0</ele><time>2026-04-07T10:22:25.999Z</time></trkpt><trkpt lat="44.76825065654154" lon="7.237270313430584"><ele>1079.5</ele><time>2026-04-07T10:22:28.999Z</time></trkpt><trkpt lat="44.76821307727285" lon="7.237197736211599"><ele>1080.0</ele><time>2026-04-07T10:22:30.999Z</time></trkpt><trkpt lat="44.76798073169945" lon="7.236815861687427"><ele>1077.4285714285713</ele><time>2026-04-07T10:22:33.999Z</time></trkpt><trkpt lat="44.7679345618002" lon="7.236749428498341"><ele>1074.8571428571427</ele><time>2026-04-07T10:22:34.999Z</time></trkpt><trkpt lat="44.76784452544292" lon="7.236698750476995"><ele>1072.2857142857142</ele><time>2026-04-07T10:22:36.999Z</time></trkpt><trkpt lat="44.76778028159465" lon="7.236667781765752"><ele>1069.7142857142858</ele><time>2026-04-07T10:22:37.999Z</time></trkpt><trkpt lat="44.767707864192914" lon="7.236664835805316"><ele>1067.1428571428573</ele><time>2026-04-07T10:22:38.999Z</time></trkpt><trkpt lat="44.76764214900625" lon="7.236684302314046"><ele>1064.5714285714287</ele><time>2026-04-07T10:22:39.999Z</time></trkpt><trkpt lat="44.76757077240172" lon="7.236674453611156"><ele>1062.0</ele><time>2026-04-07T10:22:40.999Z</time></trkpt><trkpt lat="44.7674946967959" lon="7.236711284731339"><ele>1062.0</ele><time>2026-04-07T10:22:41.999Z</time></trkpt><trkpt lat="44.76741712800159" lon="7.2367296975982605"><ele>1062.0</ele><time>2026-04-07T10:22:42.999Z</time></trkpt><trkpt lat="44.76735249897178" lon="7.236770782926315"><ele>1062.0</ele><time>2026-04-07T10:22:43.999Z</time></trkpt><trkpt lat="44.76728695423129" lon="7.236824964878933"><ele>1062.0</ele><time>2026-04-07T10:22:44.999Z</time></trkpt><trkpt lat="44.767226035115954" lon="7.236876811567709"><ele>1062.0</ele><time>2026-04-07T10:22:45.999Z</time></trkpt><trkpt lat="44.767164511950654" lon="7.2369247560016285"><ele>1062.0</ele><time>2026-04-07T10:22:46.999Z</time></trkpt><trkpt lat="44.76709803184286" lon="7.2369744902399615"><ele>1062.0</ele><time>2026-04-07T10:22:47.999Z</time></trkpt><trkpt lat="44.76703946044013" lon="7.237024996973934"><ele>1062.0</ele><time>2026-04-07T10:22:48.999Z</time></trkpt><trkpt lat="44.76697333702147" lon="7.2370648233843955"><ele>1062.0</ele><time>2026-04-07T10:22:49.999Z</time></trkpt><trkpt lat="44.76689840978813" lon="7.237133626157055"><ele>1062.0</ele><time>2026-04-07T10:22:50.999Z</time></trkpt><trkpt lat="44.76682988962222" lon="7.237195488086771"><ele>1062.0</ele><time>2026-04-07T10:22:51.999Z</time></trkpt><trkpt lat="44.76675053982581" lon="7.237260845608048"><ele>1062.0</ele><time>2026-04-07T10:22:52.999Z</time></trkpt><trkpt lat="44.76665089040957" lon="7.23736003655803"><ele>1063.4</ele><time>2026-04-07T10:22:54.999Z</time></trkpt><trkpt lat="44.76657205309798" lon="7.23748299610972"><ele>1064.8000000000002</ele><time>2026-04-07T10:22:56.999Z</time></trkpt><trkpt lat="44.76655347186356" lon="7.237608847027618"><ele>1066.2</ele><time>2026-04-07T10:22:58.999Z</time></trkpt><trkpt lat="44.76657029964379" lon="7.237777470645806"><ele>1067.6000000000001</ele><time>2026-04-07T10:23:00.999Z</time></trkpt><trkpt lat="44.76657683620592" lon="7.237874143191041"><ele>1069.0</ele><time>2026-04-07T10:23:02Z</time></trkpt><trkpt lat="44.7665792198648" lon="7.23800174576399"><ele>1069.0</ele><time>2026-04-07T10:23:04Z</time></trkpt><trkpt lat="44.76649895064638" lon="7.238089938369667"><ele>1069.0</ele><time>2026-04-07T10:23:07Z</time></trkpt><trkpt lat="44.76644640088974" lon="7.238151657821273"><ele>1069.0</ele><time>2026-04-07T10:23:08Z</time></trkpt><trkpt lat="44.76636744733978" lon="7.238255064077257"><ele>1069.0</ele><time>2026-04-07T10:23:10Z</time></trkpt><trkpt lat="44.766267836495075" lon="7.238332377952402"><ele>1069.0</ele><time>2026-04-07T10:23:12Z</time></trkpt><trkpt lat="44.76617976724098" lon="7.23842601120924"><ele>1071.5</ele><time>2026-04-07T10:23:14Z</time></trkpt><trkpt lat="44.76610499338413" lon="7.2385125677549755"><ele>1074.0</ele><time>2026-04-07T10:23:16Z</time></trkpt><trkpt lat="44.76603078015004" lon="7.2385509341590835"><ele>1076.5</ele><time>2026-04-07T10:23:19Z</time></trkpt><trkpt lat="44.765955055693546" lon="7.238523108284022"><ele>1079.0</ele><time>2026-04-07T10:23:31Z</time></trkpt><trkpt lat="44.76592119286178" lon="7.238444035349579"><ele>1081.5</ele><time>2026-04-07T10:25:15Z</time></trkpt><trkpt lat="44.76592112554411" lon="7.238534953019852"><ele>1084.0</ele><time>2026-04-07T10:28:47.999Z</time></trkpt><trkpt lat="44.76592867357408" lon="7.238437491339243"><ele>1084.0</ele><time>2026-04-07T10:29:54Z</time></trkpt><trkpt lat="44.76595615367849" lon="7.238348245222775"><ele>1084.0</ele><time>2026-04-07T10:30:04Z</time></trkpt><trkpt lat="44.7659575904512" lon="7.238249179180642"><ele>1084.0</ele><time>2026-04-07T10:30:10Z</time></trkpt><trkpt lat="44.76585342805542" lon="7.238236558584544"><ele>1084.0</ele><time>2026-04-07T10:30:32.999Z</time></trkpt><trkpt lat="44.76590852669196" lon="7.238376108959428"><ele>1084.0</ele><time>2026-04-07T10:30:44.999Z</time></trkpt><trkpt lat="44.76597629988291" lon="7.23830676140179"><ele>1084.0</ele><time>2026-04-07T10:31:37Z</time></trkpt><trkpt lat="44.76589837520686" lon="7.238383882955712"><ele>1084.0</ele><time>2026-04-07T10:31:52Z</time></trkpt><trkpt lat="44.76593305719121" lon="7.238471552748274"><ele>1084.0</ele><time>2026-04-07T10:32:07Z</time></trkpt><trkpt lat="44.765862993027866" lon="7.2385129590892685"><ele>1084.0</ele><time>2026-04-07T10:34:55.999Z</time></trkpt><trkpt lat="44.765951036993876" lon="7.238534201293113"><ele>1084.0</ele><time>2026-04-07T10:36:03Z</time></trkpt><trkpt lat="44.76588976229614" lon="7.238506527830435"><ele>1084.0</ele><time>2026-04-07T10:46:10Z</time></trkpt><trkpt lat="44.76582109460543" lon="7.238534344375978"><ele>1084.0</ele><time>2026-04-07T10:46:20Z</time></trkpt><trkpt lat="44.765760119719864" lon="7.238498742301975"><ele>1084.0</ele><time>2026-04-07T10:46:26Z</time></trkpt><trkpt lat="44.765846921865645" lon="7.2385413067112605"><ele>1084.0</ele><time>2026-04-07T10:47:09Z</time></trkpt><trkpt lat="44.76592055158683" lon="7.238527879005978"><ele>1084.0</ele><time>2026-04-07T10:47:15Z</time></trkpt><trkpt lat="44.76584372204587" lon="7.238517289341421"><ele>1084.0</ele><time>2026-04-07T10:49:03Z</time></trkpt><trkpt lat="44.765918609206295" lon="7.238616206875642"><ele>1084.0</ele><time>2026-04-07T10:53:35Z</time></trkpt><trkpt lat="44.765981230157" lon="7.238591012856753"><ele>1084.0</ele><time>2026-04-07T10:53:39.999Z</time></trkpt><trkpt lat="44.76604152803653" lon="7.2385621591003355"><ele>1084.0</ele><time>2026-04-07T10:53:45.999Z</time></trkpt><trkpt lat="44.76597638194325" lon="7.238558780007621"><ele>1084.0</ele><time>2026-04-07T10:54:44Z</time></trkpt><trkpt lat="44.765875417160856" lon="7.2385307983276315"><ele>1084.0</ele><time>2026-04-07T10:54:55Z</time></trkpt><trkpt lat="44.76580224777309" lon="7.238509128420655"><ele>1084.0</ele><time>2026-04-07T10:54:57Z</time></trkpt><trkpt lat="44.765721448428074" lon="7.238506965187251"><ele>1084.0</ele><time>2026-04-07T10:55:00Z</time></trkpt><trkpt lat="44.7656791156034" lon="7.238432381780815"><ele>1084.0</ele><time>2026-04-07T10:55:02Z</time></trkpt><trkpt lat="44.76564861220683" lon="7.2383497306886575"><ele>1084.0</ele><time>2026-04-07T10:55:04Z</time></trkpt><trkpt lat="44.76564480174054" lon="7.238247102035278"><ele>1084.0</ele><time>2026-04-07T10:55:06Z</time></trkpt><trkpt lat="44.76559460749866" lon="7.238169485048322"><ele>1084.0</ele><time>2026-04-07T10:55:08Z</time></trkpt><trkpt lat="44.765549363335616" lon="7.2380717161374335"><ele>1081.4</ele><time>2026-04-07T10:55:10Z</time></trkpt><trkpt lat="44.76550065414921" lon="7.237944988186648"><ele>1078.8000000000002</ele><time>2026-04-07T10:55:12Z</time></trkpt><trkpt lat="44.76545821291548" lon="7.23787725437356"><ele>1076.1999999999998</ele><time>2026-04-07T10:55:14Z</time></trkpt><trkpt lat="44.765393032296174" lon="7.23778862014319"><ele>1073.6</ele><time>2026-04-07T10:55:16Z</time></trkpt><trkpt lat="44.76534706187902" lon="7.237665891124877"><ele>1071.0</ele><time>2026-04-07T10:55:20Z</time></trkpt><trkpt lat="44.76526739534076" lon="7.237534321596355"><ele>1071.0</ele><time>2026-04-07T10:55:22Z</time></trkpt><trkpt lat="44.765212734254696" lon="7.237451092576254"><ele>1071.0</ele><time>2026-04-07T10:55:24Z</time></trkpt><trkpt lat="44.76518378079475" lon="7.2373478349663545"><ele>1071.0</ele><time>2026-04-07T10:55:26Z</time></trkpt><trkpt lat="44.76513127012364" lon="7.2372761920615725"><ele>1071.0</ele><time>2026-04-07T10:55:29Z</time></trkpt><trkpt lat="44.76507131431268" lon="7.237305358692671"><ele>1071.0</ele><time>2026-04-07T10:57:36Z</time></trkpt><trkpt lat="44.76508157341785" lon="7.237430176820618"><ele>1071.0</ele><time>2026-04-07T10:57:57.999Z</time></trkpt><trkpt lat="44.76504926556758" lon="7.237539791737944"><ele>1079.3999999999999</ele><time>2026-04-07T10:58:00.999Z</time></trkpt><trkpt lat="44.7650483235024" lon="7.237662221268768"><ele>1087.8</ele><time>2026-04-07T10:58:03.999Z</time></trkpt><trkpt lat="44.76503782808081" lon="7.237773172383885"><ele>1096.1999999999998</ele><time>2026-04-07T10:58:05.999Z</time></trkpt><trkpt lat="44.76504887252135" lon="7.237915810344813"><ele>1104.6</ele><time>2026-04-07T10:58:08.999Z</time></trkpt><trkpt lat="44.765025436330674" lon="7.238031698721412"><ele>1113.0</ele><time>2026-04-07T10:58:10.999Z</time></trkpt><trkpt lat="44.76502528962596" lon="7.238176987948603"><ele>1113.857142857143</ele><time>2026-04-07T10:58:13.999Z</time></trkpt><trkpt lat="44.76502179466783" lon="7.238267421958363"><ele>1114.7142857142858</ele><time>2026-04-07T10:58:15.999Z</time></trkpt><trkpt lat="44.76503111378382" lon="7.238369727637438"><ele>1115.5714285714284</ele><time>2026-04-07T10:58:17.999Z</time></trkpt><trkpt lat="44.765034415978036" lon="7.238494059546199"><ele>1116.4285714285716</ele><time>2026-04-07T10:58:19.999Z</time></trkpt><trkpt lat="44.7650704959737" lon="7.238583967414157"><ele>1117.2857142857142</ele><time>2026-04-07T10:58:22.999Z</time></trkpt><trkpt lat="44.76505528555607" lon="7.2386766913489256"><ele>1118.142857142857</ele><time>2026-04-07T11:02:51.999Z</time></trkpt><trkpt lat="44.76502524486797" lon="7.238768273249081"><ele>1119.0</ele><time>2026-04-07T11:02:56Z</time></trkpt><trkpt lat="44.764993262111794" lon="7.238872241894334"><ele>1119.0</ele><time>2026-04-07T11:02:59Z</time></trkpt><trkpt lat="44.7649804229779" lon="7.238984819741606"><ele>1119.0</ele><time>2026-04-07T11:03:02Z</time></trkpt><trkpt lat="44.764957659061245" lon="7.239069382613545"><ele>1119.0</ele><time>2026-04-07T11:03:08Z</time></trkpt><trkpt lat="44.76493835800835" lon="7.239164751003502"><ele>1119.0</ele><time>2026-04-07T11:05:53Z</time></trkpt><trkpt lat="44.764967792528736" lon="7.2390751898183305"><ele>1119.0</ele><time>2026-04-07T11:06:30.999Z</time></trkpt><trkpt lat="44.76501842199996" lon="7.239011960659416"><ele>1119.0</ele><time>2026-04-07T11:06:33.999Z</time></trkpt><trkpt lat="44.76498790838956" lon="7.2389206477468155"><ele>1119.0</ele><time>2026-04-07T11:06:36.999Z</time></trkpt><trkpt lat="44.765016228181814" lon="7.238817269183695"><ele>1119.0</ele><time>2026-04-07T11:06:39.999Z</time></trkpt><trkpt lat="44.76504659016194" lon="7.238713171436181"><ele>1119.0</ele><time>2026-04-07T11:06:42.999Z</time></trkpt><trkpt lat="44.76509100228153" lon="7.238643347779453"><ele>1119.0</ele><time>2026-04-07T11:06:45.999Z</time></trkpt><trkpt lat="44.76507555694731" lon="7.238555793175661"><ele>1119.0</ele><time>2026-04-07T11:06:48.999Z</time></trkpt><trkpt lat="44.765050745482164" lon="7.238470516719191"><ele>1119.0</ele><time>2026-04-07T11:06:52.999Z</time></trkpt><trkpt lat="44.76502104126811" lon="7.238367026079158"><ele>1119.0</ele><time>2026-04-07T11:06:59.999Z</time></trkpt><trkpt lat="44.7649961239155" lon="7.238251991867457"><ele>1119.0</ele><time>2026-04-07T11:07:05.999Z</time></trkpt><trkpt lat="44.76500751122956" lon="7.238158193907848"><ele>1118.142857142857</ele><time>2026-04-07T11:07:10Z</time></trkpt><trkpt lat="44.76501569041721" lon="7.238045513860021"><ele>1117.2857142857142</ele><time>2026-04-07T11:07:16Z</time></trkpt><trkpt lat="44.76505235531753" lon="7.237952587100683"><ele>1116.4285714285716</ele><time>2026-04-07T11:07:20Z</time></trkpt><trkpt lat="44.76504531315472" lon="7.237853279085071"><ele>1115.5714285714284</ele><time>2026-04-07T11:07:23Z</time></trkpt><trkpt lat="44.76505413455271" lon="7.237751135205531"><ele>1114.7142857142858</ele><time>2026-04-07T11:07:26Z</time></trkpt><trkpt lat="44.76505057924554" lon="7.23763717978781"><ele>1113.857142857143</ele><time>2026-04-07T11:07:32Z</time></trkpt><trkpt lat="44.765090946304866" lon="7.237559980713355"><ele>1113.0</ele><time>2026-04-07T11:07:36Z</time></trkpt><trkpt lat="44.76509350886269" lon="7.237462200491183"><ele>1113.0</ele><time>2026-04-07T11:07:39Z</time></trkpt><trkpt lat="44.765033187946734" lon="7.237394561724863"><ele>1113.0</ele><time>2026-04-07T11:07:44Z</time></trkpt><trkpt lat="44.76509431463403" lon="7.237328543123111"><ele>1113.0</ele><time>2026-04-07T11:07:47Z</time></trkpt><trkpt lat="44.76515690282977" lon="7.237296160168909"><ele>1113.0</ele><time>2026-04-07T11:07:51Z</time></trkpt><trkpt lat="44.765199965914505" lon="7.237362444699589"><ele>1113.0</ele><time>2026-04-07T11:08:22.999Z</time></trkpt><trkpt lat="44.76518655451911" lon="7.237450125455768"><ele>1113.0</ele><time>2026-04-07T11:08:58.999Z</time></trkpt><trkpt lat="44.76522106202422" lon="7.23756537666454"><ele>1113.0</ele><time>2026-04-07T11:09:02.999Z</time></trkpt><trkpt lat="44.765281444474226" lon="7.23760083432727"><ele>1108.1666666666667</ele><time>2026-04-07T11:09:08.999Z</time></trkpt><trkpt lat="44.76535076920548" lon="7.237706766415656"><ele>1103.3333333333333</ele><time>2026-04-07T11:09:16Z</time></trkpt><trkpt lat="44.76538497188472" lon="7.237811508574749"><ele>1098.5</ele><time>2026-04-07T11:09:20Z</time></trkpt><trkpt lat="44.7654311224033" lon="7.237895931394008"><ele>1093.6666666666665</ele><time>2026-04-07T11:09:23Z</time></trkpt><trkpt lat="44.765481869643395" lon="7.2379770203359275"><ele>1088.8333333333333</ele><time>2026-04-07T11:09:26Z</time></trkpt><trkpt lat="44.7655310005796" lon="7.238062419197007"><ele>1084.0</ele><time>2026-04-07T11:09:29Z</time></trkpt><trkpt lat="44.765536096805384" lon="7.238180056538971"><ele>1084.0</ele><time>2026-04-07T11:09:33Z</time></trkpt><trkpt lat="44.76560662403951" lon="7.238240810185248"><ele>1084.0</ele><time>2026-04-07T11:09:36Z</time></trkpt><trkpt lat="44.76563013987343" lon="7.2383327099390335"><ele>1084.0</ele><time>2026-04-07T11:09:39Z</time></trkpt><trkpt lat="44.765658719706586" lon="7.238414178478283"><ele>1084.0</ele><time>2026-04-07T11:09:42Z</time></trkpt><trkpt lat="44.765701634583884" lon="7.238495048110422"><ele>1084.0</ele><time>2026-04-07T11:09:46Z</time></trkpt><trkpt lat="44.7657652614196" lon="7.238522630438521"><ele>1084.0</ele><time>2026-04-07T11:10:00Z</time></trkpt><trkpt lat="44.76584933426547" lon="7.238528424439841"><ele>1084.0</ele><time>2026-04-07T11:10:08Z</time></trkpt><trkpt lat="44.76593253263459" lon="7.238558013911836"><ele>1084.0</ele><time>2026-04-07T11:10:14Z</time></trkpt><trkpt lat="44.76600787977746" lon="7.238570129080662"><ele>1084.0</ele><time>2026-04-07T11:10:19Z</time></trkpt><trkpt lat="44.76607613777192" lon="7.238558316850341"><ele>1084.0</ele><time>2026-04-07T11:10:22Z</time></trkpt><trkpt lat="44.7661429526863" lon="7.238488189856501"><ele>1084.0</ele><time>2026-04-07T11:10:25Z</time></trkpt><trkpt lat="44.76618521690784" lon="7.238416802342637"><ele>1084.0</ele><time>2026-04-07T11:10:26.999Z</time></trkpt><trkpt lat="44.76624048166582" lon="7.238332395882508"><ele>1084.0</ele><time>2026-04-07T11:10:29.999Z</time></trkpt><trkpt lat="44.766308277539856" lon="7.238275482998122"><ele>1084.5</ele><time>2026-04-07T11:10:31.999Z</time></trkpt><trkpt lat="44.76636796685051" lon="7.238205497247519"><ele>1085.0</ele><time>2026-04-07T11:10:33.999Z</time></trkpt><trkpt lat="44.7664320766714" lon="7.2381472412209265"><ele>1085.5</ele><time>2026-04-07T11:10:35.999Z</time></trkpt><trkpt lat="44.766487045627734" lon="7.238058322057209"><ele>1086.0</ele><time>2026-04-07T11:10:37.999Z</time></trkpt><trkpt lat="44.766548103883224" lon="7.237966254753831"><ele>1086.5</ele><time>2026-04-07T11:10:39.999Z</time></trkpt><trkpt lat="44.76655307949555" lon="7.237847689889223"><ele>1087.0</ele><time>2026-04-07T11:10:42.999Z</time></trkpt><trkpt lat="44.76654117331912" lon="7.237738407338039"><ele>1083.4</ele><time>2026-04-07T11:10:44.999Z</time></trkpt><trkpt lat="44.76652986745823" lon="7.237610570429459"><ele>1079.8000000000002</ele><time>2026-04-07T11:10:46.999Z</time></trkpt><trkpt lat="44.766532453926416" lon="7.237503295901864"><ele>1076.2</ele><time>2026-04-07T11:10:48.999Z</time></trkpt><trkpt lat="44.766577611743266" lon="7.237388512480062"><ele>1072.6000000000001</ele><time>2026-04-07T11:10:50.999Z</time></trkpt><trkpt lat="44.76665112584996" lon="7.237303692623083"><ele>1069.0</ele><time>2026-04-07T11:10:52.999Z</time></trkpt><trkpt lat="44.766748609147996" lon="7.2372394664220945"><ele>1067.6000000000001</ele><time>2026-04-07T11:10:54.999Z</time></trkpt><trkpt lat="44.766809380694625" lon="7.237190913844813"><ele>1066.2</ele><time>2026-04-07T11:10:55.999Z</time></trkpt><trkpt lat="44.766880024154126" lon="7.2371319211835825"><ele>1064.8000000000002</ele><time>2026-04-07T11:10:56.999Z</time></trkpt><trkpt lat="44.76699062014801" lon="7.237052326950169"><ele>1063.4</ele><time>2026-04-07T11:10:58.999Z</time></trkpt><trkpt lat="44.767090053237325" lon="7.236974872468156"><ele>1062.0</ele><time>2026-04-07T11:11:00.999Z</time></trkpt><trkpt lat="44.76717283200792" lon="7.236899839075752"><ele>1062.0</ele><time>2026-04-07T11:11:02.999Z</time></trkpt><trkpt lat="44.767259113852134" lon="7.23684390350351"><ele>1062.0</ele><time>2026-04-07T11:11:04.999Z</time></trkpt><trkpt lat="44.76734052346418" lon="7.236786767822396"><ele>1062.0</ele><time>2026-04-07T11:11:06.999Z</time></trkpt><trkpt lat="44.767406910181045" lon="7.236761621091386"><ele>1062.0</ele><time>2026-04-07T11:11:07.999Z</time></trkpt><trkpt lat="44.767467251522014" lon="7.2367321266851246"><ele>1062.0</ele><time>2026-04-07T11:11:08.999Z</time></trkpt><trkpt lat="44.767580500067915" lon="7.2366963768924775"><ele>1062.0</ele><time>2026-04-07T11:11:10.999Z</time></trkpt><trkpt lat="44.767704164994534" lon="7.23668292339405"><ele>1061.2</ele><time>2026-04-07T11:11:12.999Z</time></trkpt><trkpt lat="44.767796142741034" lon="7.23670141978974"><ele>1060.4</ele><time>2026-04-07T11:11:14.999Z</time></trkpt><trkpt lat="44.76789557798007" lon="7.2367720410898055"><ele>1059.6</ele><time>2026-04-07T11:11:16.999Z</time></trkpt><trkpt lat="44.76798178865562" lon="7.236888682561287"><ele>1058.8</ele><time>2026-04-07T11:11:18.999Z</time></trkpt><trkpt lat="44.76802324915351" lon="7.236958145518435"><ele>1058.0</ele><time>2026-04-07T11:11:20Z</time></trkpt><trkpt lat="44.768088702005294" lon="7.23706782527637"><ele>1058.0</ele><time>2026-04-07T11:11:22Z</time></trkpt><trkpt lat="44.768147536914505" lon="7.23715031269805"><ele>1058.0</ele><time>2026-04-07T11:11:24Z</time></trkpt><trkpt lat="44.76819164142929" lon="7.237238606227118"><ele>1058.0</ele><time>2026-04-07T11:11:28Z</time></trkpt><trkpt lat="44.76826134420054" lon="7.237313807829008"><ele>1058.0</ele><time>2026-04-07T11:11:30Z</time></trkpt><trkpt lat="44.76831874035876" lon="7.23740597225034"><ele>1058.0</ele><time>2026-04-07T11:11:32Z</time></trkpt><trkpt lat="44.7683711398318" lon="7.237482539441872"><ele>1058.0</ele><time>2026-04-07T11:11:34Z</time></trkpt><trkpt lat="44.76843304888909" lon="7.237522227448883"><ele>1057.0</ele><time>2026-04-07T11:11:36Z</time></trkpt><trkpt lat="44.76850066429402" lon="7.237491091532512"><ele>1056.0</ele><time>2026-04-07T11:11:40Z</time></trkpt><trkpt lat="44.768580150700465" lon="7.237470528951158"><ele>1055.0</ele><time>2026-04-07T11:11:44Z</time></trkpt><trkpt lat="44.768633979456055" lon="7.237396530702084"><ele>1054.0</ele><time>2026-04-07T11:11:46Z</time></trkpt><trkpt lat="44.768708366663134" lon="7.237326211462858"><ele>1053.0</ele><time>2026-04-07T11:11:49Z</time></trkpt><trkpt lat="44.76877853041782" lon="7.237281777987053"><ele>1052.0</ele><time>2026-04-07T11:11:51Z</time></trkpt><trkpt lat="44.76886740066213" lon="7.2372547764016275"><ele>1052.0</ele><time>2026-04-07T11:11:53Z</time></trkpt><trkpt lat="44.768976213022945" lon="7.237255823060174"><ele>1052.0</ele><time>2026-04-07T11:11:55Z</time></trkpt><trkpt lat="44.769081550440006" lon="7.237326810159386"><ele>1052.0</ele><time>2026-04-07T11:11:57Z</time></trkpt><trkpt lat="44.76918002694733" lon="7.2374126943623915"><ele>1052.0</ele><time>2026-04-07T11:11:59Z</time></trkpt><trkpt lat="44.76928463252329" lon="7.237475230219239"><ele>1056.1666666666667</ele><time>2026-04-07T11:12:01Z</time></trkpt><trkpt lat="44.769366159720605" lon="7.237515225915965"><ele>1060.3333333333335</ele><time>2026-04-07T11:12:03Z</time></trkpt><trkpt lat="44.76943372320221" lon="7.237578922782643"><ele>1064.5</ele><time>2026-04-07T11:12:05Z</time></trkpt><trkpt lat="44.76951357391081" lon="7.237655120795125"><ele>1068.6666666666667</ele><time>2026-04-07T11:12:08Z</time></trkpt><trkpt lat="44.76960359883558" lon="7.237708436058623"><ele>1072.8333333333333</ele><time>2026-04-07T11:12:12Z</time></trkpt><trkpt lat="44.76968620160761" lon="7.2377159710486465"><ele>1077.0</ele><time>2026-04-07T11:12:14Z</time></trkpt><trkpt lat="44.76976771818404" lon="7.237742105719786"><ele>1077.0</ele><time>2026-04-07T11:12:16Z</time></trkpt><trkpt lat="44.76984204003526" lon="7.237763512932802"><ele>1077.0</ele><time>2026-04-07T11:12:18Z</time></trkpt><trkpt lat="44.76993225226972" lon="7.237795699554094"><ele>1077.0</ele><time>2026-04-07T11:12:20Z</time></trkpt><trkpt lat="44.77000372408619" lon="7.237744758560317"><ele>1077.0</ele><time>2026-04-07T11:12:22Z</time></trkpt><trkpt lat="44.77005926730773" lon="7.237643003550686"><ele>1077.0</ele><time>2026-04-07T11:12:24Z</time></trkpt><trkpt lat="44.77006397140963" lon="7.237553925615138"><ele>1077.0</ele><time>2026-04-07T11:12:26Z</time></trkpt><trkpt lat="44.770108712729915" lon="7.237458491849306"><ele>1077.0</ele><time>2026-04-07T11:12:29Z</time></trkpt><trkpt lat="44.77019107060522" lon="7.237364842420596"><ele>1077.0</ele><time>2026-04-07T11:12:31Z</time></trkpt><trkpt lat="44.77032834078932" lon="7.237305252146303"><ele>1077.0</ele><time>2026-04-07T11:12:33.999Z</time></trkpt><trkpt lat="44.770384558252296" lon="7.23734773407181"><ele>1077.0</ele><time>2026-04-07T11:12:34.999Z</time></trkpt><trkpt lat="44.77048080193644" lon="7.237416172740626"><ele>1077.0</ele><time>2026-04-07T11:12:36.999Z</time></trkpt><trkpt lat="44.77058974081696" lon="7.237480421544433"><ele>1077.6666666666667</ele><time>2026-04-07T11:12:38.999Z</time></trkpt><trkpt lat="44.770689203011116" lon="7.237519454666057"><ele>1078.3333333333333</ele><time>2026-04-07T11:12:40.999Z</time></trkpt><trkpt lat="44.77075466390836" lon="7.237560907491119"><ele>1079.0</ele><time>2026-04-07T11:12:42.999Z</time></trkpt><trkpt lat="44.77085761653512" lon="7.237583996189725"><ele>1079.6666666666665</ele><time>2026-04-07T11:12:44.999Z</time></trkpt><trkpt lat="44.7709437612166" lon="7.2375857676965225"><ele>1080.3333333333333</ele><time>2026-04-07T11:12:46.999Z</time></trkpt><trkpt lat="44.771016503786434" lon="7.237599852770126"><ele>1081.0</ele><time>2026-04-07T11:12:48.999Z</time></trkpt><trkpt lat="44.77110888212891" lon="7.237596367429697"><ele>1079.3333333333333</ele><time>2026-04-07T11:12:50.999Z</time></trkpt><trkpt lat="44.7711562169974" lon="7.237512767370724"><ele>1077.6666666666665</ele><time>2026-04-07T11:12:52.999Z</time></trkpt><trkpt lat="44.77121690261326" lon="7.237444047566924"><ele>1076.0</ele><time>2026-04-07T11:12:54.999Z</time></trkpt><trkpt lat="44.771272781738624" lon="7.237369051541698"><ele>1074.3333333333333</ele><time>2026-04-07T11:12:56.999Z</time></trkpt><trkpt lat="44.77129057317974" lon="7.2372635594078565"><ele>1072.6666666666667</ele><time>2026-04-07T11:12:58.999Z</time></trkpt><trkpt lat="44.77132710922358" lon="7.237137733439187"><ele>1071.0</ele><time>2026-04-07T11:13:00.999Z</time></trkpt><trkpt lat="44.77138151398796" lon="7.236994868776167"><ele>1071.0</ele><time>2026-04-07T11:13:02.999Z</time></trkpt><trkpt lat="44.771434902402326" lon="7.23687488399817"><ele>1071.0</ele><time>2026-04-07T11:13:04.999Z</time></trkpt><trkpt lat="44.77147011582487" lon="7.236773489598491"><ele>1071.0</ele><time>2026-04-07T11:13:06.999Z</time></trkpt><trkpt lat="44.7715179034822" lon="7.236658907598156"><ele>1071.0</ele><time>2026-04-07T11:13:08.999Z</time></trkpt><trkpt lat="44.77156290151192" lon="7.236548253477109"><ele>1071.0</ele><time>2026-04-07T11:13:10.999Z</time></trkpt><trkpt lat="44.771620967693394" lon="7.236450814952951"><ele>1066.8</ele><time>2026-04-07T11:13:12.999Z</time></trkpt><trkpt lat="44.771716614041274" lon="7.236409403877109"><ele>1062.6</ele><time>2026-04-07T11:13:14.999Z</time></trkpt><trkpt lat="44.771809993923966" lon="7.2363512558413685"><ele>1058.4</ele><time>2026-04-07T11:13:16.999Z</time></trkpt><trkpt lat="44.771911973824366" lon="7.236312825108521"><ele>1054.2</ele><time>2026-04-07T11:13:18.999Z</time></trkpt><trkpt lat="44.7720115270398" lon="7.236272129687382"><ele>1050.0</ele><time>2026-04-07T11:13:20.999Z</time></trkpt><trkpt lat="44.77210450946925" lon="7.236217996240714"><ele>1050.0</ele><time>2026-04-07T11:13:22.999Z</time></trkpt><trkpt lat="44.772185089890726" lon="7.23615431550086"><ele>1050.0</ele><time>2026-04-07T11:13:24.999Z</time></trkpt><trkpt lat="44.77227310121028" lon="7.236178135076441"><ele>1050.0</ele><time>2026-04-07T11:13:27Z</time></trkpt><trkpt lat="44.77235263409012" lon="7.236209459920926"><ele>1050.0</ele><time>2026-04-07T11:13:29Z</time></trkpt><trkpt lat="44.77242051602825" lon="7.236196070449769"><ele>1050.0</ele><time>2026-04-07T11:13:31Z</time></trkpt><trkpt lat="44.772511943902465" lon="7.236169798714522"><ele>1050.0</ele><time>2026-04-07T11:13:33Z</time></trkpt><trkpt lat="44.772601228609076" lon="7.236160222110269"><ele>1050.0</ele><time>2026-04-07T11:13:35Z</time></trkpt><trkpt lat="44.77268179978045" lon="7.236149279951365"><ele>1050.0</ele><time>2026-04-07T11:13:38Z</time></trkpt><trkpt lat="44.77272181734065" lon="7.236070022623946"><ele>1050.0</ele><time>2026-04-07T11:13:40Z</time></trkpt><trkpt lat="44.77277682539198" lon="7.2359816155429275"><ele>1050.0</ele><time>2026-04-07T11:13:42Z</time></trkpt><trkpt lat="44.772865747351624" lon="7.235935903471861"><ele>1050.0</ele><time>2026-04-07T11:13:44Z</time></trkpt><trkpt lat="44.772959870907044" lon="7.235903984718263"><ele>1050.0</ele><time>2026-04-07T11:13:46Z</time></trkpt><trkpt lat="44.77306342226866" lon="7.23585500778847"><ele>1050.8333333333333</ele><time>2026-04-07T11:13:48Z</time></trkpt><trkpt lat="44.773143695471624" lon="7.235893005751448"><ele>1051.6666666666667</ele><time>2026-04-07T11:13:50Z</time></trkpt><trkpt lat="44.77320221438219" lon="7.235964610948585"><ele>1052.5</ele><time>2026-04-07T11:13:54Z</time></trkpt><trkpt lat="44.773264085932226" lon="7.236017721873502"><ele>1053.3333333333335</ele><time>2026-04-07T11:13:57Z</time></trkpt><trkpt lat="44.77331931013069" lon="7.2360954755457865"><ele>1054.1666666666667</ele><time>2026-04-07T11:14:00Z</time></trkpt><trkpt lat="44.77340804794238" lon="7.236090014610794"><ele>1055.0</ele><time>2026-04-07T11:14:02Z</time></trkpt><trkpt lat="44.77346152513372" lon="7.236160914502367"><ele>1051.8333333333335</ele><time>2026-04-07T11:14:05Z</time></trkpt><trkpt lat="44.77352750675429" lon="7.2361737624517115"><ele>1048.6666666666667</ele><time>2026-04-07T11:14:07Z</time></trkpt><trkpt lat="44.77359001997811" lon="7.236195430735708"><ele>1045.5</ele><time>2026-04-07T11:14:09Z</time></trkpt><trkpt lat="44.773696788428595" lon="7.236204147920614"><ele>1042.3333333333333</ele><time>2026-04-07T11:14:11Z</time></trkpt><trkpt lat="44.77376842107181" lon="7.236219572340705"><ele>1039.1666666666665</ele><time>2026-04-07T11:14:12Z</time></trkpt><trkpt lat="44.77383823155335" lon="7.2362406800380255"><ele>1036.0</ele><time>2026-04-07T11:14:13Z</time></trkpt><trkpt lat="44.77392531412629" lon="7.236246707177416"><ele>1036.0</ele><time>2026-04-07T11:14:14Z</time></trkpt><trkpt lat="44.774027866206154" lon="7.23625613635781"><ele>1036.0</ele><time>2026-04-07T11:14:15Z</time></trkpt><trkpt lat="44.77409309416472" lon="7.236260556124879"><ele>1036.0</ele><time>2026-04-07T11:14:16Z</time></trkpt><trkpt lat="44.774171973614315" lon="7.236256356769411"><ele>1036.0</ele><time>2026-04-07T11:14:17Z</time></trkpt><trkpt lat="44.7742889114072" lon="7.236186142019489"><ele>1036.0</ele><time>2026-04-07T11:14:19Z</time></trkpt><trkpt lat="44.774363229727996" lon="7.236182574671048"><ele>1036.0</ele><time>2026-04-07T11:14:20Z</time></trkpt><trkpt lat="44.77443191241622" lon="7.236179120139565"><ele>1037.6666666666665</ele><time>2026-04-07T11:14:21Z</time></trkpt><trkpt lat="44.774501076222364" lon="7.23616444794773"><ele>1039.3333333333333</ele><time>2026-04-07T11:14:22Z</time></trkpt><trkpt lat="44.77456542399147" lon="7.236131244061696"><ele>1041.0</ele><time>2026-04-07T11:14:24Z</time></trkpt><trkpt lat="44.774643634913716" lon="7.236044117933663"><ele>1042.6666666666667</ele><time>2026-04-07T11:14:26Z</time></trkpt><trkpt lat="44.7747008204798" lon="7.235991779836373"><ele>1044.3333333333335</ele><time>2026-04-07T11:14:27Z</time></trkpt><trkpt lat="44.77481117413021" lon="7.235912642964086"><ele>1046.0</ele><time>2026-04-07T11:14:29Z</time></trkpt><trkpt lat="44.7748793479812" lon="7.235934162446148"><ele>1046.0</ele><time>2026-04-07T11:14:31Z</time></trkpt><trkpt lat="44.7749731019319" lon="7.235862196964936"><ele>1046.0</ele><time>2026-04-07T11:14:33Z</time></trkpt><trkpt lat="44.77503011918615" lon="7.235807266853397"><ele>1046.0</ele><time>2026-04-07T11:14:35Z</time></trkpt><trkpt lat="44.77510582199239" lon="7.235735414662666"><ele>1046.0</ele><time>2026-04-07T11:14:38Z</time></trkpt><trkpt lat="44.775154340951374" lon="7.235669974820603"><ele>1046.0</ele><time>2026-04-07T11:14:39.999Z</time></trkpt><trkpt lat="44.77521774534877" lon="7.235637469399397"><ele>1046.0</ele><time>2026-04-07T11:15:58Z</time></trkpt><trkpt lat="44.77525263983658" lon="7.2355380082002885"><ele>1045.4285714285713</ele><time>2026-04-07T11:16:36Z</time></trkpt><trkpt lat="44.77531150259107" lon="7.235455109088391"><ele>1044.857142857143</ele><time>2026-04-07T11:16:40Z</time></trkpt><trkpt lat="44.7753485993325" lon="7.235370683585584"><ele>1044.2857142857142</ele><time>2026-04-07T11:16:42Z</time></trkpt><trkpt lat="44.77535763792428" lon="7.235280176680584"><ele>1043.7142857142858</ele><time>2026-04-07T11:16:43.999Z</time></trkpt><trkpt lat="44.77538910490697" lon="7.235194436546243"><ele>1043.142857142857</ele><time>2026-04-07T11:16:46.999Z</time></trkpt><trkpt lat="44.775441192614785" lon="7.235136965161816"><ele>1042.5714285714284</ele><time>2026-04-07T11:16:48.999Z</time></trkpt><trkpt lat="44.77548760036789" lon="7.235051497263397"><ele>1042.0</ele><time>2026-04-07T11:16:50.999Z</time></trkpt><trkpt lat="44.77552283164972" lon="7.234974796555295"><ele>1042.0</ele><time>2026-04-07T11:16:52.999Z</time></trkpt><trkpt lat="44.775573858259946" lon="7.234916409412497"><ele>1042.0</ele><time>2026-04-07T11:16:55.999Z</time></trkpt><trkpt lat="44.77561203224268" lon="7.234802382933244"><ele>1042.0</ele><time>2026-04-07T11:17:50Z</time></trkpt><trkpt lat="44.77567458690598" lon="7.234837305351971"><ele>1042.0</ele><time>2026-04-07T11:18:05Z</time></trkpt><trkpt lat="44.775733451985424" lon="7.234802890629237"><ele>1042.0</ele><time>2026-04-07T11:18:09Z</time></trkpt><trkpt lat="44.7758139878041" lon="7.234769943655182"><ele>1042.0</ele><time>2026-04-07T11:18:11Z</time></trkpt><trkpt lat="44.77589823162363" lon="7.234728182713019"><ele>1036.0</ele><time>2026-04-07T11:18:13Z</time></trkpt><trkpt lat="44.775992903540285" lon="7.234717227969263"><ele>1030.0</ele><time>2026-04-07T11:18:15Z</time></trkpt><trkpt lat="44.77607157951788" lon="7.234691219296208"><ele>1024.0</ele><time>2026-04-07T11:18:17Z</time></trkpt><trkpt lat="44.776164109541206" lon="7.234704266270483"><ele>1018.0</ele><time>2026-04-07T11:18:19Z</time></trkpt><trkpt lat="44.77629004669905" lon="7.234700994430595"><ele>1012.0</ele><time>2026-04-07T11:18:21Z</time></trkpt><trkpt lat="44.77640564459355" lon="7.234693498326854"><ele>1011.9999999999999</ele><time>2026-04-07T11:18:23Z</time></trkpt><trkpt lat="44.77650209047786" lon="7.234686361711693"><ele>1012.0</ele><time>2026-04-07T11:18:25Z</time></trkpt><trkpt lat="44.7765824999177" lon="7.234708026834108"><ele>1012.0</ele><time>2026-04-07T11:18:27Z</time></trkpt><trkpt lat="44.77667761511873" lon="7.234743865745725"><ele>1012.0</ele><time>2026-04-07T11:18:29Z</time></trkpt><trkpt lat="44.776754238915856" lon="7.234740960821917"><ele>1011.9999999999999</ele><time>2026-04-07T11:18:31Z</time></trkpt><trkpt lat="44.776816391608975" lon="7.234710002905462"><ele>1012.0</ele><time>2026-04-07T11:18:33Z</time></trkpt><trkpt lat="44.776948466571596" lon="7.234732355044867"><ele>1010.8</ele><time>2026-04-07T11:18:35Z</time></trkpt><trkpt lat="44.777073893419846" lon="7.23474950734937"><ele>1009.6</ele><time>2026-04-07T11:18:37Z</time></trkpt><trkpt lat="44.77719450384681" lon="7.234793272567667"><ele>1008.3999999999999</ele><time>2026-04-07T11:18:39Z</time></trkpt><trkpt lat="44.77729264651202" lon="7.234810733016171"><ele>1007.1999999999999</ele><time>2026-04-07T11:18:41Z</time></trkpt><trkpt lat="44.77736424330963" lon="7.234824740963799"><ele>1006.0</ele><time>2026-04-07T11:18:43Z</time></trkpt><trkpt lat="44.777461755594175" lon="7.234857268354445"><ele>1005.0</ele><time>2026-04-07T11:18:46Z</time></trkpt><trkpt lat="44.77753311891155" lon="7.234874648831982"><ele>1003.9999999999999</ele><time>2026-04-07T11:18:48Z</time></trkpt><trkpt lat="44.77762625826102" lon="7.234852688286948"><ele>1002.9999999999999</ele><time>2026-04-07T11:18:50Z</time></trkpt><trkpt lat="44.77772249676048" lon="7.234821476062025"><ele>1002.0</ele><time>2026-04-07T11:18:51.999Z</time></trkpt><trkpt lat="44.77782504211469" lon="7.234845315024057"><ele>1001.0</ele><time>2026-04-07T11:18:53.999Z</time></trkpt><trkpt lat="44.777931567117555" lon="7.23478747286418"><ele>1001.0000000000001</ele><time>2026-04-07T11:18:55.999Z</time></trkpt><trkpt lat="44.7780220259642" lon="7.234763895844931"><ele>1001.0</ele><time>2026-04-07T11:18:57.999Z</time></trkpt><trkpt lat="44.77811152491233" lon="7.234720132157245"><ele>1001.0</ele><time>2026-04-07T11:18:59.999Z</time></trkpt><trkpt lat="44.77821999851234" lon="7.234705959879079"><ele>1001.0</ele><time>2026-04-07T11:19:01.999Z</time></trkpt><trkpt lat="44.778288562141434" lon="7.234709643132105"><ele>1001.0000000000001</ele><time>2026-04-07T11:19:02.999Z</time></trkpt><trkpt lat="44.77836466708418" lon="7.234726277121255"><ele>1001.0</ele><time>2026-04-07T11:19:03.999Z</time></trkpt><trkpt lat="44.77844644754506" lon="7.234731560852468"><ele>999.8333333333334</ele><time>2026-04-07T11:19:04.999Z</time></trkpt><trkpt lat="44.778529452410424" lon="7.234731692612647"><ele>998.6666666666667</ele><time>2026-04-07T11:19:05.999Z</time></trkpt><trkpt lat="44.77860315956597" lon="7.234737600964651"><ele>997.5</ele><time>2026-04-07T11:19:06.999Z</time></trkpt><trkpt lat="44.778709856892725" lon="7.234740595448663"><ele>996.3333333333333</ele><time>2026-04-07T11:19:08.999Z</time></trkpt><trkpt lat="44.77877493546917" lon="7.234744152890979"><ele>995.1666666666666</ele><time>2026-04-07T11:19:09.999Z</time></trkpt><trkpt lat="44.77887856521612" lon="7.234752027415363"><ele>994.0</ele><time>2026-04-07T11:19:11.999Z</time></trkpt><trkpt lat="44.778962121343994" lon="7.2347783202557645"><ele>993.1666666666666</ele><time>2026-04-07T11:19:13.999Z</time></trkpt><trkpt lat="44.77903295272791" lon="7.2348303928242865"><ele>992.3333333333333</ele><time>2026-04-07T11:19:14.999Z</time></trkpt><trkpt lat="44.779095888221754" lon="7.234883873087251"><ele>991.5</ele><time>2026-04-07T11:19:15.999Z</time></trkpt><trkpt lat="44.77915577326984" lon="7.234949170101442"><ele>990.6666666666667</ele><time>2026-04-07T11:19:16.999Z</time></trkpt><trkpt lat="44.77920218091235" lon="7.235025728529435"><ele>989.8333333333334</ele><time>2026-04-07T11:19:17.999Z</time></trkpt><trkpt lat="44.77926767317528" lon="7.235094507420161"><ele>989.0</ele><time>2026-04-07T11:19:18.999Z</time></trkpt><trkpt lat="44.77935117033886" lon="7.2352261348362585"><ele>989.0</ele><time>2026-04-07T11:19:20.999Z</time></trkpt><trkpt lat="44.77940542916106" lon="7.235348316566193"><ele>989.0000000000001</ele><time>2026-04-07T11:19:22.999Z</time></trkpt><trkpt lat="44.77944996949307" lon="7.235461280448571"><ele>989.0000000000001</ele><time>2026-04-07T11:19:24.999Z</time></trkpt><trkpt lat="44.77951556131724" lon="7.235577322203196"><ele>989.0</ele><time>2026-04-07T11:19:26.999Z</time></trkpt><trkpt lat="44.7796398145874" lon="7.2356148883274045"><ele>989.0</ele><time>2026-04-07T11:19:28.999Z</time></trkpt><trkpt lat="44.77973868744189" lon="7.235627565883551"><ele>990.2</ele><time>2026-04-07T11:19:30.999Z</time></trkpt><trkpt lat="44.77984859727999" lon="7.235680716628071"><ele>991.4000000000001</ele><time>2026-04-07T11:19:32.999Z</time></trkpt><trkpt lat="44.779964311185076" lon="7.2357564423125975"><ele>992.6</ele><time>2026-04-07T11:19:34.999Z</time></trkpt><trkpt lat="44.780055108839726" lon="7.235838018804999"><ele>993.8</ele><time>2026-04-07T11:19:36.999Z</time></trkpt><trkpt lat="44.78012096973971" lon="7.235867439024502"><ele>995.0</ele><time>2026-04-07T11:19:37.999Z</time></trkpt><trkpt lat="44.78022708390096" lon="7.235903492273912"><ele>995.0</ele><time>2026-04-07T11:19:40.999Z</time></trkpt><trkpt lat="44.780321162290385" lon="7.235932315440752"><ele>995.0</ele><time>2026-04-07T11:19:42.999Z</time></trkpt><trkpt lat="44.78039968380885" lon="7.235961621602816"><ele>995.0</ele><time>2026-04-07T11:19:45Z</time></trkpt><trkpt lat="44.780470753376285" lon="7.236027517868176"><ele>995.0</ele><time>2026-04-07T11:19:47Z</time></trkpt><trkpt lat="44.780510202472655" lon="7.236170273173225"><ele>995.0</ele><time>2026-04-07T11:19:49Z</time></trkpt><trkpt lat="44.780541260868596" lon="7.236301328220495"><ele>995.0</ele><time>2026-04-07T11:19:51Z</time></trkpt><trkpt lat="44.78054273336386" lon="7.236401169700106"><ele>995.0</ele><time>2026-04-07T11:19:52Z</time></trkpt><trkpt lat="44.78057224693616" lon="7.236549347033134"><ele>995.0</ele><time>2026-04-07T11:19:54Z</time></trkpt><trkpt lat="44.78059828292535" lon="7.236701102870193"><ele>995.0</ele><time>2026-04-07T11:19:56Z</time></trkpt><trkpt lat="44.78064501461351" lon="7.236833196262443"><ele>995.0</ele><time>2026-04-07T11:19:58Z</time></trkpt><trkpt lat="44.78067958227854" lon="7.236911144341047"><ele>996.8333333333334</ele><time>2026-04-07T11:19:59Z</time></trkpt><trkpt lat="44.78071140298591" lon="7.237001599725641"><ele>998.6666666666667</ele><time>2026-04-07T11:20:00Z</time></trkpt><trkpt lat="44.78074281487566" lon="7.23710633499585"><ele>1000.5</ele><time>2026-04-07T11:20:01Z</time></trkpt><trkpt lat="44.78077164002993" lon="7.237191910986779"><ele>1002.3333333333333</ele><time>2026-04-07T11:20:02Z</time></trkpt><trkpt lat="44.78080948569544" lon="7.237280758717685"><ele>1004.1666666666666</ele><time>2026-04-07T11:20:03Z</time></trkpt><trkpt lat="44.780851014443144" lon="7.237363076324197"><ele>1006.0</ele><time>2026-04-07T11:20:04Z</time></trkpt><trkpt lat="44.78091306916063" lon="7.23744939072023"><ele>1004.3333333333333</ele><time>2026-04-07T11:20:05Z</time></trkpt><trkpt lat="44.7809660510792" lon="7.237517976239216"><ele>1002.6666666666666</ele><time>2026-04-07T11:20:06Z</time></trkpt><trkpt lat="44.781018495710164" lon="7.237574727730532"><ele>1001.0</ele><time>2026-04-07T11:20:07Z</time></trkpt><trkpt lat="44.781075389821474" lon="7.237622755350033"><ele>999.3333333333333</ele><time>2026-04-07T11:20:08Z</time></trkpt><trkpt lat="44.781144056004436" lon="7.237693555617239"><ele>997.6666666666666</ele><time>2026-04-07T11:20:10Z</time></trkpt><trkpt lat="44.781218995609144" lon="7.237775116469528"><ele>996.0</ele><time>2026-04-07T11:20:12Z</time></trkpt><trkpt lat="44.781298586514374" lon="7.237856395952538"><ele>996.0</ele><time>2026-04-07T11:20:14Z</time></trkpt><trkpt lat="44.781371287215606" lon="7.237922598911527"><ele>996.0</ele><time>2026-04-07T11:20:16Z</time></trkpt><trkpt lat="44.78142343875172" lon="7.237988339241429"><ele>996.0</ele><time>2026-04-07T11:20:18Z</time></trkpt><trkpt lat="44.78150560409634" lon="7.238088485418413"><ele>996.0</ele><time>2026-04-07T11:20:20Z</time></trkpt><trkpt lat="44.78156271108378" lon="7.238131446045827"><ele>996.0</ele><time>2026-04-07T11:20:21Z</time></trkpt><trkpt lat="44.78162628892653" lon="7.238172719702677"><ele>996.0</ele><time>2026-04-07T11:20:22Z</time></trkpt><trkpt lat="44.781728045331114" lon="7.238253618986256"><ele>997.3333333333334</ele><time>2026-04-07T11:20:24Z</time></trkpt><trkpt lat="44.781789342133074" lon="7.2382989623637"><ele>998.6666666666667</ele><time>2026-04-07T11:20:25Z</time></trkpt><trkpt lat="44.781864048285996" lon="7.238335490926862"><ele>1000.0</ele><time>2026-04-07T11:20:26Z</time></trkpt><trkpt lat="44.78192664319008" lon="7.23837520963102"><ele>1001.3333333333334</ele><time>2026-04-07T11:20:27Z</time></trkpt><trkpt lat="44.78203486957232" lon="7.238437248526774"><ele>1002.6666666666667</ele><time>2026-04-07T11:20:29Z</time></trkpt><trkpt lat="44.78209381515985" lon="7.23846912445376"><ele>1004.0</ele><time>2026-04-07T11:20:30Z</time></trkpt><trkpt lat="44.78219641341257" lon="7.238517890758441"><ele>1004.0000000000001</ele><time>2026-04-07T11:20:32Z</time></trkpt><trkpt lat="44.782261637300614" lon="7.23852975058111"><ele>1004.0</ele><time>2026-04-07T11:20:33Z</time></trkpt><trkpt lat="44.78232556784632" lon="7.238542319221259"><ele>1004.0</ele><time>2026-04-07T11:20:34Z</time></trkpt><trkpt lat="44.78239631882306" lon="7.2385529380694384"><ele>1004.0</ele><time>2026-04-07T11:20:35Z</time></trkpt><trkpt lat="44.78251971623059" lon="7.238567520640302"><ele>1004.0000000000001</ele><time>2026-04-07T11:20:37Z</time></trkpt><trkpt lat="44.78263069194261" lon="7.238550311189944"><ele>1004.0</ele><time>2026-04-07T11:20:39Z</time></trkpt><trkpt lat="44.782750284815236" lon="7.238542251214002"><ele>1003.8000000000001</ele><time>2026-04-07T11:20:41Z</time></trkpt><trkpt lat="44.78286765893649" lon="7.238593159296694"><ele>1003.6000000000001</ele><time>2026-04-07T11:20:43Z</time></trkpt><trkpt lat="44.782926357356445" lon="7.238699562904057"><ele>1003.4</ele><time>2026-04-07T11:20:45Z</time></trkpt><trkpt lat="44.78292147801926" lon="7.238858075615546"><ele>1003.2</ele><time>2026-04-07T11:21:12.999Z</time></trkpt><trkpt lat="44.78291280635442" lon="7.238974432075589"><ele>1003.0</ele><time>2026-04-07T11:21:14.999Z</time></trkpt><trkpt lat="44.78287596461214" lon="7.239095260875799"><ele>1002.4</ele><time>2026-04-07T11:21:16.999Z</time></trkpt><trkpt lat="44.78282395807657" lon="7.2391968473911446"><ele>1001.8</ele><time>2026-04-07T11:21:18.999Z</time></trkpt><trkpt lat="44.782749962429264" lon="7.239294983231901"><ele>1001.2</ele><time>2026-04-07T11:21:20.999Z</time></trkpt><trkpt lat="44.78267613313858" lon="7.239399849514558"><ele>1000.6</ele><time>2026-04-07T11:21:22.999Z</time></trkpt><trkpt lat="44.782569872361556" lon="7.239512114402869"><ele>1000.0</ele><time>2026-04-07T11:21:24.999Z</time></trkpt><trkpt lat="44.78248327198151" lon="7.239578116800431"><ele>999.2</ele><time>2026-04-07T11:21:26.999Z</time></trkpt><trkpt lat="44.78240797045267" lon="7.23966195274154"><ele>998.4</ele><time>2026-04-07T11:21:28.999Z</time></trkpt><trkpt lat="44.782319348864796" lon="7.239792220830236"><ele>997.5999999999999</ele><time>2026-04-07T11:21:30.999Z</time></trkpt><trkpt lat="44.78226201698303" lon="7.239877924164808"><ele>996.8</ele><time>2026-04-07T11:21:31.999Z</time></trkpt><trkpt lat="44.78219449529604" lon="7.24002309533036"><ele>996.0</ele><time>2026-04-07T11:21:33.999Z</time></trkpt><trkpt lat="44.78216464262057" lon="7.240109722364965"><ele>996.0</ele><time>2026-04-07T11:21:34.999Z</time></trkpt><trkpt lat="44.78212789192107" lon="7.240208695327046"><ele>996.0</ele><time>2026-04-07T11:21:35.999Z</time></trkpt><trkpt lat="44.78208084298891" lon="7.240315314923765"><ele>996.0</ele><time>2026-04-07T11:21:37.999Z</time></trkpt><trkpt lat="44.7820466689943" lon="7.240394543648881"><ele>996.0</ele><time>2026-04-07T11:21:38.999Z</time></trkpt><trkpt lat="44.78197880378624" lon="7.240491573821951"><ele>996.0</ele><time>2026-04-07T11:21:39.999Z</time></trkpt><trkpt lat="44.781922620669896" lon="7.240601291336339"><ele>996.0</ele><time>2026-04-07T11:21:40.999Z</time></trkpt><trkpt lat="44.78185787564904" lon="7.240703592808466"><ele>998.4</ele><time>2026-04-07T11:21:41.999Z</time></trkpt><trkpt lat="44.78180779672" lon="7.240779698396696"><ele>1000.8</ele><time>2026-04-07T11:21:42.999Z</time></trkpt><trkpt lat="44.78172615404473" lon="7.240912446764944"><ele>1003.1999999999999</ele><time>2026-04-07T11:21:44.999Z</time></trkpt><trkpt lat="44.78167674185829" lon="7.241004851510678"><ele>1005.5999999999999</ele><time>2026-04-07T11:21:45.999Z</time></trkpt><trkpt lat="44.78159657477796" lon="7.241137420908672"><ele>1008.0</ele><time>2026-04-07T11:21:47.999Z</time></trkpt><trkpt lat="44.781515721672754" lon="7.241228723412482"><ele>1008.0</ele><time>2026-04-07T11:21:50Z</time></trkpt><trkpt lat="44.78142205621674" lon="7.241210410437149"><ele>1008.0</ele><time>2026-04-07T11:21:52Z</time></trkpt><trkpt lat="44.78130509491489" lon="7.241196843901636"><ele>1008.0</ele><time>2026-04-07T11:21:54Z</time></trkpt><trkpt lat="44.781230023168185" lon="7.241182819873464"><ele>1008.0</ele><time>2026-04-07T11:21:55Z</time></trkpt><trkpt lat="44.78115986810948" lon="7.241186875996352"><ele>1008.0</ele><time>2026-04-07T11:21:56Z</time></trkpt><trkpt lat="44.78109630737237" lon="7.241188094375278"><ele>1008.0</ele><time>2026-04-07T11:21:57Z</time></trkpt><trkpt lat="44.78103242710747" lon="7.241188307682985"><ele>1007.8333333333334</ele><time>2026-04-07T11:21:58Z</time></trkpt><trkpt lat="44.78096992981071" lon="7.241174650446558"><ele>1007.6666666666667</ele><time>2026-04-07T11:21:59Z</time></trkpt><trkpt lat="44.780855475634354" lon="7.241104979656067"><ele>1007.5</ele><time>2026-04-07T11:22:01Z</time></trkpt><trkpt lat="44.78079321566824" lon="7.241046246253364"><ele>1007.3333333333334</ele><time>2026-04-07T11:22:02Z</time></trkpt><trkpt lat="44.78073046551542" lon="7.240978038167972"><ele>1007.1666666666667</ele><time>2026-04-07T11:22:03Z</time></trkpt><trkpt lat="44.780672821079186" lon="7.240883833112056"><ele>1007.0</ele><time>2026-04-07T11:22:04Z</time></trkpt><trkpt lat="44.78059748653409" lon="7.240805851955407"><ele>1007.0000000000001</ele><time>2026-04-07T11:22:05Z</time></trkpt><trkpt lat="44.78053449276966" lon="7.240764405683888"><ele>1007.0</ele><time>2026-04-07T11:22:06Z</time></trkpt><trkpt lat="44.780430873749125" lon="7.240698723737607"><ele>1007.0</ele><time>2026-04-07T11:22:08Z</time></trkpt><trkpt lat="44.780362932734604" lon="7.240680256737235"><ele>1007.0</ele><time>2026-04-07T11:22:09Z</time></trkpt><trkpt lat="44.78029339663448" lon="7.2407159700299975"><ele>1007.0000000000001</ele><time>2026-04-07T11:22:10Z</time></trkpt><trkpt lat="44.78022802373249" lon="7.240742998690636"><ele>1007.0</ele><time>2026-04-07T11:22:11Z</time></trkpt><trkpt lat="44.78014365256268" lon="7.240785109599277"><ele>1003.8</ele><time>2026-04-07T11:22:12Z</time></trkpt><trkpt lat="44.78007543106174" lon="7.240800725590183"><ele>1000.6</ele><time>2026-04-07T11:22:13Z</time></trkpt><trkpt lat="44.77997759234471" lon="7.2408207355313206"><ele>997.3999999999999</ele><time>2026-04-07T11:22:15Z</time></trkpt><trkpt lat="44.779885060860614" lon="7.240783619349641"><ele>994.1999999999999</ele><time>2026-04-07T11:22:17Z</time></trkpt><trkpt lat="44.7797945634059" lon="7.240722546786952"><ele>991.0</ele><time>2026-04-07T11:22:19Z</time></trkpt><trkpt lat="44.77971054823239" lon="7.24063336752945"><ele>997.5999999999999</ele><time>2026-04-07T11:22:21Z</time></trkpt><trkpt lat="44.77962193724872" lon="7.240531272421204"><ele>1004.1999999999999</ele><time>2026-04-07T11:22:23Z</time></trkpt><trkpt lat="44.77956359368723" lon="7.240436638524462"><ele>1010.8000000000001</ele><time>2026-04-07T11:22:25Z</time></trkpt><trkpt lat="44.779489867862026" lon="7.2403336922186"><ele>1017.4000000000001</ele><time>2026-04-07T11:22:27Z</time></trkpt><trkpt lat="44.7794188117851" lon="7.240262853365372"><ele>1024.0</ele><time>2026-04-07T11:22:29Z</time></trkpt><trkpt lat="44.77935772756883" lon="7.240184291572796"><ele>1019.9999999999999</ele><time>2026-04-07T11:22:31Z</time></trkpt><trkpt lat="44.779283711055115" lon="7.240127999364018"><ele>1016.0</ele><time>2026-04-07T11:22:33Z</time></trkpt><trkpt lat="44.779209401267835" lon="7.240139036640447"><ele>1012.0</ele><time>2026-04-07T11:22:35Z</time></trkpt><trkpt lat="44.77912724632669" lon="7.240137792511345"><ele>1008.0</ele><time>2026-04-07T11:22:37Z</time></trkpt><trkpt lat="44.779052185795" lon="7.240136783066022"><ele>1003.9999999999999</ele><time>2026-04-07T11:22:38Z</time></trkpt><trkpt lat="44.778985809740846" lon="7.240153169910852"><ele>1000.0</ele><time>2026-04-07T11:22:39Z</time></trkpt><trkpt lat="44.77889800649705" lon="7.2401252797517435"><ele>1000.0</ele><time>2026-04-07T11:22:41Z</time></trkpt><trkpt lat="44.77877044998344" lon="7.240129015905553"><ele>1000.0</ele><time>2026-04-07T11:22:43Z</time></trkpt><trkpt lat="44.77866989829932" lon="7.240125608728314"><ele>1000.0</ele><time>2026-04-07T11:22:45Z</time></trkpt><trkpt lat="44.7785481793195" lon="7.240123437034454"><ele>1000.0</ele><time>2026-04-07T11:22:47Z</time></trkpt><trkpt lat="44.77845316198544" lon="7.240131062999492"><ele>1000.0</ele><time>2026-04-07T11:22:49Z</time></trkpt><trkpt lat="44.778358293902876" lon="7.24017302674139"><ele>997.6</ele><time>2026-04-07T11:22:51Z</time></trkpt><trkpt lat="44.77824316317635" lon="7.2402268390926"><ele>995.2</ele><time>2026-04-07T11:22:53Z</time></trkpt><trkpt lat="44.77817473271948" lon="7.24025110348392"><ele>992.8</ele><time>2026-04-07T11:22:54Z</time></trkpt><trkpt lat="44.77805015381444" lon="7.240268081907395"><ele>990.4</ele><time>2026-04-07T11:22:56Z</time></trkpt><trkpt lat="44.777970258572815" lon="7.24027613693171"><ele>988.0</ele><time>2026-04-07T11:22:58Z</time></trkpt><trkpt lat="44.77787640300063" lon="7.240360738686003"><ele>987.9999999999999</ele><time>2026-04-07T11:23:00Z</time></trkpt><trkpt lat="44.77781520563482" lon="7.240449994323258"><ele>988.0</ele><time>2026-04-07T11:23:02Z</time></trkpt><trkpt lat="44.77773546483911" lon="7.240542622247645"><ele>988.0</ele><time>2026-04-07T11:23:03.999Z</time></trkpt><trkpt lat="44.77767607118964" lon="7.240624330620619"><ele>988.0</ele><time>2026-04-07T11:23:05.999Z</time></trkpt><trkpt lat="44.77763812648147" lon="7.2407575975283525"><ele>987.9999999999999</ele><time>2026-04-07T11:23:07.999Z</time></trkpt><trkpt lat="44.77765649900537" lon="7.240843315126729"><ele>988.0</ele><time>2026-04-07T11:23:11.999Z</time></trkpt><trkpt lat="44.77768187721894" lon="7.240971479345218"><ele>982.8</ele><time>2026-04-07T11:23:19.999Z</time></trkpt><trkpt lat="44.77769805352048" lon="7.241060198979326"><ele>977.5999999999999</ele><time>2026-04-07T11:23:21.999Z</time></trkpt><trkpt lat="44.77773034041332" lon="7.241192165792226"><ele>972.4000000000001</ele><time>2026-04-07T11:23:23.999Z</time></trkpt><trkpt lat="44.77778146175278" lon="7.24134175795233"><ele>967.2</ele><time>2026-04-07T11:23:25.999Z</time></trkpt><trkpt lat="44.77780577120921" lon="7.241482895444762"><ele>962.0</ele><time>2026-04-07T11:23:27.999Z</time></trkpt><trkpt lat="44.77779635130518" lon="7.241594545528861"><ele>958.6</ele><time>2026-04-07T11:23:28.999Z</time></trkpt><trkpt lat="44.777774960873" lon="7.241699243129965"><ele>955.2</ele><time>2026-04-07T11:23:29.999Z</time></trkpt><trkpt lat="44.7777505434675" lon="7.241803185083058"><ele>951.8</ele><time>2026-04-07T11:23:30.999Z</time></trkpt><trkpt lat="44.77772399441585" lon="7.241954358307939"><ele>948.4</ele><time>2026-04-07T11:23:31.999Z</time></trkpt><trkpt lat="44.7777162318771" lon="7.242136142794108"><ele>945.0</ele><time>2026-04-07T11:23:33.999Z</time></trkpt><trkpt lat="44.77771408518263" lon="7.242234381190624"><ele>942.3333333333334</ele><time>2026-04-07T11:23:34.999Z</time></trkpt><trkpt lat="44.777703517394855" lon="7.2423362189633345"><ele>939.6666666666667</ele><time>2026-04-07T11:23:35.999Z</time></trkpt><trkpt lat="44.777686346007684" lon="7.242431066947066"><ele>937.0</ele><time>2026-04-07T11:23:36.999Z</time></trkpt><trkpt lat="44.77765977579047" lon="7.242519088063661"><ele>934.3333333333334</ele><time>2026-04-07T11:23:37.999Z</time></trkpt><trkpt lat="44.777650271616984" lon="7.242675558041561"><ele>931.6666666666667</ele><time>2026-04-07T11:23:39.999Z</time></trkpt><trkpt lat="44.77759940301248" lon="7.242796298986959"><ele>929.0</ele><time>2026-04-07T11:23:41.999Z</time></trkpt><trkpt lat="44.777541139736385" lon="7.24286537276012"><ele>933.5000000000001</ele><time>2026-04-07T11:23:42.999Z</time></trkpt><trkpt lat="44.77748220246892" lon="7.242926173214109"><ele>938.0</ele><time>2026-04-07T11:23:43.999Z</time></trkpt><trkpt lat="44.77743373811681" lon="7.243015791843027"><ele>942.5</ele><time>2026-04-07T11:23:44.999Z</time></trkpt><trkpt lat="44.77740454025459" lon="7.243125475977288"><ele>947.0</ele><time>2026-04-07T11:23:45.999Z</time></trkpt><trkpt lat="44.77736854464966" lon="7.243222693649823"><ele>951.5000000000001</ele><time>2026-04-07T11:23:46.999Z</time></trkpt><trkpt lat="44.77736368534111" lon="7.243340250754905"><ele>956.0</ele><time>2026-04-07T11:23:47.999Z</time></trkpt><trkpt lat="44.77735917289075" lon="7.243456811444407"><ele>956.0</ele><time>2026-04-07T11:23:48.999Z</time></trkpt><trkpt lat="44.777361794357816" lon="7.243560520019631"><ele>955.9999999999999</ele><time>2026-04-07T11:23:49.999Z</time></trkpt><trkpt lat="44.77737354507548" lon="7.243719210391625"><ele>955.9999999999999</ele><time>2026-04-07T11:23:51.999Z</time></trkpt><trkpt lat="44.7773497924306" lon="7.2438046279877595"><ele>956.0</ele><time>2026-04-07T11:23:53.999Z</time></trkpt><trkpt lat="44.77723884446127" lon="7.2438829094192965"><ele>956.0</ele><time>2026-04-07T11:23:56Z</time></trkpt><trkpt lat="44.77716057459836" lon="7.243908727734518"><ele>956.0000000000001</ele><time>2026-04-07T11:23:57Z</time></trkpt><trkpt lat="44.77709251970513" lon="7.243904471577323"><ele>956.0</ele><time>2026-04-07T11:23:58Z</time></trkpt><trkpt lat="44.77700553763095" lon="7.2439261010552265"><ele>956.0</ele><time>2026-04-07T11:23:59Z</time></trkpt><trkpt lat="44.776905165444305" lon="7.2439203687377445"><ele>956.0</ele><time>2026-04-07T11:24:00Z</time></trkpt><trkpt lat="44.77682311021549" lon="7.243937728441608"><ele>956.0000000000001</ele><time>2026-04-07T11:24:01Z</time></trkpt><trkpt lat="44.7767341621464" lon="7.243948177853657"><ele>956.0</ele><time>2026-04-07T11:24:02Z</time></trkpt><trkpt lat="44.77663577907898" lon="7.243951794963245"><ele>955.8</ele><time>2026-04-07T11:24:04Z</time></trkpt><trkpt lat="44.776548282160704" lon="7.244000928989998"><ele>955.5999999999999</ele><time>2026-04-07T11:24:06Z</time></trkpt><trkpt lat="44.77644996950862" lon="7.244066379449226"><ele>955.4</ele><time>2026-04-07T11:24:08Z</time></trkpt><trkpt lat="44.776335146433894" lon="7.244070075797383"><ele>955.2</ele><time>2026-04-07T11:24:10Z</time></trkpt><trkpt lat="44.776265825032105" lon="7.244078869311079"><ele>955.0</ele><time>2026-04-07T11:24:11Z</time></trkpt><trkpt lat="44.776194912024074" lon="7.244103166624467"><ele>954.9999999999999</ele><time>2026-04-07T11:24:12Z</time></trkpt><trkpt lat="44.77612653444821" lon="7.24409824250364"><ele>955.0</ele><time>2026-04-07T11:24:13Z</time></trkpt><trkpt lat="44.776042536576426" lon="7.244097660024439"><ele>955.0</ele><time>2026-04-07T11:24:14Z</time></trkpt><trkpt lat="44.7759442472588" lon="7.244070392089524"><ele>955.0</ele><time>2026-04-07T11:24:16Z</time></trkpt><trkpt lat="44.775861429913064" lon="7.2440310850979355"><ele>954.9999999999999</ele><time>2026-04-07T11:24:18Z</time></trkpt><trkpt lat="44.775781304477846" lon="7.243998009173711"><ele>955.0</ele><time>2026-04-07T11:24:20Z</time></trkpt><trkpt lat="44.77571247579774" lon="7.244018057218471"><ele>956.9999999999999</ele><time>2026-04-07T11:24:22Z</time></trkpt><trkpt lat="44.775649068124416" lon="7.244107201442686"><ele>959.0</ele><time>2026-04-07T11:24:24Z</time></trkpt><trkpt lat="44.775653063832266" lon="7.244203702923785"><ele>961.0</ele><time>2026-04-07T11:24:26Z</time></trkpt><trkpt lat="44.77565604858203" lon="7.244298447818206"><ele>963.0</ele><time>2026-04-07T11:24:27Z</time></trkpt><trkpt lat="44.77565330112243" lon="7.244461310601756"><ele>964.9999999999999</ele><time>2026-04-07T11:24:29Z</time></trkpt><trkpt lat="44.77564436874188" lon="7.244561995283889"><ele>967.0</ele><time>2026-04-07T11:24:30Z</time></trkpt><trkpt lat="44.775658469655085" lon="7.2447149267287445"><ele>965.4000000000001</ele><time>2026-04-07T11:24:32Z</time></trkpt><trkpt lat="44.775704750557004" lon="7.244868510328921"><ele>963.8000000000001</ele><time>2026-04-07T11:24:34Z</time></trkpt><trkpt lat="44.7757117807207" lon="7.244958982426325"><ele>962.2</ele><time>2026-04-07T11:24:35Z</time></trkpt><trkpt lat="44.77575696029724" lon="7.245120304630956"><ele>960.6</ele><time>2026-04-07T11:24:37Z</time></trkpt><trkpt lat="44.775814377678365" lon="7.245249382490934"><ele>959.0</ele><time>2026-04-07T11:24:39Z</time></trkpt><trkpt lat="44.775870143317356" lon="7.245293539628464"><ele>959.0</ele><time>2026-04-07T11:24:40Z</time></trkpt><trkpt lat="44.77597834037398" lon="7.2453227634284065"><ele>959.0000000000001</ele><time>2026-04-07T11:24:42Z</time></trkpt><trkpt lat="44.77604652146579" lon="7.2454193432816725"><ele>959.0000000000001</ele><time>2026-04-07T11:24:44Z</time></trkpt><trkpt lat="44.77610947160358" lon="7.2454916743653035"><ele>959.0</ele><time>2026-04-07T11:24:46Z</time></trkpt><trkpt lat="44.776175860603736" lon="7.245594237849467"><ele>959.0</ele><time>2026-04-07T11:24:48Z</time></trkpt><trkpt lat="44.77625930440395" lon="7.245676218656726"><ele>955.8333333333334</ele><time>2026-04-07T11:24:50Z</time></trkpt><trkpt lat="44.776337021909654" lon="7.245759449346262"><ele>952.6666666666667</ele><time>2026-04-07T11:24:52Z</time></trkpt><trkpt lat="44.776390373136664" lon="7.24581040259123"><ele>949.5</ele><time>2026-04-07T11:24:53Z</time></trkpt><trkpt lat="44.77645790140201" lon="7.2458732723136325"><ele>946.3333333333333</ele><time>2026-04-07T11:24:54Z</time></trkpt><trkpt lat="44.77652900777469" lon="7.245939390197947"><ele>943.1666666666666</ele><time>2026-04-07T11:24:55Z</time></trkpt><trkpt lat="44.77658419836534" lon="7.246003131027448"><ele>940.0</ele><time>2026-04-07T11:24:56Z</time></trkpt><trkpt lat="44.7766430601761" lon="7.246064585360084"><ele>939.9999999999999</ele><time>2026-04-07T11:24:57Z</time></trkpt><trkpt lat="44.77670948152107" lon="7.246126158177843"><ele>940.0</ele><time>2026-04-07T11:24:58Z</time></trkpt><trkpt lat="44.77677605443123" lon="7.246188478648708"><ele>940.0</ele><time>2026-04-07T11:24:59Z</time></trkpt><trkpt lat="44.77683717647418" lon="7.2462488979848425"><ele>940.0</ele><time>2026-04-07T11:25:00Z</time></trkpt><trkpt lat="44.77689721574359" lon="7.24633243627952"><ele>939.9999999999999</ele><time>2026-04-07T11:25:01Z</time></trkpt><trkpt lat="44.776953406425335" lon="7.246412350648542"><ele>940.0</ele><time>2026-04-07T11:25:02Z</time></trkpt><trkpt lat="44.77701478953114" lon="7.246474503450383"><ele>939.4999999999999</ele><time>2026-04-07T11:25:03Z</time></trkpt><trkpt lat="44.7770646905219" lon="7.246529530297718"><ele>939.0</ele><time>2026-04-07T11:25:04Z</time></trkpt><trkpt lat="44.77712104342091" lon="7.246595044160123"><ele>938.5</ele><time>2026-04-07T11:25:05Z</time></trkpt><trkpt lat="44.77717392202349" lon="7.246654003434333"><ele>938.0</ele><time>2026-04-07T11:25:06Z</time></trkpt><trkpt lat="44.77722776523493" lon="7.246712659694481"><ele>937.4999999999999</ele><time>2026-04-07T11:25:06.999Z</time></trkpt><trkpt lat="44.777266037448115" lon="7.246870248110877"><ele>937.0</ele><time>2026-04-07T11:25:08.999Z</time></trkpt><trkpt lat="44.777269839777645" lon="7.246993809479874"><ele>937.0</ele><time>2026-04-07T11:25:10.999Z</time></trkpt><trkpt lat="44.7772730051424" lon="7.24713757490147"><ele>937.0</ele><time>2026-04-07T11:25:12.999Z</time></trkpt><trkpt lat="44.77720388140088" lon="7.247261816598351"><ele>937.0</ele><time>2026-04-07T11:25:14.999Z</time></trkpt><trkpt lat="44.777116510791274" lon="7.247369589402511"><ele>937.0</ele><time>2026-04-07T11:25:16.999Z</time></trkpt><trkpt lat="44.777057519029626" lon="7.247407674464463"><ele>937.0</ele><time>2026-04-07T11:25:17.999Z</time></trkpt><trkpt lat="44.77697505508413" lon="7.247507407167919"><ele>937.0</ele><time>2026-04-07T11:25:19.999Z</time></trkpt><trkpt lat="44.77691781042361" lon="7.247576091962163"><ele>937.0</ele><time>2026-04-07T11:25:20.999Z</time></trkpt><trkpt lat="44.77681487839951" lon="7.247667195571267"><ele>937.0</ele><time>2026-04-07T11:25:22.999Z</time></trkpt><trkpt lat="44.776782589085286" lon="7.247817901088187"><ele>937.0</ele><time>2026-04-07T11:25:24.999Z</time></trkpt><trkpt lat="44.77673194049028" lon="7.247932196118354"><ele>937.0</ele><time>2026-04-07T11:25:26.999Z</time></trkpt><trkpt lat="44.77666799698523" lon="7.248035199255698"><ele>939.2</ele><time>2026-04-07T11:25:28.999Z</time></trkpt><trkpt lat="44.7766412676892" lon="7.248170853922489"><ele>941.4000000000001</ele><time>2026-04-07T11:25:30.999Z</time></trkpt><trkpt lat="44.776682717318934" lon="7.248343637604482"><ele>943.5999999999999</ele><time>2026-04-07T11:25:32.999Z</time></trkpt><trkpt lat="44.776775635634515" lon="7.24846928996335"><ele>945.8</ele><time>2026-04-07T11:25:34.999Z</time></trkpt><trkpt lat="44.77683479870032" lon="7.248537365557096"><ele>948.0</ele><time>2026-04-07T11:25:35.999Z</time></trkpt><trkpt lat="44.77688835575269" lon="7.248604711706184"><ele>942.0</ele><time>2026-04-07T11:25:36.999Z</time></trkpt><trkpt lat="44.776996114131" lon="7.248666740810061"><ele>936.0</ele><time>2026-04-07T11:25:38.999Z</time></trkpt><trkpt lat="44.777114190163" lon="7.2487181045528155"><ele>930.0</ele><time>2026-04-07T11:25:40.999Z</time></trkpt><trkpt lat="44.77721528078955" lon="7.248730628461035"><ele>924.0</ele><time>2026-04-07T11:25:42.999Z</time></trkpt><trkpt lat="44.777310409966404" lon="7.248781696132986"><ele>918.0</ele><time>2026-04-07T11:25:44.999Z</time></trkpt><trkpt lat="44.777366638840185" lon="7.24883328269679"><ele>918.0</ele><time>2026-04-07T11:25:45.999Z</time></trkpt><trkpt lat="44.77742585207126" lon="7.24889061991126"><ele>918.0</ele><time>2026-04-07T11:25:46.999Z</time></trkpt><trkpt lat="44.777467374804864" lon="7.248958533406208"><ele>918.0</ele><time>2026-04-07T11:25:47.999Z</time></trkpt><trkpt lat="44.77751850812831" lon="7.249028852590121"><ele>918.0</ele><time>2026-04-07T11:25:48.999Z</time></trkpt><trkpt lat="44.77755837126784" lon="7.249098744396058"><ele>918.0</ele><time>2026-04-07T11:25:49.999Z</time></trkpt><trkpt lat="44.77761653712902" lon="7.249256728774399"><ele>918.0</ele><time>2026-04-07T11:25:51.999Z</time></trkpt><trkpt lat="44.77763762376646" lon="7.249341332198171"><ele>919.8333333333334</ele><time>2026-04-07T11:25:52.999Z</time></trkpt><trkpt lat="44.77768223106281" lon="7.249428741084505"><ele>921.6666666666667</ele><time>2026-04-07T11:25:53.999Z</time></trkpt><trkpt lat="44.777725394201084" lon="7.249512796361894"><ele>923.5</ele><time>2026-04-07T11:25:54.999Z</time></trkpt><trkpt lat="44.77776375491103" lon="7.24959884424605"><ele>925.3333333333334</ele><time>2026-04-07T11:25:55.999Z</time></trkpt><trkpt lat="44.77782196484024" lon="7.2496820065056236"><ele>927.1666666666667</ele><time>2026-04-07T11:25:56.999Z</time></trkpt><trkpt lat="44.77785306104144" lon="7.249765265307774"><ele>929.0</ele><time>2026-04-07T11:25:57.999Z</time></trkpt><trkpt lat="44.777915550389345" lon="7.249843516817129"><ele>924.6666666666667</ele><time>2026-04-07T11:25:58.999Z</time></trkpt><trkpt lat="44.77794917033163" lon="7.249929003774523"><ele>920.3333333333334</ele><time>2026-04-07T11:25:59.999Z</time></trkpt><trkpt lat="44.77798130677152" lon="7.250015873233276"><ele>916.0</ele><time>2026-04-07T11:26:00.999Z</time></trkpt><trkpt lat="44.77802309610768" lon="7.250091623702323"><ele>911.6666666666667</ele><time>2026-04-07T11:26:02Z</time></trkpt><trkpt lat="44.77807586042285" lon="7.250257222948548"><ele>907.3333333333334</ele><time>2026-04-07T11:26:04Z</time></trkpt><trkpt lat="44.778145726375854" lon="7.250357258066075"><ele>903.0</ele><time>2026-04-07T11:26:06Z</time></trkpt><trkpt lat="44.778207984944714" lon="7.250430003070934"><ele>903.0</ele><time>2026-04-07T11:26:08Z</time></trkpt><trkpt lat="44.77827284909551" lon="7.250547804218577"><ele>903.0</ele><time>2026-04-07T11:26:10Z</time></trkpt><trkpt lat="44.778289340281496" lon="7.250696770125093"><ele>903.0</ele><time>2026-04-07T11:26:12Z</time></trkpt><trkpt lat="44.778280672982135" lon="7.250838385672337"><ele>903.0</ele><time>2026-04-07T11:26:14Z</time></trkpt><trkpt lat="44.7782839477345" lon="7.251012148332557"><ele>903.0</ele><time>2026-04-07T11:26:16Z</time></trkpt><trkpt lat="44.77828754699316" lon="7.251128372329469"><ele>904.2</ele><time>2026-04-07T11:26:17Z</time></trkpt><trkpt lat="44.77832592032374" lon="7.251272588999812"><ele>905.4</ele><time>2026-04-07T11:26:19Z</time></trkpt><trkpt lat="44.77834576632916" lon="7.251372946214726"><ele>906.6000000000001</ele><time>2026-04-07T11:26:20Z</time></trkpt><trkpt lat="44.778346660811714" lon="7.251481423828837"><ele>907.8000000000001</ele><time>2026-04-07T11:26:21Z</time></trkpt><trkpt lat="44.77834272668153" lon="7.251639809409019"><ele>909.0</ele><time>2026-04-07T11:26:23Z</time></trkpt><trkpt lat="44.778339825595154" lon="7.251763795314367"><ele>909.1666666666666</ele><time>2026-04-07T11:26:25Z</time></trkpt><trkpt lat="44.778322867582524" lon="7.251873995316256"><ele>909.3333333333333</ele><time>2026-04-07T11:26:26Z</time></trkpt><trkpt lat="44.77830131788762" lon="7.251983412068054"><ele>909.5</ele><time>2026-04-07T11:26:27Z</time></trkpt><trkpt lat="44.77827786360964" lon="7.252093712354788"><ele>909.6666666666666</ele><time>2026-04-07T11:26:28Z</time></trkpt><trkpt lat="44.778256627850496" lon="7.252206361765714"><ele>909.8333333333333</ele><time>2026-04-07T11:26:29Z</time></trkpt><trkpt lat="44.778254757731645" lon="7.252320063842715"><ele>910.0</ele><time>2026-04-07T11:26:30Z</time></trkpt><trkpt lat="44.77825331225463" lon="7.252413362618801"><ele>909.3333333333333</ele><time>2026-04-07T11:26:31Z</time></trkpt><trkpt lat="44.77826076863118" lon="7.252566979267765"><ele>908.6666666666666</ele><time>2026-04-07T11:26:33Z</time></trkpt><trkpt lat="44.77829872666399" lon="7.252681645192488"><ele>908.0</ele><time>2026-04-07T11:26:35Z</time></trkpt><trkpt lat="44.7783441788783" lon="7.252774236673041"><ele>907.3333333333333</ele><time>2026-04-07T11:26:38Z</time></trkpt><trkpt lat="44.77829325828225" lon="7.2528464093887814"><ele>906.6666666666666</ele><time>2026-04-07T11:26:41Z</time></trkpt><trkpt lat="44.77821558723724" lon="7.252886807782134"><ele>906.0</ele><time>2026-04-07T11:26:43Z</time></trkpt><trkpt lat="44.778151568697275" lon="7.252938454484616"><ele>906.0</ele><time>2026-04-07T11:26:44Z</time></trkpt><trkpt lat="44.7780923653559" lon="7.252999126605736"><ele>906.0</ele><time>2026-04-07T11:26:45Z</time></trkpt><trkpt lat="44.778035862316635" lon="7.253069113518784"><ele>906.0</ele><time>2026-04-07T11:26:46Z</time></trkpt><trkpt lat="44.777971404314776" lon="7.2531597303873205"><ele>906.0</ele><time>2026-04-07T11:26:48Z</time></trkpt><trkpt lat="44.777921943855084" lon="7.253226925627358"><ele>906.0</ele><time>2026-04-07T11:26:51Z</time></trkpt><trkpt lat="44.77783248119027" lon="7.253265423217968"><ele>906.0</ele><time>2026-04-07T11:27:09.999Z</time></trkpt><trkpt lat="44.7777126965923" lon="7.253281664821897"><ele>905.8</ele><time>2026-04-07T11:27:11.999Z</time></trkpt><trkpt lat="44.77762400128545" lon="7.253282243457036"><ele>905.5999999999999</ele><time>2026-04-07T11:27:12.999Z</time></trkpt><trkpt lat="44.77753992438138" lon="7.253266679899132"><ele>905.4</ele><time>2026-04-07T11:27:13.999Z</time></trkpt><trkpt lat="44.77746169946343" lon="7.2532670798160455"><ele>905.2</ele><time>2026-04-07T11:27:14.999Z</time></trkpt><trkpt lat="44.77736345594417" lon="7.253230936934424"><ele>905.0</ele><time>2026-04-07T11:27:15.999Z</time></trkpt><trkpt lat="44.77726561495529" lon="7.253225629103788"><ele>905.0</ele><time>2026-04-07T11:27:16.999Z</time></trkpt><trkpt lat="44.77718325511456" lon="7.253210853760738"><ele>905.0</ele><time>2026-04-07T11:27:17.999Z</time></trkpt><trkpt lat="44.77707654758735" lon="7.253151384731987"><ele>905.0</ele><time>2026-04-07T11:27:19.999Z</time></trkpt><trkpt lat="44.777040411726844" lon="7.253016361338146"><ele>905.0</ele><time>2026-04-07T11:27:21.999Z</time></trkpt><trkpt lat="44.77712868875629" lon="7.2528912615336125"><ele>905.0</ele><time>2026-04-07T11:27:23.999Z</time></trkpt><trkpt lat="44.777189472576175" lon="7.252797682888922"><ele>907.4285714285713</ele><time>2026-04-07T11:27:24.999Z</time></trkpt><trkpt lat="44.77724522452239" lon="7.252724262302277"><ele>909.8571428571428</ele><time>2026-04-07T11:27:25.999Z</time></trkpt><trkpt lat="44.777302004449325" lon="7.252632233523547"><ele>912.2857142857142</ele><time>2026-04-07T11:27:27.999Z</time></trkpt><trkpt lat="44.77734988208947" lon="7.252570253616261"><ele>914.7142857142858</ele><time>2026-04-07T11:27:50.999Z</time></trkpt><trkpt lat="44.7773878586073" lon="7.2524825279590095"><ele>917.1428571428572</ele><time>2026-04-07T11:27:52.999Z</time></trkpt><trkpt lat="44.77742676303171" lon="7.252394982809808"><ele>919.5714285714287</ele><time>2026-04-07T11:27:53.999Z</time></trkpt><trkpt lat="44.77744907426752" lon="7.252299391445726"><ele>922.0</ele><time>2026-04-07T11:27:54.999Z</time></trkpt><trkpt lat="44.77749691105778" lon="7.252172889148901"><ele>924.4000000000001</ele><time>2026-04-07T11:27:56.999Z</time></trkpt><trkpt lat="44.77753120451827" lon="7.252063883705299"><ele>926.8000000000001</ele><time>2026-04-07T11:27:57.999Z</time></trkpt><trkpt lat="44.77756430051588" lon="7.25192548689403"><ele>929.2</ele><time>2026-04-07T11:27:58.999Z</time></trkpt><trkpt lat="44.77757494864227" lon="7.251768914238363"><ele>931.6</ele><time>2026-04-07T11:27:59.999Z</time></trkpt><trkpt lat="44.77759202620916" lon="7.2516130456772006"><ele>934.0</ele><time>2026-04-07T11:28:00.999Z</time></trkpt><trkpt lat="44.77761087658661" lon="7.251481497212565"><ele>935.8000000000001</ele><time>2026-04-07T11:28:01.999Z</time></trkpt><trkpt lat="44.77761698205073" lon="7.251333767483227"><ele>937.6000000000001</ele><time>2026-04-07T11:28:02.999Z</time></trkpt><trkpt lat="44.77763084468729" lon="7.251184085966447"><ele>939.4</ele><time>2026-04-07T11:28:03.999Z</time></trkpt><trkpt lat="44.777625388129884" lon="7.25103651951602"><ele>941.2</ele><time>2026-04-07T11:28:04.999Z</time></trkpt><trkpt lat="44.7776736621826" lon="7.250923058493261"><ele>943.0</ele><time>2026-04-07T11:28:05.999Z</time></trkpt><trkpt lat="44.77767376349893" lon="7.250818094962398"><ele>943.0</ele><time>2026-04-07T11:28:06.999Z</time></trkpt><trkpt lat="44.777665535625154" lon="7.25064967495424"><ele>943.0</ele><time>2026-04-07T11:28:09Z</time></trkpt><trkpt lat="44.77761905265123" lon="7.250529879685232"><ele>943.0</ele><time>2026-04-07T11:28:11Z</time></trkpt><trkpt lat="44.77752559644762" lon="7.250530247461546"><ele>943.0</ele><time>2026-04-07T11:28:12Z</time></trkpt><trkpt lat="44.77748833351268" lon="7.250634477934611"><ele>943.0</ele><time>2026-04-07T11:28:13Z</time></trkpt><trkpt lat="44.77743999334778" lon="7.250729214133705"><ele>943.0</ele><time>2026-04-07T11:28:14Z</time></trkpt><trkpt lat="44.777417754518204" lon="7.250850978929968"><ele>943.0</ele><time>2026-04-07T11:28:15Z</time></trkpt><trkpt lat="44.77733340320101" lon="7.250919174327662"><ele>943.0</ele><time>2026-04-07T11:28:16Z</time></trkpt><trkpt lat="44.77724236250096" lon="7.250967380196505"><ele>943.0</ele><time>2026-04-07T11:28:17Z</time></trkpt><trkpt lat="44.777139676687625" lon="7.251036213912512"><ele>943.0</ele><time>2026-04-07T11:28:18Z</time></trkpt><trkpt lat="44.77701994733695" lon="7.251076220086736"><ele>943.0</ele><time>2026-04-07T11:28:19Z</time></trkpt><trkpt lat="44.77691274909208" lon="7.25111707584863"><ele>943.0</ele><time>2026-04-07T11:28:20Z</time></trkpt><trkpt lat="44.77679956185856" lon="7.251144819509239"><ele>943.0</ele><time>2026-04-07T11:28:21Z</time></trkpt><trkpt lat="44.77668967914287" lon="7.2510877193342065"><ele>943.0</ele><time>2026-04-07T11:28:22Z</time></trkpt><trkpt lat="44.77658785483757" lon="7.251057465653988"><ele>943.0</ele><time>2026-04-07T11:28:23Z</time></trkpt><trkpt lat="44.776499935050886" lon="7.2510314604662565"><ele>945.8333333333333</ele><time>2026-04-07T11:28:24Z</time></trkpt><trkpt lat="44.77643264727165" lon="7.251015754883435"><ele>948.6666666666666</ele><time>2026-04-07T11:28:25Z</time></trkpt><trkpt lat="44.77636660567139" lon="7.251022655408987"><ele>951.5</ele><time>2026-04-07T11:28:26Z</time></trkpt><trkpt lat="44.77633337986967" lon="7.250872452761635"><ele>954.3333333333333</ele><time>2026-04-07T11:28:28Z</time></trkpt><trkpt lat="44.77638284092499" lon="7.2507961610191725"><ele>957.1666666666666</ele><time>2026-04-07T11:28:29Z</time></trkpt><trkpt lat="44.7764688177095" lon="7.250776776672578"><ele>960.0</ele><time>2026-04-07T11:28:30Z</time></trkpt><trkpt lat="44.77653376104972" lon="7.250729620209408"><ele>960.8</ele><time>2026-04-07T11:28:31Z</time></trkpt><trkpt lat="44.776554872271845" lon="7.250571752916214"><ele>961.6</ele><time>2026-04-07T11:28:33Z</time></trkpt><trkpt lat="44.7765220182171" lon="7.250483148646342"><ele>962.4000000000001</ele><time>2026-04-07T11:28:34Z</time></trkpt><trkpt lat="44.776434561572884" lon="7.25045818743496"><ele>963.2</ele><time>2026-04-07T11:28:35Z</time></trkpt><trkpt lat="44.776345779179024" lon="7.25045994045515"><ele>964.0</ele><time>2026-04-07T11:28:36Z</time></trkpt><trkpt lat="44.77624468800156" lon="7.250472395818482"><ele>964.0</ele><time>2026-04-07T11:28:37Z</time></trkpt><trkpt lat="44.776130480228076" lon="7.250516764171483"><ele>964.0</ele><time>2026-04-07T11:28:38Z</time></trkpt><trkpt lat="44.77601484343413" lon="7.250573308335936"><ele>964.0</ele><time>2026-04-07T11:28:39Z</time></trkpt><trkpt lat="44.77589887619759" lon="7.250654015898606"><ele>964.0</ele><time>2026-04-07T11:28:40Z</time></trkpt><trkpt lat="44.77578487816086" lon="7.2507715189196915"><ele>965.5</ele><time>2026-04-07T11:28:41Z</time></trkpt><trkpt lat="44.77567402787895" lon="7.250862031549392"><ele>967.0</ele><time>2026-04-07T11:28:42Z</time></trkpt><trkpt lat="44.77556970324087" lon="7.25093118299933"><ele>968.5</ele><time>2026-04-07T11:28:43Z</time></trkpt><trkpt lat="44.77546040792142" lon="7.250963901465039"><ele>970.0</ele><time>2026-04-07T11:28:44Z</time></trkpt><trkpt lat="44.775350049321226" lon="7.250946522894061"><ele>970.0</ele><time>2026-04-07T11:28:45Z</time></trkpt><trkpt lat="44.775232909237914" lon="7.250892456804415"><ele>970.0</ele><time>2026-04-07T11:28:46Z</time></trkpt><trkpt lat="44.77512506235059" lon="7.2508154359238475"><ele>970.0</ele><time>2026-04-07T11:28:47Z</time></trkpt><trkpt lat="44.775019744067" lon="7.250713530980845"><ele>970.0</ele><time>2026-04-07T11:28:48Z</time></trkpt><trkpt lat="44.77489879858769" lon="7.250624330408768"><ele>978.5</ele><time>2026-04-07T11:28:49Z</time></trkpt><trkpt lat="44.774782216158755" lon="7.250543453548717"><ele>987.0</ele><time>2026-04-07T11:28:50Z</time></trkpt><trkpt lat="44.77466066077053" lon="7.250459886492898"><ele>995.5</ele><time>2026-04-07T11:28:51Z</time></trkpt><trkpt lat="44.77452189056218" lon="7.250419174331754"><ele>1004.0</ele><time>2026-04-07T11:28:52Z</time></trkpt><trkpt lat="44.77436541422634" lon="7.250408062734651"><ele>1004.75</ele><time>2026-04-07T11:28:53Z</time></trkpt><trkpt lat="44.77420990252397" lon="7.250387741031245"><ele>1005.5</ele><time>2026-04-07T11:28:54Z</time></trkpt><trkpt lat="44.774080558801344" lon="7.250360151449941"><ele>1006.25</ele><time>2026-04-07T11:28:55Z</time></trkpt><trkpt lat="44.77395979507862" lon="7.250321783346145"><ele>1007.0</ele><time>2026-04-07T11:28:56Z</time></trkpt><trkpt lat="44.77386558475926" lon="7.250271191511368"><ele>1007.0000000000001</ele><time>2026-04-07T11:28:57Z</time></trkpt><trkpt lat="44.77380204973598" lon="7.250238465436501"><ele>1007.0</ele><time>2026-04-07T11:28:58Z</time></trkpt><trkpt lat="44.773755057943916" lon="7.25012115436389"><ele>1007.0</ele><time>2026-04-07T11:29:00Z</time></trkpt><trkpt lat="44.77384572603826" lon="7.2500108865288535"><ele>1007.0</ele><time>2026-04-07T11:29:02Z</time></trkpt><trkpt lat="44.773925013203254" lon="7.250026371988053"><ele>1007.0000000000001</ele><time>2026-04-07T11:29:03Z</time></trkpt><trkpt lat="44.7740066611794" lon="7.250044304278679"><ele>1007.0</ele><time>2026-04-07T11:29:04Z</time></trkpt><trkpt lat="44.77409505230341" lon="7.250056204441786"><ele>1007.0</ele><time>2026-04-07T11:29:05Z</time></trkpt><trkpt lat="44.77419724216073" lon="7.250060071598447"><ele>1007.0</ele><time>2026-04-07T11:29:06Z</time></trkpt><trkpt lat="44.77431154843874" lon="7.250033647947889"><ele>1007.0</ele><time>2026-04-07T11:29:07Z</time></trkpt><trkpt lat="44.77443015395279" lon="7.25000567412438"><ele>1007.0</ele><time>2026-04-07T11:29:08Z</time></trkpt><trkpt lat="44.77455274775748" lon="7.249993056089774"><ele>1007.3333333333334</ele><time>2026-04-07T11:29:09Z</time></trkpt><trkpt lat="44.77464734484881" lon="7.2499884806886215"><ele>1007.6666666666667</ele><time>2026-04-07T11:29:10Z</time></trkpt><trkpt lat="44.77472526970005" lon="7.249974373453262"><ele>1008.0</ele><time>2026-04-07T11:29:11Z</time></trkpt><trkpt lat="44.77479288497561" lon="7.249906059697247"><ele>1008.3333333333333</ele><time>2026-04-07T11:29:12Z</time></trkpt><trkpt lat="44.77483729181606" lon="7.249791581080594"><ele>1008.6666666666666</ele><time>2026-04-07T11:29:13Z</time></trkpt><trkpt lat="44.77484921711988" lon="7.2496554475281485"><ele>1009.0</ele><time>2026-04-07T11:29:14Z</time></trkpt><trkpt lat="44.77485732261092" lon="7.249506530325306"><ele>1009.0</ele><time>2026-04-07T11:29:15Z</time></trkpt><trkpt lat="44.77483291825952" lon="7.249343055627046"><ele>1009.0</ele><time>2026-04-07T11:29:16Z</time></trkpt><trkpt lat="44.77477430772258" lon="7.249177515012473"><ele>1009.0</ele><time>2026-04-07T11:29:17Z</time></trkpt><trkpt lat="44.774693709927156" lon="7.24901485247062"><ele>1009.0</ele><time>2026-04-07T11:29:18Z</time></trkpt><trkpt lat="44.774603106648826" lon="7.2488479107465995"><ele>1009.0</ele><time>2026-04-07T11:29:19Z</time></trkpt><trkpt lat="44.77451764339181" lon="7.248677814117748"><ele>1009.0</ele><time>2026-04-07T11:29:19.999Z</time></trkpt><trkpt lat="44.77442802144604" lon="7.248494613822522"><ele>1009.0</ele><time>2026-04-07T11:29:20.999Z</time></trkpt><trkpt lat="44.77434163052843" lon="7.248301128762198"><ele>1011.75</ele><time>2026-04-07T11:29:21.999Z</time></trkpt><trkpt lat="44.7743006305098" lon="7.248126531401168"><ele>1014.5</ele><time>2026-04-07T11:29:22.999Z</time></trkpt><trkpt lat="44.77430552374892" lon="7.247941786389034"><ele>1017.25</ele><time>2026-04-07T11:29:23.999Z</time></trkpt><trkpt lat="44.7743240223723" lon="7.247749112944164"><ele>1020.0</ele><time>2026-04-07T11:29:24.999Z</time></trkpt><trkpt lat="44.77435853184483" lon="7.247544356287378"><ele>1020.0</ele><time>2026-04-07T11:29:25.999Z</time></trkpt><trkpt lat="44.7743910349595" lon="7.247362622515582"><ele>1020.0</ele><time>2026-04-07T11:29:26.999Z</time></trkpt><trkpt lat="44.77441263226558" lon="7.247200204300767"><ele>1020.0</ele><time>2026-04-07T11:29:27.999Z</time></trkpt><trkpt lat="44.774407627900686" lon="7.247021376899335"><ele>1020.0</ele><time>2026-04-07T11:29:28.999Z</time></trkpt><trkpt lat="44.77436980494188" lon="7.246839912482685"><ele>1029.6666666666667</ele><time>2026-04-07T11:29:29.999Z</time></trkpt><trkpt lat="44.77431227724467" lon="7.246648221066638"><ele>1039.3333333333335</ele><time>2026-04-07T11:29:30.999Z</time></trkpt><trkpt lat="44.7742471126663" lon="7.2464538436339945"><ele>1049.0</ele><time>2026-04-07T11:29:31.999Z</time></trkpt><trkpt lat="44.774172047953414" lon="7.246246917310553"><ele>1049.0</ele><time>2026-04-07T11:29:32.999Z</time></trkpt><trkpt lat="44.774102782110695" lon="7.2460598302295365"><ele>1049.0</ele><time>2026-04-07T11:29:33.999Z</time></trkpt><trkpt lat="44.77405677255383" lon="7.245914754787209"><ele>1049.0</ele><time>2026-04-07T11:29:34.999Z</time></trkpt><trkpt lat="44.774029405976776" lon="7.245810417962856"><ele>1049.0</ele><time>2026-04-07T11:29:35.999Z</time></trkpt><trkpt lat="44.77393231732106" lon="7.2457624998897545"><ele>1049.0</ele><time>2026-04-07T11:29:37.999Z</time></trkpt><trkpt lat="44.773876229248245" lon="7.245812791735088"><ele>1049.0</ele><time>2026-04-07T11:29:38.999Z</time></trkpt><trkpt lat="44.77384952216668" lon="7.245924966689292"><ele>1049.0</ele><time>2026-04-07T11:29:39.999Z</time></trkpt><trkpt lat="44.77386579024684" lon="7.24605344619846"><ele>1049.0</ele><time>2026-04-07T11:29:40.999Z</time></trkpt><trkpt lat="44.773886482110726" lon="7.246201969221186"><ele>1049.0</ele><time>2026-04-07T11:29:41.999Z</time></trkpt><trkpt lat="44.773890988847896" lon="7.246386173590506"><ele>1049.0</ele><time>2026-04-07T11:29:42.999Z</time></trkpt><trkpt lat="44.773881212015965" lon="7.2465618223027555"><ele>1049.5</ele><time>2026-04-07T11:29:43.999Z</time></trkpt><trkpt lat="44.773865178639895" lon="7.246732263126029"><ele>1050.0</ele><time>2026-04-07T11:29:44.999Z</time></trkpt><trkpt lat="44.7738306746266" lon="7.246928670138447"><ele>1050.5</ele><time>2026-04-07T11:29:45.999Z</time></trkpt><trkpt lat="44.77377905656741" lon="7.2471226576073855"><ele>1051.0</ele><time>2026-04-07T11:29:46.999Z</time></trkpt><trkpt lat="44.77370742572188" lon="7.247314634756502"><ele>1051.0</ele><time>2026-04-07T11:29:47.999Z</time></trkpt><trkpt lat="44.77362219746796" lon="7.247516499189459"><ele>1051.0</ele><time>2026-04-07T11:29:48.999Z</time></trkpt><trkpt lat="44.77353957548242" lon="7.247705562899927"><ele>1051.0</ele><time>2026-04-07T11:29:49.999Z</time></trkpt><trkpt lat="44.77345480529318" lon="7.247885318119159"><ele>1056.25</ele><time>2026-04-07T11:29:50.999Z</time></trkpt><trkpt lat="44.77337158151409" lon="7.248069224780195"><ele>1061.5</ele><time>2026-04-07T11:29:51.999Z</time></trkpt><trkpt lat="44.77330241150234" lon="7.248218681325946"><ele>1066.75</ele><time>2026-04-07T11:29:52.999Z</time></trkpt><trkpt lat="44.7732488689654" lon="7.248341936696234"><ele>1072.0</ele><time>2026-04-07T11:29:53.999Z</time></trkpt><trkpt lat="44.77320043294156" lon="7.248447499847016"><ele>1072.0</ele><time>2026-04-07T11:29:54.999Z</time></trkpt><trkpt lat="44.773133680903506" lon="7.248499117661768"><ele>1072.0</ele><time>2026-04-07T11:29:55.999Z</time></trkpt><trkpt lat="44.773043198362366" lon="7.2484695866012645"><ele>1072.0</ele><time>2026-04-07T11:29:57.999Z</time></trkpt><trkpt lat="44.77303581852971" lon="7.248336228941098"><ele>1072.0</ele><time>2026-04-07T11:29:59.999Z</time></trkpt><trkpt lat="44.77303599216244" lon="7.2482258514888755"><ele>1072.0</ele><time>2026-04-07T11:30:00.999Z</time></trkpt><trkpt lat="44.77307174278893" lon="7.248087611580822"><ele>1072.0</ele><time>2026-04-07T11:30:01.999Z</time></trkpt><trkpt lat="44.77310580060888" lon="7.247936661050146"><ele>1075.5</ele><time>2026-04-07T11:30:02.999Z</time></trkpt><trkpt lat="44.77313874413079" lon="7.247768853383408"><ele>1079.0</ele><time>2026-04-07T11:30:03.999Z</time></trkpt><trkpt lat="44.7731613725886" lon="7.247587718275005"><ele>1082.5</ele><time>2026-04-07T11:30:04.999Z</time></trkpt><trkpt lat="44.77317092777285" lon="7.247429167381469"><ele>1086.0</ele><time>2026-04-07T11:30:05.999Z</time></trkpt><trkpt lat="44.77317808605428" lon="7.247242163071674"><ele>1087.3999999999999</ele><time>2026-04-07T11:30:06.999Z</time></trkpt><trkpt lat="44.77318558978032" lon="7.247040731996853"><ele>1088.8</ele><time>2026-04-07T11:30:07.999Z</time></trkpt><trkpt lat="44.773194213661164" lon="7.246857855606224"><ele>1090.1999999999998</ele><time>2026-04-07T11:30:08.999Z</time></trkpt><trkpt lat="44.77320240218463" lon="7.246714448960749"><ele>1091.6</ele><time>2026-04-07T11:30:09.999Z</time></trkpt><trkpt lat="44.77319556639258" lon="7.246624958414311"><ele>1093.0</ele><time>2026-04-07T11:30:10.999Z</time></trkpt><trkpt lat="44.773134518769986" lon="7.246510986865732"><ele>1093.0</ele><time>2026-04-07T11:30:12.999Z</time></trkpt><trkpt lat="44.773036167918505" lon="7.246574166418378"><ele>1093.0</ele><time>2026-04-07T11:30:14Z</time></trkpt><trkpt lat="44.77300099123015" lon="7.246691679050562"><ele>1093.0</ele><time>2026-04-07T11:30:15Z</time></trkpt><trkpt lat="44.77298205657159" lon="7.2468171337605085"><ele>1093.0</ele><time>2026-04-07T11:30:16Z</time></trkpt><trkpt lat="44.77295630136548" lon="7.246962598332763"><ele>1093.0</ele><time>2026-04-07T11:30:17Z</time></trkpt><trkpt lat="44.77288883401937" lon="7.247096866160104"><ele>1093.0</ele><time>2026-04-07T11:30:18Z</time></trkpt><trkpt lat="44.77281250761506" lon="7.24723329477558"><ele>1093.0</ele><time>2026-04-07T11:30:19Z</time></trkpt><trkpt lat="44.772747665290275" lon="7.247351151073506"><ele>1093.0</ele><time>2026-04-07T11:30:20Z</time></trkpt><trkpt lat="44.77264973853258" lon="7.247454335383402"><ele>1093.0</ele><time>2026-04-07T11:30:21Z</time></trkpt><trkpt lat="44.77253294905013" lon="7.247534590485096"><ele>1097.2</ele><time>2026-04-07T11:30:22Z</time></trkpt><trkpt lat="44.772444248023476" lon="7.247601527240101"><ele>1101.4</ele><time>2026-04-07T11:30:23Z</time></trkpt><trkpt lat="44.77233465647091" lon="7.247653524505721"><ele>1105.6000000000001</ele><time>2026-04-07T11:30:24Z</time></trkpt><trkpt lat="44.77222764261078" lon="7.247665761778581"><ele>1109.8</ele><time>2026-04-07T11:30:25Z</time></trkpt><trkpt lat="44.77212757081582" lon="7.247674298897871"><ele>1114.0</ele><time>2026-04-07T11:30:26Z</time></trkpt><trkpt lat="44.77202521575041" lon="7.247608088693227"><ele>1114.0</ele><time>2026-04-07T11:30:27Z</time></trkpt><trkpt lat="44.77193189922482" lon="7.247511436130485"><ele>1114.0</ele><time>2026-04-07T11:30:28Z</time></trkpt><trkpt lat="44.7718590684699" lon="7.247421049384139"><ele>1114.0</ele><time>2026-04-07T11:30:29Z</time></trkpt><trkpt lat="44.77181120152059" lon="7.247352852048541"><ele>1114.0</ele><time>2026-04-07T11:30:30Z</time></trkpt><trkpt lat="44.77185116688487" lon="7.247199165935375"><ele>1114.0</ele><time>2026-04-07T11:30:32Z</time></trkpt><trkpt lat="44.77191497370363" lon="7.2471719038793445"><ele>1117.2</ele><time>2026-04-07T11:30:33Z</time></trkpt><trkpt lat="44.7719956860726" lon="7.247145332922425"><ele>1120.4</ele><time>2026-04-07T11:30:34Z</time></trkpt><trkpt lat="44.77209107139532" lon="7.247127948704691"><ele>1123.6</ele><time>2026-04-07T11:30:35Z</time></trkpt><trkpt lat="44.77218533603854" lon="7.24707012692167"><ele>1126.8</ele><time>2026-04-07T11:30:36Z</time></trkpt><trkpt lat="44.77227951132019" lon="7.246966872058561"><ele>1130.0</ele><time>2026-04-07T11:30:37Z</time></trkpt><trkpt lat="44.7723577991963" lon="7.246834233086378"><ele>1130.0</ele><time>2026-04-07T11:30:38Z</time></trkpt><trkpt lat="44.77240956222206" lon="7.246693574714669"><ele>1130.0</ele><time>2026-04-07T11:30:39Z</time></trkpt><trkpt lat="44.77244849130141" lon="7.246506803509431"><ele>1130.0</ele><time>2026-04-07T11:30:40Z</time></trkpt><trkpt lat="44.77247158242596" lon="7.2463061130063"><ele>1130.0</ele><time>2026-04-07T11:30:41Z</time></trkpt><trkpt lat="44.77248476010941" lon="7.246135220615775"><ele>1131.8</ele><time>2026-04-07T11:30:42Z</time></trkpt><trkpt lat="44.77249271808851" lon="7.245998173146838"><ele>1133.6</ele><time>2026-04-07T11:30:43Z</time></trkpt><trkpt lat="44.77248848266761" lon="7.245891941396441"><ele>1135.4</ele><time>2026-04-07T11:30:44Z</time></trkpt><trkpt lat="44.77241949138037" lon="7.245752765390201"><ele>1137.2</ele><time>2026-04-07T11:30:46Z</time></trkpt><trkpt lat="44.772349895672846" lon="7.245823152586091"><ele>1139.0</ele><time>2026-04-07T11:30:47Z</time></trkpt><trkpt lat="44.772325451904024" lon="7.245923666808185"><ele>1139.0</ele><time>2026-04-07T11:30:48Z</time></trkpt><trkpt lat="44.772303475182795" lon="7.246050653278675"><ele>1139.0</ele><time>2026-04-07T11:30:49Z</time></trkpt><trkpt lat="44.77226488188195" lon="7.246168141442819"><ele>1139.0</ele><time>2026-04-07T11:30:50Z</time></trkpt><trkpt lat="44.7722006845847" lon="7.246274729511075"><ele>1139.0</ele><time>2026-04-07T11:30:51Z</time></trkpt><trkpt lat="44.77214114118796" lon="7.246329670240844"><ele>1139.0</ele><time>2026-04-07T11:30:52Z</time></trkpt><trkpt lat="44.77206971608543" lon="7.246353249797708"><ele>1139.0</ele><time>2026-04-07T11:30:53Z</time></trkpt><trkpt lat="44.77200393337314" lon="7.246312671195013"><ele>1139.0</ele><time>2026-04-07T11:30:54Z</time></trkpt><trkpt lat="44.771916618421194" lon="7.246282090168589"><ele>1139.0</ele><time>2026-04-07T11:30:55Z</time></trkpt><trkpt lat="44.77183680237735" lon="7.246187045393301"><ele>1139.0</ele><time>2026-04-07T11:30:56Z</time></trkpt><trkpt lat="44.77174581005151" lon="7.2460945711498415"><ele>1139.0</ele><time>2026-04-07T11:30:57Z</time></trkpt><trkpt lat="44.77164616524771" lon="7.24599476041905"><ele>1139.0</ele><time>2026-04-07T11:30:58Z</time></trkpt><trkpt lat="44.77153013023328" lon="7.245883141340467"><ele>1143.2</ele><time>2026-04-07T11:30:59Z</time></trkpt><trkpt lat="44.771428712642496" lon="7.245788375816262"><ele>1147.4</ele><time>2026-04-07T11:31:00Z</time></trkpt><trkpt lat="44.77133105900779" lon="7.24570005159953"><ele>1151.6</ele><time>2026-04-07T11:31:01Z</time></trkpt><trkpt lat="44.77125262353397" lon="7.245623558209187"><ele>1155.8</ele><time>2026-04-07T11:31:02Z</time></trkpt><trkpt lat="44.77120410842781" lon="7.245552920265479"><ele>1160.0</ele><time>2026-04-07T11:31:03Z</time></trkpt><trkpt lat="44.77112136179096" lon="7.245472793364703"><ele>1162.0</ele><time>2026-04-07T11:31:05Z</time></trkpt><trkpt lat="44.771160785160234" lon="7.245342959324157"><ele>1164.0</ele><time>2026-04-07T11:31:07Z</time></trkpt><trkpt lat="44.77126526185207" lon="7.24544094897176"><ele>1166.0</ele><time>2026-04-07T11:31:09Z</time></trkpt><trkpt lat="44.77135006739918" lon="7.245480874590628"><ele>1168.0</ele><time>2026-04-07T11:31:10Z</time></trkpt><trkpt lat="44.77144212208366" lon="7.245540986701585"><ele>1170.0</ele><time>2026-04-07T11:31:11Z</time></trkpt><trkpt lat="44.77155277072976" lon="7.245555953207333"><ele>1170.0</ele><time>2026-04-07T11:31:12Z</time></trkpt><trkpt lat="44.77165195910787" lon="7.245530629490443"><ele>1170.0</ele><time>2026-04-07T11:31:13Z</time></trkpt><trkpt lat="44.77171137112511" lon="7.245497277387103"><ele>1170.0</ele><time>2026-04-07T11:31:14Z</time></trkpt><trkpt lat="44.77174852750091" lon="7.245402467885828"><ele>1170.0</ele><time>2026-04-07T11:31:15Z</time></trkpt><trkpt lat="44.771718949506834" lon="7.245256040151726"><ele>1170.0</ele><time>2026-04-07T11:31:16Z</time></trkpt><trkpt lat="44.771630281441965" lon="7.245136293693239"><ele>1170.0</ele><time>2026-04-07T11:31:17Z</time></trkpt><trkpt lat="44.77155275631395" lon="7.245059471522191"><ele>1170.0</ele><time>2026-04-07T11:31:18Z</time></trkpt><trkpt lat="44.77146223766529" lon="7.244957343800006"><ele>1170.0</ele><time>2026-04-07T11:31:19Z</time></trkpt><trkpt lat="44.771360021108954" lon="7.244835542636484"><ele>1170.0</ele><time>2026-04-07T11:31:20Z</time></trkpt><trkpt lat="44.77126708364674" lon="7.244724798397937"><ele>1167.75</ele><time>2026-04-07T11:31:21Z</time></trkpt><trkpt lat="44.77115389295009" lon="7.24459267448982"><ele>1165.5</ele><time>2026-04-07T11:31:22Z</time></trkpt><trkpt lat="44.77105175485194" lon="7.244450801535106"><ele>1163.25</ele><time>2026-04-07T11:31:23Z</time></trkpt><trkpt lat="44.77100453402471" lon="7.244308480303748"><ele>1161.0</ele><time>2026-04-07T11:31:24Z</time></trkpt><trkpt lat="44.77095547252243" lon="7.2442310806414545"><ele>1167.2</ele><time>2026-04-07T11:31:24.999Z</time></trkpt><trkpt lat="44.770822422410305" lon="7.244184940277915"><ele>1173.3999999999999</ele><time>2026-04-07T11:31:26.999Z</time></trkpt><trkpt lat="44.770746893391696" lon="7.244268996184342"><ele>1179.6</ele><time>2026-04-07T11:31:27.999Z</time></trkpt><trkpt lat="44.77067738300398" lon="7.244368689304894"><ele>1185.8</ele><time>2026-04-07T11:31:28.999Z</time></trkpt><trkpt lat="44.770608099115954" lon="7.244473845903769"><ele>1192.0</ele><time>2026-04-07T11:31:29.999Z</time></trkpt><trkpt lat="44.77049491246378" lon="7.244511738142204"><ele>1192.0</ele><time>2026-04-07T11:31:30.999Z</time></trkpt><trkpt lat="44.770364410836294" lon="7.244550712622048"><ele>1192.0</ele><time>2026-04-07T11:31:31.999Z</time></trkpt><trkpt lat="44.770231768842386" lon="7.244554775541794"><ele>1192.0</ele><time>2026-04-07T11:31:32.999Z</time></trkpt><trkpt lat="44.770090853621504" lon="7.244602154664468"><ele>1192.0</ele><time>2026-04-07T11:31:33.999Z</time></trkpt><trkpt lat="44.769948225905914" lon="7.244631279242404"><ele>1198.5</ele><time>2026-04-07T11:31:34.999Z</time></trkpt><trkpt lat="44.7698096315302" lon="7.244650625058261"><ele>1205.0</ele><time>2026-04-07T11:31:35.999Z</time></trkpt><trkpt lat="44.76966964445489" lon="7.244643399271829"><ele>1211.5</ele><time>2026-04-07T11:31:36.999Z</time></trkpt><trkpt lat="44.769549920301216" lon="7.2446282585470385"><ele>1218.0</ele><time>2026-04-07T11:31:37.999Z</time></trkpt><trkpt lat="44.76943653486569" lon="7.244612228374958"><ele>1218.2</ele><time>2026-04-07T11:31:38.999Z</time></trkpt><trkpt lat="44.769316083293646" lon="7.244555416461917"><ele>1218.4</ele><time>2026-04-07T11:31:39.999Z</time></trkpt><trkpt lat="44.769226509267824" lon="7.2445290815294365"><ele>1218.6000000000001</ele><time>2026-04-07T11:31:40.999Z</time></trkpt><trkpt lat="44.76913030015383" lon="7.244459748622"><ele>1218.8</ele><time>2026-04-07T11:31:42.999Z</time></trkpt><trkpt lat="44.76907482197742" lon="7.244409018568279"><ele>1219.0</ele><time>2026-04-07T11:31:43.999Z</time></trkpt><trkpt lat="44.769017488632024" lon="7.244358570137147"><ele>1219.0</ele><time>2026-04-07T11:31:44.999Z</time></trkpt><trkpt lat="44.768957874343776" lon="7.244293727175881"><ele>1219.0</ele><time>2026-04-07T11:31:45.999Z</time></trkpt><trkpt lat="44.76888698766832" lon="7.244244559689563"><ele>1219.0</ele><time>2026-04-07T11:31:46.999Z</time></trkpt><trkpt lat="44.76880851331519" lon="7.244206837290639"><ele>1219.0</ele><time>2026-04-07T11:31:47.999Z</time></trkpt><trkpt lat="44.76871674521142" lon="7.244175051599127"><ele>1219.0</ele><time>2026-04-07T11:31:48.999Z</time></trkpt><trkpt lat="44.768616728066746" lon="7.244125809316957"><ele>1219.0</ele><time>2026-04-07T11:31:49.999Z</time></trkpt><trkpt lat="44.76850050328622" lon="7.244066059448666"><ele>1216.25</ele><time>2026-04-07T11:31:50.999Z</time></trkpt><trkpt lat="44.768367692472914" lon="7.243998499589225"><ele>1213.5</ele><time>2026-04-07T11:31:51.999Z</time></trkpt><trkpt lat="44.76822691510067" lon="7.243925658060057"><ele>1210.75</ele><time>2026-04-07T11:31:52.999Z</time></trkpt><trkpt lat="44.768075964054304" lon="7.243860448105643"><ele>1208.0</ele><time>2026-04-07T11:31:53.999Z</time></trkpt><trkpt lat="44.76794756238533" lon="7.24382179811568"><ele>1212.0</ele><time>2026-04-07T11:31:54.999Z</time></trkpt><trkpt lat="44.76782929618822" lon="7.243817201536105"><ele>1216.0</ele><time>2026-04-07T11:31:55.999Z</time></trkpt><trkpt lat="44.76770862964563" lon="7.243847913495481"><ele>1220.0</ele><time>2026-04-07T11:31:56.999Z</time></trkpt><trkpt lat="44.76759607016916" lon="7.243862902362015"><ele>1224.0</ele><time>2026-04-07T11:31:57.999Z</time></trkpt><trkpt lat="44.767501673058106" lon="7.243834721446267"><ele>1224.0</ele><time>2026-04-07T11:31:58.999Z</time></trkpt><trkpt lat="44.76739894244046" lon="7.243782402507503"><ele>1224.0</ele><time>2026-04-07T11:31:59.999Z</time></trkpt><trkpt lat="44.767301514034855" lon="7.243725467797213"><ele>1224.0</ele><time>2026-04-07T11:32:00.999Z</time></trkpt><trkpt lat="44.767205565400154" lon="7.243678826167868"><ele>1224.0</ele><time>2026-04-07T11:32:01.999Z</time></trkpt><trkpt lat="44.767126488187856" lon="7.243632804195806"><ele>1224.0</ele><time>2026-04-07T11:32:02.999Z</time></trkpt><trkpt lat="44.76706310220504" lon="7.243597237879132"><ele>1224.0</ele><time>2026-04-07T11:32:03.999Z</time></trkpt><trkpt lat="44.76699406536833" lon="7.243581232011183"><ele>1224.0</ele><time>2026-04-07T11:32:04.999Z</time></trkpt><trkpt lat="44.76692514874605" lon="7.243565576446106"><ele>1224.0</ele><time>2026-04-07T11:32:05.999Z</time></trkpt><trkpt lat="44.7668556626154" lon="7.243546823404472"><ele>1224.0</ele><time>2026-04-07T11:32:06.999Z</time></trkpt><trkpt lat="44.76677816253789" lon="7.243541218159276"><ele>1224.0</ele><time>2026-04-07T11:32:07.999Z</time></trkpt><trkpt lat="44.76669501260442" lon="7.243541916084545"><ele>1224.0</ele><time>2026-04-07T11:32:08.999Z</time></trkpt><trkpt lat="44.766605685338305" lon="7.243555431442045"><ele>1223.2</ele><time>2026-04-07T11:32:09.999Z</time></trkpt><trkpt lat="44.766513598535035" lon="7.243582789301105"><ele>1222.4</ele><time>2026-04-07T11:32:10.999Z</time></trkpt><trkpt lat="44.76641749152453" lon="7.243615788882734"><ele>1221.6</ele><time>2026-04-07T11:32:11.999Z</time></trkpt><trkpt lat="44.766317853363844" lon="7.243657032096732"><ele>1220.8</ele><time>2026-04-07T11:32:12.999Z</time></trkpt><trkpt lat="44.76621477932381" lon="7.243694358248233"><ele>1220.0</ele><time>2026-04-07T11:32:13.999Z</time></trkpt><trkpt lat="44.76610949113669" lon="7.243727988904042"><ele>1221.25</ele><time>2026-04-07T11:32:14.999Z</time></trkpt><trkpt lat="44.76600497487866" lon="7.243772224164606"><ele>1222.5</ele><time>2026-04-07T11:32:15.999Z</time></trkpt><trkpt lat="44.7658991409489" lon="7.24381954713907"><ele>1223.75</ele><time>2026-04-07T11:32:16.999Z</time></trkpt><trkpt lat="44.765791512995605" lon="7.243861988422996"><ele>1225.0</ele><time>2026-04-07T11:32:17.999Z</time></trkpt><trkpt lat="44.765679284266675" lon="7.243911491440365"><ele>1225.0</ele><time>2026-04-07T11:32:18.999Z</time></trkpt><trkpt lat="44.76556583017279" lon="7.24395628921045"><ele>1225.0</ele><time>2026-04-07T11:32:20Z</time></trkpt><trkpt lat="44.76544850102801" lon="7.244006104096942"><ele>1225.0</ele><time>2026-04-07T11:32:21Z</time></trkpt><trkpt lat="44.76532753368644" lon="7.244056145485605"><ele>1225.0</ele><time>2026-04-07T11:32:22Z</time></trkpt><trkpt lat="44.76520487644715" lon="7.244115907978608"><ele>1229.5</ele><time>2026-04-07T11:32:23Z</time></trkpt><trkpt lat="44.76507534531675" lon="7.24415501290755"><ele>1234.0</ele><time>2026-04-07T11:32:24Z</time></trkpt><trkpt lat="44.76494947036125" lon="7.244231006510957"><ele>1238.5</ele><time>2026-04-07T11:32:25Z</time></trkpt><trkpt lat="44.764815115177285" lon="7.2442828869978895"><ele>1243.0</ele><time>2026-04-07T11:32:26Z</time></trkpt><trkpt lat="44.764687285570766" lon="7.2443473117658135"><ele>1243.0</ele><time>2026-04-07T11:32:27Z</time></trkpt><trkpt lat="44.764558020740196" lon="7.244426581879008"><ele>1243.0</ele><time>2026-04-07T11:32:28Z</time></trkpt><trkpt lat="44.76443202133324" lon="7.244504860378279"><ele>1243.0</ele><time>2026-04-07T11:32:29Z</time></trkpt><trkpt lat="44.76431557827436" lon="7.244586862632282"><ele>1243.0</ele><time>2026-04-07T11:32:30Z</time></trkpt><trkpt lat="44.76420055282283" lon="7.244676152525087"><ele>1243.2</ele><time>2026-04-07T11:32:31Z</time></trkpt><trkpt lat="44.76409172722059" lon="7.244768307503744"><ele>1243.4</ele><time>2026-04-07T11:32:32Z</time></trkpt><trkpt lat="44.76399050592206" lon="7.244849883939867"><ele>1243.6000000000001</ele><time>2026-04-07T11:32:33Z</time></trkpt><trkpt lat="44.76390409460512" lon="7.244920774668711"><ele>1243.8</ele><time>2026-04-07T11:32:34Z</time></trkpt><trkpt lat="44.76383413203521" lon="7.244987380158218"><ele>1244.0</ele><time>2026-04-07T11:32:35Z</time></trkpt><trkpt lat="44.76376574612166" lon="7.245049204677109"><ele>1245.0</ele><time>2026-04-07T11:32:36Z</time></trkpt><trkpt lat="44.763711149590144" lon="7.24509364272364"><ele>1246.0</ele><time>2026-04-07T11:32:37Z</time></trkpt><trkpt lat="44.7636338791007" lon="7.24516354675293"><ele>1247.0</ele><time>2026-04-07T11:32:39Z</time></trkpt><trkpt lat="44.763573482475195" lon="7.245210635929269"><ele>1248.0</ele><time>2026-04-07T11:32:42Z</time></trkpt><trkpt lat="44.763631785290066" lon="7.245415277234134"><ele>1249.0</ele><time>2026-04-07T11:32:46Z</time></trkpt><trkpt lat="44.76367188222102" lon="7.2455088257323235"><ele>1249.0</ele><time>2026-04-07T11:32:49Z</time></trkpt><trkpt lat="44.763702445742524" lon="7.245608477784582"><ele>1249.0</ele><time>2026-04-07T11:32:52Z</time></trkpt><trkpt lat="44.76374400670444" lon="7.245694911448167"><ele>1251.0</ele><time>2026-04-07T11:33:05Z</time></trkpt><trkpt lat="44.76371166636685" lon="7.245536893405436"><ele>1249.0</ele><time>2026-04-07T11:33:14Z</time></trkpt><trkpt lat="44.76374147372591" lon="7.245456952344612"><ele>1249.0</ele><time>2026-04-07T11:33:17Z</time></trkpt><trkpt lat="44.76380528311043" lon="7.245447434152926"><ele>1249.0</ele><time>2026-04-07T11:36:19.999Z</time></trkpt></trkseg><trkseg><trkpt lat="44.763686929034705" lon="7.2454344733635825"><ele>1249.0</ele><time>2026-04-07T12:35:49.999Z</time></trkpt><trkpt lat="44.76359576856457" lon="7.245324643652148"><ele>1249.0</ele><time>2026-04-07T12:36:34Z</time></trkpt><trkpt lat="44.763569544562486" lon="7.245236897089956"><ele>1249.0</ele><time>2026-04-07T12:36:56Z</time></trkpt><trkpt lat="44.76348019094005" lon="7.245178287323828"><ele>1249.0</ele><time>2026-04-07T12:36:59Z</time></trkpt><trkpt lat="44.7634288489117" lon="7.245122198505842"><ele>1249.0</ele><time>2026-04-07T12:37:00Z</time></trkpt><trkpt lat="44.76337269658772" lon="7.245042816013985"><ele>1249.0</ele><time>2026-04-07T12:37:01Z</time></trkpt><trkpt lat="44.763316021446705" lon="7.2449640442637575"><ele>1249.0</ele><time>2026-04-07T12:37:02Z</time></trkpt><trkpt lat="44.76326678447443" lon="7.244883369838557"><ele>1249.0</ele><time>2026-04-07T12:37:03Z</time></trkpt><trkpt lat="44.763208044249296" lon="7.244793393806986"><ele>1249.0</ele><time>2026-04-07T12:37:04Z</time></trkpt><trkpt lat="44.76313155035443" lon="7.244688423680447"><ele>1249.0</ele><time>2026-04-07T12:37:05Z</time></trkpt><trkpt lat="44.763037734195166" lon="7.2445769037077765"><ele>1249.0</ele><time>2026-04-07T12:37:06Z</time></trkpt><trkpt lat="44.76292732097705" lon="7.244448542851485"><ele>1249.0</ele><time>2026-04-07T12:37:07Z</time></trkpt><trkpt lat="44.762813613155295" lon="7.244318871848894"><ele>1249.0</ele><time>2026-04-07T12:37:08Z</time></trkpt><trkpt lat="44.76268873862068" lon="7.244197109692438"><ele>1249.0</ele><time>2026-04-07T12:37:09Z</time></trkpt><trkpt lat="44.76254515900527" lon="7.2440638165042595"><ele>1249.75</ele><time>2026-04-07T12:37:10Z</time></trkpt><trkpt lat="44.76240322008628" lon="7.243940444108951"><ele>1250.5</ele><time>2026-04-07T12:37:11Z</time></trkpt><trkpt lat="44.762282901201644" lon="7.243850063089984"><ele>1251.25</ele><time>2026-04-07T12:37:12Z</time></trkpt><trkpt lat="44.76217542782035" lon="7.243763643120245"><ele>1252.0</ele><time>2026-04-07T12:37:13Z</time></trkpt><trkpt lat="44.76205476338933" lon="7.243636174515767"><ele>1252.0</ele><time>2026-04-07T12:37:14Z</time></trkpt><trkpt lat="44.76194628408012" lon="7.243486811770969"><ele>1252.0</ele><time>2026-04-07T12:37:15Z</time></trkpt><trkpt lat="44.76185404911294" lon="7.24335521555099"><ele>1252.0</ele><time>2026-04-07T12:37:16Z</time></trkpt><trkpt lat="44.76176306600851" lon="7.243225841875866"><ele>1252.0</ele><time>2026-04-07T12:37:17Z</time></trkpt><trkpt lat="44.76167334578798" lon="7.243093047104998"><ele>1253.75</ele><time>2026-04-07T12:37:18Z</time></trkpt><trkpt lat="44.76159038631571" lon="7.242959031428069"><ele>1255.5</ele><time>2026-04-07T12:37:19Z</time></trkpt><trkpt lat="44.761511070364264" lon="7.242824323892379"><ele>1257.25</ele><time>2026-04-07T12:37:20Z</time></trkpt><trkpt lat="44.76142997592893" lon="7.242691471322306"><ele>1259.0</ele><time>2026-04-07T12:37:21Z</time></trkpt><trkpt lat="44.761349758895406" lon="7.2425443078248035"><ele>1259.0</ele><time>2026-04-07T12:37:22Z</time></trkpt><trkpt lat="44.76126559728563" lon="7.242392251508071"><ele>1259.0</ele><time>2026-04-07T12:37:23Z</time></trkpt><trkpt lat="44.76117106946534" lon="7.242239891039496"><ele>1259.0</ele><time>2026-04-07T12:37:24Z</time></trkpt><trkpt lat="44.761070811044426" lon="7.242088333897845"><ele>1259.0</ele><time>2026-04-07T12:37:25Z</time></trkpt><trkpt lat="44.76096405425678" lon="7.241942932536685"><ele>1260.75</ele><time>2026-04-07T12:37:26Z</time></trkpt><trkpt lat="44.76086555634601" lon="7.241810487485459"><ele>1262.5</ele><time>2026-04-07T12:37:27Z</time></trkpt><trkpt lat="44.760769014812794" lon="7.241695138663845"><ele>1264.25</ele><time>2026-04-07T12:37:28Z</time></trkpt><trkpt lat="44.76066338118829" lon="7.2415875762182775"><ele>1266.0</ele><time>2026-04-07T12:37:29Z</time></trkpt><trkpt lat="44.76053972156466" lon="7.241478933205846"><ele>1267.3333333333333</ele><time>2026-04-07T12:37:30Z</time></trkpt><trkpt lat="44.76039920290256" lon="7.241366222829976"><ele>1268.6666666666665</ele><time>2026-04-07T12:37:31Z</time></trkpt><trkpt lat="44.76025580066769" lon="7.241266634298417"><ele>1270.0</ele><time>2026-04-07T12:37:32Z</time></trkpt><trkpt lat="44.76013119272257" lon="7.241197829973384"><ele>1270.0</ele><time>2026-04-07T12:37:33Z</time></trkpt><trkpt lat="44.760025575643674" lon="7.241147532952257"><ele>1270.0</ele><time>2026-04-07T12:37:34Z</time></trkpt><trkpt lat="44.75991758463388" lon="7.241100187175983"><ele>1270.0</ele><time>2026-04-07T12:37:35Z</time></trkpt><trkpt lat="44.75981625368846" lon="7.24104009945234"><ele>1270.0</ele><time>2026-04-07T12:37:36Z</time></trkpt><trkpt lat="44.75969768722135" lon="7.241017766538875"><ele>1270.0</ele><time>2026-04-07T12:37:37Z</time></trkpt><trkpt lat="44.75957442937771" lon="7.241034994974705"><ele>1270.0</ele><time>2026-04-07T12:37:37.999Z</time></trkpt><trkpt lat="44.75945556572596" lon="7.241081769824756"><ele>1270.0</ele><time>2026-04-07T12:37:38.999Z</time></trkpt><trkpt lat="44.75934455561089" lon="7.24117147878603"><ele>1270.0</ele><time>2026-04-07T12:37:39.999Z</time></trkpt><trkpt lat="44.75923783617759" lon="7.241305519774217"><ele>1269.25</ele><time>2026-04-07T12:37:40.999Z</time></trkpt><trkpt lat="44.759111428937175" lon="7.241427578484223"><ele>1268.5</ele><time>2026-04-07T12:37:41.999Z</time></trkpt><trkpt lat="44.758993486906824" lon="7.241563335188876"><ele>1267.75</ele><time>2026-04-07T12:37:42.999Z</time></trkpt><trkpt lat="44.75887786230175" lon="7.241673380200324"><ele>1267.0</ele><time>2026-04-07T12:37:43.999Z</time></trkpt><trkpt lat="44.75877514258958" lon="7.241745599901791"><ele>1270.25</ele><time>2026-04-07T12:37:44.999Z</time></trkpt><trkpt lat="44.75867154940314" lon="7.241799135211281"><ele>1273.5</ele><time>2026-04-07T12:37:45.999Z</time></trkpt><trkpt lat="44.758553384469174" lon="7.2418537794507305"><ele>1276.75</ele><time>2026-04-07T12:37:46.999Z</time></trkpt><trkpt lat="44.75841498530647" lon="7.241834008724971"><ele>1280.0</ele><time>2026-04-07T12:37:47.999Z</time></trkpt><trkpt lat="44.75827435988341" lon="7.241798718230506"><ele>1280.0</ele><time>2026-04-07T12:37:48.999Z</time></trkpt><trkpt lat="44.7581288893172" lon="7.241761266314403"><ele>1280.0</ele><time>2026-04-07T12:37:49.999Z</time></trkpt><trkpt lat="44.757983785487305" lon="7.241742220163578"><ele>1280.0</ele><time>2026-04-07T12:37:50.999Z</time></trkpt><trkpt lat="44.757840735567385" lon="7.2416962027895435"><ele>1280.0</ele><time>2026-04-07T12:37:51.999Z</time></trkpt><trkpt lat="44.75769657182548" lon="7.241654176570093"><ele>1280.25</ele><time>2026-04-07T12:37:52.999Z</time></trkpt><trkpt lat="44.75755750116647" lon="7.241616407623755"><ele>1280.5</ele><time>2026-04-07T12:37:53.999Z</time></trkpt><trkpt lat="44.75741960323217" lon="7.2415791535202105"><ele>1280.75</ele><time>2026-04-07T12:37:54.999Z</time></trkpt><trkpt lat="44.757278830115986" lon="7.24152116947646"><ele>1281.0</ele><time>2026-04-07T12:37:55.999Z</time></trkpt><trkpt lat="44.75713436903619" lon="7.241482922997895"><ele>1281.3333333333333</ele><time>2026-04-07T12:37:56.999Z</time></trkpt><trkpt lat="44.75696882349973" lon="7.241445159739284"><ele>1281.6666666666665</ele><time>2026-04-07T12:37:57.999Z</time></trkpt><trkpt lat="44.756788836456295" lon="7.2414251638562055"><ele>1282.0</ele><time>2026-04-07T12:37:58.999Z</time></trkpt><trkpt lat="44.75660763568899" lon="7.241434721004718"><ele>1285.3333333333333</ele><time>2026-04-07T12:37:59.999Z</time></trkpt><trkpt lat="44.756454176078705" lon="7.241402752893677"><ele>1288.6666666666667</ele><time>2026-04-07T12:38:00.999Z</time></trkpt><trkpt lat="44.75630050233244" lon="7.241378946104749"><ele>1292.0</ele><time>2026-04-07T12:38:01.999Z</time></trkpt><trkpt lat="44.7561472292253" lon="7.241335401692374"><ele>1293.0</ele><time>2026-04-07T12:38:02.999Z</time></trkpt><trkpt lat="44.75599683376779" lon="7.241267704756189"><ele>1294.0</ele><time>2026-04-07T12:38:03.999Z</time></trkpt><trkpt lat="44.75586603818118" lon="7.241189357156393"><ele>1295.0</ele><time>2026-04-07T12:38:04.999Z</time></trkpt><trkpt lat="44.75574175373701" lon="7.24111311374037"><ele>1296.0</ele><time>2026-04-07T12:38:05.999Z</time></trkpt><trkpt lat="44.75563416843208" lon="7.241033610273418"><ele>1296.0</ele><time>2026-04-07T12:38:06.999Z</time></trkpt><trkpt lat="44.75553791289385" lon="7.240937893368765"><ele>1296.0</ele><time>2026-04-07T12:38:07.999Z</time></trkpt><trkpt lat="44.755458907515006" lon="7.240793480707207"><ele>1296.0</ele><time>2026-04-07T12:38:08.999Z</time></trkpt><trkpt lat="44.75537889411246" lon="7.24062903288233"><ele>1296.0</ele><time>2026-04-07T12:38:09.999Z</time></trkpt><trkpt lat="44.75532740155783" lon="7.240439253731615"><ele>1298.0</ele><time>2026-04-07T12:38:10.999Z</time></trkpt><trkpt lat="44.75528369099942" lon="7.240240607292113"><ele>1300.0</ele><time>2026-04-07T12:38:11.999Z</time></trkpt><trkpt lat="44.755219978227416" lon="7.240064107710663"><ele>1302.0</ele><time>2026-04-07T12:38:12.999Z</time></trkpt><trkpt lat="44.755122192005814" lon="7.23991384233972"><ele>1304.0</ele><time>2026-04-07T12:38:13.999Z</time></trkpt><trkpt lat="44.75500848764364" lon="7.239778835410065"><ele>1306.25</ele><time>2026-04-07T12:38:14.999Z</time></trkpt><trkpt lat="44.75490315330235" lon="7.239651845943755"><ele>1308.5</ele><time>2026-04-07T12:38:15.999Z</time></trkpt><trkpt lat="44.75482862913998" lon="7.239535667107012"><ele>1310.75</ele><time>2026-04-07T12:38:16.999Z</time></trkpt><trkpt lat="44.75480549899954" lon="7.239398263215544"><ele>1313.0</ele><time>2026-04-07T12:38:17.999Z</time></trkpt><trkpt lat="44.75477220833233" lon="7.239254326958475"><ele>1313.0</ele><time>2026-04-07T12:38:18.999Z</time></trkpt><trkpt lat="44.75477958746988" lon="7.239079449162463"><ele>1313.0</ele><time>2026-04-07T12:38:19.999Z</time></trkpt><trkpt lat="44.75477968865592" lon="7.238877123772796"><ele>1313.0</ele><time>2026-04-07T12:38:20.999Z</time></trkpt><trkpt lat="44.75476452522945" lon="7.238698968797514"><ele>1313.0</ele><time>2026-04-07T12:38:21.999Z</time></trkpt><trkpt lat="44.75474213112897" lon="7.238556953228355"><ele>1313.75</ele><time>2026-04-07T12:38:22.999Z</time></trkpt><trkpt lat="44.75470531729708" lon="7.2384084176122725"><ele>1314.5</ele><time>2026-04-07T12:38:23.999Z</time></trkpt><trkpt lat="44.75464576628588" lon="7.2382687426944905"><ele>1315.25</ele><time>2026-04-07T12:38:24.999Z</time></trkpt><trkpt lat="44.754589581350004" lon="7.238123578393328"><ele>1316.0</ele><time>2026-04-07T12:38:25.999Z</time></trkpt><trkpt lat="44.754502113852006" lon="7.238003195801075"><ele>1318.0</ele><time>2026-04-07T12:38:26.999Z</time></trkpt><trkpt lat="44.75439873012638" lon="7.237903341090204"><ele>1320.0</ele><time>2026-04-07T12:38:27.999Z</time></trkpt><trkpt lat="44.754274740170494" lon="7.237832366111772"><ele>1322.0</ele><time>2026-04-07T12:38:28.999Z</time></trkpt><trkpt lat="44.754151288507224" lon="7.237755531029439"><ele>1324.0</ele><time>2026-04-07T12:38:29.999Z</time></trkpt><trkpt lat="44.7540370192199" lon="7.237676387133659"><ele>1324.0</ele><time>2026-04-07T12:38:30.999Z</time></trkpt><trkpt lat="44.753940438372275" lon="7.237578202346041"><ele>1324.0</ele><time>2026-04-07T12:38:31.999Z</time></trkpt><trkpt lat="44.75388869029333" lon="7.237434150737723"><ele>1324.0</ele><time>2026-04-07T12:38:32.999Z</time></trkpt><trkpt lat="44.75384943972421" lon="7.237296661016363"><ele>1324.0</ele><time>2026-04-07T12:38:33.999Z</time></trkpt><trkpt lat="44.75380130010909" lon="7.2371856918474435"><ele>1324.0</ele><time>2026-04-07T12:38:34.999Z</time></trkpt><trkpt lat="44.75371813486651" lon="7.237095541585786"><ele>1325.6</ele><time>2026-04-07T12:38:36Z</time></trkpt><trkpt lat="44.75362260097903" lon="7.237006529539451"><ele>1327.2</ele><time>2026-04-07T12:38:37Z</time></trkpt><trkpt lat="44.753538065570616" lon="7.236904649326746"><ele>1328.8</ele><time>2026-04-07T12:38:38Z</time></trkpt><trkpt lat="44.75344894296164" lon="7.236828144578629"><ele>1330.3999999999999</ele><time>2026-04-07T12:38:39Z</time></trkpt><trkpt lat="44.75334945368664" lon="7.236774101457685"><ele>1332.0</ele><time>2026-04-07T12:38:40Z</time></trkpt><trkpt lat="44.753248129423" lon="7.236695475146601"><ele>1332.0</ele><time>2026-04-07T12:38:41Z</time></trkpt><trkpt lat="44.75314130792497" lon="7.23662490304939"><ele>1332.0</ele><time>2026-04-07T12:38:42Z</time></trkpt><trkpt lat="44.753024068493445" lon="7.236557380180139"><ele>1332.0</ele><time>2026-04-07T12:38:43Z</time></trkpt><trkpt lat="44.75289154807483" lon="7.236508323510461"><ele>1332.0</ele><time>2026-04-07T12:38:44Z</time></trkpt><trkpt lat="44.75274588168351" lon="7.236465920748859"><ele>1333.25</ele><time>2026-04-07T12:38:45Z</time></trkpt><trkpt lat="44.752599441989354" lon="7.2363971207467745"><ele>1334.5</ele><time>2026-04-07T12:38:46Z</time></trkpt><trkpt lat="44.75246426186924" lon="7.236319743607161"><ele>1335.75</ele><time>2026-04-07T12:38:47Z</time></trkpt><trkpt lat="44.75235015382271" lon="7.236222321601036"><ele>1337.0</ele><time>2026-04-07T12:38:48Z</time></trkpt><trkpt lat="44.752245627422134" lon="7.236103040326699"><ele>1337.0</ele><time>2026-04-07T12:38:49Z</time></trkpt><trkpt lat="44.75215698116874" lon="7.235966707726329"><ele>1337.0</ele><time>2026-04-07T12:38:50Z</time></trkpt><trkpt lat="44.75206963576325" lon="7.235814415915134"><ele>1337.0</ele><time>2026-04-07T12:38:51Z</time></trkpt><trkpt lat="44.75198177664659" lon="7.235667302162948"><ele>1337.0</ele><time>2026-04-07T12:38:52Z</time></trkpt><trkpt lat="44.751889473856586" lon="7.235533424131889"><ele>1343.0</ele><time>2026-04-07T12:38:53Z</time></trkpt><trkpt lat="44.75177924791156" lon="7.235419864326723"><ele>1349.0</ele><time>2026-04-07T12:38:54Z</time></trkpt><trkpt lat="44.751644707338656" lon="7.2353518782408655"><ele>1355.0</ele><time>2026-04-07T12:38:55Z</time></trkpt><trkpt lat="44.751503819786734" lon="7.235328755486502"><ele>1361.0</ele><time>2026-04-07T12:38:56Z</time></trkpt><trkpt lat="44.75136352313006" lon="7.235285628215385"><ele>1361.0</ele><time>2026-04-07T12:38:57Z</time></trkpt><trkpt lat="44.75121507414146" lon="7.235269166394116"><ele>1361.0</ele><time>2026-04-07T12:38:58Z</time></trkpt><trkpt lat="44.75107278850857" lon="7.235227219353693"><ele>1361.0</ele><time>2026-04-07T12:38:59Z</time></trkpt><trkpt lat="44.7509456933728" lon="7.235191179966321"><ele>1361.0</ele><time>2026-04-07T12:39:00Z</time></trkpt><trkpt lat="44.75081743384484" lon="7.235135298636472"><ele>1362.75</ele><time>2026-04-07T12:39:01Z</time></trkpt><trkpt lat="44.750690836859455" lon="7.235063151368569"><ele>1364.5</ele><time>2026-04-07T12:39:02Z</time></trkpt><trkpt lat="44.75055836537186" lon="7.234992189406189"><ele>1366.25</ele><time>2026-04-07T12:39:03Z</time></trkpt><trkpt lat="44.75042953616003" lon="7.234896867278066"><ele>1368.0</ele><time>2026-04-07T12:39:04Z</time></trkpt><trkpt lat="44.750290040932065" lon="7.234819799572468"><ele>1374.0</ele><time>2026-04-07T12:39:05Z</time></trkpt><trkpt lat="44.75015146788701" lon="7.234746870068626"><ele>1380.0</ele><time>2026-04-07T12:39:06Z</time></trkpt><trkpt lat="44.75000025728499" lon="7.234670911008188"><ele>1386.0</ele><time>2026-04-07T12:39:07Z</time></trkpt><trkpt lat="44.74983632232059" lon="7.234592137197386"><ele>1386.0</ele><time>2026-04-07T12:39:08Z</time></trkpt><trkpt lat="44.7496597591729" lon="7.234511976179331"><ele>1386.0</ele><time>2026-04-07T12:39:09Z</time></trkpt><trkpt lat="44.74946909071653" lon="7.234441202313706"><ele>1386.0</ele><time>2026-04-07T12:39:10Z</time></trkpt><trkpt lat="44.74927940710708" lon="7.234386068231382"><ele>1384.0</ele><time>2026-04-07T12:39:11Z</time></trkpt><trkpt lat="44.74909713486774" lon="7.23434298853199"><ele>1382.0</ele><time>2026-04-07T12:39:12Z</time></trkpt><trkpt lat="44.74889872613584" lon="7.234306230119935"><ele>1380.0</ele><time>2026-04-07T12:39:13Z</time></trkpt><trkpt lat="44.74870621315993" lon="7.2342904834504935"><ele>1380.3333333333333</ele><time>2026-04-07T12:39:14Z</time></trkpt><trkpt lat="44.74853168907842" lon="7.2342830906998925"><ele>1380.6666666666665</ele><time>2026-04-07T12:39:15Z</time></trkpt><trkpt lat="44.748369722577365" lon="7.2342803149280375"><ele>1381.0</ele><time>2026-04-07T12:39:16Z</time></trkpt><trkpt lat="44.748208439445264" lon="7.234304693567317"><ele>1381.0</ele><time>2026-04-07T12:39:17Z</time></trkpt><trkpt lat="44.7480569974929" lon="7.234293596769752"><ele>1381.0</ele><time>2026-04-07T12:39:18Z</time></trkpt><trkpt lat="44.74791524860781" lon="7.234313925667141"><ele>1381.0</ele><time>2026-04-07T12:39:19Z</time></trkpt><trkpt lat="44.74782693282177" lon="7.234331395503424"><ele>1381.0</ele><time>2026-04-07T12:39:20Z</time></trkpt><trkpt lat="44.74777255941496" lon="7.234388848759242"><ele>1381.6666666666665</ele><time>2026-04-07T12:39:22Z</time></trkpt><trkpt lat="44.74766721844098" lon="7.234380817473154"><ele>1382.3333333333333</ele><time>2026-04-07T12:39:55.999Z</time></trkpt><trkpt lat="44.74761370917157" lon="7.234456953599365"><ele>1383.0</ele><time>2026-04-07T12:39:56.999Z</time></trkpt><trkpt lat="44.74753399526703" lon="7.234445622146713"><ele>1383.6666666666667</ele><time>2026-04-07T12:39:57.999Z</time></trkpt><trkpt lat="44.747454062304676" lon="7.2344391463010185"><ele>1384.3333333333335</ele><time>2026-04-07T12:39:58.999Z</time></trkpt><trkpt lat="44.74736706934793" lon="7.234445591837364"><ele>1385.0</ele><time>2026-04-07T12:39:59.999Z</time></trkpt><trkpt lat="44.74725504297582" lon="7.2344001008751935"><ele>1385.0</ele><time>2026-04-07T12:40:00.999Z</time></trkpt><trkpt lat="44.74710713356788" lon="7.234398148010633"><ele>1385.0</ele><time>2026-04-07T12:40:01.999Z</time></trkpt><trkpt lat="44.74696444252032" lon="7.234407555234191"><ele>1385.0</ele><time>2026-04-07T12:40:02.999Z</time></trkpt><trkpt lat="44.74682600532249" lon="7.234438945451417"><ele>1385.0</ele><time>2026-04-07T12:40:03.999Z</time></trkpt><trkpt lat="44.746670004283956" lon="7.234485105264277"><ele>1388.0</ele><time>2026-04-07T12:40:04.999Z</time></trkpt><trkpt lat="44.74650055524877" lon="7.2345532666548795"><ele>1391.0</ele><time>2026-04-07T12:40:05.999Z</time></trkpt><trkpt lat="44.74632476462202" lon="7.234590261295079"><ele>1394.0</ele><time>2026-04-07T12:40:06.999Z</time></trkpt><trkpt lat="44.74617113322719" lon="7.234603206359427"><ele>1398.6666666666667</ele><time>2026-04-07T12:40:07.999Z</time></trkpt><trkpt lat="44.74601225982058" lon="7.234573870253275"><ele>1403.3333333333333</ele><time>2026-04-07T12:40:08.999Z</time></trkpt><trkpt lat="44.745834249381986" lon="7.234525159745272"><ele>1408.0</ele><time>2026-04-07T12:40:09.999Z</time></trkpt><trkpt lat="44.745656018654984" lon="7.234496536554385"><ele>1408.0</ele><time>2026-04-07T12:40:10.999Z</time></trkpt><trkpt lat="44.74550602352841" lon="7.2344764174586755"><ele>1408.0</ele><time>2026-04-07T12:40:11.999Z</time></trkpt><trkpt lat="44.745369455655585" lon="7.234476626135364"><ele>1408.0</ele><time>2026-04-07T12:40:12.999Z</time></trkpt><trkpt lat="44.74524707259011" lon="7.2344842005308525"><ele>1408.0</ele><time>2026-04-07T12:40:13.999Z</time></trkpt><trkpt lat="44.745122433348946" lon="7.234500691732392"><ele>1403.3333333333333</ele><time>2026-04-07T12:40:14.999Z</time></trkpt><trkpt lat="44.74498824304345" lon="7.234590996170767"><ele>1398.6666666666667</ele><time>2026-04-07T12:40:15.999Z</time></trkpt><trkpt lat="44.74486413653788" lon="7.234722443356368"><ele>1394.0</ele><time>2026-04-07T12:40:16.999Z</time></trkpt><trkpt lat="44.744754166669594" lon="7.234883898882193"><ele>1394.0</ele><time>2026-04-07T12:40:17.999Z</time></trkpt><trkpt lat="44.74464732892361" lon="7.235056533019479"><ele>1394.0</ele><time>2026-04-07T12:40:18.999Z</time></trkpt><trkpt lat="44.744547025661085" lon="7.235263762356317"><ele>1394.0</ele><time>2026-04-07T12:40:19.999Z</time></trkpt><trkpt lat="44.74442298014686" lon="7.235444588443691"><ele>1399.0</ele><time>2026-04-07T12:40:20.999Z</time></trkpt><trkpt lat="44.7442923676237" lon="7.235647059124186"><ele>1404.0</ele><time>2026-04-07T12:40:21.999Z</time></trkpt><trkpt lat="44.74416069158018" lon="7.235862939500316"><ele>1409.0</ele><time>2026-04-07T12:40:22.999Z</time></trkpt><trkpt lat="44.74402888316575" lon="7.236060071697215"><ele>1409.0</ele><time>2026-04-07T12:40:23.999Z</time></trkpt><trkpt lat="44.74391971806263" lon="7.236211122123109"><ele>1409.0</ele><time>2026-04-07T12:40:24.999Z</time></trkpt><trkpt lat="44.74381304321903" lon="7.236368278485337"><ele>1409.0</ele><time>2026-04-07T12:40:25.999Z</time></trkpt><trkpt lat="44.743721765165695" lon="7.23649283210123"><ele>1409.0</ele><time>2026-04-07T12:40:26.999Z</time></trkpt><trkpt lat="44.7436486848783" lon="7.236584841850857"><ele>1408.5</ele><time>2026-04-07T12:40:27.999Z</time></trkpt><trkpt lat="44.74357893811042" lon="7.236608732192262"><ele>1408.0</ele><time>2026-04-07T12:40:28.999Z</time></trkpt><trkpt lat="44.74345832734619" lon="7.23661378305881"><ele>1407.5</ele><time>2026-04-07T12:40:30.999Z</time></trkpt><trkpt lat="44.743413235472" lon="7.2365226228760635"><ele>1407.0</ele><time>2026-04-07T12:40:31.999Z</time></trkpt><trkpt lat="44.7434044884144" lon="7.23640995628399"><ele>1406.5</ele><time>2026-04-07T12:40:32.999Z</time></trkpt><trkpt lat="44.74341648702117" lon="7.2362766031357735"><ele>1406.0</ele><time>2026-04-07T12:40:33.999Z</time></trkpt><trkpt lat="44.743436050233186" lon="7.236136673168855"><ele>1406.0</ele><time>2026-04-07T12:40:34.999Z</time></trkpt><trkpt lat="44.74345703368979" lon="7.23597987907237"><ele>1406.0</ele><time>2026-04-07T12:40:35.999Z</time></trkpt><trkpt lat="44.743499969438965" lon="7.235821417020196"><ele>1406.0</ele><time>2026-04-07T12:40:36.999Z</time></trkpt><trkpt lat="44.743550397033566" lon="7.2356518020360525"><ele>1406.0</ele><time>2026-04-07T12:40:37.999Z</time></trkpt><trkpt lat="44.74357076889949" lon="7.235465796370234"><ele>1410.75</ele><time>2026-04-07T12:40:38.999Z</time></trkpt><trkpt lat="44.74357073199413" lon="7.235287263925239"><ele>1415.5</ele><time>2026-04-07T12:40:39.999Z</time></trkpt><trkpt lat="44.743566410327595" lon="7.235096666374123"><ele>1420.25</ele><time>2026-04-07T12:40:40.999Z</time></trkpt><trkpt lat="44.74355782942275" lon="7.234890130657061"><ele>1425.0</ele><time>2026-04-07T12:40:42Z</time></trkpt><trkpt lat="44.743530624624974" lon="7.234691422799975"><ele>1428.3333333333333</ele><time>2026-04-07T12:40:43Z</time></trkpt><trkpt lat="44.743481463718936" lon="7.234493268558236"><ele>1431.6666666666665</ele><time>2026-04-07T12:40:44Z</time></trkpt><trkpt lat="44.74340465601516" lon="7.234284932396441"><ele>1435.0</ele><time>2026-04-07T12:40:45Z</time></trkpt><trkpt lat="44.74332114241719" lon="7.234073987960972"><ele>1444.0</ele><time>2026-04-07T12:40:46Z</time></trkpt><trkpt lat="44.74323740848611" lon="7.233885413481475"><ele>1453.0</ele><time>2026-04-07T12:40:47Z</time></trkpt><trkpt lat="44.74315562122187" lon="7.2336940863368735"><ele>1462.0</ele><time>2026-04-07T12:40:48Z</time></trkpt><trkpt lat="44.74307717178229" lon="7.233481690624289"><ele>1462.0</ele><time>2026-04-07T12:40:49Z</time></trkpt><trkpt lat="44.74301051346277" lon="7.233256505299658"><ele>1462.0</ele><time>2026-04-07T12:40:50Z</time></trkpt><trkpt lat="44.74296287579862" lon="7.233024907639479"><ele>1462.0</ele><time>2026-04-07T12:40:51Z</time></trkpt><trkpt lat="44.742928887087636" lon="7.232783767201279"><ele>1466.6666666666665</ele><time>2026-04-07T12:40:52Z</time></trkpt><trkpt lat="44.742903263272595" lon="7.23254601772892"><ele>1471.3333333333333</ele><time>2026-04-07T12:40:53Z</time></trkpt><trkpt lat="44.74289029173509" lon="7.23231897308975"><ele>1476.0</ele><time>2026-04-07T12:40:54Z</time></trkpt><trkpt lat="44.742879413947804" lon="7.232119409318197"><ele>1479.0</ele><time>2026-04-07T12:40:55Z</time></trkpt><trkpt lat="44.74287866028458" lon="7.231903422504304"><ele>1482.0</ele><time>2026-04-07T12:40:56Z</time></trkpt><trkpt lat="44.742891407021865" lon="7.231678619869407"><ele>1485.0</ele><time>2026-04-07T12:40:57Z</time></trkpt><trkpt lat="44.74291024488797" lon="7.2314596203736485"><ele>1488.3333333333333</ele><time>2026-04-07T12:40:58Z</time></trkpt><trkpt lat="44.74290508682202" lon="7.231247951307688"><ele>1491.6666666666665</ele><time>2026-04-07T12:40:59Z</time></trkpt><trkpt lat="44.74286967569985" lon="7.231031893192021"><ele>1495.0</ele><time>2026-04-07T12:41:00Z</time></trkpt><trkpt lat="44.74281191048811" lon="7.230828463625629"><ele>1495.0</ele><time>2026-04-07T12:41:01Z</time></trkpt><trkpt lat="44.74272918221403" lon="7.230643968935037"><ele>1495.0</ele><time>2026-04-07T12:41:02Z</time></trkpt><trkpt lat="44.742631182278195" lon="7.230460145988619"><ele>1495.0</ele><time>2026-04-07T12:41:03Z</time></trkpt><trkpt lat="44.74255365477481" lon="7.230297713282973"><ele>1496.0</ele><time>2026-04-07T12:41:04Z</time></trkpt><trkpt lat="44.74248354406523" lon="7.230165224353038"><ele>1497.0</ele><time>2026-04-07T12:41:05Z</time></trkpt><trkpt lat="44.74243948754934" lon="7.230055540804865"><ele>1498.0</ele><time>2026-04-07T12:41:06Z</time></trkpt><trkpt lat="44.74239974662478" lon="7.229976617846656"><ele>1499.0</ele><time>2026-04-07T12:41:07Z</time></trkpt><trkpt lat="44.74233950082473" lon="7.22984116207544"><ele>1500.0</ele><time>2026-04-07T12:41:09Z</time></trkpt><trkpt lat="44.742372158901595" lon="7.229693495979267"><ele>1500.0</ele><time>2026-04-07T12:41:11Z</time></trkpt><trkpt lat="44.74244936024482" lon="7.229672776715428"><ele>1500.0</ele><time>2026-04-07T12:41:12Z</time></trkpt><trkpt lat="44.74252809829369" lon="7.229718572568052"><ele>1500.0</ele><time>2026-04-07T12:41:13Z</time></trkpt><trkpt lat="44.74258492240487" lon="7.229847480462468"><ele>1500.0</ele><time>2026-04-07T12:41:14Z</time></trkpt><trkpt lat="44.74268723260691" lon="7.229961056134119"><ele>1500.0</ele><time>2026-04-07T12:41:15Z</time></trkpt><trkpt lat="44.742813309512194" lon="7.230071660489584"><ele>1503.0</ele><time>2026-04-07T12:41:16Z</time></trkpt><trkpt lat="44.742932610340254" lon="7.230215989211002"><ele>1506.0</ele><time>2026-04-07T12:41:17Z</time></trkpt><trkpt lat="44.74305767948796" lon="7.230371855891925"><ele>1509.0</ele><time>2026-04-07T12:41:18Z</time></trkpt><trkpt lat="44.74318074343956" lon="7.2305472371590795"><ele>1504.3333333333333</ele><time>2026-04-07T12:41:19Z</time></trkpt><trkpt lat="44.74328778576117" lon="7.230770789771262"><ele>1499.6666666666665</ele><time>2026-04-07T12:41:20Z</time></trkpt><trkpt lat="44.74339353104364" lon="7.230950204563528"><ele>1495.0</ele><time>2026-04-07T12:41:21Z</time></trkpt><trkpt lat="44.74348659592997" lon="7.231150200863182"><ele>1500.75</ele><time>2026-04-07T12:41:22Z</time></trkpt><trkpt lat="44.74356696520677" lon="7.231327001048202"><ele>1506.5</ele><time>2026-04-07T12:41:23Z</time></trkpt><trkpt lat="44.74364221974633" lon="7.231484774681567"><ele>1512.25</ele><time>2026-04-07T12:41:24Z</time></trkpt><trkpt lat="44.74370478217759" lon="7.231611840223397"><ele>1518.0</ele><time>2026-04-07T12:41:25Z</time></trkpt><trkpt lat="44.743767644400705" lon="7.231748234175201"><ele>1518.0</ele><time>2026-04-07T12:41:26Z</time></trkpt><trkpt lat="44.7438375913241" lon="7.231892618171305"><ele>1518.0</ele><time>2026-04-07T12:41:27Z</time></trkpt><trkpt lat="44.74391860464246" lon="7.232028464959788"><ele>1518.0</ele><time>2026-04-07T12:41:28Z</time></trkpt><trkpt lat="44.7440154081994" lon="7.232155396821153"><ele>1518.0</ele><time>2026-04-07T12:41:29Z</time></trkpt><trkpt lat="44.74411614833214" lon="7.232249182022867"><ele>1513.75</ele><time>2026-04-07T12:41:30Z</time></trkpt><trkpt lat="44.74422266187627" lon="7.232310653765851"><ele>1509.5</ele><time>2026-04-07T12:41:31Z</time></trkpt><trkpt lat="44.7443402458354" lon="7.232333940510551"><ele>1505.25</ele><time>2026-04-07T12:41:32Z</time></trkpt><trkpt lat="44.74447371076812" lon="7.232313064733501"><ele>1501.0</ele><time>2026-04-07T12:41:33Z</time></trkpt><trkpt lat="44.74461036162942" lon="7.232269761139918"><ele>1512.6666666666665</ele><time>2026-04-07T12:41:34Z</time></trkpt><trkpt lat="44.74474812690805" lon="7.232204169613703"><ele>1524.3333333333333</ele><time>2026-04-07T12:41:35Z</time></trkpt><trkpt lat="44.744890874926476" lon="7.232124264253317"><ele>1536.0</ele><time>2026-04-07T12:41:36Z</time></trkpt><trkpt lat="44.74504307087247" lon="7.232037202717988"><ele>1536.0</ele><time>2026-04-07T12:41:37Z</time></trkpt><trkpt lat="44.7451985247773" lon="7.2319378668219505"><ele>1536.0</ele><time>2026-04-07T12:41:38Z</time></trkpt><trkpt lat="44.74535402896424" lon="7.231820017994986"><ele>1536.0</ele><time>2026-04-07T12:41:39Z</time></trkpt><trkpt lat="44.74552270402918" lon="7.231725877717166"><ele>1533.0</ele><time>2026-04-07T12:41:40Z</time></trkpt><trkpt lat="44.74569334509247" lon="7.2316415193518635"><ele>1530.0</ele><time>2026-04-07T12:41:41Z</time></trkpt><trkpt lat="44.74585671997549" lon="7.231576238355273"><ele>1527.0</ele><time>2026-04-07T12:41:42Z</time></trkpt><trkpt lat="44.74602760586702" lon="7.231518034883631"><ele>1528.3333333333333</ele><time>2026-04-07T12:41:43Z</time></trkpt><trkpt lat="44.74618708143297" lon="7.231469234164351"><ele>1529.6666666666665</ele><time>2026-04-07T12:41:44Z</time></trkpt><trkpt lat="44.74634922055302" lon="7.231416976960851"><ele>1531.0</ele><time>2026-04-07T12:41:45Z</time></trkpt><trkpt lat="44.746491241252755" lon="7.231363769784359"><ele>1531.0</ele><time>2026-04-07T12:41:46Z</time></trkpt><trkpt lat="44.74661244404443" lon="7.2313056184584426"><ele>1531.0</ele><time>2026-04-07T12:41:47Z</time></trkpt><trkpt lat="44.746720509590524" lon="7.231250714751124"><ele>1531.0</ele><time>2026-04-07T12:41:48Z</time></trkpt><trkpt lat="44.74681296084669" lon="7.231182806589663"><ele>1531.0</ele><time>2026-04-07T12:41:49Z</time></trkpt><trkpt lat="44.74688997321673" lon="7.231083662816818"><ele>1523.0</ele><time>2026-04-07T12:41:50Z</time></trkpt><trkpt lat="44.74694938295323" lon="7.230948767402882"><ele>1515.0</ele><time>2026-04-07T12:41:51Z</time></trkpt><trkpt lat="44.7469997556042" lon="7.230783398733125"><ele>1507.0</ele><time>2026-04-07T12:41:52Z</time></trkpt><trkpt lat="44.74703028550528" lon="7.230602022067185"><ele>1499.0</ele><time>2026-04-07T12:41:52.999Z</time></trkpt><trkpt lat="44.747063021636464" lon="7.230411902393381"><ele>1499.0</ele><time>2026-04-07T12:41:53.999Z</time></trkpt><trkpt lat="44.74706297625882" lon="7.2301854434636"><ele>1499.0</ele><time>2026-04-07T12:41:54.999Z</time></trkpt><trkpt lat="44.74708754478903" lon="7.229961762113464"><ele>1499.0</ele><time>2026-04-07T12:41:55.999Z</time></trkpt><trkpt lat="44.747098043071816" lon="7.229733531939514"><ele>1502.3333333333335</ele><time>2026-04-07T12:41:56.999Z</time></trkpt><trkpt lat="44.74711957772631" lon="7.229491962038883"><ele>1505.6666666666667</ele><time>2026-04-07T12:41:57.999Z</time></trkpt><trkpt lat="44.747146447524614" lon="7.229242859891525"><ele>1509.0</ele><time>2026-04-07T12:41:58.999Z</time></trkpt><trkpt lat="44.74718112070538" lon="7.229023301125169"><ele>1510.25</ele><time>2026-04-07T12:41:59.999Z</time></trkpt><trkpt lat="44.74721821726924" lon="7.2288262076618395"><ele>1511.5</ele><time>2026-04-07T12:42:00.999Z</time></trkpt><trkpt lat="44.74726639262126" lon="7.228634304536592"><ele>1512.75</ele><time>2026-04-07T12:42:01.999Z</time></trkpt><trkpt lat="44.74733267137588" lon="7.2284550497510045"><ele>1514.0</ele><time>2026-04-07T12:42:02.999Z</time></trkpt><trkpt lat="44.74742159761782" lon="7.228281456249868"><ele>1514.0</ele><time>2026-04-07T12:42:03.999Z</time></trkpt><trkpt lat="44.74750073190731" lon="7.228145203423302"><ele>1514.0</ele><time>2026-04-07T12:42:04.999Z</time></trkpt><trkpt lat="44.74756161373218" lon="7.228025803585294"><ele>1514.0</ele><time>2026-04-07T12:42:05.999Z</time></trkpt><trkpt lat="44.74763401423625" lon="7.227912261604122"><ele>1514.0</ele><time>2026-04-07T12:42:06.999Z</time></trkpt><trkpt lat="44.747710952373936" lon="7.227812788049726"><ele>1514.0</ele><time>2026-04-07T12:42:07.999Z</time></trkpt><trkpt lat="44.74780438306612" lon="7.2277380209599285"><ele>1511.5</ele><time>2026-04-07T12:42:08.999Z</time></trkpt><trkpt lat="44.747929281177264" lon="7.2277097919267375"><ele>1509.0</ele><time>2026-04-07T12:42:09.999Z</time></trkpt><trkpt lat="44.74805566903542" lon="7.22766564074991"><ele>1506.5</ele><time>2026-04-07T12:42:10.999Z</time></trkpt><trkpt lat="44.74818568567096" lon="7.227558764353766"><ele>1504.0</ele><time>2026-04-07T12:42:11.999Z</time></trkpt><trkpt lat="44.7483033402068" lon="7.227410721775547"><ele>1506.3333333333333</ele><time>2026-04-07T12:42:12.999Z</time></trkpt><trkpt lat="44.748419051990226" lon="7.227233038759703"><ele>1508.6666666666667</ele><time>2026-04-07T12:42:13.999Z</time></trkpt><trkpt lat="44.7485494985693" lon="7.227078148933788"><ele>1511.0</ele><time>2026-04-07T12:42:14.999Z</time></trkpt><trkpt lat="44.748692040531736" lon="7.226955588426271"><ele>1511.0</ele><time>2026-04-07T12:42:15.999Z</time></trkpt><trkpt lat="44.74884152440577" lon="7.2268568886763855"><ele>1511.0</ele><time>2026-04-07T12:42:16.999Z</time></trkpt><trkpt lat="44.74900331451532" lon="7.226758278731156"><ele>1511.0</ele><time>2026-04-07T12:42:17.999Z</time></trkpt><trkpt lat="44.74916311109169" lon="7.226648416863606"><ele>1511.0</ele><time>2026-04-07T12:42:18.999Z</time></trkpt><trkpt lat="44.749324969151786" lon="7.226531001565976"><ele>1511.0</ele><time>2026-04-07T12:42:19.999Z</time></trkpt><trkpt lat="44.74949492145996" lon="7.226393265580719"><ele>1511.0</ele><time>2026-04-07T12:42:20.999Z</time></trkpt><trkpt lat="44.74966402653526" lon="7.226227415350891"><ele>1512.0</ele><time>2026-04-07T12:42:21.999Z</time></trkpt><trkpt lat="44.749831203138214" lon="7.2260422018265364"><ele>1513.0</ele><time>2026-04-07T12:42:22.999Z</time></trkpt><trkpt lat="44.74998995578031" lon="7.22586247272855"><ele>1514.0</ele><time>2026-04-07T12:42:23.999Z</time></trkpt><trkpt lat="44.750135782291494" lon="7.225708277360253"><ele>1518.6666666666667</ele><time>2026-04-07T12:42:24.999Z</time></trkpt><trkpt lat="44.750287904683375" lon="7.2255918533134915"><ele>1523.3333333333333</ele><time>2026-04-07T12:42:25.999Z</time></trkpt><trkpt lat="44.750460173496755" lon="7.225496553578935"><ele>1528.0</ele><time>2026-04-07T12:42:26.999Z</time></trkpt><trkpt lat="44.75062431993766" lon="7.225414313052624"><ele>1528.0</ele><time>2026-04-07T12:42:27.999Z</time></trkpt><trkpt lat="44.750758730845476" lon="7.2253423831534995"><ele>1528.0</ele><time>2026-04-07T12:42:28.999Z</time></trkpt><trkpt lat="44.75087216422765" lon="7.225266508410958"><ele>1528.0</ele><time>2026-04-07T12:42:29.999Z</time></trkpt><trkpt lat="44.75097376576999" lon="7.225168701828997"><ele>1528.0</ele><time>2026-04-07T12:42:30.999Z</time></trkpt><trkpt lat="44.75107162682087" lon="7.225033925320732"><ele>1525.3333333333333</ele><time>2026-04-07T12:42:31.999Z</time></trkpt><trkpt lat="44.75116477879595" lon="7.224877950496024"><ele>1522.6666666666667</ele><time>2026-04-07T12:42:32.999Z</time></trkpt><trkpt lat="44.75125484890836" lon="7.224708613900335"><ele>1520.0</ele><time>2026-04-07T12:42:33.999Z</time></trkpt><trkpt lat="44.75134263133555" lon="7.224527073314071"><ele>1520.0</ele><time>2026-04-07T12:42:34.999Z</time></trkpt><trkpt lat="44.751425467198445" lon="7.224330294530041"><ele>1520.0</ele><time>2026-04-07T12:42:35.999Z</time></trkpt><trkpt lat="44.75150872508671" lon="7.22413112399935"><ele>1520.0</ele><time>2026-04-07T12:42:36.999Z</time></trkpt><trkpt lat="44.75160324672424" lon="7.223939776695934"><ele>1519.3333333333335</ele><time>2026-04-07T12:42:37.999Z</time></trkpt><trkpt lat="44.75170927840714" lon="7.223758377890147"><ele>1518.6666666666667</ele><time>2026-04-07T12:42:38.999Z</time></trkpt><trkpt lat="44.75182551021502" lon="7.223570055846299"><ele>1518.0</ele><time>2026-04-07T12:42:39.999Z</time></trkpt><trkpt lat="44.75194657813417" lon="7.22337903121973"><ele>1518.0</ele><time>2026-04-07T12:42:40.999Z</time></trkpt><trkpt lat="44.75207601290649" lon="7.223189029270105"><ele>1518.0</ele><time>2026-04-07T12:42:41.999Z</time></trkpt><trkpt lat="44.75221433121171" lon="7.222995759149804"><ele>1518.0</ele><time>2026-04-07T12:42:42.999Z</time></trkpt><trkpt lat="44.75235742732343" lon="7.222805613554121"><ele>1521.3333333333333</ele><time>2026-04-07T12:42:43.999Z</time></trkpt><trkpt lat="44.752514080993734" lon="7.22262949926552"><ele>1524.6666666666665</ele><time>2026-04-07T12:42:44.999Z</time></trkpt><trkpt lat="44.752661916511855" lon="7.222479890577464"><ele>1528.0</ele><time>2026-04-07T12:42:45.999Z</time></trkpt><trkpt lat="44.75280044734879" lon="7.222353305248156"><ele>1536.6666666666665</ele><time>2026-04-07T12:42:46.999Z</time></trkpt><trkpt lat="44.752943500543424" lon="7.222247993962948"><ele>1545.3333333333333</ele><time>2026-04-07T12:42:48Z</time></trkpt><trkpt lat="44.753093773094115" lon="7.222166044532311"><ele>1554.0</ele><time>2026-04-07T12:42:49Z</time></trkpt><trkpt lat="44.753246072534075" lon="7.2221066416685185"><ele>1554.0</ele><time>2026-04-07T12:42:50Z</time></trkpt><trkpt lat="44.75339080053177" lon="7.222066551187123"><ele>1554.0</ele><time>2026-04-07T12:42:51Z</time></trkpt><trkpt lat="44.753528547157465" lon="7.222033719655691"><ele>1554.0</ele><time>2026-04-07T12:42:52Z</time></trkpt><trkpt lat="44.75365868766347" lon="7.222009255989015"><ele>1554.0</ele><time>2026-04-07T12:42:53Z</time></trkpt><trkpt lat="44.753787696186436" lon="7.221994853821153"><ele>1553.25</ele><time>2026-04-07T12:42:54Z</time></trkpt><trkpt lat="44.75391366098186" lon="7.221993945003635"><ele>1552.5</ele><time>2026-04-07T12:42:55Z</time></trkpt><trkpt lat="44.75402769673975" lon="7.222000425955775"><ele>1551.75</ele><time>2026-04-07T12:42:56Z</time></trkpt><trkpt lat="44.75414391752516" lon="7.222004760934628"><ele>1551.0</ele><time>2026-04-07T12:42:57Z</time></trkpt><trkpt lat="44.754256939657154" lon="7.222004482414627"><ele>1551.0</ele><time>2026-04-07T12:42:58Z</time></trkpt><trkpt lat="44.75437008520528" lon="7.221986676478737"><ele>1551.0</ele><time>2026-04-07T12:42:59Z</time></trkpt><trkpt lat="44.75448945060623" lon="7.221962196188847"><ele>1551.0</ele><time>2026-04-07T12:43:00Z</time></trkpt><trkpt lat="44.75461163582839" lon="7.221915721114631"><ele>1551.0</ele><time>2026-04-07T12:43:01Z</time></trkpt><trkpt lat="44.75473283384384" lon="7.2218429207802215"><ele>1549.0</ele><time>2026-04-07T12:43:02Z</time></trkpt><trkpt lat="44.75485490317639" lon="7.221757624056176"><ele>1547.0</ele><time>2026-04-07T12:43:03Z</time></trkpt><trkpt lat="44.75497173365057" lon="7.221668596692368"><ele>1545.0</ele><time>2026-04-07T12:43:04Z</time></trkpt><trkpt lat="44.755090424928056" lon="7.221570961650705"><ele>1543.0</ele><time>2026-04-07T12:43:05Z</time></trkpt><trkpt lat="44.7552089155225" lon="7.221467668430593"><ele>1542.5</ele><time>2026-04-07T12:43:06Z</time></trkpt><trkpt lat="44.75532765949433" lon="7.221358853837483"><ele>1542.0</ele><time>2026-04-07T12:43:07Z</time></trkpt><trkpt lat="44.755445720786106" lon="7.221252863151118"><ele>1541.5</ele><time>2026-04-07T12:43:08Z</time></trkpt><trkpt lat="44.755553989454185" lon="7.221150970326825"><ele>1541.0</ele><time>2026-04-07T12:43:09Z</time></trkpt><trkpt lat="44.75565789104435" lon="7.221062431681482"><ele>1541.0</ele><time>2026-04-07T12:43:10Z</time></trkpt><trkpt lat="44.75575553820337" lon="7.220963886847676"><ele>1541.0</ele><time>2026-04-07T12:43:11Z</time></trkpt><trkpt lat="44.75586775229293" lon="7.220887918615452"><ele>1541.0</ele><time>2026-04-07T12:43:12Z</time></trkpt><trkpt lat="44.75598876565555" lon="7.220824195609059"><ele>1541.0</ele><time>2026-04-07T12:43:13Z</time></trkpt><trkpt lat="44.7560999951149" lon="7.220768045658068"><ele>1541.6</ele><time>2026-04-07T12:43:14Z</time></trkpt><trkpt lat="44.756217861670784" lon="7.220718111097401"><ele>1542.1999999999998</ele><time>2026-04-07T12:43:15Z</time></trkpt><trkpt lat="44.756326648994836" lon="7.220670483465297"><ele>1542.8000000000002</ele><time>2026-04-07T12:43:16Z</time></trkpt><trkpt lat="44.756424986936025" lon="7.220620378312195"><ele>1543.4</ele><time>2026-04-07T12:43:17Z</time></trkpt><trkpt lat="44.75651766051299" lon="7.220562286691042"><ele>1544.0</ele><time>2026-04-07T12:43:18Z</time></trkpt><trkpt lat="44.756603766498216" lon="7.220497533731986"><ele>1544.0</ele><time>2026-04-07T12:43:19Z</time></trkpt><trkpt lat="44.75668503494029" lon="7.220429852250536"><ele>1544.0</ele><time>2026-04-07T12:43:20Z</time></trkpt><trkpt lat="44.75676658070376" lon="7.220353441396005"><ele>1544.0</ele><time>2026-04-07T12:43:21Z</time></trkpt><trkpt lat="44.756848241862706" lon="7.220272567640857"><ele>1544.0</ele><time>2026-04-07T12:43:22Z</time></trkpt><trkpt lat="44.756927587456225" lon="7.220190377421891"><ele>1544.0</ele><time>2026-04-07T12:43:23Z</time></trkpt><trkpt lat="44.75700202238061" lon="7.220112681226489"><ele>1541.9999999999998</ele><time>2026-04-07T12:43:24Z</time></trkpt><trkpt lat="44.75707552571061" lon="7.220036180479057"><ele>1540.0</ele><time>2026-04-07T12:43:25Z</time></trkpt><trkpt lat="44.75714142960636" lon="7.219962972898419"><ele>1538.0</ele><time>2026-04-07T12:43:26Z</time></trkpt><trkpt lat="44.75720503817573" lon="7.21988962016562"><ele>1536.0</ele><time>2026-04-07T12:43:27Z</time></trkpt><trkpt lat="44.757267520315345" lon="7.219817487808067"><ele>1534.0</ele><time>2026-04-07T12:43:28Z</time></trkpt><trkpt lat="44.75732816052866" lon="7.219739211794532"><ele>1532.0</ele><time>2026-04-07T12:43:29Z</time></trkpt><trkpt lat="44.75739024527252" lon="7.219674096395814"><ele>1532.0</ele><time>2026-04-07T12:43:30Z</time></trkpt><trkpt lat="44.757443470879664" lon="7.219606789922887"><ele>1532.0</ele><time>2026-04-07T12:43:31Z</time></trkpt><trkpt lat="44.757492951574896" lon="7.219533662909122"><ele>1532.0</ele><time>2026-04-07T12:43:32Z</time></trkpt><trkpt lat="44.75753755846274" lon="7.219457986134049"><ele>1532.0</ele><time>2026-04-07T12:43:33Z</time></trkpt><trkpt lat="44.757550099574445" lon="7.21935265386078"><ele>1532.0</ele><time>2026-04-07T12:43:34Z</time></trkpt><trkpt lat="44.757580630398834" lon="7.219272626411044"><ele>1532.0</ele><time>2026-04-07T12:43:35Z</time></trkpt><trkpt lat="44.75760912300179" lon="7.219191414955888"><ele>1532.0</ele><time>2026-04-07T12:43:36Z</time></trkpt><trkpt lat="44.757657076916004" lon="7.219039480179417"><ele>1531.6</ele><time>2026-04-07T12:43:38Z</time></trkpt><trkpt lat="44.75769151265208" lon="7.218901868106971"><ele>1531.1999999999998</ele><time>2026-04-07T12:43:40Z</time></trkpt><trkpt lat="44.757716170585994" lon="7.218771785609904"><ele>1530.8</ele><time>2026-04-07T12:43:42Z</time></trkpt><trkpt lat="44.75773797408497" lon="7.218644946003513"><ele>1530.4</ele><time>2026-04-07T12:43:44Z</time></trkpt><trkpt lat="44.757747320367216" lon="7.2185218072734685"><ele>1530.0</ele><time>2026-04-07T12:43:46Z</time></trkpt><trkpt lat="44.75776511249935" lon="7.218403021106097"><ele>1528.2857142857144</ele><time>2026-04-07T12:43:48Z</time></trkpt><trkpt lat="44.75778062840227" lon="7.21829167635766"><ele>1526.5714285714287</ele><time>2026-04-07T12:43:50Z</time></trkpt><trkpt lat="44.757803358462354" lon="7.2181955503252695"><ele>1524.857142857143</ele><time>2026-04-07T12:43:52Z</time></trkpt><trkpt lat="44.75776164519357" lon="7.218105079808384"><ele>1523.1428571428573</ele><time>2026-04-07T12:43:55Z</time></trkpt><trkpt lat="44.75772232023239" lon="7.218021308049805"><ele>1521.4285714285713</ele><time>2026-04-07T12:43:58Z</time></trkpt><trkpt lat="44.7576738294699" lon="7.217954281314755"><ele>1519.7142857142858</ele><time>2026-04-07T12:48:38.999Z</time></trkpt><trkpt lat="44.75761020884273" lon="7.217950311931422"><ele>1518.0</ele><time>2026-04-07T12:48:40.999Z</time></trkpt><trkpt lat="44.75754789989422" lon="7.218008406030678"><ele>1518.0</ele><time>2026-04-07T12:48:43.999Z</time></trkpt><trkpt lat="44.75755668994435" lon="7.218096339044382"><ele>1518.0</ele><time>2026-04-07T12:48:45.999Z</time></trkpt><trkpt lat="44.75758232229031" lon="7.218181342374989"><ele>1518.0</ele><time>2026-04-07T12:48:47.999Z</time></trkpt><trkpt lat="44.75761093745827" lon="7.218261080418127"><ele>1518.0</ele><time>2026-04-07T12:48:49.999Z</time></trkpt><trkpt lat="44.757633350732576" lon="7.2183684125164325"><ele>1518.0</ele><time>2026-04-07T12:48:51.999Z</time></trkpt><trkpt lat="44.7576561388234" lon="7.218493368908356"><ele>1518.0</ele><time>2026-04-07T12:48:53.999Z</time></trkpt><trkpt lat="44.75767248302207" lon="7.218634308460219"><ele>1520.4</ele><time>2026-04-07T12:48:55.999Z</time></trkpt><trkpt lat="44.757662882142746" lon="7.218811897431952"><ele>1522.8000000000002</ele><time>2026-04-07T12:48:57.999Z</time></trkpt><trkpt lat="44.75765030423831" lon="7.218900388840143"><ele>1525.2</ele><time>2026-04-07T12:48:58.999Z</time></trkpt><trkpt lat="44.75762957744323" lon="7.218984719035912"><ele>1527.6</ele><time>2026-04-07T12:48:59.999Z</time></trkpt><trkpt lat="44.75759230695313" lon="7.219149675513298"><ele>1530.0</ele><time>2026-04-07T12:49:01.999Z</time></trkpt><trkpt lat="44.75754954183621" lon="7.219312746858167"><ele>1530.3333333333333</ele><time>2026-04-07T12:49:03.999Z</time></trkpt><trkpt lat="44.75752805955627" lon="7.21940537061086"><ele>1530.6666666666667</ele><time>2026-04-07T12:49:04.999Z</time></trkpt><trkpt lat="44.75749186780708" lon="7.219483569130791"><ele>1531.0</ele><time>2026-04-07T12:49:06Z</time></trkpt><trkpt lat="44.75743785017633" lon="7.219557934190587"><ele>1531.3333333333335</ele><time>2026-04-07T12:49:07Z</time></trkpt><trkpt lat="44.7573855218166" lon="7.2196271604591225"><ele>1531.6666666666667</ele><time>2026-04-07T12:49:08Z</time></trkpt><trkpt lat="44.75729709073792" lon="7.21973616717628"><ele>1532.0</ele><time>2026-04-07T12:49:10Z</time></trkpt><trkpt lat="44.75724180575173" lon="7.219790617494926"><ele>1529.6</ele><time>2026-04-07T12:49:11Z</time></trkpt><trkpt lat="44.75717814773566" lon="7.2198506738648955"><ele>1527.1999999999998</ele><time>2026-04-07T12:49:12Z</time></trkpt><trkpt lat="44.75710206528885" lon="7.219935125035758"><ele>1524.8</ele><time>2026-04-07T12:49:13Z</time></trkpt><trkpt lat="44.7570140973867" lon="7.22003592518174"><ele>1522.4</ele><time>2026-04-07T12:49:14Z</time></trkpt><trkpt lat="44.75690108342068" lon="7.220150099651018"><ele>1520.0</ele><time>2026-04-07T12:49:15Z</time></trkpt><trkpt lat="44.75678134161081" lon="7.220262804740406"><ele>1528.0</ele><time>2026-04-07T12:49:16Z</time></trkpt><trkpt lat="44.75665788617174" lon="7.2203790029483"><ele>1536.0</ele><time>2026-04-07T12:49:17Z</time></trkpt><trkpt lat="44.75652317729117" lon="7.220500768188165"><ele>1544.0</ele><time>2026-04-07T12:49:18Z</time></trkpt><trkpt lat="44.75637437633548" lon="7.220600699970211"><ele>1543.0</ele><time>2026-04-07T12:49:19Z</time></trkpt><trkpt lat="44.75620566881743" lon="7.220674500432927"><ele>1542.0</ele><time>2026-04-07T12:49:20Z</time></trkpt><trkpt lat="44.756052753540004" lon="7.220743052023635"><ele>1541.0</ele><time>2026-04-07T12:49:21Z</time></trkpt><trkpt lat="44.75590795026716" lon="7.2208156975208535"><ele>1541.0</ele><time>2026-04-07T12:49:22Z</time></trkpt><trkpt lat="44.75577278960545" lon="7.220901497487241"><ele>1541.0</ele><time>2026-04-07T12:49:23Z</time></trkpt><trkpt lat="44.75563884705317" lon="7.221011436424247"><ele>1541.0</ele><time>2026-04-07T12:49:24Z</time></trkpt><trkpt lat="44.755502267595745" lon="7.221151368470473"><ele>1541.0</ele><time>2026-04-07T12:49:25Z</time></trkpt><trkpt lat="44.75535743619447" lon="7.221297593407328"><ele>1541.0</ele><time>2026-04-07T12:49:26Z</time></trkpt><trkpt lat="44.75520718918057" lon="7.22144251424563"><ele>1541.0</ele><time>2026-04-07T12:49:27Z</time></trkpt><trkpt lat="44.755053958527185" lon="7.221575568078854"><ele>1541.6666666666665</ele><time>2026-04-07T12:49:28Z</time></trkpt><trkpt lat="44.7548941166292" lon="7.221697605322422"><ele>1542.3333333333335</ele><time>2026-04-07T12:49:29Z</time></trkpt><trkpt lat="44.75474643362571" lon="7.221797492441072"><ele>1543.0</ele><time>2026-04-07T12:49:30Z</time></trkpt><trkpt lat="44.754608324351274" lon="7.221882850312894"><ele>1543.0</ele><time>2026-04-07T12:49:31Z</time></trkpt><trkpt lat="44.75446614232492" lon="7.221921520337343"><ele>1543.0</ele><time>2026-04-07T12:49:32Z</time></trkpt><trkpt lat="44.75432665645125" lon="7.221951360989838"><ele>1543.0</ele><time>2026-04-07T12:49:33Z</time></trkpt><trkpt lat="44.754195311965184" lon="7.2219593208657695"><ele>1543.0</ele><time>2026-04-07T12:49:34Z</time></trkpt><trkpt lat="44.75405565881908" lon="7.221953629439243"><ele>1545.0</ele><time>2026-04-07T12:49:35Z</time></trkpt><trkpt lat="44.75391129997032" lon="7.221942801343864"><ele>1547.0</ele><time>2026-04-07T12:49:36Z</time></trkpt><trkpt lat="44.753766509870225" lon="7.221944109607071"><ele>1549.0</ele><time>2026-04-07T12:49:37Z</time></trkpt><trkpt lat="44.75361431534063" lon="7.221960390501307"><ele>1551.0</ele><time>2026-04-07T12:49:38Z</time></trkpt><trkpt lat="44.75345745697915" lon="7.2219926632100835"><ele>1552.0</ele><time>2026-04-07T12:49:39Z</time></trkpt><trkpt lat="44.753306676739065" lon="7.222034166335509"><ele>1553.0</ele><time>2026-04-07T12:49:40Z</time></trkpt><trkpt lat="44.75315963985764" lon="7.222079269297592"><ele>1554.0</ele><time>2026-04-07T12:49:41Z</time></trkpt><trkpt lat="44.75301658750971" lon="7.222137994758254"><ele>1554.0</ele><time>2026-04-07T12:49:42Z</time></trkpt><trkpt lat="44.7528801098562" lon="7.222227172038949"><ele>1554.0</ele><time>2026-04-07T12:49:43Z</time></trkpt><trkpt lat="44.75274478400364" lon="7.2223381278930505"><ele>1554.0</ele><time>2026-04-07T12:49:44Z</time></trkpt><trkpt lat="44.75261118349573" lon="7.222466641878973"><ele>1551.3333333333335</ele><time>2026-04-07T12:49:45Z</time></trkpt><trkpt lat="44.75247955809953" lon="7.222605050234001"><ele>1548.6666666666667</ele><time>2026-04-07T12:49:46Z</time></trkpt><trkpt lat="44.752342311749885" lon="7.222761891014528"><ele>1546.0</ele><time>2026-04-07T12:49:47Z</time></trkpt><trkpt lat="44.75220300708132" lon="7.22293614406922"><ele>1546.0</ele><time>2026-04-07T12:49:48Z</time></trkpt><trkpt lat="44.75207407328877" lon="7.2231124618908975"><ele>1546.0</ele><time>2026-04-07T12:49:49Z</time></trkpt><trkpt lat="44.751954485019965" lon="7.2232886360955515"><ele>1546.0</ele><time>2026-04-07T12:49:50Z</time></trkpt><trkpt lat="44.75183936361685" lon="7.2234688538075025"><ele>1546.3333333333335</ele><time>2026-04-07T12:49:51Z</time></trkpt><trkpt lat="44.75172813635148" lon="7.2236527828508255"><ele>1546.6666666666665</ele><time>2026-04-07T12:49:52Z</time></trkpt><trkpt lat="44.75162366708485" lon="7.223830924555498"><ele>1547.0</ele><time>2026-04-07T12:49:53Z</time></trkpt><trkpt lat="44.751531516781995" lon="7.224000838981116"><ele>1540.25</ele><time>2026-04-07T12:49:54Z</time></trkpt><trkpt lat="44.75145262402826" lon="7.2241596744821415"><ele>1533.5</ele><time>2026-04-07T12:49:55Z</time></trkpt><trkpt lat="44.751381437709746" lon="7.22432842069148"><ele>1526.75</ele><time>2026-04-07T12:49:56Z</time></trkpt><trkpt lat="44.751307833467685" lon="7.224504595193185"><ele>1520.0</ele><time>2026-04-07T12:49:57Z</time></trkpt><trkpt lat="44.75123231341556" lon="7.224673758017932"><ele>1522.0</ele><time>2026-04-07T12:49:57.999Z</time></trkpt><trkpt lat="44.75115524837899" lon="7.224851260666961"><ele>1524.0</ele><time>2026-04-07T12:49:58.999Z</time></trkpt><trkpt lat="44.75106968863045" lon="7.224989427161875"><ele>1526.0</ele><time>2026-04-07T12:49:59.999Z</time></trkpt><trkpt lat="44.75098513927336" lon="7.225107580258224"><ele>1528.0</ele><time>2026-04-07T12:50:00.999Z</time></trkpt><trkpt lat="44.75088934586831" lon="7.225216183348175"><ele>1528.0</ele><time>2026-04-07T12:50:01.999Z</time></trkpt><trkpt lat="44.750765337097526" lon="7.225281100381191"><ele>1528.0</ele><time>2026-04-07T12:50:02.999Z</time></trkpt><trkpt lat="44.750628008079254" lon="7.22534459319874"><ele>1528.0</ele><time>2026-04-07T12:50:03.999Z</time></trkpt><trkpt lat="44.7504857858292" lon="7.2254161030969195"><ele>1528.0</ele><time>2026-04-07T12:50:04.999Z</time></trkpt><trkpt lat="44.7503417761951" lon="7.225496538686361"><ele>1523.3333333333333</ele><time>2026-04-07T12:50:05.999Z</time></trkpt><trkpt lat="44.750201515991236" lon="7.2255920463143255"><ele>1518.6666666666667</ele><time>2026-04-07T12:50:06.999Z</time></trkpt><trkpt lat="44.75006287045316" lon="7.2257241369317"><ele>1514.0</ele><time>2026-04-07T12:50:07.999Z</time></trkpt><trkpt lat="44.74992536906928" lon="7.22587656826439"><ele>1514.0</ele><time>2026-04-07T12:50:08.999Z</time></trkpt><trkpt lat="44.749795613631306" lon="7.226055512285973"><ele>1514.0</ele><time>2026-04-07T12:50:09.999Z</time></trkpt><trkpt lat="44.74965024436994" lon="7.226209644208755"><ele>1514.0</ele><time>2026-04-07T12:50:10.999Z</time></trkpt><trkpt lat="44.74950991551999" lon="7.226351054638335"><ele>1513.0</ele><time>2026-04-07T12:50:11.999Z</time></trkpt><trkpt lat="44.749363302037644" lon="7.226480217102618"><ele>1512.0</ele><time>2026-04-07T12:50:12.999Z</time></trkpt><trkpt lat="44.74920587808401" lon="7.226592600834303"><ele>1511.0</ele><time>2026-04-07T12:50:13.999Z</time></trkpt><trkpt lat="44.74904436035" lon="7.22670440772474"><ele>1511.0</ele><time>2026-04-07T12:50:14.999Z</time></trkpt><trkpt lat="44.74888716401455" lon="7.226780853989921"><ele>1511.0</ele><time>2026-04-07T12:50:15.999Z</time></trkpt><trkpt lat="44.748741001786144" lon="7.22686958194597"><ele>1511.0</ele><time>2026-04-07T12:50:16.999Z</time></trkpt><trkpt lat="44.748598621598944" lon="7.226965199385924"><ele>1509.25</ele><time>2026-04-07T12:50:17.999Z</time></trkpt><trkpt lat="44.748479275557585" lon="7.227094968042163"><ele>1507.5</ele><time>2026-04-07T12:50:18.999Z</time></trkpt><trkpt lat="44.74837430540606" lon="7.227234166855234"><ele>1505.75</ele><time>2026-04-07T12:50:19.999Z</time></trkpt><trkpt lat="44.74827958218842" lon="7.227370928313302"><ele>1504.0</ele><time>2026-04-07T12:50:20.999Z</time></trkpt><trkpt lat="44.74820499515138" lon="7.227511540365806"><ele>1504.0</ele><time>2026-04-07T12:50:21.999Z</time></trkpt><trkpt lat="44.74809556628655" lon="7.2275868098794245"><ele>1504.0</ele><time>2026-04-07T12:50:22.999Z</time></trkpt><trkpt lat="44.747979607219655" lon="7.227647210170672"><ele>1504.0</ele><time>2026-04-07T12:50:23.999Z</time></trkpt><trkpt lat="44.747856767444325" lon="7.227713789172613"><ele>1504.0</ele><time>2026-04-07T12:50:24.999Z</time></trkpt><trkpt lat="44.747744537705906" lon="7.227740457045157"><ele>1506.5</ele><time>2026-04-07T12:50:25.999Z</time></trkpt><trkpt lat="44.74765220452645" lon="7.227814507772739"><ele>1509.0</ele><time>2026-04-07T12:50:26.999Z</time></trkpt><trkpt lat="44.747570265837744" lon="7.227932098579944"><ele>1511.5</ele><time>2026-04-07T12:50:27.999Z</time></trkpt><trkpt lat="44.74749623170866" lon="7.228081800590021"><ele>1514.0</ele><time>2026-04-07T12:50:28.999Z</time></trkpt><trkpt lat="44.747421115116744" lon="7.228241139084487"><ele>1514.0</ele><time>2026-04-07T12:50:29.999Z</time></trkpt><trkpt lat="44.747328319501925" lon="7.228401606454754"><ele>1514.0</ele><time>2026-04-07T12:50:30.999Z</time></trkpt><trkpt lat="44.747243277414455" lon="7.2285791761724765"><ele>1514.0</ele><time>2026-04-07T12:50:31.999Z</time></trkpt><trkpt lat="44.74718558510839" lon="7.228793098130355"><ele>1512.3333333333335</ele><time>2026-04-07T12:50:32.999Z</time></trkpt><trkpt lat="44.74714643694959" lon="7.229025151606313"><ele>1510.6666666666667</ele><time>2026-04-07T12:50:33.999Z</time></trkpt><trkpt lat="44.74711054428303" lon="7.229263466338977"><ele>1509.0</ele><time>2026-04-07T12:50:34.999Z</time></trkpt><trkpt lat="44.7470885966871" lon="7.229507002911481"><ele>1509.0</ele><time>2026-04-07T12:50:35.999Z</time></trkpt><trkpt lat="44.74705913387546" lon="7.229724615080175"><ele>1509.0</ele><time>2026-04-07T12:50:36.999Z</time></trkpt><trkpt lat="44.747048702176" lon="7.229955770303669"><ele>1509.0</ele><time>2026-04-07T12:50:37.999Z</time></trkpt><trkpt lat="44.74704436655083" lon="7.230188117522338"><ele>1506.5</ele><time>2026-04-07T12:50:38.999Z</time></trkpt><trkpt lat="44.74704520052763" lon="7.230416387448764"><ele>1504.0</ele><time>2026-04-07T12:50:39.999Z</time></trkpt><trkpt lat="44.747001997345485" lon="7.230600912960528"><ele>1501.5</ele><time>2026-04-07T12:50:40.999Z</time></trkpt><trkpt lat="44.746965349949996" lon="7.230762315284249"><ele>1499.0</ele><time>2026-04-07T12:50:41.999Z</time></trkpt><trkpt lat="44.74692134767557" lon="7.230911859166216"><ele>1505.4</ele><time>2026-04-07T12:50:42.999Z</time></trkpt><trkpt lat="44.746858513622634" lon="7.231047808648225"><ele>1511.8000000000002</ele><time>2026-04-07T12:50:43.999Z</time></trkpt><trkpt lat="44.746788223846565" lon="7.231139818128131"><ele>1518.1999999999998</ele><time>2026-04-07T12:50:44.999Z</time></trkpt><trkpt lat="44.746702366108735" lon="7.231202322283197"><ele>1524.6</ele><time>2026-04-07T12:50:45.999Z</time></trkpt><trkpt lat="44.74659828084983" lon="7.231252545182945"><ele>1531.0</ele><time>2026-04-07T12:50:46.999Z</time></trkpt><trkpt lat="44.746482710231376" lon="7.231315055180777"><ele>1531.0</ele><time>2026-04-07T12:50:47.999Z</time></trkpt><trkpt lat="44.746353463341585" lon="7.231366198626021"><ele>1531.0</ele><time>2026-04-07T12:50:48.999Z</time></trkpt><trkpt lat="44.74623121426919" lon="7.231414610131065"><ele>1531.0</ele><time>2026-04-07T12:50:49.999Z</time></trkpt><trkpt lat="44.74609798025514" lon="7.231458227226087"><ele>1531.0</ele><time>2026-04-07T12:50:50.999Z</time></trkpt><trkpt lat="44.74594970151473" lon="7.2315059588066655"><ele>1530.0</ele><time>2026-04-07T12:50:51.999Z</time></trkpt><trkpt lat="44.74580113966956" lon="7.231561323898897"><ele>1529.0</ele><time>2026-04-07T12:50:52.999Z</time></trkpt><trkpt lat="44.745671814613615" lon="7.231616134965203"><ele>1528.0</ele><time>2026-04-07T12:50:53.999Z</time></trkpt><trkpt lat="44.74554006654969" lon="7.231680889447093"><ele>1527.0</ele><time>2026-04-07T12:50:54.999Z</time></trkpt><trkpt lat="44.74541551696041" lon="7.231751946443009"><ele>1527.0</ele><time>2026-04-07T12:50:55.999Z</time></trkpt><trkpt lat="44.74529784235312" lon="7.2318240441228445"><ele>1527.0</ele><time>2026-04-07T12:50:56.999Z</time></trkpt><trkpt lat="44.745184123634026" lon="7.231894258715782"><ele>1527.0</ele><time>2026-04-07T12:50:57.999Z</time></trkpt><trkpt lat="44.745075896788826" lon="7.2319639430847795"><ele>1527.0</ele><time>2026-04-07T12:50:58.999Z</time></trkpt><trkpt lat="44.74496943651632" lon="7.232033277800767"><ele>1529.25</ele><time>2026-04-07T12:50:59.999Z</time></trkpt><trkpt lat="44.744851832312236" lon="7.232102028110772"><ele>1531.5</ele><time>2026-04-07T12:51:00.999Z</time></trkpt><trkpt lat="44.74472591433458" lon="7.232157281209955"><ele>1533.75</ele><time>2026-04-07T12:51:01.999Z</time></trkpt><trkpt lat="44.74461148314157" lon="7.232208979184511"><ele>1536.0</ele><time>2026-04-07T12:51:02.999Z</time></trkpt><trkpt lat="44.7444950404012" lon="7.232249265045426"><ele>1532.4</ele><time>2026-04-07T12:51:03.999Z</time></trkpt><trkpt lat="44.744376114418806" lon="7.232269089478111"><ele>1528.8</ele><time>2026-04-07T12:51:04.999Z</time></trkpt><trkpt lat="44.74427226459361" lon="7.232267585035183"><ele>1525.2</ele><time>2026-04-07T12:51:05.999Z</time></trkpt><trkpt lat="44.744176936875924" lon="7.232244272194229"><ele>1521.6000000000001</ele><time>2026-04-07T12:51:06.999Z</time></trkpt><trkpt lat="44.74408942577801" lon="7.232189622451729"><ele>1518.0</ele><time>2026-04-07T12:51:07.999Z</time></trkpt><trkpt lat="44.74400692729851" lon="7.232108622394369"><ele>1518.0</ele><time>2026-04-07T12:51:08.999Z</time></trkpt><trkpt lat="44.74392698869388" lon="7.231994003686971"><ele>1518.0</ele><time>2026-04-07T12:51:09.999Z</time></trkpt><trkpt lat="44.74384967819734" lon="7.231855520712112"><ele>1518.0</ele><time>2026-04-07T12:51:10.999Z</time></trkpt><trkpt lat="44.74377482194135" lon="7.231703063296099"><ele>1518.0</ele><time>2026-04-07T12:51:12Z</time></trkpt><trkpt lat="44.74370219895053" lon="7.231556465752665"><ele>1521.75</ele><time>2026-04-07T12:51:13Z</time></trkpt><trkpt lat="44.74362856624053" lon="7.2314126864719475"><ele>1525.5</ele><time>2026-04-07T12:51:14Z</time></trkpt><trkpt lat="44.743552416809166" lon="7.231263937448342"><ele>1529.25</ele><time>2026-04-07T12:51:15Z</time></trkpt><trkpt lat="44.74347981348703" lon="7.231114329249508"><ele>1533.0</ele><time>2026-04-07T12:51:16Z</time></trkpt><trkpt lat="44.74340581369946" lon="7.230958704425382"><ele>1527.0</ele><time>2026-04-07T12:51:17Z</time></trkpt><trkpt lat="44.74332986320232" lon="7.230793575582048"><ele>1521.0</ele><time>2026-04-07T12:51:18Z</time></trkpt><trkpt lat="44.743250901819" lon="7.230636622218441"><ele>1515.0</ele><time>2026-04-07T12:51:19Z</time></trkpt><trkpt lat="44.74316815691827" lon="7.230485394231384"><ele>1509.0</ele><time>2026-04-07T12:51:20Z</time></trkpt><trkpt lat="44.743073233627825" lon="7.230350053060272"><ele>1509.0</ele><time>2026-04-07T12:51:21Z</time></trkpt><trkpt lat="44.74296518674192" lon="7.230218380363515"><ele>1509.0</ele><time>2026-04-07T12:51:22Z</time></trkpt><trkpt lat="44.74285670434616" lon="7.230097073449763"><ele>1509.0</ele><time>2026-04-07T12:51:23Z</time></trkpt><trkpt lat="44.74276377252859" lon="7.229991320470629"><ele>1509.0</ele><time>2026-04-07T12:51:24Z</time></trkpt><trkpt lat="44.74267769127868" lon="7.229892085348989"><ele>1507.5</ele><time>2026-04-07T12:51:25Z</time></trkpt><trkpt lat="44.7426019904689" lon="7.229803781957323"><ele>1506.0</ele><time>2026-04-07T12:51:26Z</time></trkpt><trkpt lat="44.74253641583738" lon="7.229725811189089"><ele>1504.5</ele><time>2026-04-07T12:51:27Z</time></trkpt><trkpt lat="44.742479312940254" lon="7.229667085116009"><ele>1503.0</ele><time>2026-04-07T12:51:28Z</time></trkpt><trkpt lat="44.742417999210325" lon="7.229638031392174"><ele>1501.5</ele><time>2026-04-07T12:51:29Z</time></trkpt><trkpt lat="44.742310966142014" lon="7.229691826012089"><ele>1500.0</ele><time>2026-04-07T12:51:31Z</time></trkpt><trkpt lat="44.74227482158626" lon="7.229797389505677"><ele>1495.5</ele><time>2026-04-07T12:51:32Z</time></trkpt><trkpt lat="44.74234679234928" lon="7.229947525961118"><ele>1491.0</ele><time>2026-04-07T12:51:33Z</time></trkpt><trkpt lat="44.74240531243016" lon="7.230059536846967"><ele>1486.5</ele><time>2026-04-07T12:51:34Z</time></trkpt><trkpt lat="44.7424770920342" lon="7.230196253242072"><ele>1482.0</ele><time>2026-04-07T12:51:35Z</time></trkpt><trkpt lat="44.742555290427" lon="7.2303451819236315"><ele>1482.0</ele><time>2026-04-07T12:51:36Z</time></trkpt><trkpt lat="44.74263895612132" lon="7.230508456076357"><ele>1482.0</ele><time>2026-04-07T12:51:37Z</time></trkpt><trkpt lat="44.74271431225027" lon="7.2306792973150635"><ele>1482.0</ele><time>2026-04-07T12:51:38Z</time></trkpt><trkpt lat="44.74278146079314" lon="7.230843467258126"><ele>1482.0</ele><time>2026-04-07T12:51:39Z</time></trkpt><trkpt lat="44.742836974216736" lon="7.231019304387317"><ele>1482.75</ele><time>2026-04-07T12:51:40Z</time></trkpt><trkpt lat="44.74286750533473" lon="7.231197963400166"><ele>1483.5</ele><time>2026-04-07T12:51:41Z</time></trkpt><trkpt lat="44.74287674415207" lon="7.231387112810432"><ele>1484.25</ele><time>2026-04-07T12:51:42Z</time></trkpt><trkpt lat="44.74286655387466" lon="7.231591391431087"><ele>1485.0</ele><time>2026-04-07T12:51:43Z</time></trkpt><trkpt lat="44.74284843092372" lon="7.2317892122631715"><ele>1485.0</ele><time>2026-04-07T12:51:44Z</time></trkpt><trkpt lat="44.74283666972034" lon="7.231993455324499"><ele>1485.0</ele><time>2026-04-07T12:51:45Z</time></trkpt><trkpt lat="44.742842768977034" lon="7.232190852424154"><ele>1485.0</ele><time>2026-04-07T12:51:46Z</time></trkpt><trkpt lat="44.74285687649022" lon="7.232387389644805"><ele>1485.0</ele><time>2026-04-07T12:51:47Z</time></trkpt><trkpt lat="44.74287431616584" lon="7.2325797586996305"><ele>1482.75</ele><time>2026-04-07T12:51:48Z</time></trkpt><trkpt lat="44.742898165302215" lon="7.232770802000114"><ele>1480.5</ele><time>2026-04-07T12:51:49Z</time></trkpt><trkpt lat="44.742927720637475" lon="7.23297647455874"><ele>1478.25</ele><time>2026-04-07T12:51:50Z</time></trkpt><trkpt lat="44.74296326572679" lon="7.23319255969279"><ele>1476.0</ele><time>2026-04-07T12:51:51Z</time></trkpt><trkpt lat="44.74301109612081" lon="7.233393106424804"><ele>1472.5</ele><time>2026-04-07T12:51:52Z</time></trkpt><trkpt lat="44.74306498820539" lon="7.233557038656039"><ele>1469.0</ele><time>2026-04-07T12:51:53Z</time></trkpt><trkpt lat="44.74312216528452" lon="7.233698027682829"><ele>1465.5</ele><time>2026-04-07T12:51:54Z</time></trkpt><trkpt lat="44.74317959955821" lon="7.2338383319390935"><ele>1462.0</ele><time>2026-04-07T12:51:55Z</time></trkpt><trkpt lat="44.7432332823498" lon="7.2339823618261265"><ele>1455.25</ele><time>2026-04-07T12:51:56Z</time></trkpt><trkpt lat="44.74329640412057" lon="7.2341324580526285"><ele>1448.5</ele><time>2026-04-07T12:51:57Z</time></trkpt><trkpt lat="44.74336226680227" lon="7.234285291031746"><ele>1441.75</ele><time>2026-04-07T12:51:58Z</time></trkpt><trkpt lat="44.74342288451785" lon="7.2344375219280215"><ele>1435.0</ele><time>2026-04-07T12:51:59Z</time></trkpt><trkpt lat="44.74346984976634" lon="7.23459748996641"><ele>1435.0</ele><time>2026-04-07T12:52:00Z</time></trkpt><trkpt lat="44.74350360266596" lon="7.234765745087375"><ele>1435.0</ele><time>2026-04-07T12:52:01Z</time></trkpt><trkpt lat="44.74353084287835" lon="7.23493392219116"><ele>1435.0</ele><time>2026-04-07T12:52:02Z</time></trkpt><trkpt lat="44.74354556620393" lon="7.235105315603903"><ele>1435.0</ele><time>2026-04-07T12:52:03Z</time></trkpt><trkpt lat="44.7435475734373" lon="7.235278733433209"><ele>1430.5</ele><time>2026-04-07T12:52:04Z</time></trkpt><trkpt lat="44.743543179970416" lon="7.235441774188664"><ele>1426.0</ele><time>2026-04-07T12:52:05Z</time></trkpt><trkpt lat="44.74352555017689" lon="7.235614237772451"><ele>1421.5</ele><time>2026-04-07T12:52:06Z</time></trkpt><trkpt lat="44.74347371869253" lon="7.2357750174624655"><ele>1417.0</ele><time>2026-04-07T12:52:07Z</time></trkpt><trkpt lat="44.74345053563958" lon="7.235925771313954"><ele>1414.8</ele><time>2026-04-07T12:52:08Z</time></trkpt><trkpt lat="44.743412323176244" lon="7.236069123891908"><ele>1412.6</ele><time>2026-04-07T12:52:09Z</time></trkpt><trkpt lat="44.743388474309434" lon="7.236223951239015"><ele>1410.3999999999999</ele><time>2026-04-07T12:52:10Z</time></trkpt><trkpt lat="44.74338266791765" lon="7.236370077896638"><ele>1408.1999999999998</ele><time>2026-04-07T12:52:11Z</time></trkpt><trkpt lat="44.743382485275696" lon="7.236488634424369"><ele>1406.0</ele><time>2026-04-07T12:52:12Z</time></trkpt><trkpt lat="44.74339749855473" lon="7.236588046419178"><ele>1406.5</ele><time>2026-04-07T12:52:13Z</time></trkpt><trkpt lat="44.74343423181923" lon="7.2366651215650295"><ele>1407.0</ele><time>2026-04-07T12:52:14Z</time></trkpt><trkpt lat="44.74350052648223" lon="7.236710338348342"><ele>1407.5</ele><time>2026-04-07T12:52:15Z</time></trkpt><trkpt lat="44.74357669916654" lon="7.236700153505678"><ele>1408.0</ele><time>2026-04-07T12:52:16Z</time></trkpt><trkpt lat="44.74364605908783" lon="7.236637010716423"><ele>1408.5</ele><time>2026-04-07T12:52:17Z</time></trkpt><trkpt lat="44.74372642571414" lon="7.236530143991687"><ele>1409.0</ele><time>2026-04-07T12:52:18Z</time></trkpt><trkpt lat="44.74382752761638" lon="7.236405998874401"><ele>1409.0</ele><time>2026-04-07T12:52:19Z</time></trkpt><trkpt lat="44.743936515167675" lon="7.23625746104659"><ele>1409.0</ele><time>2026-04-07T12:52:20Z</time></trkpt><trkpt lat="44.74404594980877" lon="7.236099208423263"><ele>1409.0</ele><time>2026-04-07T12:52:21Z</time></trkpt><trkpt lat="44.74415413052745" lon="7.235937963404745"><ele>1409.0</ele><time>2026-04-07T12:52:22Z</time></trkpt><trkpt lat="44.744271677559595" lon="7.235755056681714"><ele>1409.0</ele><time>2026-04-07T12:52:23Z</time></trkpt><trkpt lat="44.744381460764565" lon="7.2355711580016"><ele>1409.0</ele><time>2026-04-07T12:52:24Z</time></trkpt><trkpt lat="44.74448714500983" lon="7.2353943180153735"><ele>1404.0</ele><time>2026-04-07T12:52:25Z</time></trkpt><trkpt lat="44.74459079102059" lon="7.235220348920876"><ele>1399.0</ele><time>2026-04-07T12:52:26Z</time></trkpt><trkpt lat="44.744688943750404" lon="7.235063298385588"><ele>1394.0</ele><time>2026-04-07T12:52:26.999Z</time></trkpt><trkpt lat="44.74478653316314" lon="7.234919706878153"><ele>1401.25</ele><time>2026-04-07T12:52:27.999Z</time></trkpt><trkpt lat="44.744880606335855" lon="7.234789388405959"><ele>1408.5</ele><time>2026-04-07T12:52:28.999Z</time></trkpt><trkpt lat="44.744980371868664" lon="7.234681844154369"><ele>1415.75</ele><time>2026-04-07T12:52:29.999Z</time></trkpt><trkpt lat="44.74508306429586" lon="7.234597559255619"><ele>1423.0</ele><time>2026-04-07T12:52:30.999Z</time></trkpt><trkpt lat="44.745191845187605" lon="7.234537801265886"><ele>1419.25</ele><time>2026-04-07T12:52:31.999Z</time></trkpt><trkpt lat="44.74531157946378" lon="7.234513727265486"><ele>1415.5</ele><time>2026-04-07T12:52:32.999Z</time></trkpt><trkpt lat="44.74544038707622" lon="7.2345255646816495"><ele>1411.75</ele><time>2026-04-07T12:52:33.999Z</time></trkpt><trkpt lat="44.745570846348045" lon="7.234557033650468"><ele>1408.0</ele><time>2026-04-07T12:52:34.999Z</time></trkpt><trkpt lat="44.74570409101769" lon="7.23457888217564"><ele>1408.0</ele><time>2026-04-07T12:52:35.999Z</time></trkpt><trkpt lat="44.74584220175196" lon="7.234594011907179"><ele>1408.0</ele><time>2026-04-07T12:52:36.999Z</time></trkpt><trkpt lat="44.74597356231372" lon="7.234616852714964"><ele>1408.0</ele><time>2026-04-07T12:52:37.999Z</time></trkpt><trkpt lat="44.746100048411556" lon="7.234643028771767"><ele>1408.0</ele><time>2026-04-07T12:52:38.999Z</time></trkpt><trkpt lat="44.746222950237616" lon="7.234657318254787"><ele>1405.2</ele><time>2026-04-07T12:52:39.999Z</time></trkpt><trkpt lat="44.74633387082309" lon="7.234643226568858"><ele>1402.4</ele><time>2026-04-07T12:52:40.999Z</time></trkpt><trkpt lat="44.74643929102605" lon="7.234610134304254"><ele>1399.6000000000001</ele><time>2026-04-07T12:52:41.999Z</time></trkpt><trkpt lat="44.74653515355314" lon="7.234573695846098"><ele>1396.8000000000002</ele><time>2026-04-07T12:52:42.999Z</time></trkpt><trkpt lat="44.746636114199255" lon="7.2345409318678"><ele>1394.0</ele><time>2026-04-07T12:52:43.999Z</time></trkpt><trkpt lat="44.74675188909618" lon="7.234510351106213"><ele>1394.0</ele><time>2026-04-07T12:52:44.999Z</time></trkpt><trkpt lat="44.746870738134284" lon="7.234486111998925"><ele>1394.0</ele><time>2026-04-07T12:52:45.999Z</time></trkpt><trkpt lat="44.746994320551885" lon="7.234469996087835"><ele>1394.0</ele><time>2026-04-07T12:52:46.999Z</time></trkpt><trkpt lat="44.747110130416345" lon="7.234464913060376"><ele>1394.0</ele><time>2026-04-07T12:52:47.999Z</time></trkpt><trkpt lat="44.74721940009648" lon="7.234461714970666"><ele>1392.2</ele><time>2026-04-07T12:52:48.999Z</time></trkpt><trkpt lat="44.74732171920386" lon="7.234459150818223"><ele>1390.4</ele><time>2026-04-07T12:52:49.999Z</time></trkpt><trkpt lat="44.74741860362519" lon="7.234451203290531"><ele>1388.6</ele><time>2026-04-07T12:52:50.999Z</time></trkpt><trkpt lat="44.747503980889796" lon="7.234444345003936"><ele>1386.8</ele><time>2026-04-07T12:52:51.999Z</time></trkpt><trkpt lat="44.74757554059005" lon="7.234450363262937"><ele>1385.0</ele><time>2026-04-07T12:52:52.999Z</time></trkpt><trkpt lat="44.747670762855755" lon="7.234427514214178"><ele>1385.0</ele><time>2026-04-07T12:52:54.999Z</time></trkpt><trkpt lat="44.74773315082447" lon="7.234408951305896"><ele>1385.0</ele><time>2026-04-07T12:52:56.999Z</time></trkpt><trkpt lat="44.74766520612848" lon="7.2345299927010265"><ele>1385.0</ele><time>2026-04-07T12:53:09.999Z</time></trkpt><trkpt lat="44.74759814738987" lon="7.23452735435892"><ele>1385.0</ele><time>2026-04-07T12:53:10.999Z</time></trkpt><trkpt lat="44.747531882983985" lon="7.234566964194516"><ele>1385.0</ele><time>2026-04-07T12:53:11.999Z</time></trkpt><trkpt lat="44.74745981925579" lon="7.234583521369101"><ele>1385.0</ele><time>2026-04-07T12:53:12.999Z</time></trkpt><trkpt lat="44.74737958757564" lon="7.2345938802217535"><ele>1385.0</ele><time>2026-04-07T12:53:13.999Z</time></trkpt><trkpt lat="44.7472911564224" lon="7.234610401527278"><ele>1385.0</ele><time>2026-04-07T12:53:14.999Z</time></trkpt><trkpt lat="44.747222871323345" lon="7.234633950929069"><ele>1385.0</ele><time>2026-04-07T12:53:15.999Z</time></trkpt><trkpt lat="44.747153935955495" lon="7.23466615307679"><ele>1385.0</ele><time>2026-04-07T12:53:16.999Z</time></trkpt><trkpt lat="44.74707366563836" lon="7.234691970460162"><ele>1385.0</ele><time>2026-04-07T12:53:18Z</time></trkpt><trkpt lat="44.74699517474127" lon="7.234730876231558"><ele>1385.0</ele><time>2026-04-07T12:53:19Z</time></trkpt><trkpt lat="44.74692892487707" lon="7.234794834581622"><ele>1382.0</ele><time>2026-04-07T12:53:20Z</time></trkpt><trkpt lat="44.74685304641688" lon="7.234841134833499"><ele>1379.0</ele><time>2026-04-07T12:53:21Z</time></trkpt><trkpt lat="44.74678039159308" lon="7.2348655618501025"><ele>1376.0</ele><time>2026-04-07T12:53:22Z</time></trkpt><trkpt lat="44.74671639353625" lon="7.234909986519426"><ele>1373.0</ele><time>2026-04-07T12:53:23Z</time></trkpt><trkpt lat="44.746647927949105" lon="7.234955575159079"><ele>1370.0</ele><time>2026-04-07T12:53:24Z</time></trkpt><trkpt lat="44.74657502956395" lon="7.235016706959746"><ele>1367.0</ele><time>2026-04-07T12:53:25Z</time></trkpt><trkpt lat="44.746498239454816" lon="7.235100533517053"><ele>1367.0</ele><time>2026-04-07T12:53:26Z</time></trkpt><trkpt lat="44.746442437821635" lon="7.235211817654154"><ele>1367.0</ele><time>2026-04-07T12:53:27Z</time></trkpt><trkpt lat="44.74638211462343" lon="7.2353114283913005"><ele>1367.0</ele><time>2026-04-07T12:53:28Z</time></trkpt><trkpt lat="44.746334586966206" lon="7.235403572212012"><ele>1367.0</ele><time>2026-04-07T12:53:29Z</time></trkpt><trkpt lat="44.74628509952725" lon="7.235487793774602"><ele>1367.0</ele><time>2026-04-07T12:53:30Z</time></trkpt><trkpt lat="44.74622643713532" lon="7.235567746282777"><ele>1367.0</ele><time>2026-04-07T12:53:31Z</time></trkpt><trkpt lat="44.7461531240975" lon="7.235638675236169"><ele>1365.3333333333335</ele><time>2026-04-07T12:53:32Z</time></trkpt><trkpt lat="44.74605950047424" lon="7.235678670983406"><ele>1363.6666666666667</ele><time>2026-04-07T12:53:33Z</time></trkpt><trkpt lat="44.74598906839081" lon="7.235767411721094"><ele>1362.0</ele><time>2026-04-07T12:53:34Z</time></trkpt><trkpt lat="44.74591841106977" lon="7.235819784486896"><ele>1360.3333333333333</ele><time>2026-04-07T12:53:35Z</time></trkpt><trkpt lat="44.745850050199785" lon="7.2358816893904905"><ele>1358.6666666666665</ele><time>2026-04-07T12:53:36Z</time></trkpt><trkpt lat="44.74579048472011" lon="7.2359379244770885"><ele>1357.0</ele><time>2026-04-07T12:53:37Z</time></trkpt><trkpt lat="44.74573183583712" lon="7.2359779881119"><ele>1357.0</ele><time>2026-04-07T12:53:38Z</time></trkpt><trkpt lat="44.74560546910471" lon="7.236027799758888"><ele>1357.0</ele><time>2026-04-07T12:53:40Z</time></trkpt><trkpt lat="44.745529196740435" lon="7.236048667104177"><ele>1357.0</ele><time>2026-04-07T12:53:41Z</time></trkpt><trkpt lat="44.745446757377415" lon="7.236050811968088"><ele>1357.0</ele><time>2026-04-07T12:53:42Z</time></trkpt><trkpt lat="44.74535921879044" lon="7.2360618450253735"><ele>1357.0</ele><time>2026-04-07T12:53:43Z</time></trkpt><trkpt lat="44.74527355892884" lon="7.236095556636369"><ele>1359.8</ele><time>2026-04-07T12:53:44Z</time></trkpt><trkpt lat="44.745183993959536" lon="7.23613601956407"><ele>1362.6</ele><time>2026-04-07T12:53:45Z</time></trkpt><trkpt lat="44.745091811001586" lon="7.236180781162686"><ele>1365.3999999999999</ele><time>2026-04-07T12:53:46Z</time></trkpt><trkpt lat="44.74501552112723" lon="7.236252114193902"><ele>1368.1999999999998</ele><time>2026-04-07T12:53:47Z</time></trkpt><trkpt lat="44.74494942459246" lon="7.236333552912005"><ele>1371.0</ele><time>2026-04-07T12:53:48Z</time></trkpt><trkpt lat="44.74489849732447" lon="7.236449420870679"><ele>1367.3333333333333</ele><time>2026-04-07T12:53:49Z</time></trkpt><trkpt lat="44.744845115167124" lon="7.2365484049210345"><ele>1363.6666666666667</ele><time>2026-04-07T12:53:50Z</time></trkpt><trkpt lat="44.744790524614736" lon="7.236646522397305"><ele>1360.0</ele><time>2026-04-07T12:53:51Z</time></trkpt><trkpt lat="44.74474210398789" lon="7.23675304068343"><ele>1356.3333333333335</ele><time>2026-04-07T12:53:52Z</time></trkpt><trkpt lat="44.744696199685265" lon="7.2368566308391395"><ele>1352.6666666666667</ele><time>2026-04-07T12:53:53Z</time></trkpt><trkpt lat="44.74465161380343" lon="7.23693112382848"><ele>1349.0</ele><time>2026-04-07T12:53:54Z</time></trkpt><trkpt lat="44.74457691626292" lon="7.2370890483230355"><ele>1349.0</ele><time>2026-04-07T12:53:56Z</time></trkpt><trkpt lat="44.74455311283666" lon="7.237195395054675"><ele>1349.0</ele><time>2026-04-07T12:53:57Z</time></trkpt><trkpt lat="44.74454256176945" lon="7.237314036434151"><ele>1349.0</ele><time>2026-04-07T12:53:58Z</time></trkpt><trkpt lat="44.744530703910456" lon="7.23742709172781"><ele>1349.0</ele><time>2026-04-07T12:53:59Z</time></trkpt><trkpt lat="44.74450858973532" lon="7.23755726207749"><ele>1349.0</ele><time>2026-04-07T12:54:00Z</time></trkpt><trkpt lat="44.74447952531039" lon="7.237697468668208"><ele>1349.0</ele><time>2026-04-07T12:54:01Z</time></trkpt><trkpt lat="44.74442667579265" lon="7.237825011984873"><ele>1349.6</ele><time>2026-04-07T12:54:02Z</time></trkpt><trkpt lat="44.74437718311836" lon="7.237956289449696"><ele>1350.2</ele><time>2026-04-07T12:54:03Z</time></trkpt><trkpt lat="44.744302822199046" lon="7.2380557703825"><ele>1350.8</ele><time>2026-04-07T12:54:04Z</time></trkpt><trkpt lat="44.744255824776154" lon="7.238181282844325"><ele>1351.3999999999999</ele><time>2026-04-07T12:54:05Z</time></trkpt><trkpt lat="44.74419334837392" lon="7.238287517337052"><ele>1352.0</ele><time>2026-04-07T12:54:06Z</time></trkpt><trkpt lat="44.74414537861997" lon="7.238389045353058"><ele>1352.0</ele><time>2026-04-07T12:54:07Z</time></trkpt><trkpt lat="44.74410489990321" lon="7.238469268383442"><ele>1352.0</ele><time>2026-04-07T12:54:08Z</time></trkpt><trkpt lat="44.7440672346018" lon="7.238560439047037"><ele>1352.0</ele><time>2026-04-07T12:54:09Z</time></trkpt><trkpt lat="44.74402043724135" lon="7.238651562497798"><ele>1352.0</ele><time>2026-04-07T12:54:10Z</time></trkpt><trkpt lat="44.743967638068064" lon="7.238748181150212"><ele>1352.0</ele><time>2026-04-07T12:54:11Z</time></trkpt><trkpt lat="44.7439176588763" lon="7.238844628821369"><ele>1352.0</ele><time>2026-04-07T12:54:12Z</time></trkpt><trkpt lat="44.743868818944904" lon="7.23892806274033"><ele>1347.3999999999999</ele><time>2026-04-07T12:54:13Z</time></trkpt><trkpt lat="44.74381703449875" lon="7.239017181262757"><ele>1342.8</ele><time>2026-04-07T12:54:14Z</time></trkpt><trkpt lat="44.74375739193152" lon="7.239121075493737"><ele>1338.2</ele><time>2026-04-07T12:54:15Z</time></trkpt><trkpt lat="44.743687489100274" lon="7.239234428964061"><ele>1333.6</ele><time>2026-04-07T12:54:16Z</time></trkpt><trkpt lat="44.74362638155183" lon="7.239345879534165"><ele>1329.0</ele><time>2026-04-07T12:54:17Z</time></trkpt><trkpt lat="44.743572855689685" lon="7.239443719605291"><ele>1331.1666666666667</ele><time>2026-04-07T12:54:18Z</time></trkpt><trkpt lat="44.74352179467962" lon="7.239545770658098"><ele>1333.3333333333333</ele><time>2026-04-07T12:54:19Z</time></trkpt><trkpt lat="44.74346305761928" lon="7.239624447673584"><ele>1335.5</ele><time>2026-04-07T12:54:20Z</time></trkpt><trkpt lat="44.743404461861715" lon="7.2397280187555"><ele>1337.6666666666665</ele><time>2026-04-07T12:54:21Z</time></trkpt><trkpt lat="44.74334829707338" lon="7.239825324885062"><ele>1339.8333333333333</ele><time>2026-04-07T12:54:22Z</time></trkpt><trkpt lat="44.743286248263864" lon="7.239926843362588"><ele>1342.0</ele><time>2026-04-07T12:54:23Z</time></trkpt><trkpt lat="44.743229557219706" lon="7.240019440880779"><ele>1342.0</ele><time>2026-04-07T12:54:24Z</time></trkpt><trkpt lat="44.743200282507686" lon="7.240100254261471"><ele>1342.0</ele><time>2026-04-07T12:54:25Z</time></trkpt><trkpt lat="44.74310958357949" lon="7.240235022236085"><ele>1342.0</ele><time>2026-04-07T12:54:27Z</time></trkpt><trkpt lat="44.74306131851986" lon="7.240315460565323"><ele>1342.0</ele><time>2026-04-07T12:54:28Z</time></trkpt><trkpt lat="44.74301916307201" lon="7.240393462027388"><ele>1342.0</ele><time>2026-04-07T12:54:29Z</time></trkpt><trkpt lat="44.74297727216786" lon="7.240466391398166"><ele>1342.0</ele><time>2026-04-07T12:54:30Z</time></trkpt><trkpt lat="44.742933130692606" lon="7.24053843901544"><ele>1342.0</ele><time>2026-04-07T12:54:31Z</time></trkpt><trkpt lat="44.742829907960264" lon="7.24062640059879"><ele>1342.0</ele><time>2026-04-07T12:54:33Z</time></trkpt><trkpt lat="44.74276561816258" lon="7.240637382258063"><ele>1342.0</ele><time>2026-04-07T12:54:34Z</time></trkpt><trkpt lat="44.74269323379538" lon="7.240642819417075"><ele>1342.0</ele><time>2026-04-07T12:54:35Z</time></trkpt><trkpt lat="44.74261471040652" lon="7.24066925707712"><ele>1342.0</ele><time>2026-04-07T12:54:36Z</time></trkpt><trkpt lat="44.74254477460698" lon="7.240703897296992"><ele>1342.0</ele><time>2026-04-07T12:54:37Z</time></trkpt><trkpt lat="44.742475942088674" lon="7.240745913553697"><ele>1342.3999999999999</ele><time>2026-04-07T12:54:38Z</time></trkpt><trkpt lat="44.74240748583357" lon="7.240788200686562"><ele>1342.8</ele><time>2026-04-07T12:54:39Z</time></trkpt><trkpt lat="44.74233341085036" lon="7.240818257393551"><ele>1343.2</ele><time>2026-04-07T12:54:40Z</time></trkpt><trkpt lat="44.7422670244767" lon="7.240863091404031"><ele>1343.6</ele><time>2026-04-07T12:54:41Z</time></trkpt><trkpt lat="44.74215888366956" lon="7.240929287943194"><ele>1344.0</ele><time>2026-04-07T12:54:42.999Z</time></trkpt><trkpt lat="44.74205583263568" lon="7.240996499517465"><ele>1344.0</ele><time>2026-04-07T12:54:44.999Z</time></trkpt><trkpt lat="44.741978157076815" lon="7.241055240741694"><ele>1344.0</ele><time>2026-04-07T12:54:46.999Z</time></trkpt><trkpt lat="44.74192045637644" lon="7.241009985640357"><ele>1344.0</ele><time>2026-04-07T12:54:48.999Z</time></trkpt><trkpt lat="44.74191559697462" lon="7.240890014607926"><ele>1344.0</ele><time>2026-04-07T12:54:50.999Z</time></trkpt><trkpt lat="44.74200187244786" lon="7.240815239302881"><ele>1344.0</ele><time>2026-04-07T12:54:52.999Z</time></trkpt><trkpt lat="44.742076061249385" lon="7.24076624455472"><ele>1344.0</ele><time>2026-04-07T12:54:53.999Z</time></trkpt><trkpt lat="44.74213334402394" lon="7.240709436880235"><ele>1344.0</ele><time>2026-04-07T12:54:54.999Z</time></trkpt><trkpt lat="44.742192918851714" lon="7.2406427589293845"><ele>1344.0</ele><time>2026-04-07T12:54:55.999Z</time></trkpt><trkpt lat="44.74224439771415" lon="7.240588318036003"><ele>1344.0</ele><time>2026-04-07T12:54:56.999Z</time></trkpt><trkpt lat="44.74230133068574" lon="7.240481318990425"><ele>1344.0</ele><time>2026-04-07T12:54:58.999Z</time></trkpt><trkpt lat="44.742355333699564" lon="7.240347120948014"><ele>1344.0</ele><time>2026-04-07T12:55:00.999Z</time></trkpt><trkpt lat="44.74235530334679" lon="7.240185996798551"><ele>1344.0</ele><time>2026-04-07T12:55:02.999Z</time></trkpt><trkpt lat="44.742347696025654" lon="7.2400053376624705"><ele>1344.0</ele><time>2026-04-07T12:55:04.999Z</time></trkpt><trkpt lat="44.74233907759843" lon="7.239905143516432"><ele>1344.0</ele><time>2026-04-07T12:55:05.999Z</time></trkpt><trkpt lat="44.74233327093819" lon="7.239803295789418"><ele>1344.0</ele><time>2026-04-07T12:55:06.999Z</time></trkpt><trkpt lat="44.74231454782411" lon="7.239696774576961"><ele>1344.0</ele><time>2026-04-07T12:55:07.999Z</time></trkpt><trkpt lat="44.742287602110544" lon="7.2395793116775335"><ele>1344.0</ele><time>2026-04-07T12:55:08.999Z</time></trkpt><trkpt lat="44.742254182521386" lon="7.239463109817069"><ele>1344.0</ele><time>2026-04-07T12:55:09.999Z</time></trkpt><trkpt lat="44.7422097438982" lon="7.239341652570571"><ele>1344.0</ele><time>2026-04-07T12:55:10.999Z</time></trkpt><trkpt lat="44.74217758651248" lon="7.239230194271456"><ele>1344.0</ele><time>2026-04-07T12:55:11.999Z</time></trkpt><trkpt lat="44.742155598445436" lon="7.239117902014367"><ele>1344.0</ele><time>2026-04-07T12:55:12.999Z</time></trkpt><trkpt lat="44.74211386728573" lon="7.239003011868254"><ele>1344.0</ele><time>2026-04-07T12:55:13.999Z</time></trkpt><trkpt lat="44.74206892057151" lon="7.23890525342476"><ele>1344.0</ele><time>2026-04-07T12:55:14.999Z</time></trkpt><trkpt lat="44.74202764685776" lon="7.2388129861691795"><ele>1345.8000000000002</ele><time>2026-04-07T12:55:15.999Z</time></trkpt><trkpt lat="44.74200052180346" lon="7.238700511517863"><ele>1347.6000000000001</ele><time>2026-04-07T12:55:16.999Z</time></trkpt><trkpt lat="44.74197336472456" lon="7.238585866625925"><ele>1349.4</ele><time>2026-04-07T12:55:17.999Z</time></trkpt><trkpt lat="44.74195731237023" lon="7.238451120340824"><ele>1351.2</ele><time>2026-04-07T12:55:18.999Z</time></trkpt><trkpt lat="44.74194162158728" lon="7.238311088439145"><ele>1353.0</ele><time>2026-04-07T12:55:19.999Z</time></trkpt><trkpt lat="44.7419384582675" lon="7.23816644093401"><ele>1353.6666666666667</ele><time>2026-04-07T12:55:20.999Z</time></trkpt><trkpt lat="44.741934786365036" lon="7.238037061012196"><ele>1354.3333333333333</ele><time>2026-04-07T12:55:21.999Z</time></trkpt><trkpt lat="44.74193118089005" lon="7.237923293823735"><ele>1355.0</ele><time>2026-04-07T12:55:22.999Z</time></trkpt><trkpt lat="44.74193807165283" lon="7.237828773489567"><ele>1355.6666666666665</ele><time>2026-04-07T12:55:24Z</time></trkpt><trkpt lat="44.741952659982125" lon="7.237715076013747"><ele>1356.3333333333333</ele><time>2026-04-07T12:55:25Z</time></trkpt><trkpt lat="44.74198488338777" lon="7.237603358873884"><ele>1357.0</ele><time>2026-04-07T12:55:26Z</time></trkpt><trkpt lat="44.742016363347425" lon="7.237496341709396"><ele>1357.0</ele><time>2026-04-07T12:55:27Z</time></trkpt><trkpt lat="44.74203652897199" lon="7.237398076223601"><ele>1357.0</ele><time>2026-04-07T12:55:28Z</time></trkpt><trkpt lat="44.742032840310365" lon="7.237216050346676"><ele>1357.0</ele><time>2026-04-07T12:55:30Z</time></trkpt><trkpt lat="44.74199712549681" lon="7.2371193433960075"><ele>1357.0</ele><time>2026-04-07T12:55:31Z</time></trkpt><trkpt lat="44.74195309006182" lon="7.237011533755784"><ele>1357.0</ele><time>2026-04-07T12:55:32Z</time></trkpt><trkpt lat="44.74191943698729" lon="7.236886055036804"><ele>1357.1999999999998</ele><time>2026-04-07T12:55:33Z</time></trkpt><trkpt lat="44.74188501966968" lon="7.236752156667989"><ele>1357.4</ele><time>2026-04-07T12:55:34Z</time></trkpt><trkpt lat="44.741864499588424" lon="7.2366150309076245"><ele>1357.6</ele><time>2026-04-07T12:55:35Z</time></trkpt><trkpt lat="44.741838442522315" lon="7.236482671252028"><ele>1357.8000000000002</ele><time>2026-04-07T12:55:36Z</time></trkpt><trkpt lat="44.741808271496815" lon="7.236365425294302"><ele>1358.0</ele><time>2026-04-07T12:55:37Z</time></trkpt><trkpt lat="44.74175993931805" lon="7.236250776512684"><ele>1352.0</ele><time>2026-04-07T12:55:38Z</time></trkpt><trkpt lat="44.74169408130325" lon="7.2361282489908545"><ele>1346.0</ele><time>2026-04-07T12:55:39Z</time></trkpt><trkpt lat="44.74162797291439" lon="7.236020965885905"><ele>1340.0</ele><time>2026-04-07T12:55:40Z</time></trkpt><trkpt lat="44.741583388985774" lon="7.235925246946459"><ele>1334.0</ele><time>2026-04-07T12:55:41Z</time></trkpt><trkpt lat="44.741539072982455" lon="7.235815925723309"><ele>1328.0</ele><time>2026-04-07T12:55:42Z</time></trkpt><trkpt lat="44.74149077640143" lon="7.235721231639485"><ele>1328.0</ele><time>2026-04-07T12:55:43Z</time></trkpt><trkpt lat="44.741433274870566" lon="7.235645772486653"><ele>1328.0</ele><time>2026-04-07T12:55:44Z</time></trkpt><trkpt lat="44.74137389633433" lon="7.235570115220689"><ele>1328.0</ele><time>2026-04-07T12:55:45Z</time></trkpt><trkpt lat="44.74130676539803" lon="7.235507222751713"><ele>1328.0</ele><time>2026-04-07T12:55:46Z</time></trkpt><trkpt lat="44.74122382218263" lon="7.235439967092461"><ele>1328.0</ele><time>2026-04-07T12:55:47Z</time></trkpt><trkpt lat="44.74113673442827" lon="7.235392765582763"><ele>1328.0</ele><time>2026-04-07T12:55:48Z</time></trkpt><trkpt lat="44.74104735751779" lon="7.235341175532006"><ele>1327.8333333333335</ele><time>2026-04-07T12:55:49Z</time></trkpt><trkpt lat="44.74096008356099" lon="7.235289783040373"><ele>1327.6666666666667</ele><time>2026-04-07T12:55:50Z</time></trkpt><trkpt lat="44.74086895810223" lon="7.235270040349244"><ele>1327.5</ele><time>2026-04-07T12:55:51Z</time></trkpt><trkpt lat="44.74078985029653" lon="7.235229841060867"><ele>1327.3333333333333</ele><time>2026-04-07T12:55:52Z</time></trkpt><trkpt lat="44.74072382624712" lon="7.235180126816933"><ele>1327.1666666666665</ele><time>2026-04-07T12:55:53Z</time></trkpt><trkpt lat="44.74065053083126" lon="7.235142304287264"><ele>1327.0</ele><time>2026-04-07T12:55:54Z</time></trkpt><trkpt lat="44.74057614571154" lon="7.23510818529027"><ele>1327.0</ele><time>2026-04-07T12:55:55Z</time></trkpt><trkpt lat="44.74051301154061" lon="7.235065656598091"><ele>1327.0</ele><time>2026-04-07T12:55:56Z</time></trkpt><trkpt lat="44.74044058962604" lon="7.234932149632865"><ele>1327.0</ele><time>2026-04-07T12:55:58Z</time></trkpt><trkpt lat="44.740414298726854" lon="7.234829487150707"><ele>1327.0</ele><time>2026-04-07T12:55:59Z</time></trkpt><trkpt lat="44.74039805353974" lon="7.234708293895814"><ele>1327.0</ele><time>2026-04-07T12:56:00Z</time></trkpt><trkpt lat="44.7403908839536" lon="7.234586108016329"><ele>1327.0</ele><time>2026-04-07T12:56:01Z</time></trkpt><trkpt lat="44.74038643510424" lon="7.234469848523499"><ele>1329.3333333333333</ele><time>2026-04-07T12:56:02Z</time></trkpt><trkpt lat="44.7403949362521" lon="7.234369363354365"><ele>1331.6666666666665</ele><time>2026-04-07T12:56:03Z</time></trkpt><trkpt lat="44.74036974944729" lon="7.234246535384355"><ele>1334.0</ele><time>2026-04-07T12:56:05Z</time></trkpt><trkpt lat="44.740282454183" lon="7.2341986937464835"><ele>1336.3333333333333</ele><time>2026-04-07T12:56:07Z</time></trkpt><trkpt lat="44.74017166982808" lon="7.2341741281396645"><ele>1338.6666666666667</ele><time>2026-04-07T12:56:09Z</time></trkpt><trkpt lat="44.74011633805529" lon="7.234127331902534"><ele>1341.0</ele><time>2026-04-07T12:56:10Z</time></trkpt><trkpt lat="44.74005738158924" lon="7.234072684255498"><ele>1341.5</ele><time>2026-04-07T12:56:11Z</time></trkpt><trkpt lat="44.73999254508238" lon="7.234017216062325"><ele>1342.0</ele><time>2026-04-07T12:56:12Z</time></trkpt><trkpt lat="44.73993280521931" lon="7.233962286146029"><ele>1342.5</ele><time>2026-04-07T12:56:13Z</time></trkpt><trkpt lat="44.73986586914505" lon="7.233904621244324"><ele>1343.0</ele><time>2026-04-07T12:56:14Z</time></trkpt><trkpt lat="44.73980072694847" lon="7.233845855639342"><ele>1343.5</ele><time>2026-04-07T12:56:15Z</time></trkpt><trkpt lat="44.73972111412122" lon="7.233816125521343"><ele>1344.0</ele><time>2026-04-07T12:56:16Z</time></trkpt><trkpt lat="44.7396438681541" lon="7.233792099169287"><ele>1344.0</ele><time>2026-04-07T12:56:17Z</time></trkpt><trkpt lat="44.73955103096675" lon="7.233754107464033"><ele>1344.0</ele><time>2026-04-07T12:56:18Z</time></trkpt><trkpt lat="44.73946222622035" lon="7.233748353591641"><ele>1344.0</ele><time>2026-04-07T12:56:19Z</time></trkpt><trkpt lat="44.73936605279883" lon="7.233754676464917"><ele>1344.0</ele><time>2026-04-07T12:56:20Z</time></trkpt><trkpt lat="44.73927402471015" lon="7.233785075161027"><ele>1344.0</ele><time>2026-04-07T12:56:21Z</time></trkpt><trkpt lat="44.739181668199876" lon="7.233805397074128"><ele>1342.6666666666667</ele><time>2026-04-07T12:56:22Z</time></trkpt><trkpt lat="44.73909120189738" lon="7.233834866958231"><ele>1341.3333333333333</ele><time>2026-04-07T12:56:23Z</time></trkpt><trkpt lat="44.73900326031268" lon="7.233856234096014"><ele>1340.0</ele><time>2026-04-07T12:56:24Z</time></trkpt><trkpt lat="44.738930048784376" lon="7.233891474291904"><ele>1338.6666666666665</ele><time>2026-04-07T12:56:25Z</time></trkpt><trkpt lat="44.73886579940731" lon="7.2339319743711075"><ele>1337.3333333333333</ele><time>2026-04-07T12:56:26Z</time></trkpt><trkpt lat="44.73876343162806" lon="7.23392206574591"><ele>1336.0</ele><time>2026-04-07T12:56:28Z</time></trkpt><trkpt lat="44.73869603879135" lon="7.233829204004283"><ele>1336.0</ele><time>2026-04-07T12:56:30Z</time></trkpt><trkpt lat="44.738646248990655" lon="7.233768403293758"><ele>1336.0</ele><time>2026-04-07T12:56:31Z</time></trkpt><trkpt lat="44.7385909329411" lon="7.233697142998335"><ele>1336.0</ele><time>2026-04-07T12:56:32Z</time></trkpt><trkpt lat="44.738527643516285" lon="7.233616886614809"><ele>1336.0</ele><time>2026-04-07T12:56:33Z</time></trkpt><trkpt lat="44.73845509379386" lon="7.233532478269618"><ele>1336.0</ele><time>2026-04-07T12:56:34Z</time></trkpt><trkpt lat="44.73838840845614" lon="7.2334552277532795"><ele>1336.0</ele><time>2026-04-07T12:56:35Z</time></trkpt><trkpt lat="44.73833020216278" lon="7.233382710294232"><ele>1332.1999999999998</ele><time>2026-04-07T12:56:36Z</time></trkpt><trkpt lat="44.738274073038895" lon="7.233321872603965"><ele>1328.3999999999999</ele><time>2026-04-07T12:56:37Z</time></trkpt><trkpt lat="44.738161799374716" lon="7.233234806549987"><ele>1324.6</ele><time>2026-04-07T12:56:39Z</time></trkpt><trkpt lat="44.738049324167235" lon="7.2331905960257625"><ele>1320.8</ele><time>2026-04-07T12:56:41Z</time></trkpt><trkpt lat="44.73792341112627" lon="7.233186606361161"><ele>1317.0</ele><time>2026-04-07T12:56:43Z</time></trkpt><trkpt lat="44.73785550549513" lon="7.233207781524243"><ele>1317.0</ele><time>2026-04-07T12:56:44Z</time></trkpt><trkpt lat="44.73778828364996" lon="7.233227436300583"><ele>1317.0</ele><time>2026-04-07T12:56:45Z</time></trkpt><trkpt lat="44.737677277835516" lon="7.233229995756065"><ele>1317.0</ele><time>2026-04-07T12:56:47Z</time></trkpt><trkpt lat="44.73760109989712" lon="7.233129275171939"><ele>1317.0</ele><time>2026-04-07T12:56:48.999Z</time></trkpt><trkpt lat="44.737564205053644" lon="7.233050208123071"><ele>1317.0</ele><time>2026-04-07T12:56:49.999Z</time></trkpt><trkpt lat="44.737516315739605" lon="7.232974917019351"><ele>1317.0</ele><time>2026-04-07T12:56:50.999Z</time></trkpt><trkpt lat="44.73748245731248" lon="7.232841559661524"><ele>1314.8333333333333</ele><time>2026-04-07T12:56:51.999Z</time></trkpt><trkpt lat="44.73745391397074" lon="7.23275520810993"><ele>1312.6666666666667</ele><time>2026-04-07T12:56:52.999Z</time></trkpt><trkpt lat="44.73741116311062" lon="7.232642930066491"><ele>1310.5</ele><time>2026-04-07T12:56:54.999Z</time></trkpt><trkpt lat="44.73733827301324" lon="7.232518590988534"><ele>1308.3333333333335</ele><time>2026-04-07T12:58:15Z</time></trkpt><trkpt lat="44.73730836156885" lon="7.232629137473119"><ele>1306.1666666666667</ele><time>2026-04-07T12:58:18Z</time></trkpt><trkpt lat="44.73733685745633" lon="7.23271965170645"><ele>1304.0</ele><time>2026-04-07T12:58:20Z</time></trkpt><trkpt lat="44.73736644216927" lon="7.232829154816324"><ele>1304.0</ele><time>2026-04-07T12:58:22Z</time></trkpt><trkpt lat="44.73738477413958" lon="7.232958941600787"><ele>1304.0</ele><time>2026-04-07T12:58:24Z</time></trkpt><trkpt lat="44.73740544961264" lon="7.233088592200207"><ele>1304.0</ele><time>2026-04-07T12:58:26Z</time></trkpt><trkpt lat="44.73742155604362" lon="7.233211252076825"><ele>1304.0</ele><time>2026-04-07T12:58:28Z</time></trkpt><trkpt lat="44.737437899073484" lon="7.233328222347067"><ele>1304.0</ele><time>2026-04-07T12:58:30Z</time></trkpt><trkpt lat="44.737468790328734" lon="7.2334449127875144"><ele>1306.6</ele><time>2026-04-07T12:58:32Z</time></trkpt><trkpt lat="44.737520486512004" lon="7.233557964432214"><ele>1309.2</ele><time>2026-04-07T12:58:34Z</time></trkpt><trkpt lat="44.73760490706833" lon="7.233621287444244"><ele>1311.8</ele><time>2026-04-07T12:58:36Z</time></trkpt><trkpt lat="44.73771072047964" lon="7.233646848812018"><ele>1314.3999999999999</ele><time>2026-04-07T12:58:38Z</time></trkpt><trkpt lat="44.73780343423952" lon="7.233670641265984"><ele>1317.0</ele><time>2026-04-07T12:58:40Z</time></trkpt><trkpt lat="44.737881971487" lon="7.233738606926561"><ele>1317.0</ele><time>2026-04-07T12:58:42Z</time></trkpt><trkpt lat="44.737965465717885" lon="7.233816500665977"><ele>1317.0</ele><time>2026-04-07T12:58:44Z</time></trkpt><trkpt lat="44.73805326796293" lon="7.233897830004389"><ele>1317.0</ele><time>2026-04-07T12:58:46Z</time></trkpt><trkpt lat="44.73812463428637" lon="7.23397111657194"><ele>1317.0</ele><time>2026-04-07T12:58:48Z</time></trkpt><trkpt lat="44.73817682436459" lon="7.234059878750078"><ele>1317.0</ele><time>2026-04-07T12:58:50Z</time></trkpt><trkpt lat="44.73823951446049" lon="7.234167637918351"><ele>1313.6</ele><time>2026-04-07T12:58:51.999Z</time></trkpt><trkpt lat="44.73830543333555" lon="7.234269869421909"><ele>1310.1999999999998</ele><time>2026-04-07T12:58:53.999Z</time></trkpt><trkpt lat="44.73837787874536" lon="7.234375264957878"><ele>1306.8</ele><time>2026-04-07T12:58:55.999Z</time></trkpt><trkpt lat="44.73846562801096" lon="7.234488670224306"><ele>1303.4</ele><time>2026-04-07T12:58:57.999Z</time></trkpt><trkpt lat="44.73856082325514" lon="7.234563907822718"><ele>1300.0</ele><time>2026-04-07T12:58:59.999Z</time></trkpt><trkpt lat="44.73867733123547" lon="7.234615107593858"><ele>1300.0</ele><time>2026-04-07T12:59:01.999Z</time></trkpt><trkpt lat="44.738738269671735" lon="7.234638521338876"><ele>1300.0</ele><time>2026-04-07T12:59:02.999Z</time></trkpt><trkpt lat="44.73886232998771" lon="7.234668213624338"><ele>1300.0</ele><time>2026-04-07T12:59:04.999Z</time></trkpt><trkpt lat="44.738954597682024" lon="7.234679980239145"><ele>1300.0</ele><time>2026-04-07T12:59:06.999Z</time></trkpt><trkpt lat="44.73902971883934" lon="7.234655816627751"><ele>1300.0</ele><time>2026-04-07T12:59:08.999Z</time></trkpt><trkpt lat="44.73910163842323" lon="7.2346234554505635"><ele>1300.0</ele><time>2026-04-07T12:59:10.999Z</time></trkpt><trkpt lat="44.739159034407606" lon="7.234701249829152"><ele>1300.0</ele><time>2026-04-07T12:59:13.999Z</time></trkpt><trkpt lat="44.739105109182766" lon="7.234769234445889"><ele>1300.0</ele><time>2026-04-07T12:59:16.999Z</time></trkpt><trkpt lat="44.73901959644587" lon="7.234751964358058"><ele>1300.0</ele><time>2026-04-07T12:59:18.999Z</time></trkpt><trkpt lat="44.73892563437167" lon="7.2347836349242165"><ele>1300.0</ele><time>2026-04-07T12:59:20.999Z</time></trkpt><trkpt lat="44.73884156895002" lon="7.234812747747832"><ele>1300.0</ele><time>2026-04-07T12:59:22.999Z</time></trkpt><trkpt lat="44.73877641408616" lon="7.234863904030551"><ele>1300.0</ele><time>2026-04-07T12:59:24.999Z</time></trkpt><trkpt lat="44.738703949729775" lon="7.234880228321914"><ele>1296.5</ele><time>2026-04-07T12:59:26.999Z</time></trkpt><trkpt lat="44.738612508691126" lon="7.234856884179959"><ele>1293.0</ele><time>2026-04-07T12:59:29.999Z</time></trkpt><trkpt lat="44.738542781870535" lon="7.234841616237611"><ele>1289.5</ele><time>2026-04-07T12:59:31.999Z</time></trkpt><trkpt lat="44.73847079218661" lon="7.234846659026138"><ele>1286.0</ele><time>2026-04-07T12:59:33.999Z</time></trkpt><trkpt lat="44.73840169111706" lon="7.234835824233614"><ele>1282.5</ele><time>2026-04-07T12:59:36Z</time></trkpt><trkpt lat="44.738332969562265" lon="7.234792599859341"><ele>1279.0</ele><time>2026-04-07T12:59:38Z</time></trkpt><trkpt lat="44.73825603841871" lon="7.234773521772596"><ele>1279.0</ele><time>2026-04-07T12:59:40Z</time></trkpt><trkpt lat="44.738155253401985" lon="7.234682189410266"><ele>1279.0</ele><time>2026-04-07T12:59:42Z</time></trkpt><trkpt lat="44.73806004120868" lon="7.234622094387349"><ele>1279.0</ele><time>2026-04-07T12:59:44Z</time></trkpt><trkpt lat="44.73799307422184" lon="7.234609670541344"><ele>1279.0</ele><time>2026-04-07T12:59:46Z</time></trkpt><trkpt lat="44.737899184383714" lon="7.234565081610038"><ele>1279.0</ele><time>2026-04-07T12:59:48Z</time></trkpt><trkpt lat="44.737802252722126" lon="7.234549946829424"><ele>1274.2</ele><time>2026-04-07T12:59:50Z</time></trkpt><trkpt lat="44.737707093290304" lon="7.234544503199965"><ele>1269.4</ele><time>2026-04-07T12:59:52Z</time></trkpt><trkpt lat="44.73760740067035" lon="7.2345342285734855"><ele>1264.6</ele><time>2026-04-07T12:59:54Z</time></trkpt><trkpt lat="44.737527123013905" lon="7.234543169323641"><ele>1259.8</ele><time>2026-04-07T12:59:56Z</time></trkpt><trkpt lat="44.73743461836878" lon="7.2345257494952095"><ele>1255.0</ele><time>2026-04-07T12:59:58Z</time></trkpt><trkpt lat="44.737343781333486" lon="7.2345151168829265"><ele>1255.0</ele><time>2026-04-07T13:00:00Z</time></trkpt><trkpt lat="44.73724745579066" lon="7.234493462415442"><ele>1255.0</ele><time>2026-04-07T13:00:02Z</time></trkpt><trkpt lat="44.73715306148979" lon="7.234473402632719"><ele>1255.0</ele><time>2026-04-07T13:00:04Z</time></trkpt><trkpt lat="44.737087488681404" lon="7.234425631512741"><ele>1255.0</ele><time>2026-04-07T13:00:06Z</time></trkpt><trkpt lat="44.7370195215755" lon="7.234428221549077"><ele>1255.0</ele><time>2026-04-07T13:00:07Z</time></trkpt><trkpt lat="44.73692663035496" lon="7.234425643223546"><ele>1255.0</ele><time>2026-04-07T13:00:09Z</time></trkpt><trkpt lat="44.73683751879115" lon="7.234416182034882"><ele>1248.4</ele><time>2026-04-07T13:00:11Z</time></trkpt><trkpt lat="44.73673741708606" lon="7.23444570191858"><ele>1241.8</ele><time>2026-04-07T13:00:13Z</time></trkpt><trkpt lat="44.73665562290337" lon="7.234447178025649"><ele>1235.2</ele><time>2026-04-07T13:00:15Z</time></trkpt><trkpt lat="44.73659511589691" lon="7.234401185157243"><ele>1228.6</ele><time>2026-04-07T13:00:17Z</time></trkpt><trkpt lat="44.73652834005384" lon="7.234287752758261"><ele>1222.0</ele><time>2026-04-07T13:00:19Z</time></trkpt><trkpt lat="44.73644848635274" lon="7.2341460955433625"><ele>1222.0</ele><time>2026-04-07T13:00:21Z</time></trkpt><trkpt lat="44.7363531678873" lon="7.234027476937908"><ele>1222.0</ele><time>2026-04-07T13:00:23Z</time></trkpt><trkpt lat="44.736298380487675" lon="7.2338865774662136"><ele>1222.0</ele><time>2026-04-07T13:00:25Z</time></trkpt><trkpt lat="44.736304456314215" lon="7.233705784253232"><ele>1222.0</ele><time>2026-04-07T13:00:27Z</time></trkpt><trkpt lat="44.73631465514493" lon="7.233618014622864"><ele>1222.0</ele><time>2026-04-07T13:00:28Z</time></trkpt><trkpt lat="44.73632231142606" lon="7.233528627991561"><ele>1225.8</ele><time>2026-04-07T13:00:29Z</time></trkpt><trkpt lat="44.736309158219356" lon="7.233354598379899"><ele>1229.6</ele><time>2026-04-07T13:00:31Z</time></trkpt><trkpt lat="44.73625993024663" lon="7.233204051954894"><ele>1233.3999999999999</ele><time>2026-04-07T13:00:33Z</time></trkpt><trkpt lat="44.736179485658155" lon="7.233094897669615"><ele>1237.2</ele><time>2026-04-07T13:00:35Z</time></trkpt><trkpt lat="44.73614236451779" lon="7.233022838714734"><ele>1241.0</ele><time>2026-04-07T13:00:36Z</time></trkpt><trkpt lat="44.736127475040725" lon="7.232909864221067"><ele>1243.1666666666667</ele><time>2026-04-07T13:00:37Z</time></trkpt><trkpt lat="44.73611731965848" lon="7.232808856873354"><ele>1245.3333333333335</ele><time>2026-04-07T13:00:38Z</time></trkpt><trkpt lat="44.73608176571752" lon="7.2327235176855105"><ele>1247.5</ele><time>2026-04-07T13:00:39Z</time></trkpt><trkpt lat="44.73598198450238" lon="7.232608216675451"><ele>1249.6666666666667</ele><time>2026-04-07T13:00:41Z</time></trkpt><trkpt lat="44.735920709701304" lon="7.23254465319536"><ele>1251.8333333333333</ele><time>2026-04-07T13:00:42Z</time></trkpt><trkpt lat="44.73584619810422" lon="7.232528580380006"><ele>1254.0</ele><time>2026-04-07T13:00:43Z</time></trkpt><trkpt lat="44.7357648712198" lon="7.232549886301297"><ele>1247.5</ele><time>2026-04-07T13:00:44Z</time></trkpt><trkpt lat="44.735691932559035" lon="7.232563010898921"><ele>1241.0</ele><time>2026-04-07T13:00:45Z</time></trkpt><trkpt lat="44.7356273100986" lon="7.232582084042376"><ele>1234.5</ele><time>2026-04-07T13:00:46Z</time></trkpt><trkpt lat="44.73552471930519" lon="7.2325845559493915"><ele>1228.0</ele><time>2026-04-07T13:00:48Z</time></trkpt><trkpt lat="44.73544919700175" lon="7.232574396610506"><ele>1221.5</ele><time>2026-04-07T13:00:50Z</time></trkpt><trkpt lat="44.73534871460488" lon="7.23245648857233"><ele>1215.0</ele><time>2026-04-07T13:00:51.999Z</time></trkpt><trkpt lat="44.73529237100822" lon="7.232404176984975"><ele>1214.6</ele><time>2026-04-07T13:00:52.999Z</time></trkpt><trkpt lat="44.735213067702325" lon="7.232359930569856"><ele>1214.2</ele><time>2026-04-07T13:00:53.999Z</time></trkpt><trkpt lat="44.7351321928841" lon="7.232329025893815"><ele>1213.8</ele><time>2026-04-07T13:00:54.999Z</time></trkpt><trkpt lat="44.73506728989861" lon="7.232296971279994"><ele>1213.4</ele><time>2026-04-07T13:00:55.999Z</time></trkpt><trkpt lat="44.734996606909704" lon="7.23220132295491"><ele>1213.0</ele><time>2026-04-07T13:00:57.999Z</time></trkpt><trkpt lat="44.734911748362464" lon="7.232051297967428"><ele>1213.0</ele><time>2026-04-07T13:00:59.999Z</time></trkpt><trkpt lat="44.734858308996266" lon="7.231963819538324"><ele>1213.0</ele><time>2026-04-07T13:01:00.999Z</time></trkpt><trkpt lat="44.73481237077695" lon="7.231854543942614"><ele>1213.0</ele><time>2026-04-07T13:01:01.999Z</time></trkpt><trkpt lat="44.73475874244974" lon="7.231739302171386"><ele>1213.0</ele><time>2026-04-07T13:01:02.999Z</time></trkpt><trkpt lat="44.734721885698924" lon="7.231641549165239"><ele>1213.0</ele><time>2026-04-07T13:01:03.999Z</time></trkpt><trkpt lat="44.73468779947279" lon="7.231550805580624"><ele>1213.0</ele><time>2026-04-07T13:01:04.999Z</time></trkpt><trkpt lat="44.734643394274244" lon="7.231469581182842"><ele>1216.6666666666665</ele><time>2026-04-07T13:01:05.999Z</time></trkpt><trkpt lat="44.734632428705254" lon="7.231363986690184"><ele>1220.3333333333333</ele><time>2026-04-07T13:01:06.999Z</time></trkpt><trkpt lat="44.73461197239844" lon="7.231270323277463"><ele>1224.0</ele><time>2026-04-07T13:01:07.999Z</time></trkpt><trkpt lat="44.73459506850572" lon="7.231183920230429"><ele>1227.6666666666667</ele><time>2026-04-07T13:01:08.999Z</time></trkpt><trkpt lat="44.73457818754972" lon="7.23109752057841"><ele>1231.3333333333335</ele><time>2026-04-07T13:01:09.999Z</time></trkpt><trkpt lat="44.734587433445334" lon="7.23095052957701"><ele>1235.0</ele><time>2026-04-07T13:01:11.999Z</time></trkpt><trkpt lat="44.73446747126889" lon="7.230850447279141"><ele>1235.0</ele><time>2026-04-07T13:01:12.999Z</time></trkpt><trkpt lat="44.7344379674375" lon="7.230748160561849"><ele>1235.0</ele><time>2026-04-07T13:01:13.999Z</time></trkpt><trkpt lat="44.73441935938485" lon="7.230638327229173"><ele>1235.0</ele><time>2026-04-07T13:01:14.999Z</time></trkpt><trkpt lat="44.73439345076589" lon="7.230536879372827"><ele>1235.0</ele><time>2026-04-07T13:01:15.999Z</time></trkpt><trkpt lat="44.73430299894352" lon="7.2304116831850855"><ele>1235.0</ele><time>2026-04-07T13:01:17.999Z</time></trkpt><trkpt lat="44.73423127470714" lon="7.230378151877588"><ele>1235.0</ele><time>2026-04-07T13:01:18.999Z</time></trkpt><trkpt lat="44.73415547310223" lon="7.230362804075026"><ele>1232.5</ele><time>2026-04-07T13:01:19.999Z</time></trkpt><trkpt lat="44.73406779121386" lon="7.230360389690402"><ele>1230.0</ele><time>2026-04-07T13:01:20.999Z</time></trkpt><trkpt lat="44.73399425249072" lon="7.230375812128247"><ele>1227.5</ele><time>2026-04-07T13:01:21.999Z</time></trkpt><trkpt lat="44.73392603429903" lon="7.230415224690036"><ele>1225.0</ele><time>2026-04-07T13:01:22.999Z</time></trkpt><trkpt lat="44.73385306943125" lon="7.230479368565138"><ele>1222.5</ele><time>2026-04-07T13:01:23.999Z</time></trkpt><trkpt lat="44.73378722676476" lon="7.2305657731367905"><ele>1220.0</ele><time>2026-04-07T13:01:24.999Z</time></trkpt><trkpt lat="44.73372919452264" lon="7.230637076807077"><ele>1222.0</ele><time>2026-04-07T13:01:25.999Z</time></trkpt><trkpt lat="44.7336874749133" lon="7.2307158313425886"><ele>1224.0</ele><time>2026-04-07T13:01:26.999Z</time></trkpt><trkpt lat="44.7336518269743" lon="7.230824228488598"><ele>1226.0</ele><time>2026-04-07T13:01:27.999Z</time></trkpt><trkpt lat="44.73360971881677" lon="7.230941502111011"><ele>1228.0</ele><time>2026-04-07T13:01:28.999Z</time></trkpt><trkpt lat="44.73356594494626" lon="7.231042653929356"><ele>1230.0</ele><time>2026-04-07T13:01:29.999Z</time></trkpt><trkpt lat="44.73352209836569" lon="7.231151060004587"><ele>1232.0</ele><time>2026-04-07T13:01:30.999Z</time></trkpt><trkpt lat="44.7334717790176" lon="7.231267769722671"><ele>1232.0</ele><time>2026-04-07T13:01:31.999Z</time></trkpt><trkpt lat="44.733428483573846" lon="7.231375479760275"><ele>1232.0</ele><time>2026-04-07T13:01:32.999Z</time></trkpt><trkpt lat="44.73339399010844" lon="7.231484990703443"><ele>1232.0</ele><time>2026-04-07T13:01:33.999Z</time></trkpt><trkpt lat="44.73335371549052" lon="7.231602656616057"><ele>1232.0</ele><time>2026-04-07T13:01:34.999Z</time></trkpt><trkpt lat="44.73330789818375" lon="7.231714555574093"><ele>1232.0</ele><time>2026-04-07T13:01:35.999Z</time></trkpt><trkpt lat="44.73325053277778" lon="7.231814335127266"><ele>1232.0</ele><time>2026-04-07T13:01:36.999Z</time></trkpt><trkpt lat="44.7332041121431" lon="7.231911395007091"><ele>1228.8333333333335</ele><time>2026-04-07T13:01:37.999Z</time></trkpt><trkpt lat="44.733148378912944" lon="7.231977011550133"><ele>1225.6666666666667</ele><time>2026-04-07T13:01:38.999Z</time></trkpt><trkpt lat="44.73308843836773" lon="7.232109427510232"><ele>1222.5</ele><time>2026-04-07T13:01:40.999Z</time></trkpt><trkpt lat="44.73304518697423" lon="7.232200292636281"><ele>1219.3333333333333</ele><time>2026-04-07T13:01:43Z</time></trkpt><trkpt lat="44.732992609876355" lon="7.232254073909552"><ele>1216.1666666666665</ele><time>2026-04-07T13:02:10Z</time></trkpt><trkpt lat="44.732951004906155" lon="7.2323704545657845"><ele>1213.0</ele><time>2026-04-07T13:02:13Z</time></trkpt><trkpt lat="44.73292172968323" lon="7.232461844711626"><ele>1208.8</ele><time>2026-04-07T13:02:15Z</time></trkpt><trkpt lat="44.73289427811086" lon="7.2325887182854585"><ele>1204.6</ele><time>2026-04-07T13:02:17Z</time></trkpt><trkpt lat="44.732859303618696" lon="7.23273948208278"><ele>1200.4</ele><time>2026-04-07T13:02:19Z</time></trkpt><trkpt lat="44.732898712822994" lon="7.232891809333243"><ele>1196.2</ele><time>2026-04-07T13:02:21Z</time></trkpt><trkpt lat="44.73288297881891" lon="7.233042513024658"><ele>1192.0</ele><time>2026-04-07T13:02:23Z</time></trkpt><trkpt lat="44.73286134587326" lon="7.233159632413719"><ele>1189.0</ele><time>2026-04-07T13:02:25Z</time></trkpt><trkpt lat="44.73279177119528" lon="7.233269696191966"><ele>1186.0</ele><time>2026-04-07T13:02:27Z</time></trkpt><trkpt lat="44.73267684071948" lon="7.2333431448396635"><ele>1183.0</ele><time>2026-04-07T13:02:29Z</time></trkpt><trkpt lat="44.732610126329014" lon="7.233382484253294"><ele>1180.0</ele><time>2026-04-07T13:02:30Z</time></trkpt><trkpt lat="44.73254133090445" lon="7.2334603918652745"><ele>1177.0</ele><time>2026-04-07T13:02:31Z</time></trkpt><trkpt lat="44.732480511350325" lon="7.233522735111569"><ele>1184.2</ele><time>2026-04-07T13:02:32Z</time></trkpt><trkpt lat="44.73238999556452" lon="7.233540126960596"><ele>1191.4</ele><time>2026-04-07T13:02:33Z</time></trkpt><trkpt lat="44.73231907792172" lon="7.233588282523446"><ele>1198.6</ele><time>2026-04-07T13:02:34Z</time></trkpt><trkpt lat="44.73223202875315" lon="7.233634948600309"><ele>1205.8</ele><time>2026-04-07T13:02:35Z</time></trkpt><trkpt lat="44.7321499117725" lon="7.23369947065591"><ele>1213.0</ele><time>2026-04-07T13:02:36Z</time></trkpt><trkpt lat="44.73205509830738" lon="7.2337179883936304"><ele>1213.0</ele><time>2026-04-07T13:02:37Z</time></trkpt><trkpt lat="44.731972591369654" lon="7.233825817454757"><ele>1213.0</ele><time>2026-04-07T13:02:38Z</time></trkpt><trkpt lat="44.731878428350434" lon="7.233896250791829"><ele>1213.0</ele><time>2026-04-07T13:02:39Z</time></trkpt><trkpt lat="44.73178589781984" lon="7.233951117142357"><ele>1213.0</ele><time>2026-04-07T13:02:40Z</time></trkpt><trkpt lat="44.73169781479609" lon="7.23400234676228"><ele>1213.0</ele><time>2026-04-07T13:02:41Z</time></trkpt><trkpt lat="44.7316130609448" lon="7.234047713602264"><ele>1210.3333333333333</ele><time>2026-04-07T13:02:42Z</time></trkpt><trkpt lat="44.731532167290744" lon="7.234096485761547"><ele>1207.6666666666665</ele><time>2026-04-07T13:02:43Z</time></trkpt><trkpt lat="44.73145674562034" lon="7.234142127476668"><ele>1205.0</ele><time>2026-04-07T13:02:44Z</time></trkpt><trkpt lat="44.73138831229057" lon="7.234193460955163"><ele>1202.3333333333333</ele><time>2026-04-07T13:02:45Z</time></trkpt><trkpt lat="44.731325528150165" lon="7.234230180481822"><ele>1199.6666666666667</ele><time>2026-04-07T13:02:46Z</time></trkpt><trkpt lat="44.73127213711404" lon="7.234289300931467"><ele>1197.0</ele><time>2026-04-07T13:02:47Z</time></trkpt><trkpt lat="44.731211465344494" lon="7.234326406274689"><ele>1197.0</ele><time>2026-04-07T13:02:48Z</time></trkpt><trkpt lat="44.73113988316628" lon="7.234357158410166"><ele>1197.0</ele><time>2026-04-07T13:02:49Z</time></trkpt><trkpt lat="44.7310396124711" lon="7.234402591072471"><ele>1197.0</ele><time>2026-04-07T13:02:51Z</time></trkpt><trkpt lat="44.730941618126934" lon="7.234427421878453"><ele>1197.0</ele><time>2026-04-07T13:02:53Z</time></trkpt><trkpt lat="44.73083778139374" lon="7.234481156201334"><ele>1197.0</ele><time>2026-04-07T13:02:54.999Z</time></trkpt><trkpt lat="44.7307394892061" lon="7.234548273422845"><ele>1199.0</ele><time>2026-04-07T13:02:56.999Z</time></trkpt><trkpt lat="44.73066612208056" lon="7.23459272859156"><ele>1201.0</ele><time>2026-04-07T13:02:59.999Z</time></trkpt><trkpt lat="44.73060900786932" lon="7.234754156095281"><ele>1203.0</ele><time>2026-04-07T13:03:03.999Z</time></trkpt><trkpt lat="44.730685912122155" lon="7.234822278406345"><ele>1205.0</ele><time>2026-04-07T13:03:04.999Z</time></trkpt><trkpt lat="44.73084880407247" lon="7.234897600251862"><ele>1201.2</ele><time>2026-04-07T13:03:06.999Z</time></trkpt><trkpt lat="44.73092085626772" lon="7.234945475310106"><ele>1197.4</ele><time>2026-04-07T13:03:07.999Z</time></trkpt><trkpt lat="44.73098263798776" lon="7.234998452748931"><ele>1193.6</ele><time>2026-04-07T13:03:08.999Z</time></trkpt><trkpt lat="44.7311015509739" lon="7.235080988984319"><ele>1189.8</ele><time>2026-04-07T13:03:10.999Z</time></trkpt><trkpt lat="44.73122868947969" lon="7.235100780521055"><ele>1186.0</ele><time>2026-04-07T13:03:12.999Z</time></trkpt><trkpt lat="44.73133301742742" lon="7.23505336425683"><ele>1184.6</ele><time>2026-04-07T13:03:14.999Z</time></trkpt><trkpt lat="44.73139218004643" lon="7.235020271481254"><ele>1183.1999999999998</ele><time>2026-04-07T13:03:15.999Z</time></trkpt><trkpt lat="44.73151309865799" lon="7.234989886868508"><ele>1181.8000000000002</ele><time>2026-04-07T13:03:17.999Z</time></trkpt><trkpt lat="44.73160994139004" lon="7.234960302952769"><ele>1180.4</ele><time>2026-04-07T13:03:19.999Z</time></trkpt><trkpt lat="44.73171799555105" lon="7.234941598171134"><ele>1179.0</ele><time>2026-04-07T13:03:21.999Z</time></trkpt><trkpt lat="44.73181816551606" lon="7.234899089210527"><ele>1178.6666666666667</ele><time>2026-04-07T13:03:23.999Z</time></trkpt><trkpt lat="44.73189256422824" lon="7.23480894411491"><ele>1178.3333333333333</ele><time>2026-04-07T13:03:25.999Z</time></trkpt><trkpt lat="44.73197123746886" lon="7.234768917212642"><ele>1178.0</ele><time>2026-04-07T13:03:27.999Z</time></trkpt><trkpt lat="44.73204925012472" lon="7.234684958182336"><ele>1177.6666666666665</ele><time>2026-04-07T13:03:30.999Z</time></trkpt><trkpt lat="44.73211570048192" lon="7.234669981431757"><ele>1177.3333333333333</ele><time>2026-04-07T13:03:32.999Z</time></trkpt><trkpt lat="44.73218977591357" lon="7.2346999854705"><ele>1177.0</ele><time>2026-04-07T13:03:35.999Z</time></trkpt><trkpt lat="44.732196761064394" lon="7.234807674332969"><ele>1177.3333333333333</ele><time>2026-04-07T13:03:38.999Z</time></trkpt><trkpt lat="44.732154912001995" lon="7.234888520856026"><ele>1177.6666666666665</ele><time>2026-04-07T13:03:40.999Z</time></trkpt><trkpt lat="44.73209281704466" lon="7.234976748847199"><ele>1178.0</ele><time>2026-04-07T13:03:42.999Z</time></trkpt><trkpt lat="44.732014256353736" lon="7.235138196325183"><ele>1178.3333333333333</ele><time>2026-04-07T13:03:44.999Z</time></trkpt><trkpt lat="44.731975342425876" lon="7.23522659550488"><ele>1178.6666666666667</ele><time>2026-04-07T13:03:45.999Z</time></trkpt><trkpt lat="44.73193541057941" lon="7.235304121338262"><ele>1179.0</ele><time>2026-04-07T13:03:46.999Z</time></trkpt><trkpt lat="44.73183495073974" lon="7.235418607630854"><ele>1179.0</ele><time>2026-04-07T13:03:49Z</time></trkpt><trkpt lat="44.73179194414572" lon="7.235491800067609"><ele>1179.0</ele><time>2026-04-07T13:03:50Z</time></trkpt><trkpt lat="44.73175832452489" lon="7.235567963109574"><ele>1179.0</ele><time>2026-04-07T13:03:51Z</time></trkpt><trkpt lat="44.731706670510256" lon="7.235635761183969"><ele>1179.0</ele><time>2026-04-07T13:03:52Z</time></trkpt><trkpt lat="44.73163552240297" lon="7.23574998259454"><ele>1179.0</ele><time>2026-04-07T13:03:54Z</time></trkpt><trkpt lat="44.731567677168066" lon="7.2358993961660305"><ele>1179.0</ele><time>2026-04-07T13:03:56Z</time></trkpt><trkpt lat="44.7315009943341" lon="7.2360218822145095"><ele>1175.5</ele><time>2026-04-07T13:03:58Z</time></trkpt><trkpt lat="44.731407643024575" lon="7.236150524494279"><ele>1172.0</ele><time>2026-04-07T13:04:00Z</time></trkpt><trkpt lat="44.73133568348636" lon="7.236195394364437"><ele>1168.5</ele><time>2026-04-07T13:04:01Z</time></trkpt><trkpt lat="44.73127927262902" lon="7.236253378273297"><ele>1165.0</ele><time>2026-04-07T13:04:02Z</time></trkpt><trkpt lat="44.73121967712322" lon="7.2363029784241215"><ele>1161.5</ele><time>2026-04-07T13:04:03Z</time></trkpt><trkpt lat="44.73115398945519" lon="7.236362872925279"><ele>1158.0</ele><time>2026-04-07T13:04:04Z</time></trkpt><trkpt lat="44.73109787975996" lon="7.236412522179797"><ele>1155.6666666666667</ele><time>2026-04-07T13:04:05Z</time></trkpt><trkpt lat="44.731021676413874" lon="7.236498389940076"><ele>1153.3333333333333</ele><time>2026-04-07T13:04:07Z</time></trkpt><trkpt lat="44.730972237859014" lon="7.236585626323138"><ele>1151.0</ele><time>2026-04-07T13:04:09Z</time></trkpt><trkpt lat="44.7308993480294" lon="7.2366334603303795"><ele>1148.6666666666665</ele><time>2026-04-07T13:04:12Z</time></trkpt><trkpt lat="44.73084215219421" lon="7.2366843054924255"><ele>1146.3333333333333</ele><time>2026-04-07T13:04:14Z</time></trkpt><trkpt lat="44.7307787727667" lon="7.236685054652913"><ele>1144.0</ele><time>2026-04-07T13:04:16Z</time></trkpt><trkpt lat="44.73068849016435" lon="7.2366924338654846"><ele>1144.0</ele><time>2026-04-07T13:04:19Z</time></trkpt><trkpt lat="44.73061938416895" lon="7.236726982966574"><ele>1144.0</ele><time>2026-04-07T13:04:22Z</time></trkpt><trkpt lat="44.73058681833375" lon="7.236809199366711"><ele>1144.0</ele><time>2026-04-07T13:04:25Z</time></trkpt><trkpt lat="44.7305747535356" lon="7.23689757174842"><ele>1144.0</ele><time>2026-04-07T13:04:42Z</time></trkpt><trkpt lat="44.730478306412806" lon="7.236825916162098"><ele>1144.0</ele><time>2026-04-07T13:04:53Z</time></trkpt><trkpt lat="44.73040616764478" lon="7.236853042451108"><ele>1144.0</ele><time>2026-04-07T13:04:56Z</time></trkpt><trkpt lat="44.73032614336113" lon="7.236835044350427"><ele>1144.0</ele><time>2026-04-07T13:04:58.999Z</time></trkpt><trkpt lat="44.73026364658057" lon="7.236697463639458"><ele>1144.0</ele><time>2026-04-07T13:05:00.999Z</time></trkpt><trkpt lat="44.73024713738587" lon="7.236608165746718"><ele>1144.0</ele><time>2026-04-07T13:05:01.999Z</time></trkpt><trkpt lat="44.73021645529572" lon="7.236519325881272"><ele>1144.0</ele><time>2026-04-07T13:05:02.999Z</time></trkpt><trkpt lat="44.73016310434875" lon="7.236424382246487"><ele>1144.0</ele><time>2026-04-07T13:05:03.999Z</time></trkpt><trkpt lat="44.73011441226993" lon="7.236345043237281"><ele>1144.0</ele><time>2026-04-07T13:05:04.999Z</time></trkpt><trkpt lat="44.730035881927044" lon="7.2362765323205736"><ele>1144.5</ele><time>2026-04-07T13:05:05.999Z</time></trkpt><trkpt lat="44.72997816058005" lon="7.236196627042359"><ele>1145.0</ele><time>2026-04-07T13:05:06.999Z</time></trkpt><trkpt lat="44.729918182387635" lon="7.236133025571751"><ele>1145.5</ele><time>2026-04-07T13:05:07.999Z</time></trkpt><trkpt lat="44.7298676877759" lon="7.236052750056943"><ele>1146.0</ele><time>2026-04-07T13:05:08.999Z</time></trkpt><trkpt lat="44.729814301814095" lon="7.235964444230758"><ele>1146.5</ele><time>2026-04-07T13:05:09.999Z</time></trkpt><trkpt lat="44.7297488782613" lon="7.235900407664672"><ele>1147.0</ele><time>2026-04-07T13:05:10.999Z</time></trkpt><trkpt lat="44.7296908353159" lon="7.235825391017663"><ele>1147.0</ele><time>2026-04-07T13:05:11.999Z</time></trkpt><trkpt lat="44.7296263682382" lon="7.2357227116488065"><ele>1147.0</ele><time>2026-04-07T13:05:12.999Z</time></trkpt><trkpt lat="44.729564992028926" lon="7.235669362523941"><ele>1147.0</ele><time>2026-04-07T13:05:13.999Z</time></trkpt><trkpt lat="44.72950003509378" lon="7.235618328588283"><ele>1147.0</ele><time>2026-04-07T13:05:14.999Z</time></trkpt><trkpt lat="44.72943896019286" lon="7.235560336881519"><ele>1147.0</ele><time>2026-04-07T13:05:15.999Z</time></trkpt><trkpt lat="44.729374923421254" lon="7.235520734776912"><ele>1147.0</ele><time>2026-04-07T13:05:16.999Z</time></trkpt><trkpt lat="44.72930671927568" lon="7.235505864392777"><ele>1146.0</ele><time>2026-04-07T13:05:17.999Z</time></trkpt><trkpt lat="44.72924377808448" lon="7.235494579592025"><ele>1145.0</ele><time>2026-04-07T13:05:18.999Z</time></trkpt><trkpt lat="44.729143544625195" lon="7.2354120575382"><ele>1144.0</ele><time>2026-04-07T13:05:20.999Z</time></trkpt><trkpt lat="44.7290539327519" lon="7.235305966426707"><ele>1143.0</ele><time>2026-04-07T13:05:22.999Z</time></trkpt><trkpt lat="44.72898139453514" lon="7.235197371429933"><ele>1142.0</ele><time>2026-04-07T13:05:24.999Z</time></trkpt><trkpt lat="44.72890009360158" lon="7.235104512456151"><ele>1142.0</ele><time>2026-04-07T13:05:26.999Z</time></trkpt><trkpt lat="44.72884465778999" lon="7.235019103439946"><ele>1142.0</ele><time>2026-04-07T13:05:28.999Z</time></trkpt><trkpt lat="44.72878954333412" lon="7.234972596897527"><ele>1142.0</ele><time>2026-04-07T13:05:29.999Z</time></trkpt><trkpt lat="44.7287112268867" lon="7.234906831902408"><ele>1142.0</ele><time>2026-04-07T13:05:31.999Z</time></trkpt><trkpt lat="44.72862705679589" lon="7.23481478469105"><ele>1142.0</ele><time>2026-04-07T13:05:33.999Z</time></trkpt><trkpt lat="44.728544735564704" lon="7.234742651430615"><ele>1142.0</ele><time>2026-04-07T13:05:35.999Z</time></trkpt><trkpt lat="44.72845794935862" lon="7.234685687400326"><ele>1142.1666666666667</ele><time>2026-04-07T13:05:37.999Z</time></trkpt><trkpt lat="44.72839437365892" lon="7.234702980263759"><ele>1142.3333333333335</ele><time>2026-04-07T13:05:39.999Z</time></trkpt><trkpt lat="44.728328533484216" lon="7.2347473371247"><ele>1142.5</ele><time>2026-04-07T13:05:41.999Z</time></trkpt><trkpt lat="44.72825662345473" lon="7.23472421790387"><ele>1142.6666666666667</ele><time>2026-04-07T13:05:44.999Z</time></trkpt><trkpt lat="44.72816509575939" lon="7.2347135399952185"><ele>1142.8333333333333</ele><time>2026-04-07T13:05:47.999Z</time></trkpt><trkpt lat="44.728073627270575" lon="7.2347034665485905"><ele>1143.0</ele><time>2026-04-07T13:05:49.999Z</time></trkpt><trkpt lat="44.72799146709584" lon="7.234664462306796"><ele>1143.0</ele><time>2026-04-07T13:05:51.999Z</time></trkpt><trkpt lat="44.72790707362646" lon="7.234599558582052"><ele>1143.0</ele><time>2026-04-07T13:05:54Z</time></trkpt><trkpt lat="44.72784262298458" lon="7.234537357276798"><ele>1143.0</ele><time>2026-04-07T13:05:56Z</time></trkpt><trkpt lat="44.727782189105994" lon="7.2344897345345265"><ele>1143.0</ele><time>2026-04-07T13:05:57Z</time></trkpt><trkpt lat="44.72769968164066" lon="7.234412250730592"><ele>1143.0</ele><time>2026-04-07T13:05:59Z</time></trkpt><trkpt lat="44.72759179610242" lon="7.234342385241849"><ele>1142.6666666666667</ele><time>2026-04-07T13:06:01Z</time></trkpt><trkpt lat="44.727485515160396" lon="7.234235068440861"><ele>1142.3333333333333</ele><time>2026-04-07T13:06:03Z</time></trkpt><trkpt lat="44.7274303622608" lon="7.23413440779949"><ele>1142.0</ele><time>2026-04-07T13:06:04Z</time></trkpt><trkpt lat="44.72736964129909" lon="7.234071473906796"><ele>1141.6666666666665</ele><time>2026-04-07T13:06:05Z</time></trkpt><trkpt lat="44.7273010724051" lon="7.234026241939554"><ele>1141.3333333333333</ele><time>2026-04-07T13:06:06Z</time></trkpt><trkpt lat="44.72725147338228" lon="7.233969853555845"><ele>1141.0</ele><time>2026-04-07T13:06:07Z</time></trkpt><trkpt lat="44.727169765579234" lon="7.233905096734116"><ele>1141.0</ele><time>2026-04-07T13:06:09Z</time></trkpt><trkpt lat="44.727080150536096" lon="7.233910805423148"><ele>1141.0</ele><time>2026-04-07T13:06:12Z</time></trkpt><trkpt lat="44.727013902975" lon="7.233955993339114"><ele>1141.0</ele><time>2026-04-07T13:06:14Z</time></trkpt><trkpt lat="44.726960840519816" lon="7.2340073641194165"><ele>1141.0</ele><time>2026-04-07T13:06:17Z</time></trkpt><trkpt lat="44.72690139718198" lon="7.234058235810004"><ele>1141.0</ele><time>2026-04-07T13:06:19Z</time></trkpt><trkpt lat="44.72687877061975" lon="7.234163605779208"><ele>1141.0</ele><time>2026-04-07T13:06:31Z</time></trkpt><trkpt lat="44.72686459568009" lon="7.234252650626709"><ele>1141.0</ele><time>2026-04-07T13:06:40Z</time></trkpt><trkpt lat="44.72689457139643" lon="7.234353124439307"><ele>1136.3333333333333</ele><time>2026-04-07T13:06:42Z</time></trkpt><trkpt lat="44.726898027821285" lon="7.2344658591715145"><ele>1131.6666666666665</ele><time>2026-04-07T13:06:45Z</time></trkpt><trkpt lat="44.726901410072884" lon="7.234608417660887"><ele>1127.0</ele><time>2026-04-07T13:06:47Z</time></trkpt><trkpt lat="44.72690258719459" lon="7.234740315898927"><ele>1122.3333333333333</ele><time>2026-04-07T13:06:49Z</time></trkpt><trkpt lat="44.72690482542099" lon="7.2348710900494595"><ele>1117.6666666666667</ele><time>2026-04-07T13:06:51Z</time></trkpt><trkpt lat="44.72688555917881" lon="7.234963705519278"><ele>1113.0</ele><time>2026-04-07T13:06:53Z</time></trkpt><trkpt lat="44.72685296551773" lon="7.235053820688299"><ele>1112.1666666666667</ele><time>2026-04-07T13:06:55Z</time></trkpt><trkpt lat="44.726878954629235" lon="7.2351691688682624"><ele>1111.3333333333333</ele><time>2026-04-07T13:06:58Z</time></trkpt><trkpt lat="44.72696602075985" lon="7.23521396250317"><ele>1110.5</ele><time>2026-04-07T13:07:00Z</time></trkpt><trkpt lat="44.72700955125773" lon="7.235287466831372"><ele>1109.6666666666665</ele><time>2026-04-07T13:07:02Z</time></trkpt><trkpt lat="44.72704628848129" lon="7.235395527249588"><ele>1108.8333333333333</ele><time>2026-04-07T13:07:04.999Z</time></trkpt><trkpt lat="44.72707685205868" lon="7.235540228178275"><ele>1108.0</ele><time>2026-04-07T13:07:06.999Z</time></trkpt><trkpt lat="44.72712160608678" lon="7.235654927951977"><ele>1102.8333333333333</ele><time>2026-04-07T13:07:08.999Z</time></trkpt><trkpt lat="44.72714523497407" lon="7.2357469818685045"><ele>1097.6666666666665</ele><time>2026-04-07T13:07:10.999Z</time></trkpt><trkpt lat="44.72718371777999" lon="7.235877887016569"><ele>1092.5</ele><time>2026-04-07T13:07:12.999Z</time></trkpt><trkpt lat="44.72719816912491" lon="7.236000950143568"><ele>1087.3333333333333</ele><time>2026-04-07T13:07:14.999Z</time></trkpt><trkpt lat="44.72724728808556" lon="7.236088353650212"><ele>1082.1666666666667</ele><time>2026-04-07T13:07:16.999Z</time></trkpt><trkpt lat="44.72729431434275" lon="7.236203000944602"><ele>1077.0</ele><time>2026-04-07T13:07:18.999Z</time></trkpt><trkpt lat="44.727317442625576" lon="7.2363350624004275"><ele>1077.0</ele><time>2026-04-07T13:07:20.999Z</time></trkpt><trkpt lat="44.72734018076294" lon="7.2364522476994475"><ele>1077.0</ele><time>2026-04-07T13:07:22.999Z</time></trkpt><trkpt lat="44.727375755000025" lon="7.236594318791404"><ele>1077.0</ele><time>2026-04-07T13:07:24.999Z</time></trkpt><trkpt lat="44.72738441175998" lon="7.236690230272553"><ele>1077.0</ele><time>2026-04-07T13:07:26.999Z</time></trkpt><trkpt lat="44.7274357383344" lon="7.236804803482592"><ele>1077.0</ele><time>2026-04-07T13:07:28.999Z</time></trkpt><trkpt lat="44.7275092274763" lon="7.23693588511287"><ele>1077.2</ele><time>2026-04-07T13:07:30.999Z</time></trkpt><trkpt lat="44.72751665475406" lon="7.237048164166677"><ele>1077.4</ele><time>2026-04-07T13:07:32.999Z</time></trkpt><trkpt lat="44.72754214529143" lon="7.2371881258260755"><ele>1077.6</ele><time>2026-04-07T13:07:34.999Z</time></trkpt><trkpt lat="44.72757724489378" lon="7.237303609590657"><ele>1077.8</ele><time>2026-04-07T13:07:36.999Z</time></trkpt><trkpt lat="44.72758848791658" lon="7.2374289180985345"><ele>1078.0</ele><time>2026-04-07T13:07:38.999Z</time></trkpt><trkpt lat="44.72759123025131" lon="7.237561072618733"><ele>1077.3333333333333</ele><time>2026-04-07T13:07:40.999Z</time></trkpt><trkpt lat="44.72761283825548" lon="7.237678029691524"><ele>1076.6666666666665</ele><time>2026-04-07T13:07:42.999Z</time></trkpt><trkpt lat="44.7276104202588" lon="7.237808670778484"><ele>1076.0</ele><time>2026-04-07T13:07:44.999Z</time></trkpt><trkpt lat="44.727609655321366" lon="7.237943878815515"><ele>1075.3333333333333</ele><time>2026-04-07T13:07:46.999Z</time></trkpt><trkpt lat="44.727590918794064" lon="7.238039193691305"><ele>1074.6666666666667</ele><time>2026-04-07T13:07:47.999Z</time></trkpt><trkpt lat="44.72758551183642" lon="7.238142438421378"><ele>1074.0</ele><time>2026-04-07T13:07:48.999Z</time></trkpt><trkpt lat="44.72757947637151" lon="7.238231517431438"><ele>1072.8</ele><time>2026-04-07T13:07:49.999Z</time></trkpt><trkpt lat="44.72754980173046" lon="7.238370040462383"><ele>1071.6000000000001</ele><time>2026-04-07T13:07:51.999Z</time></trkpt><trkpt lat="44.72754482639457" lon="7.2385001632223425"><ele>1070.4</ele><time>2026-04-07T13:07:53.999Z</time></trkpt><trkpt lat="44.72751701398034" lon="7.238613856337952"><ele>1069.2</ele><time>2026-04-07T13:07:55.999Z</time></trkpt><trkpt lat="44.72748286756623" lon="7.238788208492092"><ele>1068.0</ele><time>2026-04-07T13:07:57.999Z</time></trkpt><trkpt lat="44.72746956988358" lon="7.238880659015831"><ele>1065.8</ele><time>2026-04-07T13:07:58.999Z</time></trkpt><trkpt lat="44.727446371531265" lon="7.238980894795887"><ele>1063.6</ele><time>2026-04-07T13:08:00Z</time></trkpt><trkpt lat="44.72741202945229" lon="7.239140912303275"><ele>1061.4</ele><time>2026-04-07T13:08:02Z</time></trkpt><trkpt lat="44.72737126966028" lon="7.2393251579344335"><ele>1059.2</ele><time>2026-04-07T13:08:04Z</time></trkpt><trkpt lat="44.72734701481528" lon="7.239430149891438"><ele>1057.0</ele><time>2026-04-07T13:08:05Z</time></trkpt><trkpt lat="44.72732599563219" lon="7.23951928672715"><ele>1057.0</ele><time>2026-04-07T13:08:06Z</time></trkpt><trkpt lat="44.72729744518105" lon="7.239639374562894"><ele>1057.0</ele><time>2026-04-07T13:08:08Z</time></trkpt><trkpt lat="44.72727123352129" lon="7.239749625577196"><ele>1057.0</ele><time>2026-04-07T13:08:10Z</time></trkpt><trkpt lat="44.727236337032934" lon="7.239895324978137"><ele>1057.0</ele><time>2026-04-07T13:08:12Z</time></trkpt><trkpt lat="44.72721396011375" lon="7.23998842940422"><ele>1057.0</ele><time>2026-04-07T13:08:13Z</time></trkpt><trkpt lat="44.72729361368963" lon="7.240106793613983"><ele>1057.3333333333333</ele><time>2026-04-07T13:08:14Z</time></trkpt><trkpt lat="44.72732975823999" lon="7.240199793108525"><ele>1057.6666666666665</ele><time>2026-04-07T13:08:15Z</time></trkpt><trkpt lat="44.727378475698025" lon="7.240331874212781"><ele>1058.0</ele><time>2026-04-07T13:08:17Z</time></trkpt><trkpt lat="44.727395495233154" lon="7.240492133535345"><ele>1058.3333333333333</ele><time>2026-04-07T13:08:19Z</time></trkpt><trkpt lat="44.727414921037806" lon="7.240590646145209"><ele>1058.6666666666667</ele><time>2026-04-07T13:08:20Z</time></trkpt><trkpt lat="44.72740926559479" lon="7.240687644860335"><ele>1059.0</ele><time>2026-04-07T13:08:21Z</time></trkpt><trkpt lat="44.72744755306196" lon="7.2407769942197895"><ele>1059.0</ele><time>2026-04-07T13:08:22Z</time></trkpt><trkpt lat="44.72749422002631" lon="7.240842114604762"><ele>1059.0</ele><time>2026-04-07T13:08:23Z</time></trkpt><trkpt lat="44.72758144358712" lon="7.240983826139947"><ele>1059.0</ele><time>2026-04-07T13:08:25Z</time></trkpt><trkpt lat="44.7276481679676" lon="7.241063074828841"><ele>1059.0</ele><time>2026-04-07T13:08:26Z</time></trkpt><trkpt lat="44.72771319194344" lon="7.241134659923702"><ele>1059.0</ele><time>2026-04-07T13:08:27Z</time></trkpt><trkpt lat="44.72778822995263" lon="7.24120950595112"><ele>1054.1666666666667</ele><time>2026-04-07T13:08:28Z</time></trkpt><trkpt lat="44.72786777084435" lon="7.241254318872824"><ele>1049.3333333333333</ele><time>2026-04-07T13:08:29Z</time></trkpt><trkpt lat="44.727936391453845" lon="7.241305014101801"><ele>1044.5</ele><time>2026-04-07T13:08:30Z</time></trkpt><trkpt lat="44.7279942046048" lon="7.241357269927645"><ele>1039.6666666666665</ele><time>2026-04-07T13:08:31Z</time></trkpt><trkpt lat="44.72804025220383" lon="7.241437020927133"><ele>1034.8333333333333</ele><time>2026-04-07T13:08:32Z</time></trkpt><trkpt lat="44.72809824752936" lon="7.241572850370364"><ele>1030.0</ele><time>2026-04-07T13:08:34Z</time></trkpt><trkpt lat="44.72814278303535" lon="7.241709472039399"><ele>1030.0</ele><time>2026-04-07T13:08:36Z</time></trkpt><trkpt lat="44.72816025809553" lon="7.241869734911839"><ele>1030.0</ele><time>2026-04-07T13:08:38Z</time></trkpt><trkpt lat="44.72813999464134" lon="7.24202910404426"><ele>1030.0</ele><time>2026-04-07T13:08:40Z</time></trkpt><trkpt lat="44.72808959306618" lon="7.242163227507574"><ele>1030.0</ele><time>2026-04-07T13:08:42Z</time></trkpt><trkpt lat="44.728015057817466" lon="7.2422942321490895"><ele>1027.8</ele><time>2026-04-07T13:08:44Z</time></trkpt><trkpt lat="44.72795346680973" lon="7.242372449953082"><ele>1025.6</ele><time>2026-04-07T13:08:46Z</time></trkpt><trkpt lat="44.72786021895712" lon="7.242394237088409"><ele>1023.4000000000001</ele><time>2026-04-07T13:08:48Z</time></trkpt><trkpt lat="44.72773442992486" lon="7.242422856889209"><ele>1021.2</ele><time>2026-04-07T13:08:50Z</time></trkpt><trkpt lat="44.72762207916091" lon="7.24248956632569"><ele>1019.0</ele><time>2026-04-07T13:08:52Z</time></trkpt><trkpt lat="44.72756516314563" lon="7.242542740590779"><ele>1025.2</ele><time>2026-04-07T13:08:53Z</time></trkpt><trkpt lat="44.72751650295585" lon="7.24260631915269"><ele>1031.4</ele><time>2026-04-07T13:08:54Z</time></trkpt><trkpt lat="44.72743153596552" lon="7.242732646825497"><ele>1037.6</ele><time>2026-04-07T13:08:56Z</time></trkpt><trkpt lat="44.7273468278446" lon="7.24285664314598"><ele>1043.8</ele><time>2026-04-07T13:08:58Z</time></trkpt><trkpt lat="44.727317587965814" lon="7.242964922093267"><ele>1050.0</ele><time>2026-04-07T13:08:59Z</time></trkpt><trkpt lat="44.727268136426055" lon="7.243092514397564"><ele>1047.0</ele><time>2026-04-07T13:09:01Z</time></trkpt><trkpt lat="44.72718228056796" lon="7.2431932629732705"><ele>1044.0</ele><time>2026-04-07T13:09:03Z</time></trkpt><trkpt lat="44.72710326483063" lon="7.243310186564956"><ele>1041.0</ele><time>2026-04-07T13:09:05Z</time></trkpt><trkpt lat="44.72705268705906" lon="7.243365190785701"><ele>1038.0</ele><time>2026-04-07T13:09:06Z</time></trkpt><trkpt lat="44.72695305367436" lon="7.243434097039452"><ele>1035.0</ele><time>2026-04-07T13:09:08Z</time></trkpt><trkpt lat="44.726875312825875" lon="7.243539467504077"><ele>1035.0</ele><time>2026-04-07T13:09:09.999Z</time></trkpt><trkpt lat="44.72683067740093" lon="7.243629912427017"><ele>1035.0</ele><time>2026-04-07T13:09:11.999Z</time></trkpt><trkpt lat="44.72680872167169" lon="7.243772525440296"><ele>1035.0</ele><time>2026-04-07T13:09:13.999Z</time></trkpt><trkpt lat="44.726802077672524" lon="7.243927811035574"><ele>1035.0</ele><time>2026-04-07T13:09:15.999Z</time></trkpt><trkpt lat="44.72683009787266" lon="7.244082399431531"><ele>1035.0</ele><time>2026-04-07T13:09:17.999Z</time></trkpt><trkpt lat="44.726820134874686" lon="7.244191512157228"><ele>1031.6</ele><time>2026-04-07T13:09:19.999Z</time></trkpt><trkpt lat="44.726757555291506" lon="7.24428942073984"><ele>1028.2</ele><time>2026-04-07T13:09:21.999Z</time></trkpt><trkpt lat="44.72668722914714" lon="7.2444202967100235"><ele>1024.8</ele><time>2026-04-07T13:09:23.999Z</time></trkpt><trkpt lat="44.726633217615465" lon="7.244567701484291"><ele>1021.4</ele><time>2026-04-07T13:09:25.999Z</time></trkpt><trkpt lat="44.72656626409136" lon="7.244662070939066"><ele>1018.0</ele><time>2026-04-07T13:09:27.999Z</time></trkpt><trkpt lat="44.72653517781594" lon="7.244784344391882"><ele>1016.8333333333333</ele><time>2026-04-07T13:09:29.999Z</time></trkpt><trkpt lat="44.72656868215123" lon="7.2448944791636665"><ele>1015.6666666666666</ele><time>2026-04-07T13:09:31.999Z</time></trkpt><trkpt lat="44.726649061552855" lon="7.2449408880421915"><ele>1014.5</ele><time>2026-04-07T13:09:33.999Z</time></trkpt><trkpt lat="44.726777345242525" lon="7.244951372064553"><ele>1013.3333333333333</ele><time>2026-04-07T13:09:35.999Z</time></trkpt><trkpt lat="44.72684301755367" lon="7.244960199407311"><ele>1012.1666666666666</ele><time>2026-04-07T13:09:36.999Z</time></trkpt><trkpt lat="44.72690484339247" lon="7.244980138004962"><ele>1011.0</ele><time>2026-04-07T13:09:37.999Z</time></trkpt><trkpt lat="44.726966749097514" lon="7.245022546141016"><ele>1006.1666666666666</ele><time>2026-04-07T13:09:38.999Z</time></trkpt><trkpt lat="44.72702437011565" lon="7.245084548296702"><ele>1001.3333333333333</ele><time>2026-04-07T13:09:39.999Z</time></trkpt><trkpt lat="44.727082161104484" lon="7.245159992589456"><ele>996.5</ele><time>2026-04-07T13:09:40.999Z</time></trkpt><trkpt lat="44.72714075323844" lon="7.245218686919863"><ele>991.6666666666666</ele><time>2026-04-07T13:09:41.999Z</time></trkpt><trkpt lat="44.727188268081456" lon="7.2452981569557595"><ele>986.8333333333333</ele><time>2026-04-07T13:09:42.999Z</time></trkpt><trkpt lat="44.727293836324044" lon="7.245393336547558"><ele>982.0</ele><time>2026-04-07T13:09:44.999Z</time></trkpt><trkpt lat="44.72740633682732" lon="7.2453994005440165"><ele>981.9999999999999</ele><time>2026-04-07T13:09:46.999Z</time></trkpt><trkpt lat="44.7274783066473" lon="7.245423647167748"><ele>982.0</ele><time>2026-04-07T13:09:48.999Z</time></trkpt><trkpt lat="44.72753194518504" lon="7.245491035192315"><ele>982.0</ele><time>2026-04-07T13:09:50.999Z</time></trkpt><trkpt lat="44.72758970289702" lon="7.245608914726924"><ele>982.0</ele><time>2026-04-07T13:09:52.999Z</time></trkpt><trkpt lat="44.72761433859988" lon="7.245693385792685"><ele>981.9999999999999</ele><time>2026-04-07T13:09:53.999Z</time></trkpt><trkpt lat="44.72768161743318" lon="7.245806253336571"><ele>982.0</ele><time>2026-04-07T13:09:55.999Z</time></trkpt><trkpt lat="44.72775915258246" lon="7.245897694315168"><ele>982.0</ele><time>2026-04-07T13:09:57.999Z</time></trkpt><trkpt lat="44.72783976610442" lon="7.245961585252065"><ele>982.0</ele><time>2026-04-07T13:09:59.999Z</time></trkpt><trkpt lat="44.72794796053546" lon="7.245998993129365"><ele>982.0</ele><time>2026-04-07T13:10:01.999Z</time></trkpt><trkpt lat="44.72807843086696" lon="7.2460480884175755"><ele>982.0</ele><time>2026-04-07T13:10:03.999Z</time></trkpt><trkpt lat="44.72816824684643" lon="7.246127425197806"><ele>982.0</ele><time>2026-04-07T13:10:04.999Z</time></trkpt><trkpt lat="44.72823290283472" lon="7.246159356483686"><ele>982.0</ele><time>2026-04-07T13:10:06Z</time></trkpt><trkpt lat="44.72829931600098" lon="7.246196226026799"><ele>981.9999999999999</ele><time>2026-04-07T13:10:07Z</time></trkpt><trkpt lat="44.72835694895782" lon="7.246237415710631"><ele>982.0</ele><time>2026-04-07T13:10:08Z</time></trkpt><trkpt lat="44.72841874400995" lon="7.246268877611547"><ele>982.0</ele><time>2026-04-07T13:10:09Z</time></trkpt><trkpt lat="44.728474682774916" lon="7.246319739275467"><ele>981.9999999999999</ele><time>2026-04-07T13:10:10Z</time></trkpt><trkpt lat="44.7285448413129" lon="7.2463195707978585"><ele>982.0</ele><time>2026-04-07T13:10:11Z</time></trkpt><trkpt lat="44.72860819180579" lon="7.246300824850006"><ele>982.0</ele><time>2026-04-07T13:10:12Z</time></trkpt><trkpt lat="44.72867949745365" lon="7.246283800375919"><ele>983.9999999999999</ele><time>2026-04-07T13:10:13Z</time></trkpt><trkpt lat="44.728781498192824" lon="7.2463315904832255"><ele>986.0</ele><time>2026-04-07T13:10:15Z</time></trkpt><trkpt lat="44.72884644747118" lon="7.246364423858178"><ele>988.0</ele><time>2026-04-07T13:10:16Z</time></trkpt><trkpt lat="44.72890864796841" lon="7.246405901302496"><ele>990.0</ele><time>2026-04-07T13:10:17Z</time></trkpt><trkpt lat="44.72898297317549" lon="7.246478957270787"><ele>991.9999999999999</ele><time>2026-04-07T13:10:18Z</time></trkpt><trkpt lat="44.7290411934258" lon="7.246549448946569"><ele>994.0</ele><time>2026-04-07T13:10:19Z</time></trkpt><trkpt lat="44.72909509892514" lon="7.246611736008196"><ele>993.9999999999999</ele><time>2026-04-07T13:10:20Z</time></trkpt><trkpt lat="44.729155928177484" lon="7.246652650530697"><ele>994.0</ele><time>2026-04-07T13:10:21Z</time></trkpt><trkpt lat="44.72922073275727" lon="7.246661523951728"><ele>994.0</ele><time>2026-04-07T13:10:22Z</time></trkpt><trkpt lat="44.72930443758666" lon="7.246659074044451"><ele>994.0</ele><time>2026-04-07T13:10:24Z</time></trkpt><trkpt lat="44.72938322004505" lon="7.246796285475919"><ele>993.9999999999999</ele><time>2026-04-07T13:10:26Z</time></trkpt><trkpt lat="44.72942628746109" lon="7.2468765750127755"><ele>994.0</ele><time>2026-04-07T13:10:27Z</time></trkpt><trkpt lat="44.72949383942883" lon="7.246938771699201"><ele>988.8000000000001</ele><time>2026-04-07T13:10:28Z</time></trkpt><trkpt lat="44.72957275538076" lon="7.246986362884776"><ele>983.6000000000001</ele><time>2026-04-07T13:10:29Z</time></trkpt><trkpt lat="44.72968090481" lon="7.247021287018902"><ele>978.4</ele><time>2026-04-07T13:10:31Z</time></trkpt><trkpt lat="44.72975056661608" lon="7.246988005101693"><ele>973.2</ele><time>2026-04-07T13:10:32Z</time></trkpt><trkpt lat="44.72987766032581" lon="7.247004125767638"><ele>968.0</ele><time>2026-04-07T13:10:34Z</time></trkpt><trkpt lat="44.72995377589811" lon="7.24704965923699"><ele>968.0000000000001</ele><time>2026-04-07T13:10:35Z</time></trkpt><trkpt lat="44.73003645912912" lon="7.2471043037746865"><ele>968.0</ele><time>2026-04-07T13:10:36Z</time></trkpt><trkpt lat="44.73012787510046" lon="7.2471562858876615"><ele>968.0</ele><time>2026-04-07T13:10:37Z</time></trkpt><trkpt lat="44.73020800120249" lon="7.247215898833657"><ele>968.0</ele><time>2026-04-07T13:10:38Z</time></trkpt><trkpt lat="44.7302910669622" lon="7.247273911712984"><ele>968.0000000000001</ele><time>2026-04-07T13:10:39Z</time></trkpt><trkpt lat="44.73035232794552" lon="7.2473213775335825"><ele>968.0</ele><time>2026-04-07T13:10:40Z</time></trkpt><trkpt lat="44.73042454247649" lon="7.247375622280706"><ele>968.5000000000001</ele><time>2026-04-07T13:10:41Z</time></trkpt><trkpt lat="44.73050364009292" lon="7.247418181138323"><ele>969.0</ele><time>2026-04-07T13:10:42Z</time></trkpt><trkpt lat="44.73057104876048" lon="7.247450362078459"><ele>969.5</ele><time>2026-04-07T13:10:43Z</time></trkpt><trkpt lat="44.730645481892516" lon="7.2474614408287135"><ele>970.0</ele><time>2026-04-07T13:10:44Z</time></trkpt><trkpt lat="44.73072513277461" lon="7.2474677033477155"><ele>970.5000000000001</ele><time>2026-04-07T13:10:45Z</time></trkpt><trkpt lat="44.730832841902675" lon="7.247524802847669"><ele>971.0</ele><time>2026-04-07T13:10:47Z</time></trkpt><trkpt lat="44.73089094919321" lon="7.24765469750863"><ele>971.0000000000001</ele><time>2026-04-07T13:10:49Z</time></trkpt><trkpt lat="44.73092062213605" lon="7.247808006635549"><ele>971.0</ele><time>2026-04-07T13:10:51Z</time></trkpt><trkpt lat="44.73093199186061" lon="7.247980872501574"><ele>971.0</ele><time>2026-04-07T13:10:53Z</time></trkpt><trkpt lat="44.730943011559106" lon="7.248073615403759"><ele>971.0</ele><time>2026-04-07T13:10:54Z</time></trkpt><trkpt lat="44.73096706087848" lon="7.248163705175886"><ele>971.0000000000001</ele><time>2026-04-07T13:10:55Z</time></trkpt><trkpt lat="44.73099380266567" lon="7.248264055366886"><ele>971.0</ele><time>2026-04-07T13:10:56Z</time></trkpt><trkpt lat="44.73103296478999" lon="7.248357124493671"><ele>965.6666666666667</ele><time>2026-04-07T13:10:57Z</time></trkpt><trkpt lat="44.73106662727335" lon="7.248440086730685"><ele>960.3333333333334</ele><time>2026-04-07T13:10:58Z</time></trkpt><trkpt lat="44.731114184562315" lon="7.248513703008014"><ele>955.0</ele><time>2026-04-07T13:10:59Z</time></trkpt><trkpt lat="44.73114881870468" lon="7.248591926000859"><ele>949.6666666666667</ele><time>2026-04-07T13:11:00Z</time></trkpt><trkpt lat="44.73118787108455" lon="7.24867224628916"><ele>944.3333333333334</ele><time>2026-04-07T13:11:01Z</time></trkpt><trkpt lat="44.73125768586611" lon="7.248806897603819"><ele>939.0</ele><time>2026-04-07T13:11:03Z</time></trkpt><trkpt lat="44.73134588213966" lon="7.248891637554353"><ele>942.0</ele><time>2026-04-07T13:11:05Z</time></trkpt><trkpt lat="44.73141552325767" lon="7.249020371452237"><ele>945.0000000000001</ele><time>2026-04-07T13:11:07Z</time></trkpt><trkpt lat="44.73147698080847" lon="7.249172950008524"><ele>948.0000000000001</ele><time>2026-04-07T13:11:09Z</time></trkpt><trkpt lat="44.73150328571888" lon="7.249255014549071"><ele>951.0</ele><time>2026-04-07T13:11:10Z</time></trkpt><trkpt lat="44.73154620975995" lon="7.249324519833147"><ele>954.0</ele><time>2026-04-07T13:11:11Z</time></trkpt><trkpt lat="44.73164287387929" lon="7.249432047591553"><ele>954.0</ele><time>2026-04-07T13:11:13Z</time></trkpt><trkpt lat="44.73172660371211" lon="7.24951701430337"><ele>954.0000000000001</ele><time>2026-04-07T13:11:14.999Z</time></trkpt><trkpt lat="44.73179228771968" lon="7.249597545079262"><ele>954.0000000000001</ele><time>2026-04-07T13:11:16.999Z</time></trkpt><trkpt lat="44.73175986917847" lon="7.249728605552336"><ele>954.0</ele><time>2026-04-07T13:11:20.999Z</time></trkpt><trkpt lat="44.731725524799984" lon="7.2498248346014185"><ele>954.0</ele><time>2026-04-07T13:11:22.999Z</time></trkpt><trkpt lat="44.7316900072252" lon="7.249953282866748"><ele>953.8000000000001</ele><time>2026-04-07T13:11:24.999Z</time></trkpt><trkpt lat="44.73165757410635" lon="7.250078462588268"><ele>953.6000000000001</ele><time>2026-04-07T13:11:26.999Z</time></trkpt><trkpt lat="44.73159163546084" lon="7.250230921886241"><ele>953.4</ele><time>2026-04-07T13:11:28.999Z</time></trkpt><trkpt lat="44.73154780445768" lon="7.25037114293799"><ele>953.2</ele><time>2026-04-07T13:11:30.999Z</time></trkpt><trkpt lat="44.73151616979003" lon="7.250452880947234"><ele>953.0</ele><time>2026-04-07T13:11:32.999Z</time></trkpt><trkpt lat="44.731462323189234" lon="7.25057835089735"><ele>948.5000000000001</ele><time>2026-04-07T13:11:34.999Z</time></trkpt><trkpt lat="44.73139425341595" lon="7.2506861393800035"><ele>944.0</ele><time>2026-04-07T13:11:36.999Z</time></trkpt><trkpt lat="44.73133899556354" lon="7.250738151851185"><ele>939.5</ele><time>2026-04-07T13:11:37.999Z</time></trkpt><trkpt lat="44.731264307766835" lon="7.250858034884663"><ele>935.0</ele><time>2026-04-07T13:11:39.999Z</time></trkpt><trkpt lat="44.731224822655335" lon="7.250932359561278"><ele>930.5000000000001</ele><time>2026-04-07T13:11:40.999Z</time></trkpt><trkpt lat="44.731206577827244" lon="7.251038002200334"><ele>926.0</ele><time>2026-04-07T13:11:41.999Z</time></trkpt><trkpt lat="44.731185280803714" lon="7.2511371746328175"><ele>926.0</ele><time>2026-04-07T13:11:42.999Z</time></trkpt><trkpt lat="44.73116476051721" lon="7.25123555335995"><ele>925.9999999999999</ele><time>2026-04-07T13:11:43.999Z</time></trkpt><trkpt lat="44.731170460731036" lon="7.25132823100574"><ele>925.9999999999999</ele><time>2026-04-07T13:11:44.999Z</time></trkpt><trkpt lat="44.73117558764945" lon="7.251464772969912"><ele>926.0</ele><time>2026-04-07T13:11:46.999Z</time></trkpt><trkpt lat="44.73115125240318" lon="7.251609805206293"><ele>926.0</ele><time>2026-04-07T13:11:48.999Z</time></trkpt><trkpt lat="44.73111926323574" lon="7.251769790427639"><ele>921.8</ele><time>2026-04-07T13:11:50.999Z</time></trkpt><trkpt lat="44.73108626990268" lon="7.251909967696523"><ele>917.5999999999999</ele><time>2026-04-07T13:11:52.999Z</time></trkpt><trkpt lat="44.73108590395598" lon="7.2520665052158515"><ele>913.4</ele><time>2026-04-07T13:11:54.999Z</time></trkpt><trkpt lat="44.731096991098966" lon="7.252207191812332"><ele>909.2</ele><time>2026-04-07T13:11:56.999Z</time></trkpt><trkpt lat="44.73110015760331" lon="7.252369082191589"><ele>905.0</ele><time>2026-04-07T13:11:58.999Z</time></trkpt><trkpt lat="44.73112179287844" lon="7.252457675420559"><ele>901.0</ele><time>2026-04-07T13:11:59.999Z</time></trkpt><trkpt lat="44.73114446729487" lon="7.252614559607752"><ele>897.0</ele><time>2026-04-07T13:12:01.999Z</time></trkpt><trkpt lat="44.731152983435635" lon="7.252780767592358"><ele>893.0</ele><time>2026-04-07T13:12:03.999Z</time></trkpt><trkpt lat="44.73116291380895" lon="7.252921155440703"><ele>889.0</ele><time>2026-04-07T13:12:05.999Z</time></trkpt><trkpt lat="44.731152859458774" lon="7.253091239038279"><ele>885.8000000000001</ele><time>2026-04-07T13:12:07.999Z</time></trkpt><trkpt lat="44.73114872457204" lon="7.253257605396441"><ele>882.6000000000001</ele><time>2026-04-07T13:12:09.999Z</time></trkpt><trkpt lat="44.73114217283667" lon="7.253409004768214"><ele>879.4</ele><time>2026-04-07T13:12:12Z</time></trkpt><trkpt lat="44.73110094528925" lon="7.253541152724499"><ele>876.2</ele><time>2026-04-07T13:12:14Z</time></trkpt><trkpt lat="44.73108973122121" lon="7.253665579441441"><ele>873.0</ele><time>2026-04-07T13:12:17Z</time></trkpt><trkpt lat="44.731034988528904" lon="7.253746224766325"><ele>876.5999999999999</ele><time>2026-04-07T13:12:19Z</time></trkpt><trkpt lat="44.73096622096037" lon="7.253822269222641"><ele>880.1999999999999</ele><time>2026-04-07T13:12:21Z</time></trkpt><trkpt lat="44.73086400462287" lon="7.253893901809246"><ele>883.8</ele><time>2026-04-07T13:12:23Z</time></trkpt><trkpt lat="44.730776379137176" lon="7.253989720691521"><ele>887.4</ele><time>2026-04-07T13:12:25Z</time></trkpt><trkpt lat="44.73072875199055" lon="7.2540581574578695"><ele>891.0</ele><time>2026-04-07T13:12:27Z</time></trkpt><trkpt lat="44.73063223507927" lon="7.254121304030991"><ele>891.0</ele><time>2026-04-07T13:12:29Z</time></trkpt><trkpt lat="44.730556490460266" lon="7.254186459050305"><ele>891.0</ele><time>2026-04-07T13:12:32Z</time></trkpt><trkpt lat="44.730513802927476" lon="7.25425599858501"><ele>891.0</ele><time>2026-04-07T13:12:33Z</time></trkpt><trkpt lat="44.730476490864426" lon="7.2543320766536095"><ele>891.0</ele><time>2026-04-07T13:12:34Z</time></trkpt><trkpt lat="44.7304509973278" lon="7.254425764786181"><ele>891.0</ele><time>2026-04-07T13:12:35Z</time></trkpt><trkpt lat="44.73041286506615" lon="7.254536672523049"><ele>891.0</ele><time>2026-04-07T13:12:37Z</time></trkpt><trkpt lat="44.730374151899674" lon="7.2546351297325735"><ele>891.0</ele><time>2026-04-07T13:12:39Z</time></trkpt><trkpt lat="44.730339725436814" lon="7.254733337550968"><ele>891.0</ele><time>2026-04-07T13:12:41Z</time></trkpt><trkpt lat="44.730280637533085" lon="7.254827558336512"><ele>891.0</ele><time>2026-04-07T13:12:43Z</time></trkpt><trkpt lat="44.73026058524155" lon="7.25494653625231"><ele>891.0</ele><time>2026-04-07T13:12:45Z</time></trkpt><trkpt lat="44.730280727714124" lon="7.255074190302138"><ele>891.0</ele><time>2026-04-07T13:12:47Z</time></trkpt><trkpt lat="44.73030978967678" lon="7.255186934860687"><ele>891.0</ele><time>2026-04-07T13:12:49Z</time></trkpt><trkpt lat="44.73033221088181" lon="7.255300446968231"><ele>885.0</ele><time>2026-04-07T13:12:51Z</time></trkpt><trkpt lat="44.73036707937217" lon="7.255417373835327"><ele>878.9999999999999</ele><time>2026-04-07T13:12:53Z</time></trkpt><trkpt lat="44.73040889576272" lon="7.255544097766141"><ele>872.9999999999999</ele><time>2026-04-07T13:12:55Z</time></trkpt><trkpt lat="44.73049816171384" lon="7.255633341437198"><ele>867.0</ele><time>2026-04-07T13:12:57Z</time></trkpt><trkpt lat="44.73057175343764" lon="7.255705641660753"><ele>861.0</ele><time>2026-04-07T13:12:59Z</time></trkpt><trkpt lat="44.73060996486845" lon="7.255815435606775"><ele>859.6666666666666</ele><time>2026-04-07T13:13:01Z</time></trkpt><trkpt lat="44.73064763247456" lon="7.255923353098459"><ele>858.3333333333333</ele><time>2026-04-07T13:13:03Z</time></trkpt><trkpt lat="44.73068384805009" lon="7.256036094551136"><ele>857.0</ele><time>2026-04-07T13:13:05Z</time></trkpt><trkpt lat="44.73071187648697" lon="7.256158619785254"><ele>855.6666666666666</ele><time>2026-04-07T13:13:07Z</time></trkpt><trkpt lat="44.7307196108531" lon="7.25626225018242"><ele>854.3333333333333</ele><time>2026-04-07T13:13:09Z</time></trkpt><trkpt lat="44.730704751392345" lon="7.256385225176119"><ele>853.0</ele><time>2026-04-07T13:13:11Z</time></trkpt><trkpt lat="44.7306537543304" lon="7.256467638010422"><ele>851.6666666666666</ele><time>2026-04-07T13:13:13Z</time></trkpt><trkpt lat="44.73059436898394" lon="7.256568263687683"><ele>850.3333333333333</ele><time>2026-04-07T13:13:15Z</time></trkpt><trkpt lat="44.73054787017417" lon="7.256635156480711"><ele>849.0</ele><time>2026-04-07T13:13:16Z</time></trkpt><trkpt lat="44.730511115174934" lon="7.256755806694966"><ele>847.6666666666667</ele><time>2026-04-07T13:13:18Z</time></trkpt><trkpt lat="44.7304763046059" lon="7.256911121988331"><ele>846.3333333333334</ele><time>2026-04-07T13:13:20Z</time></trkpt><trkpt lat="44.7304678949332" lon="7.2570237478408375"><ele>845.0</ele><time>2026-04-07T13:13:21Z</time></trkpt><trkpt lat="44.7304816897156" lon="7.257186680806901"><ele>845.0</ele><time>2026-04-07T13:13:22.999Z</time></trkpt><trkpt lat="44.73047997958084" lon="7.257283660546428"><ele>845.0</ele><time>2026-04-07T13:13:23.999Z</time></trkpt><trkpt lat="44.73047640451562" lon="7.2574484136810815"><ele>845.0</ele><time>2026-04-07T13:13:25.999Z</time></trkpt><trkpt lat="44.73044877855001" lon="7.257531164338043"><ele>845.0</ele><time>2026-04-07T13:13:26.999Z</time></trkpt><trkpt lat="44.730383902186794" lon="7.257688802263268"><ele>845.0</ele><time>2026-04-07T13:13:28.999Z</time></trkpt><trkpt lat="44.7303582133787" lon="7.257781505116833"><ele>846.5000000000001</ele><time>2026-04-07T13:13:29.999Z</time></trkpt><trkpt lat="44.730318267208524" lon="7.257852104065304"><ele>848.0</ele><time>2026-04-07T13:13:30.999Z</time></trkpt><trkpt lat="44.73027310589125" lon="7.2579360306750536"><ele>849.5</ele><time>2026-04-07T13:13:31.999Z</time></trkpt><trkpt lat="44.73023131893919" lon="7.258028831275972"><ele>851.0</ele><time>2026-04-07T13:13:32.999Z</time></trkpt><trkpt lat="44.730198309509376" lon="7.258187507364902"><ele>852.5000000000001</ele><time>2026-04-07T13:13:34.999Z</time></trkpt><trkpt lat="44.73018157872855" lon="7.258297024293297"><ele>854.0</ele><time>2026-04-07T13:13:35.999Z</time></trkpt><trkpt lat="44.73016978454609" lon="7.258384970916575"><ele>854.0000000000001</ele><time>2026-04-07T13:13:36.999Z</time></trkpt><trkpt lat="44.73017894658512" lon="7.258474181362411"><ele>854.0</ele><time>2026-04-07T13:13:37.999Z</time></trkpt><trkpt lat="44.730199455196725" lon="7.258560291074828"><ele>854.0</ele><time>2026-04-07T13:13:38.999Z</time></trkpt><trkpt lat="44.73021597991477" lon="7.2587063463826755"><ele>854.0</ele><time>2026-04-07T13:13:40.999Z</time></trkpt><trkpt lat="44.7302755316225" lon="7.258826164129727"><ele>854.0000000000001</ele><time>2026-04-07T13:13:42.999Z</time></trkpt><trkpt lat="44.73035552137942" lon="7.2588887590836215"><ele>854.0</ele><time>2026-04-07T13:13:44.999Z</time></trkpt><trkpt lat="44.73050360811511" lon="7.258802140680449"><ele>847.2</ele><time>2026-04-07T13:13:47.999Z</time></trkpt><trkpt lat="44.73054597916256" lon="7.25868528946726"><ele>840.4000000000001</ele><time>2026-04-07T13:13:49.999Z</time></trkpt><trkpt lat="44.730585809885454" lon="7.258608655233259"><ele>833.6</ele><time>2026-04-07T13:13:50.999Z</time></trkpt><trkpt lat="44.730643769517656" lon="7.258483720392966"><ele>826.8</ele><time>2026-04-07T13:13:52.999Z</time></trkpt><trkpt lat="44.73072125382815" lon="7.258340141264938"><ele>820.0</ele><time>2026-04-07T13:13:54.999Z</time></trkpt><trkpt lat="44.730793186669935" lon="7.258184595752402"><ele>822.0</ele><time>2026-04-07T13:13:56.999Z</time></trkpt><trkpt lat="44.73086124510059" lon="7.258022769854987"><ele>824.0</ele><time>2026-04-07T13:13:58.999Z</time></trkpt><trkpt lat="44.73089698751878" lon="7.257935843781271"><ele>826.0</ele><time>2026-04-07T13:13:59.999Z</time></trkpt><trkpt lat="44.73092559820469" lon="7.257853958499845"><ele>828.0</ele><time>2026-04-07T13:14:00.999Z</time></trkpt><trkpt lat="44.730991354782695" lon="7.257705062211932"><ele>830.0</ele><time>2026-04-07T13:14:02.999Z</time></trkpt><trkpt lat="44.73105858535665" lon="7.2575611650474565"><ele>824.8</ele><time>2026-04-07T13:14:04.999Z</time></trkpt><trkpt lat="44.73107600205305" lon="7.2574759364298025"><ele>819.6</ele><time>2026-04-07T13:14:05.999Z</time></trkpt><trkpt lat="44.73111439943795" lon="7.257403129427034"><ele>814.4000000000001</ele><time>2026-04-07T13:14:06.999Z</time></trkpt><trkpt lat="44.731189654306704" lon="7.25726496979119"><ele>809.2</ele><time>2026-04-07T13:14:08.999Z</time></trkpt><trkpt lat="44.73127083442333" lon="7.257147377126271"><ele>804.0</ele><time>2026-04-07T13:14:10.999Z</time></trkpt><trkpt lat="44.731360665648175" lon="7.2570762666350035"><ele>804.0</ele><time>2026-04-07T13:14:12.999Z</time></trkpt><trkpt lat="44.73145507039886" lon="7.257001421160033"><ele>804.0</ele><time>2026-04-07T13:14:14.999Z</time></trkpt><trkpt lat="44.73150589669003" lon="7.256869549910597"><ele>804.0</ele><time>2026-04-07T13:14:16.999Z</time></trkpt><trkpt lat="44.73150900817829" lon="7.256708328244159"><ele>804.0</ele><time>2026-04-07T13:14:19Z</time></trkpt><trkpt lat="44.73154678058921" lon="7.256624707358866"><ele>804.0</ele><time>2026-04-07T13:14:21Z</time></trkpt><trkpt lat="44.73160880415663" lon="7.256639933321881"><ele>804.0</ele><time>2026-04-07T13:14:24Z</time></trkpt><trkpt lat="44.7316020887141" lon="7.256749036012115"><ele>804.0</ele><time>2026-04-07T13:14:27Z</time></trkpt><trkpt lat="44.73158622757513" lon="7.2568692663534815"><ele>804.0</ele><time>2026-04-07T13:14:29Z</time></trkpt><trkpt lat="44.73160523352859" lon="7.25700127496344"><ele>804.0</ele><time>2026-04-07T13:14:31Z</time></trkpt><trkpt lat="44.731640360122356" lon="7.257077527655479"><ele>804.0</ele><time>2026-04-07T13:14:33Z</time></trkpt><trkpt lat="44.73159745713995" lon="7.257191929251923"><ele>804.0</ele><time>2026-04-07T13:14:36Z</time></trkpt><trkpt lat="44.731528784796524" lon="7.257290884356885"><ele>801.6</ele><time>2026-04-07T13:14:38Z</time></trkpt><trkpt lat="44.73144746260334" lon="7.257386448040151"><ele>799.2</ele><time>2026-04-07T13:14:40Z</time></trkpt><trkpt lat="44.73141223090055" lon="7.257464762272454"><ele>796.8000000000001</ele><time>2026-04-07T13:14:41Z</time></trkpt><trkpt lat="44.73137538192183" lon="7.257604381156958"><ele>794.4000000000001</ele><time>2026-04-07T13:14:43Z</time></trkpt><trkpt lat="44.73136417552072" lon="7.257747627772491"><ele>792.0</ele><time>2026-04-07T13:14:45Z</time></trkpt><trkpt lat="44.731348137306504" lon="7.257889934561499"><ele>792.0</ele><time>2026-04-07T13:14:48Z</time></trkpt><trkpt lat="44.731348981467725" lon="7.258012142760369"><ele>792.0</ele><time>2026-04-07T13:14:50Z</time></trkpt><trkpt lat="44.73135876029625" lon="7.2581241258673765"><ele>792.0</ele><time>2026-04-07T13:14:52Z</time></trkpt><trkpt lat="44.731364410792594" lon="7.258251651181453"><ele>792.0</ele><time>2026-04-07T13:14:54Z</time></trkpt><trkpt lat="44.73138963434532" lon="7.258348225234076"><ele>792.0</ele><time>2026-04-07T13:14:56Z</time></trkpt><trkpt lat="44.73137329190194" lon="7.258480839001907"><ele>792.0</ele><time>2026-04-07T13:14:58Z</time></trkpt><trkpt lat="44.73134544742193" lon="7.258597141992945"><ele>788.4000000000001</ele><time>2026-04-07T13:15:00Z</time></trkpt><trkpt lat="44.731335394836485" lon="7.2587073602824495"><ele>784.8000000000001</ele><time>2026-04-07T13:15:02Z</time></trkpt><trkpt lat="44.73128387693823" lon="7.258857087017618"><ele>781.2</ele><time>2026-04-07T13:15:04Z</time></trkpt><trkpt lat="44.73126804770277" lon="7.258943193586757"><ele>777.6</ele><time>2026-04-07T13:15:05Z</time></trkpt><trkpt lat="44.73123357810386" lon="7.259095934195273"><ele>774.0</ele><time>2026-04-07T13:15:07Z</time></trkpt><trkpt lat="44.731219689722465" lon="7.259227764986301"><ele>771.1666666666666</ele><time>2026-04-07T13:15:09Z</time></trkpt><trkpt lat="44.73119683239402" lon="7.259338215785383"><ele>768.3333333333334</ele><time>2026-04-07T13:15:11Z</time></trkpt><trkpt lat="44.731194437903525" lon="7.259475246413353"><ele>765.5</ele><time>2026-04-07T13:15:13Z</time></trkpt><trkpt lat="44.731183215204055" lon="7.259590000098364"><ele>762.6666666666667</ele><time>2026-04-07T13:15:15Z</time></trkpt><trkpt lat="44.731175309849284" lon="7.259708681763535"><ele>759.8333333333334</ele><time>2026-04-07T13:15:17Z</time></trkpt><trkpt lat="44.7311699576734" lon="7.259819292128399"><ele>757.0</ele><time>2026-04-07T13:15:19Z</time></trkpt><trkpt lat="44.73113218594478" lon="7.259936985796455"><ele>755.5</ele><time>2026-04-07T13:15:21Z</time></trkpt><trkpt lat="44.73111192950547" lon="7.260092198117419"><ele>754.0</ele><time>2026-04-07T13:15:23Z</time></trkpt><trkpt lat="44.73106521331611" lon="7.260187897794918"><ele>752.5</ele><time>2026-04-07T13:15:25Z</time></trkpt><trkpt lat="44.731016091000114" lon="7.260269219465403"><ele>751.0</ele><time>2026-04-07T13:15:26.999Z</time></trkpt><trkpt lat="44.731010010880425" lon="7.260363837269229"><ele>749.5</ele><time>2026-04-07T13:15:28.999Z</time></trkpt><trkpt lat="44.730993040337594" lon="7.260482657785163"><ele>748.0</ele><time>2026-04-07T13:15:30.999Z</time></trkpt><trkpt lat="44.73094399077032" lon="7.26061279281829"><ele>751.2</ele><time>2026-04-07T13:15:32.999Z</time></trkpt><trkpt lat="44.73087901234678" lon="7.260743920870954"><ele>754.4</ele><time>2026-04-07T13:15:34.999Z</time></trkpt><trkpt lat="44.73083760477696" lon="7.260828785148315"><ele>757.6</ele><time>2026-04-07T13:15:35.999Z</time></trkpt><trkpt lat="44.7307698602242" lon="7.260954273872354"><ele>760.8000000000001</ele><time>2026-04-07T13:15:37.999Z</time></trkpt><trkpt lat="44.730746889678535" lon="7.261087867463399"><ele>764.0</ele><time>2026-04-07T13:15:39.999Z</time></trkpt><trkpt lat="44.730719789488234" lon="7.261168980832536"><ele>764.0</ele><time>2026-04-07T13:15:40.999Z</time></trkpt><trkpt lat="44.73074942986764" lon="7.261326892527733"><ele>764.0</ele><time>2026-04-07T13:15:42.999Z</time></trkpt><trkpt lat="44.730765873868215" lon="7.261461638501188"><ele>764.0</ele><time>2026-04-07T13:15:44.999Z</time></trkpt><trkpt lat="44.73076215615426" lon="7.261566733011901"><ele>764.0</ele><time>2026-04-07T13:15:46.999Z</time></trkpt><trkpt lat="44.730757934889844" lon="7.261696142445215"><ele>764.0</ele><time>2026-04-07T13:15:48.999Z</time></trkpt><trkpt lat="44.730718470866755" lon="7.261821272136095"><ele>759.8000000000001</ele><time>2026-04-07T13:15:51.999Z</time></trkpt><trkpt lat="44.73063401971476" lon="7.261952818957866"><ele>755.6</ele><time>2026-04-07T13:15:53.999Z</time></trkpt><trkpt lat="44.73058797416234" lon="7.262015328842677"><ele>751.4</ele><time>2026-04-07T13:15:54.999Z</time></trkpt><trkpt lat="44.73050084206986" lon="7.262142635911757"><ele>747.2</ele><time>2026-04-07T13:15:56.999Z</time></trkpt><trkpt lat="44.73045882920968" lon="7.262214948854088"><ele>743.0</ele><time>2026-04-07T13:15:57.999Z</time></trkpt><trkpt lat="44.7304117649834" lon="7.262286389325711"><ele>743.2</ele><time>2026-04-07T13:15:58.999Z</time></trkpt><trkpt lat="44.73035876911943" lon="7.26243736458512"><ele>743.4</ele><time>2026-04-07T13:16:00.999Z</time></trkpt><trkpt lat="44.730324223158995" lon="7.262520719665747"><ele>743.6</ele><time>2026-04-07T13:16:01.999Z</time></trkpt><trkpt lat="44.73025557275692" lon="7.2626023093735315"><ele>743.8000000000001</ele><time>2026-04-07T13:16:03.999Z</time></trkpt><trkpt lat="44.73017693857347" lon="7.262589199136001"><ele>744.0</ele><time>2026-04-07T13:16:05.999Z</time></trkpt><trkpt lat="44.73008746486651" lon="7.2625273855343195"><ele>744.0</ele><time>2026-04-07T13:16:07.999Z</time></trkpt><trkpt lat="44.73001683932377" lon="7.262483127667759"><ele>744.0</ele><time>2026-04-07T13:16:08.999Z</time></trkpt><trkpt lat="44.72992899292212" lon="7.262473582648123"><ele>744.0</ele><time>2026-04-07T13:16:09.999Z</time></trkpt><trkpt lat="44.729850914434635" lon="7.262466575614771"><ele>744.0</ele><time>2026-04-07T13:16:10.999Z</time></trkpt><trkpt lat="44.72977771140763" lon="7.262457351629297"><ele>744.0</ele><time>2026-04-07T13:16:11.999Z</time></trkpt><trkpt lat="44.72969269723138" lon="7.262475601168015"><ele>744.0</ele><time>2026-04-07T13:16:13.999Z</time></trkpt><trkpt lat="44.729618818611826" lon="7.262549950487552"><ele>744.0</ele><time>2026-04-07T13:16:15.999Z</time></trkpt><trkpt lat="44.729584640549845" lon="7.262690336983743"><ele>744.0</ele><time>2026-04-07T13:16:17.999Z</time></trkpt><trkpt lat="44.72964838074716" lon="7.2628506701356"><ele>744.0</ele><time>2026-04-07T13:16:19.999Z</time></trkpt><trkpt lat="44.72969462326874" lon="7.262919673458634"><ele>744.0</ele><time>2026-04-07T13:16:20.999Z</time></trkpt><trkpt lat="44.72973393434161" lon="7.26300723851679"><ele>744.0</ele><time>2026-04-07T13:16:21.999Z</time></trkpt><trkpt lat="44.72975369521799" lon="7.263111525794347"><ele>740.8333333333334</ele><time>2026-04-07T13:16:22.999Z</time></trkpt><trkpt lat="44.72977594343978" lon="7.263228013356663"><ele>737.6666666666666</ele><time>2026-04-07T13:16:24Z</time></trkpt><trkpt lat="44.729798940839814" lon="7.263326356879855"><ele>734.5</ele><time>2026-04-07T13:16:25Z</time></trkpt><trkpt lat="44.72981163798073" lon="7.2634324172967295"><ele>731.3333333333333</ele><time>2026-04-07T13:16:26Z</time></trkpt><trkpt lat="44.72981944277133" lon="7.263525114282491"><ele>728.1666666666666</ele><time>2026-04-07T13:16:27Z</time></trkpt><trkpt lat="44.72982802724043" lon="7.263645520591301"><ele>725.0</ele><time>2026-04-07T13:16:28Z</time></trkpt><trkpt lat="44.729841523566584" lon="7.26378274849424"><ele>725.0</ele><time>2026-04-07T13:16:29Z</time></trkpt><trkpt lat="44.72985193087143" lon="7.26388813649556"><ele>725.0</ele><time>2026-04-07T13:16:30Z</time></trkpt><trkpt lat="44.72985049990407" lon="7.263985093547961"><ele>725.0</ele><time>2026-04-07T13:16:31Z</time></trkpt><trkpt lat="44.72983945296768" lon="7.264115555191039"><ele>725.0</ele><time>2026-04-07T13:16:33Z</time></trkpt><trkpt lat="44.72982055900427" lon="7.264265077066893"><ele>725.0</ele><time>2026-04-07T13:16:35Z</time></trkpt><trkpt lat="44.72979797237819" lon="7.264398681208203"><ele>725.0</ele><time>2026-04-07T13:16:37Z</time></trkpt><trkpt lat="44.72973862683129" lon="7.264491232771938"><ele>722.8333333333333</ele><time>2026-04-07T13:16:39Z</time></trkpt><trkpt lat="44.72964706896409" lon="7.264599538132429"><ele>720.6666666666666</ele><time>2026-04-07T13:16:41Z</time></trkpt><trkpt lat="44.72956536213821" lon="7.264642721243913"><ele>718.5</ele><time>2026-04-07T13:16:42Z</time></trkpt><trkpt lat="44.72950744521625" lon="7.264681259178681"><ele>716.3333333333334</ele><time>2026-04-07T13:16:43Z</time></trkpt><trkpt lat="44.729455512712555" lon="7.264732070367044"><ele>714.1666666666667</ele><time>2026-04-07T13:16:44Z</time></trkpt><trkpt lat="44.72940695956544" lon="7.2648073006153115"><ele>712.0</ele><time>2026-04-07T13:16:46Z</time></trkpt><trkpt lat="44.72933803881467" lon="7.26484380160756"><ele>710.0</ele><time>2026-04-07T13:16:48Z</time></trkpt><trkpt lat="44.72922383573189" lon="7.264822297795919"><ele>708.0</ele><time>2026-04-07T13:16:50Z</time></trkpt><trkpt lat="44.72915755029255" lon="7.264812196026905"><ele>706.0</ele><time>2026-04-07T13:16:51Z</time></trkpt><trkpt lat="44.72902464281331" lon="7.26484311617943"><ele>704.0</ele><time>2026-04-07T13:16:53Z</time></trkpt><trkpt lat="44.72894725526789" lon="7.26489648291116"><ele>702.0</ele><time>2026-04-07T13:16:54Z</time></trkpt><trkpt lat="44.728891312539616" lon="7.264949011647939"><ele>702.0</ele><time>2026-04-07T13:16:55Z</time></trkpt><trkpt lat="44.72881764909425" lon="7.265009366488763"><ele>702.0</ele><time>2026-04-07T13:16:56Z</time></trkpt><trkpt lat="44.72874791867423" lon="7.265066627482188"><ele>702.0</ele><time>2026-04-07T13:16:57Z</time></trkpt><trkpt lat="44.728689105517546" lon="7.265140712683353"><ele>702.0</ele><time>2026-04-07T13:16:58Z</time></trkpt><trkpt lat="44.72867965306038" lon="7.265274414814939"><ele>702.0</ele><time>2026-04-07T13:16:59Z</time></trkpt><trkpt lat="44.72866634014164" lon="7.265367239332187"><ele>702.0</ele><time>2026-04-07T13:17:00Z</time></trkpt><trkpt lat="44.728621112156105" lon="7.265492883495421"><ele>702.0</ele><time>2026-04-07T13:17:02Z</time></trkpt><trkpt lat="44.72857121949805" lon="7.265555491244451"><ele>702.0</ele><time>2026-04-07T13:17:03Z</time></trkpt><trkpt lat="44.72851689318794" lon="7.265653819551524"><ele>702.0</ele><time>2026-04-07T13:17:05Z</time></trkpt><trkpt lat="44.72845249578198" lon="7.265725018123757"><ele>702.0</ele><time>2026-04-07T13:17:07Z</time></trkpt><trkpt lat="44.72842579989924" lon="7.26581890483942"><ele>702.0</ele><time>2026-04-07T13:17:09Z</time></trkpt><trkpt lat="44.728495872952976" lon="7.265855790954846"><ele>702.0</ele><time>2026-04-07T13:17:11Z</time></trkpt><trkpt lat="44.72856004802839" lon="7.265797410285513"><ele>697.5</ele><time>2026-04-07T13:17:13Z</time></trkpt><trkpt lat="44.72864567777967" lon="7.265711112668533"><ele>693.0</ele><time>2026-04-07T13:17:15Z</time></trkpt><trkpt lat="44.728745290184165" lon="7.265692508937751"><ele>688.5</ele><time>2026-04-07T13:17:17Z</time></trkpt><trkpt lat="44.728886033454685" lon="7.265716552198945"><ele>684.0</ele><time>2026-04-07T13:17:21Z</time></trkpt><trkpt lat="44.7289896585833" lon="7.2657448653136205"><ele>684.0</ele><time>2026-04-07T13:17:23Z</time></trkpt><trkpt lat="44.72909372019313" lon="7.265776912020146"><ele>684.0</ele><time>2026-04-07T13:17:25Z</time></trkpt><trkpt lat="44.7292249306788" lon="7.265803048854061"><ele>684.0</ele><time>2026-04-07T13:17:27Z</time></trkpt><trkpt lat="44.72931393744916" lon="7.265873399280177"><ele>684.0</ele><time>2026-04-07T13:17:29Z</time></trkpt><trkpt lat="44.72939592339205" lon="7.265999442475074"><ele>684.0</ele><time>2026-04-07T13:17:31Z</time></trkpt><trkpt lat="44.72941359371654" lon="7.266114983935446"><ele>684.0</ele><time>2026-04-07T13:17:32.999Z</time></trkpt><trkpt lat="44.72940691077278" lon="7.266219940151056"><ele>684.0</ele><time>2026-04-07T13:17:36.999Z</time></trkpt><trkpt lat="44.72935567337852" lon="7.266370725715554"><ele>684.0</ele><time>2026-04-07T13:18:58Z</time></trkpt><trkpt lat="44.72932668263102" lon="7.266534066415285"><ele>684.0</ele><time>2026-04-07T13:19:00Z</time></trkpt><trkpt lat="44.729289748145426" lon="7.266685123668045"><ele>683.6666666666666</ele><time>2026-04-07T13:19:02Z</time></trkpt><trkpt lat="44.72928087274452" lon="7.2667744685724776"><ele>683.3333333333334</ele><time>2026-04-07T13:19:04Z</time></trkpt><trkpt lat="44.729244976852776" lon="7.266860982424419"><ele>683.0</ele><time>2026-04-07T13:19:19Z</time></trkpt><trkpt lat="44.72920289214102" lon="7.266993556859774"><ele>682.6666666666667</ele><time>2026-04-07T13:19:22Z</time></trkpt><trkpt lat="44.72917248747435" lon="7.267128501827192"><ele>682.3333333333334</ele><time>2026-04-07T13:19:24Z</time></trkpt><trkpt lat="44.729149440169564" lon="7.267220498921899"><ele>682.0</ele><time>2026-04-07T13:19:25Z</time></trkpt><trkpt lat="44.72912717410339" lon="7.26731947926171"><ele>681.5</ele><time>2026-04-07T13:19:26Z</time></trkpt><trkpt lat="44.72909329604975" lon="7.267416820848584"><ele>681.0</ele><time>2026-04-07T13:19:27Z</time></trkpt><trkpt lat="44.72905908681105" lon="7.2675288047449085"><ele>680.5</ele><time>2026-04-07T13:19:28Z</time></trkpt><trkpt lat="44.729030903480336" lon="7.267619706819873"><ele>680.0</ele><time>2026-04-07T13:19:29Z</time></trkpt><trkpt lat="44.72901123425029" lon="7.267710566969944"><ele>679.5</ele><time>2026-04-07T13:19:30Z</time></trkpt><trkpt lat="44.72898634621445" lon="7.267799301579057"><ele>679.0</ele><time>2026-04-07T13:19:31Z</time></trkpt><trkpt lat="44.72895155224335" lon="7.26796096759427"><ele>677.0</ele><time>2026-04-07T13:19:33Z</time></trkpt><trkpt lat="44.728941810165466" lon="7.268125725106044"><ele>675.0</ele><time>2026-04-07T13:19:35Z</time></trkpt><trkpt lat="44.728965962098414" lon="7.268275970794794"><ele>673.0</ele><time>2026-04-07T13:19:36.999Z</time></trkpt><trkpt lat="44.72897382121984" lon="7.2683870396336205"><ele>671.0</ele><time>2026-04-07T13:19:37.999Z</time></trkpt><trkpt lat="44.72900378907218" lon="7.268468278334547"><ele>669.0</ele><time>2026-04-07T13:19:38.999Z</time></trkpt><trkpt lat="44.72903823106141" lon="7.2685542515679495"><ele>667.0</ele><time>2026-04-07T13:19:39.999Z</time></trkpt><trkpt lat="44.729074992735555" lon="7.268637393183846"><ele>667.0</ele><time>2026-04-07T13:19:40.999Z</time></trkpt><trkpt lat="44.72914562937689" lon="7.268788800431632"><ele>667.0</ele><time>2026-04-07T13:19:42.999Z</time></trkpt><trkpt lat="44.72921746798451" lon="7.2689285351537904"><ele>667.0</ele><time>2026-04-07T13:19:44.999Z</time></trkpt><trkpt lat="44.729235041703134" lon="7.269029425749798"><ele>667.0</ele><time>2026-04-07T13:19:45.999Z</time></trkpt><trkpt lat="44.72925699142388" lon="7.269128979235851"><ele>667.0</ele><time>2026-04-07T13:19:46.999Z</time></trkpt><trkpt lat="44.72928381519888" lon="7.269209865964566"><ele>664.8</ele><time>2026-04-07T13:19:47.999Z</time></trkpt><trkpt lat="44.7293011034965" lon="7.269296343494962"><ele>662.6</ele><time>2026-04-07T13:19:48.999Z</time></trkpt><trkpt lat="44.729340686981516" lon="7.269444507654083"><ele>660.4</ele><time>2026-04-07T13:19:50.999Z</time></trkpt><trkpt lat="44.72935710784965" lon="7.2696068783427314"><ele>658.1999999999999</ele><time>2026-04-07T13:19:52.999Z</time></trkpt><trkpt lat="44.729344584006476" lon="7.269767880826064"><ele>656.0</ele><time>2026-04-07T13:19:54.999Z</time></trkpt><trkpt lat="44.72934047236571" lon="7.269871555794818"><ele>655.5</ele><time>2026-04-07T13:19:55.999Z</time></trkpt><trkpt lat="44.7293513191453" lon="7.270021255827938"><ele>655.0</ele><time>2026-04-07T13:19:57.999Z</time></trkpt><trkpt lat="44.72939940570446" lon="7.270116646356801"><ele>654.5</ele><time>2026-04-07T13:19:58.999Z</time></trkpt><trkpt lat="44.729453470254114" lon="7.270207503907063"><ele>654.0</ele><time>2026-04-07T13:19:59.999Z</time></trkpt><trkpt lat="44.72950175502527" lon="7.270305899594333"><ele>653.5</ele><time>2026-04-07T13:20:00.999Z</time></trkpt><trkpt lat="44.7295494578739" lon="7.270398299363896"><ele>653.0</ele><time>2026-04-07T13:20:01.999Z</time></trkpt><trkpt lat="44.72959737979746" lon="7.270493961417327"><ele>654.4</ele><time>2026-04-07T13:20:02.999Z</time></trkpt><trkpt lat="44.729639722289605" lon="7.2705880127065265"><ele>655.8</ele><time>2026-04-07T13:20:03.999Z</time></trkpt><trkpt lat="44.72971412288596" lon="7.270723085138679"><ele>657.2</ele><time>2026-04-07T13:20:05.999Z</time></trkpt><trkpt lat="44.7297801855035" lon="7.270883330256903"><ele>658.6</ele><time>2026-04-07T13:20:07.999Z</time></trkpt><trkpt lat="44.72977945049079" lon="7.2709891533133675"><ele>660.0</ele><time>2026-04-07T13:20:08.999Z</time></trkpt><trkpt lat="44.72976002955561" lon="7.271099948717987"><ele>657.5</ele><time>2026-04-07T13:20:09.999Z</time></trkpt><trkpt lat="44.72974208975645" lon="7.271207920599746"><ele>655.0</ele><time>2026-04-07T13:20:10.999Z</time></trkpt><trkpt lat="44.729713433356075" lon="7.271294900687558"><ele>652.5</ele><time>2026-04-07T13:20:11.999Z</time></trkpt><trkpt lat="44.72970803725176" lon="7.271384242113852"><ele>650.0</ele><time>2026-04-07T13:20:12.999Z</time></trkpt><trkpt lat="44.72972689837402" lon="7.271490379180896"><ele>647.5</ele><time>2026-04-07T13:20:13.999Z</time></trkpt><trkpt lat="44.72977627699108" lon="7.271588875928326"><ele>645.0</ele><time>2026-04-07T13:20:14.999Z</time></trkpt><trkpt lat="44.72983592447086" lon="7.271683618273276"><ele>644.5</ele><time>2026-04-07T13:20:15.999Z</time></trkpt><trkpt lat="44.72987906437913" lon="7.2717704482060155"><ele>644.0</ele><time>2026-04-07T13:20:16.999Z</time></trkpt><trkpt lat="44.729942545624894" lon="7.2718461244314465"><ele>643.5</ele><time>2026-04-07T13:20:17.999Z</time></trkpt><trkpt lat="44.73001407892802" lon="7.271908530686956"><ele>643.0</ele><time>2026-04-07T13:20:18.999Z</time></trkpt><trkpt lat="44.73008032095466" lon="7.271970497530983"><ele>642.5</ele><time>2026-04-07T13:20:19.999Z</time></trkpt><trkpt lat="44.73014026309932" lon="7.272038172710856"><ele>642.0</ele><time>2026-04-07T13:20:20.999Z</time></trkpt><trkpt lat="44.73019648452514" lon="7.272093803884904"><ele>642.8</ele><time>2026-04-07T13:20:21.999Z</time></trkpt><trkpt lat="44.730256251955716" lon="7.27214846305844"><ele>643.6</ele><time>2026-04-07T13:20:22.999Z</time></trkpt><trkpt lat="44.730320900636706" lon="7.272202901514309"><ele>644.4</ele><time>2026-04-07T13:20:23.999Z</time></trkpt><trkpt lat="44.73038126003076" lon="7.272338098580497"><ele>645.1999999999999</ele><time>2026-04-07T13:20:25.999Z</time></trkpt><trkpt lat="44.730393480522466" lon="7.272512854795408"><ele>646.0</ele><time>2026-04-07T13:20:27.999Z</time></trkpt><trkpt lat="44.73039992301047" lon="7.272631091147023"><ele>644.1666666666667</ele><time>2026-04-07T13:20:28.999Z</time></trkpt><trkpt lat="44.730415819473464" lon="7.272746682570751"><ele>642.3333333333334</ele><time>2026-04-07T13:20:29.999Z</time></trkpt><trkpt lat="44.73041134673691" lon="7.272864603630168"><ele>640.5</ele><time>2026-04-07T13:20:30.999Z</time></trkpt><trkpt lat="44.730408098196094" lon="7.272990015842051"><ele>638.6666666666666</ele><time>2026-04-07T13:20:31.999Z</time></trkpt><trkpt lat="44.73041866982427" lon="7.273119614010187"><ele>636.8333333333333</ele><time>2026-04-07T13:20:32.999Z</time></trkpt><trkpt lat="44.73044254174985" lon="7.273238569529593"><ele>635.0</ele><time>2026-04-07T13:20:33.999Z</time></trkpt><trkpt lat="44.73044078582909" lon="7.273366192135673"><ele>633.8</ele><time>2026-04-07T13:20:34.999Z</time></trkpt><trkpt lat="44.73045005819491" lon="7.273512824389331"><ele>632.6</ele><time>2026-04-07T13:20:36Z</time></trkpt><trkpt lat="44.73044191576922" lon="7.273671138799761"><ele>631.4</ele><time>2026-04-07T13:20:37Z</time></trkpt><trkpt lat="44.73043653885912" lon="7.2738257447704315"><ele>630.2</ele><time>2026-04-07T13:20:38Z</time></trkpt><trkpt lat="44.73042160160987" lon="7.273965615539357"><ele>629.0</ele><time>2026-04-07T13:20:39Z</time></trkpt><trkpt lat="44.73041365543538" lon="7.274107900025958"><ele>627.5</ele><time>2026-04-07T13:20:40Z</time></trkpt><trkpt lat="44.730395432872534" lon="7.274250487314395"><ele>626.0</ele><time>2026-04-07T13:20:41Z</time></trkpt><trkpt lat="44.73036559919264" lon="7.274385139632973"><ele>624.5</ele><time>2026-04-07T13:20:42Z</time></trkpt><trkpt lat="44.730344905979315" lon="7.274487137176757"><ele>623.0</ele><time>2026-04-07T13:20:43Z</time></trkpt><trkpt lat="44.73031971995037" lon="7.27458570389252"><ele>621.5</ele><time>2026-04-07T13:20:44Z</time></trkpt><trkpt lat="44.73030852236049" lon="7.274701211145937"><ele>620.0</ele><time>2026-04-07T13:20:45Z</time></trkpt><trkpt lat="44.73029757460485" lon="7.274815719734867"><ele>619.3333333333333</ele><time>2026-04-07T13:20:46Z</time></trkpt><trkpt lat="44.7303044629798" lon="7.274942467958524"><ele>618.6666666666666</ele><time>2026-04-07T13:20:47Z</time></trkpt><trkpt lat="44.73032279652728" lon="7.275068835575359"><ele>618.0</ele><time>2026-04-07T13:20:48Z</time></trkpt><trkpt lat="44.73033441018488" lon="7.275194172720522"><ele>617.3333333333334</ele><time>2026-04-07T13:20:49Z</time></trkpt><trkpt lat="44.730355060403454" lon="7.275306331969473"><ele>616.6666666666667</ele><time>2026-04-07T13:20:50Z</time></trkpt><trkpt lat="44.73036914035525" lon="7.2754233853491135"><ele>616.0</ele><time>2026-04-07T13:20:51Z</time></trkpt><trkpt lat="44.73039407249169" lon="7.275545478345875"><ele>615.0</ele><time>2026-04-07T13:20:52Z</time></trkpt><trkpt lat="44.73040986599898" lon="7.275660228423551"><ele>614.0</ele><time>2026-04-07T13:20:53Z</time></trkpt><trkpt lat="44.73043596407761" lon="7.275777537557902"><ele>613.0</ele><time>2026-04-07T13:20:54Z</time></trkpt><trkpt lat="44.73047532321904" lon="7.275899911939722"><ele>612.0</ele><time>2026-04-07T13:20:55Z</time></trkpt><trkpt lat="44.73052505059209" lon="7.276016683988269"><ele>611.0</ele><time>2026-04-07T13:20:56Z</time></trkpt><trkpt lat="44.73056440316189" lon="7.276113107362345"><ele>610.0</ele><time>2026-04-07T13:20:57Z</time></trkpt><trkpt lat="44.73058430636316" lon="7.276222285168513"><ele>610.0</ele><time>2026-04-07T13:20:58Z</time></trkpt><trkpt lat="44.73061332796411" lon="7.27633647575006"><ele>610.0</ele><time>2026-04-07T13:20:59Z</time></trkpt><trkpt lat="44.73061744858728" lon="7.276446509005391"><ele>610.0</ele><time>2026-04-07T13:21:00Z</time></trkpt><trkpt lat="44.73058809239787" lon="7.276632453513268"><ele>610.0</ele><time>2026-04-07T13:21:02Z</time></trkpt><trkpt lat="44.73056535816284" lon="7.276764006449152"><ele>610.0</ele><time>2026-04-07T13:21:03Z</time></trkpt><trkpt lat="44.73053915414217" lon="7.276894902406326"><ele>609.2</ele><time>2026-04-07T13:21:04Z</time></trkpt><trkpt lat="44.730528089046885" lon="7.277047245765169"><ele>608.4</ele><time>2026-04-07T13:21:05Z</time></trkpt><trkpt lat="44.730534454470984" lon="7.277193817611387"><ele>607.6</ele><time>2026-04-07T13:21:06Z</time></trkpt><trkpt lat="44.73056288139852" lon="7.277323264613628"><ele>606.8</ele><time>2026-04-07T13:21:07Z</time></trkpt><trkpt lat="44.73058904727559" lon="7.277432765162752"><ele>606.0</ele><time>2026-04-07T13:21:08Z</time></trkpt><trkpt lat="44.73058918804464" lon="7.277552193122076"><ele>604.8</ele><time>2026-04-07T13:21:09Z</time></trkpt><trkpt lat="44.7305688335768" lon="7.27767747794026"><ele>603.6</ele><time>2026-04-07T13:21:10Z</time></trkpt><trkpt lat="44.730551668526346" lon="7.277807375009927"><ele>602.4</ele><time>2026-04-07T13:21:11Z</time></trkpt><trkpt lat="44.73054431747784" lon="7.277954407715386"><ele>601.2</ele><time>2026-04-07T13:21:12Z</time></trkpt><trkpt lat="44.730520502317766" lon="7.278095871009972"><ele>600.0</ele><time>2026-04-07T13:21:13Z</time></trkpt><trkpt lat="44.73053473427728" lon="7.278231277735541"><ele>599.1666666666666</ele><time>2026-04-07T13:21:14Z</time></trkpt><trkpt lat="44.73054861027617" lon="7.278349476691904"><ele>598.3333333333334</ele><time>2026-04-07T13:21:15Z</time></trkpt><trkpt lat="44.73056905301515" lon="7.278466483466699"><ele>597.5</ele><time>2026-04-07T13:21:16Z</time></trkpt><trkpt lat="44.730602732957884" lon="7.278562328593334"><ele>596.6666666666667</ele><time>2026-04-07T13:21:17Z</time></trkpt><trkpt lat="44.730642870066724" lon="7.278640007029337"><ele>595.8333333333334</ele><time>2026-04-07T13:21:18Z</time></trkpt><trkpt lat="44.730703600551266" lon="7.27871542694425"><ele>595.0</ele><time>2026-04-07T13:21:19Z</time></trkpt><trkpt lat="44.73076022508496" lon="7.278787480628311"><ele>594.75</ele><time>2026-04-07T13:21:20Z</time></trkpt><trkpt lat="44.73077928131989" lon="7.278948397504569"><ele>594.5</ele><time>2026-04-07T13:21:22Z</time></trkpt><trkpt lat="44.73077407105573" lon="7.279075105576893"><ele>594.25</ele><time>2026-04-07T13:21:23Z</time></trkpt><trkpt lat="44.730772508032295" lon="7.279249238113074"><ele>594.0</ele><time>2026-04-07T13:21:24Z</time></trkpt><trkpt lat="44.73077124461619" lon="7.279447517198327"><ele>594.0</ele><time>2026-04-07T13:21:25Z</time></trkpt><trkpt lat="44.73077258983416" lon="7.279635806799024"><ele>594.0</ele><time>2026-04-07T13:21:26Z</time></trkpt><trkpt lat="44.730765867795654" lon="7.279819584750131"><ele>594.0</ele><time>2026-04-07T13:21:27Z</time></trkpt><trkpt lat="44.730788517330424" lon="7.280002343963052"><ele>594.0</ele><time>2026-04-07T13:21:28Z</time></trkpt><trkpt lat="44.73079353629958" lon="7.280186650023188"><ele>593.75</ele><time>2026-04-07T13:21:29Z</time></trkpt><trkpt lat="44.73077830054082" lon="7.28036195013747"><ele>593.5</ele><time>2026-04-07T13:21:30Z</time></trkpt><trkpt lat="44.73078509077408" lon="7.280522671956656"><ele>593.25</ele><time>2026-04-07T13:21:31Z</time></trkpt><trkpt lat="44.7307954078133" lon="7.280677742904126"><ele>593.0</ele><time>2026-04-07T13:21:32Z</time></trkpt><trkpt lat="44.73078761748264" lon="7.28085382585441"><ele>592.4</ele><time>2026-04-07T13:21:33Z</time></trkpt><trkpt lat="44.730780126890885" lon="7.281022421717319"><ele>591.8</ele><time>2026-04-07T13:21:34Z</time></trkpt><trkpt lat="44.730772580730026" lon="7.281172616650643"><ele>591.2</ele><time>2026-04-07T13:21:35Z</time></trkpt><trkpt lat="44.73076148538702" lon="7.281281555336543"><ele>590.6</ele><time>2026-04-07T13:21:36Z</time></trkpt><trkpt lat="44.73075721392877" lon="7.281407546307621"><ele>590.0</ele><time>2026-04-07T13:21:37Z</time></trkpt><trkpt lat="44.7307556058622" lon="7.281554576796591"><ele>588.6</ele><time>2026-04-07T13:21:38Z</time></trkpt><trkpt lat="44.73075482061909" lon="7.281715839000571"><ele>587.2</ele><time>2026-04-07T13:21:39Z</time></trkpt><trkpt lat="44.73078011269072" lon="7.281852990604739"><ele>585.8</ele><time>2026-04-07T13:21:40Z</time></trkpt><trkpt lat="44.73079586793208" lon="7.281976593359023"><ele>584.4</ele><time>2026-04-07T13:21:41Z</time></trkpt><trkpt lat="44.73080769004298" lon="7.282113704483799"><ele>583.0</ele><time>2026-04-07T13:21:42Z</time></trkpt><trkpt lat="44.730814845327025" lon="7.282263110970518"><ele>582.1999999999999</ele><time>2026-04-07T13:21:43Z</time></trkpt><trkpt lat="44.73082708320712" lon="7.282398159081798"><ele>581.4</ele><time>2026-04-07T13:21:44Z</time></trkpt><trkpt lat="44.7308289352673" lon="7.282537101510803"><ele>580.5999999999999</ele><time>2026-04-07T13:21:45Z</time></trkpt><trkpt lat="44.730825196112576" lon="7.282661890458341"><ele>579.8</ele><time>2026-04-07T13:21:45.999Z</time></trkpt><trkpt lat="44.73082487241046" lon="7.282802090886004"><ele>579.0</ele><time>2026-04-07T13:21:46.999Z</time></trkpt><trkpt lat="44.73082235113016" lon="7.282947819581981"><ele>579.0</ele><time>2026-04-07T13:21:47.999Z</time></trkpt><trkpt lat="44.73083913749316" lon="7.2830997127764014"><ele>579.0</ele><time>2026-04-07T13:21:48.999Z</time></trkpt><trkpt lat="44.73085348535694" lon="7.283240480716003"><ele>579.0</ele><time>2026-04-07T13:21:49.999Z</time></trkpt><trkpt lat="44.73087676976368" lon="7.283372728032292"><ele>579.0</ele><time>2026-04-07T13:21:50.999Z</time></trkpt><trkpt lat="44.7309005951785" lon="7.283499262056431"><ele>579.0</ele><time>2026-04-07T13:21:51.999Z</time></trkpt><trkpt lat="44.73093444240128" lon="7.283630926334146"><ele>579.0</ele><time>2026-04-07T13:21:52.999Z</time></trkpt><trkpt lat="44.73094325428852" lon="7.283753398102106"><ele>579.0</ele><time>2026-04-07T13:21:53.999Z</time></trkpt><trkpt lat="44.730942752648225" lon="7.283889652263696"><ele>579.0</ele><time>2026-04-07T13:21:54.999Z</time></trkpt><trkpt lat="44.73096431005992" lon="7.284034234985961"><ele>579.0</ele><time>2026-04-07T13:21:55.999Z</time></trkpt><trkpt lat="44.73097823911711" lon="7.28417441619176"><ele>579.0</ele><time>2026-04-07T13:21:56.999Z</time></trkpt><trkpt lat="44.730982957414945" lon="7.28430882704806"><ele>579.5</ele><time>2026-04-07T13:21:57.999Z</time></trkpt><trkpt lat="44.73098583674782" lon="7.284456803060407"><ele>580.0</ele><time>2026-04-07T13:21:58.999Z</time></trkpt><trkpt lat="44.73099258363631" lon="7.284622089168532"><ele>580.5</ele><time>2026-04-07T13:21:59.999Z</time></trkpt><trkpt lat="44.73099873810836" lon="7.284806284897116"><ele>581.0</ele><time>2026-04-07T13:22:00.999Z</time></trkpt><trkpt lat="44.73101678852403" lon="7.285022171098444"><ele>576.6666666666666</ele><time>2026-04-07T13:22:01.999Z</time></trkpt><trkpt lat="44.7310425106904" lon="7.285257024488765"><ele>572.3333333333334</ele><time>2026-04-07T13:22:02.999Z</time></trkpt><trkpt lat="44.731059989161764" lon="7.285477153365179"><ele>568.0</ele><time>2026-04-07T13:22:03.999Z</time></trkpt><trkpt lat="44.73107106876277" lon="7.285680464974129"><ele>561.0</ele><time>2026-04-07T13:22:04.999Z</time></trkpt><trkpt lat="44.731082234565356" lon="7.285891433321644"><ele>554.0</ele><time>2026-04-07T13:22:05.999Z</time></trkpt><trkpt lat="44.73107109393143" lon="7.28612507902814"><ele>547.0</ele><time>2026-04-07T13:22:06.999Z</time></trkpt><trkpt lat="44.731030011496244" lon="7.286384859305092"><ele>543.6666666666667</ele><time>2026-04-07T13:22:07.999Z</time></trkpt><trkpt lat="44.73096705141187" lon="7.28666378840538"><ele>540.3333333333334</ele><time>2026-04-07T13:22:08.999Z</time></trkpt><trkpt lat="44.73091166562581" lon="7.286960714444618"><ele>537.0</ele><time>2026-04-07T13:22:09.999Z</time></trkpt><trkpt lat="44.73085321377145" lon="7.287269095701177"><ele>536.0</ele><time>2026-04-07T13:22:10.999Z</time></trkpt><trkpt lat="44.73079931992164" lon="7.287569052565982"><ele>535.0</ele><time>2026-04-07T13:22:11.999Z</time></trkpt><trkpt lat="44.730743871414944" lon="7.287872684804605"><ele>534.0</ele><time>2026-04-07T13:22:12.999Z</time></trkpt><trkpt lat="44.730687967180344" lon="7.288182610829125"><ele>533.3333333333334</ele><time>2026-04-07T13:22:13.999Z</time></trkpt><trkpt lat="44.73063115917625" lon="7.288490606071858"><ele>532.6666666666667</ele><time>2026-04-07T13:22:14.999Z</time></trkpt><trkpt lat="44.73057777735261" lon="7.288779356119608"><ele>532.0</ele><time>2026-04-07T13:22:15.999Z</time></trkpt><trkpt lat="44.730528245564564" lon="7.2890515661628585"><ele>529.3333333333334</ele><time>2026-04-07T13:22:16.999Z</time></trkpt><trkpt lat="44.73047575795196" lon="7.289311048649104"><ele>526.6666666666666</ele><time>2026-04-07T13:22:17.999Z</time></trkpt><trkpt lat="44.7304345649329" lon="7.289568974035624"><ele>524.0</ele><time>2026-04-07T13:22:18.999Z</time></trkpt><trkpt lat="44.73038853720491" lon="7.289823733808312"><ele>522.6666666666666</ele><time>2026-04-07T13:22:19.999Z</time></trkpt><trkpt lat="44.730341991115615" lon="7.290065876749956"><ele>521.3333333333334</ele><time>2026-04-07T13:22:20.999Z</time></trkpt><trkpt lat="44.730297786538856" lon="7.29029648513362"><ele>520.0</ele><time>2026-04-07T13:22:21.999Z</time></trkpt><trkpt lat="44.73025673834772" lon="7.290513926530641"><ele>519.0</ele><time>2026-04-07T13:22:22.999Z</time></trkpt><trkpt lat="44.73022044512398" lon="7.290727341713209"><ele>518.0</ele><time>2026-04-07T13:22:23.999Z</time></trkpt><trkpt lat="44.73018088797584" lon="7.290927337163884"><ele>517.0</ele><time>2026-04-07T13:22:24.999Z</time></trkpt><trkpt lat="44.73013341283978" lon="7.291099180664497"><ele>516.0</ele><time>2026-04-07T13:22:25.999Z</time></trkpt><trkpt lat="44.73007124777867" lon="7.291252673676818"><ele>516.0</ele><time>2026-04-07T13:22:26.999Z</time></trkpt><trkpt lat="44.729980421853774" lon="7.291385834334053"><ele>516.0</ele><time>2026-04-07T13:22:27.999Z</time></trkpt><trkpt lat="44.729871014876146" lon="7.291504051732405"><ele>516.0</ele><time>2026-04-07T13:22:28.999Z</time></trkpt><trkpt lat="44.7297576128958" lon="7.291636815721696"><ele>516.0</ele><time>2026-04-07T13:22:29.999Z</time></trkpt><trkpt lat="44.72964991407473" lon="7.291757693167556"><ele>514.75</ele><time>2026-04-07T13:22:30.999Z</time></trkpt><trkpt lat="44.72955548343687" lon="7.291884532739245"><ele>513.5</ele><time>2026-04-07T13:22:31.999Z</time></trkpt><trkpt lat="44.72946218992905" lon="7.292014085382018"><ele>512.25</ele><time>2026-04-07T13:22:32.999Z</time></trkpt><trkpt lat="44.729374637937156" lon="7.292148741911548"><ele>511.0</ele><time>2026-04-07T13:22:33.999Z</time></trkpt><trkpt lat="44.72929817076486" lon="7.292300447486618"><ele>508.6666666666667</ele><time>2026-04-07T13:22:34.999Z</time></trkpt><trkpt lat="44.72922921166845" lon="7.29247782004837"><ele>506.33333333333337</ele><time>2026-04-07T13:22:35.999Z</time></trkpt><trkpt lat="44.729158301199796" lon="7.2926826031384"><ele>504.0</ele><time>2026-04-07T13:22:36.999Z</time></trkpt><trkpt lat="44.729068233564725" lon="7.2928939396129335"><ele>503.33333333333337</ele><time>2026-04-07T13:22:37.999Z</time></trkpt><trkpt lat="44.728975867130075" lon="7.293112381519495"><ele>502.6666666666667</ele><time>2026-04-07T13:22:38.999Z</time></trkpt><trkpt lat="44.72890013241405" lon="7.293320138304063"><ele>502.0</ele><time>2026-04-07T13:22:39.999Z</time></trkpt><trkpt lat="44.728814012437205" lon="7.293501840949676"><ele>502.0</ele><time>2026-04-07T13:22:40.999Z</time></trkpt><trkpt lat="44.728768384120336" lon="7.293700073077031"><ele>502.0</ele><time>2026-04-07T13:22:42Z</time></trkpt><trkpt lat="44.72873167557134" lon="7.293894716720506"><ele>502.0</ele><time>2026-04-07T13:22:43Z</time></trkpt><trkpt lat="44.72871764933609" lon="7.294095318068939"><ele>502.0</ele><time>2026-04-07T13:22:44Z</time></trkpt><trkpt lat="44.72871403936713" lon="7.294276263192936"><ele>500.75</ele><time>2026-04-07T13:22:45Z</time></trkpt><trkpt lat="44.72872172360776" lon="7.294426525078395"><ele>499.5</ele><time>2026-04-07T13:22:46Z</time></trkpt><trkpt lat="44.72875089600451" lon="7.294584126865136"><ele>498.25</ele><time>2026-04-07T13:22:47Z</time></trkpt><trkpt lat="44.728812764765415" lon="7.294743001090397"><ele>497.0</ele><time>2026-04-07T13:22:48Z</time></trkpt><trkpt lat="44.72889256192133" lon="7.294898666070925"><ele>496.0</ele><time>2026-04-07T13:22:49Z</time></trkpt><trkpt lat="44.72897884078603" lon="7.29506153103889"><ele>495.0</ele><time>2026-04-07T13:22:50Z</time></trkpt><trkpt lat="44.72906957453913" lon="7.29523726037683"><ele>494.0</ele><time>2026-04-07T13:22:51Z</time></trkpt><trkpt lat="44.729170376761026" lon="7.295417181280422"><ele>493.3333333333333</ele><time>2026-04-07T13:22:52Z</time></trkpt><trkpt lat="44.72926110756353" lon="7.295622236192511"><ele>492.66666666666663</ele><time>2026-04-07T13:22:53Z</time></trkpt><trkpt lat="44.72938146493136" lon="7.295809446511776"><ele>492.0</ele><time>2026-04-07T13:22:54Z</time></trkpt><trkpt lat="44.7294844872759" lon="7.296006894469583"><ele>492.0</ele><time>2026-04-07T13:22:55Z</time></trkpt><trkpt lat="44.72958114241164" lon="7.296185382183044"><ele>492.0</ele><time>2026-04-07T13:22:56Z</time></trkpt><trkpt lat="44.729665303816724" lon="7.296358747097685"><ele>492.0</ele><time>2026-04-07T13:22:57Z</time></trkpt><trkpt lat="44.729738182251225" lon="7.296522819293391"><ele>492.0</ele><time>2026-04-07T13:22:58Z</time></trkpt><trkpt lat="44.72978804627005" lon="7.296696012380736"><ele>490.0</ele><time>2026-04-07T13:22:59Z</time></trkpt><trkpt lat="44.72981777668288" lon="7.296892505348465"><ele>488.0</ele><time>2026-04-07T13:23:00Z</time></trkpt><trkpt lat="44.72982570087577" lon="7.297119443244529"><ele>486.0</ele><time>2026-04-07T13:23:01Z</time></trkpt><trkpt lat="44.729832929639" lon="7.297337041789474"><ele>484.75</ele><time>2026-04-07T13:23:02Z</time></trkpt><trkpt lat="44.72984343750546" lon="7.297541251619645"><ele>483.5</ele><time>2026-04-07T13:23:03Z</time></trkpt><trkpt lat="44.729846044762176" lon="7.297746673541601"><ele>482.25</ele><time>2026-04-07T13:23:04Z</time></trkpt><trkpt lat="44.7298262247743" lon="7.297949997052141"><ele>481.0</ele><time>2026-04-07T13:23:05Z</time></trkpt><trkpt lat="44.72978801205849" lon="7.298137706803273"><ele>480.0</ele><time>2026-04-07T13:23:06Z</time></trkpt><trkpt lat="44.72974210589892" lon="7.298317981347308"><ele>479.0</ele><time>2026-04-07T13:23:07Z</time></trkpt><trkpt lat="44.72968631715739" lon="7.298502560925893"><ele>478.0</ele><time>2026-04-07T13:23:08Z</time></trkpt><trkpt lat="44.72962137916815" lon="7.298679968985949"><ele>477.0</ele><time>2026-04-07T13:23:09Z</time></trkpt><trkpt lat="44.729577115271496" lon="7.298869904376289"><ele>475.66666666666663</ele><time>2026-04-07T13:23:10Z</time></trkpt><trkpt lat="44.72954145025519" lon="7.299078602968402"><ele>474.3333333333333</ele><time>2026-04-07T13:23:11Z</time></trkpt><trkpt lat="44.72952374477519" lon="7.299289004489291"><ele>473.0</ele><time>2026-04-07T13:23:12Z</time></trkpt><trkpt lat="44.72951826507115" lon="7.2994967921232154"><ele>473.0</ele><time>2026-04-07T13:23:13Z</time></trkpt><trkpt lat="44.72951722396707" lon="7.299696544581893"><ele>473.0</ele><time>2026-04-07T13:23:14Z</time></trkpt><trkpt lat="44.72953157005716" lon="7.29990178217907"><ele>473.0</ele><time>2026-04-07T13:23:15Z</time></trkpt><trkpt lat="44.729553003563616" lon="7.300105220287239"><ele>473.0</ele><time>2026-04-07T13:23:16Z</time></trkpt><trkpt lat="44.72957316597485" lon="7.300290711908299"><ele>472.0</ele><time>2026-04-07T13:23:17Z</time></trkpt><trkpt lat="44.729596466782816" lon="7.300448921184602"><ele>470.99999999999994</ele><time>2026-04-07T13:23:18Z</time></trkpt><trkpt lat="44.72960499989461" lon="7.300593610714862"><ele>469.99999999999994</ele><time>2026-04-07T13:23:19Z</time></trkpt><trkpt lat="44.72958282516034" lon="7.300721238102016"><ele>469.0</ele><time>2026-04-07T13:23:20Z</time></trkpt><trkpt lat="44.72955071377566" lon="7.300876470499753"><ele>468.0</ele><time>2026-04-07T13:23:21Z</time></trkpt><trkpt lat="44.72949827387853" lon="7.301053053821308"><ele>467.0</ele><time>2026-04-07T13:23:22Z</time></trkpt><trkpt lat="44.7294484686717" lon="7.301254758527751"><ele>466.0</ele><time>2026-04-07T13:23:23Z</time></trkpt><trkpt lat="44.72940021189355" lon="7.3014575594866"><ele>465.0</ele><time>2026-04-07T13:23:24Z</time></trkpt><trkpt lat="44.72935927088356" lon="7.301646976653007"><ele>464.0</ele><time>2026-04-07T13:23:25Z</time></trkpt><trkpt lat="44.72931937745689" lon="7.30183212106056"><ele>463.0</ele><time>2026-04-07T13:23:26Z</time></trkpt><trkpt lat="44.72927197821872" lon="7.302006937306291"><ele>462.0</ele><time>2026-04-07T13:23:27Z</time></trkpt><trkpt lat="44.7292105647597" lon="7.302169424212065"><ele>461.0</ele><time>2026-04-07T13:23:28Z</time></trkpt><trkpt lat="44.729135699156856" lon="7.302322683981576"><ele>460.0</ele><time>2026-04-07T13:23:29Z</time></trkpt><trkpt lat="44.72905441720621" lon="7.302471115846424"><ele>458.5</ele><time>2026-04-07T13:23:30Z</time></trkpt><trkpt lat="44.728981923775315" lon="7.302625416201737"><ele>457.0</ele><time>2026-04-07T13:23:31Z</time></trkpt><trkpt lat="44.7289591185755" lon="7.302817095179884"><ele>455.5</ele><time>2026-04-07T13:23:32Z</time></trkpt><trkpt lat="44.72891690240848" lon="7.302996277508514"><ele>454.0</ele><time>2026-04-07T13:23:33Z</time></trkpt><trkpt lat="44.72884899053043" lon="7.303164816981763"><ele>453.25</ele><time>2026-04-07T13:23:34Z</time></trkpt><trkpt lat="44.728769516855714" lon="7.30330509423238"><ele>452.5</ele><time>2026-04-07T13:23:35Z</time></trkpt><trkpt lat="44.72869906816515" lon="7.303432647657737"><ele>451.75</ele><time>2026-04-07T13:23:36Z</time></trkpt><trkpt lat="44.728651381840116" lon="7.303575881427908"><ele>451.0</ele><time>2026-04-07T13:23:37Z</time></trkpt><trkpt lat="44.72862195082773" lon="7.303719275294797"><ele>451.0</ele><time>2026-04-07T13:23:38Z</time></trkpt><trkpt lat="44.72859559524135" lon="7.303868664766452"><ele>451.0</ele><time>2026-04-07T13:23:39Z</time></trkpt><trkpt lat="44.72852236339836" lon="7.30399540263573"><ele>451.0</ele><time>2026-04-07T13:23:40Z</time></trkpt><trkpt lat="44.728459424345644" lon="7.304152951382819"><ele>451.0</ele><time>2026-04-07T13:23:41Z</time></trkpt><trkpt lat="44.728386396796644" lon="7.304308869344338"><ele>450.0</ele><time>2026-04-07T13:23:42Z</time></trkpt><trkpt lat="44.72833103425021" lon="7.304486203533263"><ele>449.0</ele><time>2026-04-07T13:23:43Z</time></trkpt><trkpt lat="44.72827750104841" lon="7.304673597128105"><ele>448.0</ele><time>2026-04-07T13:23:44Z</time></trkpt><trkpt lat="44.72822248733706" lon="7.304869785695671"><ele>447.0</ele><time>2026-04-07T13:23:45Z</time></trkpt><trkpt lat="44.7281700331397" lon="7.305071212389757"><ele>446.0</ele><time>2026-04-07T13:23:46Z</time></trkpt><trkpt lat="44.72811802162466" lon="7.3052579245408245"><ele>445.0</ele><time>2026-04-07T13:23:47Z</time></trkpt><trkpt lat="44.72808526771732" lon="7.305453083152411"><ele>444.0</ele><time>2026-04-07T13:23:48Z</time></trkpt><trkpt lat="44.72806020861828" lon="7.305666787058976"><ele>443.0</ele><time>2026-04-07T13:23:48.999Z</time></trkpt><trkpt lat="44.7280456703038" lon="7.305878972145076"><ele>442.0</ele><time>2026-04-07T13:23:49.999Z</time></trkpt><trkpt lat="44.72802832902246" lon="7.306073142893759"><ele>441.0</ele><time>2026-04-07T13:23:50.999Z</time></trkpt><trkpt lat="44.72800879428132" lon="7.306258589246505"><ele>440.0</ele><time>2026-04-07T13:23:51.999Z</time></trkpt><trkpt lat="44.72798653670744" lon="7.306433942409703"><ele>439.0</ele><time>2026-04-07T13:23:52.999Z</time></trkpt><trkpt lat="44.72797633585895" lon="7.3066100481624146"><ele>438.25</ele><time>2026-04-07T13:23:53.999Z</time></trkpt><trkpt lat="44.72794858073087" lon="7.306780914954521"><ele>437.5</ele><time>2026-04-07T13:23:54.999Z</time></trkpt><trkpt lat="44.727918272573454" lon="7.3069442730922"><ele>436.75</ele><time>2026-04-07T13:23:55.999Z</time></trkpt><trkpt lat="44.72789115521394" lon="7.307099314828571"><ele>436.0</ele><time>2026-04-07T13:23:56.999Z</time></trkpt><trkpt lat="44.72786215239087" lon="7.307245122876041"><ele>435.5</ele><time>2026-04-07T13:23:57.999Z</time></trkpt><trkpt lat="44.72781235508669" lon="7.307377301749768"><ele>435.0</ele><time>2026-04-07T13:23:58.999Z</time></trkpt><trkpt lat="44.72774681825204" lon="7.307513306691675"><ele>434.5</ele><time>2026-04-07T13:23:59.999Z</time></trkpt><trkpt lat="44.72766649756617" lon="7.307653254301894"><ele>434.0</ele><time>2026-04-07T13:24:00.999Z</time></trkpt><trkpt lat="44.7275799668817" lon="7.307801051611528"><ele>434.0</ele><time>2026-04-07T13:24:01.999Z</time></trkpt><trkpt lat="44.72750492930232" lon="7.307960272232428"><ele>434.0</ele><time>2026-04-07T13:24:02.999Z</time></trkpt><trkpt lat="44.72745104612472" lon="7.308113757518879"><ele>434.0</ele><time>2026-04-07T13:24:03.999Z</time></trkpt><trkpt lat="44.72739779175988" lon="7.308267369887619"><ele>434.0</ele><time>2026-04-07T13:24:04.999Z</time></trkpt><trkpt lat="44.72740041084484" lon="7.308435714317942"><ele>432.75</ele><time>2026-04-07T13:24:05.999Z</time></trkpt><trkpt lat="44.72739878633897" lon="7.308612215775183"><ele>431.5</ele><time>2026-04-07T13:24:06.999Z</time></trkpt><trkpt lat="44.72738211936102" lon="7.308794625270706"><ele>430.25</ele><time>2026-04-07T13:24:07.999Z</time></trkpt><trkpt lat="44.72737315548849" lon="7.308986382196928"><ele>429.0</ele><time>2026-04-07T13:24:08.999Z</time></trkpt><trkpt lat="44.727370324567005" lon="7.309183933581401"><ele>428.5</ele><time>2026-04-07T13:24:09.999Z</time></trkpt><trkpt lat="44.72734602463348" lon="7.309359988024275"><ele>428.0</ele><time>2026-04-07T13:24:10.999Z</time></trkpt><trkpt lat="44.727311779058745" lon="7.309523007571751"><ele>427.5</ele><time>2026-04-07T13:24:11.999Z</time></trkpt><trkpt lat="44.727269862168335" lon="7.309678814838032"><ele>427.0</ele><time>2026-04-07T13:24:12.999Z</time></trkpt><trkpt lat="44.72722924209762" lon="7.309832141607527"><ele>426.0</ele><time>2026-04-07T13:24:13.999Z</time></trkpt><trkpt lat="44.72718727072585" lon="7.309974532677319"><ele>425.00000000000006</ele><time>2026-04-07T13:24:14.999Z</time></trkpt><trkpt lat="44.72713322397621" lon="7.3101067122953935"><ele>424.0</ele><time>2026-04-07T13:24:15.999Z</time></trkpt><trkpt lat="44.72709938929987" lon="7.310232281707598"><ele>423.0</ele><time>2026-04-07T13:24:16.999Z</time></trkpt><trkpt lat="44.727082233174436" lon="7.3103735086650214"><ele>422.0</ele><time>2026-04-07T13:24:17.999Z</time></trkpt><trkpt lat="44.72708005104813" lon="7.310538233581981"><ele>420.8</ele><time>2026-04-07T13:24:18.999Z</time></trkpt><trkpt lat="44.72708196222998" lon="7.310710954342083"><ele>419.6</ele><time>2026-04-07T13:24:19.999Z</time></trkpt><trkpt lat="44.72707649151529" lon="7.310875518820829"><ele>418.40000000000003</ele><time>2026-04-07T13:24:20.999Z</time></trkpt><trkpt lat="44.72706542189541" lon="7.311023069955568"><ele>417.20000000000005</ele><time>2026-04-07T13:24:21.999Z</time></trkpt><trkpt lat="44.72706112549163" lon="7.311169628769852"><ele>416.0</ele><time>2026-04-07T13:24:22.999Z</time></trkpt><trkpt lat="44.72705036484504" lon="7.311305899498023"><ele>416.75</ele><time>2026-04-07T13:24:23.999Z</time></trkpt><trkpt lat="44.72707303725977" lon="7.311437880065964"><ele>417.5</ele><time>2026-04-07T13:24:24.999Z</time></trkpt><trkpt lat="44.72717193047191" lon="7.311566111046497"><ele>418.25</ele><time>2026-04-07T13:24:25.999Z</time></trkpt><trkpt lat="44.727291791206845" lon="7.311634947585888"><ele>419.0</ele><time>2026-04-07T13:24:26.999Z</time></trkpt><trkpt lat="44.727397067184704" lon="7.3117444172815995"><ele>419.0</ele><time>2026-04-07T13:24:27.999Z</time></trkpt><trkpt lat="44.72750743970816" lon="7.3118341928573045"><ele>419.0</ele><time>2026-04-07T13:24:28.999Z</time></trkpt><trkpt lat="44.72760455112969" lon="7.311904435811991"><ele>419.0</ele><time>2026-04-07T13:24:29.999Z</time></trkpt><trkpt lat="44.72768268940606" lon="7.3119908004489105"><ele>419.0</ele><time>2026-04-07T13:24:30.999Z</time></trkpt><trkpt lat="44.72774730064234" lon="7.312083577263272"><ele>419.0</ele><time>2026-04-07T13:24:31.999Z</time></trkpt><trkpt lat="44.727786633898965" lon="7.312192410687891"><ele>417.2</ele><time>2026-04-07T13:24:32.999Z</time></trkpt><trkpt lat="44.727810285977924" lon="7.312323401848153"><ele>415.4</ele><time>2026-04-07T13:24:33.999Z</time></trkpt><trkpt lat="44.727837751310716" lon="7.312476817354952"><ele>413.6</ele><time>2026-04-07T13:24:34.999Z</time></trkpt><trkpt lat="44.72785386818675" lon="7.312648090252219"><ele>411.8</ele><time>2026-04-07T13:24:35.999Z</time></trkpt><trkpt lat="44.72785587881521" lon="7.312797812520619"><ele>410.0</ele><time>2026-04-07T13:24:36.999Z</time></trkpt><trkpt lat="44.72784768553388" lon="7.312943731361236"><ele>409.75</ele><time>2026-04-07T13:24:37.999Z</time></trkpt><trkpt lat="44.727818426651986" lon="7.313104902511856"><ele>409.5</ele><time>2026-04-07T13:24:38.999Z</time></trkpt><trkpt lat="44.72777854697665" lon="7.313268549630292"><ele>409.25</ele><time>2026-04-07T13:24:39.999Z</time></trkpt><trkpt lat="44.72774428035512" lon="7.313442722411974"><ele>409.0</ele><time>2026-04-07T13:24:40.999Z</time></trkpt><trkpt lat="44.72772146538023" lon="7.313631216732906"><ele>409.0</ele><time>2026-04-07T13:24:41.999Z</time></trkpt><trkpt lat="44.72770162658328" lon="7.313815069642727"><ele>409.0</ele><time>2026-04-07T13:24:42.999Z</time></trkpt><trkpt lat="44.727687446858276" lon="7.313994413718719"><ele>409.0</ele><time>2026-04-07T13:24:43.999Z</time></trkpt><trkpt lat="44.72768425450863" lon="7.314176714613986"><ele>409.0</ele><time>2026-04-07T13:24:44.999Z</time></trkpt><trkpt lat="44.72768499773846" lon="7.314367770139721"><ele>408.25</ele><time>2026-04-07T13:24:45.999Z</time></trkpt><trkpt lat="44.7276870284814" lon="7.31456945013643"><ele>407.5</ele><time>2026-04-07T13:24:46.999Z</time></trkpt><trkpt lat="44.72769693710326" lon="7.31476058516081"><ele>406.75</ele><time>2026-04-07T13:24:48Z</time></trkpt><trkpt lat="44.72772472117241" lon="7.31493900736417"><ele>406.0</ele><time>2026-04-07T13:24:49Z</time></trkpt><trkpt lat="44.727741094660956" lon="7.315117765133324"><ele>405.25</ele><time>2026-04-07T13:24:50Z</time></trkpt><trkpt lat="44.72773553760105" lon="7.315298102127173"><ele>404.5</ele><time>2026-04-07T13:24:51Z</time></trkpt><trkpt lat="44.727717484915566" lon="7.315467099103799"><ele>403.75</ele><time>2026-04-07T13:24:52Z</time></trkpt><trkpt lat="44.727697493251256" lon="7.3156321640111965"><ele>403.0</ele><time>2026-04-07T13:24:53Z</time></trkpt><trkpt lat="44.727673736758696" lon="7.315810178155753"><ele>402.25</ele><time>2026-04-07T13:24:54Z</time></trkpt><trkpt lat="44.72764760711017" lon="7.315973299714382"><ele>401.5</ele><time>2026-04-07T13:24:55Z</time></trkpt><trkpt lat="44.727617200112945" lon="7.316127309784648"><ele>400.75</ele><time>2026-04-07T13:24:56Z</time></trkpt><trkpt lat="44.72758466298912" lon="7.316281286124558"><ele>400.0</ele><time>2026-04-07T13:24:57Z</time></trkpt><trkpt lat="44.727545493745815" lon="7.316443564853687"><ele>399.75</ele><time>2026-04-07T13:24:58Z</time></trkpt><trkpt lat="44.72750703089322" lon="7.316608435425981"><ele>399.5</ele><time>2026-04-07T13:24:59Z</time></trkpt><trkpt lat="44.727460080147964" lon="7.316770062732382"><ele>399.25</ele><time>2026-04-07T13:25:00Z</time></trkpt><trkpt lat="44.727406532213756" lon="7.316927143248309"><ele>399.0</ele><time>2026-04-07T13:25:01Z</time></trkpt><trkpt lat="44.72735391860747" lon="7.317088287270178"><ele>398.5</ele><time>2026-04-07T13:25:02Z</time></trkpt><trkpt lat="44.72730448499514" lon="7.317269608137526"><ele>398.0</ele><time>2026-04-07T13:25:03Z</time></trkpt><trkpt lat="44.72725670334513" lon="7.317453389774708"><ele>397.5</ele><time>2026-04-07T13:25:04Z</time></trkpt><trkpt lat="44.72721094997909" lon="7.31761966689854"><ele>397.0</ele><time>2026-04-07T13:25:05Z</time></trkpt><trkpt lat="44.72716093154605" lon="7.317784323445721"><ele>397.0</ele><time>2026-04-07T13:25:06Z</time></trkpt><trkpt lat="44.72713152831836" lon="7.317940267660712"><ele>397.0</ele><time>2026-04-07T13:25:07Z</time></trkpt><trkpt lat="44.7271295968155" lon="7.3180823141165705"><ele>397.0</ele><time>2026-04-07T13:25:08Z</time></trkpt><trkpt lat="44.72715424940689" lon="7.318227217517124"><ele>397.0</ele><time>2026-04-07T13:25:09Z</time></trkpt><trkpt lat="44.72720951883226" lon="7.318370829522527"><ele>397.0</ele><time>2026-04-07T13:25:10Z</time></trkpt><trkpt lat="44.72725112434087" lon="7.318497625315567"><ele>396.20000000000005</ele><time>2026-04-07T13:25:11Z</time></trkpt><trkpt lat="44.72728410770829" lon="7.3186024803554375"><ele>395.4</ele><time>2026-04-07T13:25:12Z</time></trkpt><trkpt lat="44.72732710022572" lon="7.318735822605381"><ele>394.6</ele><time>2026-04-07T13:25:14Z</time></trkpt><trkpt lat="44.727340749868915" lon="7.318864695177092"><ele>393.79999999999995</ele><time>2026-04-07T13:25:16Z</time></trkpt><trkpt lat="44.727287356580604" lon="7.319035859663657"><ele>393.0</ele><time>2026-04-07T13:25:18Z</time></trkpt><trkpt lat="44.72724726332825" lon="7.319140942351214"><ele>392.4</ele><time>2026-04-07T13:25:19Z</time></trkpt><trkpt lat="44.72719619498763" lon="7.319254213997167"><ele>391.79999999999995</ele><time>2026-04-07T13:25:20Z</time></trkpt><trkpt lat="44.72715126413039" lon="7.3193693987597435"><ele>391.2</ele><time>2026-04-07T13:25:21Z</time></trkpt><trkpt lat="44.72710734319532" lon="7.319489370652942"><ele>390.6</ele><time>2026-04-07T13:25:22Z</time></trkpt><trkpt lat="44.72705007478824" lon="7.319616672253952"><ele>390.0</ele><time>2026-04-07T13:25:23Z</time></trkpt><trkpt lat="44.72699122785578" lon="7.31974961795597"><ele>389.4</ele><time>2026-04-07T13:25:24Z</time></trkpt><trkpt lat="44.72694476185719" lon="7.319876141492516"><ele>388.8</ele><time>2026-04-07T13:25:25Z</time></trkpt><trkpt lat="44.726906375914915" lon="7.319999292763077"><ele>388.20000000000005</ele><time>2026-04-07T13:25:26Z</time></trkpt><trkpt lat="44.72687201043705" lon="7.320129385217804"><ele>387.6</ele><time>2026-04-07T13:25:27Z</time></trkpt><trkpt lat="44.72683695452595" lon="7.320264558822529"><ele>387.0</ele><time>2026-04-07T13:25:28Z</time></trkpt><trkpt lat="44.72679887319095" lon="7.320400344280018"><ele>387.0</ele><time>2026-04-07T13:25:29Z</time></trkpt><trkpt lat="44.72676238296108" lon="7.320541245649274"><ele>387.0</ele><time>2026-04-07T13:25:30Z</time></trkpt><trkpt lat="44.726730687029566" lon="7.320687971039544"><ele>387.0</ele><time>2026-04-07T13:25:31Z</time></trkpt><trkpt lat="44.726685436303384" lon="7.320828409411955"><ele>387.0</ele><time>2026-04-07T13:25:32Z</time></trkpt><trkpt lat="44.72662496559437" lon="7.320957297874063"><ele>387.0</ele><time>2026-04-07T13:25:33Z</time></trkpt><trkpt lat="44.726568710907245" lon="7.321081027173439"><ele>386.20000000000005</ele><time>2026-04-07T13:25:34Z</time></trkpt><trkpt lat="44.72650543195225" lon="7.321201054517821"><ele>385.4</ele><time>2026-04-07T13:25:35Z</time></trkpt><trkpt lat="44.726448432871315" lon="7.321327400611307"><ele>384.6</ele><time>2026-04-07T13:25:36Z</time></trkpt><trkpt lat="44.72638999773187" lon="7.321442940400329"><ele>383.79999999999995</ele><time>2026-04-07T13:25:37Z</time></trkpt><trkpt lat="44.7263348303962" lon="7.321562951979441"><ele>383.0</ele><time>2026-04-07T13:25:38Z</time></trkpt><trkpt lat="44.72628359907064" lon="7.321679959099388"><ele>382.83333333333337</ele><time>2026-04-07T13:25:39Z</time></trkpt><trkpt lat="44.726238384900164" lon="7.321791556661014"><ele>382.6666666666667</ele><time>2026-04-07T13:25:40Z</time></trkpt><trkpt lat="44.726205955840385" lon="7.321896561157364"><ele>382.5</ele><time>2026-04-07T13:25:41Z</time></trkpt><trkpt lat="44.72618045373577" lon="7.321987343438813"><ele>382.3333333333333</ele><time>2026-04-07T13:25:42Z</time></trkpt><trkpt lat="44.72614578062616" lon="7.322066965766674"><ele>382.16666666666663</ele><time>2026-04-07T13:25:43Z</time></trkpt><trkpt lat="44.726106952599345" lon="7.32216264210796"><ele>382.0</ele><time>2026-04-07T13:25:45Z</time></trkpt><trkpt lat="44.726047929087244" lon="7.32230129677751"><ele>381.40000000000003</ele><time>2026-04-07T13:26:12.999Z</time></trkpt><trkpt lat="44.7260593337048" lon="7.32240142774902"><ele>380.8</ele><time>2026-04-07T13:26:14.999Z</time></trkpt><trkpt lat="44.72615509652675" lon="7.322436848555869"><ele>380.2</ele><time>2026-04-07T13:26:15.999Z</time></trkpt><trkpt lat="44.72624855873188" lon="7.322441422881046"><ele>379.6</ele><time>2026-04-07T13:26:16.999Z</time></trkpt><trkpt lat="44.72635172105225" lon="7.322445871726147"><ele>379.0</ele><time>2026-04-07T13:26:17.999Z</time></trkpt><trkpt lat="44.72644473946531" lon="7.322461772584159"><ele>378.79999999999995</ele><time>2026-04-07T13:26:18.999Z</time></trkpt><trkpt lat="44.72653979608821" lon="7.322477721501367"><ele>378.59999999999997</ele><time>2026-04-07T13:26:19.999Z</time></trkpt><trkpt lat="44.726639280659086" lon="7.322506099242804"><ele>378.4</ele><time>2026-04-07T13:26:20.999Z</time></trkpt><trkpt lat="44.72672723499123" lon="7.32258123100434"><ele>378.2</ele><time>2026-04-07T13:26:21.999Z</time></trkpt><trkpt lat="44.726807592360906" lon="7.322665074223521"><ele>378.0</ele><time>2026-04-07T13:26:22.999Z</time></trkpt><trkpt lat="44.72688180865847" lon="7.322752130694463"><ele>377.0</ele><time>2026-04-07T13:26:23.999Z</time></trkpt><trkpt lat="44.726956638250975" lon="7.322873184558131"><ele>376.0</ele><time>2026-04-07T13:26:24.999Z</time></trkpt><trkpt lat="44.72703174049308" lon="7.322993003296531"><ele>375.0</ele><time>2026-04-07T13:26:25.999Z</time></trkpt><trkpt lat="44.727114049311254" lon="7.32310787018741"><ele>374.0</ele><time>2026-04-07T13:26:26.999Z</time></trkpt><trkpt lat="44.7271877646783" lon="7.323230792807239"><ele>373.5</ele><time>2026-04-07T13:26:27.999Z</time></trkpt><trkpt lat="44.72725898129723" lon="7.323357709793063"><ele>373.0</ele><time>2026-04-07T13:26:28.999Z</time></trkpt><trkpt lat="44.7273265452614" lon="7.323484586007971"><ele>372.5</ele><time>2026-04-07T13:26:29.999Z</time></trkpt><trkpt lat="44.72738506996478" lon="7.323621556359916"><ele>372.0</ele><time>2026-04-07T13:26:30.999Z</time></trkpt><trkpt lat="44.7274378692956" lon="7.323762967369042"><ele>371.75</ele><time>2026-04-07T13:26:31.999Z</time></trkpt><trkpt lat="44.727484007088506" lon="7.323906530486669"><ele>371.5</ele><time>2026-04-07T13:26:32.999Z</time></trkpt><trkpt lat="44.72751719005457" lon="7.324050137611241"><ele>371.25</ele><time>2026-04-07T13:26:33.999Z</time></trkpt><trkpt lat="44.72754732286958" lon="7.324204423312422"><ele>371.0</ele><time>2026-04-07T13:26:34.999Z</time></trkpt><trkpt lat="44.72757629616539" lon="7.324364443419572"><ele>371.0</ele><time>2026-04-07T13:26:35.999Z</time></trkpt><trkpt lat="44.72761087729047" lon="7.324522417292363"><ele>371.0</ele><time>2026-04-07T13:26:36.999Z</time></trkpt><trkpt lat="44.727645261047755" lon="7.324686447178538"><ele>371.0</ele><time>2026-04-07T13:26:37.999Z</time></trkpt><trkpt lat="44.72767930433704" lon="7.324853925683734"><ele>371.0</ele><time>2026-04-07T13:26:38.999Z</time></trkpt><trkpt lat="44.72771141518696" lon="7.325026684664246"><ele>371.5</ele><time>2026-04-07T13:26:39.999Z</time></trkpt><trkpt lat="44.727747469339356" lon="7.325197277493696"><ele>372.0</ele><time>2026-04-07T13:26:40.999Z</time></trkpt><trkpt lat="44.72778253831815" lon="7.325362514254415"><ele>372.5</ele><time>2026-04-07T13:26:41.999Z</time></trkpt><trkpt lat="44.72781927284366" lon="7.32551455174775"><ele>373.0</ele><time>2026-04-07T13:26:42.999Z</time></trkpt><trkpt lat="44.7278448268789" lon="7.32565005240303"><ele>373.0</ele><time>2026-04-07T13:26:43.999Z</time></trkpt><trkpt lat="44.72786972028353" lon="7.325779921380745"><ele>373.0</ele><time>2026-04-07T13:26:44.999Z</time></trkpt><trkpt lat="44.727898844415314" lon="7.325903706923095"><ele>373.0</ele><time>2026-04-07T13:26:45.999Z</time></trkpt><trkpt lat="44.727923939362285" lon="7.32601951015964"><ele>373.0</ele><time>2026-04-07T13:26:46.999Z</time></trkpt><trkpt lat="44.72794193771343" lon="7.3261233180585705"><ele>373.0</ele><time>2026-04-07T13:26:47.999Z</time></trkpt><trkpt lat="44.7279601735232" lon="7.326229547262432"><ele>373.0</ele><time>2026-04-07T13:26:48.999Z</time></trkpt><trkpt lat="44.727983858124055" lon="7.326339246644747"><ele>372.66666666666663</ele><time>2026-04-07T13:26:49.999Z</time></trkpt><trkpt lat="44.72800398470286" lon="7.326454908901674"><ele>372.3333333333333</ele><time>2026-04-07T13:26:50.999Z</time></trkpt><trkpt lat="44.72802152623511" lon="7.326575528952091"><ele>372.0</ele><time>2026-04-07T13:26:51.999Z</time></trkpt><trkpt lat="44.72803614224468" lon="7.3266970452664335"><ele>371.6666666666667</ele><time>2026-04-07T13:26:52.999Z</time></trkpt><trkpt lat="44.72805397841663" lon="7.3268115103703835"><ele>371.33333333333337</ele><time>2026-04-07T13:26:54Z</time></trkpt><trkpt lat="44.728077261470865" lon="7.326922890705993"><ele>371.0</ele><time>2026-04-07T13:26:55Z</time></trkpt><trkpt lat="44.72809673215939" lon="7.327037145589404"><ele>371.0</ele><time>2026-04-07T13:26:56Z</time></trkpt><trkpt lat="44.7281110134256" lon="7.3271514807867115"><ele>371.0</ele><time>2026-04-07T13:26:57Z</time></trkpt><trkpt lat="44.72812219903989" lon="7.327267649770307"><ele>371.0</ele><time>2026-04-07T13:26:58Z</time></trkpt><trkpt lat="44.728132811474836" lon="7.327383081133602"><ele>371.0</ele><time>2026-04-07T13:26:59Z</time></trkpt><trkpt lat="44.728143938850685" lon="7.3275003011812"><ele>371.0</ele><time>2026-04-07T13:27:00Z</time></trkpt><trkpt lat="44.72815844059783" lon="7.327620186900579"><ele>371.0</ele><time>2026-04-07T13:27:01Z</time></trkpt><trkpt lat="44.72817882658069" lon="7.3277736615584175"><ele>370.25</ele><time>2026-04-07T13:27:02Z</time></trkpt><trkpt lat="44.72820268029776" lon="7.327961115263931"><ele>369.5</ele><time>2026-04-07T13:27:03Z</time></trkpt><trkpt lat="44.72821762172646" lon="7.328158961548349"><ele>368.75</ele><time>2026-04-07T13:27:04Z</time></trkpt><trkpt lat="44.72823663437169" lon="7.328354951178694"><ele>368.0</ele><time>2026-04-07T13:27:05Z</time></trkpt><trkpt lat="44.72825818196619" lon="7.328529457116157"><ele>367.4</ele><time>2026-04-07T13:27:06Z</time></trkpt><trkpt lat="44.72827746557466" lon="7.328695649178976"><ele>366.79999999999995</ele><time>2026-04-07T13:27:07Z</time></trkpt><trkpt lat="44.728296674902275" lon="7.328851561552411"><ele>366.2</ele><time>2026-04-07T13:27:08Z</time></trkpt><trkpt lat="44.72831246823061" lon="7.328991837561159"><ele>365.6</ele><time>2026-04-07T13:27:09Z</time></trkpt><trkpt lat="44.72830395933887" lon="7.329098658269976"><ele>365.0</ele><time>2026-04-07T13:27:10Z</time></trkpt><trkpt lat="44.728266788934015" lon="7.329182810887033"><ele>364.4</ele><time>2026-04-07T13:27:11Z</time></trkpt><trkpt lat="44.728199148218756" lon="7.329242919670756"><ele>363.8</ele><time>2026-04-07T13:27:12Z</time></trkpt><trkpt lat="44.72810638803219" lon="7.329269669662302"><ele>363.20000000000005</ele><time>2026-04-07T13:27:13Z</time></trkpt><trkpt lat="44.72799975511858" lon="7.329284799873114"><ele>362.6</ele><time>2026-04-07T13:27:14Z</time></trkpt><trkpt lat="44.72789009910682" lon="7.329314493330874"><ele>362.0</ele><time>2026-04-07T13:27:15Z</time></trkpt><trkpt lat="44.72777287748053" lon="7.3293562225825735"><ele>361.5</ele><time>2026-04-07T13:27:16Z</time></trkpt><trkpt lat="44.72764210292382" lon="7.3293935586419705"><ele>361.0</ele><time>2026-04-07T13:27:17Z</time></trkpt><trkpt lat="44.72750151379742" lon="7.32943300974706"><ele>360.5</ele><time>2026-04-07T13:27:18Z</time></trkpt><trkpt lat="44.72738208708791" lon="7.329467608938795"><ele>360.0</ele><time>2026-04-07T13:27:19Z</time></trkpt><trkpt lat="44.727258030043785" lon="7.329500981951559"><ele>360.0</ele><time>2026-04-07T13:27:20Z</time></trkpt><trkpt lat="44.72713094510393" lon="7.329531128230463"><ele>360.0</ele><time>2026-04-07T13:27:21Z</time></trkpt><trkpt lat="44.727011124036544" lon="7.329561660583197"><ele>360.0</ele><time>2026-04-07T13:27:22Z</time></trkpt><trkpt lat="44.72690070616733" lon="7.3295915236062275"><ele>360.0</ele><time>2026-04-07T13:27:23Z</time></trkpt><trkpt lat="44.72679380178199" lon="7.32962048162378"><ele>360.0</ele><time>2026-04-07T13:27:24Z</time></trkpt><trkpt lat="44.726694286035965" lon="7.329649410406328"><ele>360.0</ele><time>2026-04-07T13:27:25Z</time></trkpt><trkpt lat="44.72659909759249" lon="7.329676286193857"><ele>360.0</ele><time>2026-04-07T13:27:26Z</time></trkpt><trkpt lat="44.7265093992611" lon="7.329706484821429"><ele>360.0</ele><time>2026-04-07T13:27:27Z</time></trkpt><trkpt lat="44.72643588541606" lon="7.329763010594962"><ele>360.0</ele><time>2026-04-07T13:27:28Z</time></trkpt><trkpt lat="44.72640412625674" lon="7.3298696960923895"><ele>359.5</ele><time>2026-04-07T13:27:29Z</time></trkpt><trkpt lat="44.726404081772095" lon="7.329999901862148"><ele>359.0</ele><time>2026-04-07T13:27:30Z</time></trkpt><trkpt lat="44.72643209717992" lon="7.330147047091024"><ele>358.5</ele><time>2026-04-07T13:27:31Z</time></trkpt><trkpt lat="44.726467211189465" lon="7.330313052232369"><ele>358.0</ele><time>2026-04-07T13:27:32Z</time></trkpt><trkpt lat="44.72650135773884" lon="7.330502253406024"><ele>357.25</ele><time>2026-04-07T13:27:33Z</time></trkpt><trkpt lat="44.726539376467336" lon="7.330691121080987"><ele>356.5</ele><time>2026-04-07T13:27:34Z</time></trkpt><trkpt lat="44.72657469991575" lon="7.330858987881368"><ele>355.75</ele><time>2026-04-07T13:27:35Z</time></trkpt><trkpt lat="44.7266079638376" lon="7.33101957054574"><ele>355.0</ele><time>2026-04-07T13:27:36Z</time></trkpt><trkpt lat="44.72665357171001" lon="7.331182184675891"><ele>355.0</ele><time>2026-04-07T13:27:37Z</time></trkpt><trkpt lat="44.726696326796166" lon="7.3313494266415695"><ele>355.0</ele><time>2026-04-07T13:27:38Z</time></trkpt><trkpt lat="44.72674416894966" lon="7.331520079241902"><ele>355.0</ele><time>2026-04-07T13:27:39Z</time></trkpt><trkpt lat="44.726789261270476" lon="7.331698612928114"><ele>355.0</ele><time>2026-04-07T13:27:40Z</time></trkpt><trkpt lat="44.72682598491631" lon="7.331871098902392"><ele>354.0</ele><time>2026-04-07T13:27:41Z</time></trkpt><trkpt lat="44.726863138219855" lon="7.332032284279163"><ele>353.0</ele><time>2026-04-07T13:27:42Z</time></trkpt><trkpt lat="44.72689901715971" lon="7.332196098805338"><ele>352.0</ele><time>2026-04-07T13:27:43Z</time></trkpt><trkpt lat="44.726943211939926" lon="7.3323487165588"><ele>351.0</ele><time>2026-04-07T13:27:44Z</time></trkpt><trkpt lat="44.72698877121432" lon="7.332504400854295"><ele>350.8</ele><time>2026-04-07T13:27:45Z</time></trkpt><trkpt lat="44.72704028104083" lon="7.3326457326571"><ele>350.6</ele><time>2026-04-07T13:27:46Z</time></trkpt><trkpt lat="44.72707558338966" lon="7.332785071078541"><ele>350.4</ele><time>2026-04-07T13:27:47Z</time></trkpt><trkpt lat="44.727140355596184" lon="7.332895654760561"><ele>350.2</ele><time>2026-04-07T13:27:48Z</time></trkpt><trkpt lat="44.72718634121231" lon="7.333007819063214"><ele>350.0</ele><time>2026-04-07T13:27:49Z</time></trkpt><trkpt lat="44.72723062367051" lon="7.333119577410831"><ele>349.5</ele><time>2026-04-07T13:27:50Z</time></trkpt><trkpt lat="44.72727423966326" lon="7.333226294197056"><ele>349.0</ele><time>2026-04-07T13:27:51Z</time></trkpt><trkpt lat="44.727318102866974" lon="7.333331226375619"><ele>348.5</ele><time>2026-04-07T13:27:52Z</time></trkpt><trkpt lat="44.727362291876446" lon="7.333432480012626"><ele>348.0</ele><time>2026-04-07T13:27:53Z</time></trkpt><trkpt lat="44.72741000886968" lon="7.333532597367437"><ele>347.5</ele><time>2026-04-07T13:27:54Z</time></trkpt><trkpt lat="44.727455470651726" lon="7.333626271111093"><ele>347.0</ele><time>2026-04-07T13:27:55Z</time></trkpt><trkpt lat="44.727499304404354" lon="7.333717674883666"><ele>347.0</ele><time>2026-04-07T13:27:56Z</time></trkpt><trkpt lat="44.72754394720594" lon="7.333814349486079"><ele>347.0</ele><time>2026-04-07T13:27:57Z</time></trkpt><trkpt lat="44.727586964494165" lon="7.333918847190205"><ele>347.0</ele><time>2026-04-07T13:27:58Z</time></trkpt><trkpt lat="44.727634339410386" lon="7.334023933566249"><ele>347.0</ele><time>2026-04-07T13:27:59Z</time></trkpt><trkpt lat="44.72768531486729" lon="7.334133841818998"><ele>347.0</ele><time>2026-04-07T13:28:00Z</time></trkpt><trkpt lat="44.72773671462179" lon="7.334239152355621"><ele>347.0</ele><time>2026-04-07T13:28:01Z</time></trkpt><trkpt lat="44.727781158800674" lon="7.334347058535436"><ele>347.0</ele><time>2026-04-07T13:28:02Z</time></trkpt><trkpt lat="44.72782896681416" lon="7.334456418877109"><ele>347.0</ele><time>2026-04-07T13:28:03Z</time></trkpt><trkpt lat="44.72787771279947" lon="7.334563362744913"><ele>347.0</ele><time>2026-04-07T13:28:03.999Z</time></trkpt><trkpt lat="44.727928347264346" lon="7.334675430351085"><ele>347.0</ele><time>2026-04-07T13:28:04.999Z</time></trkpt><trkpt lat="44.727978677911395" lon="7.334792518237401"><ele>347.0</ele><time>2026-04-07T13:28:05.999Z</time></trkpt><trkpt lat="44.72804160185296" lon="7.33491177345562"><ele>346.25</ele><time>2026-04-07T13:28:06.999Z</time></trkpt><trkpt lat="44.72810658022046" lon="7.335045963393849"><ele>345.5</ele><time>2026-04-07T13:28:07.999Z</time></trkpt><trkpt lat="44.72817537114588" lon="7.335190764563775"><ele>344.75</ele><time>2026-04-07T13:28:08.999Z</time></trkpt><trkpt lat="44.728246945553664" lon="7.3353319384876965"><ele>344.0</ele><time>2026-04-07T13:28:09.999Z</time></trkpt><trkpt lat="44.72831841978468" lon="7.3354816245899634"><ele>343.75</ele><time>2026-04-07T13:28:10.999Z</time></trkpt><trkpt lat="44.7283891475786" lon="7.33563621397672"><ele>343.5</ele><time>2026-04-07T13:28:11.999Z</time></trkpt><trkpt lat="44.72845892228056" lon="7.3357941825395825"><ele>343.25</ele><time>2026-04-07T13:28:12.999Z</time></trkpt><trkpt lat="44.72852571387597" lon="7.335947776055245"><ele>343.0</ele><time>2026-04-07T13:28:13.999Z</time></trkpt><trkpt lat="44.728586950754014" lon="7.336102454385627"><ele>343.0</ele><time>2026-04-07T13:28:14.999Z</time></trkpt><trkpt lat="44.72864636865347" lon="7.33626835624703"><ele>343.0</ele><time>2026-04-07T13:28:15.999Z</time></trkpt><trkpt lat="44.72870351958738" lon="7.33643450292489"><ele>343.0</ele><time>2026-04-07T13:28:16.999Z</time></trkpt><trkpt lat="44.728762833655544" lon="7.336607083938769"><ele>343.0</ele><time>2026-04-07T13:28:17.999Z</time></trkpt><trkpt lat="44.72883236843049" lon="7.336761561518379"><ele>342.25</ele><time>2026-04-07T13:28:18.999Z</time></trkpt><trkpt lat="44.728894119329766" lon="7.336904176894233"><ele>341.5</ele><time>2026-04-07T13:28:19.999Z</time></trkpt><trkpt lat="44.72894094264664" lon="7.337047837569753"><ele>340.75</ele><time>2026-04-07T13:28:20.999Z</time></trkpt><trkpt lat="44.729000360082196" lon="7.337199772234672"><ele>340.0</ele><time>2026-04-07T13:28:21.999Z</time></trkpt><trkpt lat="44.72906447037506" lon="7.337349423184009"><ele>339.4</ele><time>2026-04-07T13:28:22.999Z</time></trkpt><trkpt lat="44.729123521577996" lon="7.33751166008312"><ele>338.8</ele><time>2026-04-07T13:28:23.999Z</time></trkpt><trkpt lat="44.72917888603919" lon="7.337669837287959"><ele>338.20000000000005</ele><time>2026-04-07T13:28:24.999Z</time></trkpt><trkpt lat="44.72922838993708" lon="7.337801566461687"><ele>337.6</ele><time>2026-04-07T13:28:25.999Z</time></trkpt><trkpt lat="44.72927264379734" lon="7.337907539638005"><ele>337.0</ele><time>2026-04-07T13:28:26.999Z</time></trkpt><trkpt lat="44.729316490849804" lon="7.338010398827754"><ele>336.66666666666663</ele><time>2026-04-07T13:28:27.999Z</time></trkpt><trkpt lat="44.729358755851614" lon="7.338108977733864"><ele>336.3333333333333</ele><time>2026-04-07T13:28:28.999Z</time></trkpt><trkpt lat="44.72939506818581" lon="7.338201405187394"><ele>336.0</ele><time>2026-04-07T13:28:29.999Z</time></trkpt><trkpt lat="44.72943256266126" lon="7.338274724786722"><ele>335.6666666666667</ele><time>2026-04-07T13:28:30.999Z</time></trkpt><trkpt lat="44.72946976004498" lon="7.33840249926006"><ele>335.33333333333337</ele><time>2026-04-07T13:28:32.999Z</time></trkpt><trkpt lat="44.72950586135881" lon="7.338495414025695"><ele>335.0</ele><time>2026-04-07T13:28:34.999Z</time></trkpt><trkpt lat="44.72955602907554" lon="7.3385726365392205"><ele>335.0</ele><time>2026-04-07T13:28:37.999Z</time></trkpt><trkpt lat="44.72957902892354" lon="7.3386836871701515"><ele>335.0</ele><time>2026-04-07T13:28:41.999Z</time></trkpt><trkpt lat="44.729615099909424" lon="7.338776504244774"><ele>335.0</ele><time>2026-04-07T13:28:44.999Z</time></trkpt><trkpt lat="44.72975218811632" lon="7.338639670398449"><ele>335.0</ele><time>2026-04-07T13:29:39Z</time></trkpt><trkpt lat="44.72966099988948" lon="7.338449347188092"><ele>335.0</ele><time>2026-04-07T13:33:47Z</time></trkpt><trkpt lat="44.72961606887828" lon="7.338386162199495"><ele>335.0</ele><time>2026-04-07T13:33:48Z</time></trkpt><trkpt lat="44.72955021571701" lon="7.33832797312159"><ele>335.0</ele><time>2026-04-07T13:33:50Z</time></trkpt><trkpt lat="44.729472194288896" lon="7.338262941243235"><ele>335.0</ele><time>2026-04-07T13:33:52Z</time></trkpt><trkpt lat="44.729425100525376" lon="7.3381727054643555"><ele>335.0</ele><time>2026-04-07T13:33:53Z</time></trkpt><trkpt lat="44.729396932691934" lon="7.338061725610588"><ele>335.0</ele><time>2026-04-07T13:33:54Z</time></trkpt><trkpt lat="44.72934994278026" lon="7.337945886988534"><ele>335.5</ele><time>2026-04-07T13:33:55Z</time></trkpt><trkpt lat="44.72930443997617" lon="7.337813385060416"><ele>336.0</ele><time>2026-04-07T13:33:56Z</time></trkpt><trkpt lat="44.72924308769896" lon="7.3376658224977405"><ele>336.5</ele><time>2026-04-07T13:33:57Z</time></trkpt><trkpt lat="44.72917043354672" lon="7.337489464469155"><ele>337.0</ele><time>2026-04-07T13:33:58Z</time></trkpt><trkpt lat="44.72909991673179" lon="7.337306932928549"><ele>337.75</ele><time>2026-04-07T13:33:59Z</time></trkpt><trkpt lat="44.72903046276319" lon="7.3371323158836566"><ele>338.5</ele><time>2026-04-07T13:34:00Z</time></trkpt><trkpt lat="44.728956972780715" lon="7.336954693457835"><ele>339.25</ele><time>2026-04-07T13:34:01Z</time></trkpt><trkpt lat="44.728890691590536" lon="7.336774168762041"><ele>340.0</ele><time>2026-04-07T13:34:02Z</time></trkpt><trkpt lat="44.72883011592335" lon="7.3366082199419065"><ele>340.0</ele><time>2026-04-07T13:34:03Z</time></trkpt><trkpt lat="44.728772454979186" lon="7.336452773437818"><ele>340.0</ele><time>2026-04-07T13:34:04Z</time></trkpt><trkpt lat="44.72870760197355" lon="7.336290124780767"><ele>340.0</ele><time>2026-04-07T13:34:05Z</time></trkpt><trkpt lat="44.7286362944373" lon="7.336135505186453"><ele>340.0</ele><time>2026-04-07T13:34:06Z</time></trkpt><trkpt lat="44.728568868086015" lon="7.335968858184232"><ele>340.75</ele><time>2026-04-07T13:34:07Z</time></trkpt><trkpt lat="44.72850611500901" lon="7.335802038504242"><ele>341.5</ele><time>2026-04-07T13:34:08Z</time></trkpt><trkpt lat="44.72844147940436" lon="7.335637737771494"><ele>342.25</ele><time>2026-04-07T13:34:09Z</time></trkpt><trkpt lat="44.72837109953214" lon="7.3354796744025945"><ele>343.0</ele><time>2026-04-07T13:34:10Z</time></trkpt><trkpt lat="44.72829896162857" lon="7.335326107315173"><ele>343.25</ele><time>2026-04-07T13:34:11Z</time></trkpt><trkpt lat="44.72822691092982" lon="7.335171080179516"><ele>343.5</ele><time>2026-04-07T13:34:12Z</time></trkpt><trkpt lat="44.728155838125346" lon="7.335019814390107"><ele>343.75</ele><time>2026-04-07T13:34:13Z</time></trkpt><trkpt lat="44.72808779582893" lon="7.334884159355394"><ele>344.0</ele><time>2026-04-07T13:34:14Z</time></trkpt><trkpt lat="44.72802363362797" lon="7.334757666322093"><ele>344.2</ele><time>2026-04-07T13:34:15Z</time></trkpt><trkpt lat="44.72796466085498" lon="7.334628368377516"><ele>344.4</ele><time>2026-04-07T13:34:16Z</time></trkpt><trkpt lat="44.72790617299353" lon="7.334494632158838"><ele>344.6</ele><time>2026-04-07T13:34:17Z</time></trkpt><trkpt lat="44.72784445491138" lon="7.334363487066744"><ele>344.8</ele><time>2026-04-07T13:34:18Z</time></trkpt><trkpt lat="44.727783193245436" lon="7.334229520497378"><ele>345.0</ele><time>2026-04-07T13:34:19Z</time></trkpt><trkpt lat="44.7277188776231" lon="7.3340931266078515"><ele>345.0</ele><time>2026-04-07T13:34:20Z</time></trkpt><trkpt lat="44.72765486356292" lon="7.333948739436208"><ele>345.0</ele><time>2026-04-07T13:34:21Z</time></trkpt><trkpt lat="44.727587734788465" lon="7.333803626231777"><ele>345.0</ele><time>2026-04-07T13:34:21.999Z</time></trkpt><trkpt lat="44.72752437556416" lon="7.333658942876328"><ele>345.0</ele><time>2026-04-07T13:34:22.999Z</time></trkpt><trkpt lat="44.72746076343098" lon="7.333519092503769"><ele>345.5</ele><time>2026-04-07T13:34:23.999Z</time></trkpt><trkpt lat="44.72739410289488" lon="7.333381385175236"><ele>346.0</ele><time>2026-04-07T13:34:24.999Z</time></trkpt><trkpt lat="44.72732644139983" lon="7.333241239048702"><ele>346.5</ele><time>2026-04-07T13:34:25.999Z</time></trkpt><trkpt lat="44.72725885089275" lon="7.3330969682273475"><ele>347.0</ele><time>2026-04-07T13:34:26.999Z</time></trkpt><trkpt lat="44.727198845073566" lon="7.332940979205628"><ele>347.75</ele><time>2026-04-07T13:34:27.999Z</time></trkpt><trkpt lat="44.72714095296342" lon="7.332782104305652"><ele>348.5</ele><time>2026-04-07T13:34:28.999Z</time></trkpt><trkpt lat="44.727083350147055" lon="7.332621154038055"><ele>349.25</ele><time>2026-04-07T13:34:29.999Z</time></trkpt><trkpt lat="44.727028460447514" lon="7.33246823796582"><ele>350.0</ele><time>2026-04-07T13:34:30.999Z</time></trkpt><trkpt lat="44.72697804683787" lon="7.332314590473221"><ele>350.25</ele><time>2026-04-07T13:34:31.999Z</time></trkpt><trkpt lat="44.72693363598228" lon="7.332154096732882"><ele>350.5</ele><time>2026-04-07T13:34:32.999Z</time></trkpt><trkpt lat="44.7268937123367" lon="7.331985637790261"><ele>350.75</ele><time>2026-04-07T13:34:33.999Z</time></trkpt><trkpt lat="44.726858205391984" lon="7.331817507949151"><ele>351.0</ele><time>2026-04-07T13:34:34.999Z</time></trkpt><trkpt lat="44.726819400537956" lon="7.331649660755162"><ele>351.0</ele><time>2026-04-07T13:34:35.999Z</time></trkpt><trkpt lat="44.72677903957973" lon="7.331479974726562"><ele>351.0</ele><time>2026-04-07T13:34:36.999Z</time></trkpt><trkpt lat="44.72673617462692" lon="7.331310121898038"><ele>351.0</ele><time>2026-04-07T13:34:37.999Z</time></trkpt><trkpt lat="44.72668861065533" lon="7.331140531952886"><ele>351.0</ele><time>2026-04-07T13:34:38.999Z</time></trkpt><trkpt lat="44.72664596435842" lon="7.330966514606028"><ele>351.8</ele><time>2026-04-07T13:34:39.999Z</time></trkpt><trkpt lat="44.72662029452672" lon="7.3307948472159"><ele>352.6</ele><time>2026-04-07T13:34:40.999Z</time></trkpt><trkpt lat="44.72658911319044" lon="7.330651277991484"><ele>353.4</ele><time>2026-04-07T13:34:41.999Z</time></trkpt><trkpt lat="44.72656663000243" lon="7.330515322379769"><ele>354.2</ele><time>2026-04-07T13:34:42.999Z</time></trkpt><trkpt lat="44.726539965949065" lon="7.3303910913768835"><ele>355.0</ele><time>2026-04-07T13:34:43.999Z</time></trkpt><trkpt lat="44.72651933411267" lon="7.3302754925998945"><ele>355.5</ele><time>2026-04-07T13:34:44.999Z</time></trkpt><trkpt lat="44.726505702567685" lon="7.330171027545875"><ele>356.0</ele><time>2026-04-07T13:34:45.999Z</time></trkpt><trkpt lat="44.72649250512643" lon="7.330064064423328"><ele>356.5</ele><time>2026-04-07T13:34:46.999Z</time></trkpt><trkpt lat="44.72648579188306" lon="7.329957184651708"><ele>357.0</ele><time>2026-04-07T13:34:47.999Z</time></trkpt><trkpt lat="44.72650511299063" lon="7.329854123046026"><ele>357.5</ele><time>2026-04-07T13:34:48.999Z</time></trkpt><trkpt lat="44.726546074478286" lon="7.329768575338887"><ele>358.0</ele><time>2026-04-07T13:34:49.999Z</time></trkpt><trkpt lat="44.72662341198885" lon="7.329744568008445"><ele>358.5</ele><time>2026-04-07T13:34:50.999Z</time></trkpt><trkpt lat="44.72671182539936" lon="7.329702908470536"><ele>359.0</ele><time>2026-04-07T13:34:51.999Z</time></trkpt><trkpt lat="44.72682345643056" lon="7.329677178444637"><ele>359.5</ele><time>2026-04-07T13:34:52.999Z</time></trkpt><trkpt lat="44.726947725362955" lon="7.329640451440162"><ele>360.0</ele><time>2026-04-07T13:34:53.999Z</time></trkpt><trkpt lat="44.727068192082314" lon="7.329606580712063"><ele>360.0</ele><time>2026-04-07T13:34:54.999Z</time></trkpt><trkpt lat="44.72717513043218" lon="7.32958248602169"><ele>360.0</ele><time>2026-04-07T13:34:55.999Z</time></trkpt><trkpt lat="44.72728767563626" lon="7.329554564757556"><ele>360.0</ele><time>2026-04-07T13:34:56.999Z</time></trkpt><trkpt lat="44.727389259818665" lon="7.329528813336571"><ele>360.0</ele><time>2026-04-07T13:34:57.999Z</time></trkpt><trkpt lat="44.727481734470324" lon="7.329503062008381"><ele>360.0</ele><time>2026-04-07T13:34:58.999Z</time></trkpt><trkpt lat="44.72757578127513" lon="7.3294754219495815"><ele>360.0</ele><time>2026-04-07T13:34:59.999Z</time></trkpt><trkpt lat="44.72767300929499" lon="7.329450199506073"><ele>360.0</ele><time>2026-04-07T13:35:00.999Z</time></trkpt><trkpt lat="44.72777040361249" lon="7.329427759546218"><ele>360.0</ele><time>2026-04-07T13:35:01.999Z</time></trkpt><trkpt lat="44.727871848321" lon="7.32940709203844"><ele>360.0</ele><time>2026-04-07T13:35:02.999Z</time></trkpt><trkpt lat="44.72796842654781" lon="7.329370471978483"><ele>360.0</ele><time>2026-04-07T13:35:03.999Z</time></trkpt><trkpt lat="44.72805645481982" lon="7.329341361054449"><ele>360.3333333333333</ele><time>2026-04-07T13:35:04.999Z</time></trkpt><trkpt lat="44.728132442006334" lon="7.329320292634082"><ele>360.6666666666667</ele><time>2026-04-07T13:35:05.999Z</time></trkpt><trkpt lat="44.72820255008405" lon="7.329308751472262"><ele>361.0</ele><time>2026-04-07T13:35:06.999Z</time></trkpt><trkpt lat="44.728309356985065" lon="7.3293267641985675"><ele>361.33333333333337</ele><time>2026-04-07T13:35:08.999Z</time></trkpt><trkpt lat="44.72841203587167" lon="7.329285779870638"><ele>361.6666666666667</ele><time>2026-04-07T13:35:10.999Z</time></trkpt><trkpt lat="44.72843202298173" lon="7.329200115633246"><ele>362.0</ele><time>2026-04-07T13:35:11.999Z</time></trkpt><trkpt lat="44.72839109065268" lon="7.3290278633244625"><ele>362.0</ele><time>2026-04-07T13:35:13.999Z</time></trkpt><trkpt lat="44.72836290265215" lon="7.3289310542443715"><ele>362.0</ele><time>2026-04-07T13:35:14.999Z</time></trkpt><trkpt lat="44.72834953885214" lon="7.3288113829186825"><ele>362.0</ele><time>2026-04-07T13:35:15.999Z</time></trkpt><trkpt lat="44.72833840248096" lon="7.328675554009082"><ele>362.0</ele><time>2026-04-07T13:35:16.999Z</time></trkpt><trkpt lat="44.72832283585527" lon="7.328537104229429"><ele>362.0</ele><time>2026-04-07T13:35:18Z</time></trkpt><trkpt lat="44.72836239474685" lon="7.328392892057698"><ele>362.6</ele><time>2026-04-07T13:35:19Z</time></trkpt><trkpt lat="44.72834773259137" lon="7.328272059940355"><ele>363.20000000000005</ele><time>2026-04-07T13:35:20Z</time></trkpt><trkpt lat="44.72827703095842" lon="7.328151630205189"><ele>363.8</ele><time>2026-04-07T13:35:21Z</time></trkpt><trkpt lat="44.728265193861446" lon="7.328013713397949"><ele>364.4</ele><time>2026-04-07T13:35:22Z</time></trkpt><trkpt lat="44.72824730821842" lon="7.327868594745807"><ele>365.0</ele><time>2026-04-07T13:35:23Z</time></trkpt><trkpt lat="44.72823039376654" lon="7.327719111737105"><ele>365.6</ele><time>2026-04-07T13:35:24Z</time></trkpt><trkpt lat="44.728214981204914" lon="7.327564801306309"><ele>366.2</ele><time>2026-04-07T13:35:25Z</time></trkpt><trkpt lat="44.728202720411815" lon="7.327423209782383"><ele>366.79999999999995</ele><time>2026-04-07T13:35:26Z</time></trkpt><trkpt lat="44.72818850567167" lon="7.327289221535067"><ele>367.4</ele><time>2026-04-07T13:35:27Z</time></trkpt><trkpt lat="44.728173188327744" lon="7.327159484363343"><ele>368.0</ele><time>2026-04-07T13:35:28Z</time></trkpt><trkpt lat="44.72816289595195" lon="7.327033716003807"><ele>368.5</ele><time>2026-04-07T13:35:29Z</time></trkpt><trkpt lat="44.728151625270186" lon="7.326924774670119"><ele>369.0</ele><time>2026-04-07T13:35:30Z</time></trkpt><trkpt lat="44.72814477938123" lon="7.326829658145145"><ele>369.5</ele><time>2026-04-07T13:35:31Z</time></trkpt><trkpt lat="44.728162735313646" lon="7.326663700235903"><ele>370.0</ele><time>2026-04-07T13:35:33Z</time></trkpt><trkpt lat="44.728143233897434" lon="7.326506846467305"><ele>370.5</ele><time>2026-04-07T13:35:35Z</time></trkpt><trkpt lat="44.72811948974051" lon="7.326423055230364"><ele>371.0</ele><time>2026-04-07T13:35:36Z</time></trkpt><trkpt lat="44.728138011400134" lon="7.326325042887198"><ele>371.33333333333337</ele><time>2026-04-07T13:35:37Z</time></trkpt><trkpt lat="44.7281656311905" lon="7.326215016423038"><ele>371.6666666666667</ele><time>2026-04-07T13:35:38Z</time></trkpt><trkpt lat="44.728168795207544" lon="7.326103725967609"><ele>372.0</ele><time>2026-04-07T13:35:39Z</time></trkpt><trkpt lat="44.728127108679786" lon="7.326004726796826"><ele>372.3333333333333</ele><time>2026-04-07T13:35:40Z</time></trkpt><trkpt lat="44.728056198737015" lon="7.325921084857727"><ele>372.66666666666663</ele><time>2026-04-07T13:35:41Z</time></trkpt><trkpt lat="44.727982343240676" lon="7.3258211837464495"><ele>373.0</ele><time>2026-04-07T13:35:42Z</time></trkpt><trkpt lat="44.727919865755204" lon="7.325712983397805"><ele>373.0</ele><time>2026-04-07T13:35:43Z</time></trkpt><trkpt lat="44.72787684754076" lon="7.325596587040162"><ele>373.0</ele><time>2026-04-07T13:35:44Z</time></trkpt><trkpt lat="44.727847205926196" lon="7.325457480923697"><ele>373.0</ele><time>2026-04-07T13:35:45Z</time></trkpt><trkpt lat="44.72782523277409" lon="7.325290609802714"><ele>373.0</ele><time>2026-04-07T13:35:46Z</time></trkpt><trkpt lat="44.72779097133734" lon="7.325110933168341"><ele>373.0</ele><time>2026-04-07T13:35:47Z</time></trkpt><trkpt lat="44.727748151154586" lon="7.324920996171317"><ele>372.5</ele><time>2026-04-07T13:35:48Z</time></trkpt><trkpt lat="44.72770280163812" lon="7.324714605258285"><ele>372.0</ele><time>2026-04-07T13:35:49Z</time></trkpt><trkpt lat="44.72766011777758" lon="7.324517429807812"><ele>371.5</ele><time>2026-04-07T13:35:50Z</time></trkpt><trkpt lat="44.72761981846265" lon="7.324337470023093"><ele>371.0</ele><time>2026-04-07T13:35:51Z</time></trkpt><trkpt lat="44.72758907569436" lon="7.32414719284624"><ele>371.0</ele><time>2026-04-07T13:35:52Z</time></trkpt><trkpt lat="44.72755373974884" lon="7.3239656842136025"><ele>371.0</ele><time>2026-04-07T13:35:53Z</time></trkpt><trkpt lat="44.727508428420286" lon="7.323788220570806"><ele>371.0</ele><time>2026-04-07T13:35:54Z</time></trkpt><trkpt lat="44.72745692601475" lon="7.323617463444953"><ele>371.0</ele><time>2026-04-07T13:35:55Z</time></trkpt><trkpt lat="44.72739173027093" lon="7.323454096993676"><ele>371.25</ele><time>2026-04-07T13:35:56Z</time></trkpt><trkpt lat="44.72730826830046" lon="7.323304786535481"><ele>371.5</ele><time>2026-04-07T13:35:57Z</time></trkpt><trkpt lat="44.72721447779919" lon="7.323160514768737"><ele>371.75</ele><time>2026-04-07T13:35:58Z</time></trkpt><trkpt lat="44.72712935897091" lon="7.323032546683041"><ele>372.0</ele><time>2026-04-07T13:35:59Z</time></trkpt><trkpt lat="44.727056882293496" lon="7.322909280750818"><ele>372.40000000000003</ele><time>2026-04-07T13:36:00Z</time></trkpt><trkpt lat="44.72698336233487" lon="7.322788825983705"><ele>372.8</ele><time>2026-04-07T13:36:01Z</time></trkpt><trkpt lat="44.726926480057664" lon="7.322665856355402"><ele>373.2</ele><time>2026-04-07T13:36:02Z</time></trkpt><trkpt lat="44.726894164749346" lon="7.322550631223257"><ele>373.6</ele><time>2026-04-07T13:36:03Z</time></trkpt><trkpt lat="44.72685645868759" lon="7.322454645955137"><ele>374.0</ele><time>2026-04-07T13:36:04Z</time></trkpt><trkpt lat="44.72679391312201" lon="7.3223985485740215"><ele>374.79999999999995</ele><time>2026-04-07T13:36:05Z</time></trkpt><trkpt lat="44.72671165185422" lon="7.3223858014198075"><ele>375.59999999999997</ele><time>2026-04-07T13:36:06Z</time></trkpt><trkpt lat="44.72662046768637" lon="7.322412797401717"><ele>376.4</ele><time>2026-04-07T13:36:07Z</time></trkpt><trkpt lat="44.726514527115455" lon="7.322413330464029"><ele>377.2</ele><time>2026-04-07T13:36:08Z</time></trkpt><trkpt lat="44.726408067867325" lon="7.322393674311106"><ele>378.0</ele><time>2026-04-07T13:36:09Z</time></trkpt><trkpt lat="44.72630688198192" lon="7.322372892262172"><ele>378.0</ele><time>2026-04-07T13:36:10Z</time></trkpt><trkpt lat="44.72620625494658" lon="7.322360053605941"><ele>378.0</ele><time>2026-04-07T13:36:11Z</time></trkpt><trkpt lat="44.72609971719012" lon="7.322344124433758"><ele>378.0</ele><time>2026-04-07T13:36:12Z</time></trkpt><trkpt lat="44.72598577980005" lon="7.322326959060378"><ele>378.0</ele><time>2026-04-07T13:36:13Z</time></trkpt><trkpt lat="44.7258808021432" lon="7.3223137885378184"><ele>378.0</ele><time>2026-04-07T13:36:14Z</time></trkpt><trkpt lat="44.725784441215254" lon="7.3223006069624255"><ele>378.2</ele><time>2026-04-07T13:36:15Z</time></trkpt><trkpt lat="44.72568398203963" lon="7.322287983750481"><ele>378.4</ele><time>2026-04-07T13:36:16Z</time></trkpt><trkpt lat="44.72558756641119" lon="7.322269401163624"><ele>378.59999999999997</ele><time>2026-04-07T13:36:17Z</time></trkpt><trkpt lat="44.72548836041871" lon="7.322244205763042"><ele>378.79999999999995</ele><time>2026-04-07T13:36:18Z</time></trkpt><trkpt lat="44.725387726689036" lon="7.322218814284125"><ele>379.0</ele><time>2026-04-07T13:36:19Z</time></trkpt><trkpt lat="44.725280711057465" lon="7.322195671429961"><ele>379.5</ele><time>2026-04-07T13:36:20Z</time></trkpt><trkpt lat="44.725169282209734" lon="7.322179400236958"><ele>380.0</ele><time>2026-04-07T13:36:21Z</time></trkpt><trkpt lat="44.72505362825105" lon="7.322166523464447"><ele>380.5</ele><time>2026-04-07T13:36:22Z</time></trkpt><trkpt lat="44.72493115132848" lon="7.322160527853521"><ele>381.0</ele><time>2026-04-07T13:36:23Z</time></trkpt><trkpt lat="44.724819292717" lon="7.32214466454026"><ele>381.0</ele><time>2026-04-07T13:36:24Z</time></trkpt><trkpt lat="44.72471350458151" lon="7.322129048824148"><ele>381.0</ele><time>2026-04-07T13:36:25Z</time></trkpt><trkpt lat="44.724611118620686" lon="7.322110917648018"><ele>381.0</ele><time>2026-04-07T13:36:26Z</time></trkpt><trkpt lat="44.724507745176524" lon="7.322089428199517"><ele>381.0</ele><time>2026-04-07T13:36:27Z</time></trkpt><trkpt lat="44.724402550776325" lon="7.322079012243394"><ele>381.0</ele><time>2026-04-07T13:36:27.999Z</time></trkpt><trkpt lat="44.7242941773779" lon="7.322064738196468"><ele>380.5</ele><time>2026-04-07T13:36:28.999Z</time></trkpt><trkpt lat="44.72417757509421" lon="7.32205966182736"><ele>380.0</ele><time>2026-04-07T13:36:29.999Z</time></trkpt><trkpt lat="44.72406492532929" lon="7.322037452236306"><ele>379.5</ele><time>2026-04-07T13:36:30.999Z</time></trkpt><trkpt lat="44.7239477829727" lon="7.322014790543908"><ele>379.0</ele><time>2026-04-07T13:36:31.999Z</time></trkpt><trkpt lat="44.723832693268804" lon="7.321988175076992"><ele>379.0</ele><time>2026-04-07T13:36:32.999Z</time></trkpt><trkpt lat="44.72373121006532" lon="7.321967496378111"><ele>379.0</ele><time>2026-04-07T13:36:33.999Z</time></trkpt><trkpt lat="44.723625926682075" lon="7.3219433851463265"><ele>379.0</ele><time>2026-04-07T13:36:34.999Z</time></trkpt><trkpt lat="44.7235153037348" lon="7.321926667543498"><ele>379.0</ele><time>2026-04-07T13:36:35.999Z</time></trkpt><trkpt lat="44.72339776866501" lon="7.321913817616609"><ele>379.0</ele><time>2026-04-07T13:36:36.999Z</time></trkpt><trkpt lat="44.723286384121" lon="7.321883853990464"><ele>379.0</ele><time>2026-04-07T13:36:37.999Z</time></trkpt><trkpt lat="44.72317638200397" lon="7.32184198604318"><ele>379.0</ele><time>2026-04-07T13:36:38.999Z</time></trkpt><trkpt lat="44.723063453184025" lon="7.321791333156679"><ele>379.0</ele><time>2026-04-07T13:36:39.999Z</time></trkpt><trkpt lat="44.7229545542145" lon="7.321733662886672"><ele>379.0</ele><time>2026-04-07T13:36:40.999Z</time></trkpt><trkpt lat="44.72283823955574" lon="7.321666545694132"><ele>378.75</ele><time>2026-04-07T13:36:41.999Z</time></trkpt><trkpt lat="44.722714288599505" lon="7.321597556524565"><ele>378.5</ele><time>2026-04-07T13:36:42.999Z</time></trkpt><trkpt lat="44.72259130689695" lon="7.321529334391387"><ele>378.25</ele><time>2026-04-07T13:36:43.999Z</time></trkpt><trkpt lat="44.7224595847841" lon="7.321465187377494"><ele>378.0</ele><time>2026-04-07T13:36:44.999Z</time></trkpt><trkpt lat="44.72232535864031" lon="7.321395655777076"><ele>378.0</ele><time>2026-04-07T13:36:45.999Z</time></trkpt><trkpt lat="44.72218598443649" lon="7.321333794469881"><ele>378.0</ele><time>2026-04-07T13:36:46.999Z</time></trkpt><trkpt lat="44.722042332230906" lon="7.321282728106627"><ele>378.0</ele><time>2026-04-07T13:36:47.999Z</time></trkpt><trkpt lat="44.721903605536795" lon="7.321243832411313"><ele>378.0</ele><time>2026-04-07T13:36:48.999Z</time></trkpt><trkpt lat="44.72176668294077" lon="7.321223986769972"><ele>378.75</ele><time>2026-04-07T13:36:49.999Z</time></trkpt><trkpt lat="44.72162672816317" lon="7.321207276654595"><ele>379.5</ele><time>2026-04-07T13:36:50.999Z</time></trkpt><trkpt lat="44.72148304403535" lon="7.321208052971315"><ele>380.25</ele><time>2026-04-07T13:36:51.999Z</time></trkpt><trkpt lat="44.721334172523754" lon="7.3212327871681016"><ele>381.0</ele><time>2026-04-07T13:36:52.999Z</time></trkpt><trkpt lat="44.721178378604115" lon="7.321276132287942"><ele>380.3333333333333</ele><time>2026-04-07T13:36:53.999Z</time></trkpt><trkpt lat="44.72102045019001" lon="7.321326404550482"><ele>379.66666666666663</ele><time>2026-04-07T13:36:54.999Z</time></trkpt><trkpt lat="44.720859402019784" lon="7.321392177695198"><ele>379.0</ele><time>2026-04-07T13:36:55.999Z</time></trkpt><trkpt lat="44.720686943602594" lon="7.321490147248558"><ele>379.0</ele><time>2026-04-07T13:36:56.999Z</time></trkpt><trkpt lat="44.7205156580005" lon="7.3215884482467635"><ele>379.0</ele><time>2026-04-07T13:36:57.999Z</time></trkpt><trkpt lat="44.720361238994165" lon="7.321680144053986"><ele>379.0</ele><time>2026-04-07T13:36:58.999Z</time></trkpt><trkpt lat="44.72021562739445" lon="7.3217628986782355"><ele>382.3333333333333</ele><time>2026-04-07T13:36:59.999Z</time></trkpt><trkpt lat="44.72007893254237" lon="7.321829195715177"><ele>385.66666666666663</ele><time>2026-04-07T13:37:00.999Z</time></trkpt><trkpt lat="44.71993303538951" lon="7.321883553404035"><ele>389.0</ele><time>2026-04-07T13:37:01.999Z</time></trkpt><trkpt lat="44.71977255345471" lon="7.32190962041644"><ele>389.0</ele><time>2026-04-07T13:37:02.999Z</time></trkpt><trkpt lat="44.71960744807999" lon="7.321914139587626"><ele>389.0</ele><time>2026-04-07T13:37:03.999Z</time></trkpt><trkpt lat="44.719433574332456" lon="7.321888860196644"><ele>389.0</ele><time>2026-04-07T13:37:04.999Z</time></trkpt><trkpt lat="44.719263005658746" lon="7.321838208918158"><ele>386.0</ele><time>2026-04-07T13:37:05.999Z</time></trkpt><trkpt lat="44.719090308636744" lon="7.3217572384453655"><ele>383.0</ele><time>2026-04-07T13:37:06.999Z</time></trkpt><trkpt lat="44.718907647106086" lon="7.3216397273660085"><ele>380.0</ele><time>2026-04-07T13:37:07.999Z</time></trkpt><trkpt lat="44.71873166923633" lon="7.321514383763171"><ele>380.6666666666667</ele><time>2026-04-07T13:37:08.999Z</time></trkpt><trkpt lat="44.71856296925068" lon="7.321407269696933"><ele>381.3333333333333</ele><time>2026-04-07T13:37:09.999Z</time></trkpt><trkpt lat="44.7183889158952" lon="7.32131281839243"><ele>382.0</ele><time>2026-04-07T13:37:10.999Z</time></trkpt><trkpt lat="44.71820220477678" lon="7.3212513723539185"><ele>382.0</ele><time>2026-04-07T13:37:11.999Z</time></trkpt><trkpt lat="44.71801553000611" lon="7.321216705571057"><ele>382.0</ele><time>2026-04-07T13:37:12.999Z</time></trkpt><trkpt lat="44.71782482481153" lon="7.321207467113319"><ele>382.0</ele><time>2026-04-07T13:37:13.999Z</time></trkpt><trkpt lat="44.717623021123025" lon="7.321200292644294"><ele>381.3333333333333</ele><time>2026-04-07T13:37:14.999Z</time></trkpt><trkpt lat="44.71743849967203" lon="7.321180971883815"><ele>380.6666666666667</ele><time>2026-04-07T13:37:15.999Z</time></trkpt><trkpt lat="44.717263107828224" lon="7.321149208993599"><ele>380.0</ele><time>2026-04-07T13:37:16.999Z</time></trkpt><trkpt lat="44.71708723125695" lon="7.321101121438584"><ele>380.0</ele><time>2026-04-07T13:37:17.999Z</time></trkpt><trkpt lat="44.716909527874044" lon="7.321037807593767"><ele>380.0</ele><time>2026-04-07T13:37:18.999Z</time></trkpt><trkpt lat="44.71673331228325" lon="7.32095956388609"><ele>380.0</ele><time>2026-04-07T13:37:19.999Z</time></trkpt><trkpt lat="44.7165563273166" lon="7.320883600411108"><ele>381.0</ele><time>2026-04-07T13:37:20.999Z</time></trkpt><trkpt lat="44.7163755107848" lon="7.320805510812836"><ele>382.0</ele><time>2026-04-07T13:37:21.999Z</time></trkpt><trkpt lat="44.71621869543552" lon="7.320708193427233"><ele>383.0</ele><time>2026-04-07T13:37:22.999Z</time></trkpt><trkpt lat="44.716082190479824" lon="7.320593903077024"><ele>383.5</ele><time>2026-04-07T13:37:24Z</time></trkpt><trkpt lat="44.71596489148066" lon="7.3204755414134475"><ele>384.0</ele><time>2026-04-07T13:37:25Z</time></trkpt><trkpt lat="44.7158463784669" lon="7.3203407008900445"><ele>384.5</ele><time>2026-04-07T13:37:26Z</time></trkpt><trkpt lat="44.71573919336959" lon="7.320192622263947"><ele>385.0</ele><time>2026-04-07T13:37:27Z</time></trkpt><trkpt lat="44.715647068783" lon="7.3200406460984535"><ele>385.0</ele><time>2026-04-07T13:37:28Z</time></trkpt><trkpt lat="44.71555559107655" lon="7.319861457289306"><ele>385.0</ele><time>2026-04-07T13:37:29Z</time></trkpt><trkpt lat="44.7154695654545" lon="7.319659068279758"><ele>385.0</ele><time>2026-04-07T13:37:30Z</time></trkpt><trkpt lat="44.71538968509263" lon="7.319432595777059"><ele>386.6666666666667</ele><time>2026-04-07T13:37:31Z</time></trkpt><trkpt lat="44.71532046013499" lon="7.319200709481275"><ele>388.33333333333337</ele><time>2026-04-07T13:37:32Z</time></trkpt><trkpt lat="44.71526499640657" lon="7.318990347097443"><ele>390.0</ele><time>2026-04-07T13:37:33Z</time></trkpt><trkpt lat="44.715200467825824" lon="7.318782569463463"><ele>390.33333333333337</ele><time>2026-04-07T13:37:34Z</time></trkpt><trkpt lat="44.715125762070215" lon="7.318580685212505"><ele>390.6666666666667</ele><time>2026-04-07T13:37:35Z</time></trkpt><trkpt lat="44.71503173413177" lon="7.318376913627798"><ele>391.0</ele><time>2026-04-07T13:37:36Z</time></trkpt><trkpt lat="44.714930468082414" lon="7.318171461668062"><ele>391.0</ele><time>2026-04-07T13:37:37Z</time></trkpt><trkpt lat="44.71482006453711" lon="7.317985889382094"><ele>391.0</ele><time>2026-04-07T13:37:38Z</time></trkpt><trkpt lat="44.714731507217934" lon="7.317845223320773"><ele>391.0</ele><time>2026-04-07T13:37:39Z</time></trkpt><trkpt lat="44.71465571872372" lon="7.317734739419989"><ele>391.0</ele><time>2026-04-07T13:37:40Z</time></trkpt><trkpt lat="44.71459011218719" lon="7.317654451206947"><ele>391.0</ele><time>2026-04-07T13:37:41Z</time></trkpt><trkpt lat="44.71452882263984" lon="7.317586809804545"><ele>391.0</ele><time>2026-04-07T13:37:42Z</time></trkpt><trkpt lat="44.714471985817546" lon="7.31754364719146"><ele>391.0</ele><time>2026-04-07T13:37:43Z</time></trkpt><trkpt lat="44.71432788398985" lon="7.317549785489473"><ele>391.0</ele><time>2026-04-07T13:37:45Z</time></trkpt><trkpt lat="44.71424593878002" lon="7.317597138867109"><ele>391.0</ele><time>2026-04-07T13:37:46Z</time></trkpt><trkpt lat="44.714160447017406" lon="7.317642066236382"><ele>391.20000000000005</ele><time>2026-04-07T13:37:47Z</time></trkpt><trkpt lat="44.714061668431945" lon="7.317675833015769"><ele>391.40000000000003</ele><time>2026-04-07T13:37:48Z</time></trkpt><trkpt lat="44.71395422878123" lon="7.317695512249971"><ele>391.6</ele><time>2026-04-07T13:37:49Z</time></trkpt><trkpt lat="44.713839067621194" lon="7.317702508280061"><ele>391.8</ele><time>2026-04-07T13:37:50Z</time></trkpt><trkpt lat="44.71371955816341" lon="7.317730840830824"><ele>392.0</ele><time>2026-04-07T13:37:51Z</time></trkpt><trkpt lat="44.713605244670646" lon="7.31777464235728"><ele>394.75</ele><time>2026-04-07T13:37:52Z</time></trkpt><trkpt lat="44.71350379429998" lon="7.31784687931604"><ele>397.5</ele><time>2026-04-07T13:37:53Z</time></trkpt><trkpt lat="44.71341682630597" lon="7.3179608935842815"><ele>400.25</ele><time>2026-04-07T13:37:54Z</time></trkpt><trkpt lat="44.71334364364152" lon="7.318109231825638"><ele>403.0</ele><time>2026-04-07T13:37:55Z</time></trkpt><trkpt lat="44.713266260761635" lon="7.31826697176096"><ele>403.75</ele><time>2026-04-07T13:37:56Z</time></trkpt><trkpt lat="44.7131824844128" lon="7.3184236042187"><ele>404.5</ele><time>2026-04-07T13:37:57Z</time></trkpt><trkpt lat="44.71310698706323" lon="7.318574313902476"><ele>405.25</ele><time>2026-04-07T13:37:58Z</time></trkpt><trkpt lat="44.713038147131186" lon="7.318688793063539"><ele>406.0</ele><time>2026-04-07T13:37:59Z</time></trkpt><trkpt lat="44.71296160130754" lon="7.318810917105713"><ele>407.75</ele><time>2026-04-07T13:38:00Z</time></trkpt><trkpt lat="44.712878263227665" lon="7.3189311058388515"><ele>409.5</ele><time>2026-04-07T13:38:01Z</time></trkpt><trkpt lat="44.71279630367828" lon="7.319057309775645"><ele>411.25</ele><time>2026-04-07T13:38:02Z</time></trkpt><trkpt lat="44.712704547811185" lon="7.319188385056126"><ele>413.0</ele><time>2026-04-07T13:38:03Z</time></trkpt><trkpt lat="44.71259751700013" lon="7.319312677212297"><ele>415.5</ele><time>2026-04-07T13:38:04Z</time></trkpt><trkpt lat="44.71249391703023" lon="7.319434919945088"><ele>418.0</ele><time>2026-04-07T13:38:05Z</time></trkpt><trkpt lat="44.71240961652491" lon="7.319551437753052"><ele>420.5</ele><time>2026-04-07T13:38:06Z</time></trkpt><trkpt lat="44.712345760835156" lon="7.319701778173064"><ele>423.0</ele><time>2026-04-07T13:38:07Z</time></trkpt><trkpt lat="44.71230748127907" lon="7.31989225423672"><ele>425.33333333333337</ele><time>2026-04-07T13:38:08Z</time></trkpt><trkpt lat="44.712270860384635" lon="7.320109424714262"><ele>427.6666666666667</ele><time>2026-04-07T13:38:09Z</time></trkpt><trkpt lat="44.712232756147564" lon="7.320316698430714"><ele>430.0</ele><time>2026-04-07T13:38:10Z</time></trkpt><trkpt lat="44.71219992928707" lon="7.320506693983456"><ele>431.25</ele><time>2026-04-07T13:38:11Z</time></trkpt><trkpt lat="44.712175476516016" lon="7.320686279963542"><ele>432.5</ele><time>2026-04-07T13:38:12Z</time></trkpt><trkpt lat="44.712151972365014" lon="7.320843472520178"><ele>433.75</ele><time>2026-04-07T13:38:13Z</time></trkpt><trkpt lat="44.712114548565914" lon="7.320993555108626"><ele>435.0</ele><time>2026-04-07T13:38:14Z</time></trkpt><trkpt lat="44.71207284677878" lon="7.321111701180344"><ele>435.00000000000006</ele><time>2026-04-07T13:38:15Z</time></trkpt><trkpt lat="44.712036677657736" lon="7.321198499157329"><ele>435.0</ele><time>2026-04-07T13:38:16Z</time></trkpt><trkpt lat="44.71198644487415" lon="7.321267701208767"><ele>435.0</ele><time>2026-04-07T13:38:17Z</time></trkpt><trkpt lat="44.71192114600672" lon="7.321295824659414"><ele>435.0</ele><time>2026-04-07T13:38:18Z</time></trkpt><trkpt lat="44.71185304380936" lon="7.321263267829677"><ele>435.0</ele><time>2026-04-07T13:38:19Z</time></trkpt><trkpt lat="44.71180678179344" lon="7.3211888461305765"><ele>435.00000000000006</ele><time>2026-04-07T13:38:20Z</time></trkpt><trkpt lat="44.711810350806644" lon="7.321072692978496"><ele>435.0</ele><time>2026-04-07T13:38:21Z</time></trkpt><trkpt lat="44.711799150683724" lon="7.320964105177397"><ele>439.3333333333333</ele><time>2026-04-07T13:38:22Z</time></trkpt><trkpt lat="44.71178334976488" lon="7.320857691624863"><ele>443.66666666666663</ele><time>2026-04-07T13:38:23Z</time></trkpt><trkpt lat="44.71173050566153" lon="7.320793442933335"><ele>448.0</ele><time>2026-04-07T13:38:24Z</time></trkpt><trkpt lat="44.71165940328791" lon="7.320776688751193"><ele>452.3333333333333</ele><time>2026-04-07T13:38:25Z</time></trkpt><trkpt lat="44.71160080509814" lon="7.320819533408094"><ele>456.66666666666663</ele><time>2026-04-07T13:38:26Z</time></trkpt><trkpt lat="44.711558411396965" lon="7.320908454612675"><ele>461.0</ele><time>2026-04-07T13:38:27Z</time></trkpt><trkpt lat="44.71153851521619" lon="7.32104659918651"><ele>461.0</ele><time>2026-04-07T13:38:28Z</time></trkpt><trkpt lat="44.711505136567624" lon="7.321203711323559"><ele>461.0</ele><time>2026-04-07T13:38:29Z</time></trkpt><trkpt lat="44.71146406479" lon="7.321361210477019"><ele>461.0</ele><time>2026-04-07T13:38:30Z</time></trkpt><trkpt lat="44.71143941035783" lon="7.321502843085833"><ele>461.0</ele><time>2026-04-07T13:38:30.999Z</time></trkpt><trkpt lat="44.711418831951526" lon="7.321661096332451"><ele>461.0</ele><time>2026-04-07T13:38:31.999Z</time></trkpt><trkpt lat="44.71143298209843" lon="7.321792118318766"><ele>461.0</ele><time>2026-04-07T13:38:32.999Z</time></trkpt><trkpt lat="44.71147023116097" lon="7.32194961096924"><ele>461.0</ele><time>2026-04-07T13:38:33.999Z</time></trkpt><trkpt lat="44.71155197013325" lon="7.322097761316489"><ele>461.0</ele><time>2026-04-07T13:38:34.999Z</time></trkpt><trkpt lat="44.71161193011146" lon="7.322264170569124"><ele>463.0</ele><time>2026-04-07T13:38:35.999Z</time></trkpt><trkpt lat="44.71162523707515" lon="7.322419140358624"><ele>465.0</ele><time>2026-04-07T13:38:36.999Z</time></trkpt><trkpt lat="44.71161945908155" lon="7.322578419935351"><ele>467.0</ele><time>2026-04-07T13:38:37.999Z</time></trkpt><trkpt lat="44.71158475158475" lon="7.322740837651318"><ele>469.0</ele><time>2026-04-07T13:38:38.999Z</time></trkpt><trkpt lat="44.71152832899594" lon="7.322884114076331"><ele>469.0</ele><time>2026-04-07T13:38:39.999Z</time></trkpt><trkpt lat="44.71144270910378" lon="7.323022428924456"><ele>469.0</ele><time>2026-04-07T13:38:40.999Z</time></trkpt><trkpt lat="44.711352131906" lon="7.323160153531304"><ele>469.0</ele><time>2026-04-07T13:38:41.999Z</time></trkpt><trkpt lat="44.711245637610105" lon="7.323284428464488"><ele>469.0</ele><time>2026-04-07T13:38:42.999Z</time></trkpt><trkpt lat="44.711132202151134" lon="7.323405785786095"><ele>473.75</ele><time>2026-04-07T13:38:43.999Z</time></trkpt><trkpt lat="44.71103418476949" lon="7.323544493237607"><ele>478.5</ele><time>2026-04-07T13:38:44.999Z</time></trkpt><trkpt lat="44.71096637469883" lon="7.323733023213128"><ele>483.25</ele><time>2026-04-07T13:38:45.999Z</time></trkpt><trkpt lat="44.7109053619829" lon="7.323929212186289"><ele>488.0</ele><time>2026-04-07T13:38:46.999Z</time></trkpt><trkpt lat="44.71083204516421" lon="7.324101122377363"><ele>488.0</ele><time>2026-04-07T13:38:47.999Z</time></trkpt><trkpt lat="44.71075438143624" lon="7.32423123867381"><ele>488.0</ele><time>2026-04-07T13:38:48.999Z</time></trkpt><trkpt lat="44.710656764990155" lon="7.324342003089533"><ele>488.0</ele><time>2026-04-07T13:38:49.999Z</time></trkpt><trkpt lat="44.71053924045789" lon="7.324401712483904"><ele>488.0</ele><time>2026-04-07T13:38:50.999Z</time></trkpt><trkpt lat="44.71041358487347" lon="7.324441937990829"><ele>488.0</ele><time>2026-04-07T13:38:51.999Z</time></trkpt><trkpt lat="44.710281215821766" lon="7.3244942126011585"><ele>488.0</ele><time>2026-04-07T13:38:52.999Z</time></trkpt><trkpt lat="44.710141598708994" lon="7.324565446463872"><ele>488.0</ele><time>2026-04-07T13:38:53.999Z</time></trkpt><trkpt lat="44.710009061207025" lon="7.3246649259116"><ele>488.0</ele><time>2026-04-07T13:38:54.999Z</time></trkpt><trkpt lat="44.70989378437864" lon="7.324801210542519"><ele>497.0</ele><time>2026-04-07T13:38:55.999Z</time></trkpt><trkpt lat="44.70976690634921" lon="7.3249206931818245"><ele>506.0</ele><time>2026-04-07T13:38:56.999Z</time></trkpt><trkpt lat="44.70961503885539" lon="7.32501516315037"><ele>515.0</ele><time>2026-04-07T13:38:57.999Z</time></trkpt><trkpt lat="44.70947364386644" lon="7.325146061422402"><ele>519.2</ele><time>2026-04-07T13:38:58.999Z</time></trkpt><trkpt lat="44.70936713452404" lon="7.325267352098913"><ele>523.4</ele><time>2026-04-07T13:38:59.999Z</time></trkpt><trkpt lat="44.70928724368739" lon="7.325367456493274"><ele>527.6</ele><time>2026-04-07T13:39:00.999Z</time></trkpt><trkpt lat="44.709238508861894" lon="7.325440033753853"><ele>531.8</ele><time>2026-04-07T13:39:01.999Z</time></trkpt><trkpt lat="44.7091326288152" lon="7.32548238028673"><ele>536.0</ele><time>2026-04-07T13:39:03.999Z</time></trkpt><trkpt lat="44.709088515325654" lon="7.325399772908205"><ele>536.0</ele><time>2026-04-07T13:39:04.999Z</time></trkpt><trkpt lat="44.7091079463986" lon="7.325287125722346"><ele>536.0</ele><time>2026-04-07T13:39:05.999Z</time></trkpt><trkpt lat="44.70916334693275" lon="7.3252067592856775"><ele>536.0</ele><time>2026-04-07T13:39:06.999Z</time></trkpt><trkpt lat="44.709205744730234" lon="7.325082456762841"><ele>536.0</ele><time>2026-04-07T13:39:07.999Z</time></trkpt><trkpt lat="44.709242231017484" lon="7.324930117776352"><ele>536.0</ele><time>2026-04-07T13:39:08.999Z</time></trkpt><trkpt lat="44.7093032220959" lon="7.324763857819414"><ele>538.0</ele><time>2026-04-07T13:39:09.999Z</time></trkpt><trkpt lat="44.70936386802624" lon="7.324598217716776"><ele>540.0</ele><time>2026-04-07T13:39:10.999Z</time></trkpt><trkpt lat="44.70942857362676" lon="7.3244386072958205"><ele>542.0</ele><time>2026-04-07T13:39:11.999Z</time></trkpt><trkpt lat="44.70950185049502" lon="7.324253186556114"><ele>544.0</ele><time>2026-04-07T13:39:12.999Z</time></trkpt><trkpt lat="44.70957337555482" lon="7.324076288951457"><ele>541.2</ele><time>2026-04-07T13:39:13.999Z</time></trkpt><trkpt lat="44.709646973503496" lon="7.323960616874111"><ele>538.4</ele><time>2026-04-07T13:39:14.999Z</time></trkpt><trkpt lat="44.7097235038584" lon="7.323873827038314"><ele>535.6</ele><time>2026-04-07T13:39:15.999Z</time></trkpt><trkpt lat="44.7097877977096" lon="7.3238053531880025"><ele>532.8</ele><time>2026-04-07T13:39:16.999Z</time></trkpt><trkpt lat="44.70981558095567" lon="7.3237247098194445"><ele>530.0</ele><time>2026-04-07T13:39:17.999Z</time></trkpt><trkpt lat="44.709785913921" lon="7.323549285565153"><ele>530.0</ele><time>2026-04-07T13:39:19.999Z</time></trkpt><trkpt lat="44.70967988108564" lon="7.323544027223645"><ele>530.0</ele><time>2026-04-07T13:39:20.999Z</time></trkpt><trkpt lat="44.70959700000709" lon="7.323572374099166"><ele>530.0</ele><time>2026-04-07T13:39:21.999Z</time></trkpt><trkpt lat="44.709511437717524" lon="7.323625310503802"><ele>530.0</ele><time>2026-04-07T13:39:22.999Z</time></trkpt><trkpt lat="44.70940790909839" lon="7.323705930864502"><ele>530.0</ele><time>2026-04-07T13:39:23.999Z</time></trkpt><trkpt lat="44.70929581037727" lon="7.323795912335419"><ele>533.5</ele><time>2026-04-07T13:39:24.999Z</time></trkpt><trkpt lat="44.709173229535146" lon="7.323900674823928"><ele>537.0</ele><time>2026-04-07T13:39:25.999Z</time></trkpt><trkpt lat="44.70907388430124" lon="7.324009497134454"><ele>540.5</ele><time>2026-04-07T13:39:26.999Z</time></trkpt><trkpt lat="44.7089641504278" lon="7.3241157811102715"><ele>544.0</ele><time>2026-04-07T13:39:27.999Z</time></trkpt><trkpt lat="44.70884973710548" lon="7.32423527907297"><ele>544.0</ele><time>2026-04-07T13:39:28.999Z</time></trkpt><trkpt lat="44.708768606325556" lon="7.32437919555669"><ele>544.0</ele><time>2026-04-07T13:39:30Z</time></trkpt><trkpt lat="44.70872948253316" lon="7.3245290153900635"><ele>544.0</ele><time>2026-04-07T13:39:31Z</time></trkpt><trkpt lat="44.70870702378919" lon="7.324642557182333"><ele>544.0</ele><time>2026-04-07T13:39:32Z</time></trkpt><trkpt lat="44.70863221184516" lon="7.324731927064793"><ele>544.0</ele><time>2026-04-07T13:39:34Z</time></trkpt><trkpt lat="44.70855648300441" lon="7.324606791765747"><ele>544.0</ele><time>2026-04-07T13:39:36Z</time></trkpt><trkpt lat="44.708609798058745" lon="7.324479330120082"><ele>544.0</ele><time>2026-04-07T13:39:37Z</time></trkpt><trkpt lat="44.70861302604054" lon="7.324358678151432"><ele>544.0</ele><time>2026-04-07T13:39:38Z</time></trkpt><trkpt lat="44.70862657218596" lon="7.32425407795453"><ele>544.0</ele><time>2026-04-07T13:39:39Z</time></trkpt><trkpt lat="44.708586143844016" lon="7.32416917216406"><ele>544.0</ele><time>2026-04-07T13:39:40Z</time></trkpt><trkpt lat="44.70856833015564" lon="7.324079234541823"><ele>544.0</ele><time>2026-04-07T13:39:41Z</time></trkpt><trkpt lat="44.70842871857128" lon="7.324119098892414"><ele>549.5</ele><time>2026-04-07T13:39:42Z</time></trkpt><trkpt lat="44.7083218030237" lon="7.324164295768167"><ele>555.0</ele><time>2026-04-07T13:39:43Z</time></trkpt><trkpt lat="44.70820324031636" lon="7.324175188383659"><ele>560.5</ele><time>2026-04-07T13:39:44Z</time></trkpt><trkpt lat="44.708064240916094" lon="7.324152495458907"><ele>566.0</ele><time>2026-04-07T13:39:45Z</time></trkpt><trkpt lat="44.70792575745467" lon="7.324111370319326"><ele>566.0</ele><time>2026-04-07T13:39:46Z</time></trkpt><trkpt lat="44.70779402792972" lon="7.32406647675382"><ele>566.0</ele><time>2026-04-07T13:39:47Z</time></trkpt><trkpt lat="44.70766275078932" lon="7.324064480350177"><ele>566.0</ele><time>2026-04-07T13:39:48Z</time></trkpt><trkpt lat="44.70755094754406" lon="7.324112236585037"><ele>566.0</ele><time>2026-04-07T13:39:49Z</time></trkpt><trkpt lat="44.70745017787411" lon="7.324204153946525"><ele>571.0</ele><time>2026-04-07T13:39:50Z</time></trkpt><trkpt lat="44.70737174949161" lon="7.324322696096633"><ele>576.0</ele><time>2026-04-07T13:39:51Z</time></trkpt><trkpt lat="44.70731756051287" lon="7.324478018925826"><ele>581.0</ele><time>2026-04-07T13:39:52Z</time></trkpt><trkpt lat="44.7072930656344" lon="7.324653815586872"><ele>586.0</ele><time>2026-04-07T13:39:53Z</time></trkpt><trkpt lat="44.707319176228445" lon="7.324836306262998"><ele>586.8</ele><time>2026-04-07T13:39:54Z</time></trkpt><trkpt lat="44.707363653225855" lon="7.324996247336536"><ele>587.6</ele><time>2026-04-07T13:39:55Z</time></trkpt><trkpt lat="44.70737325698512" lon="7.325118759742192"><ele>588.4</ele><time>2026-04-07T13:39:56Z</time></trkpt><trkpt lat="44.70736836574112" lon="7.325244778086204"><ele>589.2</ele><time>2026-04-07T13:39:58Z</time></trkpt><trkpt lat="44.707282304141025" lon="7.325279864848014"><ele>590.0</ele><time>2026-04-07T13:40:00Z</time></trkpt><trkpt lat="44.7072433701597" lon="7.325169180666071"><ele>590.0</ele><time>2026-04-07T13:40:01Z</time></trkpt><trkpt lat="44.707187004691704" lon="7.325068907940255"><ele>590.0</ele><time>2026-04-07T13:40:02Z</time></trkpt><trkpt lat="44.707139281863356" lon="7.324935689160804"><ele>590.0</ele><time>2026-04-07T13:40:03Z</time></trkpt><trkpt lat="44.70704562241845" lon="7.324798086248958"><ele>590.0</ele><time>2026-04-07T13:40:04Z</time></trkpt><trkpt lat="44.7069616781079" lon="7.324694671070062"><ele>590.0</ele><time>2026-04-07T13:40:05Z</time></trkpt><trkpt lat="44.70687588302385" lon="7.324660951754687"><ele>592.0</ele><time>2026-04-07T13:40:06Z</time></trkpt><trkpt lat="44.70676110374837" lon="7.324683655241911"><ele>594.0</ele><time>2026-04-07T13:40:07Z</time></trkpt><trkpt lat="44.70664361486246" lon="7.3247388419926445"><ele>596.0</ele><time>2026-04-07T13:40:08Z</time></trkpt><trkpt lat="44.70651673123896" lon="7.324819258342331"><ele>598.0</ele><time>2026-04-07T13:40:09Z</time></trkpt><trkpt lat="44.706403240547715" lon="7.324899039347073"><ele>603.0</ele><time>2026-04-07T13:40:10Z</time></trkpt><trkpt lat="44.706264675198746" lon="7.324975222812954"><ele>608.0</ele><time>2026-04-07T13:40:11Z</time></trkpt><trkpt lat="44.70610959772557" lon="7.325018998455982"><ele>613.0</ele><time>2026-04-07T13:40:12Z</time></trkpt><trkpt lat="44.70595534725527" lon="7.325004031282109"><ele>614.6</ele><time>2026-04-07T13:40:13Z</time></trkpt><trkpt lat="44.70584195176291" lon="7.324997503708551"><ele>616.1999999999999</ele><time>2026-04-07T13:40:14Z</time></trkpt><trkpt lat="44.705750024072216" lon="7.325027340246762"><ele>617.8</ele><time>2026-04-07T13:40:15Z</time></trkpt><trkpt lat="44.70565683094499" lon="7.325123076607748"><ele>619.4</ele><time>2026-04-07T13:40:17Z</time></trkpt><trkpt lat="44.70566794803032" lon="7.325219665557396"><ele>621.0</ele><time>2026-04-07T13:40:18Z</time></trkpt><trkpt lat="44.70570963135182" lon="7.325310129692715"><ele>621.0</ele><time>2026-04-07T13:40:19Z</time></trkpt><trkpt lat="44.7058089385908" lon="7.3252917369869275"><ele>621.0</ele><time>2026-04-07T13:40:20Z</time></trkpt><trkpt lat="44.70590795494151" lon="7.325269668984326"><ele>621.0</ele><time>2026-04-07T13:40:21Z</time></trkpt><trkpt lat="44.70602076766531" lon="7.325322074341661"><ele>621.0</ele><time>2026-04-07T13:40:22Z</time></trkpt><trkpt lat="44.70613279925085" lon="7.3254143511807035"><ele>621.0</ele><time>2026-04-07T13:40:23Z</time></trkpt><trkpt lat="44.70626091086899" lon="7.3255169914642755"><ele>624.4</ele><time>2026-04-07T13:40:24Z</time></trkpt><trkpt lat="44.70638319110351" lon="7.325624520461283"><ele>627.8</ele><time>2026-04-07T13:40:25Z</time></trkpt><trkpt lat="44.70647659234792" lon="7.325715173026613"><ele>631.1999999999999</ele><time>2026-04-07T13:40:26Z</time></trkpt><trkpt lat="44.706556123817364" lon="7.325769954134399"><ele>634.6</ele><time>2026-04-07T13:40:27Z</time></trkpt><trkpt lat="44.70661385145373" lon="7.325836866385691"><ele>638.0</ele><time>2026-04-07T13:40:28Z</time></trkpt><trkpt lat="44.70659328709635" lon="7.325954722198115"><ele>638.0</ele><time>2026-04-07T13:40:30Z</time></trkpt><trkpt lat="44.7065219848922" lon="7.325981714627152"><ele>638.0</ele><time>2026-04-07T13:40:31Z</time></trkpt><trkpt lat="44.70643742166108" lon="7.3258967620627"><ele>638.0</ele><time>2026-04-07T13:40:32Z</time></trkpt><trkpt lat="44.706339481854414" lon="7.325825640815086"><ele>638.0</ele><time>2026-04-07T13:40:33Z</time></trkpt><trkpt lat="44.706220714685465" lon="7.325743851054187"><ele>638.0</ele><time>2026-04-07T13:40:34Z</time></trkpt><trkpt lat="44.70609097141937" lon="7.325698461785833"><ele>641.5</ele><time>2026-04-07T13:40:35Z</time></trkpt><trkpt lat="44.70595998928868" lon="7.3256574736024955"><ele>645.0</ele><time>2026-04-07T13:40:36Z</time></trkpt><trkpt lat="44.705842147674375" lon="7.325665580634092"><ele>648.5</ele><time>2026-04-07T13:40:37Z</time></trkpt><trkpt lat="44.70572431888042" lon="7.325720284395527"><ele>652.0</ele><time>2026-04-07T13:40:37.999Z</time></trkpt><trkpt lat="44.705605971173455" lon="7.325801344488251"><ele>652.0</ele><time>2026-04-07T13:40:38.999Z</time></trkpt><trkpt lat="44.70550744686635" lon="7.325821661634428"><ele>652.0</ele><time>2026-04-07T13:40:39.999Z</time></trkpt><trkpt lat="44.705419646156" lon="7.325783077858374"><ele>652.0</ele><time>2026-04-07T13:40:40.999Z</time></trkpt><trkpt lat="44.705364432733596" lon="7.325652156978033"><ele>652.0</ele><time>2026-04-07T13:40:41.999Z</time></trkpt><trkpt lat="44.70529473341468" lon="7.3255207095942"><ele>652.0</ele><time>2026-04-07T13:40:42.999Z</time></trkpt><trkpt lat="44.70521046421568" lon="7.32543191835737"><ele>652.25</ele><time>2026-04-07T13:40:43.999Z</time></trkpt><trkpt lat="44.705084347379135" lon="7.325401074058393"><ele>652.5</ele><time>2026-04-07T13:40:44.999Z</time></trkpt><trkpt lat="44.70494749685244" lon="7.325383402882531"><ele>652.75</ele><time>2026-04-07T13:40:45.999Z</time></trkpt><trkpt lat="44.704805653237415" lon="7.325331518883637"><ele>653.0</ele><time>2026-04-07T13:40:46.999Z</time></trkpt><trkpt lat="44.704670305886026" lon="7.325252340371965"><ele>653.0</ele><time>2026-04-07T13:40:47.999Z</time></trkpt><trkpt lat="44.70456602840394" lon="7.325192116068656"><ele>653.0</ele><time>2026-04-07T13:40:48.999Z</time></trkpt><trkpt lat="44.70450004186018" lon="7.325113576222414"><ele>653.0</ele><time>2026-04-07T13:40:49.999Z</time></trkpt><trkpt lat="44.70445672850882" lon="7.324997928806657"><ele>653.0</ele><time>2026-04-07T13:40:50.999Z</time></trkpt><trkpt lat="44.704461502783666" lon="7.324841864236129"><ele>653.0</ele><time>2026-04-07T13:40:51.999Z</time></trkpt><trkpt lat="44.70449044942697" lon="7.324677726534412"><ele>653.0</ele><time>2026-04-07T13:40:52.999Z</time></trkpt><trkpt lat="44.70449009443622" lon="7.324552834511494"><ele>653.0</ele><time>2026-04-07T13:40:53.999Z</time></trkpt><trkpt lat="44.70440043353521" lon="7.324440872467022"><ele>653.0</ele><time>2026-04-07T13:40:55.999Z</time></trkpt><trkpt lat="44.70432188805395" lon="7.324491569434838"><ele>653.0</ele><time>2026-04-07T13:40:56.999Z</time></trkpt><trkpt lat="44.70428224691755" lon="7.324619008201642"><ele>653.0</ele><time>2026-04-07T13:40:57.999Z</time></trkpt><trkpt lat="44.70424686156671" lon="7.324753647671472"><ele>657.0</ele><time>2026-04-07T13:40:58.999Z</time></trkpt><trkpt lat="44.704205951318045" lon="7.3249062882473615"><ele>661.0</ele><time>2026-04-07T13:40:59.999Z</time></trkpt><trkpt lat="44.7041681466562" lon="7.325083067217381"><ele>665.0</ele><time>2026-04-07T13:41:00.999Z</time></trkpt><trkpt lat="44.70413179015179" lon="7.325270592456463"><ele>669.0</ele><time>2026-04-07T13:41:01.999Z</time></trkpt><trkpt lat="44.70409258192864" lon="7.32545772520242"><ele>676.5</ele><time>2026-04-07T13:41:02.999Z</time></trkpt><trkpt lat="44.70402395685421" lon="7.325596154575839"><ele>684.0</ele><time>2026-04-07T13:41:03.999Z</time></trkpt><trkpt lat="44.70393324591627" lon="7.325673742374873"><ele>691.5</ele><time>2026-04-07T13:41:04.999Z</time></trkpt><trkpt lat="44.70382083428842" lon="7.3257076485114805"><ele>699.0</ele><time>2026-04-07T13:41:05.999Z</time></trkpt><trkpt lat="44.70370081005807" lon="7.325689347570333"><ele>699.0</ele><time>2026-04-07T13:41:06.999Z</time></trkpt><trkpt lat="44.70359571841308" lon="7.325662466587095"><ele>699.0</ele><time>2026-04-07T13:41:07.999Z</time></trkpt><trkpt lat="44.70350710042781" lon="7.325683871985543"><ele>699.0</ele><time>2026-04-07T13:41:08.999Z</time></trkpt><trkpt lat="44.70341842281066" lon="7.32576366583992"><ele>699.0</ele><time>2026-04-07T13:41:09.999Z</time></trkpt><trkpt lat="44.70334005999209" lon="7.32589516592338"><ele>699.0</ele><time>2026-04-07T13:41:10.999Z</time></trkpt><trkpt lat="44.70326964814454" lon="7.326064394768936"><ele>701.25</ele><time>2026-04-07T13:41:11.999Z</time></trkpt><trkpt lat="44.703193455531476" lon="7.326249953421963"><ele>703.5</ele><time>2026-04-07T13:41:12.999Z</time></trkpt><trkpt lat="44.703097415945614" lon="7.326401954429961"><ele>705.75</ele><time>2026-04-07T13:41:13.999Z</time></trkpt><trkpt lat="44.70301611819409" lon="7.32652040640722"><ele>708.0</ele><time>2026-04-07T13:41:14.999Z</time></trkpt><trkpt lat="44.70291195809978" lon="7.326557243671281"><ele>708.0</ele><time>2026-04-07T13:41:15.999Z</time></trkpt><trkpt lat="44.70281724475684" lon="7.326608203652864"><ele>708.0</ele><time>2026-04-07T13:41:16.999Z</time></trkpt><trkpt lat="44.70273737293334" lon="7.3266671925454085"><ele>708.0</ele><time>2026-04-07T13:41:17.999Z</time></trkpt><trkpt lat="44.702690222417736" lon="7.326791121585183"><ele>708.0</ele><time>2026-04-07T13:41:18.999Z</time></trkpt><trkpt lat="44.70269666689455" lon="7.326961287867367"><ele>708.0</ele><time>2026-04-07T13:41:19.999Z</time></trkpt><trkpt lat="44.702724579003764" lon="7.327149971777374"><ele>706.0</ele><time>2026-04-07T13:41:20.999Z</time></trkpt><trkpt lat="44.70272352995536" lon="7.327352405828209"><ele>704.0</ele><time>2026-04-07T13:41:21.999Z</time></trkpt><trkpt lat="44.70275843905755" lon="7.327568071404844"><ele>702.0</ele><time>2026-04-07T13:41:22.999Z</time></trkpt><trkpt lat="44.70281798753302" lon="7.327792091698192"><ele>707.75</ele><time>2026-04-07T13:41:23.999Z</time></trkpt><trkpt lat="44.702872771236486" lon="7.327990249968255"><ele>713.5</ele><time>2026-04-07T13:41:24.999Z</time></trkpt><trkpt lat="44.70290555146796" lon="7.328139687400196"><ele>719.25</ele><time>2026-04-07T13:41:25.999Z</time></trkpt><trkpt lat="44.70291640562034" lon="7.328285607566692"><ele>725.0</ele><time>2026-04-07T13:41:26.999Z</time></trkpt><trkpt lat="44.702849531483984" lon="7.328398784496818"><ele>725.0</ele><time>2026-04-07T13:41:27.999Z</time></trkpt><trkpt lat="44.70275383522472" lon="7.328486072135861"><ele>725.0</ele><time>2026-04-07T13:41:28.999Z</time></trkpt><trkpt lat="44.70264110225179" lon="7.328593000079994"><ele>725.0</ele><time>2026-04-07T13:41:29.999Z</time></trkpt><trkpt lat="44.70253016075886" lon="7.328748392633722"><ele>725.0</ele><time>2026-04-07T13:41:30.999Z</time></trkpt><trkpt lat="44.702420542424704" lon="7.328913304507609"><ele>723.6666666666666</ele><time>2026-04-07T13:41:31.999Z</time></trkpt><trkpt lat="44.702305654829495" lon="7.329093878754567"><ele>722.3333333333334</ele><time>2026-04-07T13:41:32.999Z</time></trkpt><trkpt lat="44.70219619522149" lon="7.329272276907056"><ele>721.0</ele><time>2026-04-07T13:41:33.999Z</time></trkpt><trkpt lat="44.70210562083864" lon="7.329423140804459"><ele>721.0</ele><time>2026-04-07T13:41:34.999Z</time></trkpt><trkpt lat="44.70203236883795" lon="7.329542270818356"><ele>721.0</ele><time>2026-04-07T13:41:36Z</time></trkpt><trkpt lat="44.70198069021852" lon="7.3295947640807"><ele>721.0</ele><time>2026-04-07T13:41:37Z</time></trkpt><trkpt lat="44.701866724448735" lon="7.32959327126389"><ele>721.0</ele><time>2026-04-07T13:41:39Z</time></trkpt><trkpt lat="44.70182210998256" lon="7.329473854847107"><ele>721.0</ele><time>2026-04-07T13:41:40Z</time></trkpt><trkpt lat="44.701847694359486" lon="7.329340379683397"><ele>724.25</ele><time>2026-04-07T13:41:41Z</time></trkpt><trkpt lat="44.70187906273345" lon="7.329191194464676"><ele>727.5</ele><time>2026-04-07T13:41:42Z</time></trkpt><trkpt lat="44.70190932141935" lon="7.329014145806502"><ele>730.75</ele><time>2026-04-07T13:41:43Z</time></trkpt><trkpt lat="44.70194128357156" lon="7.328835532140504"><ele>734.0</ele><time>2026-04-07T13:41:44Z</time></trkpt><trkpt lat="44.70195949702376" lon="7.328690940640039"><ele>733.0</ele><time>2026-04-07T13:41:45Z</time></trkpt><trkpt lat="44.701949806178355" lon="7.328562057078152"><ele>732.0</ele><time>2026-04-07T13:41:46Z</time></trkpt><trkpt lat="44.70190086235692" lon="7.3284535560234465"><ele>731.0</ele><time>2026-04-07T13:41:47Z</time></trkpt><trkpt lat="44.701802206595396" lon="7.32837799312672"><ele>730.0</ele><time>2026-04-07T13:41:48Z</time></trkpt><trkpt lat="44.701678786718325" lon="7.328316708255399"><ele>729.0</ele><time>2026-04-07T13:41:49Z</time></trkpt><trkpt lat="44.701549138333675" lon="7.3282272020017665"><ele>729.0</ele><time>2026-04-07T13:41:50Z</time></trkpt><trkpt lat="44.70140380899727" lon="7.328121524761898"><ele>729.0</ele><time>2026-04-07T13:41:51Z</time></trkpt><trkpt lat="44.70128088031339" lon="7.328015788064118"><ele>729.0</ele><time>2026-04-07T13:41:52Z</time></trkpt><trkpt lat="44.70118653326294" lon="7.3279132233387605"><ele>729.0</ele><time>2026-04-07T13:41:53Z</time></trkpt><trkpt lat="44.701109178710816" lon="7.32782953136719"><ele>729.0</ele><time>2026-04-07T13:41:54Z</time></trkpt><trkpt lat="44.701044759154776" lon="7.3278178054699366"><ele>729.0</ele><time>2026-04-07T13:41:55Z</time></trkpt><trkpt lat="44.7009773249266" lon="7.3278327987895775"><ele>729.0</ele><time>2026-04-07T13:41:56Z</time></trkpt><trkpt lat="44.70093717667517" lon="7.327937769495362"><ele>729.0</ele><time>2026-04-07T13:41:57Z</time></trkpt><trkpt lat="44.700939254142924" lon="7.328070633861896"><ele>729.0</ele><time>2026-04-07T13:41:58Z</time></trkpt><trkpt lat="44.70102147954356" lon="7.328177061906163"><ele>729.0</ele><time>2026-04-07T13:41:59Z</time></trkpt><trkpt lat="44.70108805583414" lon="7.3283191828434635"><ele>729.0</ele><time>2026-04-07T13:42:00Z</time></trkpt><trkpt lat="44.701179565877766" lon="7.328467245082062"><ele>729.0</ele><time>2026-04-07T13:42:01Z</time></trkpt><trkpt lat="44.701262087443126" lon="7.3285894989727485"><ele>729.0</ele><time>2026-04-07T13:42:02Z</time></trkpt><trkpt lat="44.701308958686944" lon="7.328759306185555"><ele>729.0</ele><time>2026-04-07T13:42:03Z</time></trkpt><trkpt lat="44.70130525505839" lon="7.328954516485402"><ele>730.25</ele><time>2026-04-07T13:42:04Z</time></trkpt><trkpt lat="44.701272697087845" lon="7.329129897799497"><ele>731.5</ele><time>2026-04-07T13:42:05Z</time></trkpt><trkpt lat="44.701223675293384" lon="7.329317267341873"><ele>732.75</ele><time>2026-04-07T13:42:06Z</time></trkpt><trkpt lat="44.70118975233765" lon="7.32951318486526"><ele>734.0</ele><time>2026-04-07T13:42:07Z</time></trkpt><trkpt lat="44.701199560621305" lon="7.329717813066666"><ele>735.75</ele><time>2026-04-07T13:42:08Z</time></trkpt><trkpt lat="44.70120059555996" lon="7.329926913130465"><ele>737.5</ele><time>2026-04-07T13:42:09Z</time></trkpt><trkpt lat="44.70121762416387" lon="7.3301126574195425"><ele>739.25</ele><time>2026-04-07T13:42:10Z</time></trkpt><trkpt lat="44.701195547118026" lon="7.33028394065783"><ele>741.0</ele><time>2026-04-07T13:42:11Z</time></trkpt><trkpt lat="44.701177236554926" lon="7.3304684633196535"><ele>745.6666666666666</ele><time>2026-04-07T13:42:12Z</time></trkpt><trkpt lat="44.701122663235964" lon="7.330651174595325"><ele>750.3333333333333</ele><time>2026-04-07T13:42:13Z</time></trkpt><trkpt lat="44.70106781848821" lon="7.330857098069436"><ele>755.0</ele><time>2026-04-07T13:42:14Z</time></trkpt><trkpt lat="44.70098929747522" lon="7.331055214166066"><ele>761.75</ele><time>2026-04-07T13:42:15Z</time></trkpt><trkpt lat="44.70091546866817" lon="7.331262365015133"><ele>768.5</ele><time>2026-04-07T13:42:16Z</time></trkpt><trkpt lat="44.70085772866321" lon="7.33143852857425"><ele>775.25</ele><time>2026-04-07T13:42:17Z</time></trkpt><trkpt lat="44.70080365360557" lon="7.331584874406068"><ele>782.0</ele><time>2026-04-07T13:42:18Z</time></trkpt><trkpt lat="44.70074956839374" lon="7.331699406567102"><ele>782.0</ele><time>2026-04-07T13:42:19Z</time></trkpt><trkpt lat="44.70071004524864" lon="7.331839463874518"><ele>782.0</ele><time>2026-04-07T13:42:20Z</time></trkpt><trkpt lat="44.70068473283033" lon="7.331988057260704"><ele>782.0</ele><time>2026-04-07T13:42:21Z</time></trkpt><trkpt lat="44.700692892427135" lon="7.332118147845749"><ele>782.0</ele><time>2026-04-07T13:42:22Z</time></trkpt><trkpt lat="44.70070288281442" lon="7.332242726240493"><ele>782.0</ele><time>2026-04-07T13:42:23Z</time></trkpt><trkpt lat="44.700725595755806" lon="7.332358341731804"><ele>783.4000000000001</ele><time>2026-04-07T13:42:24Z</time></trkpt><trkpt lat="44.70081117017857" lon="7.332433283265759"><ele>784.8000000000001</ele><time>2026-04-07T13:42:25Z</time></trkpt><trkpt lat="44.700915208398335" lon="7.332428182898957"><ele>786.2</ele><time>2026-04-07T13:42:26Z</time></trkpt><trkpt lat="44.70101885745132" lon="7.332389189392525"><ele>787.6</ele><time>2026-04-07T13:42:27Z</time></trkpt><trkpt lat="44.701114430705125" lon="7.332322883759612"><ele>789.0</ele><time>2026-04-07T13:42:28Z</time></trkpt><trkpt lat="44.701211578796475" lon="7.332251637445027"><ele>790.5</ele><time>2026-04-07T13:42:29Z</time></trkpt><trkpt lat="44.701302814603345" lon="7.332167521398786"><ele>792.0</ele><time>2026-04-07T13:42:30Z</time></trkpt><trkpt lat="44.701376855148105" lon="7.332109570020707"><ele>793.5</ele><time>2026-04-07T13:42:31Z</time></trkpt><trkpt lat="44.70148181057156" lon="7.332143737438534"><ele>795.0</ele><time>2026-04-07T13:42:33Z</time></trkpt><trkpt lat="44.70148192997195" lon="7.332246338653712"><ele>796.5</ele><time>2026-04-07T13:42:34Z</time></trkpt><trkpt lat="44.701442683746045" lon="7.332320948230635"><ele>798.0</ele><time>2026-04-07T13:42:35Z</time></trkpt><trkpt lat="44.701387857346795" lon="7.332396949748341"><ele>798.0</ele><time>2026-04-07T13:42:36Z</time></trkpt><trkpt lat="44.70132641708138" lon="7.332482607893891"><ele>798.0</ele><time>2026-04-07T13:42:37Z</time></trkpt><trkpt lat="44.7012559762432" lon="7.3325739547770175"><ele>798.0</ele><time>2026-04-07T13:42:38Z</time></trkpt><trkpt lat="44.70118052964308" lon="7.332661330451961"><ele>798.0</ele><time>2026-04-07T13:42:39Z</time></trkpt><trkpt lat="44.70109981444098" lon="7.332727510015181"><ele>798.0</ele><time>2026-04-07T13:42:40Z</time></trkpt><trkpt lat="44.701053097323985" lon="7.332790579687831"><ele>798.0</ele><time>2026-04-07T13:42:41Z</time></trkpt><trkpt lat="44.70100025428299" lon="7.332942323495365"><ele>798.0</ele><time>2026-04-07T13:42:42.999Z</time></trkpt><trkpt lat="44.70106171696093" lon="7.333038042630083"><ele>798.0</ele><time>2026-04-07T13:42:43.999Z</time></trkpt><trkpt lat="44.7011741638965" lon="7.3330229201551065"><ele>798.0</ele><time>2026-04-07T13:42:44.999Z</time></trkpt><trkpt lat="44.7012694404444" lon="7.332968934030408"><ele>798.0</ele><time>2026-04-07T13:42:45.999Z</time></trkpt><trkpt lat="44.70136640022077" lon="7.3328855511070605"><ele>798.0</ele><time>2026-04-07T13:42:46.999Z</time></trkpt><trkpt lat="44.70147273894709" lon="7.3327776469786405"><ele>798.0</ele><time>2026-04-07T13:42:47.999Z</time></trkpt><trkpt lat="44.70157466492415" lon="7.332657732845972"><ele>798.0</ele><time>2026-04-07T13:42:48.999Z</time></trkpt><trkpt lat="44.70169024884429" lon="7.332530781865616"><ele>798.0</ele><time>2026-04-07T13:42:49.999Z</time></trkpt><trkpt lat="44.70183846537917" lon="7.332410242881629"><ele>799.3333333333333</ele><time>2026-04-07T13:42:50.999Z</time></trkpt><trkpt lat="44.70198210836738" lon="7.332306120257386"><ele>800.6666666666666</ele><time>2026-04-07T13:42:51.999Z</time></trkpt><trkpt lat="44.70209681519017" lon="7.332186089528666"><ele>802.0</ele><time>2026-04-07T13:42:52.999Z</time></trkpt><trkpt lat="44.70219389797106" lon="7.331994101011718"><ele>802.0</ele><time>2026-04-07T13:42:53.999Z</time></trkpt><trkpt lat="44.702277021802075" lon="7.331794914713464"><ele>802.0</ele><time>2026-04-07T13:42:54.999Z</time></trkpt><trkpt lat="44.702367920980976" lon="7.3316535625782295"><ele>802.0</ele><time>2026-04-07T13:42:55.999Z</time></trkpt><trkpt lat="44.70246164991375" lon="7.331546935266821"><ele>802.0</ele><time>2026-04-07T13:42:56.999Z</time></trkpt><trkpt lat="44.70255831769816" lon="7.331503255090849"><ele>802.0</ele><time>2026-04-07T13:42:57.999Z</time></trkpt><trkpt lat="44.70267345749069" lon="7.331517939744877"><ele>802.0</ele><time>2026-04-07T13:42:58.999Z</time></trkpt><trkpt lat="44.70280048213389" lon="7.331520254300533"><ele>802.0</ele><time>2026-04-07T13:42:59.999Z</time></trkpt><trkpt lat="44.70288910153403" lon="7.3314922022383255"><ele>802.0</ele><time>2026-04-07T13:43:00.999Z</time></trkpt><trkpt lat="44.70297150999529" lon="7.331559087083938"><ele>802.0</ele><time>2026-04-07T13:43:02.999Z</time></trkpt><trkpt lat="44.70288186223976" lon="7.331652558968022"><ele>801.9999999999999</ele><time>2026-04-07T13:43:04.999Z</time></trkpt><trkpt lat="44.702819402113164" lon="7.331694463480713"><ele>802.0</ele><time>2026-04-07T13:43:05.999Z</time></trkpt><trkpt lat="44.702736876801296" lon="7.331740805499718"><ele>802.0</ele><time>2026-04-07T13:43:06.999Z</time></trkpt><trkpt lat="44.702629550247956" lon="7.331794214886972"><ele>802.0</ele><time>2026-04-07T13:43:07.999Z</time></trkpt><trkpt lat="44.702550204973704" lon="7.331846674193789"><ele>801.9999999999999</ele><time>2026-04-07T13:43:08.999Z</time></trkpt><trkpt lat="44.70248423289071" lon="7.331916087070835"><ele>802.0</ele><time>2026-04-07T13:43:09.999Z</time></trkpt><trkpt lat="44.702444360906235" lon="7.332008079098011"><ele>802.0</ele><time>2026-04-07T13:43:10.999Z</time></trkpt><trkpt lat="44.70245797997443" lon="7.33211381704568"><ele>802.0</ele><time>2026-04-07T13:43:11.999Z</time></trkpt><trkpt lat="44.702505444285315" lon="7.332193297132776"><ele>802.0</ele><time>2026-04-07T13:43:12.999Z</time></trkpt><trkpt lat="44.70260033553482" lon="7.332179486227648"><ele>802.0</ele><time>2026-04-07T13:43:13.999Z</time></trkpt><trkpt lat="44.70269801320104" lon="7.3321448613583815"><ele>802.0</ele><time>2026-04-07T13:43:14.999Z</time></trkpt><trkpt lat="44.70281203577969" lon="7.332117478393166"><ele>806.2</ele><time>2026-04-07T13:43:15.999Z</time></trkpt><trkpt lat="44.70293955470059" lon="7.332104193240836"><ele>810.4000000000001</ele><time>2026-04-07T13:43:16.999Z</time></trkpt><trkpt lat="44.70304388841516" lon="7.332086273069033"><ele>814.5999999999999</ele><time>2026-04-07T13:43:17.999Z</time></trkpt><trkpt lat="44.70311748466037" lon="7.332054117083581"><ele>818.8</ele><time>2026-04-07T13:43:18.999Z</time></trkpt><trkpt lat="44.70322588216375" lon="7.332071747762024"><ele>823.0</ele><time>2026-04-07T13:43:20.999Z</time></trkpt><trkpt lat="44.703197490747364" lon="7.332236613194512"><ele>827.8</ele><time>2026-04-07T13:43:22.999Z</time></trkpt><trkpt lat="44.70315592327911" lon="7.332324893830656"><ele>832.5999999999999</ele><time>2026-04-07T13:43:23.999Z</time></trkpt><trkpt lat="44.70309490675036" lon="7.3324494555480255"><ele>837.4000000000001</ele><time>2026-04-07T13:43:24.999Z</time></trkpt><trkpt lat="44.70302131209314" lon="7.332595920642175"><ele>842.2</ele><time>2026-04-07T13:43:25.999Z</time></trkpt><trkpt lat="44.70294160563875" lon="7.332747662452728"><ele>847.0</ele><time>2026-04-07T13:43:26.999Z</time></trkpt><trkpt lat="44.70286984964581" lon="7.3329191933506275"><ele>848.75</ele><time>2026-04-07T13:43:27.999Z</time></trkpt><trkpt lat="44.70281960906654" lon="7.333100406463758"><ele>850.5</ele><time>2026-04-07T13:43:28.999Z</time></trkpt><trkpt lat="44.70276976825637" lon="7.333310719829349"><ele>852.25</ele><time>2026-04-07T13:43:29.999Z</time></trkpt><trkpt lat="44.702701611202855" lon="7.333497495761024"><ele>854.0</ele><time>2026-04-07T13:43:30.999Z</time></trkpt><trkpt lat="44.7026151842167" lon="7.333644307865791"><ele>854.0</ele><time>2026-04-07T13:43:31.999Z</time></trkpt><trkpt lat="44.70249454834714" lon="7.333741708506309"><ele>854.0</ele><time>2026-04-07T13:43:32.999Z</time></trkpt><trkpt lat="44.70239804429272" lon="7.333873383007948"><ele>854.0</ele><time>2026-04-07T13:43:33.999Z</time></trkpt><trkpt lat="44.70229068900314" lon="7.334018797344691"><ele>854.0</ele><time>2026-04-07T13:43:34.999Z</time></trkpt><trkpt lat="44.70222894210439" lon="7.334169678335796"><ele>858.5</ele><time>2026-04-07T13:43:35.999Z</time></trkpt><trkpt lat="44.70216975749531" lon="7.33427832261397"><ele>863.0</ele><time>2026-04-07T13:43:36.999Z</time></trkpt><trkpt lat="44.70213804894196" lon="7.3344190855933356"><ele>867.5</ele><time>2026-04-07T13:43:37.999Z</time></trkpt><trkpt lat="44.70212578077166" lon="7.334602161795243"><ele>872.0</ele><time>2026-04-07T13:43:38.999Z</time></trkpt><trkpt lat="44.70206761917407" lon="7.334781032776836"><ele>874.0</ele><time>2026-04-07T13:43:39.999Z</time></trkpt><trkpt lat="44.70196793622287" lon="7.3349324091885775"><ele>876.0</ele><time>2026-04-07T13:43:40.999Z</time></trkpt><trkpt lat="44.70184082368276" lon="7.3350813558048875"><ele>878.0</ele><time>2026-04-07T13:43:42Z</time></trkpt><trkpt lat="44.70171920869461" lon="7.335266878744159"><ele>878.0</ele><time>2026-04-07T13:43:43Z</time></trkpt><trkpt lat="44.701618422853464" lon="7.335437503468212"><ele>878.0</ele><time>2026-04-07T13:43:44Z</time></trkpt><trkpt lat="44.7015272076664" lon="7.335575012810749"><ele>878.0</ele><time>2026-04-07T13:43:45Z</time></trkpt><trkpt lat="44.70139172050995" lon="7.335640945677101"><ele>878.0</ele><time>2026-04-07T13:43:46Z</time></trkpt><trkpt lat="44.70126969422794" lon="7.335732345510142"><ele>878.25</ele><time>2026-04-07T13:43:47Z</time></trkpt><trkpt lat="44.701140841381864" lon="7.335782631699707"><ele>878.5</ele><time>2026-04-07T13:43:48Z</time></trkpt><trkpt lat="44.701023868650296" lon="7.335895468015845"><ele>878.75</ele><time>2026-04-07T13:43:49Z</time></trkpt><trkpt lat="44.70092913758305" lon="7.336076295198006"><ele>879.0</ele><time>2026-04-07T13:43:50Z</time></trkpt><trkpt lat="44.700834332260435" lon="7.336250591230382"><ele>884.6666666666667</ele><time>2026-04-07T13:43:51Z</time></trkpt><trkpt lat="44.700731409194105" lon="7.336430042309979"><ele>890.3333333333334</ele><time>2026-04-07T13:43:52Z</time></trkpt><trkpt lat="44.7006281865748" lon="7.336615071622177"><ele>896.0</ele><time>2026-04-07T13:43:53Z</time></trkpt><trkpt lat="44.70053686935071" lon="7.336786740312071"><ele>896.0</ele><time>2026-04-07T13:43:54Z</time></trkpt><trkpt lat="44.70046547795547" lon="7.336954524620907"><ele>896.0</ele><time>2026-04-07T13:43:55Z</time></trkpt><trkpt lat="44.700400635161955" lon="7.337146540194174"><ele>896.0</ele><time>2026-04-07T13:43:56Z</time></trkpt><trkpt lat="44.70035792198035" lon="7.337359584913301"><ele>896.0</ele><time>2026-04-07T13:43:57Z</time></trkpt><trkpt lat="44.700324056452665" lon="7.3375315865717115"><ele>899.0</ele><time>2026-04-07T13:43:58Z</time></trkpt><trkpt lat="44.70030754541341" lon="7.337693220533671"><ele>901.9999999999999</ele><time>2026-04-07T13:43:59Z</time></trkpt><trkpt lat="44.70031692922559" lon="7.337829453478031"><ele>904.9999999999999</ele><time>2026-04-07T13:44:00Z</time></trkpt><trkpt lat="44.70036479461084" lon="7.337929085309166"><ele>908.0</ele><time>2026-04-07T13:44:01Z</time></trkpt><trkpt lat="44.70043047275059" lon="7.338006986271604"><ele>911.0</ele><time>2026-04-07T13:44:02Z</time></trkpt><trkpt lat="44.700491240295534" lon="7.338105818091082"><ele>911.5999999999999</ele><time>2026-04-07T13:44:03Z</time></trkpt><trkpt lat="44.70056589364723" lon="7.338224365016686"><ele>912.1999999999999</ele><time>2026-04-07T13:44:04Z</time></trkpt><trkpt lat="44.700625529145164" lon="7.338347141502001"><ele>912.8000000000001</ele><time>2026-04-07T13:44:05Z</time></trkpt><trkpt lat="44.70065639711758" lon="7.338473093198407"><ele>913.4000000000001</ele><time>2026-04-07T13:44:06Z</time></trkpt><trkpt lat="44.700649135406366" lon="7.338599898468245"><ele>914.0</ele><time>2026-04-07T13:44:07Z</time></trkpt><trkpt lat="44.700598217657486" lon="7.338707925006445"><ele>914.0</ele><time>2026-04-07T13:44:08Z</time></trkpt><trkpt lat="44.70052558010903" lon="7.338819729029992"><ele>914.0</ele><time>2026-04-07T13:44:09Z</time></trkpt><trkpt lat="44.700412598722906" lon="7.338904331640757"><ele>914.0</ele><time>2026-04-07T13:44:10Z</time></trkpt><trkpt lat="44.70030019718006" lon="7.339036483821524"><ele>914.0</ele><time>2026-04-07T13:44:11Z</time></trkpt><trkpt lat="44.70019367506317" lon="7.339181850711842"><ele>912.5</ele><time>2026-04-07T13:44:12Z</time></trkpt><trkpt lat="44.700090019899136" lon="7.339290068867888"><ele>911.0</ele><time>2026-04-07T13:44:13Z</time></trkpt><trkpt lat="44.69998159437786" lon="7.339352864375892"><ele>909.5</ele><time>2026-04-07T13:44:14Z</time></trkpt><trkpt lat="44.69986897979888" lon="7.339405033907484"><ele>908.0</ele><time>2026-04-07T13:44:15Z</time></trkpt><trkpt lat="44.699773106792065" lon="7.339453411082559"><ele>908.0</ele><time>2026-04-07T13:44:16Z</time></trkpt><trkpt lat="44.69968777115086" lon="7.339523791876851"><ele>908.0</ele><time>2026-04-07T13:44:17Z</time></trkpt><trkpt lat="44.69962370099117" lon="7.339631108972926"><ele>908.0</ele><time>2026-04-07T13:44:18Z</time></trkpt><trkpt lat="44.69958759647167" lon="7.339775167119069"><ele>908.0</ele><time>2026-04-07T13:44:19Z</time></trkpt><trkpt lat="44.69958338129346" lon="7.339947032552058"><ele>908.0</ele><time>2026-04-07T13:44:20Z</time></trkpt><trkpt lat="44.699579382653226" lon="7.340133857825434"><ele>911.0</ele><time>2026-04-07T13:44:21Z</time></trkpt><trkpt lat="44.6995731734779" lon="7.34032016260185"><ele>914.0</ele><time>2026-04-07T13:44:22Z</time></trkpt><trkpt lat="44.699570132879366" lon="7.340485881028576"><ele>917.0</ele><time>2026-04-07T13:44:23Z</time></trkpt><trkpt lat="44.69952839188131" lon="7.3406401519483495"><ele>920.0</ele><time>2026-04-07T13:44:24Z</time></trkpt><trkpt lat="44.699487075731575" lon="7.340790687304591"><ele>920.1666666666667</ele><time>2026-04-07T13:44:25Z</time></trkpt><trkpt lat="44.6994476713583" lon="7.340918119938346"><ele>920.3333333333334</ele><time>2026-04-07T13:44:26Z</time></trkpt><trkpt lat="44.69942004036848" lon="7.34102661849096"><ele>920.5</ele><time>2026-04-07T13:44:27Z</time></trkpt><trkpt lat="44.69940187169725" lon="7.341135912776553"><ele>920.6666666666667</ele><time>2026-04-07T13:44:28Z</time></trkpt><trkpt lat="44.699384163609196" lon="7.3412430034678255"><ele>920.8333333333334</ele><time>2026-04-07T13:44:29Z</time></trkpt><trkpt lat="44.699368633613595" lon="7.341345934781046"><ele>921.0</ele><time>2026-04-07T13:44:30Z</time></trkpt><trkpt lat="44.69934316593354" lon="7.341489912392368"><ele>921.0</ele><time>2026-04-07T13:44:32Z</time></trkpt><trkpt lat="44.69921716735058" lon="7.341477242758123"><ele>921.0</ele><time>2026-04-07T13:44:35Z</time></trkpt><trkpt lat="44.69915103809723" lon="7.341472686749867"><ele>921.0</ele><time>2026-04-07T13:44:36Z</time></trkpt><trkpt lat="44.69907683331909" lon="7.3414472513038875"><ele>921.0</ele><time>2026-04-07T13:44:37Z</time></trkpt><trkpt lat="44.698993362505725" lon="7.341424892742586"><ele>921.0</ele><time>2026-04-07T13:44:38Z</time></trkpt><trkpt lat="44.69890243775476" lon="7.3414059427685725"><ele>921.0</ele><time>2026-04-07T13:44:39Z</time></trkpt><trkpt lat="44.698809688333775" lon="7.34136688539198"><ele>919.5</ele><time>2026-04-07T13:44:40Z</time></trkpt><trkpt lat="44.69871435943158" lon="7.341360762441462"><ele>918.0</ele><time>2026-04-07T13:44:41Z</time></trkpt><trkpt lat="44.69863328692634" lon="7.341333547257889"><ele>916.5</ele><time>2026-04-07T13:44:42Z</time></trkpt><trkpt lat="44.698551236613305" lon="7.341319000759156"><ele>915.0</ele><time>2026-04-07T13:44:43Z</time></trkpt><trkpt lat="44.698480610906515" lon="7.3412930764391335"><ele>913.5</ele><time>2026-04-07T13:44:44Z</time></trkpt><trkpt lat="44.69841594033351" lon="7.341281246246203"><ele>912.0</ele><time>2026-04-07T13:44:45Z</time></trkpt><trkpt lat="44.69833808909099" lon="7.34126148519584"><ele>911.4000000000001</ele><time>2026-04-07T13:44:46Z</time></trkpt><trkpt lat="44.69826624179629" lon="7.341249134344286"><ele>910.8000000000001</ele><time>2026-04-07T13:44:47Z</time></trkpt><trkpt lat="44.6981366842316" lon="7.341193327667525"><ele>910.2</ele><time>2026-04-07T13:44:48.999Z</time></trkpt><trkpt lat="44.698067784162305" lon="7.341154284084594"><ele>909.6</ele><time>2026-04-07T13:44:49.999Z</time></trkpt><trkpt lat="44.69799606272656" lon="7.341106405631809"><ele>909.0</ele><time>2026-04-07T13:44:50.999Z</time></trkpt><trkpt lat="44.69791597549024" lon="7.341044335701536"><ele>909.0</ele><time>2026-04-07T13:44:51.999Z</time></trkpt><trkpt lat="44.697840195868515" lon="7.340986994022515"><ele>909.0000000000001</ele><time>2026-04-07T13:44:52.999Z</time></trkpt><trkpt lat="44.697760920181665" lon="7.340929695474369"><ele>909.0000000000001</ele><time>2026-04-07T13:44:53.999Z</time></trkpt><trkpt lat="44.697680821785255" lon="7.3408605880861435"><ele>909.0</ele><time>2026-04-07T13:44:54.999Z</time></trkpt><trkpt lat="44.69759931315357" lon="7.340789509305352"><ele>909.0</ele><time>2026-04-07T13:44:55.999Z</time></trkpt><trkpt lat="44.697523135161106" lon="7.340725890801038"><ele>910.8333333333334</ele><time>2026-04-07T13:44:56.999Z</time></trkpt><trkpt lat="44.69745553903777" lon="7.340666931769892"><ele>912.6666666666667</ele><time>2026-04-07T13:44:57.999Z</time></trkpt><trkpt lat="44.69739222156374" lon="7.340609973033406"><ele>914.5</ele><time>2026-04-07T13:44:58.999Z</time></trkpt><trkpt lat="44.69732886661766" lon="7.3405573407911096"><ele>916.3333333333334</ele><time>2026-04-07T13:44:59.999Z</time></trkpt><trkpt lat="44.69726768956993" lon="7.340520030242464"><ele>918.1666666666667</ele><time>2026-04-07T13:45:00.999Z</time></trkpt><trkpt lat="44.69720066420584" lon="7.340463518489815"><ele>920.0</ele><time>2026-04-07T13:45:01.999Z</time></trkpt><trkpt lat="44.69712603449146" lon="7.340417309587166"><ele>920.0000000000001</ele><time>2026-04-07T13:45:02.999Z</time></trkpt><trkpt lat="44.697053272607114" lon="7.340366451027524"><ele>920.0</ele><time>2026-04-07T13:45:03.999Z</time></trkpt><trkpt lat="44.69697771902178" lon="7.340303805674522"><ele>920.0</ele><time>2026-04-07T13:45:04.999Z</time></trkpt><trkpt lat="44.69689678727597" lon="7.340249728345599"><ele>920.0</ele><time>2026-04-07T13:45:05.999Z</time></trkpt><trkpt lat="44.69683332829261" lon="7.340182155995806"><ele>920.0000000000001</ele><time>2026-04-07T13:45:06.999Z</time></trkpt><trkpt lat="44.69676935532663" lon="7.340137045169392"><ele>920.0</ele><time>2026-04-07T13:45:07.999Z</time></trkpt><trkpt lat="44.696712482528234" lon="7.340095614256229"><ele>921.6</ele><time>2026-04-07T13:45:08.999Z</time></trkpt><trkpt lat="44.69667058084802" lon="7.33997751276668"><ele>923.2</ele><time>2026-04-07T13:45:10.999Z</time></trkpt><trkpt lat="44.69668579842981" lon="7.339843996415307"><ele>924.8</ele><time>2026-04-07T13:45:12.999Z</time></trkpt><trkpt lat="44.696790847862694" lon="7.33974636136135"><ele>926.4</ele><time>2026-04-07T13:45:14.999Z</time></trkpt><trkpt lat="44.696908593137906" lon="7.3396824872864554"><ele>928.0</ele><time>2026-04-07T13:45:16.999Z</time></trkpt><trkpt lat="44.696973486854105" lon="7.3396211722084255"><ele>928.0</ele><time>2026-04-07T13:45:17.999Z</time></trkpt><trkpt lat="44.6970264605113" lon="7.339462645862406"><ele>928.0</ele><time>2026-04-07T13:45:19.999Z</time></trkpt><trkpt lat="44.69704098367115" lon="7.3393624363469785"><ele>928.0</ele><time>2026-04-07T13:45:20.999Z</time></trkpt><trkpt lat="44.69703083678767" lon="7.339225246458494"><ele>928.0</ele><time>2026-04-07T13:45:21.999Z</time></trkpt><trkpt lat="44.69702225626957" lon="7.339108577342277"><ele>928.0</ele><time>2026-04-07T13:45:22.999Z</time></trkpt><trkpt lat="44.697012655399035" lon="7.338992850430753"><ele>929.8333333333333</ele><time>2026-04-07T13:45:23.999Z</time></trkpt><trkpt lat="44.69701059420997" lon="7.338859635366958"><ele>931.6666666666666</ele><time>2026-04-07T13:45:24.999Z</time></trkpt><trkpt lat="44.69699967245403" lon="7.3387381313035025"><ele>933.5</ele><time>2026-04-07T13:45:25.999Z</time></trkpt><trkpt lat="44.696977596308415" lon="7.338630563325649"><ele>935.3333333333333</ele><time>2026-04-07T13:45:26.999Z</time></trkpt><trkpt lat="44.69698531024866" lon="7.338530085559321"><ele>937.1666666666666</ele><time>2026-04-07T13:45:27.999Z</time></trkpt><trkpt lat="44.69696595557845" lon="7.33843536704419"><ele>939.0</ele><time>2026-04-07T13:45:28.999Z</time></trkpt><trkpt lat="44.696979740359616" lon="7.3383414833857765"><ele>939.0</ele><time>2026-04-07T13:45:29.999Z</time></trkpt><trkpt lat="44.69696604935283" lon="7.338200959511033"><ele>939.0</ele><time>2026-04-07T13:45:31.999Z</time></trkpt><trkpt lat="44.6969185905257" lon="7.338127917649253"><ele>939.0</ele><time>2026-04-07T13:45:32.999Z</time></trkpt><trkpt lat="44.69687202809248" lon="7.338064249167238"><ele>939.0</ele><time>2026-04-07T13:45:33.999Z</time></trkpt><trkpt lat="44.69681242484852" lon="7.338000655242781"><ele>939.0</ele><time>2026-04-07T13:45:34.999Z</time></trkpt><trkpt lat="44.69674925183262" lon="7.33792473116508"><ele>939.0</ele><time>2026-04-07T13:45:35.999Z</time></trkpt><trkpt lat="44.69670276278457" lon="7.337807662520822"><ele>943.3333333333334</ele><time>2026-04-07T13:45:36.999Z</time></trkpt><trkpt lat="44.69664978171625" lon="7.337719784718331"><ele>947.6666666666667</ele><time>2026-04-07T13:45:37.999Z</time></trkpt><trkpt lat="44.696600490315625" lon="7.337643909920677"><ele>952.0</ele><time>2026-04-07T13:45:38.999Z</time></trkpt><trkpt lat="44.69653386460174" lon="7.337550192930863"><ele>956.3333333333334</ele><time>2026-04-07T13:45:39.999Z</time></trkpt><trkpt lat="44.69645836066199" lon="7.337449872212429"><ele>960.6666666666667</ele><time>2026-04-07T13:45:40.999Z</time></trkpt><trkpt lat="44.69640540498315" lon="7.337381871331589"><ele>965.0</ele><time>2026-04-07T13:45:41.999Z</time></trkpt><trkpt lat="44.69633375561948" lon="7.337316913273985"><ele>965.0</ele><time>2026-04-07T13:45:42.999Z</time></trkpt><trkpt lat="44.69626322781373" lon="7.337226321266427"><ele>965.0</ele><time>2026-04-07T13:45:43.999Z</time></trkpt><trkpt lat="44.6961918209043" lon="7.337135274923313"><ele>965.0</ele><time>2026-04-07T13:45:44.999Z</time></trkpt><trkpt lat="44.696123610730595" lon="7.337027135732103"><ele>965.0</ele><time>2026-04-07T13:45:45.999Z</time></trkpt><trkpt lat="44.69606751005064" lon="7.336914976072316"><ele>965.0</ele><time>2026-04-07T13:45:46.999Z</time></trkpt><trkpt lat="44.69602839269571" lon="7.3367878950494045"><ele>969.3333333333334</ele><time>2026-04-07T13:45:48Z</time></trkpt><trkpt lat="44.69596176282996" lon="7.336671265978268"><ele>973.6666666666667</ele><time>2026-04-07T13:45:49Z</time></trkpt><trkpt lat="44.695938517832076" lon="7.336542910339721"><ele>978.0</ele><time>2026-04-07T13:45:50Z</time></trkpt><trkpt lat="44.695899592457096" lon="7.336447740057468"><ele>982.3333333333333</ele><time>2026-04-07T13:45:51Z</time></trkpt><trkpt lat="44.69591574523399" lon="7.336338030126222"><ele>986.6666666666666</ele><time>2026-04-07T13:45:52Z</time></trkpt><trkpt lat="44.69593390627047" lon="7.336229881671663"><ele>991.0</ele><time>2026-04-07T13:45:53Z</time></trkpt><trkpt lat="44.695953526280654" lon="7.336104185770023"><ele>991.4999999999999</ele><time>2026-04-07T13:45:54Z</time></trkpt><trkpt lat="44.69596351796349" lon="7.335963438008053"><ele>992.0</ele><time>2026-04-07T13:45:55Z</time></trkpt><trkpt lat="44.69597050289781" lon="7.335845091066091"><ele>992.5</ele><time>2026-04-07T13:45:56Z</time></trkpt><trkpt lat="44.69598444113863" lon="7.335740933285227"><ele>993.0</ele><time>2026-04-07T13:45:57Z</time></trkpt><trkpt lat="44.69600001730912" lon="7.3356144485977826"><ele>993.4999999999999</ele><time>2026-04-07T13:45:58Z</time></trkpt><trkpt lat="44.69601072955967" lon="7.335524339066595"><ele>994.0</ele><time>2026-04-07T13:45:59Z</time></trkpt><trkpt lat="44.69598205492423" lon="7.335379065100645"><ele>994.6</ele><time>2026-04-07T13:46:01Z</time></trkpt><trkpt lat="44.695996364927936" lon="7.335240243883584"><ele>995.2</ele><time>2026-04-07T13:46:03Z</time></trkpt><trkpt lat="44.6959278740656" lon="7.335079365906854"><ele>995.8000000000001</ele><time>2026-04-07T13:46:05Z</time></trkpt><trkpt lat="44.69586862644259" lon="7.334984436022654"><ele>996.4000000000001</ele><time>2026-04-07T13:46:06Z</time></trkpt><trkpt lat="44.69580699846433" lon="7.33488183587318"><ele>997.0</ele><time>2026-04-07T13:46:07Z</time></trkpt><trkpt lat="44.69574704237578" lon="7.334764557047045"><ele>994.0</ele><time>2026-04-07T13:46:08Z</time></trkpt><trkpt lat="44.695674074002675" lon="7.334661014888918"><ele>991.0</ele><time>2026-04-07T13:46:09Z</time></trkpt><trkpt lat="44.69559676687757" lon="7.334572792856758"><ele>988.0</ele><time>2026-04-07T13:46:10Z</time></trkpt><trkpt lat="44.695496700438795" lon="7.334507895629284"><ele>985.0</ele><time>2026-04-07T13:46:11Z</time></trkpt><trkpt lat="44.695391347562534" lon="7.334430243163804"><ele>982.0</ele><time>2026-04-07T13:46:12Z</time></trkpt><trkpt lat="44.69530074853451" lon="7.334391228757798"><ele>988.4000000000001</ele><time>2026-04-07T13:46:13Z</time></trkpt><trkpt lat="44.69520202582238" lon="7.33436718360159"><ele>994.8000000000001</ele><time>2026-04-07T13:46:14Z</time></trkpt><trkpt lat="44.695095464766844" lon="7.334322023424044"><ele>1001.2</ele><time>2026-04-07T13:46:15Z</time></trkpt><trkpt lat="44.69499371556578" lon="7.334276880299831"><ele>1007.6</ele><time>2026-04-07T13:46:16Z</time></trkpt><trkpt lat="44.694894410673115" lon="7.334239300587608"><ele>1014.0</ele><time>2026-04-07T13:46:17Z</time></trkpt><trkpt lat="44.69479421672157" lon="7.33422036087553"><ele>1014.0</ele><time>2026-04-07T13:46:18Z</time></trkpt><trkpt lat="44.69469486178586" lon="7.334167338037907"><ele>1014.0000000000001</ele><time>2026-04-07T13:46:19Z</time></trkpt><trkpt lat="44.694590078160424" lon="7.334132435931716"><ele>1014.0000000000001</ele><time>2026-04-07T13:46:20Z</time></trkpt><trkpt lat="44.69448614850612" lon="7.33411756793281"><ele>1014.0</ele><time>2026-04-07T13:46:21Z</time></trkpt><trkpt lat="44.6943806222526" lon="7.334123541599699"><ele>1014.0</ele><time>2026-04-07T13:46:22Z</time></trkpt><trkpt lat="44.69426010822095" lon="7.334141754991401"><ele>1017.4000000000001</ele><time>2026-04-07T13:46:23Z</time></trkpt><trkpt lat="44.69414679944521" lon="7.334193195021012"><ele>1020.8000000000001</ele><time>2026-04-07T13:46:24Z</time></trkpt><trkpt lat="44.69405619792991" lon="7.334255991169664"><ele>1024.1999999999998</ele><time>2026-04-07T13:46:25Z</time></trkpt><trkpt lat="44.6939510537426" lon="7.334296074426599"><ele>1027.6</ele><time>2026-04-07T13:46:26Z</time></trkpt><trkpt lat="44.693840777744256" lon="7.334306777374211"><ele>1031.0</ele><time>2026-04-07T13:46:27Z</time></trkpt><trkpt lat="44.69375132248291" lon="7.334323981524496"><ele>1031.0</ele><time>2026-04-07T13:46:28Z</time></trkpt><trkpt lat="44.69366136422983" lon="7.334297627786039"><ele>1031.0</ele><time>2026-04-07T13:46:30Z</time></trkpt><trkpt lat="44.69357223920815" lon="7.334381501397541"><ele>1031.0</ele><time>2026-04-07T13:46:32Z</time></trkpt><trkpt lat="44.69357695492821" lon="7.334492559497055"><ele>1031.0</ele><time>2026-04-07T13:46:33Z</time></trkpt><trkpt lat="44.6937212184981" lon="7.334524456172666"><ele>1031.0</ele><time>2026-04-07T13:46:34Z</time></trkpt><trkpt lat="44.6937867895306" lon="7.334551615696107"><ele>1031.0</ele><time>2026-04-07T13:46:35Z</time></trkpt><trkpt lat="44.693870772560416" lon="7.334573473279609"><ele>1031.0</ele><time>2026-04-07T13:46:36Z</time></trkpt><trkpt lat="44.693951562825916" lon="7.334617889849564"><ele>1031.0</ele><time>2026-04-07T13:46:37Z</time></trkpt><trkpt lat="44.69402112840861" lon="7.334668170377471"><ele>1031.0</ele><time>2026-04-07T13:46:38Z</time></trkpt><trkpt lat="44.694090192029684" lon="7.334708278268885"><ele>1031.0</ele><time>2026-04-07T13:46:39Z</time></trkpt><trkpt lat="44.69417324608386" lon="7.334815175346494"><ele>1031.0</ele><time>2026-04-07T13:46:41Z</time></trkpt><trkpt lat="44.69427568285853" lon="7.33487077296997"><ele>1036.0</ele><time>2026-04-07T13:46:43Z</time></trkpt><trkpt lat="44.69432857814776" lon="7.334923832492815"><ele>1041.0</ele><time>2026-04-07T13:46:44Z</time></trkpt><trkpt lat="44.69440956231876" lon="7.33496353164789"><ele>1046.0</ele><time>2026-04-07T13:46:46Z</time></trkpt><trkpt lat="44.694410752249404" lon="7.335187662196517"><ele>1051.0</ele><time>2026-04-07T13:46:52Z</time></trkpt><trkpt lat="44.69430008968862" lon="7.335211073556043"><ele>1056.0</ele><time>2026-04-07T13:46:54Z</time></trkpt><trkpt lat="44.69419524452448" lon="7.335224708363829"><ele>1056.0</ele><time>2026-04-07T13:46:56Z</time></trkpt><trkpt lat="44.69407833520036" lon="7.335260615279306"><ele>1056.0</ele><time>2026-04-07T13:46:58Z</time></trkpt><trkpt lat="44.69401682263865" lon="7.335284982829583"><ele>1056.0</ele><time>2026-04-07T13:46:58.999Z</time></trkpt><trkpt lat="44.69395307777285" lon="7.335294007906999"><ele>1056.0</ele><time>2026-04-07T13:46:59.999Z</time></trkpt><trkpt lat="44.69383077200216" lon="7.335339260672739"><ele>1056.0</ele><time>2026-04-07T13:47:01.999Z</time></trkpt><trkpt lat="44.693779281324524" lon="7.335407200360839"><ele>1056.0</ele><time>2026-04-07T13:47:02.999Z</time></trkpt><trkpt lat="44.69372058599057" lon="7.335448045413084"><ele>1056.0</ele><time>2026-04-07T13:47:03.999Z</time></trkpt><trkpt lat="44.693661251592175" lon="7.33550386003306"><ele>1056.0</ele><time>2026-04-07T13:47:04.999Z</time></trkpt><trkpt lat="44.69362179279033" lon="7.335573794092427"><ele>1056.0</ele><time>2026-04-07T13:47:05.999Z</time></trkpt><trkpt lat="44.693579887557945" lon="7.335662369536651"><ele>1056.0</ele><time>2026-04-07T13:47:06.999Z</time></trkpt><trkpt lat="44.693523005540186" lon="7.335722326954574"><ele>1056.0</ele><time>2026-04-07T13:47:07.999Z</time></trkpt><trkpt lat="44.69342207174759" lon="7.335812117869728"><ele>1056.0</ele><time>2026-04-07T13:47:09.999Z</time></trkpt><trkpt lat="44.69328831231834" lon="7.335830666037223"><ele>1059.7142857142858</ele><time>2026-04-07T13:47:11.999Z</time></trkpt><trkpt lat="44.69321617658278" lon="7.335843600247414"><ele>1063.4285714285716</ele><time>2026-04-07T13:47:12.999Z</time></trkpt><trkpt lat="44.6931518138135" lon="7.335909351706426"><ele>1067.1428571428573</ele><time>2026-04-07T13:47:13.999Z</time></trkpt><trkpt lat="44.693086275902225" lon="7.3359449861190225"><ele>1070.857142857143</ele><time>2026-04-07T13:47:14.999Z</time></trkpt><trkpt lat="44.69302396898395" lon="7.335973615437271"><ele>1074.5714285714287</ele><time>2026-04-07T13:47:15.999Z</time></trkpt><trkpt lat="44.69295780079302" lon="7.336024718400833"><ele>1078.2857142857144</ele><time>2026-04-07T13:47:16.999Z</time></trkpt><trkpt lat="44.692883176971584" lon="7.336079731184085"><ele>1082.0</ele><time>2026-04-07T13:47:17.999Z</time></trkpt><trkpt lat="44.692823269660074" lon="7.33613866825382"><ele>1082.6</ele><time>2026-04-07T13:47:18.999Z</time></trkpt><trkpt lat="44.6927512805026" lon="7.336172164206602"><ele>1083.2</ele><time>2026-04-07T13:47:19.999Z</time></trkpt><trkpt lat="44.69265262278324" lon="7.33613279943824"><ele>1083.8</ele><time>2026-04-07T13:47:20.999Z</time></trkpt><trkpt lat="44.69255480665108" lon="7.3361391668446565"><ele>1084.4</ele><time>2026-04-07T13:47:21.999Z</time></trkpt><trkpt lat="44.692461600245764" lon="7.336162318135939"><ele>1085.0</ele><time>2026-04-07T13:47:22.999Z</time></trkpt><trkpt lat="44.69237901557611" lon="7.336196075316111"><ele>1085.0</ele><time>2026-04-07T13:47:23.999Z</time></trkpt><trkpt lat="44.69230083177504" lon="7.3362346884119605"><ele>1085.0</ele><time>2026-04-07T13:47:24.999Z</time></trkpt><trkpt lat="44.6922305747068" lon="7.336281579650927"><ele>1085.0</ele><time>2026-04-07T13:47:25.999Z</time></trkpt><trkpt lat="44.69214077173636" lon="7.336356237702895"><ele>1085.0</ele><time>2026-04-07T13:47:26.999Z</time></trkpt><trkpt lat="44.692065974871426" lon="7.336446425350153"><ele>1085.0</ele><time>2026-04-07T13:47:27.999Z</time></trkpt><trkpt lat="44.69196041476016" lon="7.336554159306433"><ele>1088.6</ele><time>2026-04-07T13:47:29.999Z</time></trkpt><trkpt lat="44.69189133158331" lon="7.336634955753329"><ele>1092.2</ele><time>2026-04-07T13:47:31.999Z</time></trkpt><trkpt lat="44.69183312729805" lon="7.336675160686895"><ele>1095.8</ele><time>2026-04-07T13:47:34.999Z</time></trkpt><trkpt lat="44.69174778228898" lon="7.336718376567377"><ele>1099.4</ele><time>2026-04-07T13:47:38.999Z</time></trkpt><trkpt lat="44.69165097424009" lon="7.336715370184634"><ele>1103.0</ele><time>2026-04-07T13:47:40.999Z</time></trkpt><trkpt lat="44.691545139713384" lon="7.336646299986542"><ele>1103.0</ele><time>2026-04-07T13:47:42.999Z</time></trkpt><trkpt lat="44.69143548895834" lon="7.336580999591034"><ele>1103.0</ele><time>2026-04-07T13:47:44.999Z</time></trkpt><trkpt lat="44.69131856184954" lon="7.336583493575743"><ele>1103.0</ele><time>2026-04-07T13:47:46.999Z</time></trkpt><trkpt lat="44.69126389776931" lon="7.336630098344649"><ele>1103.0</ele><time>2026-04-07T13:47:47.999Z</time></trkpt><trkpt lat="44.691189481801736" lon="7.336677049767177"><ele>1103.0</ele><time>2026-04-07T13:47:48.999Z</time></trkpt><trkpt lat="44.691110188720955" lon="7.336725725420281"><ele>1103.8333333333335</ele><time>2026-04-07T13:47:49.999Z</time></trkpt><trkpt lat="44.691034968294346" lon="7.336763808985075"><ele>1104.6666666666667</ele><time>2026-04-07T13:47:50.999Z</time></trkpt><trkpt lat="44.690958820540935" lon="7.336784232874557"><ele>1105.5</ele><time>2026-04-07T13:47:51.999Z</time></trkpt><trkpt lat="44.69088485412106" lon="7.3368112791784315"><ele>1106.3333333333333</ele><time>2026-04-07T13:47:52.999Z</time></trkpt><trkpt lat="44.69080776988767" lon="7.336818258294705"><ele>1107.1666666666665</ele><time>2026-04-07T13:47:54Z</time></trkpt><trkpt lat="44.690740951191465" lon="7.336849698263597"><ele>1108.0</ele><time>2026-04-07T13:47:55Z</time></trkpt><trkpt lat="44.69067068116357" lon="7.336872829925982"><ele>1108.0</ele><time>2026-04-07T13:47:56Z</time></trkpt><trkpt lat="44.69059251326854" lon="7.336861920936207"><ele>1108.0</ele><time>2026-04-07T13:47:57Z</time></trkpt><trkpt lat="44.690515163914014" lon="7.336897597011744"><ele>1108.0</ele><time>2026-04-07T13:47:58Z</time></trkpt><trkpt lat="44.69043420593051" lon="7.336946844345509"><ele>1108.0</ele><time>2026-04-07T13:47:59Z</time></trkpt><trkpt lat="44.69037880728295" lon="7.336992174137246"><ele>1108.0</ele><time>2026-04-07T13:48:00Z</time></trkpt><trkpt lat="44.69031305046787" lon="7.337065872401537"><ele>1108.0</ele><time>2026-04-07T13:48:01Z</time></trkpt><trkpt lat="44.69027074617164" lon="7.337163237727786"><ele>1110.2857142857142</ele><time>2026-04-07T13:48:02Z</time></trkpt><trkpt lat="44.69021174652472" lon="7.337231246192256"><ele>1112.5714285714284</ele><time>2026-04-07T13:48:03Z</time></trkpt><trkpt lat="44.69017031809711" lon="7.337323462968999"><ele>1114.857142857143</ele><time>2026-04-07T13:48:04Z</time></trkpt><trkpt lat="44.69013491267891" lon="7.337399726790839"><ele>1117.142857142857</ele><time>2026-04-07T13:48:05Z</time></trkpt><trkpt lat="44.690094334245416" lon="7.337475866475275"><ele>1119.4285714285716</ele><time>2026-04-07T13:48:06Z</time></trkpt><trkpt lat="44.69004683909042" lon="7.3375435297241856"><ele>1121.7142857142858</ele><time>2026-04-07T13:48:07Z</time></trkpt><trkpt lat="44.689986708785696" lon="7.337611143253136"><ele>1124.0</ele><time>2026-04-07T13:48:08Z</time></trkpt><trkpt lat="44.68992496577931" lon="7.337672577754733"><ele>1124.0</ele><time>2026-04-07T13:48:09Z</time></trkpt><trkpt lat="44.68985906723771" lon="7.33773183826939"><ele>1124.0</ele><time>2026-04-07T13:48:10Z</time></trkpt><trkpt lat="44.68981109774329" lon="7.337800984288557"><ele>1124.0</ele><time>2026-04-07T13:48:11Z</time></trkpt><trkpt lat="44.689704062010165" lon="7.337866688695849"><ele>1124.0</ele><time>2026-04-07T13:48:13Z</time></trkpt><trkpt lat="44.689603370165784" lon="7.337955394563784"><ele>1124.0</ele><time>2026-04-07T13:48:15Z</time></trkpt><trkpt lat="44.689507957052406" lon="7.338039450037991"><ele>1126.2</ele><time>2026-04-07T13:48:17Z</time></trkpt><trkpt lat="44.68940313197367" lon="7.338127818622424"><ele>1128.4</ele><time>2026-04-07T13:48:19Z</time></trkpt><trkpt lat="44.68929418211298" lon="7.338205263570759"><ele>1130.6</ele><time>2026-04-07T13:48:21Z</time></trkpt><trkpt lat="44.6892033915" lon="7.338275132295065"><ele>1132.8</ele><time>2026-04-07T13:48:23Z</time></trkpt><trkpt lat="44.689112352571996" lon="7.3382730250615875"><ele>1135.0</ele><time>2026-04-07T13:48:25Z</time></trkpt><trkpt lat="44.689055828622266" lon="7.338233428187367"><ele>1135.0</ele><time>2026-04-07T13:48:27Z</time></trkpt><trkpt lat="44.688989146181676" lon="7.338150506774013"><ele>1135.0</ele><time>2026-04-07T13:48:29Z</time></trkpt><trkpt lat="44.68893862730073" lon="7.338092129620769"><ele>1135.0</ele><time>2026-04-07T13:48:30Z</time></trkpt><trkpt lat="44.68887396183098" lon="7.3380358818673415"><ele>1135.0</ele><time>2026-04-07T13:48:31Z</time></trkpt><trkpt lat="44.68881336770601" lon="7.337975186827507"><ele>1135.0</ele><time>2026-04-07T13:48:32Z</time></trkpt><trkpt lat="44.68875151094388" lon="7.337900036111785"><ele>1135.0</ele><time>2026-04-07T13:48:33Z</time></trkpt><trkpt lat="44.68869016759184" lon="7.337845484405432"><ele>1136.8333333333333</ele><time>2026-04-07T13:48:34Z</time></trkpt><trkpt lat="44.688579914232946" lon="7.337746984215848"><ele>1138.6666666666665</ele><time>2026-04-07T13:48:36Z</time></trkpt><trkpt lat="44.688508437780165" lon="7.337696577408896"><ele>1140.5</ele><time>2026-04-07T13:48:37Z</time></trkpt><trkpt lat="44.688437345952366" lon="7.337645324019952"><ele>1142.3333333333333</ele><time>2026-04-07T13:48:38Z</time></trkpt><trkpt lat="44.68837255524821" lon="7.3375932951022005"><ele>1144.1666666666667</ele><time>2026-04-07T13:48:39Z</time></trkpt><trkpt lat="44.688308711946824" lon="7.3375350406823"><ele>1146.0</ele><time>2026-04-07T13:48:40Z</time></trkpt><trkpt lat="44.688236058271585" lon="7.337496546537694"><ele>1146.0</ele><time>2026-04-07T13:48:41Z</time></trkpt><trkpt lat="44.68810412104214" lon="7.337427941257038"><ele>1146.0</ele><time>2026-04-07T13:48:43Z</time></trkpt><trkpt lat="44.68803187443854" lon="7.337393270939402"><ele>1146.0</ele><time>2026-04-07T13:48:44Z</time></trkpt><trkpt lat="44.68796242421098" lon="7.337355608742403"><ele>1146.0</ele><time>2026-04-07T13:48:45Z</time></trkpt><trkpt lat="44.68789623562143" lon="7.337303605679835"><ele>1146.0</ele><time>2026-04-07T13:48:46Z</time></trkpt><trkpt lat="44.68783395151463" lon="7.337268329751054"><ele>1146.0</ele><time>2026-04-07T13:48:47Z</time></trkpt><trkpt lat="44.68777496660528" lon="7.337231000159084"><ele>1146.5</ele><time>2026-04-07T13:48:48Z</time></trkpt><trkpt lat="44.687717847952186" lon="7.3371936682134145"><ele>1147.0</ele><time>2026-04-07T13:48:49Z</time></trkpt><trkpt lat="44.68765297903429" lon="7.3371530601416834"><ele>1147.5</ele><time>2026-04-07T13:48:50Z</time></trkpt><trkpt lat="44.687586608071896" lon="7.337115888947232"><ele>1148.0</ele><time>2026-04-07T13:48:51Z</time></trkpt><trkpt lat="44.68751733925719" lon="7.337077094781749"><ele>1148.5</ele><time>2026-04-07T13:48:52Z</time></trkpt><trkpt lat="44.687450011880806" lon="7.337039387962031"><ele>1149.0</ele><time>2026-04-07T13:48:53Z</time></trkpt><trkpt lat="44.68732917184472" lon="7.3369889406985696"><ele>1149.0</ele><time>2026-04-07T13:48:55Z</time></trkpt><trkpt lat="44.687266904644076" lon="7.336939792435304"><ele>1149.0</ele><time>2026-04-07T13:48:56Z</time></trkpt><trkpt lat="44.687198872846515" lon="7.3368622916885755"><ele>1149.0</ele><time>2026-04-07T13:48:57Z</time></trkpt><trkpt lat="44.68711714401108" lon="7.3368272259993805"><ele>1149.0</ele><time>2026-04-07T13:48:58Z</time></trkpt><trkpt lat="44.68705523489601" lon="7.3367831144028495"><ele>1149.0</ele><time>2026-04-07T13:48:59Z</time></trkpt><trkpt lat="44.68695160344339" lon="7.336705780661098"><ele>1149.0</ele><time>2026-04-07T13:49:01Z</time></trkpt><trkpt lat="44.68689063505952" lon="7.336672118823567"><ele>1153.1666666666667</ele><time>2026-04-07T13:49:01.999Z</time></trkpt><trkpt lat="44.686826589663454" lon="7.336654012567689"><ele>1157.3333333333333</ele><time>2026-04-07T13:49:02.999Z</time></trkpt><trkpt lat="44.68671181871438" lon="7.336637811479052"><ele>1161.5</ele><time>2026-04-07T13:49:04.999Z</time></trkpt><trkpt lat="44.68664490070052" lon="7.336638406178923"><ele>1165.6666666666665</ele><time>2026-04-07T13:49:05.999Z</time></trkpt><trkpt lat="44.68657783412228" lon="7.336609314776965"><ele>1169.8333333333333</ele><time>2026-04-07T13:49:06.999Z</time></trkpt><trkpt lat="44.68645002639222" lon="7.33659973302445"><ele>1174.0</ele><time>2026-04-07T13:49:08.999Z</time></trkpt><trkpt lat="44.686348206850134" lon="7.336621338681196"><ele>1174.0</ele><time>2026-04-07T13:49:10.999Z</time></trkpt><trkpt lat="44.68622631112292" lon="7.336623972461077"><ele>1174.0</ele><time>2026-04-07T13:49:12.999Z</time></trkpt><trkpt lat="44.686151793096535" lon="7.336639524285334"><ele>1174.0</ele><time>2026-04-07T13:49:13.999Z</time></trkpt><trkpt lat="44.68606970910335" lon="7.336656664829778"><ele>1174.0</ele><time>2026-04-07T13:49:14.999Z</time></trkpt><trkpt lat="44.68599074992024" lon="7.336677429259079"><ele>1174.0</ele><time>2026-04-07T13:49:15.999Z</time></trkpt><trkpt lat="44.68590992315776" lon="7.336701951728692"><ele>1174.0</ele><time>2026-04-07T13:49:16.999Z</time></trkpt><trkpt lat="44.685840456294386" lon="7.33672992772748"><ele>1176.5714285714287</ele><time>2026-04-07T13:49:17.999Z</time></trkpt><trkpt lat="44.68576285476759" lon="7.336763498632246"><ele>1179.1428571428573</ele><time>2026-04-07T13:49:18.999Z</time></trkpt><trkpt lat="44.68569225621387" lon="7.336799608607605"><ele>1181.7142857142858</ele><time>2026-04-07T13:49:19.999Z</time></trkpt><trkpt lat="44.68563137897153" lon="7.336836816700536"><ele>1184.2857142857142</ele><time>2026-04-07T13:49:20.999Z</time></trkpt><trkpt lat="44.68557401397382" lon="7.336877090615833"><ele>1186.8571428571427</ele><time>2026-04-07T13:49:21.999Z</time></trkpt><trkpt lat="44.685510526834555" lon="7.336947613829751"><ele>1189.4285714285713</ele><time>2026-04-07T13:49:22.999Z</time></trkpt><trkpt lat="44.68545438042224" lon="7.337028224148589"><ele>1192.0</ele><time>2026-04-07T13:49:23.999Z</time></trkpt><trkpt lat="44.68540099859566" lon="7.337114199526055"><ele>1192.0</ele><time>2026-04-07T13:49:24.999Z</time></trkpt><trkpt lat="44.68535727771802" lon="7.337214907363369"><ele>1192.0</ele><time>2026-04-07T13:49:25.999Z</time></trkpt><trkpt lat="44.68528653872182" lon="7.33726877034642"><ele>1192.0</ele><time>2026-04-07T13:49:26.999Z</time></trkpt><trkpt lat="44.685219358127" lon="7.337336656306077"><ele>1192.0</ele><time>2026-04-07T13:49:27.999Z</time></trkpt><trkpt lat="44.68513418228532" lon="7.337421599208563"><ele>1192.0</ele><time>2026-04-07T13:49:29.999Z</time></trkpt><trkpt lat="44.685019418317296" lon="7.337384418490324"><ele>1193.5714285714284</ele><time>2026-04-07T13:49:31.999Z</time></trkpt><trkpt lat="44.684955325369586" lon="7.337346200005411"><ele>1195.142857142857</ele><time>2026-04-07T13:49:32.999Z</time></trkpt><trkpt lat="44.684897690651674" lon="7.337272101993487"><ele>1196.7142857142858</ele><time>2026-04-07T13:49:33.999Z</time></trkpt><trkpt lat="44.68483505591062" lon="7.337212923076011"><ele>1198.2857142857142</ele><time>2026-04-07T13:49:34.999Z</time></trkpt><trkpt lat="44.68476126804361" lon="7.337182280616563"><ele>1199.857142857143</ele><time>2026-04-07T13:49:35.999Z</time></trkpt><trkpt lat="44.684685885508124" lon="7.337164596277796"><ele>1201.4285714285713</ele><time>2026-04-07T13:49:36.999Z</time></trkpt><trkpt lat="44.684621410896405" lon="7.337117752630145"><ele>1203.0</ele><time>2026-04-07T13:49:37.999Z</time></trkpt><trkpt lat="44.68453574629046" lon="7.336986823286446"><ele>1204.5</ele><time>2026-04-07T13:49:39.999Z</time></trkpt><trkpt lat="44.68449224735238" lon="7.336913930347014"><ele>1206.0</ele><time>2026-04-07T13:49:40.999Z</time></trkpt><trkpt lat="44.68444523068213" lon="7.336839656708607"><ele>1207.5</ele><time>2026-04-07T13:49:41.999Z</time></trkpt><trkpt lat="44.68442843618887" lon="7.336702750561727"><ele>1209.0</ele><time>2026-04-07T13:49:43.999Z</time></trkpt><trkpt lat="44.68441203427917" lon="7.336540065121065"><ele>1210.5</ele><time>2026-04-07T13:49:45.999Z</time></trkpt><trkpt lat="44.684422097509405" lon="7.33644960960732"><ele>1212.0</ele><time>2026-04-07T13:49:46.999Z</time></trkpt><trkpt lat="44.684409858097865" lon="7.336347604960776"><ele>1211.6666666666667</ele><time>2026-04-07T13:49:47.999Z</time></trkpt><trkpt lat="44.68441621986719" lon="7.336253159988716"><ele>1211.3333333333333</ele><time>2026-04-07T13:49:48.999Z</time></trkpt><trkpt lat="44.68442554434641" lon="7.33614648254089"><ele>1211.0</ele><time>2026-04-07T13:49:49.999Z</time></trkpt><trkpt lat="44.68443335904959" lon="7.336048474490696"><ele>1210.6666666666665</ele><time>2026-04-07T13:49:50.999Z</time></trkpt><trkpt lat="44.68445220568658" lon="7.3358825351667605"><ele>1210.3333333333333</ele><time>2026-04-07T13:49:52.999Z</time></trkpt><trkpt lat="44.684428304591066" lon="7.335725487515294"><ele>1210.0</ele><time>2026-04-07T13:49:54.999Z</time></trkpt><trkpt lat="44.68438652153537" lon="7.335623283473583"><ele>1213.8333333333333</ele><time>2026-04-07T13:49:56.999Z</time></trkpt><trkpt lat="44.68430623592174" lon="7.335625523791017"><ele>1217.6666666666665</ele><time>2026-04-07T13:49:58.999Z</time></trkpt><trkpt lat="44.68420140297934" lon="7.335692501668306"><ele>1221.5</ele><time>2026-04-07T13:50:01Z</time></trkpt><trkpt lat="44.68414812936051" lon="7.335745333978356"><ele>1225.3333333333333</ele><time>2026-04-07T13:50:02Z</time></trkpt><trkpt lat="44.6841262857547" lon="7.335843442918252"><ele>1229.1666666666667</ele><time>2026-04-07T13:50:03Z</time></trkpt><trkpt lat="44.68409073051583" lon="7.335923604937263"><ele>1233.0</ele><time>2026-04-07T13:50:04Z</time></trkpt><trkpt lat="44.68405029659188" lon="7.335991749398793"><ele>1233.0</ele><time>2026-04-07T13:50:05Z</time></trkpt><trkpt lat="44.68398459817934" lon="7.3361307368023345"><ele>1233.0</ele><time>2026-04-07T13:50:07Z</time></trkpt><trkpt lat="44.68388563867921" lon="7.336225453607081"><ele>1233.0</ele><time>2026-04-07T13:50:09Z</time></trkpt><trkpt lat="44.68382046833149" lon="7.336268745124917"><ele>1233.0</ele><time>2026-04-07T13:50:10Z</time></trkpt><trkpt lat="44.683746646555804" lon="7.336308550023581"><ele>1233.0</ele><time>2026-04-07T13:50:11Z</time></trkpt><trkpt lat="44.68366731567831" lon="7.336358052906023"><ele>1231.857142857143</ele><time>2026-04-07T13:50:12Z</time></trkpt><trkpt lat="44.68359906178877" lon="7.336402588667155"><ele>1230.7142857142858</ele><time>2026-04-07T13:50:13Z</time></trkpt><trkpt lat="44.683545741986514" lon="7.336457035935338"><ele>1229.5714285714284</ele><time>2026-04-07T13:50:14Z</time></trkpt><trkpt lat="44.68348524836076" lon="7.336499820523473"><ele>1228.4285714285716</ele><time>2026-04-07T13:50:15Z</time></trkpt><trkpt lat="44.68341939608604" lon="7.336532412213188"><ele>1227.2857142857142</ele><time>2026-04-07T13:50:16Z</time></trkpt><trkpt lat="44.68335940799281" lon="7.336583794185445"><ele>1226.142857142857</ele><time>2026-04-07T13:50:17Z</time></trkpt><trkpt lat="44.683312030337056" lon="7.336649694079313"><ele>1225.0</ele><time>2026-04-07T13:50:18Z</time></trkpt><trkpt lat="44.68322021619284" lon="7.336730623287598"><ele>1228.0</ele><time>2026-04-07T13:50:20Z</time></trkpt><trkpt lat="44.68313998419192" lon="7.336714784778179"><ele>1231.0</ele><time>2026-04-07T13:50:22Z</time></trkpt><trkpt lat="44.68305430622078" lon="7.336730362894288"><ele>1234.0</ele><time>2026-04-07T13:50:24Z</time></trkpt><trkpt lat="44.68301530198163" lon="7.336825866072708"><ele>1237.0</ele><time>2026-04-07T13:50:25Z</time></trkpt><trkpt lat="44.68294627543658" lon="7.3368999514476565"><ele>1240.0</ele><time>2026-04-07T13:50:27Z</time></trkpt><trkpt lat="44.68301117184615" lon="7.336956664925549"><ele>1243.0</ele><time>2026-04-07T13:54:46Z</time></trkpt><trkpt lat="44.68308583161593" lon="7.3369143000311805"><ele>1243.0</ele><time>2026-04-07T13:54:51Z</time></trkpt><trkpt lat="44.683148333580974" lon="7.336850946872853"><ele>1243.0</ele><time>2026-04-07T13:54:55Z</time></trkpt><trkpt lat="44.68318266090211" lon="7.3367663038994415"><ele>1243.0</ele><time>2026-04-07T13:55:26.999Z</time></trkpt><trkpt lat="44.68325323482257" lon="7.336740392633462"><ele>1243.0</ele><time>2026-04-07T14:01:17Z</time></trkpt><trkpt lat="44.683334456962555" lon="7.3366776408575145"><ele>1243.0</ele><time>2026-04-07T14:01:28Z</time></trkpt><trkpt lat="44.68339260901863" lon="7.336633419606828"><ele>1243.0</ele><time>2026-04-07T14:01:30Z</time></trkpt><trkpt lat="44.68346396687037" lon="7.336568974910241"><ele>1243.0</ele><time>2026-04-07T14:01:32Z</time></trkpt><trkpt lat="44.683539201696775" lon="7.3365159871955745"><ele>1243.0</ele><time>2026-04-07T14:01:34Z</time></trkpt><trkpt lat="44.68361403946706" lon="7.336452733170364"><ele>1243.0</ele><time>2026-04-07T14:01:35.999Z</time></trkpt><trkpt lat="44.68369451754024" lon="7.336417525338419"><ele>1243.0</ele><time>2026-04-07T14:01:37.999Z</time></trkpt><trkpt lat="44.683788977359306" lon="7.3363823742803"><ele>1243.0</ele><time>2026-04-07T14:01:39.999Z</time></trkpt><trkpt lat="44.683884252135755" lon="7.336304287135962"><ele>1241.0</ele><time>2026-04-07T14:01:41.999Z</time></trkpt><trkpt lat="44.68396139133549" lon="7.33624576005879"><ele>1239.0</ele><time>2026-04-07T14:01:43.999Z</time></trkpt><trkpt lat="44.68402103003011" lon="7.336156381594815"><ele>1237.0</ele><time>2026-04-07T14:01:45.999Z</time></trkpt><trkpt lat="44.68405553754691" lon="7.336076691347667"><ele>1235.0</ele><time>2026-04-07T14:01:47.999Z</time></trkpt><trkpt lat="44.68409938661238" lon="7.335977744710784"><ele>1233.0</ele><time>2026-04-07T14:01:50.999Z</time></trkpt><trkpt lat="44.68395389184949" lon="7.3358826486980675"><ele>1233.0</ele><time>2026-04-07T14:01:54.999Z</time></trkpt><trkpt lat="44.683843439436146" lon="7.335794234465393"><ele>1233.0</ele><time>2026-04-07T14:02:07.999Z</time></trkpt><trkpt lat="44.68378674729757" lon="7.335734757256811"><ele>1233.0</ele><time>2026-04-07T14:02:08.999Z</time></trkpt><trkpt lat="44.68373614590685" lon="7.335668869238731"><ele>1233.0</ele><time>2026-04-07T14:02:09.999Z</time></trkpt><trkpt lat="44.68366504723315" lon="7.335620679256848"><ele>1233.0</ele><time>2026-04-07T14:02:10.999Z</time></trkpt><trkpt lat="44.68360331585963" lon="7.335550946130373"><ele>1233.0</ele><time>2026-04-07T14:02:11.999Z</time></trkpt><trkpt lat="44.683550724681176" lon="7.3354962784986855"><ele>1234.0</ele><time>2026-04-07T14:02:12.999Z</time></trkpt><trkpt lat="44.68349195695897" lon="7.335461482519814"><ele>1235.0</ele><time>2026-04-07T14:02:13.999Z</time></trkpt><trkpt lat="44.68343861788847" lon="7.3354109285355635"><ele>1236.0</ele><time>2026-04-07T14:02:14.999Z</time></trkpt><trkpt lat="44.683353558866365" lon="7.335334355984283"><ele>1237.0</ele><time>2026-04-07T14:02:16.999Z</time></trkpt><trkpt lat="44.68327409505373" lon="7.335263712390467"><ele>1238.0</ele><time>2026-04-07T14:02:18.999Z</time></trkpt><trkpt lat="44.68320108780272" lon="7.335214415584512"><ele>1239.0</ele><time>2026-04-07T14:02:20.999Z</time></trkpt><trkpt lat="44.68314332227768" lon="7.335158177697296"><ele>1239.0</ele><time>2026-04-07T14:02:22.999Z</time></trkpt><trkpt lat="44.683083354650684" lon="7.335080064184242"><ele>1239.0</ele><time>2026-04-07T14:02:24.999Z</time></trkpt><trkpt lat="44.683036590961336" lon="7.3350083968447475"><ele>1239.0</ele><time>2026-04-07T14:02:26.999Z</time></trkpt><trkpt lat="44.682959414529" lon="7.334954282774613"><ele>1239.0</ele><time>2026-04-07T14:02:28.999Z</time></trkpt><trkpt lat="44.68286647014321" lon="7.334845348276795"><ele>1239.0</ele><time>2026-04-07T14:02:30.999Z</time></trkpt><trkpt lat="44.6827986041013" lon="7.334777512717179"><ele>1239.0</ele><time>2026-04-07T14:02:31.999Z</time></trkpt><trkpt lat="44.6827435099902" lon="7.334712828645393"><ele>1239.2</ele><time>2026-04-07T14:02:32.999Z</time></trkpt><trkpt lat="44.68264843683126" lon="7.334625224603559"><ele>1239.4</ele><time>2026-04-07T14:02:34.999Z</time></trkpt><trkpt lat="44.68257799710897" lon="7.334563334080894"><ele>1239.6</ele><time>2026-04-07T14:02:37Z</time></trkpt><trkpt lat="44.68249359336" lon="7.334463372823235"><ele>1239.8</ele><time>2026-04-07T14:02:39Z</time></trkpt><trkpt lat="44.6824274832917" lon="7.334351146959794"><ele>1240.0</ele><time>2026-04-07T14:02:41Z</time></trkpt><trkpt lat="44.682374312682725" lon="7.334277452620687"><ele>1240.0</ele><time>2026-04-07T14:02:42Z</time></trkpt><trkpt lat="44.682325765316385" lon="7.334196163842871"><ele>1240.0</ele><time>2026-04-07T14:02:43Z</time></trkpt><trkpt lat="44.68228038861132" lon="7.3341090328487155"><ele>1240.0</ele><time>2026-04-07T14:02:44Z</time></trkpt><trkpt lat="44.68224826411008" lon="7.334021570467546"><ele>1240.0</ele><time>2026-04-07T14:02:45Z</time></trkpt><trkpt lat="44.68221099736156" lon="7.3339177655487875"><ele>1240.0</ele><time>2026-04-07T14:02:46Z</time></trkpt><trkpt lat="44.682168888225206" lon="7.333845680451333"><ele>1240.0</ele><time>2026-04-07T14:02:47Z</time></trkpt><trkpt lat="44.68209491408641" lon="7.333750077684891"><ele>1239.4</ele><time>2026-04-07T14:02:49Z</time></trkpt><trkpt lat="44.681998281587674" lon="7.333656368605887"><ele>1238.8</ele><time>2026-04-07T14:02:51Z</time></trkpt><trkpt lat="44.681923003126805" lon="7.333565542323035"><ele>1238.2</ele><time>2026-04-07T14:02:53Z</time></trkpt><trkpt lat="44.6818122142416" lon="7.333486488227856"><ele>1237.6</ele><time>2026-04-07T14:02:55Z</time></trkpt><trkpt lat="44.681743621894114" lon="7.3334366713268"><ele>1237.0</ele><time>2026-04-07T14:02:56Z</time></trkpt><trkpt lat="44.68166128157174" lon="7.3333782911208365"><ele>1239.2</ele><time>2026-04-07T14:02:57Z</time></trkpt><trkpt lat="44.68159101921256" lon="7.3333029202911755"><ele>1241.4</ele><time>2026-04-07T14:02:58Z</time></trkpt><trkpt lat="44.68149412626936" lon="7.3331961923124895"><ele>1243.6</ele><time>2026-04-07T14:02:59Z</time></trkpt><trkpt lat="44.68140730254149" lon="7.333081904983945"><ele>1245.8</ele><time>2026-04-07T14:03:00Z</time></trkpt><trkpt lat="44.681326875893944" lon="7.332996044217581"><ele>1248.0</ele><time>2026-04-07T14:03:01Z</time></trkpt><trkpt lat="44.68127727937545" lon="7.332926098018443"><ele>1248.0</ele><time>2026-04-07T14:03:02Z</time></trkpt><trkpt lat="44.681224434100784" lon="7.332860126904277"><ele>1248.0</ele><time>2026-04-07T14:03:03Z</time></trkpt><trkpt lat="44.68116614508474" lon="7.332792296788136"><ele>1248.0</ele><time>2026-04-07T14:03:04Z</time></trkpt><trkpt lat="44.68111363249452" lon="7.3327312509384726"><ele>1248.0</ele><time>2026-04-07T14:03:05Z</time></trkpt><trkpt lat="44.681045173472334" lon="7.332621655119772"><ele>1248.0</ele><time>2026-04-07T14:03:07Z</time></trkpt><trkpt lat="44.68096576013691" lon="7.3324906308528695"><ele>1248.0</ele><time>2026-04-07T14:03:09Z</time></trkpt><trkpt lat="44.68089206492871" lon="7.332374468485323"><ele>1247.6666666666667</ele><time>2026-04-07T14:03:11Z</time></trkpt><trkpt lat="44.680777354376545" lon="7.332315779956374"><ele>1247.3333333333333</ele><time>2026-04-07T14:03:13Z</time></trkpt><trkpt lat="44.68068756208676" lon="7.332237399071466"><ele>1247.0</ele><time>2026-04-07T14:03:15Z</time></trkpt><trkpt lat="44.680631824359565" lon="7.3321877108981415"><ele>1246.6666666666665</ele><time>2026-04-07T14:03:17Z</time></trkpt><trkpt lat="44.680548380014386" lon="7.332168210472533"><ele>1246.3333333333333</ele><time>2026-04-07T14:03:19Z</time></trkpt><trkpt lat="44.6804815698667" lon="7.3321590259495055"><ele>1246.0</ele><time>2026-04-07T14:03:22Z</time></trkpt><trkpt lat="44.68039028567862" lon="7.332102894550068"><ele>1246.0</ele><time>2026-04-07T14:03:24Z</time></trkpt><trkpt lat="44.68032183287906" lon="7.3320669867852875"><ele>1246.0</ele><time>2026-04-07T14:03:25Z</time></trkpt><trkpt lat="44.68025769065711" lon="7.332039305310645"><ele>1246.0</ele><time>2026-04-07T14:03:26Z</time></trkpt><trkpt lat="44.680158182091446" lon="7.331987602998105"><ele>1246.0</ele><time>2026-04-07T14:03:28Z</time></trkpt><trkpt lat="44.680056580864836" lon="7.331945356027069"><ele>1246.0</ele><time>2026-04-07T14:03:30Z</time></trkpt><trkpt lat="44.679949646937665" lon="7.331899620158419"><ele>1247.0</ele><time>2026-04-07T14:03:32Z</time></trkpt><trkpt lat="44.679890665495655" lon="7.331865937319778"><ele>1248.0</ele><time>2026-04-07T14:03:33Z</time></trkpt><trkpt lat="44.679822896175295" lon="7.331810795206196"><ele>1249.0</ele><time>2026-04-07T14:03:35Z</time></trkpt><trkpt lat="44.67973603910029" lon="7.33176544501959"><ele>1250.0</ele><time>2026-04-07T14:03:37Z</time></trkpt><trkpt lat="44.67964996317717" lon="7.331743446057465"><ele>1251.0</ele><time>2026-04-07T14:03:39Z</time></trkpt><trkpt lat="44.67954185482885" lon="7.3317223450123254"><ele>1252.0</ele><time>2026-04-07T14:03:41Z</time></trkpt><trkpt lat="44.679455085601276" lon="7.33172074163064"><ele>1251.8</ele><time>2026-04-07T14:03:43Z</time></trkpt><trkpt lat="44.679354285398304" lon="7.331733028555324"><ele>1251.6</ele><time>2026-04-07T14:03:44.999Z</time></trkpt><trkpt lat="44.67921638791955" lon="7.331768995313998"><ele>1251.3999999999999</ele><time>2026-04-07T14:03:46.999Z</time></trkpt><trkpt lat="44.67914915334344" lon="7.331784822942803"><ele>1251.2</ele><time>2026-04-07T14:03:47.999Z</time></trkpt><trkpt lat="44.67903556421985" lon="7.331840984604345"><ele>1251.0</ele><time>2026-04-07T14:03:49.999Z</time></trkpt><trkpt lat="44.678955296115284" lon="7.331875692205671"><ele>1251.0</ele><time>2026-04-07T14:03:51.999Z</time></trkpt><trkpt lat="44.678878523836566" lon="7.3319014864233285"><ele>1251.0</ele><time>2026-04-07T14:03:53.999Z</time></trkpt><trkpt lat="44.67879741947676" lon="7.331964312197536"><ele>1251.0</ele><time>2026-04-07T14:03:55.999Z</time></trkpt><trkpt lat="44.678706808317244" lon="7.331981540392418"><ele>1251.0</ele><time>2026-04-07T14:03:57.999Z</time></trkpt><trkpt lat="44.67862215431386" lon="7.332014185507602"><ele>1251.0</ele><time>2026-04-07T14:04:08.999Z</time></trkpt><trkpt lat="44.6786624064913" lon="7.332139409683612"><ele>1251.0</ele><time>2026-04-07T14:04:11.999Z</time></trkpt><trkpt lat="44.678729853281844" lon="7.332238415225672"><ele>1252.0</ele><time>2026-04-07T14:04:13.999Z</time></trkpt><trkpt lat="44.67879829474445" lon="7.3323480272261135"><ele>1253.0</ele><time>2026-04-07T14:04:15.999Z</time></trkpt><trkpt lat="44.67886899817152" lon="7.332451800878406"><ele>1254.0</ele><time>2026-04-07T14:04:17.999Z</time></trkpt><trkpt lat="44.67897984927974" lon="7.33249464131343"><ele>1255.0</ele><time>2026-04-07T14:04:19.999Z</time></trkpt><trkpt lat="44.67907439922669" lon="7.332565523617567"><ele>1256.0</ele><time>2026-04-07T14:04:21.999Z</time></trkpt><trkpt lat="44.67908657853194" lon="7.332693082418089"><ele>1256.0</ele><time>2026-04-07T14:04:23.999Z</time></trkpt><trkpt lat="44.679095597648725" lon="7.332783240047444"><ele>1256.0</ele><time>2026-04-07T14:04:24.999Z</time></trkpt><trkpt lat="44.67913629686007" lon="7.332928938335933"><ele>1256.0</ele><time>2026-04-07T14:04:26.999Z</time></trkpt><trkpt lat="44.67920495973277" lon="7.333023796549047"><ele>1256.0</ele><time>2026-04-07T14:04:28.999Z</time></trkpt><trkpt lat="44.67925919759614" lon="7.333084698607524"><ele>1256.0</ele><time>2026-04-07T14:04:29.999Z</time></trkpt><trkpt lat="44.67930931343131" lon="7.333145688954803"><ele>1256.0</ele><time>2026-04-07T14:04:30.999Z</time></trkpt><trkpt lat="44.679356052669576" lon="7.333211247426591"><ele>1257.1666666666667</ele><time>2026-04-07T14:04:31.999Z</time></trkpt><trkpt lat="44.67943667605186" lon="7.33334910473349"><ele>1258.3333333333335</ele><time>2026-04-07T14:04:33.999Z</time></trkpt><trkpt lat="44.67948325114388" lon="7.33343658439621"><ele>1259.5</ele><time>2026-04-07T14:04:34.999Z</time></trkpt><trkpt lat="44.679527390624905" lon="7.3335205469412985"><ele>1260.6666666666667</ele><time>2026-04-07T14:04:35.999Z</time></trkpt><trkpt lat="44.67957478425399" lon="7.333609157156039"><ele>1261.8333333333333</ele><time>2026-04-07T14:04:36.999Z</time></trkpt><trkpt lat="44.679622195693135" lon="7.333689079042969"><ele>1263.0</ele><time>2026-04-07T14:04:37.999Z</time></trkpt><trkpt lat="44.6796729266433" lon="7.333775777880849"><ele>1262.9999999999998</ele><time>2026-04-07T14:04:38.999Z</time></trkpt><trkpt lat="44.67972447893496" lon="7.333857021803684"><ele>1263.0</ele><time>2026-04-07T14:04:39.999Z</time></trkpt><trkpt lat="44.67977350551396" lon="7.333937200103146"><ele>1263.0</ele><time>2026-04-07T14:04:40.999Z</time></trkpt><trkpt lat="44.6798247702875" lon="7.33401447664491"><ele>1263.0</ele><time>2026-04-07T14:04:42Z</time></trkpt><trkpt lat="44.679880689294116" lon="7.334087791848692"><ele>1263.0</ele><time>2026-04-07T14:04:43Z</time></trkpt><trkpt lat="44.67993162934477" lon="7.334167138283247"><ele>1262.9999999999998</ele><time>2026-04-07T14:04:44Z</time></trkpt><trkpt lat="44.679970383464486" lon="7.334242163746441"><ele>1263.0</ele><time>2026-04-07T14:04:45Z</time></trkpt><trkpt lat="44.680004440787656" lon="7.33433786033658"><ele>1263.3333333333333</ele><time>2026-04-07T14:04:46Z</time></trkpt><trkpt lat="44.68004258063926" lon="7.334434864013434"><ele>1263.6666666666667</ele><time>2026-04-07T14:04:47Z</time></trkpt><trkpt lat="44.6800840066918" lon="7.334543368890585"><ele>1264.0</ele><time>2026-04-07T14:04:48Z</time></trkpt><trkpt lat="44.68011831482907" lon="7.334648485213751"><ele>1264.3333333333335</ele><time>2026-04-07T14:04:49Z</time></trkpt><trkpt lat="44.68015491494183" lon="7.334746850788393"><ele>1264.6666666666667</ele><time>2026-04-07T14:04:50Z</time></trkpt><trkpt lat="44.68020776960755" lon="7.334899932177204"><ele>1265.0</ele><time>2026-04-07T14:04:52Z</time></trkpt><trkpt lat="44.68024282753062" lon="7.335011704894632"><ele>1266.6</ele><time>2026-04-07T14:04:54Z</time></trkpt><trkpt lat="44.68027839214433" lon="7.3351436845337465"><ele>1268.2</ele><time>2026-04-07T14:04:56Z</time></trkpt><trkpt lat="44.680310875750195" lon="7.33526206883393"><ele>1269.8</ele><time>2026-04-07T14:04:58Z</time></trkpt><trkpt lat="44.68035108336091" lon="7.335359268786724"><ele>1271.4</ele><time>2026-04-07T14:05:00Z</time></trkpt><trkpt lat="44.68043676668837" lon="7.335399826721662"><ele>1273.0</ele><time>2026-04-07T14:05:02Z</time></trkpt><trkpt lat="44.680509314424334" lon="7.335482802851054"><ele>1273.7142857142858</ele><time>2026-04-07T14:05:04Z</time></trkpt><trkpt lat="44.68053694662739" lon="7.335564818425369"><ele>1274.4285714285716</ele><time>2026-04-07T14:05:05Z</time></trkpt><trkpt lat="44.68057728748365" lon="7.335638786278846"><ele>1275.1428571428573</ele><time>2026-04-07T14:05:06Z</time></trkpt><trkpt lat="44.68062614949407" lon="7.335725184439077"><ele>1275.857142857143</ele><time>2026-04-07T14:05:07Z</time></trkpt><trkpt lat="44.68066580402854" lon="7.335825111244985"><ele>1276.5714285714287</ele><time>2026-04-07T14:05:08Z</time></trkpt><trkpt lat="44.68068445762242" lon="7.335927892994709"><ele>1277.2857142857144</ele><time>2026-04-07T14:05:09Z</time></trkpt><trkpt lat="44.68069767554102" lon="7.336018400818686"><ele>1278.0</ele><time>2026-04-07T14:05:10Z</time></trkpt><trkpt lat="44.68072275218598" lon="7.336207194766703"><ele>1278.0</ele><time>2026-04-07T14:05:12Z</time></trkpt><trkpt lat="44.68075345632576" lon="7.336328192640208"><ele>1278.0</ele><time>2026-04-07T14:05:13Z</time></trkpt><trkpt lat="44.68078560681278" lon="7.336436482881357"><ele>1278.0</ele><time>2026-04-07T14:05:14Z</time></trkpt><trkpt lat="44.680829565691305" lon="7.336549491484705"><ele>1278.0</ele><time>2026-04-07T14:05:15Z</time></trkpt><trkpt lat="44.68086816965659" lon="7.336646458216447"><ele>1278.0</ele><time>2026-04-07T14:05:16Z</time></trkpt><trkpt lat="44.680906480392245" lon="7.336740599624568"><ele>1278.0</ele><time>2026-04-07T14:05:17Z</time></trkpt><trkpt lat="44.6809469837987" lon="7.336832693282688"><ele>1278.5</ele><time>2026-04-07T14:05:18Z</time></trkpt><trkpt lat="44.68097994929791" lon="7.336927905791726"><ele>1279.0</ele><time>2026-04-07T14:05:19Z</time></trkpt><trkpt lat="44.68100039697533" lon="7.337030998189425"><ele>1279.5</ele><time>2026-04-07T14:05:20Z</time></trkpt><trkpt lat="44.68100351088753" lon="7.337132683995672"><ele>1280.0</ele><time>2026-04-07T14:05:21Z</time></trkpt><trkpt lat="44.68096254751094" lon="7.337304913885684"><ele>1280.5</ele><time>2026-04-07T14:05:23Z</time></trkpt><trkpt lat="44.68094695768805" lon="7.337420565502858"><ele>1281.0</ele><time>2026-04-07T14:05:24Z</time></trkpt><trkpt lat="44.680940029845466" lon="7.337552193083482"><ele>1282.0</ele><time>2026-04-07T14:05:25Z</time></trkpt><trkpt lat="44.680934731122484" lon="7.33768452045842"><ele>1283.0</ele><time>2026-04-07T14:05:26Z</time></trkpt><trkpt lat="44.680916974645676" lon="7.337792819306317"><ele>1284.0</ele><time>2026-04-07T14:05:27Z</time></trkpt><trkpt lat="44.68090571476422" lon="7.3379464709158455"><ele>1285.0</ele><time>2026-04-07T14:05:29Z</time></trkpt><trkpt lat="44.68092104680057" lon="7.3380423701935955"><ele>1286.0</ele><time>2026-04-07T14:05:30Z</time></trkpt><trkpt lat="44.6809669615428" lon="7.3381233853306735"><ele>1287.0</ele><time>2026-04-07T14:05:31Z</time></trkpt><trkpt lat="44.68100020531704" lon="7.338200028946388"><ele>1287.4285714285713</ele><time>2026-04-07T14:05:32Z</time></trkpt><trkpt lat="44.681039341498405" lon="7.33829309688494"><ele>1287.857142857143</ele><time>2026-04-07T14:05:34Z</time></trkpt><trkpt lat="44.68107622240997" lon="7.338368174710259"><ele>1288.2857142857142</ele><time>2026-04-07T14:05:36Z</time></trkpt><trkpt lat="44.68108535873637" lon="7.338487757022627"><ele>1288.7142857142858</ele><time>2026-04-07T14:06:32.999Z</time></trkpt><trkpt lat="44.68104320997979" lon="7.338558536916923"><ele>1289.142857142857</ele><time>2026-04-07T14:06:43.999Z</time></trkpt><trkpt lat="44.68101333829103" lon="7.338643904849419"><ele>1289.5714285714287</ele><time>2026-04-07T14:06:53Z</time></trkpt><trkpt lat="44.68099145993904" lon="7.338732161847132"><ele>1290.0</ele><time>2026-04-07T14:07:05Z</time></trkpt><trkpt lat="44.68094940037571" lon="7.338802328712701"><ele>1290.0</ele><time>2026-04-07T14:07:14Z</time></trkpt><trkpt lat="44.680913248446025" lon="7.338881174778131"><ele>1290.0</ele><time>2026-04-07T14:07:44Z</time></trkpt><trkpt lat="44.68090264252451" lon="7.33897074582434"><ele>1290.0</ele><time>2026-04-07T14:07:48Z</time></trkpt><trkpt lat="44.68089485315633" lon="7.3388784407729775"><ele>1290.0</ele><time>2026-04-07T14:10:54.999Z</time></trkpt><trkpt lat="44.68094890392083" lon="7.338827794398916"><ele>1290.0</ele><time>2026-04-07T14:11:17Z</time></trkpt><trkpt lat="44.680999486468544" lon="7.3387576818789135"><ele>1290.0</ele><time>2026-04-07T14:11:26Z</time></trkpt><trkpt lat="44.68101731087068" lon="7.338664709377506"><ele>1290.0</ele><time>2026-04-07T14:11:36Z</time></trkpt><trkpt lat="44.68105215657266" lon="7.338572472546655"><ele>1290.0</ele><time>2026-04-07T14:11:44Z</time></trkpt><trkpt lat="44.68108974081658" lon="7.338495736128364"><ele>1290.0</ele><time>2026-04-07T14:11:51Z</time></trkpt><trkpt lat="44.68106469177088" lon="7.338383532759043"><ele>1290.0</ele><time>2026-04-07T14:15:47Z</time></trkpt><trkpt lat="44.681021663494576" lon="7.338306495692987"><ele>1290.0</ele><time>2026-04-07T14:15:49Z</time></trkpt><trkpt lat="44.68098679929314" lon="7.3382225482933565"><ele>1290.0</ele><time>2026-04-07T14:15:51Z</time></trkpt><trkpt lat="44.68095165505947" lon="7.33810465228472"><ele>1290.0</ele><time>2026-04-07T14:15:54Z</time></trkpt><trkpt lat="44.680920020239675" lon="7.338005169942249"><ele>1289.4</ele><time>2026-04-07T14:15:56Z</time></trkpt><trkpt lat="44.68089415295642" lon="7.3378973185162515"><ele>1288.8</ele><time>2026-04-07T14:15:58Z</time></trkpt><trkpt lat="44.68090486090096" lon="7.337781397446632"><ele>1288.1999999999998</ele><time>2026-04-07T14:16:00Z</time></trkpt><trkpt lat="44.680928687058945" lon="7.337655876760199"><ele>1287.6</ele><time>2026-04-07T14:16:02Z</time></trkpt><trkpt lat="44.680949831223415" lon="7.337510259799959"><ele>1287.0</ele><time>2026-04-07T14:16:04Z</time></trkpt><trkpt lat="44.68095372582765" lon="7.33736417769713"><ele>1287.0</ele><time>2026-04-07T14:16:06Z</time></trkpt><trkpt lat="44.68096928298181" lon="7.337228606636026"><ele>1287.0</ele><time>2026-04-07T14:16:08Z</time></trkpt><trkpt lat="44.681002148637475" lon="7.337104585352427"><ele>1287.0</ele><time>2026-04-07T14:16:10Z</time></trkpt><trkpt lat="44.6809876995601" lon="7.336945687119155"><ele>1287.0</ele><time>2026-04-07T14:16:12Z</time></trkpt><trkpt lat="44.68094683438728" lon="7.336786519295584"><ele>1287.0</ele><time>2026-04-07T14:16:14Z</time></trkpt><trkpt lat="44.6809124428369" lon="7.336697993573788"><ele>1285.8</ele><time>2026-04-07T14:16:15Z</time></trkpt><trkpt lat="44.68085819412377" lon="7.3366082998028945"><ele>1284.6</ele><time>2026-04-07T14:16:16Z</time></trkpt><trkpt lat="44.68082813244965" lon="7.336526002666999"><ele>1283.3999999999999</ele><time>2026-04-07T14:16:17Z</time></trkpt><trkpt lat="44.68077660779803" lon="7.33638111930476"><ele>1282.1999999999998</ele><time>2026-04-07T14:16:19Z</time></trkpt><trkpt lat="44.680745717715574" lon="7.336239707540566"><ele>1281.0</ele><time>2026-04-07T14:16:21Z</time></trkpt><trkpt lat="44.68070601185201" lon="7.336091695162399"><ele>1280.25</ele><time>2026-04-07T14:16:23Z</time></trkpt><trkpt lat="44.680682453152066" lon="7.335922585552522"><ele>1279.5</ele><time>2026-04-07T14:16:25Z</time></trkpt><trkpt lat="44.68066946108107" lon="7.3357707950235715"><ele>1278.75</ele><time>2026-04-07T14:16:27Z</time></trkpt><trkpt lat="44.680600276155" lon="7.335643841751846"><ele>1278.0</ele><time>2026-04-07T14:16:29Z</time></trkpt><trkpt lat="44.680527631216336" lon="7.335526713381769"><ele>1277.1666666666667</ele><time>2026-04-07T14:16:31Z</time></trkpt><trkpt lat="44.68047150461727" lon="7.335436481968081"><ele>1276.3333333333333</ele><time>2026-04-07T14:16:33Z</time></trkpt><trkpt lat="44.68041152925136" lon="7.335366079883995"><ele>1275.5</ele><time>2026-04-07T14:16:35Z</time></trkpt><trkpt lat="44.68034338376917" lon="7.335335391170887"><ele>1274.6666666666665</ele><time>2026-04-07T14:16:37Z</time></trkpt><trkpt lat="44.680318405984536" lon="7.335248756578865"><ele>1273.8333333333333</ele><time>2026-04-07T14:16:39Z</time></trkpt><trkpt lat="44.68028301833391" lon="7.335128812400352"><ele>1273.0</ele><time>2026-04-07T14:16:41Z</time></trkpt><trkpt lat="44.680236322953554" lon="7.335002978067021"><ele>1271.4</ele><time>2026-04-07T14:16:42.999Z</time></trkpt><trkpt lat="44.680193043566796" lon="7.334874689038973"><ele>1269.8</ele><time>2026-04-07T14:16:44.999Z</time></trkpt><trkpt lat="44.68015555965743" lon="7.3347583269721"><ele>1268.2</ele><time>2026-04-07T14:16:46.999Z</time></trkpt><trkpt lat="44.68011840119967" lon="7.334633727296769"><ele>1266.6</ele><time>2026-04-07T14:16:48.999Z</time></trkpt><trkpt lat="44.6800634159533" lon="7.334487258650752"><ele>1265.0</ele><time>2026-04-07T14:16:50.999Z</time></trkpt><trkpt lat="44.68000745122224" lon="7.334333406430952"><ele>1265.0</ele><time>2026-04-07T14:16:52.999Z</time></trkpt><trkpt lat="44.679961052380584" lon="7.334202298235767"><ele>1265.0</ele><time>2026-04-07T14:16:54.999Z</time></trkpt><trkpt lat="44.67988457945404" lon="7.334060759551546"><ele>1265.0</ele><time>2026-04-07T14:16:56.999Z</time></trkpt><trkpt lat="44.67983219926454" lon="7.333993260661708"><ele>1265.0</ele><time>2026-04-07T14:16:57.999Z</time></trkpt><trkpt lat="44.67977721477137" lon="7.333933598010291"><ele>1265.0</ele><time>2026-04-07T14:16:58.999Z</time></trkpt><trkpt lat="44.67972860372967" lon="7.3338671077357445"><ele>1265.0</ele><time>2026-04-07T14:16:59.999Z</time></trkpt><trkpt lat="44.679682886485104" lon="7.333785613217973"><ele>1264.7142857142856</ele><time>2026-04-07T14:17:00.999Z</time></trkpt><trkpt lat="44.67963542262225" lon="7.333704921868703"><ele>1264.4285714285716</ele><time>2026-04-07T14:17:01.999Z</time></trkpt><trkpt lat="44.679592445739125" lon="7.3336328380198434"><ele>1264.142857142857</ele><time>2026-04-07T14:17:02.999Z</time></trkpt><trkpt lat="44.67955178152454" lon="7.3335504550208235"><ele>1263.8571428571427</ele><time>2026-04-07T14:17:03.999Z</time></trkpt><trkpt lat="44.67950326944316" lon="7.333469838675717"><ele>1263.5714285714284</ele><time>2026-04-07T14:17:04.999Z</time></trkpt><trkpt lat="44.67945498570703" lon="7.3333950343701115"><ele>1263.2857142857142</ele><time>2026-04-07T14:17:05.999Z</time></trkpt><trkpt lat="44.679409778713236" lon="7.33332465118139"><ele>1263.0</ele><time>2026-04-07T14:17:06.999Z</time></trkpt><trkpt lat="44.679339540078914" lon="7.333189869501425"><ele>1261.8333333333333</ele><time>2026-04-07T14:17:08.999Z</time></trkpt><trkpt lat="44.67928158342723" lon="7.3330663225524475"><ele>1260.6666666666667</ele><time>2026-04-07T14:17:10.999Z</time></trkpt><trkpt lat="44.67920755149072" lon="7.332970505910667"><ele>1259.5</ele><time>2026-04-07T14:17:12.999Z</time></trkpt><trkpt lat="44.679151609813644" lon="7.33289401512591"><ele>1258.3333333333335</ele><time>2026-04-07T14:17:14.999Z</time></trkpt><trkpt lat="44.67910094207782" lon="7.332791752078974"><ele>1257.1666666666667</ele><time>2026-04-07T14:17:18Z</time></trkpt><trkpt lat="44.679087042949135" lon="7.332690931854106"><ele>1256.0</ele><time>2026-04-07T14:17:20Z</time></trkpt><trkpt lat="44.67908130279307" lon="7.332566649781888"><ele>1256.0</ele><time>2026-04-07T14:17:22Z</time></trkpt><trkpt lat="44.67901412777676" lon="7.332465213289678"><ele>1256.0</ele><time>2026-04-07T14:17:24Z</time></trkpt><trkpt lat="44.678953052003635" lon="7.332437864093087"><ele>1256.0</ele><time>2026-04-07T14:17:25Z</time></trkpt><trkpt lat="44.67884192564273" lon="7.332408732030094"><ele>1256.0</ele><time>2026-04-07T14:17:27Z</time></trkpt><trkpt lat="44.678775535307544" lon="7.332307817059729"><ele>1256.0</ele><time>2026-04-07T14:17:29Z</time></trkpt><trkpt lat="44.67871955331246" lon="7.33219236585126"><ele>1255.1666666666667</ele><time>2026-04-07T14:17:31Z</time></trkpt><trkpt lat="44.67866340089993" lon="7.3320952797499"><ele>1254.3333333333335</ele><time>2026-04-07T14:17:33Z</time></trkpt><trkpt lat="44.67863282427475" lon="7.3319942684513135"><ele>1253.5</ele><time>2026-04-07T14:17:36Z</time></trkpt><trkpt lat="44.678635967729775" lon="7.331900536388319"><ele>1252.6666666666667</ele><time>2026-04-07T14:18:17Z</time></trkpt><trkpt lat="44.678721158246795" lon="7.331880523864673"><ele>1251.8333333333333</ele><time>2026-04-07T14:18:19Z</time></trkpt><trkpt lat="44.67878648146391" lon="7.331923520898693"><ele>1251.0</ele><time>2026-04-07T14:18:21Z</time></trkpt><trkpt lat="44.67885609156589" lon="7.331902079355697"><ele>1251.0</ele><time>2026-04-07T14:18:23Z</time></trkpt><trkpt lat="44.678938571764434" lon="7.331879078194451"><ele>1251.0</ele><time>2026-04-07T14:18:25Z</time></trkpt><trkpt lat="44.679034670105295" lon="7.331842076940776"><ele>1251.0</ele><time>2026-04-07T14:18:27Z</time></trkpt><trkpt lat="44.67913467932426" lon="7.33179685673108"><ele>1251.0</ele><time>2026-04-07T14:18:29Z</time></trkpt><trkpt lat="44.67919616060382" lon="7.331775304650969"><ele>1251.0</ele><time>2026-04-07T14:18:30Z</time></trkpt><trkpt lat="44.67933148145507" lon="7.33174031868697"><ele>1251.0</ele><time>2026-04-07T14:18:32Z</time></trkpt><trkpt lat="44.67939759571322" lon="7.331735165391786"><ele>1251.0</ele><time>2026-04-07T14:18:33Z</time></trkpt><trkpt lat="44.67946576125581" lon="7.331738913877078"><ele>1251.0</ele><time>2026-04-07T14:18:34Z</time></trkpt><trkpt lat="44.67956723183782" lon="7.331752803606806"><ele>1251.0</ele><time>2026-04-07T14:18:36Z</time></trkpt><trkpt lat="44.67963583663198" lon="7.331781068750288"><ele>1251.0</ele><time>2026-04-07T14:18:38Z</time></trkpt><trkpt lat="44.67972399381481" lon="7.331823154893557"><ele>1251.0</ele><time>2026-04-07T14:18:40Z</time></trkpt><trkpt lat="44.6798239146868" lon="7.331859625565121"><ele>1251.1666666666667</ele><time>2026-04-07T14:18:42Z</time></trkpt><trkpt lat="44.6798937361615" lon="7.33189524045616"><ele>1251.3333333333333</ele><time>2026-04-07T14:18:43Z</time></trkpt><trkpt lat="44.679987271578945" lon="7.33193474162222"><ele>1251.5</ele><time>2026-04-07T14:18:45Z</time></trkpt><trkpt lat="44.68005660284236" lon="7.331976267077182"><ele>1251.6666666666665</ele><time>2026-04-07T14:18:47Z</time></trkpt><trkpt lat="44.6801383180082" lon="7.332008029011939"><ele>1251.8333333333333</ele><time>2026-04-07T14:18:49Z</time></trkpt><trkpt lat="44.68021768329252" lon="7.3320404098389425"><ele>1252.0</ele><time>2026-04-07T14:18:50.999Z</time></trkpt><trkpt lat="44.6803103923913" lon="7.332081012869959"><ele>1251.8</ele><time>2026-04-07T14:18:52.999Z</time></trkpt><trkpt lat="44.68040238137573" lon="7.332136866056565"><ele>1251.6</ele><time>2026-04-07T14:18:54.999Z</time></trkpt><trkpt lat="44.68047910654089" lon="7.332165417537758"><ele>1251.3999999999999</ele><time>2026-04-07T14:18:56.999Z</time></trkpt><trkpt lat="44.680576875009265" lon="7.332201764863072"><ele>1251.2</ele><time>2026-04-07T14:18:58.999Z</time></trkpt><trkpt lat="44.680672815769455" lon="7.332248518434065"><ele>1251.0</ele><time>2026-04-07T14:19:00.999Z</time></trkpt><trkpt lat="44.680758161682355" lon="7.332308273667939"><ele>1251.0</ele><time>2026-04-07T14:19:02.999Z</time></trkpt><trkpt lat="44.68084704622933" lon="7.3323666095806335"><ele>1251.0</ele><time>2026-04-07T14:19:04.999Z</time></trkpt><trkpt lat="44.680931715026745" lon="7.332448811637213"><ele>1251.0</ele><time>2026-04-07T14:19:06.999Z</time></trkpt><trkpt lat="44.680972481739055" lon="7.332521469655306"><ele>1251.0</ele><time>2026-04-07T14:19:07.999Z</time></trkpt><trkpt lat="44.68101852580616" lon="7.332586453539739"><ele>1251.0</ele><time>2026-04-07T14:19:08.999Z</time></trkpt><trkpt lat="44.6810863707714" lon="7.332699537603614"><ele>1251.0</ele><time>2026-04-07T14:19:10.999Z</time></trkpt><trkpt lat="44.68119971775353" lon="7.332824858071146"><ele>1250.5</ele><time>2026-04-07T14:19:12.999Z</time></trkpt><trkpt lat="44.68124864676131" lon="7.332898896924619"><ele>1250.0</ele><time>2026-04-07T14:19:13.999Z</time></trkpt><trkpt lat="44.68132077596965" lon="7.332989290858862"><ele>1249.5</ele><time>2026-04-07T14:19:14.999Z</time></trkpt><trkpt lat="44.68139262389463" lon="7.33306527379971"><ele>1249.0</ele><time>2026-04-07T14:19:15.999Z</time></trkpt><trkpt lat="44.681456501755726" lon="7.33314948282697"><ele>1248.5</ele><time>2026-04-07T14:19:16.999Z</time></trkpt><trkpt lat="44.68151311523915" lon="7.333222809124196"><ele>1248.0</ele><time>2026-04-07T14:19:17.999Z</time></trkpt><trkpt lat="44.68162548436057" lon="7.333339651848688"><ele>1248.0</ele><time>2026-04-07T14:19:19.999Z</time></trkpt><trkpt lat="44.68168471179405" lon="7.33339538460053"><ele>1248.0</ele><time>2026-04-07T14:19:20.999Z</time></trkpt><trkpt lat="44.68174141336633" lon="7.333436022492314"><ele>1248.0</ele><time>2026-04-07T14:19:21.999Z</time></trkpt><trkpt lat="44.68183679591774" lon="7.33348437373424"><ele>1248.0</ele><time>2026-04-07T14:19:24Z</time></trkpt><trkpt lat="44.68190789217844" lon="7.333537856569586"><ele>1248.0</ele><time>2026-04-07T14:19:26Z</time></trkpt><trkpt lat="44.68197692790084" lon="7.333624104562408"><ele>1248.0</ele><time>2026-04-07T14:19:28Z</time></trkpt><trkpt lat="44.682010940342806" lon="7.333699731385212"><ele>1245.3333333333333</ele><time>2026-04-07T14:19:30Z</time></trkpt><trkpt lat="44.68207359133894" lon="7.333757617762933"><ele>1242.6666666666665</ele><time>2026-04-07T14:19:33Z</time></trkpt><trkpt lat="44.68227695794911" lon="7.334097095261119"><ele>1240.0</ele><time>2026-04-07T14:19:36Z</time></trkpt><trkpt lat="44.68230355981763" lon="7.334182014390721"><ele>1240.0</ele><time>2026-04-07T14:19:37Z</time></trkpt><trkpt lat="44.6823871170902" lon="7.334298944487862"><ele>1240.0</ele><time>2026-04-07T14:19:39Z</time></trkpt><trkpt lat="44.68248206521198" lon="7.334415681266595"><ele>1240.0</ele><time>2026-04-07T14:19:41Z</time></trkpt><trkpt lat="44.68254584112316" lon="7.334523426378164"><ele>1240.0</ele><time>2026-04-07T14:19:43Z</time></trkpt><trkpt lat="44.6826136208716" lon="7.334608996249014"><ele>1240.0</ele><time>2026-04-07T14:19:45Z</time></trkpt><trkpt lat="44.68271729591795" lon="7.3347348195424535"><ele>1239.8333333333333</ele><time>2026-04-07T14:19:47Z</time></trkpt><trkpt lat="44.682790958180625" lon="7.334790998313154"><ele>1239.6666666666665</ele><time>2026-04-07T14:19:48Z</time></trkpt><trkpt lat="44.682867745383945" lon="7.334885458309946"><ele>1239.5</ele><time>2026-04-07T14:19:49Z</time></trkpt><trkpt lat="44.6829298333689" lon="7.334931644757289"><ele>1239.3333333333333</ele><time>2026-04-07T14:19:50Z</time></trkpt><trkpt lat="44.68300807354756" lon="7.334983853096791"><ele>1239.1666666666667</ele><time>2026-04-07T14:19:53Z</time></trkpt><trkpt lat="44.68307235451036" lon="7.335048566225092"><ele>1239.0</ele><time>2026-04-07T14:19:55Z</time></trkpt><trkpt lat="44.68313192771855" lon="7.335103352330379"><ele>1239.0</ele><time>2026-04-07T14:19:57Z</time></trkpt><trkpt lat="44.68318767575511" lon="7.33517383022086"><ele>1239.0</ele><time>2026-04-07T14:19:59Z</time></trkpt><trkpt lat="44.68324177749817" lon="7.335246230064554"><ele>1239.0</ele><time>2026-04-07T14:20:00Z</time></trkpt><trkpt lat="44.68330368139037" lon="7.335308900825253"><ele>1239.0</ele><time>2026-04-07T14:20:01Z</time></trkpt><trkpt lat="44.68340821802844" lon="7.33539222875773"><ele>1239.0</ele><time>2026-04-07T14:20:03Z</time></trkpt><trkpt lat="44.68347963454852" lon="7.335426422026836"><ele>1239.0</ele><time>2026-04-07T14:20:04Z</time></trkpt><trkpt lat="44.683530488852135" lon="7.335492372662498"><ele>1239.0</ele><time>2026-04-07T14:20:05Z</time></trkpt><trkpt lat="44.683591919314246" lon="7.335546655460764"><ele>1239.0</ele><time>2026-04-07T14:20:06Z</time></trkpt><trkpt lat="44.6836867009715" lon="7.3356429494878155"><ele>1239.0</ele><time>2026-04-07T14:20:08Z</time></trkpt><trkpt lat="44.683753504369044" lon="7.335713632867319"><ele>1239.0</ele><time>2026-04-07T14:20:09Z</time></trkpt><trkpt lat="44.683805855427586" lon="7.335780314908138"><ele>1239.0</ele><time>2026-04-07T14:20:10Z</time></trkpt><trkpt lat="44.68389957728538" lon="7.335865457224709"><ele>1237.8</ele><time>2026-04-07T14:20:12Z</time></trkpt><trkpt lat="44.68399152250362" lon="7.3359415040207105"><ele>1236.6000000000001</ele><time>2026-04-07T14:20:14Z</time></trkpt><trkpt lat="44.684075074346836" lon="7.335924780525732"><ele>1235.4</ele><time>2026-04-07T14:20:16Z</time></trkpt><trkpt lat="44.68412822205403" lon="7.33582891077871"><ele>1234.2</ele><time>2026-04-07T14:20:18Z</time></trkpt><trkpt lat="44.68417276558576" lon="7.335726401201796"><ele>1233.0</ele><time>2026-04-07T14:20:20Z</time></trkpt><trkpt lat="44.684254440355275" lon="7.335668204078373"><ele>1233.0</ele><time>2026-04-07T14:20:22Z</time></trkpt><trkpt lat="44.68434872319419" lon="7.335664736084822"><ele>1233.0</ele><time>2026-04-07T14:20:24Z</time></trkpt><trkpt lat="44.68442698135362" lon="7.335698427467045"><ele>1233.0</ele><time>2026-04-07T14:20:26Z</time></trkpt><trkpt lat="44.68443908591823" lon="7.335810869896676"><ele>1233.0</ele><time>2026-04-07T14:20:28Z</time></trkpt><trkpt lat="44.68444912778225" lon="7.33593028907012"><ele>1233.0</ele><time>2026-04-07T14:20:30Z</time></trkpt><trkpt lat="44.68445028734779" lon="7.33605723151034"><ele>1233.0</ele><time>2026-04-07T14:20:32Z</time></trkpt><trkpt lat="44.684440344624335" lon="7.3361787349690735"><ele>1231.6666666666667</ele><time>2026-04-07T14:20:34Z</time></trkpt><trkpt lat="44.684439774192086" lon="7.336297280249612"><ele>1230.3333333333333</ele><time>2026-04-07T14:20:36Z</time></trkpt><trkpt lat="44.68443878517753" lon="7.336412149632421"><ele>1229.0</ele><time>2026-04-07T14:20:38Z</time></trkpt><trkpt lat="44.68441322949204" lon="7.336535700812854"><ele>1227.6666666666665</ele><time>2026-04-07T14:20:40Z</time></trkpt><trkpt lat="44.68442666654296" lon="7.33664998811289"><ele>1226.3333333333333</ele><time>2026-04-07T14:20:42Z</time></trkpt><trkpt lat="44.68442918321026" lon="7.336751400030052"><ele>1225.0</ele><time>2026-04-07T14:20:44Z</time></trkpt><trkpt lat="44.68445910503814" lon="7.336878104814858"><ele>1222.8333333333333</ele><time>2026-04-07T14:20:46Z</time></trkpt><trkpt lat="44.68452130865342" lon="7.336975724604097"><ele>1220.6666666666665</ele><time>2026-04-07T14:20:48Z</time></trkpt><trkpt lat="44.68455673060884" lon="7.337056752533566"><ele>1218.5</ele><time>2026-04-07T14:20:50Z</time></trkpt><trkpt lat="44.684617148083156" lon="7.33715298973105"><ele>1216.3333333333333</ele><time>2026-04-07T14:20:51.999Z</time></trkpt><trkpt lat="44.68471597408686" lon="7.3372552218862825"><ele>1214.1666666666667</ele><time>2026-04-07T14:20:53.999Z</time></trkpt><trkpt lat="44.684780169703664" lon="7.337261146000998"><ele>1212.0</ele><time>2026-04-07T14:20:54.999Z</time></trkpt><trkpt lat="44.68488109475476" lon="7.337282866085263"><ele>1210.2</ele><time>2026-04-07T14:20:56.999Z</time></trkpt><trkpt lat="44.684941125680794" lon="7.3373123935910645"><ele>1208.4</ele><time>2026-04-07T14:20:57.999Z</time></trkpt><trkpt lat="44.68503291013037" lon="7.337418087328924"><ele>1206.6</ele><time>2026-04-07T14:20:59.999Z</time></trkpt><trkpt lat="44.685130032973774" lon="7.337466799571477"><ele>1204.8</ele><time>2026-04-07T14:21:01.999Z</time></trkpt><trkpt lat="44.68523243073398" lon="7.33738189982052"><ele>1203.0</ele><time>2026-04-07T14:21:03.999Z</time></trkpt><trkpt lat="44.68533403923652" lon="7.337299031364783"><ele>1200.8</ele><time>2026-04-07T14:21:05.999Z</time></trkpt><trkpt lat="44.6854181489172" lon="7.337202597227088"><ele>1198.6</ele><time>2026-04-07T14:21:07.999Z</time></trkpt><trkpt lat="44.68548321143549" lon="7.33709328278389"><ele>1196.4</ele><time>2026-04-07T14:21:09.999Z</time></trkpt><trkpt lat="44.685582017548796" lon="7.336983568480772"><ele>1194.2</ele><time>2026-04-07T14:21:11.999Z</time></trkpt><trkpt lat="44.68566246832843" lon="7.3368996033881295"><ele>1192.0</ele><time>2026-04-07T14:21:13.999Z</time></trkpt><trkpt lat="44.68576730793755" lon="7.336827790025016"><ele>1192.0</ele><time>2026-04-07T14:21:15.999Z</time></trkpt><trkpt lat="44.685840692960745" lon="7.3367955170380315"><ele>1192.0</ele><time>2026-04-07T14:21:16.999Z</time></trkpt><trkpt lat="44.6859249227303" lon="7.336771160979306"><ele>1192.0</ele><time>2026-04-07T14:21:17.999Z</time></trkpt><trkpt lat="44.685996423622015" lon="7.336755248994132"><ele>1192.0</ele><time>2026-04-07T14:21:18.999Z</time></trkpt><trkpt lat="44.68606006897752" lon="7.336743098384389"><ele>1192.0</ele><time>2026-04-07T14:21:19.999Z</time></trkpt><trkpt lat="44.68612313192059" lon="7.336692884594527"><ele>1192.0</ele><time>2026-04-07T14:21:20.999Z</time></trkpt><trkpt lat="44.68623943854071" lon="7.3366806016665675"><ele>1188.4</ele><time>2026-04-07T14:21:22.999Z</time></trkpt><trkpt lat="44.686329342659704" lon="7.336633469750938"><ele>1184.8000000000002</ele><time>2026-04-07T14:21:24.999Z</time></trkpt><trkpt lat="44.6864216730992" lon="7.33664728864237"><ele>1181.2</ele><time>2026-04-07T14:21:26.999Z</time></trkpt><trkpt lat="44.686529377279285" lon="7.3366700806119365"><ele>1177.6000000000001</ele><time>2026-04-07T14:21:28.999Z</time></trkpt><trkpt lat="44.68663281417449" lon="7.33667827277967"><ele>1174.0</ele><time>2026-04-07T14:21:31Z</time></trkpt><trkpt lat="44.6867415117804" lon="7.336678215264297"><ele>1174.0</ele><time>2026-04-07T14:21:33Z</time></trkpt><trkpt lat="44.686810588542926" lon="7.336697543670779"><ele>1174.0</ele><time>2026-04-07T14:21:35Z</time></trkpt><trkpt lat="44.686895555861796" lon="7.3367332267551495"><ele>1174.0</ele><time>2026-04-07T14:21:37Z</time></trkpt><trkpt lat="44.68698451432092" lon="7.3367806393837"><ele>1174.0</ele><time>2026-04-07T14:21:39Z</time></trkpt><trkpt lat="44.68705937003146" lon="7.336824233632096"><ele>1174.0</ele><time>2026-04-07T14:21:41Z</time></trkpt><trkpt lat="44.68713138194319" lon="7.336891465675952"><ele>1174.0</ele><time>2026-04-07T14:21:43Z</time></trkpt><trkpt lat="44.687223202607534" lon="7.3369541296071965"><ele>1169.0</ele><time>2026-04-07T14:21:45Z</time></trkpt><trkpt lat="44.687322908020114" lon="7.3370212109987305"><ele>1164.0</ele><time>2026-04-07T14:21:47Z</time></trkpt><trkpt lat="44.68739430375762" lon="7.337063692710656"><ele>1159.0</ele><time>2026-04-07T14:21:49Z</time></trkpt><trkpt lat="44.68746580057363" lon="7.3371010753661245"><ele>1154.0</ele><time>2026-04-07T14:21:51Z</time></trkpt><trkpt lat="44.68755029996921" lon="7.337154168491509"><ele>1149.0</ele><time>2026-04-07T14:21:53Z</time></trkpt><trkpt lat="44.68764369891746" lon="7.3372082066195565"><ele>1148.4</ele><time>2026-04-07T14:21:55Z</time></trkpt><trkpt lat="44.687744655284654" lon="7.337266186956511"><ele>1147.8000000000002</ele><time>2026-04-07T14:21:57Z</time></trkpt><trkpt lat="44.687849796678634" lon="7.3373055289809335"><ele>1147.1999999999998</ele><time>2026-04-07T14:21:59Z</time></trkpt><trkpt lat="44.68795370627477" lon="7.337376953530393"><ele>1146.6</ele><time>2026-04-07T14:22:01Z</time></trkpt><trkpt lat="44.68806052104866" lon="7.337426227622563"><ele>1146.0</ele><time>2026-04-07T14:22:03Z</time></trkpt><trkpt lat="44.688165940482584" lon="7.337485338519605"><ele>1146.0</ele><time>2026-04-07T14:22:05Z</time></trkpt><trkpt lat="44.68826373301621" lon="7.337543831164102"><ele>1146.0</ele><time>2026-04-07T14:22:07Z</time></trkpt><trkpt lat="44.688373955271445" lon="7.337606790474022"><ele>1146.0</ele><time>2026-04-07T14:22:09Z</time></trkpt><trkpt lat="44.68848361259956" lon="7.337684922051324"><ele>1146.0</ele><time>2026-04-07T14:22:11Z</time></trkpt><trkpt lat="44.68858476951772" lon="7.33778580496067"><ele>1144.1666666666667</ele><time>2026-04-07T14:22:13Z</time></trkpt><trkpt lat="44.68864601524373" lon="7.337844326766426"><ele>1142.3333333333333</ele><time>2026-04-07T14:22:14Z</time></trkpt><trkpt lat="44.68871204416645" lon="7.337890190698735"><ele>1140.5</ele><time>2026-04-07T14:22:15Z</time></trkpt><trkpt lat="44.68876096383745" lon="7.33795339998836"><ele>1138.6666666666665</ele><time>2026-04-07T14:22:16Z</time></trkpt><trkpt lat="44.6888252334415" lon="7.33802559046808"><ele>1136.8333333333333</ele><time>2026-04-07T14:22:17Z</time></trkpt><trkpt lat="44.68890478067491" lon="7.338106238568534"><ele>1135.0</ele><time>2026-04-07T14:22:18Z</time></trkpt><trkpt lat="44.68896675279977" lon="7.338177739997635"><ele>1135.0</ele><time>2026-04-07T14:22:19Z</time></trkpt><trkpt lat="44.689022981081735" lon="7.338223631851001"><ele>1135.0</ele><time>2026-04-07T14:22:20Z</time></trkpt><trkpt lat="44.68908621680194" lon="7.338272768142996"><ele>1135.0</ele><time>2026-04-07T14:22:21Z</time></trkpt><trkpt lat="44.68914911435069" lon="7.338304909651637"><ele>1135.0</ele><time>2026-04-07T14:22:22Z</time></trkpt><trkpt lat="44.689220939858224" lon="7.33829650069939"><ele>1135.0</ele><time>2026-04-07T14:22:23Z</time></trkpt><trkpt lat="44.68929538846057" lon="7.3382471182841345"><ele>1135.0</ele><time>2026-04-07T14:22:24Z</time></trkpt><trkpt lat="44.68936364721555" lon="7.338182595835257"><ele>1135.0</ele><time>2026-04-07T14:22:25Z</time></trkpt><trkpt lat="44.68944442159749" lon="7.338118509841029"><ele>1133.1666666666665</ele><time>2026-04-07T14:22:26Z</time></trkpt><trkpt lat="44.6895125482445" lon="7.338061143772426"><ele>1131.3333333333333</ele><time>2026-04-07T14:22:27Z</time></trkpt><trkpt lat="44.68957550504032" lon="7.337991081180376"><ele>1129.5</ele><time>2026-04-07T14:22:28Z</time></trkpt><trkpt lat="44.689645899671554" lon="7.33792980895706"><ele>1127.6666666666667</ele><time>2026-04-07T14:22:29Z</time></trkpt><trkpt lat="44.68971802948769" lon="7.337878595983174"><ele>1125.8333333333335</ele><time>2026-04-07T14:22:30Z</time></trkpt><trkpt lat="44.68978823309273" lon="7.337819604610992"><ele>1124.0</ele><time>2026-04-07T14:22:31Z</time></trkpt><trkpt lat="44.68985010662899" lon="7.337765532311238"><ele>1124.0</ele><time>2026-04-07T14:22:32Z</time></trkpt><trkpt lat="44.68992015607352" lon="7.337715539753544"><ele>1124.0</ele><time>2026-04-07T14:22:33Z</time></trkpt><trkpt lat="44.68998104781834" lon="7.337671222092466"><ele>1124.0</ele><time>2026-04-07T14:22:34Z</time></trkpt><trkpt lat="44.69003418804595" lon="7.33760869575564"><ele>1124.0</ele><time>2026-04-07T14:22:35Z</time></trkpt><trkpt lat="44.6900907814912" lon="7.337544799946329"><ele>1124.0</ele><time>2026-04-07T14:22:36Z</time></trkpt><trkpt lat="44.690131770345346" lon="7.337467700592429"><ele>1124.0</ele><time>2026-04-07T14:22:37Z</time></trkpt><trkpt lat="44.69020838227328" lon="7.337345186207205"><ele>1120.8</ele><time>2026-04-07T14:22:39Z</time></trkpt><trkpt lat="44.69024231067476" lon="7.337199744621081"><ele>1117.6000000000001</ele><time>2026-04-07T14:22:41Z</time></trkpt><trkpt lat="44.690329239148355" lon="7.33707083836228"><ele>1114.4</ele><time>2026-04-07T14:22:43Z</time></trkpt><trkpt lat="44.69039217541494" lon="7.337037882624981"><ele>1111.2</ele><time>2026-04-07T14:22:44Z</time></trkpt><trkpt lat="44.69049387788681" lon="7.336966515556495"><ele>1108.0</ele><time>2026-04-07T14:22:46Z</time></trkpt><trkpt lat="44.69055684570788" lon="7.336932935648039"><ele>1108.0</ele><time>2026-04-07T14:22:47Z</time></trkpt><trkpt lat="44.690623178085396" lon="7.336915359324082"><ele>1108.0</ele><time>2026-04-07T14:22:48Z</time></trkpt><trkpt lat="44.69069224054841" lon="7.336892983397225"><ele>1108.0</ele><time>2026-04-07T14:22:49Z</time></trkpt><trkpt lat="44.69081805515256" lon="7.336847146422493"><ele>1108.0</ele><time>2026-04-07T14:22:51Z</time></trkpt><trkpt lat="44.69094576719825" lon="7.3368118281259775"><ele>1108.0</ele><time>2026-04-07T14:22:52.999Z</time></trkpt><trkpt lat="44.691014908716916" lon="7.336778966437375"><ele>1108.0</ele><time>2026-04-07T14:22:53.999Z</time></trkpt><trkpt lat="44.69108690087489" lon="7.336741840719221"><ele>1108.0</ele><time>2026-04-07T14:22:54.999Z</time></trkpt><trkpt lat="44.69115508448266" lon="7.336705201378814"><ele>1108.0</ele><time>2026-04-07T14:22:55.999Z</time></trkpt><trkpt lat="44.691232666746814" lon="7.336674965037167"><ele>1108.0</ele><time>2026-04-07T14:22:56.999Z</time></trkpt><trkpt lat="44.69129981507437" lon="7.336631367994626"><ele>1108.0</ele><time>2026-04-07T14:22:57.999Z</time></trkpt><trkpt lat="44.691395066133296" lon="7.336590709249529"><ele>1108.0</ele><time>2026-04-07T14:22:59.999Z</time></trkpt><trkpt lat="44.691494149299" lon="7.336653038684219"><ele>1107.0</ele><time>2026-04-07T14:23:01.999Z</time></trkpt><trkpt lat="44.69156198518407" lon="7.3366918008443776"><ele>1106.0</ele><time>2026-04-07T14:23:02.999Z</time></trkpt><trkpt lat="44.691625507057765" lon="7.336697763979477"><ele>1105.0</ele><time>2026-04-07T14:23:03.999Z</time></trkpt><trkpt lat="44.691732371283564" lon="7.336748692414477"><ele>1104.0</ele><time>2026-04-07T14:23:05.999Z</time></trkpt><trkpt lat="44.691856053356005" lon="7.336700061752326"><ele>1103.0</ele><time>2026-04-07T14:23:07.999Z</time></trkpt><trkpt lat="44.69191848483185" lon="7.336638683264801"><ele>1101.4</ele><time>2026-04-07T14:23:08.999Z</time></trkpt><trkpt lat="44.69201399098328" lon="7.336542996801467"><ele>1099.8</ele><time>2026-04-07T14:23:10.999Z</time></trkpt><trkpt lat="44.69206837319485" lon="7.336489301655578"><ele>1098.2</ele><time>2026-04-07T14:23:11.999Z</time></trkpt><trkpt lat="44.69212884560618" lon="7.336441277917113"><ele>1096.6</ele><time>2026-04-07T14:23:12.999Z</time></trkpt><trkpt lat="44.69221951048094" lon="7.336350929273251"><ele>1095.0</ele><time>2026-04-07T14:23:14.999Z</time></trkpt><trkpt lat="44.69230847702863" lon="7.336279573411621"><ele>1093.3333333333333</ele><time>2026-04-07T14:23:16.999Z</time></trkpt><trkpt lat="44.69240009662122" lon="7.3362150993823505"><ele>1091.6666666666667</ele><time>2026-04-07T14:23:18.999Z</time></trkpt><trkpt lat="44.69246613795493" lon="7.336189725068084"><ele>1090.0</ele><time>2026-04-07T14:23:19.999Z</time></trkpt><trkpt lat="44.692532329663635" lon="7.336172347885312"><ele>1088.3333333333335</ele><time>2026-04-07T14:23:20.999Z</time></trkpt><trkpt lat="44.692637376636235" lon="7.336158589086051"><ele>1086.6666666666667</ele><time>2026-04-07T14:23:22.999Z</time></trkpt><trkpt lat="44.69270250521684" lon="7.336152151316759"><ele>1085.0</ele><time>2026-04-07T14:23:23.999Z</time></trkpt><trkpt lat="44.69281719134296" lon="7.336156304073633"><ele>1084.4</ele><time>2026-04-07T14:23:25.999Z</time></trkpt><trkpt lat="44.692932711398925" lon="7.336071295820931"><ele>1083.8</ele><time>2026-04-07T14:23:27.999Z</time></trkpt><trkpt lat="44.693015748341196" lon="7.335978840639521"><ele>1083.2</ele><time>2026-04-07T14:23:29.999Z</time></trkpt><trkpt lat="44.693087115732226" lon="7.335957787317884"><ele>1082.6</ele><time>2026-04-07T14:23:31.999Z</time></trkpt><trkpt lat="44.69315163854651" lon="7.3359450607457095"><ele>1082.0</ele><time>2026-04-07T14:23:32.999Z</time></trkpt><trkpt lat="44.69324528589068" lon="7.335907738623751"><ele>1082.0</ele><time>2026-04-07T14:23:34.999Z</time></trkpt><trkpt lat="44.6933654844813" lon="7.335913499139036"><ele>1082.0</ele><time>2026-04-07T14:23:37Z</time></trkpt><trkpt lat="44.69343381559354" lon="7.335884349456898"><ele>1082.0</ele><time>2026-04-07T14:23:38Z</time></trkpt><trkpt lat="44.693501143862626" lon="7.335835485504826"><ele>1082.0</ele><time>2026-04-07T14:23:39Z</time></trkpt><trkpt lat="44.69354442138733" lon="7.335709474237928"><ele>1082.0</ele><time>2026-04-07T14:23:41Z</time></trkpt><trkpt lat="44.69358622570347" lon="7.335641507314749"><ele>1082.0</ele><time>2026-04-07T14:23:42Z</time></trkpt><trkpt lat="44.69366643801561" lon="7.335517436540386"><ele>1077.6666666666667</ele><time>2026-04-07T14:23:44Z</time></trkpt><trkpt lat="44.69376374430225" lon="7.335436431451234"><ele>1073.3333333333335</ele><time>2026-04-07T14:23:46Z</time></trkpt><trkpt lat="44.693833896514924" lon="7.33540029504513"><ele>1069.0</ele><time>2026-04-07T14:23:47Z</time></trkpt><trkpt lat="44.69390980109394" lon="7.33533919553897"><ele>1064.6666666666667</ele><time>2026-04-07T14:23:49Z</time></trkpt><trkpt lat="44.694000123814725" lon="7.335292597857933"><ele>1060.3333333333333</ele><time>2026-04-07T14:23:51Z</time></trkpt><trkpt lat="44.694074214220684" lon="7.335286750687951"><ele>1056.0</ele><time>2026-04-07T14:23:53Z</time></trkpt><trkpt lat="44.694168077089685" lon="7.335276449351527"><ele>1056.0</ele><time>2026-04-07T14:23:55Z</time></trkpt><trkpt lat="44.69425444767008" lon="7.335225890763573"><ele>1056.0</ele><time>2026-04-07T14:23:57Z</time></trkpt><trkpt lat="44.69437831478688" lon="7.335222870032774"><ele>1056.0</ele><time>2026-04-07T14:23:59Z</time></trkpt><trkpt lat="44.69447860313615" lon="7.335162521184968"><ele>1056.0</ele><time>2026-04-07T14:24:01Z</time></trkpt><trkpt lat="44.694490293591265" lon="7.3350470846347555"><ele>1056.0</ele><time>2026-04-07T14:24:03Z</time></trkpt><trkpt lat="44.694413822940206" lon="7.334941603836376"><ele>1056.0</ele><time>2026-04-07T14:24:05Z</time></trkpt><trkpt lat="44.694312058555234" lon="7.334926049254641"><ele>1056.0</ele><time>2026-04-07T14:24:07Z</time></trkpt><trkpt lat="44.69424810794591" lon="7.334882734280725"><ele>1056.0</ele><time>2026-04-07T14:24:09Z</time></trkpt><trkpt lat="44.69415523073958" lon="7.334782712118393"><ele>1056.0</ele><time>2026-04-07T14:24:11Z</time></trkpt><trkpt lat="44.694056787319326" lon="7.334706781892604"><ele>1056.0</ele><time>2026-04-07T14:24:13Z</time></trkpt><trkpt lat="44.69397142078661" lon="7.334638234775501"><ele>1051.0</ele><time>2026-04-07T14:24:15Z</time></trkpt><trkpt lat="44.69386635690712" lon="7.3345704484893846"><ele>1046.0</ele><time>2026-04-07T14:24:17Z</time></trkpt><trkpt lat="44.69376605500712" lon="7.334529781432756"><ele>1041.0</ele><time>2026-04-07T14:24:19Z</time></trkpt><trkpt lat="44.69366728194838" lon="7.334514593603565"><ele>1036.0</ele><time>2026-04-07T14:24:21Z</time></trkpt><trkpt lat="44.6936504824345" lon="7.334383216719654"><ele>1031.0</ele><time>2026-04-07T14:24:23Z</time></trkpt><trkpt lat="44.6938592695218" lon="7.334372142146752"><ele>1031.0</ele><time>2026-04-07T14:24:28Z</time></trkpt><trkpt lat="44.69398457123767" lon="7.334337941002097"><ele>1031.0</ele><time>2026-04-07T14:24:30Z</time></trkpt><trkpt lat="44.6940494592304" lon="7.334298726423614"><ele>1031.0</ele><time>2026-04-07T14:24:31Z</time></trkpt><trkpt lat="44.69414386391498" lon="7.334257003216959"><ele>1031.0</ele><time>2026-04-07T14:24:32Z</time></trkpt><trkpt lat="44.694236432675964" lon="7.334227901382731"><ele>1031.0</ele><time>2026-04-07T14:24:33Z</time></trkpt><trkpt lat="44.694316631587164" lon="7.334202477339774"><ele>1031.0</ele><time>2026-04-07T14:24:34Z</time></trkpt><trkpt lat="44.69440163839477" lon="7.334192574800086"><ele>1031.0</ele><time>2026-04-07T14:24:35Z</time></trkpt><trkpt lat="44.69449378383022" lon="7.33418595114835"><ele>1031.0</ele><time>2026-04-07T14:24:36Z</time></trkpt><trkpt lat="44.69457456051995" lon="7.3341997144534945"><ele>1031.0</ele><time>2026-04-07T14:24:37Z</time></trkpt><trkpt lat="44.694675040235985" lon="7.334221815836185"><ele>1031.0</ele><time>2026-04-07T14:24:38Z</time></trkpt><trkpt lat="44.694766081717255" lon="7.334263549222188"><ele>1028.1666666666667</ele><time>2026-04-07T14:24:39Z</time></trkpt><trkpt lat="44.69487631938919" lon="7.3342933303488245"><ele>1025.3333333333335</ele><time>2026-04-07T14:24:40Z</time></trkpt><trkpt lat="44.69495480931651" lon="7.33433833656064"><ele>1022.5</ele><time>2026-04-07T14:24:41Z</time></trkpt><trkpt lat="44.69503431016099" lon="7.334355271381807"><ele>1019.6666666666667</ele><time>2026-04-07T14:24:42Z</time></trkpt><trkpt lat="44.69510873862672" lon="7.334378046625132"><ele>1016.8333333333334</ele><time>2026-04-07T14:24:43Z</time></trkpt><trkpt lat="44.695195994751835" lon="7.3344030675171465"><ele>1014.0</ele><time>2026-04-07T14:24:44Z</time></trkpt><trkpt lat="44.69527525201812" lon="7.334455915586869"><ele>1011.1666666666666</ele><time>2026-04-07T14:24:45Z</time></trkpt><trkpt lat="44.69536010004978" lon="7.334501370864015"><ele>1008.3333333333333</ele><time>2026-04-07T14:24:46Z</time></trkpt><trkpt lat="44.69542559061118" lon="7.334539351079355"><ele>1005.5</ele><time>2026-04-07T14:24:47Z</time></trkpt><trkpt lat="44.69549910562201" lon="7.334587085002359"><ele>1002.6666666666666</ele><time>2026-04-07T14:24:48Z</time></trkpt><trkpt lat="44.69557760925891" lon="7.334644533733951"><ele>999.8333333333333</ele><time>2026-04-07T14:24:49Z</time></trkpt><trkpt lat="44.69565638682891" lon="7.3347191157119"><ele>997.0</ele><time>2026-04-07T14:24:50Z</time></trkpt><trkpt lat="44.695711081847264" lon="7.334787347933036"><ele>996.9999999999999</ele><time>2026-04-07T14:24:51Z</time></trkpt><trkpt lat="44.695767481380564" lon="7.334868099886"><ele>997.0</ele><time>2026-04-07T14:24:52Z</time></trkpt><trkpt lat="44.69582657955577" lon="7.334941361008015"><ele>997.0</ele><time>2026-04-07T14:24:53Z</time></trkpt><trkpt lat="44.69586255058857" lon="7.335023681976566"><ele>997.0</ele><time>2026-04-07T14:24:54Z</time></trkpt><trkpt lat="44.69589475643599" lon="7.3351026256210305"><ele>996.9999999999999</ele><time>2026-04-07T14:24:55Z</time></trkpt><trkpt lat="44.695934947739" lon="7.3352231076352385"><ele>997.0</ele><time>2026-04-07T14:24:56.999Z</time></trkpt><trkpt lat="44.69596361138621" lon="7.335328096052749"><ele>997.0</ele><time>2026-04-07T14:24:58.999Z</time></trkpt><trkpt lat="44.69594891433324" lon="7.335439193962763"><ele>997.0</ele><time>2026-04-07T14:25:00.999Z</time></trkpt><trkpt lat="44.695957418164035" lon="7.335546940853247"><ele>997.0</ele><time>2026-04-07T14:25:02.999Z</time></trkpt><trkpt lat="44.69593724838613" lon="7.335713752694892"><ele>997.0</ele><time>2026-04-07T14:25:04.999Z</time></trkpt><trkpt lat="44.69592431137764" lon="7.335811607532033"><ele>997.0</ele><time>2026-04-07T14:25:05.999Z</time></trkpt><trkpt lat="44.695787863929674" lon="7.335886002410062"><ele>996.4999999999999</ele><time>2026-04-07T14:25:06.999Z</time></trkpt><trkpt lat="44.69579825521284" lon="7.335976076917842"><ele>996.0</ele><time>2026-04-07T14:25:07.999Z</time></trkpt><trkpt lat="44.69581483874111" lon="7.336114332943206"><ele>995.5</ele><time>2026-04-07T14:25:08.999Z</time></trkpt><trkpt lat="44.6958320724751" lon="7.336218953095377"><ele>995.0</ele><time>2026-04-07T14:25:09.999Z</time></trkpt><trkpt lat="44.6958618909354" lon="7.336334156355985"><ele>994.4999999999999</ele><time>2026-04-07T14:25:10.999Z</time></trkpt><trkpt lat="44.69589101420921" lon="7.33644123151475"><ele>994.0</ele><time>2026-04-07T14:25:11.999Z</time></trkpt><trkpt lat="44.69593206942998" lon="7.336557871635559"><ele>993.4000000000001</ele><time>2026-04-07T14:25:12.999Z</time></trkpt><trkpt lat="44.695965207232604" lon="7.336651245102715"><ele>992.8000000000001</ele><time>2026-04-07T14:25:13.999Z</time></trkpt><trkpt lat="44.69603613194848" lon="7.336838185403739"><ele>992.1999999999999</ele><time>2026-04-07T14:25:15.999Z</time></trkpt><trkpt lat="44.69609111824371" lon="7.336948212305456"><ele>991.5999999999999</ele><time>2026-04-07T14:25:16.999Z</time></trkpt><trkpt lat="44.69615286535875" lon="7.337058947544029"><ele>991.0</ele><time>2026-04-07T14:25:17.999Z</time></trkpt><trkpt lat="44.69619987398591" lon="7.337170173353599"><ele>986.6666666666666</ele><time>2026-04-07T14:25:18.999Z</time></trkpt><trkpt lat="44.69625021705836" lon="7.3372411680026755"><ele>982.3333333333333</ele><time>2026-04-07T14:25:19.999Z</time></trkpt><trkpt lat="44.69630577297971" lon="7.337316620360391"><ele>978.0</ele><time>2026-04-07T14:25:20.999Z</time></trkpt><trkpt lat="44.69636600950466" lon="7.337387311571193"><ele>973.6666666666667</ele><time>2026-04-07T14:25:21.999Z</time></trkpt><trkpt lat="44.69641637694413" lon="7.337464780215662"><ele>969.3333333333334</ele><time>2026-04-07T14:25:22.999Z</time></trkpt><trkpt lat="44.696464764497854" lon="7.337545745240868"><ele>965.0</ele><time>2026-04-07T14:25:23.999Z</time></trkpt><trkpt lat="44.696538353187414" lon="7.337680461397186"><ele>965.0</ele><time>2026-04-07T14:25:25.999Z</time></trkpt><trkpt lat="44.696592678734945" lon="7.33774766848114"><ele>965.0</ele><time>2026-04-07T14:25:26.999Z</time></trkpt><trkpt lat="44.69667040431673" lon="7.337884678983103"><ele>965.0</ele><time>2026-04-07T14:25:28.999Z</time></trkpt><trkpt lat="44.69675338875659" lon="7.337984962804227"><ele>965.0</ele><time>2026-04-07T14:25:30.999Z</time></trkpt><trkpt lat="44.69685582474468" lon="7.338078708875891"><ele>965.0</ele><time>2026-04-07T14:25:32.999Z</time></trkpt><trkpt lat="44.69691521380139" lon="7.338177072674649"><ele>960.6666666666667</ele><time>2026-04-07T14:25:34.999Z</time></trkpt><trkpt lat="44.69693646395356" lon="7.338308217486083"><ele>956.3333333333334</ele><time>2026-04-07T14:25:36.999Z</time></trkpt><trkpt lat="44.69694195740436" lon="7.338466974365622"><ele>952.0</ele><time>2026-04-07T14:25:38.999Z</time></trkpt><trkpt lat="44.69692883347516" lon="7.338564438371343"><ele>947.6666666666667</ele><time>2026-04-07T14:25:39.999Z</time></trkpt><trkpt lat="44.696943544601446" lon="7.338673772548476"><ele>943.3333333333334</ele><time>2026-04-07T14:25:40.999Z</time></trkpt><trkpt lat="44.69695161827276" lon="7.338769217736378"><ele>939.0</ele><time>2026-04-07T14:25:42Z</time></trkpt><trkpt lat="44.69695914385656" lon="7.338860158374775"><ele>937.4285714285714</ele><time>2026-04-07T14:25:43Z</time></trkpt><trkpt lat="44.69697617847574" lon="7.338958791895254"><ele>935.8571428571429</ele><time>2026-04-07T14:25:44Z</time></trkpt><trkpt lat="44.69699623315609" lon="7.339064893992547"><ele>934.2857142857143</ele><time>2026-04-07T14:25:45Z</time></trkpt><trkpt lat="44.69700662209536" lon="7.339170685980672"><ele>932.7142857142858</ele><time>2026-04-07T14:25:46Z</time></trkpt><trkpt lat="44.697019069475196" lon="7.339267279012581"><ele>931.1428571428571</ele><time>2026-04-07T14:25:47Z</time></trkpt><trkpt lat="44.69701844984984" lon="7.339363116258707"><ele>929.5714285714287</ele><time>2026-04-07T14:25:48Z</time></trkpt><trkpt lat="44.697015225272146" lon="7.339455091800952"><ele>928.0000000000001</ele><time>2026-04-07T14:25:49Z</time></trkpt><trkpt lat="44.69698566409309" lon="7.339605735804069"><ele>928.0</ele><time>2026-04-07T14:25:51Z</time></trkpt><trkpt lat="44.696923783829625" lon="7.339670914661521"><ele>928.0</ele><time>2026-04-07T14:25:53Z</time></trkpt><trkpt lat="44.69682210612868" lon="7.339747176127439"><ele>928.0</ele><time>2026-04-07T14:25:55Z</time></trkpt><trkpt lat="44.69672375857081" lon="7.339773623234512"><ele>928.0</ele><time>2026-04-07T14:25:57Z</time></trkpt><trkpt lat="44.69665763292138" lon="7.339867936444163"><ele>928.0</ele><time>2026-04-07T14:25:59Z</time></trkpt><trkpt lat="44.69665795949291" lon="7.339997909408639"><ele>926.6666666666666</ele><time>2026-04-07T14:26:00Z</time></trkpt><trkpt lat="44.696700152749855" lon="7.340101652716159"><ele>925.3333333333333</ele><time>2026-04-07T14:26:01Z</time></trkpt><trkpt lat="44.69675939097463" lon="7.340168163509842"><ele>924.0</ele><time>2026-04-07T14:26:02Z</time></trkpt><trkpt lat="44.69681077971706" lon="7.3402322429034434"><ele>922.6666666666667</ele><time>2026-04-07T14:26:03Z</time></trkpt><trkpt lat="44.69688685608971" lon="7.340266875129418"><ele>921.3333333333334</ele><time>2026-04-07T14:26:04Z</time></trkpt><trkpt lat="44.6969706527515" lon="7.34031860349884"><ele>920.0</ele><time>2026-04-07T14:26:05Z</time></trkpt><trkpt lat="44.69704558423569" lon="7.340401820003574"><ele>920.0</ele><time>2026-04-07T14:26:06Z</time></trkpt><trkpt lat="44.69711171707132" lon="7.3404505289070885"><ele>920.0</ele><time>2026-04-07T14:26:07Z</time></trkpt><trkpt lat="44.6972168841626" lon="7.340489965245558"><ele>920.0</ele><time>2026-04-07T14:26:08Z</time></trkpt><trkpt lat="44.69729203888712" lon="7.34060408284079"><ele>920.0</ele><time>2026-04-07T14:26:09Z</time></trkpt><trkpt lat="44.69738602470555" lon="7.340673722736648"><ele>920.0</ele><time>2026-04-07T14:26:10Z</time></trkpt><trkpt lat="44.69746790230753" lon="7.340734790023563"><ele>922.0</ele><time>2026-04-07T14:26:11Z</time></trkpt><trkpt lat="44.69755372053461" lon="7.340783940525191"><ele>924.0</ele><time>2026-04-07T14:26:12Z</time></trkpt><trkpt lat="44.697640708519415" lon="7.340863534224218"><ele>926.0</ele><time>2026-04-07T14:26:13Z</time></trkpt><trkpt lat="44.69774469430301" lon="7.340932910661779"><ele>928.0</ele><time>2026-04-07T14:26:14Z</time></trkpt><trkpt lat="44.697833721554105" lon="7.341010891602427"><ele>930.0</ele><time>2026-04-07T14:26:15Z</time></trkpt><trkpt lat="44.697924454971954" lon="7.341075417568672"><ele>925.8</ele><time>2026-04-07T14:26:16Z</time></trkpt><trkpt lat="44.69802870023804" lon="7.341126451751903"><ele>921.6</ele><time>2026-04-07T14:26:17Z</time></trkpt><trkpt lat="44.698107332946385" lon="7.341194654378728"><ele>917.4000000000001</ele><time>2026-04-07T14:26:18Z</time></trkpt><trkpt lat="44.69817924855502" lon="7.341257807352408"><ele>913.2</ele><time>2026-04-07T14:26:19Z</time></trkpt><trkpt lat="44.69825979204506" lon="7.341295429672924"><ele>909.0</ele><time>2026-04-07T14:26:20Z</time></trkpt><trkpt lat="44.698355316980624" lon="7.341316455208287"><ele>909.0</ele><time>2026-04-07T14:26:21Z</time></trkpt><trkpt lat="44.698470730100986" lon="7.3413425747751555"><ele>909.0</ele><time>2026-04-07T14:26:22Z</time></trkpt><trkpt lat="44.69859817825844" lon="7.341367646346184"><ele>909.0</ele><time>2026-04-07T14:26:23Z</time></trkpt><trkpt lat="44.69872618138407" lon="7.341397748748915"><ele>909.0</ele><time>2026-04-07T14:26:24Z</time></trkpt><trkpt lat="44.6988597296133" lon="7.341424186505742"><ele>911.4000000000001</ele><time>2026-04-07T14:26:25Z</time></trkpt><trkpt lat="44.69898158127664" lon="7.341456106963129"><ele>913.8000000000001</ele><time>2026-04-07T14:26:26Z</time></trkpt><trkpt lat="44.699086642106515" lon="7.341484122466906"><ele>916.1999999999999</ele><time>2026-04-07T14:26:27Z</time></trkpt><trkpt lat="44.69916770307755" lon="7.341522265145271"><ele>918.5999999999999</ele><time>2026-04-07T14:26:28Z</time></trkpt><trkpt lat="44.69925797098978" lon="7.3415885777246785"><ele>921.0</ele><time>2026-04-07T14:26:30Z</time></trkpt><trkpt lat="44.69927421315077" lon="7.341724185771768"><ele>921.0</ele><time>2026-04-07T14:26:32Z</time></trkpt><trkpt lat="44.6993519267682" lon="7.341713468192615"><ele>920.9999999999999</ele><time>2026-04-07T14:27:44.999Z</time></trkpt><trkpt lat="44.69937999164259" lon="7.3415418029671295"><ele>920.9999999999999</ele><time>2026-04-07T14:27:46.999Z</time></trkpt><trkpt lat="44.69939184412576" lon="7.341425939793703"><ele>921.0</ele><time>2026-04-07T14:27:48Z</time></trkpt><trkpt lat="44.699407967518205" lon="7.341285219084049"><ele>921.0</ele><time>2026-04-07T14:27:49Z</time></trkpt><trkpt lat="44.699435046870555" lon="7.341118217559584"><ele>920.75</ele><time>2026-04-07T14:27:50Z</time></trkpt><trkpt lat="44.69947397289874" lon="7.3409500629885605"><ele>920.5</ele><time>2026-04-07T14:27:51Z</time></trkpt><trkpt lat="44.69951502548541" lon="7.3407864604891815"><ele>920.25</ele><time>2026-04-07T14:27:52Z</time></trkpt><trkpt lat="44.69956126935579" lon="7.340613368046398"><ele>920.0</ele><time>2026-04-07T14:27:53Z</time></trkpt><trkpt lat="44.699597115921534" lon="7.3403960643671695"><ele>920.0</ele><time>2026-04-07T14:27:54Z</time></trkpt><trkpt lat="44.6996148477974" lon="7.340145886390103"><ele>920.0</ele><time>2026-04-07T14:27:55Z</time></trkpt><trkpt lat="44.699619793912255" lon="7.339928465071377"><ele>920.0</ele><time>2026-04-07T14:27:56Z</time></trkpt><trkpt lat="44.69962225688899" lon="7.339766805287424"><ele>920.0</ele><time>2026-04-07T14:27:57Z</time></trkpt><trkpt lat="44.69963895025991" lon="7.3396655972652445"><ele>917.0</ele><time>2026-04-07T14:27:58Z</time></trkpt><trkpt lat="44.69968715233674" lon="7.339548157043756"><ele>914.0</ele><time>2026-04-07T14:27:59Z</time></trkpt><trkpt lat="44.69979192660187" lon="7.339471621867337"><ele>911.0</ele><time>2026-04-07T14:28:00Z</time></trkpt><trkpt lat="44.69991574851902" lon="7.339433674144822"><ele>908.0</ele><time>2026-04-07T14:28:01Z</time></trkpt><trkpt lat="44.70007048511239" lon="7.339351691880138"><ele>908.0</ele><time>2026-04-07T14:28:02Z</time></trkpt><trkpt lat="44.70020082543122" lon="7.339259250761325"><ele>908.0</ele><time>2026-04-07T14:28:03Z</time></trkpt><trkpt lat="44.70031584930944" lon="7.339112830092127"><ele>908.0</ele><time>2026-04-07T14:28:04Z</time></trkpt><trkpt lat="44.70041224063042" lon="7.338979727432325"><ele>908.0</ele><time>2026-04-07T14:28:05Z</time></trkpt><trkpt lat="44.70050628765731" lon="7.338865601064488"><ele>909.2</ele><time>2026-04-07T14:28:06Z</time></trkpt><trkpt lat="44.70059481441096" lon="7.338776156560304"><ele>910.4</ele><time>2026-04-07T14:28:07Z</time></trkpt><trkpt lat="44.700663064423175" lon="7.338686612319736"><ele>911.6000000000001</ele><time>2026-04-07T14:28:08Z</time></trkpt><trkpt lat="44.70070758548328" lon="7.338571157705862"><ele>912.8000000000001</ele><time>2026-04-07T14:28:09Z</time></trkpt><trkpt lat="44.7006988926866" lon="7.338430527491922"><ele>914.0</ele><time>2026-04-07T14:28:10Z</time></trkpt><trkpt lat="44.70065760219833" lon="7.3383007811381935"><ele>914.0</ele><time>2026-04-07T14:28:11Z</time></trkpt><trkpt lat="44.700597101853305" lon="7.338192041346082"><ele>914.0000000000001</ele><time>2026-04-07T14:28:12Z</time></trkpt><trkpt lat="44.70052169894602" lon="7.33810994983267"><ele>914.0000000000001</ele><time>2026-04-07T14:28:13Z</time></trkpt><trkpt lat="44.7004472713226" lon="7.3380105597442205"><ele>914.0</ele><time>2026-04-07T14:28:14Z</time></trkpt><trkpt lat="44.700372115605774" lon="7.337901027393421"><ele>914.0</ele><time>2026-04-07T14:28:15Z</time></trkpt><trkpt lat="44.700327392513195" lon="7.3378080275991975"><ele>913.25</ele><time>2026-04-07T14:28:16Z</time></trkpt><trkpt lat="44.700339173554816" lon="7.33770003356524"><ele>912.5</ele><time>2026-04-07T14:28:17Z</time></trkpt><trkpt lat="44.700353372703375" lon="7.337547559162014"><ele>911.75</ele><time>2026-04-07T14:28:18Z</time></trkpt><trkpt lat="44.70038637064831" lon="7.337319860461681"><ele>911.0</ele><time>2026-04-07T14:28:19Z</time></trkpt><trkpt lat="44.700444626986986" lon="7.3371080466790914"><ele>907.25</ele><time>2026-04-07T14:28:20Z</time></trkpt><trkpt lat="44.70050680869533" lon="7.336933691876106"><ele>903.5</ele><time>2026-04-07T14:28:21Z</time></trkpt><trkpt lat="44.7005814115962" lon="7.336760153923052"><ele>899.75</ele><time>2026-04-07T14:28:22Z</time></trkpt><trkpt lat="44.70067951913429" lon="7.336579927176825"><ele>896.0</ele><time>2026-04-07T14:28:23Z</time></trkpt><trkpt lat="44.70077687075114" lon="7.336411622770434"><ele>896.75</ele><time>2026-04-07T14:28:24Z</time></trkpt><trkpt lat="44.70086273882734" lon="7.336264441529365"><ele>897.5</ele><time>2026-04-07T14:28:25Z</time></trkpt><trkpt lat="44.70095181409578" lon="7.3361167753402405"><ele>898.25</ele><time>2026-04-07T14:28:26Z</time></trkpt><trkpt lat="44.70103450893848" lon="7.335972224743488"><ele>899.0</ele><time>2026-04-07T14:28:27Z</time></trkpt><trkpt lat="44.70111610363552" lon="7.335858148680051"><ele>899.0</ele><time>2026-04-07T14:28:28Z</time></trkpt><trkpt lat="44.701229795543554" lon="7.335778123945094"><ele>899.0</ele><time>2026-04-07T14:28:29Z</time></trkpt><trkpt lat="44.70135504311364" lon="7.335697834024924"><ele>899.0</ele><time>2026-04-07T14:28:30Z</time></trkpt><trkpt lat="44.70149945661714" lon="7.335619843728535"><ele>899.0</ele><time>2026-04-07T14:28:31Z</time></trkpt><trkpt lat="44.701617248635586" lon="7.335504120762729"><ele>898.25</ele><time>2026-04-07T14:28:32Z</time></trkpt><trkpt lat="44.70172563917225" lon="7.335350759810109"><ele>897.5</ele><time>2026-04-07T14:28:33Z</time></trkpt><trkpt lat="44.70182064894706" lon="7.335176097829377"><ele>896.75</ele><time>2026-04-07T14:28:34Z</time></trkpt><trkpt lat="44.70191349635784" lon="7.33504597914548"><ele>896.0</ele><time>2026-04-07T14:28:35Z</time></trkpt><trkpt lat="44.70200312879491" lon="7.334940827342548"><ele>896.0</ele><time>2026-04-07T14:28:36Z</time></trkpt><trkpt lat="44.7020813948703" lon="7.3348171208785695"><ele>896.0</ele><time>2026-04-07T14:28:37Z</time></trkpt><trkpt lat="44.70213392807512" lon="7.33465504978442"><ele>896.0</ele><time>2026-04-07T14:28:38Z</time></trkpt><trkpt lat="44.70214589881392" lon="7.334493134566418"><ele>896.0</ele><time>2026-04-07T14:28:39Z</time></trkpt><trkpt lat="44.70216822984038" lon="7.334370620198249"><ele>890.0</ele><time>2026-04-07T14:28:40Z</time></trkpt><trkpt lat="44.70222723440034" lon="7.334239979433066"><ele>884.0</ele><time>2026-04-07T14:28:41Z</time></trkpt><trkpt lat="44.702296523433525" lon="7.334118076976437"><ele>878.0</ele><time>2026-04-07T14:28:42Z</time></trkpt><trkpt lat="44.70236716128936" lon="7.333989122272672"><ele>872.0</ele><time>2026-04-07T14:28:43Z</time></trkpt><trkpt lat="44.702447015713645" lon="7.333863111415621"><ele>870.5</ele><time>2026-04-07T14:28:44Z</time></trkpt><trkpt lat="44.70254191821536" lon="7.333788116924947"><ele>869.0</ele><time>2026-04-07T14:28:45Z</time></trkpt><trkpt lat="44.70263798293919" lon="7.33368724774462"><ele>867.5</ele><time>2026-04-07T14:28:46Z</time></trkpt><trkpt lat="44.70271892117521" lon="7.333551602793612"><ele>866.0</ele><time>2026-04-07T14:28:47Z</time></trkpt><trkpt lat="44.702772222347505" lon="7.333393884801386"><ele>866.0</ele><time>2026-04-07T14:28:48Z</time></trkpt><trkpt lat="44.70281013967331" lon="7.333231944061416"><ele>866.0</ele><time>2026-04-07T14:28:49Z</time></trkpt><trkpt lat="44.70284836625829" lon="7.33306864372531"><ele>866.0</ele><time>2026-04-07T14:28:50Z</time></trkpt><trkpt lat="44.702899235061714" lon="7.332918335425765"><ele>866.0</ele><time>2026-04-07T14:28:51Z</time></trkpt><trkpt lat="44.70297051150444" lon="7.332773906452027"><ele>862.1999999999999</ele><time>2026-04-07T14:28:52Z</time></trkpt><trkpt lat="44.7030417346081" lon="7.332644901668607"><ele>858.3999999999999</ele><time>2026-04-07T14:28:53Z</time></trkpt><trkpt lat="44.70310739027231" lon="7.332521725378476"><ele>854.6</ele><time>2026-04-07T14:28:54Z</time></trkpt><trkpt lat="44.70316245180087" lon="7.332416021180329"><ele>850.8</ele><time>2026-04-07T14:28:55Z</time></trkpt><trkpt lat="44.703201863675474" lon="7.332325243271589"><ele>847.0</ele><time>2026-04-07T14:28:56Z</time></trkpt><trkpt lat="44.703229218816396" lon="7.332245437028187"><ele>842.2</ele><time>2026-04-07T14:28:57Z</time></trkpt><trkpt lat="44.70323242204141" lon="7.332111814461426"><ele>837.4000000000001</ele><time>2026-04-07T14:28:59Z</time></trkpt><trkpt lat="44.70320477350138" lon="7.332022932783911"><ele>832.5999999999999</ele><time>2026-04-07T14:29:00Z</time></trkpt><trkpt lat="44.703093802127114" lon="7.332020422432642"><ele>827.8</ele><time>2026-04-07T14:29:01Z</time></trkpt><trkpt lat="44.70299303556619" lon="7.332052167792773"><ele>823.0</ele><time>2026-04-07T14:29:01.999Z</time></trkpt><trkpt lat="44.70289504550171" lon="7.332073057271445"><ele>822.9999999999999</ele><time>2026-04-07T14:29:02.999Z</time></trkpt><trkpt lat="44.70280166850555" lon="7.332091586387718"><ele>823.0</ele><time>2026-04-07T14:29:03.999Z</time></trkpt><trkpt lat="44.7027115924734" lon="7.332109460468439"><ele>823.0</ele><time>2026-04-07T14:29:04.999Z</time></trkpt><trkpt lat="44.70263594704156" lon="7.332121575902629"><ele>823.0</ele><time>2026-04-07T14:29:05.999Z</time></trkpt><trkpt lat="44.702530309144976" lon="7.332117816522706"><ele>822.9999999999999</ele><time>2026-04-07T14:29:07.999Z</time></trkpt><trkpt lat="44.702475379974565" lon="7.332054730766814"><ele>823.0</ele><time>2026-04-07T14:29:09.999Z</time></trkpt><trkpt lat="44.702498229310564" lon="7.331962777327665"><ele>822.9999999999999</ele><time>2026-04-07T14:29:10.999Z</time></trkpt><trkpt lat="44.70256975633178" lon="7.331875070773843"><ele>823.0</ele><time>2026-04-07T14:29:11.999Z</time></trkpt><trkpt lat="44.70265634509189" lon="7.331820597312935"><ele>823.0</ele><time>2026-04-07T14:29:12.999Z</time></trkpt><trkpt lat="44.70273948182969" lon="7.33178274499437"><ele>823.0</ele><time>2026-04-07T14:29:13.999Z</time></trkpt><trkpt lat="44.7028210303238" lon="7.331742328853863"><ele>822.9999999999999</ele><time>2026-04-07T14:29:14.999Z</time></trkpt><trkpt lat="44.70288070216324" lon="7.331702435968528"><ele>823.0</ele><time>2026-04-07T14:29:15.999Z</time></trkpt><trkpt lat="44.70295140976851" lon="7.331589744395709"><ele>823.0</ele><time>2026-04-07T14:29:17.999Z</time></trkpt><trkpt lat="44.70290823502074" lon="7.331429138583228"><ele>823.0</ele><time>2026-04-07T14:29:19.999Z</time></trkpt><trkpt lat="44.702773390328886" lon="7.3314734675466156"><ele>823.0</ele><time>2026-04-07T14:29:20.999Z</time></trkpt><trkpt lat="44.70268122959528" lon="7.331485661215743"><ele>823.0</ele><time>2026-04-07T14:29:21.999Z</time></trkpt><trkpt lat="44.70257809978626" lon="7.3314762417705"><ele>817.75</ele><time>2026-04-07T14:29:22.999Z</time></trkpt><trkpt lat="44.702467486329056" lon="7.331497172076024"><ele>812.5</ele><time>2026-04-07T14:29:23.999Z</time></trkpt><trkpt lat="44.702364561599126" lon="7.331589250566403"><ele>807.25</ele><time>2026-04-07T14:29:24.999Z</time></trkpt><trkpt lat="44.70227511148862" lon="7.331727071338689"><ele>802.0</ele><time>2026-04-07T14:29:25.999Z</time></trkpt><trkpt lat="44.70220054927153" lon="7.331873826888512"><ele>802.0</ele><time>2026-04-07T14:29:26.999Z</time></trkpt><trkpt lat="44.702155794968824" lon="7.332019849690472"><ele>802.0</ele><time>2026-04-07T14:29:27.999Z</time></trkpt><trkpt lat="44.702095128251074" lon="7.332147639744949"><ele>802.0</ele><time>2026-04-07T14:29:28.999Z</time></trkpt><trkpt lat="44.70199729703496" lon="7.332260313326047"><ele>802.0</ele><time>2026-04-07T14:29:29.999Z</time></trkpt><trkpt lat="44.7018758203542" lon="7.3323388778062055"><ele>801.0</ele><time>2026-04-07T14:29:30.999Z</time></trkpt><trkpt lat="44.701747470685866" lon="7.332430779216968"><ele>800.0</ele><time>2026-04-07T14:29:31.999Z</time></trkpt><trkpt lat="44.701624007791665" lon="7.332541177341703"><ele>799.0</ele><time>2026-04-07T14:29:32.999Z</time></trkpt><trkpt lat="44.70152675177755" lon="7.332697499976811"><ele>798.0</ele><time>2026-04-07T14:29:33.999Z</time></trkpt><trkpt lat="44.70141544945191" lon="7.332793356507897"><ele>798.0</ele><time>2026-04-07T14:29:34.999Z</time></trkpt><trkpt lat="44.70131307927023" lon="7.332885674197479"><ele>798.0</ele><time>2026-04-07T14:29:35.999Z</time></trkpt><trkpt lat="44.70122554352437" lon="7.332943064336326"><ele>798.0</ele><time>2026-04-07T14:29:36.999Z</time></trkpt><trkpt lat="44.70114886452537" lon="7.332975045851531"><ele>798.0</ele><time>2026-04-07T14:29:37.999Z</time></trkpt><trkpt lat="44.70105697127885" lon="7.332962405218868"><ele>798.0</ele><time>2026-04-07T14:29:39.999Z</time></trkpt><trkpt lat="44.701024037965716" lon="7.332841106408929"><ele>798.0</ele><time>2026-04-07T14:29:41.999Z</time></trkpt><trkpt lat="44.70109796905607" lon="7.332780493450903"><ele>798.0</ele><time>2026-04-07T14:29:42.999Z</time></trkpt><trkpt lat="44.70117670516641" lon="7.332706316698962"><ele>798.0</ele><time>2026-04-07T14:29:43.999Z</time></trkpt><trkpt lat="44.70126933634527" lon="7.332627184029434"><ele>798.0</ele><time>2026-04-07T14:29:44.999Z</time></trkpt><trkpt lat="44.701346727691245" lon="7.332519987528506"><ele>798.0</ele><time>2026-04-07T14:29:45.999Z</time></trkpt><trkpt lat="44.7014167159026" lon="7.332425450876849"><ele>798.0</ele><time>2026-04-07T14:29:46.999Z</time></trkpt><trkpt lat="44.70147482224025" lon="7.332338666136374"><ele>798.0</ele><time>2026-04-07T14:29:47.999Z</time></trkpt><trkpt lat="44.701512788427706" lon="7.332263528017647"><ele>798.0</ele><time>2026-04-07T14:29:48.999Z</time></trkpt><trkpt lat="44.70145684868924" lon="7.332106458940405"><ele>798.0</ele><time>2026-04-07T14:29:50.999Z</time></trkpt><trkpt lat="44.70137954807487" lon="7.332058796032229"><ele>798.0</ele><time>2026-04-07T14:29:51.999Z</time></trkpt><trkpt lat="44.70127380114005" lon="7.332138405041564"><ele>798.0</ele><time>2026-04-07T14:29:52.999Z</time></trkpt><trkpt lat="44.701180517372514" lon="7.332224409286216"><ele>798.0</ele><time>2026-04-07T14:29:54Z</time></trkpt><trkpt lat="44.70108339899215" lon="7.332308655197853"><ele>798.0</ele><time>2026-04-07T14:29:55Z</time></trkpt><trkpt lat="44.70098884740989" lon="7.332356270818551"><ele>798.0</ele><time>2026-04-07T14:29:56Z</time></trkpt><trkpt lat="44.70089394536533" lon="7.33237722663045"><ele>798.0</ele><time>2026-04-07T14:29:57Z</time></trkpt><trkpt lat="44.70081839847413" lon="7.3323936158538325"><ele>796.2</ele><time>2026-04-07T14:29:58Z</time></trkpt><trkpt lat="44.70076446179284" lon="7.332346591436126"><ele>794.4</ele><time>2026-04-07T14:29:59Z</time></trkpt><trkpt lat="44.70072512236692" lon="7.332250215840105"><ele>792.6</ele><time>2026-04-07T14:30:00Z</time></trkpt><trkpt lat="44.700711921932076" lon="7.332121839461197"><ele>790.8000000000001</ele><time>2026-04-07T14:30:01Z</time></trkpt><trkpt lat="44.70071714753548" lon="7.331975571587962"><ele>789.0</ele><time>2026-04-07T14:30:02Z</time></trkpt><trkpt lat="44.700742795850076" lon="7.331812974884362"><ele>787.5</ele><time>2026-04-07T14:30:03Z</time></trkpt><trkpt lat="44.70079947564722" lon="7.331634318433477"><ele>786.0</ele><time>2026-04-07T14:30:04Z</time></trkpt><trkpt lat="44.700870655552606" lon="7.3314465243065445"><ele>784.5</ele><time>2026-04-07T14:30:05Z</time></trkpt><trkpt lat="44.70094261050688" lon="7.331253169636216"><ele>783.0</ele><time>2026-04-07T14:30:06Z</time></trkpt><trkpt lat="44.701020827335284" lon="7.33104823360806"><ele>776.0</ele><time>2026-04-07T14:30:07Z</time></trkpt><trkpt lat="44.70109277984092" lon="7.330857463035298"><ele>769.0</ele><time>2026-04-07T14:30:08Z</time></trkpt><trkpt lat="44.70114129196092" lon="7.330704170068191"><ele>762.0</ele><time>2026-04-07T14:30:09Z</time></trkpt><trkpt lat="44.70118804091984" lon="7.330540038445627"><ele>755.0</ele><time>2026-04-07T14:30:10Z</time></trkpt><trkpt lat="44.70121204180468" lon="7.330367853965521"><ele>751.5</ele><time>2026-04-07T14:30:11Z</time></trkpt><trkpt lat="44.701221334920255" lon="7.330191868806187"><ele>748.0</ele><time>2026-04-07T14:30:12Z</time></trkpt><trkpt lat="44.70124045707758" lon="7.330014970830613"><ele>744.5</ele><time>2026-04-07T14:30:13Z</time></trkpt><trkpt lat="44.70121799652634" lon="7.3298290220669395"><ele>741.0</ele><time>2026-04-07T14:30:14Z</time></trkpt><trkpt lat="44.701212688559515" lon="7.329641404147173"><ele>739.25</ele><time>2026-04-07T14:30:15Z</time></trkpt><trkpt lat="44.701224739981384" lon="7.3294541796263575"><ele>737.5</ele><time>2026-04-07T14:30:16Z</time></trkpt><trkpt lat="44.70126060732084" lon="7.329267606455651"><ele>735.75</ele><time>2026-04-07T14:30:17Z</time></trkpt><trkpt lat="44.70130169078314" lon="7.329091257158056"><ele>734.0</ele><time>2026-04-07T14:30:18Z</time></trkpt><trkpt lat="44.70133528932423" lon="7.328934805059137"><ele>732.75</ele><time>2026-04-07T14:30:19Z</time></trkpt><trkpt lat="44.70134179821971" lon="7.328775257016402"><ele>731.5</ele><time>2026-04-07T14:30:20Z</time></trkpt><trkpt lat="44.70130028765211" lon="7.328632343302126"><ele>730.25</ele><time>2026-04-07T14:30:21Z</time></trkpt><trkpt lat="44.70123419440496" lon="7.3285038225256605"><ele>729.0</ele><time>2026-04-07T14:30:22Z</time></trkpt><trkpt lat="44.70115438029536" lon="7.328389469834462"><ele>729.0</ele><time>2026-04-07T14:30:23Z</time></trkpt><trkpt lat="44.701084514982966" lon="7.328273542128609"><ele>729.0</ele><time>2026-04-07T14:30:24Z</time></trkpt><trkpt lat="44.70103862782799" lon="7.328153169827662"><ele>729.0</ele><time>2026-04-07T14:30:25Z</time></trkpt><trkpt lat="44.70099054725501" lon="7.328057536911769"><ele>729.0</ele><time>2026-04-07T14:30:26Z</time></trkpt><trkpt lat="44.7009699681227" lon="7.327921026381437"><ele>729.0</ele><time>2026-04-07T14:30:28Z</time></trkpt><trkpt lat="44.701080710041445" lon="7.327851983883741"><ele>729.0</ele><time>2026-04-07T14:30:30Z</time></trkpt><trkpt lat="44.70116312060689" lon="7.327898332832721"><ele>729.0</ele><time>2026-04-07T14:30:31Z</time></trkpt><trkpt lat="44.701234601401815" lon="7.328019405447306"><ele>729.0</ele><time>2026-04-07T14:30:32Z</time></trkpt><trkpt lat="44.70134948532333" lon="7.328100335560814"><ele>729.0</ele><time>2026-04-07T14:30:33Z</time></trkpt><trkpt lat="44.7014695396006" lon="7.3281941662013255"><ele>729.0</ele><time>2026-04-07T14:30:34Z</time></trkpt><trkpt lat="44.70158198301544" lon="7.328275779439736"><ele>729.0</ele><time>2026-04-07T14:30:35Z</time></trkpt><trkpt lat="44.70168939734788" lon="7.328352565544591"><ele>729.0</ele><time>2026-04-07T14:30:36Z</time></trkpt><trkpt lat="44.701787526180325" lon="7.328417824283278"><ele>729.0</ele><time>2026-04-07T14:30:37Z</time></trkpt><trkpt lat="44.70187324427732" lon="7.3284721806694515"><ele>729.0</ele><time>2026-04-07T14:30:38Z</time></trkpt><trkpt lat="44.70193259207724" lon="7.328539298286717"><ele>729.0</ele><time>2026-04-07T14:30:39Z</time></trkpt><trkpt lat="44.70194833852168" lon="7.328648658599496"><ele>729.0</ele><time>2026-04-07T14:30:40Z</time></trkpt><trkpt lat="44.70193153768142" lon="7.328755725601914"><ele>729.0</ele><time>2026-04-07T14:30:41Z</time></trkpt><trkpt lat="44.70191116497873" lon="7.32888714745931"><ele>729.0</ele><time>2026-04-07T14:30:42Z</time></trkpt><trkpt lat="44.701880471325595" lon="7.329026442304412"><ele>729.0</ele><time>2026-04-07T14:30:43Z</time></trkpt><trkpt lat="44.70184851458496" lon="7.329171261971961"><ele>729.8333333333334</ele><time>2026-04-07T14:30:44Z</time></trkpt><trkpt lat="44.70183609516294" lon="7.329310060676039"><ele>730.6666666666666</ele><time>2026-04-07T14:30:45Z</time></trkpt><trkpt lat="44.7018117630498" lon="7.329423253150607"><ele>731.5</ele><time>2026-04-07T14:30:46Z</time></trkpt><trkpt lat="44.701824315147014" lon="7.329529345160039"><ele>732.3333333333333</ele><time>2026-04-07T14:30:47Z</time></trkpt><trkpt lat="44.701869115600516" lon="7.329614717763414"><ele>733.1666666666666</ele><time>2026-04-07T14:30:48Z</time></trkpt><trkpt lat="44.701940214467896" lon="7.329644618429282"><ele>734.0</ele><time>2026-04-07T14:30:49Z</time></trkpt><trkpt lat="44.702099671751206" lon="7.329494940553686"><ele>730.75</ele><time>2026-04-07T14:30:51Z</time></trkpt><trkpt lat="44.702189280812945" lon="7.329338628551822"><ele>727.5</ele><time>2026-04-07T14:30:52Z</time></trkpt><trkpt lat="44.70229095483752" lon="7.3291777374508085"><ele>724.25</ele><time>2026-04-07T14:30:53Z</time></trkpt><trkpt lat="44.70238392789097" lon="7.3290239263969355"><ele>721.0</ele><time>2026-04-07T14:30:54Z</time></trkpt><trkpt lat="44.702484009615326" lon="7.328875920128248"><ele>722.0</ele><time>2026-04-07T14:30:55Z</time></trkpt><trkpt lat="44.70258439658883" lon="7.3287324231427835"><ele>723.0</ele><time>2026-04-07T14:30:56Z</time></trkpt><trkpt lat="44.70268324212937" lon="7.328611558819233"><ele>724.0</ele><time>2026-04-07T14:30:57Z</time></trkpt><trkpt lat="44.70277505733701" lon="7.328521221439635"><ele>725.0</ele><time>2026-04-07T14:30:58Z</time></trkpt><trkpt lat="44.70286155324126" lon="7.3284319382122165"><ele>725.0</ele><time>2026-04-07T14:30:59Z</time></trkpt><trkpt lat="44.70292317517948" lon="7.328306618895848"><ele>725.0</ele><time>2026-04-07T14:31:00Z</time></trkpt><trkpt lat="44.702935747270715" lon="7.328152431646257"><ele>725.0</ele><time>2026-04-07T14:31:01Z</time></trkpt><trkpt lat="44.70291636985465" lon="7.3279859949969905"><ele>725.0</ele><time>2026-04-07T14:31:02Z</time></trkpt><trkpt lat="44.70285104218256" lon="7.327795539489282"><ele>727.25</ele><time>2026-04-07T14:31:03Z</time></trkpt><trkpt lat="44.70279436100157" lon="7.327599204521586"><ele>729.5</ele><time>2026-04-07T14:31:04Z</time></trkpt><trkpt lat="44.70276294492795" lon="7.327420772410228"><ele>731.75</ele><time>2026-04-07T14:31:05Z</time></trkpt><trkpt lat="44.70274666118145" lon="7.32724463872325"><ele>734.0</ele><time>2026-04-07T14:31:05.999Z</time></trkpt><trkpt lat="44.7027432386125" lon="7.3270831937417515"><ele>728.8000000000001</ele><time>2026-04-07T14:31:06.999Z</time></trkpt><trkpt lat="44.70272596036739" lon="7.326933907558574"><ele>723.6</ele><time>2026-04-07T14:31:07.999Z</time></trkpt><trkpt lat="44.702733209960826" lon="7.3268120582512815"><ele>718.4</ele><time>2026-04-07T14:31:08.999Z</time></trkpt><trkpt lat="44.70276696527395" lon="7.326710571850112"><ele>713.2</ele><time>2026-04-07T14:31:09.999Z</time></trkpt><trkpt lat="44.70284175647806" lon="7.326628774605543"><ele>708.0</ele><time>2026-04-07T14:31:10.999Z</time></trkpt><trkpt lat="44.70293948457332" lon="7.326578749574135"><ele>708.0</ele><time>2026-04-07T14:31:11.999Z</time></trkpt><trkpt lat="44.703042136132375" lon="7.326520343364993"><ele>708.0</ele><time>2026-04-07T14:31:12.999Z</time></trkpt><trkpt lat="44.70314321412666" lon="7.326415895944106"><ele>708.0</ele><time>2026-04-07T14:31:13.999Z</time></trkpt><trkpt lat="44.70322199900971" lon="7.326241112047166"><ele>708.0</ele><time>2026-04-07T14:31:14.999Z</time></trkpt><trkpt lat="44.70329871843054" lon="7.326061182606656"><ele>706.2</ele><time>2026-04-07T14:31:15.999Z</time></trkpt><trkpt lat="44.70336784314947" lon="7.325905573477519"><ele>704.4</ele><time>2026-04-07T14:31:16.999Z</time></trkpt><trkpt lat="44.70343004342307" lon="7.325790005507085"><ele>702.6</ele><time>2026-04-07T14:31:17.999Z</time></trkpt><trkpt lat="44.703503815260014" lon="7.325724113065028"><ele>700.8000000000001</ele><time>2026-04-07T14:31:18.999Z</time></trkpt><trkpt lat="44.70360620819675" lon="7.325708947630406"><ele>699.0</ele><time>2026-04-07T14:31:19.999Z</time></trkpt><trkpt lat="44.70373808723468" lon="7.325729115116939"><ele>699.0</ele><time>2026-04-07T14:31:20.999Z</time></trkpt><trkpt lat="44.70387202076604" lon="7.3257326754476475"><ele>699.0</ele><time>2026-04-07T14:31:21.999Z</time></trkpt><trkpt lat="44.703972458460825" lon="7.325701736590068"><ele>699.0</ele><time>2026-04-07T14:31:22.999Z</time></trkpt><trkpt lat="44.70404054760304" lon="7.325627181308874"><ele>699.0</ele><time>2026-04-07T14:31:23.999Z</time></trkpt><trkpt lat="44.704098241017185" lon="7.325527046659026"><ele>699.0</ele><time>2026-04-07T14:31:24.999Z</time></trkpt><trkpt lat="44.70413980340834" lon="7.325397558588815"><ele>693.0</ele><time>2026-04-07T14:31:25.999Z</time></trkpt><trkpt lat="44.70415470336804" lon="7.325246248916706"><ele>687.0</ele><time>2026-04-07T14:31:26.999Z</time></trkpt><trkpt lat="44.70417857177024" lon="7.325090837939578"><ele>681.0</ele><time>2026-04-07T14:31:27.999Z</time></trkpt><trkpt lat="44.70421849754094" lon="7.324953424711962"><ele>675.0</ele><time>2026-04-07T14:31:28.999Z</time></trkpt><trkpt lat="44.70425943060971" lon="7.324811503506692"><ele>669.0</ele><time>2026-04-07T14:31:29.999Z</time></trkpt><trkpt lat="44.704292550523135" lon="7.324692801102937"><ele>665.8000000000001</ele><time>2026-04-07T14:31:30.999Z</time></trkpt><trkpt lat="44.7043190494291" lon="7.324600795487878"><ele>662.6</ele><time>2026-04-07T14:31:31.999Z</time></trkpt><trkpt lat="44.70438968232315" lon="7.324494009467562"><ele>659.4</ele><time>2026-04-07T14:31:33.999Z</time></trkpt><trkpt lat="44.70448192660986" lon="7.324599150743594"><ele>656.2</ele><time>2026-04-07T14:31:35.999Z</time></trkpt><trkpt lat="44.70445820335927" lon="7.324711858494814"><ele>653.0</ele><time>2026-04-07T14:31:36.999Z</time></trkpt><trkpt lat="44.70444818854719" lon="7.324831536210669"><ele>653.0</ele><time>2026-04-07T14:31:37.999Z</time></trkpt><trkpt lat="44.70445723450461" lon="7.324951940696664"><ele>653.0</ele><time>2026-04-07T14:31:38.999Z</time></trkpt><trkpt lat="44.7044552035629" lon="7.3250682375283755"><ele>653.0</ele><time>2026-04-07T14:31:39.999Z</time></trkpt><trkpt lat="44.70450661772107" lon="7.325175566966013"><ele>653.0</ele><time>2026-04-07T14:31:40.999Z</time></trkpt><trkpt lat="44.70460939953783" lon="7.325250765001084"><ele>653.0</ele><time>2026-04-07T14:31:41.999Z</time></trkpt><trkpt lat="44.704720771044485" lon="7.325343799770119"><ele>653.0</ele><time>2026-04-07T14:31:42.999Z</time></trkpt><trkpt lat="44.7048458045715" lon="7.325405641507675"><ele>653.0</ele><time>2026-04-07T14:31:43.999Z</time></trkpt><trkpt lat="44.704979058761566" lon="7.325438090792626"><ele>653.0</ele><time>2026-04-07T14:31:44.999Z</time></trkpt><trkpt lat="44.70508491525981" lon="7.325435310633973"><ele>653.0</ele><time>2026-04-07T14:31:45.999Z</time></trkpt><trkpt lat="44.70517363373849" lon="7.3254628273193525"><ele>652.8</ele><time>2026-04-07T14:31:46.999Z</time></trkpt><trkpt lat="44.7052614421293" lon="7.325532386427053"><ele>652.5999999999999</ele><time>2026-04-07T14:31:47.999Z</time></trkpt><trkpt lat="44.70533145178404" lon="7.325637136107379"><ele>652.4000000000001</ele><time>2026-04-07T14:31:48.999Z</time></trkpt><trkpt lat="44.70537391623254" lon="7.325741892644832"><ele>652.2</ele><time>2026-04-07T14:31:49.999Z</time></trkpt><trkpt lat="44.70542957715076" lon="7.325829467310116"><ele>652.0</ele><time>2026-04-07T14:31:50.999Z</time></trkpt><trkpt lat="44.70552611762257" lon="7.325851142737837"><ele>652.0</ele><time>2026-04-07T14:31:51.999Z</time></trkpt><trkpt lat="44.70563639989269" lon="7.325819721751788"><ele>652.0</ele><time>2026-04-07T14:31:52.999Z</time></trkpt><trkpt lat="44.70574637653304" lon="7.32576089015931"><ele>652.0</ele><time>2026-04-07T14:31:53.999Z</time></trkpt><trkpt lat="44.705831812385625" lon="7.3257097845072945"><ele>652.0</ele><time>2026-04-07T14:31:54.999Z</time></trkpt><trkpt lat="44.70591117985061" lon="7.325679145141405"><ele>652.0</ele><time>2026-04-07T14:31:55.999Z</time></trkpt><trkpt lat="44.706008545028915" lon="7.325690930940375"><ele>649.2</ele><time>2026-04-07T14:31:56.999Z</time></trkpt><trkpt lat="44.70611611392871" lon="7.325740252871136"><ele>646.4000000000001</ele><time>2026-04-07T14:31:57.999Z</time></trkpt><trkpt lat="44.70621877683478" lon="7.325797151594652"><ele>643.5999999999999</ele><time>2026-04-07T14:31:58.999Z</time></trkpt><trkpt lat="44.70631911213668" lon="7.325850344317413"><ele>640.8</ele><time>2026-04-07T14:32:00Z</time></trkpt><trkpt lat="44.706407010626805" lon="7.325913988018286"><ele>638.0</ele><time>2026-04-07T14:32:01Z</time></trkpt><trkpt lat="44.70647184955328" lon="7.325966803760793"><ele>638.0</ele><time>2026-04-07T14:32:02Z</time></trkpt><trkpt lat="44.706534815267275" lon="7.32600660975571"><ele>638.0</ele><time>2026-04-07T14:32:03Z</time></trkpt><trkpt lat="44.70660068214973" lon="7.325987571730237"><ele>638.0</ele><time>2026-04-07T14:32:04Z</time></trkpt><trkpt lat="44.7066395500679" lon="7.325913303130303"><ele>638.0</ele><time>2026-04-07T14:32:05Z</time></trkpt><trkpt lat="44.70663877279604" lon="7.325820413467464"><ele>638.0</ele><time>2026-04-07T14:32:06Z</time></trkpt><trkpt lat="44.706564053973075" lon="7.325746421533639"><ele>638.0</ele><time>2026-04-07T14:32:07Z</time></trkpt><trkpt lat="44.706479361044146" lon="7.325668951345614"><ele>638.0</ele><time>2026-04-07T14:32:08Z</time></trkpt><trkpt lat="44.706381198004955" lon="7.325584748709022"><ele>638.0</ele><time>2026-04-07T14:32:09Z</time></trkpt><trkpt lat="44.70628381656841" lon="7.325501216410802"><ele>638.0</ele><time>2026-04-07T14:32:10Z</time></trkpt><trkpt lat="44.706176694987946" lon="7.32543395241179"><ele>638.0</ele><time>2026-04-07T14:32:11Z</time></trkpt><trkpt lat="44.70609557039845" lon="7.325349923084622"><ele>638.0</ele><time>2026-04-07T14:32:12Z</time></trkpt><trkpt lat="44.70600985819627" lon="7.3252909272265265"><ele>635.1666666666666</ele><time>2026-04-07T14:32:13Z</time></trkpt><trkpt lat="44.70592164559912" lon="7.325256976758104"><ele>632.3333333333333</ele><time>2026-04-07T14:32:14Z</time></trkpt><trkpt lat="44.705840348732366" lon="7.325256826814802"><ele>629.5</ele><time>2026-04-07T14:32:15Z</time></trkpt><trkpt lat="44.70577630880868" lon="7.325241733894762"><ele>626.6666666666666</ele><time>2026-04-07T14:32:16Z</time></trkpt><trkpt lat="44.705689235109766" lon="7.325213185622246"><ele>623.8333333333334</ele><time>2026-04-07T14:32:18Z</time></trkpt><trkpt lat="44.70570762016845" lon="7.325127970495145"><ele>621.0</ele><time>2026-04-07T14:32:19Z</time></trkpt><trkpt lat="44.70576946361537" lon="7.325069998450969"><ele>621.0</ele><time>2026-04-07T14:32:20Z</time></trkpt><trkpt lat="44.70586494226772" lon="7.325079033136927"><ele>621.0</ele><time>2026-04-07T14:32:21Z</time></trkpt><trkpt lat="44.70596914121608" lon="7.325068077268283"><ele>621.0</ele><time>2026-04-07T14:32:22Z</time></trkpt><trkpt lat="44.70608063496301" lon="7.325057125701932"><ele>621.0</ele><time>2026-04-07T14:32:23Z</time></trkpt><trkpt lat="44.706192747638006" lon="7.32505601271343"><ele>621.0</ele><time>2026-04-07T14:32:24Z</time></trkpt><trkpt lat="44.70629641743995" lon="7.325022260461033"><ele>619.0</ele><time>2026-04-07T14:32:25Z</time></trkpt><trkpt lat="44.70639225025311" lon="7.3249483961383755"><ele>617.0</ele><time>2026-04-07T14:32:26Z</time></trkpt><trkpt lat="44.70649586093581" lon="7.324855804750116"><ele>615.0</ele><time>2026-04-07T14:32:27Z</time></trkpt><trkpt lat="44.70660246577185" lon="7.324792394983718"><ele>613.0</ele><time>2026-04-07T14:32:28Z</time></trkpt><trkpt lat="44.70670119249683" lon="7.3247432654948135"><ele>610.0</ele><time>2026-04-07T14:32:29Z</time></trkpt><trkpt lat="44.70679031993202" lon="7.324711731676318"><ele>607.0</ele><time>2026-04-07T14:32:30Z</time></trkpt><trkpt lat="44.70687386525064" lon="7.32470243824586"><ele>604.0</ele><time>2026-04-07T14:32:31Z</time></trkpt><trkpt lat="44.70695756108206" lon="7.324741680520793"><ele>601.0</ele><time>2026-04-07T14:32:32Z</time></trkpt><trkpt lat="44.7070362933523" lon="7.324836173729458"><ele>598.0</ele><time>2026-04-07T14:32:33Z</time></trkpt><trkpt lat="44.707118899862365" lon="7.324968813341223"><ele>596.6666666666667</ele><time>2026-04-07T14:32:34Z</time></trkpt><trkpt lat="44.707179367321544" lon="7.325089110247314"><ele>595.3333333333334</ele><time>2026-04-07T14:32:35Z</time></trkpt><trkpt lat="44.70722015813334" lon="7.325189647100515"><ele>594.0</ele><time>2026-04-07T14:32:36Z</time></trkpt><trkpt lat="44.707255284749465" lon="7.325274629625818"><ele>592.6666666666666</ele><time>2026-04-07T14:32:37Z</time></trkpt><trkpt lat="44.70729650053167" lon="7.325348261036476"><ele>591.3333333333333</ele><time>2026-04-07T14:32:38Z</time></trkpt><trkpt lat="44.70736140645329" lon="7.325346073007022"><ele>590.0</ele><time>2026-04-07T14:32:39Z</time></trkpt><trkpt lat="44.70741102220573" lon="7.325290953697162"><ele>590.0</ele><time>2026-04-07T14:32:40Z</time></trkpt><trkpt lat="44.70742324852145" lon="7.3251955058532205"><ele>590.0</ele><time>2026-04-07T14:32:41Z</time></trkpt><trkpt lat="44.70738434418901" lon="7.325073779361961"><ele>590.0</ele><time>2026-04-07T14:32:42Z</time></trkpt><trkpt lat="44.70735512169053" lon="7.324923491070342"><ele>590.0</ele><time>2026-04-07T14:32:43Z</time></trkpt><trkpt lat="44.70732938603092" lon="7.324763464032886"><ele>590.0</ele><time>2026-04-07T14:32:44Z</time></trkpt><trkpt lat="44.70732517040523" lon="7.324616883436335"><ele>589.2</ele><time>2026-04-07T14:32:45Z</time></trkpt><trkpt lat="44.707347186808036" lon="7.324471771446449"><ele>588.4</ele><time>2026-04-07T14:32:46Z</time></trkpt><trkpt lat="44.70739847359679" lon="7.324349460471238"><ele>587.6</ele><time>2026-04-07T14:32:47Z</time></trkpt><trkpt lat="44.70747356181495" lon="7.324249946427581"><ele>586.8</ele><time>2026-04-07T14:32:48Z</time></trkpt><trkpt lat="44.70756311690054" lon="7.32417020228979"><ele>586.0</ele><time>2026-04-07T14:32:49Z</time></trkpt><trkpt lat="44.70766497636101" lon="7.324120806421875"><ele>582.0</ele><time>2026-04-07T14:32:50Z</time></trkpt><trkpt lat="44.707773011506625" lon="7.324112731658649"><ele>578.0</ele><time>2026-04-07T14:32:51Z</time></trkpt><trkpt lat="44.707881536872" lon="7.3241454053000385"><ele>574.0</ele><time>2026-04-07T14:32:52Z</time></trkpt><trkpt lat="44.70798741677142" lon="7.324180976802903"><ele>570.0</ele><time>2026-04-07T14:32:53Z</time></trkpt><trkpt lat="44.70810051094032" lon="7.3242071411976255"><ele>566.0</ele><time>2026-04-07T14:32:54Z</time></trkpt><trkpt lat="44.70821302025023" lon="7.324227248643273"><ele>566.0</ele><time>2026-04-07T14:32:55Z</time></trkpt><trkpt lat="44.708318372182774" lon="7.3242298697607335"><ele>566.0</ele><time>2026-04-07T14:32:56Z</time></trkpt><trkpt lat="44.708404818370745" lon="7.324187081326539"><ele>566.0</ele><time>2026-04-07T14:32:57Z</time></trkpt><trkpt lat="44.70847483584484" lon="7.324145935177244"><ele>566.0</ele><time>2026-04-07T14:32:58Z</time></trkpt><trkpt lat="44.70853751024633" lon="7.324160415865523"><ele>566.0</ele><time>2026-04-07T14:32:59Z</time></trkpt><trkpt lat="44.70858503238555" lon="7.324233568299461"><ele>566.0</ele><time>2026-04-07T14:33:00Z</time></trkpt><trkpt lat="44.70860180026548" lon="7.32433673153281"><ele>566.0</ele><time>2026-04-07T14:33:01Z</time></trkpt><trkpt lat="44.7085790312298" lon="7.3244401623797035"><ele>566.0</ele><time>2026-04-07T14:33:02Z</time></trkpt><trkpt lat="44.70855756195393" lon="7.324542634387965"><ele>566.0</ele><time>2026-04-07T14:33:03Z</time></trkpt><trkpt lat="44.7085643414447" lon="7.32470895383156"><ele>566.0</ele><time>2026-04-07T14:33:05Z</time></trkpt><trkpt lat="44.70861871685578" lon="7.324758453701857"><ele>566.0</ele><time>2026-04-07T14:33:06Z</time></trkpt><trkpt lat="44.70868725286971" lon="7.324721725155246"><ele>566.0</ele><time>2026-04-07T14:33:07Z</time></trkpt><trkpt lat="44.70873413036639" lon="7.324643947896789"><ele>560.5</ele><time>2026-04-07T14:33:08Z</time></trkpt><trkpt lat="44.7087595591089" lon="7.32451594300822"><ele>555.0</ele><time>2026-04-07T14:33:08.999Z</time></trkpt><trkpt lat="44.70881599983858" lon="7.32437822638756"><ele>549.5</ele><time>2026-04-07T14:33:09.999Z</time></trkpt><trkpt lat="44.70889743433077" lon="7.324237082355343"><ele>544.0</ele><time>2026-04-07T14:33:10.999Z</time></trkpt><trkpt lat="44.70900764687386" lon="7.3241159437488985"><ele>544.0</ele><time>2026-04-07T14:33:11.999Z</time></trkpt><trkpt lat="44.70912868461528" lon="7.32400804005033"><ele>544.0</ele><time>2026-04-07T14:33:12.999Z</time></trkpt><trkpt lat="44.70924645340937" lon="7.323897863062017"><ele>544.0</ele><time>2026-04-07T14:33:13.999Z</time></trkpt><trkpt lat="44.70935243920799" lon="7.323792356403861"><ele>544.0</ele><time>2026-04-07T14:33:14.999Z</time></trkpt><trkpt lat="44.70945578332908" lon="7.3237103506998995"><ele>541.2</ele><time>2026-04-07T14:33:15.999Z</time></trkpt><trkpt lat="44.70954211573096" lon="7.3236440967927905"><ele>538.4</ele><time>2026-04-07T14:33:16.999Z</time></trkpt><trkpt lat="44.709624425193795" lon="7.3236109843912685"><ele>535.6</ele><time>2026-04-07T14:33:17.999Z</time></trkpt><trkpt lat="44.70973142154193" lon="7.32357779558392"><ele>532.8</ele><time>2026-04-07T14:33:19.999Z</time></trkpt><trkpt lat="44.709804114889856" lon="7.323664248786679"><ele>530.0</ele><time>2026-04-07T14:33:21.999Z</time></trkpt><trkpt lat="44.70977732633382" lon="7.323768570212571"><ele>530.0</ele><time>2026-04-07T14:33:22.999Z</time></trkpt><trkpt lat="44.70970327189546" lon="7.323833339518186"><ele>530.0</ele><time>2026-04-07T14:33:23.999Z</time></trkpt><trkpt lat="44.70963955114807" lon="7.323939732366576"><ele>530.0</ele><time>2026-04-07T14:33:24.999Z</time></trkpt><trkpt lat="44.70954428252846" lon="7.324047006520849"><ele>530.0</ele><time>2026-04-07T14:33:25.999Z</time></trkpt><trkpt lat="44.70947351274482" lon="7.324217084482431"><ele>530.0</ele><time>2026-04-07T14:33:26.999Z</time></trkpt><trkpt lat="44.709418893349834" lon="7.3244010117791625"><ele>531.5</ele><time>2026-04-07T14:33:27.999Z</time></trkpt><trkpt lat="44.70935742795947" lon="7.324566232314365"><ele>533.0</ele><time>2026-04-07T14:33:28.999Z</time></trkpt><trkpt lat="44.70929861594257" lon="7.3247297607073065"><ele>534.5</ele><time>2026-04-07T14:33:29.999Z</time></trkpt><trkpt lat="44.7092442040582" lon="7.324895906592527"><ele>536.0</ele><time>2026-04-07T14:33:30.999Z</time></trkpt><trkpt lat="44.70919104872661" lon="7.325063512514055"><ele>536.0</ele><time>2026-04-07T14:33:31.999Z</time></trkpt><trkpt lat="44.70914765135605" lon="7.32518976189556"><ele>536.0</ele><time>2026-04-07T14:33:32.999Z</time></trkpt><trkpt lat="44.709106474511415" lon="7.325291574216382"><ele>536.0</ele><time>2026-04-07T14:33:33.999Z</time></trkpt><trkpt lat="44.70907445581352" lon="7.325369598810353"><ele>536.0</ele><time>2026-04-07T14:33:34.999Z</time></trkpt><trkpt lat="44.709104652091824" lon="7.3255077871283145"><ele>536.0</ele><time>2026-04-07T14:33:36.999Z</time></trkpt><trkpt lat="44.70918005203276" lon="7.325516876099554"><ele>536.0</ele><time>2026-04-07T14:33:37.999Z</time></trkpt><trkpt lat="44.709274088750334" lon="7.325441599883736"><ele>536.0</ele><time>2026-04-07T14:33:38.999Z</time></trkpt><trkpt lat="44.70935899857298" lon="7.325351580619036"><ele>536.0</ele><time>2026-04-07T14:33:39.999Z</time></trkpt><trkpt lat="44.709455560462935" lon="7.325243268212962"><ele>536.0</ele><time>2026-04-07T14:33:40.999Z</time></trkpt><trkpt lat="44.709565219734685" lon="7.325123827174771"><ele>536.0</ele><time>2026-04-07T14:33:41.999Z</time></trkpt><trkpt lat="44.709696797467906" lon="7.325013592899438"><ele>532.75</ele><time>2026-04-07T14:33:42.999Z</time></trkpt><trkpt lat="44.709832397322934" lon="7.324919900751697"><ele>529.5</ele><time>2026-04-07T14:33:43.999Z</time></trkpt><trkpt lat="44.709964639123626" lon="7.324806418829141"><ele>526.25</ele><time>2026-04-07T14:33:44.999Z</time></trkpt><trkpt lat="44.710076208092815" lon="7.324689743961318"><ele>523.0</ele><time>2026-04-07T14:33:45.999Z</time></trkpt><trkpt lat="44.71018534901565" lon="7.3245873414666764"><ele>514.25</ele><time>2026-04-07T14:33:46.999Z</time></trkpt><trkpt lat="44.71031204237164" lon="7.324527002744455"><ele>505.5</ele><time>2026-04-07T14:33:47.999Z</time></trkpt><trkpt lat="44.71044048159432" lon="7.324483368721075"><ele>496.75</ele><time>2026-04-07T14:33:48.999Z</time></trkpt><trkpt lat="44.710554156521724" lon="7.324437689197272"><ele>488.0</ele><time>2026-04-07T14:33:49.999Z</time></trkpt><trkpt lat="44.71065867351475" lon="7.324390620056493"><ele>488.0</ele><time>2026-04-07T14:33:50.999Z</time></trkpt><trkpt lat="44.710754945433685" lon="7.324304884554811"><ele>488.0</ele><time>2026-04-07T14:33:51.999Z</time></trkpt><trkpt lat="44.71083769771532" lon="7.3241695917059"><ele>488.0</ele><time>2026-04-07T14:33:52.999Z</time></trkpt><trkpt lat="44.71090572406676" lon="7.323995930135886"><ele>488.0</ele><time>2026-04-07T14:33:53.999Z</time></trkpt><trkpt lat="44.71097240349726" lon="7.323814595888528"><ele>491.0</ele><time>2026-04-07T14:33:54.999Z</time></trkpt><trkpt lat="44.71103639475153" lon="7.323637554814438"><ele>494.0</ele><time>2026-04-07T14:33:55.999Z</time></trkpt><trkpt lat="44.71111507610763" lon="7.3234813117211175"><ele>497.0</ele><time>2026-04-07T14:33:56.999Z</time></trkpt><trkpt lat="44.71122536538868" lon="7.323351395039919"><ele>500.0</ele><time>2026-04-07T14:33:57.999Z</time></trkpt><trkpt lat="44.711356179258736" lon="7.323234301473064"><ele>493.5</ele><time>2026-04-07T14:33:58.999Z</time></trkpt><trkpt lat="44.71145914477679" lon="7.323084889698202"><ele>487.0</ele><time>2026-04-07T14:33:59.999Z</time></trkpt><trkpt lat="44.71153837061776" lon="7.322941533032415"><ele>480.5</ele><time>2026-04-07T14:34:00.999Z</time></trkpt><trkpt lat="44.711606232358946" lon="7.322800989206597"><ele>474.0</ele><time>2026-04-07T14:34:01.999Z</time></trkpt><trkpt lat="44.71164657865186" lon="7.322639928871212"><ele>472.75</ele><time>2026-04-07T14:34:02.999Z</time></trkpt><trkpt lat="44.711656205351055" lon="7.322482703547566"><ele>471.5</ele><time>2026-04-07T14:34:03.999Z</time></trkpt><trkpt lat="44.711642653077874" lon="7.322321167774095"><ele>470.25</ele><time>2026-04-07T14:34:04.999Z</time></trkpt><trkpt lat="44.71159930933734" lon="7.3221611266389415"><ele>469.0</ele><time>2026-04-07T14:34:06Z</time></trkpt><trkpt lat="44.711521785061315" lon="7.322016050347087"><ele>467.0</ele><time>2026-04-07T14:34:07Z</time></trkpt><trkpt lat="44.71147536507023" lon="7.321863261335484"><ele>465.0</ele><time>2026-04-07T14:34:08Z</time></trkpt><trkpt lat="44.71145349339237" lon="7.32170416204489"><ele>463.0</ele><time>2026-04-07T14:34:09Z</time></trkpt><trkpt lat="44.71144760373988" lon="7.3215397455454285"><ele>461.0</ele><time>2026-04-07T14:34:10Z</time></trkpt><trkpt lat="44.71147059419534" lon="7.321370410308568"><ele>461.0</ele><time>2026-04-07T14:34:11Z</time></trkpt><trkpt lat="44.7115118729786" lon="7.3212251322639235"><ele>461.0</ele><time>2026-04-07T14:34:12Z</time></trkpt><trkpt lat="44.711543300477565" lon="7.321098553563407"><ele>461.0</ele><time>2026-04-07T14:34:13Z</time></trkpt><trkpt lat="44.71156275930312" lon="7.32098969667638"><ele>461.0</ele><time>2026-04-07T14:34:14Z</time></trkpt><trkpt lat="44.71160373693501" lon="7.320899301618649"><ele>461.0</ele><time>2026-04-07T14:34:15Z</time></trkpt><trkpt lat="44.71168692046671" lon="7.3208042094845585"><ele>460.99999999999994</ele><time>2026-04-07T14:34:17Z</time></trkpt><trkpt lat="44.71175291780519" lon="7.32085314909243"><ele>461.0</ele><time>2026-04-07T14:34:18Z</time></trkpt><trkpt lat="44.71176397851089" lon="7.320967747051256"><ele>461.0</ele><time>2026-04-07T14:34:19Z</time></trkpt><trkpt lat="44.711784006054145" lon="7.321092557179432"><ele>461.0</ele><time>2026-04-07T14:34:20Z</time></trkpt><trkpt lat="44.71179705812731" lon="7.321217909357159"><ele>460.99999999999994</ele><time>2026-04-07T14:34:21Z</time></trkpt><trkpt lat="44.711830648208085" lon="7.321315497189634"><ele>461.0</ele><time>2026-04-07T14:34:22Z</time></trkpt><trkpt lat="44.71190713135104" lon="7.321352813833284"><ele>456.66666666666663</ele><time>2026-04-07T14:34:23Z</time></trkpt><trkpt lat="44.71197968878298" lon="7.321323871376616"><ele>452.3333333333333</ele><time>2026-04-07T14:34:24Z</time></trkpt><trkpt lat="44.71203352138262" lon="7.321242061161552"><ele>448.0</ele><time>2026-04-07T14:34:25Z</time></trkpt><trkpt lat="44.71207126269542" lon="7.321146608038782"><ele>443.66666666666663</ele><time>2026-04-07T14:34:26Z</time></trkpt><trkpt lat="44.71211178584197" lon="7.321054360720599"><ele>439.3333333333333</ele><time>2026-04-07T14:34:27Z</time></trkpt><trkpt lat="44.71214252669893" lon="7.320952062417307"><ele>435.0</ele><time>2026-04-07T14:34:28Z</time></trkpt><trkpt lat="44.71216538909132" lon="7.320841892729533"><ele>435.0</ele><time>2026-04-07T14:34:29Z</time></trkpt><trkpt lat="44.71218614566659" lon="7.320721691075471"><ele>435.0</ele><time>2026-04-07T14:34:30Z</time></trkpt><trkpt lat="44.71221000993656" lon="7.320585751785082"><ele>435.0</ele><time>2026-04-07T14:34:31Z</time></trkpt><trkpt lat="44.71223303740717" lon="7.320447583827108"><ele>435.0</ele><time>2026-04-07T14:34:32Z</time></trkpt><trkpt lat="44.712256645303846" lon="7.320304562790984"><ele>435.0</ele><time>2026-04-07T14:34:33Z</time></trkpt><trkpt lat="44.712280587583216" lon="7.320167355507377"><ele>434.0</ele><time>2026-04-07T14:34:34Z</time></trkpt><trkpt lat="44.712304445818425" lon="7.320034404232211"><ele>433.0</ele><time>2026-04-07T14:34:35Z</time></trkpt><trkpt lat="44.71233352183996" lon="7.31989749146656"><ele>432.0</ele><time>2026-04-07T14:34:36Z</time></trkpt><trkpt lat="44.71236794868011" lon="7.319771251902845"><ele>431.0</ele><time>2026-04-07T14:34:37Z</time></trkpt><trkpt lat="44.71240990403717" lon="7.319651557308176"><ele>430.0</ele><time>2026-04-07T14:34:38Z</time></trkpt><trkpt lat="44.71246745174749" lon="7.3195436035399375"><ele>428.6</ele><time>2026-04-07T14:34:39Z</time></trkpt><trkpt lat="44.712536126233125" lon="7.319438341036211"><ele>427.2</ele><time>2026-04-07T14:34:40Z</time></trkpt><trkpt lat="44.71261566950486" lon="7.319333802723632"><ele>425.79999999999995</ele><time>2026-04-07T14:34:41Z</time></trkpt><trkpt lat="44.71269932743491" lon="7.3192400145930385"><ele>424.4</ele><time>2026-04-07T14:34:42Z</time></trkpt><trkpt lat="44.71277984510128" lon="7.319141400332008"><ele>423.0</ele><time>2026-04-07T14:34:43Z</time></trkpt><trkpt lat="44.712855053725505" lon="7.319032172726881"><ele>421.0</ele><time>2026-04-07T14:34:44Z</time></trkpt><trkpt lat="44.71292612177812" lon="7.3189185351500425"><ele>419.0</ele><time>2026-04-07T14:34:45Z</time></trkpt><trkpt lat="44.7129917291449" lon="7.318806411146352"><ele>417.0</ele><time>2026-04-07T14:34:46Z</time></trkpt><trkpt lat="44.71306953877724" lon="7.318706845818675"><ele>415.0</ele><time>2026-04-07T14:34:47Z</time></trkpt><trkpt lat="44.713133952809414" lon="7.318590056443745"><ele>413.0</ele><time>2026-04-07T14:34:48Z</time></trkpt><trkpt lat="44.71318433724413" lon="7.318463805019113"><ele>411.59999999999997</ele><time>2026-04-07T14:34:49Z</time></trkpt><trkpt lat="44.71325164371417" lon="7.31835205805174"><ele>410.2</ele><time>2026-04-07T14:34:50Z</time></trkpt><trkpt lat="44.71330996718208" lon="7.318234927010851"><ele>408.8</ele><time>2026-04-07T14:34:51Z</time></trkpt><trkpt lat="44.71337136785226" lon="7.318106739493349"><ele>407.4</ele><time>2026-04-07T14:34:52Z</time></trkpt><trkpt lat="44.71343624790465" lon="7.317992335305895"><ele>406.0</ele><time>2026-04-07T14:34:53Z</time></trkpt><trkpt lat="44.71350910468796" lon="7.3178891402738975"><ele>403.20000000000005</ele><time>2026-04-07T14:34:54Z</time></trkpt><trkpt lat="44.71359745113589" lon="7.317814040467791"><ele>400.40000000000003</ele><time>2026-04-07T14:34:55Z</time></trkpt><trkpt lat="44.71370557608154" lon="7.317786634388004"><ele>397.6</ele><time>2026-04-07T14:34:56Z</time></trkpt><trkpt lat="44.7138238877132" lon="7.317765991493177"><ele>394.8</ele><time>2026-04-07T14:34:57Z</time></trkpt><trkpt lat="44.713938131565406" lon="7.3177392928093195"><ele>392.0</ele><time>2026-04-07T14:34:58Z</time></trkpt><trkpt lat="44.71404927067339" lon="7.317710946641424"><ele>392.0</ele><time>2026-04-07T14:34:59Z</time></trkpt><trkpt lat="44.714143379908464" lon="7.317688872028512"><ele>392.0</ele><time>2026-04-07T14:35:00Z</time></trkpt><trkpt lat="44.71421851797703" lon="7.317661071005316"><ele>392.0</ele><time>2026-04-07T14:35:01Z</time></trkpt><trkpt lat="44.71428233568127" lon="7.317627511234067"><ele>392.0</ele><time>2026-04-07T14:35:02Z</time></trkpt><trkpt lat="44.714396463221995" lon="7.317595628697652"><ele>392.0</ele><time>2026-04-07T14:35:04Z</time></trkpt><trkpt lat="44.714526942102026" lon="7.317671814522812"><ele>391.75</ele><time>2026-04-07T14:35:06Z</time></trkpt><trkpt lat="44.714598857326145" lon="7.317762953394195"><ele>391.5</ele><time>2026-04-07T14:35:07Z</time></trkpt><trkpt lat="44.714674466893634" lon="7.317874547400619"><ele>391.25</ele><time>2026-04-07T14:35:08Z</time></trkpt><trkpt lat="44.71475743433346" lon="7.317998336755794"><ele>391.0</ele><time>2026-04-07T14:35:09Z</time></trkpt><trkpt lat="44.71484253777277" lon="7.318127249209581"><ele>391.0</ele><time>2026-04-07T14:35:10Z</time></trkpt><trkpt lat="44.71493632900791" lon="7.318277561058799"><ele>391.0</ele><time>2026-04-07T14:35:11Z</time></trkpt><trkpt lat="44.71502240647002" lon="7.318449366518551"><ele>391.0</ele><time>2026-04-07T14:35:12Z</time></trkpt><trkpt lat="44.715097635647105" lon="7.3186323123111325"><ele>391.0</ele><time>2026-04-07T14:35:13Z</time></trkpt><trkpt lat="44.71517362793828" lon="7.318836985988129"><ele>390.75</ele><time>2026-04-07T14:35:13.999Z</time></trkpt><trkpt lat="44.71523394475885" lon="7.319015512311859"><ele>390.5</ele><time>2026-04-07T14:35:14.999Z</time></trkpt><trkpt lat="44.71528751573886" lon="7.319185366177889"><ele>390.25</ele><time>2026-04-07T14:35:15.999Z</time></trkpt><trkpt lat="44.71534221183918" lon="7.319370795968497"><ele>390.0</ele><time>2026-04-07T14:35:16.999Z</time></trkpt><trkpt lat="44.71539874345193" lon="7.319558045174623"><ele>390.0</ele><time>2026-04-07T14:35:17.999Z</time></trkpt><trkpt lat="44.71545680585447" lon="7.319716686435973"><ele>390.0</ele><time>2026-04-07T14:35:18.999Z</time></trkpt><trkpt lat="44.715513865168056" lon="7.319858976345721"><ele>390.0</ele><time>2026-04-07T14:35:19.999Z</time></trkpt><trkpt lat="44.71557148745219" lon="7.319987022331758"><ele>390.0</ele><time>2026-04-07T14:35:20.999Z</time></trkpt><trkpt lat="44.7156471054257" lon="7.320123248885372"><ele>388.33333333333337</ele><time>2026-04-07T14:35:21.999Z</time></trkpt><trkpt lat="44.71574203265914" lon="7.320273893820086"><ele>386.6666666666667</ele><time>2026-04-07T14:35:22.999Z</time></trkpt><trkpt lat="44.71585070501345" lon="7.320423714305216"><ele>385.0</ele><time>2026-04-07T14:35:23.999Z</time></trkpt><trkpt lat="44.71597430961039" lon="7.320561145582924"><ele>384.33333333333337</ele><time>2026-04-07T14:35:24.999Z</time></trkpt><trkpt lat="44.71610950276556" lon="7.320687896258039"><ele>383.6666666666667</ele><time>2026-04-07T14:35:25.999Z</time></trkpt><trkpt lat="44.71626405772401" lon="7.320808154071073"><ele>383.0</ele><time>2026-04-07T14:35:26.999Z</time></trkpt><trkpt lat="44.71643370179716" lon="7.320903577924383"><ele>383.0</ele><time>2026-04-07T14:35:27.999Z</time></trkpt><trkpt lat="44.716613875733266" lon="7.320977549689426"><ele>383.0</ele><time>2026-04-07T14:35:28.999Z</time></trkpt><trkpt lat="44.7167831489625" lon="7.321036578093932"><ele>383.0</ele><time>2026-04-07T14:35:29.999Z</time></trkpt><trkpt lat="44.71693849756428" lon="7.321097766957185"><ele>382.0</ele><time>2026-04-07T14:35:30.999Z</time></trkpt><trkpt lat="44.71708714573327" lon="7.321151680027249"><ele>381.0</ele><time>2026-04-07T14:35:31.999Z</time></trkpt><trkpt lat="44.71724246173011" lon="7.321191160814942"><ele>380.0</ele><time>2026-04-07T14:35:32.999Z</time></trkpt><trkpt lat="44.717396930997666" lon="7.321231455688362"><ele>380.0</ele><time>2026-04-07T14:35:33.999Z</time></trkpt><trkpt lat="44.717557752705616" lon="7.321263931488211"><ele>380.0</ele><time>2026-04-07T14:35:34.999Z</time></trkpt><trkpt lat="44.7177291060895" lon="7.321275641134551"><ele>380.0</ele><time>2026-04-07T14:35:35.999Z</time></trkpt><trkpt lat="44.71789897405329" lon="7.321277432935301"><ele>380.6666666666667</ele><time>2026-04-07T14:35:36.999Z</time></trkpt><trkpt lat="44.71807127533256" lon="7.321293793637404"><ele>381.3333333333333</ele><time>2026-04-07T14:35:37.999Z</time></trkpt><trkpt lat="44.71824105622231" lon="7.321328548343881"><ele>382.0</ele><time>2026-04-07T14:35:38.999Z</time></trkpt><trkpt lat="44.718405911563785" lon="7.321382888129753"><ele>381.3333333333333</ele><time>2026-04-07T14:35:39.999Z</time></trkpt><trkpt lat="44.718567813612836" lon="7.32146960635842"><ele>380.6666666666667</ele><time>2026-04-07T14:35:40.999Z</time></trkpt><trkpt lat="44.7187251028917" lon="7.321567749246226"><ele>380.0</ele><time>2026-04-07T14:35:41.999Z</time></trkpt><trkpt lat="44.71887580533039" lon="7.321671946483028"><ele>380.0</ele><time>2026-04-07T14:35:42.999Z</time></trkpt><trkpt lat="44.719019720083836" lon="7.321785151712478"><ele>380.0</ele><time>2026-04-07T14:35:43.999Z</time></trkpt><trkpt lat="44.719169679972985" lon="7.321868458743526"><ele>380.0</ele><time>2026-04-07T14:35:44.999Z</time></trkpt><trkpt lat="44.71933301568472" lon="7.321923981919738"><ele>383.0</ele><time>2026-04-07T14:35:45.999Z</time></trkpt><trkpt lat="44.719497317808084" lon="7.321968467779225"><ele>386.0</ele><time>2026-04-07T14:35:46.999Z</time></trkpt><trkpt lat="44.71965757957051" lon="7.321989347209938"><ele>389.0</ele><time>2026-04-07T14:35:47.999Z</time></trkpt><trkpt lat="44.71982175972602" lon="7.321976144587263"><ele>389.0</ele><time>2026-04-07T14:35:48.999Z</time></trkpt><trkpt lat="44.719987651597954" lon="7.321946225476425"><ele>389.0</ele><time>2026-04-07T14:35:49.999Z</time></trkpt><trkpt lat="44.72015114594213" lon="7.3218936094727685"><ele>389.0</ele><time>2026-04-07T14:35:50.999Z</time></trkpt><trkpt lat="44.720311370781765" lon="7.321804173107493"><ele>385.66666666666663</ele><time>2026-04-07T14:35:51.999Z</time></trkpt><trkpt lat="44.72047099943216" lon="7.321701233274809"><ele>382.3333333333333</ele><time>2026-04-07T14:35:52.999Z</time></trkpt><trkpt lat="44.72063404305287" lon="7.321600705271094"><ele>379.0</ele><time>2026-04-07T14:35:53.999Z</time></trkpt><trkpt lat="44.720801992664974" lon="7.321509106430936"><ele>379.0</ele><time>2026-04-07T14:35:54.999Z</time></trkpt><trkpt lat="44.72096384977807" lon="7.321429711841866"><ele>379.0</ele><time>2026-04-07T14:35:55.999Z</time></trkpt><trkpt lat="44.721122328241165" lon="7.321369735954105"><ele>379.0</ele><time>2026-04-07T14:35:56.999Z</time></trkpt><trkpt lat="44.721293767937055" lon="7.321326896616786"><ele>379.66666666666663</ele><time>2026-04-07T14:35:57.999Z</time></trkpt><trkpt lat="44.72146723515839" lon="7.321300494622644"><ele>380.3333333333333</ele><time>2026-04-07T14:35:58.999Z</time></trkpt><trkpt lat="44.721624887539065" lon="7.321294777641762"><ele>381.0</ele><time>2026-04-07T14:35:59.999Z</time></trkpt><trkpt lat="44.72178769990657" lon="7.321301345253475"><ele>380.0</ele><time>2026-04-07T14:36:00.999Z</time></trkpt><trkpt lat="44.721950814405574" lon="7.321329867229754"><ele>379.0</ele><time>2026-04-07T14:36:01.999Z</time></trkpt><trkpt lat="44.722098844887704" lon="7.321382995267498"><ele>378.0</ele><time>2026-04-07T14:36:02.999Z</time></trkpt><trkpt lat="44.722235221836904" lon="7.321437439198354"><ele>378.25</ele><time>2026-04-07T14:36:03.999Z</time></trkpt><trkpt lat="44.722369533423425" lon="7.321500580768361"><ele>378.5</ele><time>2026-04-07T14:36:04.999Z</time></trkpt><trkpt lat="44.72250786364247" lon="7.321575193483195"><ele>378.75</ele><time>2026-04-07T14:36:05.999Z</time></trkpt><trkpt lat="44.72264645650203" lon="7.321653257396744"><ele>379.0</ele><time>2026-04-07T14:36:06.999Z</time></trkpt><trkpt lat="44.72277840910546" lon="7.321727658474562"><ele>379.0</ele><time>2026-04-07T14:36:07.999Z</time></trkpt><trkpt lat="44.722906038894315" lon="7.321800827824253"><ele>379.0</ele><time>2026-04-07T14:36:08.999Z</time></trkpt><trkpt lat="44.723035021855445" lon="7.321872819089576"><ele>379.0</ele><time>2026-04-07T14:36:09.999Z</time></trkpt><trkpt lat="44.72316812489546" lon="7.321942907306572"><ele>379.0</ele><time>2026-04-07T14:36:10.999Z</time></trkpt><trkpt lat="44.72329234277779" lon="7.322000754927542"><ele>379.0</ele><time>2026-04-07T14:36:12Z</time></trkpt><trkpt lat="44.72342264412159" lon="7.322045822233402"><ele>379.0</ele><time>2026-04-07T14:36:13Z</time></trkpt><trkpt lat="44.7235399392029" lon="7.322072178048261"><ele>379.0</ele><time>2026-04-07T14:36:14Z</time></trkpt><trkpt lat="44.7236534324061" lon="7.322098570691365"><ele>379.0</ele><time>2026-04-07T14:36:15Z</time></trkpt><trkpt lat="44.723769892696936" lon="7.322106496189393"><ele>379.0</ele><time>2026-04-07T14:36:16Z</time></trkpt><trkpt lat="44.723888872020474" lon="7.322122816901359"><ele>379.0</ele><time>2026-04-07T14:36:17Z</time></trkpt><trkpt lat="44.72400992461564" lon="7.322145065082785"><ele>379.0</ele><time>2026-04-07T14:36:18Z</time></trkpt><trkpt lat="44.72412395251764" lon="7.322163413783187"><ele>379.0</ele><time>2026-04-07T14:36:19Z</time></trkpt><trkpt lat="44.72424109202322" lon="7.322182426413267"><ele>379.0</ele><time>2026-04-07T14:36:20Z</time></trkpt><trkpt lat="44.72435734371666" lon="7.32219802832356"><ele>379.0</ele><time>2026-04-07T14:36:21Z</time></trkpt><trkpt lat="44.724475097581205" lon="7.32221763847551"><ele>379.0</ele><time>2026-04-07T14:36:22Z</time></trkpt><trkpt lat="44.72457832789621" lon="7.322234599846901"><ele>379.0</ele><time>2026-04-07T14:36:23Z</time></trkpt><trkpt lat="44.72469245581173" lon="7.322249595286956"><ele>379.0</ele><time>2026-04-07T14:36:24Z</time></trkpt><trkpt lat="44.72479938937888" lon="7.322267314817997"><ele>379.0</ele><time>2026-04-07T14:36:25Z</time></trkpt><trkpt lat="44.72490084262365" lon="7.322279758404773"><ele>379.0</ele><time>2026-04-07T14:36:26Z</time></trkpt><trkpt lat="44.72500962949603" lon="7.322301056041803"><ele>379.0</ele><time>2026-04-07T14:36:27Z</time></trkpt><trkpt lat="44.72512081721989" lon="7.322312068597152"><ele>379.0</ele><time>2026-04-07T14:36:28Z</time></trkpt><trkpt lat="44.72522983031389" lon="7.322326705866187"><ele>379.0</ele><time>2026-04-07T14:36:29Z</time></trkpt><trkpt lat="44.725333969381595" lon="7.322350339619999"><ele>379.0</ele><time>2026-04-07T14:36:30Z</time></trkpt><trkpt lat="44.725436840677" lon="7.322365903720259"><ele>379.0</ele><time>2026-04-07T14:36:31Z</time></trkpt><trkpt lat="44.72553594830445" lon="7.322381838112448"><ele>379.0</ele><time>2026-04-07T14:36:32Z</time></trkpt><trkpt lat="44.72564094732791" lon="7.322388372402191"><ele>379.0</ele><time>2026-04-07T14:36:33Z</time></trkpt><trkpt lat="44.725746527070044" lon="7.3224104442411555"><ele>379.0</ele><time>2026-04-07T14:36:34Z</time></trkpt><trkpt lat="44.72585506460699" lon="7.322419497488789"><ele>379.0</ele><time>2026-04-07T14:36:35Z</time></trkpt><trkpt lat="44.725963515950106" lon="7.322427546477745"><ele>379.0</ele><time>2026-04-07T14:36:36Z</time></trkpt><trkpt lat="44.72607958172999" lon="7.322449736130098"><ele>379.0</ele><time>2026-04-07T14:36:37Z</time></trkpt><trkpt lat="44.72620183545839" lon="7.322452833228217"><ele>378.8333333333333</ele><time>2026-04-07T14:36:38Z</time></trkpt><trkpt lat="44.72630152672471" lon="7.322458099657311"><ele>378.66666666666663</ele><time>2026-04-07T14:36:39Z</time></trkpt><trkpt lat="44.72639425517489" lon="7.322477839165046"><ele>378.5</ele><time>2026-04-07T14:36:40Z</time></trkpt><trkpt lat="44.726484152826764" lon="7.322494228959736"><ele>378.3333333333333</ele><time>2026-04-07T14:36:41Z</time></trkpt><trkpt lat="44.72656412089467" lon="7.322508859155348"><ele>378.1666666666667</ele><time>2026-04-07T14:36:42Z</time></trkpt><trkpt lat="44.72662523180143" lon="7.322538015817183"><ele>378.0</ele><time>2026-04-07T14:36:43Z</time></trkpt><trkpt lat="44.7266829655037" lon="7.322583908354784"><ele>378.0</ele><time>2026-04-07T14:36:44Z</time></trkpt><trkpt lat="44.72678992566707" lon="7.322625714351946"><ele>378.0</ele><time>2026-04-07T14:36:46Z</time></trkpt><trkpt lat="44.726875213763286" lon="7.32250960443676"><ele>378.0</ele><time>2026-04-07T14:36:48Z</time></trkpt><trkpt lat="44.726882059494194" lon="7.322364257272752"><ele>378.0</ele><time>2026-04-07T14:36:50Z</time></trkpt><trkpt lat="44.72704188835297" lon="7.322345365961503"><ele>378.3333333333333</ele><time>2026-04-07T14:36:53Z</time></trkpt><trkpt lat="44.72711383131204" lon="7.322391228915086"><ele>378.6666666666667</ele><time>2026-04-07T14:36:55Z</time></trkpt><trkpt lat="44.72718507965963" lon="7.3223922050911225"><ele>379.0</ele><time>2026-04-07T14:36:58Z</time></trkpt><trkpt lat="44.727166866052265" lon="7.3222935006163326"><ele>379.33333333333337</ele><time>2026-04-07T14:37:46.999Z</time></trkpt><trkpt lat="44.72711718483725" lon="7.322226238712596"><ele>379.6666666666667</ele><time>2026-04-07T14:38:04.999Z</time></trkpt><trkpt lat="44.72716437400242" lon="7.322287115860952"><ele>380.0</ele><time>2026-04-07T14:39:10Z</time></trkpt><trkpt lat="44.727070200272664" lon="7.322247469682978"><ele>380.0</ele><time>2026-04-07T14:42:13.999Z</time></trkpt><trkpt lat="44.726959143205754" lon="7.322227371410406"><ele>380.0</ele><time>2026-04-07T14:42:15.999Z</time></trkpt><trkpt lat="44.726862276214916" lon="7.322220697363428"><ele>380.0</ele><time>2026-04-07T14:42:17.999Z</time></trkpt><trkpt lat="44.726771474536434" lon="7.322289562786783"><ele>380.0</ele><time>2026-04-07T14:42:19.999Z</time></trkpt><trkpt lat="44.72670093165957" lon="7.322423362901253"><ele>380.0</ele><time>2026-04-07T14:42:21.999Z</time></trkpt><trkpt lat="44.72671771832754" lon="7.322591540776611"><ele>379.6666666666667</ele><time>2026-04-07T14:42:23.999Z</time></trkpt><trkpt lat="44.72677762462897" lon="7.322660459724106"><ele>379.33333333333337</ele><time>2026-04-07T14:42:24.999Z</time></trkpt><trkpt lat="44.726847872755755" lon="7.322739042419218"><ele>379.0</ele><time>2026-04-07T14:42:25.999Z</time></trkpt><trkpt lat="44.72691579351528" lon="7.322832564945534"><ele>378.6666666666667</ele><time>2026-04-07T14:42:26.999Z</time></trkpt><trkpt lat="44.72697689614216" lon="7.322923928863576"><ele>378.3333333333333</ele><time>2026-04-07T14:42:27.999Z</time></trkpt><trkpt lat="44.72703966608826" lon="7.323016197181088"><ele>378.0</ele><time>2026-04-07T14:42:28.999Z</time></trkpt><trkpt lat="44.72710530078273" lon="7.323128454214164"><ele>376.5</ele><time>2026-04-07T14:42:30Z</time></trkpt><trkpt lat="44.72717856642128" lon="7.32325569690703"><ele>375.0</ele><time>2026-04-07T14:42:31Z</time></trkpt><trkpt lat="44.727262302876504" lon="7.323394325080458"><ele>373.5</ele><time>2026-04-07T14:42:32Z</time></trkpt><trkpt lat="44.727344829802696" lon="7.323551664993951"><ele>372.0</ele><time>2026-04-07T14:42:33Z</time></trkpt><trkpt lat="44.72741342550241" lon="7.323707229527991"><ele>372.0</ele><time>2026-04-07T14:42:34Z</time></trkpt><trkpt lat="44.72746591281719" lon="7.3238752801017935"><ele>372.0</ele><time>2026-04-07T14:42:35Z</time></trkpt><trkpt lat="44.7275010089777" lon="7.32406565971016"><ele>372.0</ele><time>2026-04-07T14:42:36Z</time></trkpt><trkpt lat="44.727537964361204" lon="7.324249819598775"><ele>372.0</ele><time>2026-04-07T14:42:37Z</time></trkpt><trkpt lat="44.72757314988294" lon="7.324425941201202"><ele>371.75</ele><time>2026-04-07T14:42:38Z</time></trkpt><trkpt lat="44.72760472078571" lon="7.3246040741011305"><ele>371.5</ele><time>2026-04-07T14:42:39Z</time></trkpt><trkpt lat="44.72764923567073" lon="7.324785208099903"><ele>371.25</ele><time>2026-04-07T14:42:40Z</time></trkpt><trkpt lat="44.7276846883603" lon="7.324968016210476"><ele>371.0</ele><time>2026-04-07T14:42:41Z</time></trkpt><trkpt lat="44.727719427228955" lon="7.325124718589417"><ele>371.4</ele><time>2026-04-07T14:42:42Z</time></trkpt><trkpt lat="44.72775429148747" lon="7.325282441285039"><ele>371.8</ele><time>2026-04-07T14:42:43Z</time></trkpt><trkpt lat="44.727790553061276" lon="7.325432193935875"><ele>372.2</ele><time>2026-04-07T14:42:44Z</time></trkpt><trkpt lat="44.7278152351469" lon="7.325571095197392"><ele>372.59999999999997</ele><time>2026-04-07T14:42:45Z</time></trkpt><trkpt lat="44.72784354186607" lon="7.325696933760826"><ele>373.0</ele><time>2026-04-07T14:42:46Z</time></trkpt><trkpt lat="44.72786887828462" lon="7.325809714910243"><ele>373.0</ele><time>2026-04-07T14:42:47Z</time></trkpt><trkpt lat="44.72788367618764" lon="7.325897446126607"><ele>373.0</ele><time>2026-04-07T14:42:48Z</time></trkpt><trkpt lat="44.727911499238765" lon="7.326039330681739"><ele>373.0</ele><time>2026-04-07T14:42:50Z</time></trkpt><trkpt lat="44.72794197701735" lon="7.326202432508107"><ele>373.0</ele><time>2026-04-07T14:42:52Z</time></trkpt><trkpt lat="44.72796065622069" lon="7.326309680300913"><ele>373.0</ele><time>2026-04-07T14:42:53Z</time></trkpt><trkpt lat="44.727990425337026" lon="7.326421042345693"><ele>372.5</ele><time>2026-04-07T14:42:54Z</time></trkpt><trkpt lat="44.7280217128275" lon="7.326560760689184"><ele>372.0</ele><time>2026-04-07T14:42:55Z</time></trkpt><trkpt lat="44.728058726163525" lon="7.326724132946139"><ele>371.5</ele><time>2026-04-07T14:42:56Z</time></trkpt><trkpt lat="44.728093470418415" lon="7.3269395199002085"><ele>371.0</ele><time>2026-04-07T14:42:57Z</time></trkpt><trkpt lat="44.72810769462549" lon="7.327152802299766"><ele>370.25</ele><time>2026-04-07T14:42:58Z</time></trkpt><trkpt lat="44.72812242861345" lon="7.3273498945527225"><ele>369.5</ele><time>2026-04-07T14:42:59Z</time></trkpt><trkpt lat="44.7281459504016" lon="7.327529956043129"><ele>368.75</ele><time>2026-04-07T14:43:00Z</time></trkpt><trkpt lat="44.72816503656264" lon="7.327707178559611"><ele>368.0</ele><time>2026-04-07T14:43:01Z</time></trkpt><trkpt lat="44.72818485150487" lon="7.327879789158008"><ele>368.0</ele><time>2026-04-07T14:43:02Z</time></trkpt><trkpt lat="44.728207235262204" lon="7.328056323624015"><ele>368.0</ele><time>2026-04-07T14:43:03Z</time></trkpt><trkpt lat="44.72823390558913" lon="7.328237577516043"><ele>368.0</ele><time>2026-04-07T14:43:04Z</time></trkpt><trkpt lat="44.72825848107781" lon="7.328416617427714"><ele>368.0</ele><time>2026-04-07T14:43:05Z</time></trkpt><trkpt lat="44.72833335790806" lon="7.328575444667172"><ele>367.4</ele><time>2026-04-07T14:43:06Z</time></trkpt><trkpt lat="44.728351031666065" lon="7.3287287174200175"><ele>366.79999999999995</ele><time>2026-04-07T14:43:07Z</time></trkpt><trkpt lat="44.728366018601584" lon="7.328863408953675"><ele>366.2</ele><time>2026-04-07T14:43:08Z</time></trkpt><trkpt lat="44.728376641381416" lon="7.328981967897545"><ele>365.6</ele><time>2026-04-07T14:43:09Z</time></trkpt><trkpt lat="44.7283092895032" lon="7.329092766441937"><ele>365.0</ele><time>2026-04-07T14:43:10Z</time></trkpt><trkpt lat="44.728298072038996" lon="7.32919219634469"><ele>365.0</ele><time>2026-04-07T14:43:11Z</time></trkpt><trkpt lat="44.728349161529195" lon="7.329303600940887"><ele>365.0</ele><time>2026-04-07T14:43:13Z</time></trkpt><trkpt lat="44.72840236250365" lon="7.329356076867783"><ele>365.0</ele><time>2026-04-07T14:43:14Z</time></trkpt><trkpt lat="44.72849679462208" lon="7.329308101055372"><ele>365.0</ele><time>2026-04-07T14:43:15Z</time></trkpt><trkpt lat="44.72859686528797" lon="7.329300298493285"><ele>365.0</ele><time>2026-04-07T14:43:16Z</time></trkpt><trkpt lat="44.72868418399713" lon="7.329354890067725"><ele>365.0</ele><time>2026-04-07T14:43:17Z</time></trkpt><trkpt lat="44.72876251599203" lon="7.3293971486058185"><ele>365.0</ele><time>2026-04-07T14:43:18Z</time></trkpt><trkpt lat="44.72884584693514" lon="7.329442103978928"><ele>365.0</ele><time>2026-04-07T14:43:19Z</time></trkpt><trkpt lat="44.72894565956352" lon="7.329488465838921"><ele>365.0</ele><time>2026-04-07T14:43:20Z</time></trkpt><trkpt lat="44.7290505065665" lon="7.3295442349107445"><ele>365.0</ele><time>2026-04-07T14:43:21Z</time></trkpt><trkpt lat="44.72916810719697" lon="7.32959387277416"><ele>365.0</ele><time>2026-04-07T14:43:22Z</time></trkpt><trkpt lat="44.72929157669003" lon="7.329623548083671"><ele>365.0</ele><time>2026-04-07T14:43:23Z</time></trkpt><trkpt lat="44.729412887250824" lon="7.329659846137481"><ele>365.0</ele><time>2026-04-07T14:43:24Z</time></trkpt><trkpt lat="44.729520626807485" lon="7.32966260125269"><ele>365.0</ele><time>2026-04-07T14:43:25Z</time></trkpt><trkpt lat="44.729641901644996" lon="7.329683634257774"><ele>365.25</ele><time>2026-04-07T14:43:26Z</time></trkpt><trkpt lat="44.72975865955068" lon="7.329707288526509"><ele>365.5</ele><time>2026-04-07T14:43:27Z</time></trkpt><trkpt lat="44.72988460418605" lon="7.329728673931892"><ele>365.75</ele><time>2026-04-07T14:43:28Z</time></trkpt><trkpt lat="44.73000609202733" lon="7.3297469966336"><ele>366.0</ele><time>2026-04-07T14:43:29Z</time></trkpt><trkpt lat="44.730127674193156" lon="7.329764204975849"><ele>365.5</ele><time>2026-04-07T14:43:30Z</time></trkpt><trkpt lat="44.730251623742" lon="7.32979054993758"><ele>365.0</ele><time>2026-04-07T14:43:31Z</time></trkpt><trkpt lat="44.73036654789406" lon="7.329817775443933"><ele>364.5</ele><time>2026-04-07T14:43:32Z</time></trkpt><trkpt lat="44.730470528280925" lon="7.329854944450447"><ele>364.0</ele><time>2026-04-07T14:43:33Z</time></trkpt><trkpt lat="44.73056741034791" lon="7.329926818251947"><ele>364.0</ele><time>2026-04-07T14:43:34Z</time></trkpt><trkpt lat="44.73065320201166" lon="7.330042389706124"><ele>364.0</ele><time>2026-04-07T14:43:35Z</time></trkpt><trkpt lat="44.730716474103225" lon="7.3301982976867155"><ele>364.0</ele><time>2026-04-07T14:43:36Z</time></trkpt><trkpt lat="44.73077152652793" lon="7.330353313650918"><ele>364.0</ele><time>2026-04-07T14:43:36.999Z</time></trkpt><trkpt lat="44.730817386615065" lon="7.330489208143418"><ele>362.79999999999995</ele><time>2026-04-07T14:43:37.999Z</time></trkpt><trkpt lat="44.73085700644414" lon="7.330622357458086"><ele>361.59999999999997</ele><time>2026-04-07T14:43:38.999Z</time></trkpt><trkpt lat="44.73088865880017" lon="7.330741230164514"><ele>360.4</ele><time>2026-04-07T14:43:39.999Z</time></trkpt><trkpt lat="44.730925994811784" lon="7.330858500239388"><ele>359.2</ele><time>2026-04-07T14:43:40.999Z</time></trkpt><trkpt lat="44.730977480356316" lon="7.3309603384287705"><ele>358.0</ele><time>2026-04-07T14:43:41.999Z</time></trkpt><trkpt lat="44.731046332788495" lon="7.331052500173867"><ele>359.25</ele><time>2026-04-07T14:43:42.999Z</time></trkpt><trkpt lat="44.73113866683424" lon="7.3311253252808"><ele>360.5</ele><time>2026-04-07T14:43:43.999Z</time></trkpt><trkpt lat="44.731255542283684" lon="7.33117369802601"><ele>361.75</ele><time>2026-04-07T14:43:44.999Z</time></trkpt><trkpt lat="44.731385023951084" lon="7.331213551421075"><ele>363.0</ele><time>2026-04-07T14:43:45.999Z</time></trkpt><trkpt lat="44.7315224493045" lon="7.33126596984988"><ele>363.0</ele><time>2026-04-07T14:43:46.999Z</time></trkpt><trkpt lat="44.731668103451206" lon="7.331312372609878"><ele>363.0</ele><time>2026-04-07T14:43:47.999Z</time></trkpt><trkpt lat="44.73180332402831" lon="7.331348278526496"><ele>363.0</ele><time>2026-04-07T14:43:48.999Z</time></trkpt><trkpt lat="44.73194292905657" lon="7.331395642942521"><ele>363.0</ele><time>2026-04-07T14:43:49.999Z</time></trkpt><trkpt lat="44.73208013230165" lon="7.331478050568388"><ele>362.3333333333333</ele><time>2026-04-07T14:43:50.999Z</time></trkpt><trkpt lat="44.73221757800238" lon="7.331580868617045"><ele>361.66666666666663</ele><time>2026-04-07T14:43:51.999Z</time></trkpt><trkpt lat="44.73235883881498" lon="7.331679828325339"><ele>361.0</ele><time>2026-04-07T14:43:52.999Z</time></trkpt><trkpt lat="44.732501667074345" lon="7.331771419022518"><ele>361.0</ele><time>2026-04-07T14:43:53.999Z</time></trkpt><trkpt lat="44.732636472673995" lon="7.331853663858941"><ele>361.0</ele><time>2026-04-07T14:43:54.999Z</time></trkpt><trkpt lat="44.73277459584105" lon="7.331927619610932"><ele>361.0</ele><time>2026-04-07T14:43:55.999Z</time></trkpt><trkpt lat="44.732909055318345" lon="7.332001620637915"><ele>361.0</ele><time>2026-04-07T14:43:56.999Z</time></trkpt><trkpt lat="44.73302833923698" lon="7.332061568842831"><ele>361.8</ele><time>2026-04-07T14:43:57.999Z</time></trkpt><trkpt lat="44.73313498120568" lon="7.332104609407104"><ele>362.6</ele><time>2026-04-07T14:43:58.999Z</time></trkpt><trkpt lat="44.733237265274624" lon="7.3321432406237586"><ele>363.4</ele><time>2026-04-07T14:43:59.999Z</time></trkpt><trkpt lat="44.733329798080476" lon="7.332176688963676"><ele>364.2</ele><time>2026-04-07T14:44:00.999Z</time></trkpt><trkpt lat="44.73340557181157" lon="7.332200090433383"><ele>365.0</ele><time>2026-04-07T14:44:01.999Z</time></trkpt><trkpt lat="44.73347546066809" lon="7.332201437236449"><ele>365.0</ele><time>2026-04-07T14:44:02.999Z</time></trkpt><trkpt lat="44.733549890074684" lon="7.332153006418686"><ele>365.0</ele><time>2026-04-07T14:44:03.999Z</time></trkpt><trkpt lat="44.73360924176106" lon="7.332058392806253"><ele>365.0</ele><time>2026-04-07T14:44:04.999Z</time></trkpt><trkpt lat="44.73366283999718" lon="7.331963808080686"><ele>365.0</ele><time>2026-04-07T14:44:05.999Z</time></trkpt><trkpt lat="44.73373092497456" lon="7.331877543113051"><ele>365.0</ele><time>2026-04-07T14:44:06.999Z</time></trkpt><trkpt lat="44.73381560543519" lon="7.331837405231423"><ele>365.0</ele><time>2026-04-07T14:44:07.999Z</time></trkpt><trkpt lat="44.73391469587915" lon="7.331837285807144"><ele>365.5</ele><time>2026-04-07T14:44:08.999Z</time></trkpt><trkpt lat="44.73402046597611" lon="7.3318791728406545"><ele>366.0</ele><time>2026-04-07T14:44:09.999Z</time></trkpt><trkpt lat="44.734139406080246" lon="7.331948001037891"><ele>366.5</ele><time>2026-04-07T14:44:10.999Z</time></trkpt><trkpt lat="44.734245351838474" lon="7.332021072891951"><ele>367.0</ele><time>2026-04-07T14:44:11.999Z</time></trkpt><trkpt lat="44.73433880750632" lon="7.33210129201073"><ele>366.5</ele><time>2026-04-07T14:44:12.999Z</time></trkpt><trkpt lat="44.734435173874196" lon="7.332186716102686"><ele>366.0</ele><time>2026-04-07T14:44:13.999Z</time></trkpt><trkpt lat="44.73453991195193" lon="7.332252427974114"><ele>365.5</ele><time>2026-04-07T14:44:14.999Z</time></trkpt><trkpt lat="44.734656394680435" lon="7.332297998434025"><ele>365.0</ele><time>2026-04-07T14:44:15.999Z</time></trkpt><trkpt lat="44.73477086347954" lon="7.332343230630005"><ele>364.5</ele><time>2026-04-07T14:44:16.999Z</time></trkpt><trkpt lat="44.73487197255515" lon="7.332387991902161"><ele>364.0</ele><time>2026-04-07T14:44:17.999Z</time></trkpt><trkpt lat="44.73498269190289" lon="7.332423204779348"><ele>363.5</ele><time>2026-04-07T14:44:18.999Z</time></trkpt><trkpt lat="44.735100986716006" lon="7.332462516873051"><ele>363.0</ele><time>2026-04-07T14:44:19.999Z</time></trkpt><trkpt lat="44.73522390585609" lon="7.332499593420278"><ele>362.75</ele><time>2026-04-07T14:44:20.999Z</time></trkpt><trkpt lat="44.73535434426416" lon="7.332521793299174"><ele>362.5</ele><time>2026-04-07T14:44:21.999Z</time></trkpt><trkpt lat="44.73547613451078" lon="7.332525705267035"><ele>362.25</ele><time>2026-04-07T14:44:22.999Z</time></trkpt><trkpt lat="44.73558977295285" lon="7.332532361503561"><ele>362.0</ele><time>2026-04-07T14:44:23.999Z</time></trkpt><trkpt lat="44.735710733047924" lon="7.332549370739179"><ele>362.0</ele><time>2026-04-07T14:44:24.999Z</time></trkpt><trkpt lat="44.735825508289665" lon="7.332595916236328"><ele>362.0</ele><time>2026-04-07T14:44:25.999Z</time></trkpt><trkpt lat="44.73592404618133" lon="7.332674730464686"><ele>362.0</ele><time>2026-04-07T14:44:26.999Z</time></trkpt><trkpt lat="44.73603319754823" lon="7.33277366748413"><ele>362.0</ele><time>2026-04-07T14:44:27.999Z</time></trkpt><trkpt lat="44.73616256536545" lon="7.332897933205082"><ele>362.0</ele><time>2026-04-07T14:44:28.999Z</time></trkpt><trkpt lat="44.73628760688981" lon="7.333004899078634"><ele>362.0</ele><time>2026-04-07T14:44:29.999Z</time></trkpt><trkpt lat="44.736413241414986" lon="7.333079537228052"><ele>362.0</ele><time>2026-04-07T14:44:30.999Z</time></trkpt><trkpt lat="44.73655658779823" lon="7.333141182697676"><ele>362.0</ele><time>2026-04-07T14:44:31.999Z</time></trkpt><trkpt lat="44.7367071763601" lon="7.333192233604413"><ele>361.5</ele><time>2026-04-07T14:44:32.999Z</time></trkpt><trkpt lat="44.736850115640856" lon="7.333243530439955"><ele>361.0</ele><time>2026-04-07T14:44:33.999Z</time></trkpt><trkpt lat="44.73698917486844" lon="7.333281560227647"><ele>360.5</ele><time>2026-04-07T14:44:34.999Z</time></trkpt><trkpt lat="44.73714160765135" lon="7.333292759186614"><ele>360.0</ele><time>2026-04-07T14:44:36Z</time></trkpt><trkpt lat="44.737306786777275" lon="7.333277723760267"><ele>360.0</ele><time>2026-04-07T14:44:37Z</time></trkpt><trkpt lat="44.73747715338721" lon="7.333263060704367"><ele>360.0</ele><time>2026-04-07T14:44:38Z</time></trkpt><trkpt lat="44.737657727961974" lon="7.33324755704681"><ele>360.0</ele><time>2026-04-07T14:44:39Z</time></trkpt><trkpt lat="44.73783966290855" lon="7.333234845835629"><ele>359.3333333333333</ele><time>2026-04-07T14:44:40Z</time></trkpt><trkpt lat="44.73802264982351" lon="7.333222264620941"><ele>358.66666666666663</ele><time>2026-04-07T14:44:41Z</time></trkpt><trkpt lat="44.738190081426914" lon="7.333206901165296"><ele>358.0</ele><time>2026-04-07T14:44:42Z</time></trkpt><trkpt lat="44.73834620047705" lon="7.33318331452865"><ele>358.0</ele><time>2026-04-07T14:44:43Z</time></trkpt><trkpt lat="44.73849153846272" lon="7.33315974444117"><ele>358.0</ele><time>2026-04-07T14:44:44Z</time></trkpt><trkpt lat="44.73863137898713" lon="7.3331354954812324"><ele>358.0</ele><time>2026-04-07T14:44:45Z</time></trkpt><trkpt lat="44.73875452175422" lon="7.333108557347511"><ele>358.0</ele><time>2026-04-07T14:44:46Z</time></trkpt><trkpt lat="44.738850498659886" lon="7.333086320332968"><ele>357.66666666666663</ele><time>2026-04-07T14:44:47Z</time></trkpt><trkpt lat="44.7389319677844" lon="7.333077245615724"><ele>357.3333333333333</ele><time>2026-04-07T14:44:48Z</time></trkpt><trkpt lat="44.739002196320364" lon="7.33308566722809"><ele>357.0</ele><time>2026-04-07T14:44:49Z</time></trkpt><trkpt lat="44.73908554450115" lon="7.3331625636352"><ele>356.6666666666667</ele><time>2026-04-07T14:44:51Z</time></trkpt><trkpt lat="44.73910915607872" lon="7.333285767214404"><ele>356.33333333333337</ele><time>2026-04-07T14:44:53Z</time></trkpt><trkpt lat="44.73910507453067" lon="7.3333782733776935"><ele>356.0</ele><time>2026-04-07T14:44:54Z</time></trkpt><trkpt lat="44.73909348616074" lon="7.3335039316682735"><ele>356.0</ele><time>2026-04-07T14:44:55Z</time></trkpt><trkpt lat="44.73910901092072" lon="7.333649139407683"><ele>356.0</ele><time>2026-04-07T14:44:56Z</time></trkpt><trkpt lat="44.739115669689276" lon="7.333824515082127"><ele>356.0</ele><time>2026-04-07T14:44:57Z</time></trkpt><trkpt lat="44.73912676662517" lon="7.334017422288231"><ele>356.0</ele><time>2026-04-07T14:44:58Z</time></trkpt><trkpt lat="44.73913211610316" lon="7.334233001461349"><ele>355.33333333333337</ele><time>2026-04-07T14:44:59Z</time></trkpt><trkpt lat="44.73913870889068" lon="7.334434679710385"><ele>354.6666666666667</ele><time>2026-04-07T14:45:00Z</time></trkpt><trkpt lat="44.739133617205376" lon="7.334644478734379"><ele>354.0</ele><time>2026-04-07T14:45:01Z</time></trkpt><trkpt lat="44.73915256132973" lon="7.33486654964475"><ele>353.3333333333333</ele><time>2026-04-07T14:45:02Z</time></trkpt><trkpt lat="44.73915795119433" lon="7.33509395307623"><ele>352.66666666666663</ele><time>2026-04-07T14:45:03Z</time></trkpt><trkpt lat="44.73916645144769" lon="7.3353257196117685"><ele>352.0</ele><time>2026-04-07T14:45:04Z</time></trkpt><trkpt lat="44.739174792064276" lon="7.335558599208871"><ele>351.25</ele><time>2026-04-07T14:45:05Z</time></trkpt><trkpt lat="44.73918112644126" lon="7.335772595193283"><ele>350.5</ele><time>2026-04-07T14:45:06Z</time></trkpt><trkpt lat="44.73919004888692" lon="7.335977799572151"><ele>349.75</ele><time>2026-04-07T14:45:07Z</time></trkpt><trkpt lat="44.7391965564195" lon="7.336189421816416"><ele>349.0</ele><time>2026-04-07T14:45:08Z</time></trkpt><trkpt lat="44.7391989893325" lon="7.336402402999839"><ele>347.66666666666663</ele><time>2026-04-07T14:45:09Z</time></trkpt><trkpt lat="44.739202987735815" lon="7.336625161286679"><ele>346.3333333333333</ele><time>2026-04-07T14:45:10Z</time></trkpt><trkpt lat="44.73921016919342" lon="7.336846237613272"><ele>345.0</ele><time>2026-04-07T14:45:11Z</time></trkpt><trkpt lat="44.739213485617725" lon="7.337077894829402"><ele>344.3333333333333</ele><time>2026-04-07T14:45:12Z</time></trkpt><trkpt lat="44.739215855984476" lon="7.337309785807995"><ele>343.66666666666663</ele><time>2026-04-07T14:45:13Z</time></trkpt><trkpt lat="44.739220398544234" lon="7.337549158363446"><ele>343.0</ele><time>2026-04-07T14:45:14Z</time></trkpt><trkpt lat="44.7392247469502" lon="7.337788493344093"><ele>343.0</ele><time>2026-04-07T14:45:15Z</time></trkpt><trkpt lat="44.73922467672322" lon="7.338030803671451"><ele>343.0</ele><time>2026-04-07T14:45:16Z</time></trkpt><trkpt lat="44.739225357854146" lon="7.338269049430147"><ele>343.0</ele><time>2026-04-07T14:45:17Z</time></trkpt><trkpt lat="44.739229221367516" lon="7.338508467225585"><ele>342.3333333333333</ele><time>2026-04-07T14:45:18Z</time></trkpt><trkpt lat="44.73922964172693" lon="7.338748188942968"><ele>341.6666666666667</ele><time>2026-04-07T14:45:19Z</time></trkpt><trkpt lat="44.73923419325294" lon="7.338983965265836"><ele>341.0</ele><time>2026-04-07T14:45:20Z</time></trkpt><trkpt lat="44.739237198940316" lon="7.339208925424455"><ele>340.0</ele><time>2026-04-07T14:45:21Z</time></trkpt><trkpt lat="44.73923870348072" lon="7.33942488114961"><ele>339.0</ele><time>2026-04-07T14:45:22Z</time></trkpt><trkpt lat="44.739237633634254" lon="7.339636633304994"><ele>338.0</ele><time>2026-04-07T14:45:23Z</time></trkpt><trkpt lat="44.739243996905074" lon="7.339849695312925"><ele>337.25</ele><time>2026-04-07T14:45:24Z</time></trkpt><trkpt lat="44.73925026959435" lon="7.340052130990425"><ele>336.5</ele><time>2026-04-07T14:45:25Z</time></trkpt><trkpt lat="44.73924790927691" lon="7.340249726385369"><ele>335.75</ele><time>2026-04-07T14:45:26Z</time></trkpt><trkpt lat="44.739232285651106" lon="7.340443465600556"><ele>335.0</ele><time>2026-04-07T14:45:27Z</time></trkpt><trkpt lat="44.739188269399705" lon="7.340625623684271"><ele>334.6666666666667</ele><time>2026-04-07T14:45:28Z</time></trkpt><trkpt lat="44.739119443158195" lon="7.340808469987931"><ele>334.3333333333333</ele><time>2026-04-07T14:45:29Z</time></trkpt><trkpt lat="44.73905022764132" lon="7.34100579893993"><ele>334.0</ele><time>2026-04-07T14:45:30Z</time></trkpt><trkpt lat="44.73898322413436" lon="7.341199363938325"><ele>333.5</ele><time>2026-04-07T14:45:31Z</time></trkpt><trkpt lat="44.73892114747725" lon="7.341384756222278"><ele>333.0</ele><time>2026-04-07T14:45:32Z</time></trkpt><trkpt lat="44.73886235823921" lon="7.341563760241032"><ele>332.5</ele><time>2026-04-07T14:45:33Z</time></trkpt><trkpt lat="44.738803009458785" lon="7.341735012043095"><ele>332.0</ele><time>2026-04-07T14:45:34Z</time></trkpt><trkpt lat="44.73874879185704" lon="7.341891762765803"><ele>332.0</ele><time>2026-04-07T14:45:35Z</time></trkpt><trkpt lat="44.73870327020494" lon="7.342025770474873"><ele>332.0</ele><time>2026-04-07T14:45:36Z</time></trkpt><trkpt lat="44.73866201065551" lon="7.342145207150906"><ele>332.0</ele><time>2026-04-07T14:45:37Z</time></trkpt><trkpt lat="44.73862898677928" lon="7.34224175239359"><ele>332.0</ele><time>2026-04-07T14:45:38Z</time></trkpt><trkpt lat="44.73857805434131" lon="7.342378409919104"><ele>332.0</ele><time>2026-04-07T14:45:40Z</time></trkpt><trkpt lat="44.7385286497596" lon="7.342505905527749"><ele>331.40000000000003</ele><time>2026-04-07T14:45:42Z</time></trkpt><trkpt lat="44.738620393765345" lon="7.342635184566754"><ele>330.8</ele><time>2026-04-07T14:45:43Z</time></trkpt><trkpt lat="44.738656528857305" lon="7.342755926232123"><ele>330.2</ele><time>2026-04-07T14:45:44Z</time></trkpt><trkpt lat="44.73867888132901" lon="7.342905474019536"><ele>329.6</ele><time>2026-04-07T14:45:44.999Z</time></trkpt><trkpt lat="44.73868844930435" lon="7.343069380639813"><ele>329.0</ele><time>2026-04-07T14:45:45.999Z</time></trkpt><trkpt lat="44.73868431816745" lon="7.3432401034208"><ele>328.6</ele><time>2026-04-07T14:45:46.999Z</time></trkpt><trkpt lat="44.738681792132915" lon="7.3434061246229705"><ele>328.2</ele><time>2026-04-07T14:45:47.999Z</time></trkpt><trkpt lat="44.738685135188334" lon="7.343556812397361"><ele>327.8</ele><time>2026-04-07T14:45:48.999Z</time></trkpt><trkpt lat="44.738719452497634" lon="7.343700336880973"><ele>327.40000000000003</ele><time>2026-04-07T14:45:49.999Z</time></trkpt><trkpt lat="44.7387696339312" lon="7.343846811845313"><ele>327.0</ele><time>2026-04-07T14:45:50.999Z</time></trkpt><trkpt lat="44.73887500748825" lon="7.343948331815828"><ele>326.25</ele><time>2026-04-07T14:45:51.999Z</time></trkpt><trkpt lat="44.73899802700898" lon="7.344039484667517"><ele>325.5</ele><time>2026-04-07T14:45:52.999Z</time></trkpt><trkpt lat="44.73910025221137" lon="7.344168272998447"><ele>324.75</ele><time>2026-04-07T14:45:53.999Z</time></trkpt><trkpt lat="44.73918039859129" lon="7.344297898260832"><ele>324.0</ele><time>2026-04-07T14:45:54.999Z</time></trkpt><trkpt lat="44.73923935031555" lon="7.344439250725887"><ele>324.0</ele><time>2026-04-07T14:45:55.999Z</time></trkpt><trkpt lat="44.73928263429129" lon="7.344604033043646"><ele>324.0</ele><time>2026-04-07T14:45:56.999Z</time></trkpt><trkpt lat="44.73930210537022" lon="7.344791543522189"><ele>324.0</ele><time>2026-04-07T14:45:57.999Z</time></trkpt><trkpt lat="44.739317672733506" lon="7.345005650799223"><ele>324.0</ele><time>2026-04-07T14:45:58.999Z</time></trkpt><trkpt lat="44.73933333618311" lon="7.345209344200243"><ele>323.5</ele><time>2026-04-07T14:45:59.999Z</time></trkpt><trkpt lat="44.73936671829394" lon="7.345420559988565"><ele>323.0</ele><time>2026-04-07T14:46:00.999Z</time></trkpt><trkpt lat="44.73938152288064" lon="7.345630450273488"><ele>322.5</ele><time>2026-04-07T14:46:01.999Z</time></trkpt><trkpt lat="44.73939842437673" lon="7.345824480558875"><ele>322.0</ele><time>2026-04-07T14:46:02.999Z</time></trkpt><trkpt lat="44.739413918097625" lon="7.346007431408797"><ele>321.8</ele><time>2026-04-07T14:46:03.999Z</time></trkpt><trkpt lat="44.73942849438822" lon="7.346138144444051"><ele>321.6</ele><time>2026-04-07T14:46:04.999Z</time></trkpt><trkpt lat="44.73945011144582" lon="7.346258813510341"><ele>321.40000000000003</ele><time>2026-04-07T14:46:05.999Z</time></trkpt><trkpt lat="44.73950640713557" lon="7.346367876428783"><ele>321.20000000000005</ele><time>2026-04-07T14:46:06.999Z</time></trkpt><trkpt lat="44.73959185050302" lon="7.346442471199009"><ele>321.0</ele><time>2026-04-07T14:46:07.999Z</time></trkpt><trkpt lat="44.73969311766771" lon="7.346459864589759"><ele>321.0</ele><time>2026-04-07T14:46:08.999Z</time></trkpt><trkpt lat="44.7397923902734" lon="7.346436693189168"><ele>321.0</ele><time>2026-04-07T14:46:09.999Z</time></trkpt><trkpt lat="44.7398947516767" lon="7.346443704713504"><ele>321.0</ele><time>2026-04-07T14:46:10.999Z</time></trkpt><trkpt lat="44.739995598505175" lon="7.346420431899868"><ele>321.0</ele><time>2026-04-07T14:46:11.999Z</time></trkpt><trkpt lat="44.7401021005648" lon="7.3464008069301485"><ele>321.0</ele><time>2026-04-07T14:46:12.999Z</time></trkpt><trkpt lat="44.74021140559587" lon="7.346367506333786"><ele>320.75</ele><time>2026-04-07T14:46:13.999Z</time></trkpt><trkpt lat="44.74031988954806" lon="7.346315658938452"><ele>320.5</ele><time>2026-04-07T14:46:14.999Z</time></trkpt><trkpt lat="44.74042516880189" lon="7.346238271958291"><ele>320.25</ele><time>2026-04-07T14:46:15.999Z</time></trkpt><trkpt lat="44.740536222068286" lon="7.346152876577059"><ele>320.0</ele><time>2026-04-07T14:46:16.999Z</time></trkpt><trkpt lat="44.74064973975004" lon="7.346057409725285"><ele>320.0</ele><time>2026-04-07T14:46:17.999Z</time></trkpt><trkpt lat="44.7407554069497" lon="7.345953110486829"><ele>320.0</ele><time>2026-04-07T14:46:18.999Z</time></trkpt><trkpt lat="44.740851088022524" lon="7.345854081611694"><ele>320.0</ele><time>2026-04-07T14:46:19.999Z</time></trkpt><trkpt lat="44.74095426460145" lon="7.34574672184416"><ele>320.0</ele><time>2026-04-07T14:46:20.999Z</time></trkpt><trkpt lat="44.74105129725203" lon="7.34561027404135"><ele>321.33333333333337</ele><time>2026-04-07T14:46:21.999Z</time></trkpt><trkpt lat="44.74115653616039" lon="7.345455602594138"><ele>322.6666666666667</ele><time>2026-04-07T14:46:22.999Z</time></trkpt><trkpt lat="44.741265287093825" lon="7.345310777710607"><ele>324.0</ele><time>2026-04-07T14:46:23.999Z</time></trkpt><trkpt lat="44.74137282894838" lon="7.345147355453491"><ele>324.0</ele><time>2026-04-07T14:46:24.999Z</time></trkpt><trkpt lat="44.741493391554684" lon="7.345005376628058"><ele>324.0</ele><time>2026-04-07T14:46:25.999Z</time></trkpt><trkpt lat="44.74160274167623" lon="7.344876727922985"><ele>324.0</ele><time>2026-04-07T14:46:26.999Z</time></trkpt><trkpt lat="44.74171834290264" lon="7.344747474385208"><ele>324.0</ele><time>2026-04-07T14:46:27.999Z</time></trkpt><trkpt lat="44.741841887725215" lon="7.344635688430005"><ele>324.6666666666667</ele><time>2026-04-07T14:46:28.999Z</time></trkpt><trkpt lat="44.74198380785394" lon="7.34456438810211"><ele>325.33333333333337</ele><time>2026-04-07T14:46:29.999Z</time></trkpt><trkpt lat="44.74214230996712" lon="7.3445204977758705"><ele>326.0</ele><time>2026-04-07T14:46:30.999Z</time></trkpt><trkpt lat="44.742308531322955" lon="7.344491884578411"><ele>326.0</ele><time>2026-04-07T14:46:31.999Z</time></trkpt><trkpt lat="44.74247454409468" lon="7.344436853849082"><ele>326.0</ele><time>2026-04-07T14:46:32.999Z</time></trkpt><trkpt lat="44.742624703700756" lon="7.344349417337486"><ele>326.0</ele><time>2026-04-07T14:46:33.999Z</time></trkpt><trkpt lat="44.74275731840308" lon="7.344262662342833"><ele>326.33333333333337</ele><time>2026-04-07T14:46:34.999Z</time></trkpt><trkpt lat="44.742896156654844" lon="7.344181895210476"><ele>326.6666666666667</ele><time>2026-04-07T14:46:35.999Z</time></trkpt><trkpt lat="44.743041598116854" lon="7.344108400048851"><ele>327.0</ele><time>2026-04-07T14:46:36.999Z</time></trkpt><trkpt lat="44.74318363853875" lon="7.344055717476282"><ele>327.0</ele><time>2026-04-07T14:46:37.999Z</time></trkpt><trkpt lat="44.743310395523494" lon="7.3440179309694"><ele>327.0</ele><time>2026-04-07T14:46:38.999Z</time></trkpt><trkpt lat="44.74342012436298" lon="7.343994784398608"><ele>327.0</ele><time>2026-04-07T14:46:39.999Z</time></trkpt><trkpt lat="44.743522363902876" lon="7.343978409383106"><ele>327.0</ele><time>2026-04-07T14:46:40.999Z</time></trkpt><trkpt lat="44.743621931399936" lon="7.343976282611861"><ele>327.0</ele><time>2026-04-07T14:46:42Z</time></trkpt><trkpt lat="44.74371627938664" lon="7.344007920595158"><ele>326.75</ele><time>2026-04-07T14:46:43Z</time></trkpt><trkpt lat="44.74381810369217" lon="7.344060039209581"><ele>326.5</ele><time>2026-04-07T14:46:44Z</time></trkpt><trkpt lat="44.743923568284174" lon="7.344144055553873"><ele>326.25</ele><time>2026-04-07T14:46:45Z</time></trkpt><trkpt lat="44.7440309337598" lon="7.344262179977588"><ele>326.0</ele><time>2026-04-07T14:46:46Z</time></trkpt><trkpt lat="44.744125734347705" lon="7.344383080192964"><ele>326.0</ele><time>2026-04-07T14:46:47Z</time></trkpt><trkpt lat="44.744210763378945" lon="7.344497925484821"><ele>326.0</ele><time>2026-04-07T14:46:48Z</time></trkpt><trkpt lat="44.74429014003862" lon="7.344608026475858"><ele>326.0</ele><time>2026-04-07T14:46:49Z</time></trkpt><trkpt lat="44.74436799807909" lon="7.344706100120992"><ele>326.0</ele><time>2026-04-07T14:46:50Z</time></trkpt><trkpt lat="44.74446338023485" lon="7.344785180794134"><ele>326.0</ele><time>2026-04-07T14:46:51Z</time></trkpt><trkpt lat="44.744581829844485" lon="7.344844248522671"><ele>325.5</ele><time>2026-04-07T14:46:52Z</time></trkpt><trkpt lat="44.74471374446492" lon="7.344884589292911"><ele>325.0</ele><time>2026-04-07T14:46:53Z</time></trkpt><trkpt lat="44.74485712731955" lon="7.344925271968211"><ele>324.5</ele><time>2026-04-07T14:46:54Z</time></trkpt><trkpt lat="44.74499168603647" lon="7.3449677392752735"><ele>324.0</ele><time>2026-04-07T14:46:55Z</time></trkpt><trkpt lat="44.745118236961055" lon="7.344997976643454"><ele>323.5</ele><time>2026-04-07T14:46:56Z</time></trkpt><trkpt lat="44.74526035506914" lon="7.345019865176227"><ele>323.0</ele><time>2026-04-07T14:46:57Z</time></trkpt><trkpt lat="44.74539290685175" lon="7.3450343581845825"><ele>322.5</ele><time>2026-04-07T14:46:58Z</time></trkpt><trkpt lat="44.74553077702024" lon="7.3450420018224944"><ele>322.0</ele><time>2026-04-07T14:46:59Z</time></trkpt><trkpt lat="44.74567565901776" lon="7.345038436296245"><ele>322.0</ele><time>2026-04-07T14:47:00Z</time></trkpt><trkpt lat="44.74582046005532" lon="7.345007012218169"><ele>322.0</ele><time>2026-04-07T14:47:01Z</time></trkpt><trkpt lat="44.74597496820459" lon="7.34493546585832"><ele>322.0</ele><time>2026-04-07T14:47:02Z</time></trkpt><trkpt lat="44.746129878948075" lon="7.344857300315429"><ele>322.3333333333333</ele><time>2026-04-07T14:47:03Z</time></trkpt><trkpt lat="44.746282635513666" lon="7.344784287201194"><ele>322.6666666666667</ele><time>2026-04-07T14:47:04Z</time></trkpt><trkpt lat="44.74641817125003" lon="7.344718249250617"><ele>323.0</ele><time>2026-04-07T14:47:05Z</time></trkpt><trkpt lat="44.74655736804802" lon="7.344652859298355"><ele>323.6666666666667</ele><time>2026-04-07T14:47:06Z</time></trkpt><trkpt lat="44.74670711833308" lon="7.344606649015651"><ele>324.3333333333333</ele><time>2026-04-07T14:47:07Z</time></trkpt><trkpt lat="44.746864351383856" lon="7.344586592213106"><ele>325.0</ele><time>2026-04-07T14:47:08Z</time></trkpt><trkpt lat="44.747013397294126" lon="7.344594674736065"><ele>325.0</ele><time>2026-04-07T14:47:09Z</time></trkpt><trkpt lat="44.747147851667066" lon="7.344624879610435"><ele>325.0</ele><time>2026-04-07T14:47:10Z</time></trkpt><trkpt lat="44.74728607726836" lon="7.3446796415232125"><ele>325.0</ele><time>2026-04-07T14:47:11Z</time></trkpt><trkpt lat="44.74742520036411" lon="7.3447484339215"><ele>325.0</ele><time>2026-04-07T14:47:12Z</time></trkpt><trkpt lat="44.747569495513815" lon="7.344818946157668"><ele>323.0</ele><time>2026-04-07T14:47:13Z</time></trkpt><trkpt lat="44.7477255000906" lon="7.344884450238037"><ele>321.0</ele><time>2026-04-07T14:47:14Z</time></trkpt><trkpt lat="44.747885639296165" lon="7.344960188409721"><ele>319.0</ele><time>2026-04-07T14:47:15Z</time></trkpt><trkpt lat="44.74804793733598" lon="7.345038045231208"><ele>319.0</ele><time>2026-04-07T14:47:16Z</time></trkpt><trkpt lat="44.7482012566022" lon="7.345102741592608"><ele>319.0</ele><time>2026-04-07T14:47:17Z</time></trkpt><trkpt lat="44.74834009003264" lon="7.345155061120751"><ele>319.0</ele><time>2026-04-07T14:47:18Z</time></trkpt><trkpt lat="44.74848903080057" lon="7.3451935589051764"><ele>319.0</ele><time>2026-04-07T14:47:19Z</time></trkpt><trkpt lat="44.7486504903672" lon="7.345208133973624"><ele>319.0</ele><time>2026-04-07T14:47:20Z</time></trkpt><trkpt lat="44.7488147217621" lon="7.345200153883489"><ele>319.0</ele><time>2026-04-07T14:47:21Z</time></trkpt><trkpt lat="44.74899018584106" lon="7.345200253304386"><ele>319.0</ele><time>2026-04-07T14:47:22Z</time></trkpt><trkpt lat="44.74917338744173" lon="7.345199871166089"><ele>319.0</ele><time>2026-04-07T14:47:23Z</time></trkpt><trkpt lat="44.74934517199067" lon="7.345197380936942"><ele>319.0</ele><time>2026-04-07T14:47:24Z</time></trkpt><trkpt lat="44.74950169791022" lon="7.345194451775443"><ele>318.75</ele><time>2026-04-07T14:47:25Z</time></trkpt><trkpt lat="44.74965157968324" lon="7.345189264893902"><ele>318.5</ele><time>2026-04-07T14:47:26Z</time></trkpt><trkpt lat="44.74978573868437" lon="7.345171996109774"><ele>318.25</ele><time>2026-04-07T14:47:27Z</time></trkpt><trkpt lat="44.74991557243913" lon="7.3451544340944555"><ele>318.0</ele><time>2026-04-07T14:47:28Z</time></trkpt><trkpt lat="44.75003454805944" lon="7.345137763505889"><ele>318.0</ele><time>2026-04-07T14:47:29Z</time></trkpt><trkpt lat="44.75013128396506" lon="7.345123527001106"><ele>318.0</ele><time>2026-04-07T14:47:30Z</time></trkpt><trkpt lat="44.75021257673329" lon="7.34513200389698"><ele>318.0</ele><time>2026-04-07T14:47:31Z</time></trkpt><trkpt lat="44.75028036450016" lon="7.345121539881861"><ele>318.0</ele><time>2026-04-07T14:47:32Z</time></trkpt><trkpt lat="44.75036751927394" lon="7.345131586968586"><ele>318.0</ele><time>2026-04-07T14:47:34Z</time></trkpt><trkpt lat="44.75037461789872" lon="7.3452614114777495"><ele>318.0</ele><time>2026-04-07T14:47:35Z</time></trkpt><trkpt lat="44.75039244460003" lon="7.345378273844808"><ele>318.0</ele><time>2026-04-07T14:47:36Z</time></trkpt><trkpt lat="44.75038510747512" lon="7.345510052786026"><ele>318.0</ele><time>2026-04-07T14:47:37Z</time></trkpt><trkpt lat="44.75036312387577" lon="7.345669982923899"><ele>318.0</ele><time>2026-04-07T14:47:38Z</time></trkpt><trkpt lat="44.750331820786954" lon="7.345835751306562"><ele>318.0</ele><time>2026-04-07T14:47:39Z</time></trkpt><trkpt lat="44.75029543027534" lon="7.346002928846605"><ele>317.5</ele><time>2026-04-07T14:47:40Z</time></trkpt><trkpt lat="44.75025620668368" lon="7.346194037579654"><ele>317.0</ele><time>2026-04-07T14:47:41Z</time></trkpt><trkpt lat="44.750216992855485" lon="7.346389803881475"><ele>316.5</ele><time>2026-04-07T14:47:42Z</time></trkpt><trkpt lat="44.75018058338599" lon="7.34660197918523"><ele>316.0</ele><time>2026-04-07T14:47:43Z</time></trkpt><trkpt lat="44.75012846965567" lon="7.34679128661314"><ele>315.75</ele><time>2026-04-07T14:47:44Z</time></trkpt><trkpt lat="44.75006071696462" lon="7.346951135561604"><ele>315.5</ele><time>2026-04-07T14:47:45Z</time></trkpt><trkpt lat="44.749980234058" lon="7.347105061049083"><ele>315.25</ele><time>2026-04-07T14:47:46Z</time></trkpt><trkpt lat="44.74988993367277" lon="7.347234980896389"><ele>315.0</ele><time>2026-04-07T14:47:47Z</time></trkpt><trkpt lat="44.749795933933015" lon="7.347358766076477"><ele>314.25</ele><time>2026-04-07T14:47:48Z</time></trkpt><trkpt lat="44.74971544281367" lon="7.347463409021949"><ele>313.5</ele><time>2026-04-07T14:47:49Z</time></trkpt><trkpt lat="44.749643969110146" lon="7.347559618610201"><ele>312.75</ele><time>2026-04-07T14:47:49.999Z</time></trkpt><trkpt lat="44.74960878480069" lon="7.34771898401387"><ele>312.0</ele><time>2026-04-07T14:47:50.999Z</time></trkpt><trkpt lat="44.74961201812781" lon="7.347909466681109"><ele>312.0</ele><time>2026-04-07T14:47:51.999Z</time></trkpt><trkpt lat="44.74962559689994" lon="7.348113884118206"><ele>312.0</ele><time>2026-04-07T14:47:52.999Z</time></trkpt><trkpt lat="44.74964433325222" lon="7.348337653560284"><ele>312.0</ele><time>2026-04-07T14:47:53.999Z</time></trkpt><trkpt lat="44.74966604810316" lon="7.348564353507922"><ele>312.0</ele><time>2026-04-07T14:47:54.999Z</time></trkpt><trkpt lat="44.74968786800391" lon="7.348792150232893"><ele>312.0</ele><time>2026-04-07T14:47:55.999Z</time></trkpt><trkpt lat="44.74971213433015" lon="7.349045486689297"><ele>312.0</ele><time>2026-04-07T14:47:56.999Z</time></trkpt><trkpt lat="44.749744163706865" lon="7.349329100384274"><ele>310.6666666666667</ele><time>2026-04-07T14:47:57.999Z</time></trkpt><trkpt lat="44.74978079016524" lon="7.349589773256989"><ele>309.33333333333337</ele><time>2026-04-07T14:47:58.999Z</time></trkpt><trkpt lat="44.74981558344246" lon="7.3498311618350645"><ele>308.0</ele><time>2026-04-07T14:47:59.999Z</time></trkpt><trkpt lat="44.74986174418915" lon="7.350092773381582"><ele>307.33333333333337</ele><time>2026-04-07T14:48:00.999Z</time></trkpt><trkpt lat="44.74992635629537" lon="7.350356904628999"><ele>306.6666666666667</ele><time>2026-04-07T14:48:01.999Z</time></trkpt><trkpt lat="44.749956473144096" lon="7.350624853856221"><ele>306.0</ele><time>2026-04-07T14:48:02.999Z</time></trkpt><trkpt lat="44.74995534415021" lon="7.350899849296488"><ele>306.0</ele><time>2026-04-07T14:48:03.999Z</time></trkpt><trkpt lat="44.7499767116149" lon="7.351163078259981"><ele>306.0</ele><time>2026-04-07T14:48:04.999Z</time></trkpt><trkpt lat="44.749976560959034" lon="7.351414514248795"><ele>306.0</ele><time>2026-04-07T14:48:05.999Z</time></trkpt><trkpt lat="44.74996656385233" lon="7.351664127726841"><ele>305.3333333333333</ele><time>2026-04-07T14:48:06.999Z</time></trkpt><trkpt lat="44.749946098937606" lon="7.3519107919536495"><ele>304.66666666666663</ele><time>2026-04-07T14:48:07.999Z</time></trkpt><trkpt lat="44.749943218344086" lon="7.352141882799679"><ele>304.0</ele><time>2026-04-07T14:48:08.999Z</time></trkpt><trkpt lat="44.749951803797195" lon="7.352390953262421"><ele>303.0</ele><time>2026-04-07T14:48:09.999Z</time></trkpt><trkpt lat="44.75002571825808" lon="7.3526280214068676"><ele>302.0</ele><time>2026-04-07T14:48:10.999Z</time></trkpt><trkpt lat="44.75009824285235" lon="7.352878227828021"><ele>301.0</ele><time>2026-04-07T14:48:11.999Z</time></trkpt><trkpt lat="44.75016505703053" lon="7.35314328508102"><ele>300.3333333333333</ele><time>2026-04-07T14:48:12.999Z</time></trkpt><trkpt lat="44.75020978160323" lon="7.353418149820645"><ele>299.6666666666667</ele><time>2026-04-07T14:48:13.999Z</time></trkpt><trkpt lat="44.750242900109896" lon="7.353680452597563"><ele>299.0</ele><time>2026-04-07T14:48:14.999Z</time></trkpt><trkpt lat="44.75027077028424" lon="7.353936477961334"><ele>299.0</ele><time>2026-04-07T14:48:15.999Z</time></trkpt><trkpt lat="44.75029087176896" lon="7.354175882632442"><ele>299.0</ele><time>2026-04-07T14:48:16.999Z</time></trkpt><trkpt lat="44.75029904649176" lon="7.354421753288255"><ele>299.0</ele><time>2026-04-07T14:48:17.999Z</time></trkpt><trkpt lat="44.75028427411231" lon="7.354693475417531"><ele>299.0</ele><time>2026-04-07T14:48:18.999Z</time></trkpt><trkpt lat="44.75026593424138" lon="7.354969524863968"><ele>299.0</ele><time>2026-04-07T14:48:19.999Z</time></trkpt><trkpt lat="44.75025402693009" lon="7.35524935493334"><ele>299.0</ele><time>2026-04-07T14:48:20.999Z</time></trkpt><trkpt lat="44.75024486805361" lon="7.355543462451078"><ele>298.33333333333337</ele><time>2026-04-07T14:48:21.999Z</time></trkpt><trkpt lat="44.75023421189268" lon="7.355851060321548"><ele>297.6666666666667</ele><time>2026-04-07T14:48:22.999Z</time></trkpt><trkpt lat="44.75022061693177" lon="7.356164556225985"><ele>297.0</ele><time>2026-04-07T14:48:23.999Z</time></trkpt><trkpt lat="44.7502073681287" lon="7.356481528423425"><ele>296.6666666666667</ele><time>2026-04-07T14:48:24.999Z</time></trkpt><trkpt lat="44.750196672998456" lon="7.356789480481802"><ele>296.33333333333337</ele><time>2026-04-07T14:48:25.999Z</time></trkpt><trkpt lat="44.750182131683" lon="7.357075983983889"><ele>296.0</ele><time>2026-04-07T14:48:26.999Z</time></trkpt><trkpt lat="44.7501654654318" lon="7.357346560941571"><ele>295.6666666666667</ele><time>2026-04-07T14:48:27.999Z</time></trkpt><trkpt lat="44.750158460651434" lon="7.357621059253393"><ele>295.3333333333333</ele><time>2026-04-07T14:48:28.999Z</time></trkpt><trkpt lat="44.75016733776246" lon="7.35791153867358"><ele>295.0</ele><time>2026-04-07T14:48:29.999Z</time></trkpt><trkpt lat="44.75017623717509" lon="7.358209005192602"><ele>294.66666666666663</ele><time>2026-04-07T14:48:30.999Z</time></trkpt><trkpt lat="44.750179592368106" lon="7.358482077278883"><ele>294.3333333333333</ele><time>2026-04-07T14:48:31.999Z</time></trkpt><trkpt lat="44.75018753480726" lon="7.358745195603682"><ele>294.0</ele><time>2026-04-07T14:48:32.999Z</time></trkpt><trkpt lat="44.750197539970095" lon="7.359015698761016"><ele>294.0</ele><time>2026-04-07T14:48:33.999Z</time></trkpt><trkpt lat="44.75020685490643" lon="7.359263119807992"><ele>294.0</ele><time>2026-04-07T14:48:34.999Z</time></trkpt><trkpt lat="44.75022346142705" lon="7.3595028715903075"><ele>294.0</ele><time>2026-04-07T14:48:35.999Z</time></trkpt><trkpt lat="44.750244728347994" lon="7.359743677117221"><ele>293.6666666666667</ele><time>2026-04-07T14:48:36.999Z</time></trkpt><trkpt lat="44.75026094790719" lon="7.360008594111476"><ele>293.33333333333337</ele><time>2026-04-07T14:48:37.999Z</time></trkpt><trkpt lat="44.75026848112331" lon="7.360268965544776"><ele>293.0</ele><time>2026-04-07T14:48:38.999Z</time></trkpt><trkpt lat="44.750261411387896" lon="7.360508628594369"><ele>292.6666666666667</ele><time>2026-04-07T14:48:39.999Z</time></trkpt><trkpt lat="44.7502672938543" lon="7.360745289495691"><ele>292.3333333333333</ele><time>2026-04-07T14:48:40.999Z</time></trkpt><trkpt lat="44.75027419884432" lon="7.360978586277118"><ele>292.0</ele><time>2026-04-07T14:48:41.999Z</time></trkpt><trkpt lat="44.75028173069" lon="7.361207650727275"><ele>292.0</ele><time>2026-04-07T14:48:42.999Z</time></trkpt><trkpt lat="44.75028918697599" lon="7.36142104017508"><ele>292.0</ele><time>2026-04-07T14:48:43.999Z</time></trkpt><trkpt lat="44.75030689804133" lon="7.3616209064677705"><ele>292.0</ele><time>2026-04-07T14:48:44.999Z</time></trkpt><trkpt lat="44.75026376137191" lon="7.361802229781263"><ele>292.0</ele><time>2026-04-07T14:48:45.999Z</time></trkpt><trkpt lat="44.75020878993335" lon="7.361981089990647"><ele>291.3333333333333</ele><time>2026-04-07T14:48:46.999Z</time></trkpt><trkpt lat="44.75015369817643" lon="7.362174772398327"><ele>290.6666666666667</ele><time>2026-04-07T14:48:48Z</time></trkpt><trkpt lat="44.750068748932335" lon="7.362361335986366"><ele>290.0</ele><time>2026-04-07T14:48:49Z</time></trkpt><trkpt lat="44.74997098713442" lon="7.3625453226106155"><ele>290.0</ele><time>2026-04-07T14:48:50Z</time></trkpt><trkpt lat="44.74985771511694" lon="7.362720666306343"><ele>290.0</ele><time>2026-04-07T14:48:51Z</time></trkpt><trkpt lat="44.74973353946498" lon="7.362898490463868"><ele>290.0</ele><time>2026-04-07T14:48:52Z</time></trkpt><trkpt lat="44.74960696976677" lon="7.363064611832077"><ele>290.0</ele><time>2026-04-07T14:48:53Z</time></trkpt><trkpt lat="44.74948147175593" lon="7.36321668894394"><ele>290.0</ele><time>2026-04-07T14:48:54Z</time></trkpt><trkpt lat="44.749367572548" lon="7.363365502082551"><ele>290.0</ele><time>2026-04-07T14:48:55Z</time></trkpt><trkpt lat="44.74925993722523" lon="7.3635316576718965"><ele>290.33333333333337</ele><time>2026-04-07T14:48:56Z</time></trkpt><trkpt lat="44.74916610306148" lon="7.363729426643717"><ele>290.6666666666667</ele><time>2026-04-07T14:48:57Z</time></trkpt><trkpt lat="44.74909637106535" lon="7.363957927184161"><ele>291.0</ele><time>2026-04-07T14:48:58Z</time></trkpt><trkpt lat="44.74904091024463" lon="7.364198137628879"><ele>290.5</ele><time>2026-04-07T14:48:59Z</time></trkpt><trkpt lat="44.748975814130034" lon="7.364423054221744"><ele>290.0</ele><time>2026-04-07T14:49:00Z</time></trkpt><trkpt lat="44.7489344189933" lon="7.364626394791033"><ele>289.5</ele><time>2026-04-07T14:49:01Z</time></trkpt><trkpt lat="44.74890863817522" lon="7.364783177590794"><ele>289.0</ele><time>2026-04-07T14:49:02Z</time></trkpt><trkpt lat="44.74891201088944" lon="7.364931482704843"><ele>288.4</ele><time>2026-04-07T14:49:03Z</time></trkpt><trkpt lat="44.74890911457402" lon="7.365049569500317"><ele>287.79999999999995</ele><time>2026-04-07T14:49:04Z</time></trkpt><trkpt lat="44.74890965499388" lon="7.365142371639383"><ele>287.20000000000005</ele><time>2026-04-07T14:49:05Z</time></trkpt><trkpt lat="44.74890237950135" lon="7.365293156614281"><ele>286.6</ele><time>2026-04-07T14:49:07Z</time></trkpt><trkpt lat="44.74886502434525" lon="7.3654247322985364"><ele>286.0</ele><time>2026-04-07T14:49:09Z</time></trkpt><trkpt lat="44.749039565190955" lon="7.365575134746559"><ele>286.0</ele><time>2026-04-07T14:49:11Z</time></trkpt><trkpt lat="44.74913983049453" lon="7.365638237766131"><ele>286.0</ele><time>2026-04-07T14:49:12Z</time></trkpt><trkpt lat="44.749257902634895" lon="7.365712515909769"><ele>286.0</ele><time>2026-04-07T14:49:13Z</time></trkpt><trkpt lat="44.74937349846455" lon="7.365791744639141"><ele>286.0</ele><time>2026-04-07T14:49:14Z</time></trkpt><trkpt lat="44.7495090997599" lon="7.365887765771019"><ele>286.66666666666663</ele><time>2026-04-07T14:49:15Z</time></trkpt><trkpt lat="44.74966120331384" lon="7.365990775398616"><ele>287.3333333333333</ele><time>2026-04-07T14:49:16Z</time></trkpt><trkpt lat="44.74980930625931" lon="7.366086240959847"><ele>288.0</ele><time>2026-04-07T14:49:17Z</time></trkpt><trkpt lat="44.74996944286694" lon="7.36618364805611"><ele>288.0</ele><time>2026-04-07T14:49:18Z</time></trkpt><trkpt lat="44.75013584497879" lon="7.366286092307671"><ele>288.0</ele><time>2026-04-07T14:49:19Z</time></trkpt><trkpt lat="44.75030809129089" lon="7.36637622269523"><ele>288.0</ele><time>2026-04-07T14:49:20Z</time></trkpt><trkpt lat="44.750485092480545" lon="7.366445023383447"><ele>287.6666666666667</ele><time>2026-04-07T14:49:21Z</time></trkpt><trkpt lat="44.75066103897992" lon="7.366501245373098"><ele>287.33333333333337</ele><time>2026-04-07T14:49:22Z</time></trkpt><trkpt lat="44.75084344409678" lon="7.366543761886224"><ele>287.0</ele><time>2026-04-07T14:49:23Z</time></trkpt><trkpt lat="44.751031507504585" lon="7.366572095653526"><ele>287.6666666666667</ele><time>2026-04-07T14:49:24Z</time></trkpt><trkpt lat="44.75122503956447" lon="7.36659253203376"><ele>288.3333333333333</ele><time>2026-04-07T14:49:25Z</time></trkpt><trkpt lat="44.751430874424095" lon="7.366602095461405"><ele>289.0</ele><time>2026-04-07T14:49:26Z</time></trkpt><trkpt lat="44.75163612911696" lon="7.366604211654839"><ele>289.0</ele><time>2026-04-07T14:49:27Z</time></trkpt><trkpt lat="44.75184419740446" lon="7.366600900329599"><ele>289.0</ele><time>2026-04-07T14:49:28Z</time></trkpt><trkpt lat="44.75205526876397" lon="7.366609707383833"><ele>289.0</ele><time>2026-04-07T14:49:29Z</time></trkpt><trkpt lat="44.75226816670865" lon="7.366615519462582"><ele>289.0</ele><time>2026-04-07T14:49:30Z</time></trkpt><trkpt lat="44.75248222212041" lon="7.366615088945041"><ele>289.0</ele><time>2026-04-07T14:49:31Z</time></trkpt><trkpt lat="44.752694648372795" lon="7.36662004790778"><ele>289.0</ele><time>2026-04-07T14:49:32Z</time></trkpt><trkpt lat="44.75290732520213" lon="7.3666241861567"><ele>289.0</ele><time>2026-04-07T14:49:33Z</time></trkpt><trkpt lat="44.75312185223837" lon="7.366628546658512"><ele>289.0</ele><time>2026-04-07T14:49:34Z</time></trkpt><trkpt lat="44.7533348101877" lon="7.366627893730947"><ele>289.0</ele><time>2026-04-07T14:49:35Z</time></trkpt><trkpt lat="44.75354837970465" lon="7.366622529628857"><ele>288.66666666666663</ele><time>2026-04-07T14:49:36Z</time></trkpt><trkpt lat="44.75376156276089" lon="7.366612508980444"><ele>288.3333333333333</ele><time>2026-04-07T14:49:37Z</time></trkpt><trkpt lat="44.75397239308811" lon="7.366605794348046"><ele>288.0</ele><time>2026-04-07T14:49:38Z</time></trkpt><trkpt lat="44.75418197428678" lon="7.366599420972702"><ele>288.6666666666667</ele><time>2026-04-07T14:49:39Z</time></trkpt><trkpt lat="44.754388980439614" lon="7.366593947123517"><ele>289.33333333333337</ele><time>2026-04-07T14:49:40Z</time></trkpt><trkpt lat="44.75459450331145" lon="7.366587848463193"><ele>290.0</ele><time>2026-04-07T14:49:41Z</time></trkpt><trkpt lat="44.754799560519416" lon="7.366581176215715"><ele>290.0</ele><time>2026-04-07T14:49:42Z</time></trkpt><trkpt lat="44.75501491021334" lon="7.366571417168705"><ele>290.0</ele><time>2026-04-07T14:49:43Z</time></trkpt><trkpt lat="44.75522969352734" lon="7.366561455453787"><ele>290.0</ele><time>2026-04-07T14:49:44Z</time></trkpt><trkpt lat="44.75545048210635" lon="7.366539214587636"><ele>291.0</ele><time>2026-04-07T14:49:45Z</time></trkpt><trkpt lat="44.75567593371795" lon="7.366483184544388"><ele>292.0</ele><time>2026-04-07T14:49:46Z</time></trkpt><trkpt lat="44.755906103184394" lon="7.366421045514572"><ele>291.0</ele><time>2026-04-07T14:49:47Z</time></trkpt><trkpt lat="44.75613596927963" lon="7.366354821564435"><ele>290.0</ele><time>2026-04-07T14:49:48Z</time></trkpt><trkpt lat="44.756346915744885" lon="7.366292982454606"><ele>290.0</ele><time>2026-04-07T14:49:49Z</time></trkpt><trkpt lat="44.756555998129926" lon="7.366231725234195"><ele>290.0</ele><time>2026-04-07T14:49:50Z</time></trkpt><trkpt lat="44.75676719383304" lon="7.36616698569497"><ele>290.0</ele><time>2026-04-07T14:49:51Z</time></trkpt><trkpt lat="44.756983405757005" lon="7.36610195658151"><ele>290.0</ele><time>2026-04-07T14:49:52Z</time></trkpt><trkpt lat="44.75720757600258" lon="7.366037774346152"><ele>290.0</ele><time>2026-04-07T14:49:53Z</time></trkpt><trkpt lat="44.757434078406334" lon="7.365974508724396"><ele>290.0</ele><time>2026-04-07T14:49:54Z</time></trkpt><trkpt lat="44.7576588729407" lon="7.365911920612744"><ele>290.0</ele><time>2026-04-07T14:49:55Z</time></trkpt><trkpt lat="44.75787687218919" lon="7.365843067627792"><ele>291.33333333333337</ele><time>2026-04-07T14:49:56Z</time></trkpt><trkpt lat="44.75809452153998" lon="7.365773972183914"><ele>292.6666666666667</ele><time>2026-04-07T14:49:56.999Z</time></trkpt><trkpt lat="44.75830794003489" lon="7.365719262218827"><ele>294.0</ele><time>2026-04-07T14:49:57.999Z</time></trkpt><trkpt lat="44.75851832684068" lon="7.365682101979651"><ele>293.6666666666667</ele><time>2026-04-07T14:49:58.999Z</time></trkpt><trkpt lat="44.758719358356494" lon="7.365670181462355"><ele>293.33333333333337</ele><time>2026-04-07T14:49:59.999Z</time></trkpt><trkpt lat="44.75892505661597" lon="7.365681831610804"><ele>293.0</ele><time>2026-04-07T14:50:00.999Z</time></trkpt><trkpt lat="44.75913592006394" lon="7.365704997545157"><ele>293.0</ele><time>2026-04-07T14:50:01.999Z</time></trkpt><trkpt lat="44.759346837425106" lon="7.365745391898014"><ele>293.0</ele><time>2026-04-07T14:50:02.999Z</time></trkpt><trkpt lat="44.75955889814074" lon="7.365788877054317"><ele>293.0</ele><time>2026-04-07T14:50:03.999Z</time></trkpt><trkpt lat="44.75976885336097" lon="7.365858421095477"><ele>293.33333333333337</ele><time>2026-04-07T14:50:04.999Z</time></trkpt><trkpt lat="44.75996714536188" lon="7.365937804921712"><ele>293.6666666666667</ele><time>2026-04-07T14:50:05.999Z</time></trkpt><trkpt lat="44.76015677747352" lon="7.366005714421015"><ele>294.0</ele><time>2026-04-07T14:50:06.999Z</time></trkpt><trkpt lat="44.76035561678372" lon="7.366069943282149"><ele>294.6666666666667</ele><time>2026-04-07T14:50:07.999Z</time></trkpt><trkpt lat="44.76055427785989" lon="7.366136847685005"><ele>295.33333333333337</ele><time>2026-04-07T14:50:08.999Z</time></trkpt><trkpt lat="44.760762451358104" lon="7.366203727771526"><ele>296.0</ele><time>2026-04-07T14:50:09.999Z</time></trkpt><trkpt lat="44.76098214200492" lon="7.366262439809119"><ele>296.0</ele><time>2026-04-07T14:50:10.999Z</time></trkpt><trkpt lat="44.7612090483935" lon="7.366312483953453"><ele>296.0</ele><time>2026-04-07T14:50:11.999Z</time></trkpt><trkpt lat="44.76144112359487" lon="7.366363224570953"><ele>296.0</ele><time>2026-04-07T14:50:12.999Z</time></trkpt><trkpt lat="44.76167114655923" lon="7.3664136466195735"><ele>296.0</ele><time>2026-04-07T14:50:13.999Z</time></trkpt><trkpt lat="44.7618913665782" lon="7.366455489800923"><ele>296.33333333333337</ele><time>2026-04-07T14:50:14.999Z</time></trkpt><trkpt lat="44.76211365495795" lon="7.366495531966167"><ele>296.6666666666667</ele><time>2026-04-07T14:50:15.999Z</time></trkpt><trkpt lat="44.76233639574527" lon="7.366537554066799"><ele>297.0</ele><time>2026-04-07T14:50:16.999Z</time></trkpt><trkpt lat="44.76256085051263" lon="7.366574792737766"><ele>296.5</ele><time>2026-04-07T14:50:17.999Z</time></trkpt><trkpt lat="44.762785261507574" lon="7.36661070771643"><ele>296.0</ele><time>2026-04-07T14:50:18.999Z</time></trkpt><trkpt lat="44.763008012365766" lon="7.36664967825723"><ele>296.0</ele><time>2026-04-07T14:50:19.999Z</time></trkpt><trkpt lat="44.76322940900635" lon="7.366677091220663"><ele>296.0</ele><time>2026-04-07T14:50:20.999Z</time></trkpt><trkpt lat="44.76345013176087" lon="7.3666960702510815"><ele>296.0</ele><time>2026-04-07T14:50:21.999Z</time></trkpt><trkpt lat="44.763671791295586" lon="7.366715748452116"><ele>295.5</ele><time>2026-04-07T14:50:22.999Z</time></trkpt><trkpt lat="44.76389714479863" lon="7.366734950424144"><ele>295.0</ele><time>2026-04-07T14:50:23.999Z</time></trkpt><trkpt lat="44.764122972898114" lon="7.366755643120115"><ele>295.0</ele><time>2026-04-07T14:50:24.999Z</time></trkpt><trkpt lat="44.764348798013486" lon="7.366781736974842"><ele>295.0</ele><time>2026-04-07T14:50:25.999Z</time></trkpt><trkpt lat="44.76456891989941" lon="7.366801965464161"><ele>295.0</ele><time>2026-04-07T14:50:26.999Z</time></trkpt><trkpt lat="44.76479070924843" lon="7.366817820240367"><ele>294.5</ele><time>2026-04-07T14:50:27.999Z</time></trkpt><trkpt lat="44.765018305879984" lon="7.366838990664798"><ele>294.0</ele><time>2026-04-07T14:50:28.999Z</time></trkpt><trkpt lat="44.765255823655025" lon="7.366864982263091"><ele>295.5</ele><time>2026-04-07T14:50:29.999Z</time></trkpt><trkpt lat="44.76549724718892" lon="7.366888482266239"><ele>297.0</ele><time>2026-04-07T14:50:30.999Z</time></trkpt><trkpt lat="44.76574394714388" lon="7.36690827643531"><ele>297.0</ele><time>2026-04-07T14:50:31.999Z</time></trkpt><trkpt lat="44.76599726351512" lon="7.36692966440726"><ele>297.0</ele><time>2026-04-07T14:50:32.999Z</time></trkpt><trkpt lat="44.76625447886494" lon="7.36695766303474"><ele>297.0</ele><time>2026-04-07T14:50:33.999Z</time></trkpt><trkpt lat="44.76651015664632" lon="7.366986536587711"><ele>297.0</ele><time>2026-04-07T14:50:34.999Z</time></trkpt><trkpt lat="44.766745757287055" lon="7.367019441613627"><ele>297.0</ele><time>2026-04-07T14:50:35.999Z</time></trkpt><trkpt lat="44.76698290250941" lon="7.3670744314464836"><ele>297.0</ele><time>2026-04-07T14:50:36.999Z</time></trkpt><trkpt lat="44.767220525553554" lon="7.367163638153067"><ele>296.0</ele><time>2026-04-07T14:50:37.999Z</time></trkpt><trkpt lat="44.76746021125463" lon="7.367276222146186"><ele>295.0</ele><time>2026-04-07T14:50:38.999Z</time></trkpt><trkpt lat="44.76770074749407" lon="7.36739935794964"><ele>297.0</ele><time>2026-04-07T14:50:39.999Z</time></trkpt><trkpt lat="44.767934035159634" lon="7.3675427475180895"><ele>299.0</ele><time>2026-04-07T14:50:40.999Z</time></trkpt><trkpt lat="44.76817194127972" lon="7.367692532254545"><ele>299.0</ele><time>2026-04-07T14:50:41.999Z</time></trkpt><trkpt lat="44.76841249391699" lon="7.3678411799579555"><ele>299.0</ele><time>2026-04-07T14:50:42.999Z</time></trkpt><trkpt lat="44.76865566119532" lon="7.367989787901691"><ele>298.5</ele><time>2026-04-07T14:50:43.999Z</time></trkpt><trkpt lat="44.76890241577946" lon="7.368137460123462"><ele>298.0</ele><time>2026-04-07T14:50:44.999Z</time></trkpt><trkpt lat="44.76915299656232" lon="7.36828482755275"><ele>298.5</ele><time>2026-04-07T14:50:45.999Z</time></trkpt><trkpt lat="44.76940436490475" lon="7.368436236228788"><ele>299.0</ele><time>2026-04-07T14:50:46.999Z</time></trkpt><trkpt lat="44.76965562097155" lon="7.36858843065069"><ele>299.0</ele><time>2026-04-07T14:50:47.999Z</time></trkpt><trkpt lat="44.7699029173358" lon="7.368741504900871"><ele>299.0</ele><time>2026-04-07T14:50:48.999Z</time></trkpt><trkpt lat="44.77013090127411" lon="7.3688760410801475"><ele>299.5</ele><time>2026-04-07T14:50:49.999Z</time></trkpt><trkpt lat="44.770347099307905" lon="7.368985405055311"><ele>300.0</ele><time>2026-04-07T14:50:50.999Z</time></trkpt><trkpt lat="44.77056020039083" lon="7.369071154228869"><ele>300.0</ele><time>2026-04-07T14:50:51.999Z</time></trkpt><trkpt lat="44.770777690946396" lon="7.369131248679726"><ele>300.0</ele><time>2026-04-07T14:50:52.999Z</time></trkpt><trkpt lat="44.77101254340138" lon="7.3691644771286064"><ele>299.5</ele><time>2026-04-07T14:50:54Z</time></trkpt><trkpt lat="44.77125607235506" lon="7.369171133938411"><ele>299.0</ele><time>2026-04-07T14:50:55Z</time></trkpt><trkpt lat="44.77150994580151" lon="7.3691579763212545"><ele>299.0</ele><time>2026-04-07T14:50:56Z</time></trkpt><trkpt lat="44.77177155347009" lon="7.369148610026098"><ele>299.0</ele><time>2026-04-07T14:50:57Z</time></trkpt><trkpt lat="44.77203671160177" lon="7.369143387857621"><ele>298.5</ele><time>2026-04-07T14:50:58Z</time></trkpt><trkpt lat="44.7723033483759" lon="7.369137371517965"><ele>298.0</ele><time>2026-04-07T14:50:59Z</time></trkpt><trkpt lat="44.77257164265406" lon="7.3691412411260595"><ele>299.5</ele><time>2026-04-07T14:51:00Z</time></trkpt><trkpt lat="44.77281828678156" lon="7.36913416831952"><ele>301.0</ele><time>2026-04-07T14:51:01Z</time></trkpt><trkpt lat="44.77304706689633" lon="7.369127251167688"><ele>301.0</ele><time>2026-04-07T14:51:02Z</time></trkpt><trkpt lat="44.77326238099454" lon="7.369120680332368"><ele>301.0</ele><time>2026-04-07T14:51:03Z</time></trkpt><trkpt lat="44.77346262016405" lon="7.369080796196399"><ele>301.0</ele><time>2026-04-07T14:51:04Z</time></trkpt><trkpt lat="44.77366382111086" lon="7.3689942111130975"><ele>300.5</ele><time>2026-04-07T14:51:05Z</time></trkpt><trkpt lat="44.773871645508585" lon="7.368864770075156"><ele>300.0</ele><time>2026-04-07T14:51:06Z</time></trkpt><trkpt lat="44.774077217751056" lon="7.3687158463701765"><ele>300.0</ele><time>2026-04-07T14:51:07Z</time></trkpt><trkpt lat="44.774270571298715" lon="7.368575141924385"><ele>300.0</ele><time>2026-04-07T14:51:08Z</time></trkpt><trkpt lat="44.77445748642732" lon="7.368461375671463"><ele>300.0</ele><time>2026-04-07T14:51:09Z</time></trkpt><trkpt lat="44.77464167583246" lon="7.368346465047988"><ele>300.0</ele><time>2026-04-07T14:51:10Z</time></trkpt><trkpt lat="44.774805955670104" lon="7.368238955585522"><ele>300.0</ele><time>2026-04-07T14:51:11Z</time></trkpt><trkpt lat="44.774950791040325" lon="7.368172942236202"><ele>300.0</ele><time>2026-04-07T14:51:12Z</time></trkpt><trkpt lat="44.7751205191474" lon="7.368160475591547"><ele>300.3333333333333</ele><time>2026-04-07T14:51:13Z</time></trkpt><trkpt lat="44.77530396812954" lon="7.368190713962441"><ele>300.66666666666663</ele><time>2026-04-07T14:51:14Z</time></trkpt><trkpt lat="44.7754981268198" lon="7.3682411881707575"><ele>301.0</ele><time>2026-04-07T14:51:15Z</time></trkpt><trkpt lat="44.77569986920192" lon="7.36827529384611"><ele>301.0</ele><time>2026-04-07T14:51:16Z</time></trkpt><trkpt lat="44.775911521152395" lon="7.3683068673329695"><ele>301.0</ele><time>2026-04-07T14:51:17Z</time></trkpt><trkpt lat="44.776126611900736" lon="7.368344624829071"><ele>301.0</ele><time>2026-04-07T14:51:18Z</time></trkpt><trkpt lat="44.77632468184963" lon="7.368377118753229"><ele>301.0</ele><time>2026-04-07T14:51:19Z</time></trkpt><trkpt lat="44.77651497390632" lon="7.368420782578565"><ele>301.0</ele><time>2026-04-07T14:51:20Z</time></trkpt><trkpt lat="44.77669869850467" lon="7.368506750438423"><ele>301.0</ele><time>2026-04-07T14:51:21Z</time></trkpt><trkpt lat="44.776876858770315" lon="7.3686487636826445"><ele>301.0</ele><time>2026-04-07T14:51:22Z</time></trkpt><trkpt lat="44.77705824840734" lon="7.368817623799972"><ele>301.0</ele><time>2026-04-07T14:51:23Z</time></trkpt><trkpt lat="44.77723979257292" lon="7.368984362895248"><ele>301.0</ele><time>2026-04-07T14:51:24Z</time></trkpt><trkpt lat="44.77742267128489" lon="7.369146745302544"><ele>301.66666666666663</ele><time>2026-04-07T14:51:25Z</time></trkpt><trkpt lat="44.77759059289109" lon="7.369299714850836"><ele>302.3333333333333</ele><time>2026-04-07T14:51:26Z</time></trkpt><trkpt lat="44.77775213735322" lon="7.369443014532476"><ele>303.0</ele><time>2026-04-07T14:51:27Z</time></trkpt><trkpt lat="44.77790105553707" lon="7.369567504902746"><ele>303.3333333333333</ele><time>2026-04-07T14:51:28Z</time></trkpt><trkpt lat="44.77803876634885" lon="7.369660096859192"><ele>303.66666666666663</ele><time>2026-04-07T14:51:29Z</time></trkpt><trkpt lat="44.77819173179607" lon="7.369716195272592"><ele>304.0</ele><time>2026-04-07T14:51:30Z</time></trkpt><trkpt lat="44.778362773148935" lon="7.369742623710361"><ele>305.3333333333333</ele><time>2026-04-07T14:51:31Z</time></trkpt><trkpt lat="44.77854888265918" lon="7.369744624618216"><ele>306.6666666666667</ele><time>2026-04-07T14:51:32Z</time></trkpt><trkpt lat="44.77874432468972" lon="7.369748166136125"><ele>308.0</ele><time>2026-04-07T14:51:33Z</time></trkpt><trkpt lat="44.77894374425315" lon="7.369733178136341"><ele>308.0</ele><time>2026-04-07T14:51:34Z</time></trkpt><trkpt lat="44.77914535532434" lon="7.3697172137516285"><ele>308.0</ele><time>2026-04-07T14:51:35Z</time></trkpt><trkpt lat="44.77934735268859" lon="7.369701625196254"><ele>308.0</ele><time>2026-04-07T14:51:36Z</time></trkpt><trkpt lat="44.77954617455364" lon="7.369659702420838"><ele>307.0</ele><time>2026-04-07T14:51:37Z</time></trkpt><trkpt lat="44.77972433603957" lon="7.36958325019714"><ele>306.0</ele><time>2026-04-07T14:51:38Z</time></trkpt><trkpt lat="44.77988309987435" lon="7.369484833313115"><ele>305.0</ele><time>2026-04-07T14:51:39Z</time></trkpt><trkpt lat="44.780035799305146" lon="7.369385926552008"><ele>307.33333333333337</ele><time>2026-04-07T14:51:40Z</time></trkpt><trkpt lat="44.78019083696837" lon="7.369297362565249"><ele>309.6666666666667</ele><time>2026-04-07T14:51:41Z</time></trkpt><trkpt lat="44.78034829055167" lon="7.369222376098018"><ele>312.0</ele><time>2026-04-07T14:51:42Z</time></trkpt><trkpt lat="44.780505383568986" lon="7.369151687206123"><ele>312.0</ele><time>2026-04-07T14:51:43Z</time></trkpt><trkpt lat="44.7806639748998" lon="7.369087447948035"><ele>312.0</ele><time>2026-04-07T14:51:44Z</time></trkpt><trkpt lat="44.780821970417286" lon="7.369033008172221"><ele>312.0</ele><time>2026-04-07T14:51:45Z</time></trkpt><trkpt lat="44.780970483368385" lon="7.368991542880749"><ele>313.25</ele><time>2026-04-07T14:51:46Z</time></trkpt><trkpt lat="44.78110853433128" lon="7.368955115671717"><ele>314.5</ele><time>2026-04-07T14:51:47Z</time></trkpt><trkpt lat="44.78124643278231" lon="7.368918871694151"><ele>315.75</ele><time>2026-04-07T14:51:48Z</time></trkpt><trkpt lat="44.781374481141384" lon="7.368891802649742"><ele>317.0</ele><time>2026-04-07T14:51:49Z</time></trkpt><trkpt lat="44.781494934683025" lon="7.36887499873214"><ele>317.0</ele><time>2026-04-07T14:51:50Z</time></trkpt><trkpt lat="44.78161479548923" lon="7.368873679853539"><ele>317.0</ele><time>2026-04-07T14:51:51Z</time></trkpt><trkpt lat="44.78174102905402" lon="7.3688844988011954"><ele>317.0</ele><time>2026-04-07T14:51:52Z</time></trkpt><trkpt lat="44.78187093444376" lon="7.3688876088918835"><ele>317.0</ele><time>2026-04-07T14:51:53Z</time></trkpt><trkpt lat="44.78200033077952" lon="7.368893022705599"><ele>315.75</ele><time>2026-04-07T14:51:54Z</time></trkpt><trkpt lat="44.78211788472617" lon="7.368923667697014"><ele>314.5</ele><time>2026-04-07T14:51:55Z</time></trkpt><trkpt lat="44.78223438923932" lon="7.368997159820261"><ele>313.25</ele><time>2026-04-07T14:51:56Z</time></trkpt><trkpt lat="44.782346580064115" lon="7.369099831222667"><ele>312.0</ele><time>2026-04-07T14:51:57Z</time></trkpt><trkpt lat="44.782465798659445" lon="7.369212192832558"><ele>312.0</ele><time>2026-04-07T14:51:58Z</time></trkpt><trkpt lat="44.78255771447507" lon="7.369327509607795"><ele>312.0</ele><time>2026-04-07T14:51:59Z</time></trkpt><trkpt lat="44.782652576802796" lon="7.3694460721736705"><ele>312.0</ele><time>2026-04-07T14:52:00Z</time></trkpt><trkpt lat="44.78274193842575" lon="7.369553839360857"><ele>312.0</ele><time>2026-04-07T14:52:01Z</time></trkpt><trkpt lat="44.78282063697132" lon="7.369661024376833"><ele>311.4</ele><time>2026-04-07T14:52:02Z</time></trkpt><trkpt lat="44.78289051287359" lon="7.369769815762682"><ele>310.79999999999995</ele><time>2026-04-07T14:52:02.999Z</time></trkpt><trkpt lat="44.78294751068382" lon="7.369878657094895"><ele>310.2</ele><time>2026-04-07T14:52:03.999Z</time></trkpt><trkpt lat="44.783005132282376" lon="7.369979102540682"><ele>309.59999999999997</ele><time>2026-04-07T14:52:04.999Z</time></trkpt><trkpt lat="44.78307979378797" lon="7.370066270330116"><ele>309.0</ele><time>2026-04-07T14:52:05.999Z</time></trkpt><trkpt lat="44.783164476667714" lon="7.370139747449593"><ele>309.0</ele><time>2026-04-07T14:52:06.999Z</time></trkpt><trkpt lat="44.78324865241749" lon="7.370218566644638"><ele>309.0</ele><time>2026-04-07T14:52:07.999Z</time></trkpt><trkpt lat="44.78332650179709" lon="7.370301263921814"><ele>309.0</ele><time>2026-04-07T14:52:08.999Z</time></trkpt><trkpt lat="44.78338887816665" lon="7.370372108878747"><ele>309.0</ele><time>2026-04-07T14:52:09.999Z</time></trkpt><trkpt lat="44.783443824575144" lon="7.370431022483203"><ele>309.0</ele><time>2026-04-07T14:52:10.999Z</time></trkpt><trkpt lat="44.783541809717555" lon="7.370531980070831"><ele>309.5</ele><time>2026-04-07T14:52:12.999Z</time></trkpt><trkpt lat="44.783631457477014" lon="7.3706095798729825"><ele>310.0</ele><time>2026-04-07T14:52:14.999Z</time></trkpt><trkpt lat="44.783671451559165" lon="7.370688423912869"><ele>310.5</ele><time>2026-04-07T14:52:16.999Z</time></trkpt><trkpt lat="44.783741650694225" lon="7.370674970727583"><ele>311.0</ele><time>2026-04-07T14:52:18.999Z</time></trkpt><trkpt lat="44.78382949389199" lon="7.370793653461723"><ele>311.5</ele><time>2026-04-07T14:52:20.999Z</time></trkpt><trkpt lat="44.783886252407626" lon="7.370865569226193"><ele>312.0</ele><time>2026-04-07T14:52:21.999Z</time></trkpt><trkpt lat="44.78394518439373" lon="7.370928973003009"><ele>312.0</ele><time>2026-04-07T14:52:22.999Z</time></trkpt><trkpt lat="44.783997967240595" lon="7.370977969269572"><ele>312.0</ele><time>2026-04-07T14:52:23.999Z</time></trkpt><trkpt lat="44.78407891485196" lon="7.371060925555207"><ele>312.0</ele><time>2026-04-07T14:52:25.999Z</time></trkpt><trkpt lat="44.78413774987188" lon="7.371121278961408"><ele>312.0</ele><time>2026-04-07T14:52:27.999Z</time></trkpt><trkpt lat="44.7841759112057" lon="7.371193459339552"><ele>312.0</ele><time>2026-04-07T14:52:42.999Z</time></trkpt><trkpt lat="44.78427482196062" lon="7.371259985522316"><ele>312.0</ele><time>2026-04-07T14:52:50.999Z</time></trkpt><trkpt lat="44.7843348284616" lon="7.371307662834401"><ele>311.0</ele><time>2026-04-07T14:52:51.999Z</time></trkpt><trkpt lat="44.78439690174646" lon="7.371364412363862"><ele>310.0</ele><time>2026-04-07T14:52:52.999Z</time></trkpt><trkpt lat="44.784455574946286" lon="7.371421580648907"><ele>309.0</ele><time>2026-04-07T14:52:53.999Z</time></trkpt><trkpt lat="44.78452165186775" lon="7.371466067836573"><ele>308.0</ele><time>2026-04-07T14:52:54.999Z</time></trkpt><trkpt lat="44.784625390909724" lon="7.371529818948825"><ele>307.0</ele><time>2026-04-07T14:52:56.999Z</time></trkpt><trkpt lat="44.7846693308556" lon="7.371601781139484"><ele>306.0</ele><time>2026-04-07T14:52:58.999Z</time></trkpt><trkpt lat="44.78468540304602" lon="7.3717242156651785"><ele>306.0</ele><time>2026-04-07T14:53:01Z</time></trkpt><trkpt lat="44.78465482798586" lon="7.371911274827203"><ele>306.0</ele><time>2026-04-07T14:53:03Z</time></trkpt><trkpt lat="44.78464437611217" lon="7.37201821076435"><ele>306.0</ele><time>2026-04-07T14:53:04Z</time></trkpt><trkpt lat="44.7846311499774" lon="7.372121718999915"><ele>306.0</ele><time>2026-04-07T14:53:05Z</time></trkpt><trkpt lat="44.784623383232265" lon="7.372288608340144"><ele>306.0</ele><time>2026-04-07T14:53:07Z</time></trkpt><trkpt lat="44.7846089701439" lon="7.372451359271515"><ele>306.3333333333333</ele><time>2026-04-07T14:53:09Z</time></trkpt><trkpt lat="44.78460051508058" lon="7.3725408496066995"><ele>306.6666666666667</ele><time>2026-04-07T14:53:10Z</time></trkpt><trkpt lat="44.784574695932726" lon="7.372636580235659"><ele>307.0</ele><time>2026-04-07T14:53:11Z</time></trkpt><trkpt lat="44.78456626193981" lon="7.372725480160958"><ele>307.33333333333337</ele><time>2026-04-07T14:53:12Z</time></trkpt><trkpt lat="44.7845523238032" lon="7.372864861389074"><ele>307.6666666666667</ele><time>2026-04-07T14:53:14Z</time></trkpt><trkpt lat="44.78453867377311" lon="7.373001361048934"><ele>308.0</ele><time>2026-04-07T14:53:16Z</time></trkpt><trkpt lat="44.784554712749426" lon="7.373090632134541"><ele>308.0</ele><time>2026-04-07T14:53:17Z</time></trkpt><trkpt lat="44.78453899813517" lon="7.373246220734659"><ele>308.0</ele><time>2026-04-07T14:53:19Z</time></trkpt><trkpt lat="44.78453738457766" lon="7.373402983961332"><ele>308.0</ele><time>2026-04-07T14:53:21Z</time></trkpt><trkpt lat="44.784503372418136" lon="7.373571455972491"><ele>308.0</ele><time>2026-04-07T14:53:23Z</time></trkpt><trkpt lat="44.78449184087454" lon="7.373709525211768"><ele>308.0</ele><time>2026-04-07T14:53:25Z</time></trkpt><trkpt lat="44.78447694375028" lon="7.37381925576115"><ele>307.8</ele><time>2026-04-07T14:53:27Z</time></trkpt><trkpt lat="44.784461071473224" lon="7.373951962075942"><ele>307.6</ele><time>2026-04-07T14:53:29Z</time></trkpt><trkpt lat="44.7844595082725" lon="7.374103502593385"><ele>307.4</ele><time>2026-04-07T14:53:31Z</time></trkpt><trkpt lat="44.78446178082143" lon="7.374238731508372"><ele>307.2</ele><time>2026-04-07T14:53:33Z</time></trkpt><trkpt lat="44.78446238344122" lon="7.374356890359028"><ele>307.0</ele><time>2026-04-07T14:53:35Z</time></trkpt><trkpt lat="44.78444027680243" lon="7.374473764578657"><ele>307.0</ele><time>2026-04-07T14:53:37Z</time></trkpt><trkpt lat="44.78443316407855" lon="7.374584039125325"><ele>307.0</ele><time>2026-04-07T14:53:39Z</time></trkpt><trkpt lat="44.78442387429737" lon="7.374716649387859"><ele>307.0</ele><time>2026-04-07T14:53:42Z</time></trkpt><trkpt lat="44.784423417758134" lon="7.374812950326645"><ele>307.0</ele><time>2026-04-07T14:53:44Z</time></trkpt><trkpt lat="44.78439993262574" lon="7.374922611483072"><ele>307.0</ele><time>2026-04-07T14:53:46Z</time></trkpt><trkpt lat="44.784375333910006" lon="7.375026867010137"><ele>307.0</ele><time>2026-04-07T14:53:48Z</time></trkpt><trkpt lat="44.784366980701876" lon="7.37513105467226"><ele>307.0</ele><time>2026-04-07T14:53:50Z</time></trkpt><trkpt lat="44.78435775056081" lon="7.375245981762658"><ele>307.0</ele><time>2026-04-07T14:53:52Z</time></trkpt><trkpt lat="44.78434939284911" lon="7.375350045964428"><ele>307.0</ele><time>2026-04-07T14:53:54Z</time></trkpt><trkpt lat="44.78433943227594" lon="7.375474067841977"><ele>307.0</ele><time>2026-04-07T14:53:57Z</time></trkpt><trkpt lat="44.784247128110394" lon="7.3755113615170895"><ele>307.0</ele><time>2026-04-07T14:54:03Z</time></trkpt><trkpt lat="44.78412885561424" lon="7.37550798455861"><ele>306.6</ele><time>2026-04-07T14:54:06Z</time></trkpt><trkpt lat="44.78405081223615" lon="7.375482776779313"><ele>306.2</ele><time>2026-04-07T14:54:07Z</time></trkpt><trkpt lat="44.783943903204026" lon="7.3754726271704945"><ele>305.8</ele><time>2026-04-07T14:54:09Z</time></trkpt><trkpt lat="44.78390881911164" lon="7.375285784104695"><ele>305.4</ele><time>2026-04-07T14:54:12.999Z</time></trkpt><trkpt lat="44.78393071170292" lon="7.375169434415313"><ele>305.0</ele><time>2026-04-07T14:54:14.999Z</time></trkpt><trkpt lat="44.78393936411466" lon="7.375044458990392"><ele>305.0</ele><time>2026-04-07T14:54:16.999Z</time></trkpt><trkpt lat="44.783944453362494" lon="7.374912417138006"><ele>305.0</ele><time>2026-04-07T14:54:18.999Z</time></trkpt><trkpt lat="44.78394691227838" lon="7.37477207442363"><ele>305.0</ele><time>2026-04-07T14:54:20.999Z</time></trkpt><trkpt lat="44.78394199732908" lon="7.374632908908195"><ele>305.0</ele><time>2026-04-07T14:54:22.999Z</time></trkpt><trkpt lat="44.78393557282916" lon="7.374477548851092"><ele>305.0</ele><time>2026-04-07T14:54:24.999Z</time></trkpt><trkpt lat="44.78393357532972" lon="7.374386970334734"><ele>305.0</ele><time>2026-04-07T14:54:25.999Z</time></trkpt><trkpt lat="44.78393280380378" lon="7.37429495336934"><ele>305.0</ele><time>2026-04-07T14:54:26.999Z</time></trkpt><trkpt lat="44.78392238442082" lon="7.374203411088865"><ele>305.0</ele><time>2026-04-07T14:54:27.999Z</time></trkpt><trkpt lat="44.78393925439092" lon="7.374116057704291"><ele>305.0</ele><time>2026-04-07T14:54:28.999Z</time></trkpt><trkpt lat="44.783938191194075" lon="7.37402373331437"><ele>305.0</ele><time>2026-04-07T14:54:29.999Z</time></trkpt><trkpt lat="44.78394324547536" lon="7.37387578043459"><ele>305.0</ele><time>2026-04-07T14:54:31.999Z</time></trkpt><trkpt lat="44.783953840572586" lon="7.373746967245312"><ele>305.14285714285717</ele><time>2026-04-07T14:54:33.999Z</time></trkpt><trkpt lat="44.78393175802299" lon="7.373643731529915"><ele>305.2857142857143</ele><time>2026-04-07T14:54:35.999Z</time></trkpt><trkpt lat="44.78394860367796" lon="7.37355377290419"><ele>305.42857142857144</ele><time>2026-04-07T14:54:37.999Z</time></trkpt><trkpt lat="44.78396949516902" lon="7.373456863125318"><ele>305.57142857142856</ele><time>2026-04-07T14:54:39.999Z</time></trkpt><trkpt lat="44.78396791964374" lon="7.373350976167574"><ele>305.7142857142857</ele><time>2026-04-07T14:54:42.999Z</time></trkpt><trkpt lat="44.783954133135055" lon="7.373261759337261"><ele>305.85714285714283</ele><time>2026-04-07T14:55:30Z</time></trkpt><trkpt lat="44.7839659434846" lon="7.373170048905792"><ele>306.0</ele><time>2026-04-07T14:56:09Z</time></trkpt><trkpt lat="44.78395139765616" lon="7.373262405224797"><ele>306.0</ele><time>2026-04-07T14:56:16.999Z</time></trkpt><trkpt lat="44.783952286303" lon="7.3733592915044195"><ele>306.0</ele><time>2026-04-07T14:56:23.999Z</time></trkpt><trkpt lat="44.7839695896853" lon="7.373444812549455"><ele>306.0</ele><time>2026-04-07T14:56:37.999Z</time></trkpt><trkpt lat="44.78395247569873" lon="7.373336023119225"><ele>306.0</ele><time>2026-04-07T15:00:28.999Z</time></trkpt><trkpt lat="44.78397915779635" lon="7.373422458754302"><ele>306.0</ele><time>2026-04-07T15:00:58.999Z</time></trkpt><trkpt lat="44.78387564722496" lon="7.3734671221067485"><ele>306.0</ele><time>2026-04-07T15:03:04.999Z</time></trkpt><trkpt lat="44.783949282137364" lon="7.3734544124724195"><ele>306.0</ele><time>2026-04-07T15:03:18.999Z</time></trkpt><trkpt lat="44.78394408782881" lon="7.373365755105293"><ele>306.0</ele><time>2026-04-07T15:03:25.999Z</time></trkpt><trkpt lat="44.78393649689375" lon="7.373272504243403"><ele>306.0</ele><time>2026-04-07T15:03:34Z</time></trkpt><trkpt lat="44.783976122039135" lon="7.3731954709997085"><ele>306.0</ele><time>2026-04-07T15:03:42Z</time></trkpt><trkpt lat="44.7839352908562" lon="7.37326457362634"><ele>306.0</ele><time>2026-04-07T15:04:40.999Z</time></trkpt><trkpt lat="44.7839237749477" lon="7.373353938034476"><ele>306.0</ele><time>2026-04-07T15:04:47.999Z</time></trkpt><trkpt lat="44.78398167401469" lon="7.373411918100806"><ele>306.0</ele><time>2026-04-07T15:04:57.999Z</time></trkpt><trkpt lat="44.78394024434457" lon="7.373332061111878"><ele>306.0</ele><time>2026-04-07T15:05:53Z</time></trkpt><trkpt lat="44.78395460621772" lon="7.373244658823052"><ele>306.0</ele><time>2026-04-07T15:07:18.999Z</time></trkpt><trkpt lat="44.78399057641072" lon="7.37313321970165"><ele>306.0</ele><time>2026-04-07T15:07:21.999Z</time></trkpt><trkpt lat="44.783958636833916" lon="7.373034284047216"><ele>306.0</ele><time>2026-04-07T15:07:24.999Z</time></trkpt><trkpt lat="44.78397531177641" lon="7.372918782661237"><ele>306.0</ele><time>2026-04-07T15:07:27.999Z</time></trkpt><trkpt lat="44.783985797036785" lon="7.372815687047017"><ele>306.0</ele><time>2026-04-07T15:07:30.999Z</time></trkpt><trkpt lat="44.78397329892194" lon="7.3726761353393275"><ele>306.1666666666667</ele><time>2026-04-07T15:07:33.999Z</time></trkpt><trkpt lat="44.78398093723279" lon="7.372561225688503"><ele>306.3333333333333</ele><time>2026-04-07T15:07:35.999Z</time></trkpt><trkpt lat="44.78397834362725" lon="7.37244230581238"><ele>306.5</ele><time>2026-04-07T15:07:37.999Z</time></trkpt><trkpt lat="44.783970507129204" lon="7.372308408362006"><ele>306.66666666666663</ele><time>2026-04-07T15:07:39.999Z</time></trkpt><trkpt lat="44.78396606303962" lon="7.3722175823503795"><ele>306.8333333333333</ele><time>2026-04-07T15:07:42Z</time></trkpt><trkpt lat="44.78397147240101" lon="7.372115633257531"><ele>307.0</ele><time>2026-04-07T15:07:44Z</time></trkpt><trkpt lat="44.783993779037765" lon="7.372024393883257"><ele>307.5</ele><time>2026-04-07T15:07:46Z</time></trkpt><trkpt lat="44.78400908745516" lon="7.371933516431872"><ele>308.0</ele><time>2026-04-07T15:07:48Z</time></trkpt><trkpt lat="44.78403543779038" lon="7.371828002882563"><ele>308.5</ele><time>2026-04-07T15:07:50Z</time></trkpt><trkpt lat="44.78407027185444" lon="7.371722000797322"><ele>309.0</ele><time>2026-04-07T15:07:52Z</time></trkpt><trkpt lat="44.78410640669471" lon="7.371618649666267"><ele>309.5</ele><time>2026-04-07T15:07:54Z</time></trkpt><trkpt lat="44.78413151385069" lon="7.371482876914608"><ele>310.0</ele><time>2026-04-07T15:07:56Z</time></trkpt><trkpt lat="44.7841613598685" lon="7.371364605413385"><ele>310.4</ele><time>2026-04-07T15:07:58Z</time></trkpt><trkpt lat="44.784207445679286" lon="7.371258545476371"><ele>310.8</ele><time>2026-04-07T15:08:01Z</time></trkpt><trkpt lat="44.78435488985601" lon="7.371302222274239"><ele>311.2</ele><time>2026-04-07T15:08:23Z</time></trkpt><trkpt lat="44.78445139331333" lon="7.371381459442087"><ele>311.6</ele><time>2026-04-07T15:08:25Z</time></trkpt><trkpt lat="44.784508119168095" lon="7.371436009054382"><ele>312.0</ele><time>2026-04-07T15:08:26Z</time></trkpt><trkpt lat="44.78459152271504" lon="7.3715184916123215"><ele>311.0</ele><time>2026-04-07T15:08:28Z</time></trkpt><trkpt lat="44.78465922021703" lon="7.37155840354218"><ele>310.0</ele><time>2026-04-07T15:08:30Z</time></trkpt><trkpt lat="44.78473246023613" lon="7.371461917435373"><ele>309.0</ele><time>2026-04-07T15:08:33Z</time></trkpt><trkpt lat="44.78476090353518" lon="7.371288653466638"><ele>308.0</ele><time>2026-04-07T15:08:35Z</time></trkpt><trkpt lat="44.78478187724463" lon="7.371187645446443"><ele>307.0</ele><time>2026-04-07T15:08:36Z</time></trkpt><trkpt lat="44.78480208116623" lon="7.371074595451414"><ele>307.0</ele><time>2026-04-07T15:08:37Z</time></trkpt><trkpt lat="44.78480788383932" lon="7.370974209215709"><ele>307.0</ele><time>2026-04-07T15:08:38Z</time></trkpt><trkpt lat="44.784835331451525" lon="7.370873570377089"><ele>307.0</ele><time>2026-04-07T15:08:39Z</time></trkpt><trkpt lat="44.78484283301905" lon="7.3707587253727445"><ele>307.0</ele><time>2026-04-07T15:08:40Z</time></trkpt><trkpt lat="44.784861007643556" lon="7.370642096443441"><ele>307.0</ele><time>2026-04-07T15:08:41Z</time></trkpt><trkpt lat="44.78487567302517" lon="7.37052395809455"><ele>307.0</ele><time>2026-04-07T15:08:42Z</time></trkpt><trkpt lat="44.784885415197195" lon="7.3704272083909625"><ele>307.16666666666663</ele><time>2026-04-07T15:08:43Z</time></trkpt><trkpt lat="44.78491677166206" lon="7.3703232164714345"><ele>307.3333333333333</ele><time>2026-04-07T15:08:44Z</time></trkpt><trkpt lat="44.78493171397451" lon="7.370219962846019"><ele>307.5</ele><time>2026-04-07T15:08:45Z</time></trkpt><trkpt lat="44.78494193589994" lon="7.370120426047708"><ele>307.6666666666667</ele><time>2026-04-07T15:08:46Z</time></trkpt><trkpt lat="44.784966358552495" lon="7.370032399657082"><ele>307.83333333333337</ele><time>2026-04-07T15:08:47Z</time></trkpt><trkpt lat="44.78499041815655" lon="7.369906419897572"><ele>308.0</ele><time>2026-04-07T15:08:49Z</time></trkpt><trkpt lat="44.785005288970964" lon="7.369810066963815"><ele>308.2</ele><time>2026-04-07T15:08:51.999Z</time></trkpt><trkpt lat="44.78499549976569" lon="7.369687879088622"><ele>308.4</ele><time>2026-04-07T15:08:54.999Z</time></trkpt><trkpt lat="44.78497538939086" lon="7.369524531933851"><ele>308.59999999999997</ele><time>2026-04-07T15:08:56.999Z</time></trkpt><trkpt lat="44.78492119551012" lon="7.369344079524367"><ele>308.8</ele><time>2026-04-07T15:08:58.999Z</time></trkpt><trkpt lat="44.78489024504507" lon="7.369211301432022"><ele>309.0</ele><time>2026-04-07T15:08:59.999Z</time></trkpt><trkpt lat="44.78485754483401" lon="7.3690658013887544"><ele>309.0</ele><time>2026-04-07T15:09:00.999Z</time></trkpt><trkpt lat="44.7848256754892" lon="7.3689152914089275"><ele>309.0</ele><time>2026-04-07T15:09:01.999Z</time></trkpt><trkpt lat="44.78480377415917" lon="7.368779895286338"><ele>309.0</ele><time>2026-04-07T15:09:02.999Z</time></trkpt><trkpt lat="44.78477766170407" lon="7.368636281354471"><ele>309.0</ele><time>2026-04-07T15:09:03.999Z</time></trkpt><trkpt lat="44.78474984611065" lon="7.36851148231816"><ele>309.0</ele><time>2026-04-07T15:09:04.999Z</time></trkpt><trkpt lat="44.78473025700885" lon="7.368398215903618"><ele>309.0</ele><time>2026-04-07T15:09:05.999Z</time></trkpt><trkpt lat="44.784711777978394" lon="7.368301742145635"><ele>309.0</ele><time>2026-04-07T15:09:06.999Z</time></trkpt><trkpt lat="44.78469102116647" lon="7.368211978309683"><ele>309.0</ele><time>2026-04-07T15:09:07.999Z</time></trkpt><trkpt lat="44.78470530141101" lon="7.368066369868254"><ele>309.0</ele><time>2026-04-07T15:09:09.999Z</time></trkpt><trkpt lat="44.78480135420021" lon="7.368057693544528"><ele>309.0</ele><time>2026-04-07T15:09:10.999Z</time></trkpt><trkpt lat="44.78489349194845" lon="7.368020280641311"><ele>309.0</ele><time>2026-04-07T15:09:11.999Z</time></trkpt><trkpt lat="44.784998760190376" lon="7.3679775360211"><ele>309.0</ele><time>2026-04-07T15:09:12.999Z</time></trkpt><trkpt lat="44.785127286092894" lon="7.36792326999284"><ele>309.0</ele><time>2026-04-07T15:09:13.999Z</time></trkpt><trkpt lat="44.7852598444338" lon="7.367849362533984"><ele>309.0</ele><time>2026-04-07T15:09:14.999Z</time></trkpt><trkpt lat="44.78538941132875" lon="7.367821682851444"><ele>309.0</ele><time>2026-04-07T15:09:15.999Z</time></trkpt><trkpt lat="44.78550070382522" lon="7.367806342326501"><ele>308.8</ele><time>2026-04-07T15:09:16.999Z</time></trkpt><trkpt lat="44.78560725179323" lon="7.367794758329026"><ele>308.59999999999997</ele><time>2026-04-07T15:09:17.999Z</time></trkpt><trkpt lat="44.78571732204171" lon="7.367791749151845"><ele>308.4</ele><time>2026-04-07T15:09:18.999Z</time></trkpt><trkpt lat="44.78583071484063" lon="7.3677917844460294"><ele>308.2</ele><time>2026-04-07T15:09:19.999Z</time></trkpt><trkpt lat="44.78594324875779" lon="7.367788793640649"><ele>308.0</ele><time>2026-04-07T15:09:20.999Z</time></trkpt><trkpt lat="44.786039531069825" lon="7.3677837317793236"><ele>308.6666666666667</ele><time>2026-04-07T15:09:21.999Z</time></trkpt><trkpt lat="44.78612502496278" lon="7.3677831560464035"><ele>309.33333333333337</ele><time>2026-04-07T15:09:22.999Z</time></trkpt><trkpt lat="44.78620052722102" lon="7.367783471239578"><ele>310.0</ele><time>2026-04-07T15:09:23.999Z</time></trkpt><trkpt lat="44.78630206238395" lon="7.367784860594122"><ele>310.6666666666667</ele><time>2026-04-07T15:09:25.999Z</time></trkpt><trkpt lat="44.786365726177365" lon="7.36778440728291"><ele>311.3333333333333</ele><time>2026-04-07T15:09:34.999Z</time></trkpt><trkpt lat="44.78645744458207" lon="7.367765875120838"><ele>312.0</ele><time>2026-04-07T15:09:36.999Z</time></trkpt><trkpt lat="44.786521998655736" lon="7.367721366940038"><ele>312.0</ele><time>2026-04-07T15:09:37.999Z</time></trkpt><trkpt lat="44.78659516564708" lon="7.3677177396018285"><ele>312.0</ele><time>2026-04-07T15:09:38.999Z</time></trkpt><trkpt lat="44.78669808709284" lon="7.367703762000106"><ele>312.0</ele><time>2026-04-07T15:09:39.999Z</time></trkpt><trkpt lat="44.78681515289887" lon="7.367684546428001"><ele>312.0</ele><time>2026-04-07T15:09:40.999Z</time></trkpt><trkpt lat="44.78693391186529" lon="7.367663245332057"><ele>312.0</ele><time>2026-04-07T15:09:41.999Z</time></trkpt><trkpt lat="44.787066152158815" lon="7.367624001780953"><ele>311.75</ele><time>2026-04-07T15:09:42.999Z</time></trkpt><trkpt lat="44.78720975507371" lon="7.367583006355479"><ele>311.5</ele><time>2026-04-07T15:09:43.999Z</time></trkpt><trkpt lat="44.787349453911695" lon="7.367545006954737"><ele>311.25</ele><time>2026-04-07T15:09:44.999Z</time></trkpt><trkpt lat="44.78749549848598" lon="7.367511561432864"><ele>311.0</ele><time>2026-04-07T15:09:45.999Z</time></trkpt><trkpt lat="44.787651239968135" lon="7.367461670894185"><ele>310.6666666666667</ele><time>2026-04-07T15:09:46.999Z</time></trkpt><trkpt lat="44.787811617495805" lon="7.367417437144248"><ele>310.3333333333333</ele><time>2026-04-07T15:09:48Z</time></trkpt><trkpt lat="44.78797138148856" lon="7.367369880246739"><ele>310.0</ele><time>2026-04-07T15:09:49Z</time></trkpt><trkpt lat="44.788121965160954" lon="7.367338045193895"><ele>310.0</ele><time>2026-04-07T15:09:50Z</time></trkpt><trkpt lat="44.788262512063746" lon="7.36732232560806"><ele>310.0</ele><time>2026-04-07T15:09:51Z</time></trkpt><trkpt lat="44.78841099806272" lon="7.367325115688864"><ele>310.0</ele><time>2026-04-07T15:09:52Z</time></trkpt><trkpt lat="44.788565615145394" lon="7.3673281858418616"><ele>310.0</ele><time>2026-04-07T15:09:53Z</time></trkpt><trkpt lat="44.7887275417282" lon="7.36732283665018"><ele>309.66666666666663</ele><time>2026-04-07T15:09:54Z</time></trkpt><trkpt lat="44.78889592592066" lon="7.367314052823577"><ele>309.3333333333333</ele><time>2026-04-07T15:09:55Z</time></trkpt><trkpt lat="44.789067384724554" lon="7.367305687176302"><ele>309.0</ele><time>2026-04-07T15:09:56Z</time></trkpt><trkpt lat="44.78924274409329" lon="7.367282072010984"><ele>309.3333333333333</ele><time>2026-04-07T15:09:57Z</time></trkpt><trkpt lat="44.789417191416064" lon="7.367232599488037"><ele>309.66666666666663</ele><time>2026-04-07T15:09:58Z</time></trkpt><trkpt lat="44.789591665690445" lon="7.367186938395251"><ele>310.0</ele><time>2026-04-07T15:09:59Z</time></trkpt><trkpt lat="44.78977345688528" lon="7.367136921370791"><ele>310.3333333333333</ele><time>2026-04-07T15:10:00Z</time></trkpt><trkpt lat="44.789966829642225" lon="7.367093188734248"><ele>310.6666666666667</ele><time>2026-04-07T15:10:01Z</time></trkpt><trkpt lat="44.79017506985047" lon="7.3670605292092795"><ele>311.0</ele><time>2026-04-07T15:10:02Z</time></trkpt><trkpt lat="44.79037880314677" lon="7.36704704208594"><ele>311.0</ele><time>2026-04-07T15:10:03Z</time></trkpt><trkpt lat="44.7905842998376" lon="7.367048931528489"><ele>311.0</ele><time>2026-04-07T15:10:04Z</time></trkpt><trkpt lat="44.79079977510574" lon="7.367038061967136"><ele>311.0</ele><time>2026-04-07T15:10:05Z</time></trkpt><trkpt lat="44.79100905404751" lon="7.367009931619028"><ele>311.6666666666667</ele><time>2026-04-07T15:10:06Z</time></trkpt><trkpt lat="44.79120320100529" lon="7.366986833211145"><ele>312.3333333333333</ele><time>2026-04-07T15:10:07Z</time></trkpt><trkpt lat="44.7913971450812" lon="7.366968219697208"><ele>313.0</ele><time>2026-04-07T15:10:08Z</time></trkpt><trkpt lat="44.79159532361608" lon="7.366938855851489"><ele>313.0</ele><time>2026-04-07T15:10:09Z</time></trkpt><trkpt lat="44.79180119607902" lon="7.366901526145104"><ele>313.0</ele><time>2026-04-07T15:10:10Z</time></trkpt><trkpt lat="44.792009540245324" lon="7.366856178967978"><ele>313.0</ele><time>2026-04-07T15:10:11Z</time></trkpt><trkpt lat="44.79222013764783" lon="7.366806454635611"><ele>313.0</ele><time>2026-04-07T15:10:12Z</time></trkpt><trkpt lat="44.792428054258934" lon="7.366760463322581"><ele>313.0</ele><time>2026-04-07T15:10:13Z</time></trkpt><trkpt lat="44.79261937724354" lon="7.366724108430569"><ele>313.0</ele><time>2026-04-07T15:10:14Z</time></trkpt><trkpt lat="44.79279816052981" lon="7.366688469690835"><ele>312.3333333333333</ele><time>2026-04-07T15:10:15Z</time></trkpt><trkpt lat="44.792973515658325" lon="7.36663734247711"><ele>311.6666666666667</ele><time>2026-04-07T15:10:16Z</time></trkpt><trkpt lat="44.79313396289392" lon="7.366554140982906"><ele>311.0</ele><time>2026-04-07T15:10:17Z</time></trkpt><trkpt lat="44.793295788877536" lon="7.366447472870201"><ele>311.33333333333337</ele><time>2026-04-07T15:10:18Z</time></trkpt><trkpt lat="44.79346821005656" lon="7.366339452171221"><ele>311.6666666666667</ele><time>2026-04-07T15:10:19Z</time></trkpt><trkpt lat="44.79364748561695" lon="7.366250586294727"><ele>312.0</ele><time>2026-04-07T15:10:20Z</time></trkpt><trkpt lat="44.79383736412748" lon="7.366174328467931"><ele>312.0</ele><time>2026-04-07T15:10:21Z</time></trkpt><trkpt lat="44.794033671475866" lon="7.366111703679704"><ele>312.0</ele><time>2026-04-07T15:10:22Z</time></trkpt><trkpt lat="44.79423403542701" lon="7.366050773481847"><ele>312.0</ele><time>2026-04-07T15:10:23Z</time></trkpt><trkpt lat="44.79443516848723" lon="7.365983914043731"><ele>312.0</ele><time>2026-04-07T15:10:24Z</time></trkpt><trkpt lat="44.79464509207822" lon="7.365916897777018"><ele>312.0</ele><time>2026-04-07T15:10:25Z</time></trkpt><trkpt lat="44.79486478053722" lon="7.365854383897128"><ele>312.0</ele><time>2026-04-07T15:10:26Z</time></trkpt><trkpt lat="44.795086379213906" lon="7.365788330807252"><ele>313.5</ele><time>2026-04-07T15:10:27Z</time></trkpt><trkpt lat="44.79531495670662" lon="7.365716354168119"><ele>315.0</ele><time>2026-04-07T15:10:28Z</time></trkpt><trkpt lat="44.795546241523915" lon="7.365638367291509"><ele>315.0</ele><time>2026-04-07T15:10:29Z</time></trkpt><trkpt lat="44.795776719063866" lon="7.365554897703888"><ele>315.0</ele><time>2026-04-07T15:10:30Z</time></trkpt><trkpt lat="44.796005029177046" lon="7.365466480459761"><ele>315.3333333333333</ele><time>2026-04-07T15:10:31Z</time></trkpt><trkpt lat="44.79622514043783" lon="7.365392694663645"><ele>315.66666666666663</ele><time>2026-04-07T15:10:32Z</time></trkpt><trkpt lat="44.79643407623847" lon="7.365326928028893"><ele>316.0</ele><time>2026-04-07T15:10:33Z</time></trkpt><trkpt lat="44.796642412985086" lon="7.36527270535508"><ele>316.3333333333333</ele><time>2026-04-07T15:10:34Z</time></trkpt><trkpt lat="44.79685077845202" lon="7.3652322059268"><ele>316.6666666666667</ele><time>2026-04-07T15:10:35Z</time></trkpt><trkpt lat="44.79705232262844" lon="7.3651932713201544"><ele>317.0</ele><time>2026-04-07T15:10:36Z</time></trkpt><trkpt lat="44.79725546718543" lon="7.36515811146469"><ele>317.0</ele><time>2026-04-07T15:10:37Z</time></trkpt><trkpt lat="44.79745333794061" lon="7.36513162906019"><ele>317.0</ele><time>2026-04-07T15:10:38Z</time></trkpt><trkpt lat="44.79763606793094" lon="7.365105237328494"><ele>317.0</ele><time>2026-04-07T15:10:39Z</time></trkpt><trkpt lat="44.797807585323554" lon="7.365074328832122"><ele>317.33333333333337</ele><time>2026-04-07T15:10:40Z</time></trkpt><trkpt lat="44.79797886744482" lon="7.365045567035748"><ele>317.6666666666667</ele><time>2026-04-07T15:10:41Z</time></trkpt><trkpt lat="44.79814876159611" lon="7.365016400787072"><ele>318.0</ele><time>2026-04-07T15:10:42Z</time></trkpt><trkpt lat="44.79831919362425" lon="7.364983249298184"><ele>318.0</ele><time>2026-04-07T15:10:43Z</time></trkpt><trkpt lat="44.798491500272306" lon="7.364942122450256"><ele>318.0</ele><time>2026-04-07T15:10:44Z</time></trkpt><trkpt lat="44.7986653386575" lon="7.364893864510588"><ele>318.0</ele><time>2026-04-07T15:10:45Z</time></trkpt><trkpt lat="44.79883943241654" lon="7.36484263284208"><ele>317.3333333333333</ele><time>2026-04-07T15:10:46Z</time></trkpt><trkpt lat="44.7989998680998" lon="7.364789394332442"><ele>316.66666666666663</ele><time>2026-04-07T15:10:47Z</time></trkpt><trkpt lat="44.79914979622943" lon="7.364730817690201"><ele>316.0</ele><time>2026-04-07T15:10:48Z</time></trkpt><trkpt lat="44.79928940629709" lon="7.364679016620078"><ele>316.25</ele><time>2026-04-07T15:10:49Z</time></trkpt><trkpt lat="44.799422343112006" lon="7.364632259630077"><ele>316.5</ele><time>2026-04-07T15:10:50Z</time></trkpt><trkpt lat="44.799552382083974" lon="7.364596987206597"><ele>316.75</ele><time>2026-04-07T15:10:51Z</time></trkpt><trkpt lat="44.79966859283998" lon="7.3645741985555"><ele>317.0</ele><time>2026-04-07T15:10:52Z</time></trkpt><trkpt lat="44.79976307964906" lon="7.3645558124297805"><ele>317.0</ele><time>2026-04-07T15:10:53Z</time></trkpt><trkpt lat="44.79985639000042" lon="7.364538929808475"><ele>317.0</ele><time>2026-04-07T15:10:54Z</time></trkpt><trkpt lat="44.79997570436532" lon="7.364541501753397"><ele>317.0</ele><time>2026-04-07T15:10:55Z</time></trkpt><trkpt lat="44.80011311620913" lon="7.364546394762559"><ele>317.0</ele><time>2026-04-07T15:10:56Z</time></trkpt><trkpt lat="44.800249883301454" lon="7.364553792939907"><ele>317.25</ele><time>2026-04-07T15:10:57Z</time></trkpt><trkpt lat="44.80036983389692" lon="7.364549831456847"><ele>317.5</ele><time>2026-04-07T15:10:58Z</time></trkpt><trkpt lat="44.800488764018716" lon="7.364536866605868"><ele>317.75</ele><time>2026-04-07T15:10:58.999Z</time></trkpt><trkpt lat="44.80060118356547" lon="7.364527437164814"><ele>318.0</ele><time>2026-04-07T15:10:59.999Z</time></trkpt><trkpt lat="44.80070285671255" lon="7.364525978191767"><ele>318.0</ele><time>2026-04-07T15:11:00.999Z</time></trkpt><trkpt lat="44.80079432969319" lon="7.364524464388277"><ele>318.0</ele><time>2026-04-07T15:11:01.999Z</time></trkpt><trkpt lat="44.8008781689153" lon="7.364517278626312"><ele>318.0</ele><time>2026-04-07T15:11:02.999Z</time></trkpt><trkpt lat="44.80096587354351" lon="7.3645005757051925"><ele>318.0</ele><time>2026-04-07T15:11:03.999Z</time></trkpt><trkpt lat="44.801052879376556" lon="7.364484275016172"><ele>318.0</ele><time>2026-04-07T15:11:04.999Z</time></trkpt><trkpt lat="44.8011320547139" lon="7.364468239448948"><ele>318.0</ele><time>2026-04-07T15:11:05.999Z</time></trkpt><trkpt lat="44.8012117734559" lon="7.364455819579804"><ele>317.8</ele><time>2026-04-07T15:11:06.999Z</time></trkpt><trkpt lat="44.80129304808768" lon="7.364441966849517"><ele>317.6</ele><time>2026-04-07T15:11:07.999Z</time></trkpt><trkpt lat="44.80139749135415" lon="7.364425457903367"><ele>317.4</ele><time>2026-04-07T15:11:08.999Z</time></trkpt><trkpt lat="44.80152213150853" lon="7.364404763216956"><ele>317.2</ele><time>2026-04-07T15:11:09.999Z</time></trkpt><trkpt lat="44.80165415323324" lon="7.364383260941223"><ele>317.0</ele><time>2026-04-07T15:11:10.999Z</time></trkpt><trkpt lat="44.80180331301434" lon="7.364382668515861"><ele>317.0</ele><time>2026-04-07T15:11:11.999Z</time></trkpt><trkpt lat="44.80197916050991" lon="7.364366696778215"><ele>317.0</ele><time>2026-04-07T15:11:12.999Z</time></trkpt><trkpt lat="44.802137867056544" lon="7.364347361186739"><ele>317.0</ele><time>2026-04-07T15:11:13.999Z</time></trkpt><trkpt lat="44.802281999246006" lon="7.364358730147104"><ele>317.0</ele><time>2026-04-07T15:11:14.999Z</time></trkpt><trkpt lat="44.80243631557416" lon="7.364345650201172"><ele>317.0</ele><time>2026-04-07T15:11:15.999Z</time></trkpt><trkpt lat="44.80258763106028" lon="7.3643321239621695"><ele>317.0</ele><time>2026-04-07T15:11:16.999Z</time></trkpt><trkpt lat="44.802742119276616" lon="7.364321106493756"><ele>316.6666666666667</ele><time>2026-04-07T15:11:17.999Z</time></trkpt><trkpt lat="44.802902684448064" lon="7.3643023902388265"><ele>316.3333333333333</ele><time>2026-04-07T15:11:18.999Z</time></trkpt><trkpt lat="44.80306237176983" lon="7.364285284434613"><ele>316.0</ele><time>2026-04-07T15:11:19.999Z</time></trkpt><trkpt lat="44.80322824428822" lon="7.364268558588632"><ele>316.0</ele><time>2026-04-07T15:11:20.999Z</time></trkpt><trkpt lat="44.80339859716953" lon="7.364252379738632"><ele>316.0</ele><time>2026-04-07T15:11:21.999Z</time></trkpt><trkpt lat="44.8035725181919" lon="7.364254956118416"><ele>316.0</ele><time>2026-04-07T15:11:22.999Z</time></trkpt><trkpt lat="44.80374483214657" lon="7.36421557574113"><ele>316.0</ele><time>2026-04-07T15:11:23.999Z</time></trkpt><trkpt lat="44.803918724579596" lon="7.36418615646342"><ele>316.0</ele><time>2026-04-07T15:11:24.999Z</time></trkpt><trkpt lat="44.8040871542521" lon="7.3641446713178285"><ele>316.0</ele><time>2026-04-07T15:11:25.999Z</time></trkpt><trkpt lat="44.80424392614026" lon="7.364101526545544"><ele>316.25</ele><time>2026-04-07T15:11:26.999Z</time></trkpt><trkpt lat="44.804400867084894" lon="7.3640564839663165"><ele>316.5</ele><time>2026-04-07T15:11:27.999Z</time></trkpt><trkpt lat="44.80454074783013" lon="7.364015117897087"><ele>316.75</ele><time>2026-04-07T15:11:28.999Z</time></trkpt><trkpt lat="44.80467721643029" lon="7.363974086458393"><ele>317.0</ele><time>2026-04-07T15:11:29.999Z</time></trkpt><trkpt lat="44.804811497113754" lon="7.3639268822754245"><ele>317.0</ele><time>2026-04-07T15:11:30.999Z</time></trkpt><trkpt lat="44.80494400560675" lon="7.3638646186101"><ele>317.0</ele><time>2026-04-07T15:11:31.999Z</time></trkpt><trkpt lat="44.80507664124105" lon="7.363767947242894"><ele>317.0</ele><time>2026-04-07T15:11:32.999Z</time></trkpt><trkpt lat="44.80522457581326" lon="7.363671301281343"><ele>317.33333333333337</ele><time>2026-04-07T15:11:33.999Z</time></trkpt><trkpt lat="44.805378405217226" lon="7.363572245832206"><ele>317.6666666666667</ele><time>2026-04-07T15:11:34.999Z</time></trkpt><trkpt lat="44.805533784197095" lon="7.363467552877729"><ele>318.0</ele><time>2026-04-07T15:11:35.999Z</time></trkpt><trkpt lat="44.80569739318943" lon="7.363362487920076"><ele>318.0</ele><time>2026-04-07T15:11:36.999Z</time></trkpt><trkpt lat="44.805868696654464" lon="7.363252929724784"><ele>318.0</ele><time>2026-04-07T15:11:37.999Z</time></trkpt><trkpt lat="44.806046797734936" lon="7.3631476760531855"><ele>318.0</ele><time>2026-04-07T15:11:38.999Z</time></trkpt><trkpt lat="44.80622904304644" lon="7.3630503008644705"><ele>318.3333333333333</ele><time>2026-04-07T15:11:39.999Z</time></trkpt><trkpt lat="44.806405119339004" lon="7.3629619277907805"><ele>318.66666666666663</ele><time>2026-04-07T15:11:40.999Z</time></trkpt><trkpt lat="44.80656643115916" lon="7.362892025077452"><ele>319.0</ele><time>2026-04-07T15:11:41.999Z</time></trkpt><trkpt lat="44.806727819805666" lon="7.362828190964963"><ele>320.0</ele><time>2026-04-07T15:11:42.999Z</time></trkpt><trkpt lat="44.80690270772024" lon="7.362776195489784"><ele>321.0</ele><time>2026-04-07T15:11:43.999Z</time></trkpt><trkpt lat="44.807095505372665" lon="7.362739699992589"><ele>322.0</ele><time>2026-04-07T15:11:44.999Z</time></trkpt><trkpt lat="44.807275951598534" lon="7.362711543869874"><ele>322.0</ele><time>2026-04-07T15:11:45.999Z</time></trkpt><trkpt lat="44.807451429614666" lon="7.362696556607844"><ele>322.0</ele><time>2026-04-07T15:11:46.999Z</time></trkpt><trkpt lat="44.807645487389244" lon="7.362707610596692"><ele>322.0</ele><time>2026-04-07T15:11:47.999Z</time></trkpt><trkpt lat="44.80783105601445" lon="7.362727007376676"><ele>321.66666666666663</ele><time>2026-04-07T15:11:48.999Z</time></trkpt><trkpt lat="44.808006348397896" lon="7.3627357695994595"><ele>321.3333333333333</ele><time>2026-04-07T15:11:49.999Z</time></trkpt><trkpt lat="44.80819934184084" lon="7.362746780992751"><ele>321.0</ele><time>2026-04-07T15:11:50.999Z</time></trkpt><trkpt lat="44.80840449097877" lon="7.362768279194198"><ele>321.0</ele><time>2026-04-07T15:11:51.999Z</time></trkpt><trkpt lat="44.80861387831112" lon="7.362787987544453"><ele>321.0</ele><time>2026-04-07T15:11:52.999Z</time></trkpt><trkpt lat="44.80883035035319" lon="7.362812265316073"><ele>321.0</ele><time>2026-04-07T15:11:54Z</time></trkpt><trkpt lat="44.8090291957964" lon="7.362836594746023"><ele>321.0</ele><time>2026-04-07T15:11:55Z</time></trkpt><trkpt lat="44.80922438621576" lon="7.362865038247634"><ele>321.0</ele><time>2026-04-07T15:11:56Z</time></trkpt><trkpt lat="44.80940397692617" lon="7.362889038207237"><ele>321.0</ele><time>2026-04-07T15:11:57Z</time></trkpt><trkpt lat="44.809573465107654" lon="7.362911280512393"><ele>322.0</ele><time>2026-04-07T15:11:58Z</time></trkpt><trkpt lat="44.80973063487489" lon="7.362929832576869"><ele>323.0</ele><time>2026-04-07T15:11:59Z</time></trkpt><trkpt lat="44.80987701025929" lon="7.3629350329207455"><ele>324.0</ele><time>2026-04-07T15:12:00Z</time></trkpt><trkpt lat="44.810035311421" lon="7.362902454854526"><ele>323.3333333333333</ele><time>2026-04-07T15:12:01Z</time></trkpt><trkpt lat="44.81020149614985" lon="7.362822161112102"><ele>322.66666666666663</ele><time>2026-04-07T15:12:02Z</time></trkpt><trkpt lat="44.8103658626566" lon="7.362742811886141"><ele>322.0</ele><time>2026-04-07T15:12:03Z</time></trkpt><trkpt lat="44.810498165456444" lon="7.362675866637274"><ele>322.0</ele><time>2026-04-07T15:12:04Z</time></trkpt><trkpt lat="44.81060779782638" lon="7.3626182231972335"><ele>322.0</ele><time>2026-04-07T15:12:05Z</time></trkpt><trkpt lat="44.81071649425361" lon="7.362567511119616"><ele>322.0</ele><time>2026-04-07T15:12:06Z</time></trkpt><trkpt lat="44.81081966740575" lon="7.362519597364638"><ele>322.0</ele><time>2026-04-07T15:12:07Z</time></trkpt><trkpt lat="44.810921579473245" lon="7.3624663815467475"><ele>322.0</ele><time>2026-04-07T15:12:08Z</time></trkpt><trkpt lat="44.81103095950095" lon="7.362410005078043"><ele>322.0</ele><time>2026-04-07T15:12:09Z</time></trkpt><trkpt lat="44.811143649545976" lon="7.362341622521071"><ele>322.0</ele><time>2026-04-07T15:12:10Z</time></trkpt><trkpt lat="44.811264155459725" lon="7.3622773470919745"><ele>322.0</ele><time>2026-04-07T15:12:11Z</time></trkpt><trkpt lat="44.8113948556314" lon="7.362235804218534"><ele>322.0</ele><time>2026-04-07T15:12:12Z</time></trkpt><trkpt lat="44.81152769375888" lon="7.362198365720785"><ele>321.75</ele><time>2026-04-07T15:12:13Z</time></trkpt><trkpt lat="44.81167449377847" lon="7.362174282056973"><ele>321.5</ele><time>2026-04-07T15:12:14Z</time></trkpt><trkpt lat="44.81182116489852" lon="7.362158008370712"><ele>321.25</ele><time>2026-04-07T15:12:15Z</time></trkpt><trkpt lat="44.811973524428176" lon="7.362145425978022"><ele>321.0</ele><time>2026-04-07T15:12:16Z</time></trkpt><trkpt lat="44.81213081589708" lon="7.362131133784669"><ele>321.0</ele><time>2026-04-07T15:12:17Z</time></trkpt><trkpt lat="44.812290502696435" lon="7.362103661278134"><ele>321.0</ele><time>2026-04-07T15:12:18Z</time></trkpt><trkpt lat="44.81245498078427" lon="7.36208476653253"><ele>321.0</ele><time>2026-04-07T15:12:19Z</time></trkpt><trkpt lat="44.81262312474909" lon="7.3620572342749675"><ele>321.3333333333333</ele><time>2026-04-07T15:12:20Z</time></trkpt><trkpt lat="44.8127928221451" lon="7.362019635376825"><ele>321.66666666666663</ele><time>2026-04-07T15:12:21Z</time></trkpt><trkpt lat="44.81296380107385" lon="7.361979521412519"><ele>322.0</ele><time>2026-04-07T15:12:22Z</time></trkpt><trkpt lat="44.813142007682046" lon="7.361944094420775"><ele>322.0</ele><time>2026-04-07T15:12:23Z</time></trkpt><trkpt lat="44.81332177388192" lon="7.361910652991085"><ele>322.0</ele><time>2026-04-07T15:12:24Z</time></trkpt><trkpt lat="44.81350527968761" lon="7.361871357390644"><ele>322.0</ele><time>2026-04-07T15:12:25Z</time></trkpt><trkpt lat="44.8136800820909" lon="7.361836363062316"><ele>322.0</ele><time>2026-04-07T15:12:26Z</time></trkpt><trkpt lat="44.813839867097286" lon="7.361800852313593"><ele>322.0</ele><time>2026-04-07T15:12:27Z</time></trkpt><trkpt lat="44.813987247094296" lon="7.361769777107792"><ele>322.0</ele><time>2026-04-07T15:12:28Z</time></trkpt><trkpt lat="44.81412653234949" lon="7.361742534547159"><ele>322.0</ele><time>2026-04-07T15:12:29Z</time></trkpt><trkpt lat="44.81425303304723" lon="7.361714015646521"><ele>322.0</ele><time>2026-04-07T15:12:30Z</time></trkpt><trkpt lat="44.81435237590418" lon="7.361693077337343"><ele>322.0</ele><time>2026-04-07T15:12:31Z</time></trkpt><trkpt lat="44.81442130316101" lon="7.3616693186741555"><ele>322.0</ele><time>2026-04-07T15:12:32Z</time></trkpt><trkpt lat="44.814509162488" lon="7.361715272081347"><ele>322.0</ele><time>2026-04-07T15:12:33Z</time></trkpt><trkpt lat="44.81460690415728" lon="7.361741512650015"><ele>322.0</ele><time>2026-04-07T15:12:34Z</time></trkpt><trkpt lat="44.81469509104116" lon="7.361774760771018"><ele>322.0</ele><time>2026-04-07T15:12:35Z</time></trkpt><trkpt lat="44.81478011316905" lon="7.361840652241619"><ele>322.0</ele><time>2026-04-07T15:12:36Z</time></trkpt><trkpt lat="44.81486116939834" lon="7.361925494181784"><ele>322.0</ele><time>2026-04-07T15:12:37Z</time></trkpt><trkpt lat="44.8149476476527" lon="7.3620274150870255"><ele>322.0</ele><time>2026-04-07T15:12:38Z</time></trkpt><trkpt lat="44.81503660826596" lon="7.362163122278645"><ele>321.66666666666663</ele><time>2026-04-07T15:12:39Z</time></trkpt><trkpt lat="44.81512959538454" lon="7.362326851654938"><ele>321.3333333333333</ele><time>2026-04-07T15:12:40Z</time></trkpt><trkpt lat="44.815223514592944" lon="7.362519389434482"><ele>321.0</ele><time>2026-04-07T15:12:41Z</time></trkpt><trkpt lat="44.8153211386264" lon="7.362722474815676"><ele>320.75</ele><time>2026-04-07T15:12:42Z</time></trkpt><trkpt lat="44.81542612679787" lon="7.362875568092939"><ele>320.5</ele><time>2026-04-07T15:12:43Z</time></trkpt><trkpt lat="44.81554071719546" lon="7.3629781362338775"><ele>320.25</ele><time>2026-04-07T15:12:44Z</time></trkpt><trkpt lat="44.81566989864332" lon="7.36303673034682"><ele>320.0</ele><time>2026-04-07T15:12:45Z</time></trkpt><trkpt lat="44.81577725484113" lon="7.363066194660815"><ele>320.0</ele><time>2026-04-07T15:12:46Z</time></trkpt><trkpt lat="44.81586144004533" lon="7.363145956633673"><ele>320.0</ele><time>2026-04-07T15:12:47Z</time></trkpt><trkpt lat="44.81592157715283" lon="7.363278401311966"><ele>320.0</ele><time>2026-04-07T15:12:48Z</time></trkpt><trkpt lat="44.81592751699404" lon="7.363436909562775"><ele>320.0</ele><time>2026-04-07T15:12:49Z</time></trkpt><trkpt lat="44.81595851049792" lon="7.363624386164074"><ele>320.0</ele><time>2026-04-07T15:12:50Z</time></trkpt><trkpt lat="44.8159741629201" lon="7.363845166329497"><ele>320.0</ele><time>2026-04-07T15:12:51Z</time></trkpt><trkpt lat="44.816001450284354" lon="7.3640875648121"><ele>320.0</ele><time>2026-04-07T15:12:52Z</time></trkpt><trkpt lat="44.816024340572305" lon="7.364363506935543"><ele>319.6666666666667</ele><time>2026-04-07T15:12:53Z</time></trkpt><trkpt lat="44.81605116081706" lon="7.364661343034083"><ele>319.3333333333333</ele><time>2026-04-07T15:12:54Z</time></trkpt><trkpt lat="44.81608307747189" lon="7.364949461070145"><ele>319.0</ele><time>2026-04-07T15:12:55Z</time></trkpt><trkpt lat="44.816117601564294" lon="7.365256427470012"><ele>318.0</ele><time>2026-04-07T15:12:56Z</time></trkpt><trkpt lat="44.81614597172631" lon="7.3655487564809885"><ele>317.0</ele><time>2026-04-07T15:12:57Z</time></trkpt><trkpt lat="44.81617153329714" lon="7.365820660927223"><ele>316.0</ele><time>2026-04-07T15:12:58Z</time></trkpt><trkpt lat="44.816197647204376" lon="7.366086784321739"><ele>316.0</ele><time>2026-04-07T15:12:59Z</time></trkpt><trkpt lat="44.81622664319523" lon="7.366356187449636"><ele>316.0</ele><time>2026-04-07T15:13:00Z</time></trkpt><trkpt lat="44.816258089124126" lon="7.36664749896237"><ele>316.0</ele><time>2026-04-07T15:13:01Z</time></trkpt><trkpt lat="44.81628827922182" lon="7.366954633655168"><ele>316.0</ele><time>2026-04-07T15:13:02Z</time></trkpt><trkpt lat="44.81631620175738" lon="7.367270948867871"><ele>316.0</ele><time>2026-04-07T15:13:03Z</time></trkpt><trkpt lat="44.816344900271794" lon="7.367566059519744"><ele>316.0</ele><time>2026-04-07T15:13:04Z</time></trkpt><trkpt lat="44.8163724050371" lon="7.367840898912068"><ele>315.66666666666663</ele><time>2026-04-07T15:13:04.999Z</time></trkpt><trkpt lat="44.8163994436983" lon="7.368102334661047"><ele>315.3333333333333</ele><time>2026-04-07T15:13:05.999Z</time></trkpt><trkpt lat="44.81642372251306" lon="7.3683505243947245"><ele>315.0</ele><time>2026-04-07T15:13:06.999Z</time></trkpt><trkpt lat="44.81645001186449" lon="7.3685858656446035"><ele>315.0</ele><time>2026-04-07T15:13:07.999Z</time></trkpt><trkpt lat="44.8164790577608" lon="7.368824235977756"><ele>315.0</ele><time>2026-04-07T15:13:08.999Z</time></trkpt><trkpt lat="44.816503065002316" lon="7.369052227354871"><ele>315.0</ele><time>2026-04-07T15:13:09.999Z</time></trkpt><trkpt lat="44.816521799112024" lon="7.3692646362598815"><ele>315.0</ele><time>2026-04-07T15:13:10.999Z</time></trkpt><trkpt lat="44.816541618133776" lon="7.36946177473869"><ele>315.0</ele><time>2026-04-07T15:13:11.999Z</time></trkpt><trkpt lat="44.81655918215424" lon="7.3696492979112405"><ele>315.0</ele><time>2026-04-07T15:13:12.999Z</time></trkpt><trkpt lat="44.8165761718354" lon="7.369822597020687"><ele>315.0</ele><time>2026-04-07T15:13:13.999Z</time></trkpt><trkpt lat="44.816591189676245" lon="7.369974060539045"><ele>315.0</ele><time>2026-04-07T15:13:14.999Z</time></trkpt><trkpt lat="44.81660539619907" lon="7.370111212202539"><ele>315.0</ele><time>2026-04-07T15:13:15.999Z</time></trkpt><trkpt lat="44.81661545107866" lon="7.370218724091877"><ele>315.0</ele><time>2026-04-07T15:13:16.999Z</time></trkpt><trkpt lat="44.8166237349048" lon="7.370309933232024"><ele>315.0</ele><time>2026-04-07T15:13:17.999Z</time></trkpt><trkpt lat="44.81664048289614" lon="7.370460752320573"><ele>315.0</ele><time>2026-04-07T15:13:19.999Z</time></trkpt><trkpt lat="44.816648248868695" lon="7.370572360155136"><ele>315.0</ele><time>2026-04-07T15:13:21.999Z</time></trkpt><trkpt lat="44.81665986745505" lon="7.37068134488438"><ele>314.6666666666667</ele><time>2026-04-07T15:13:25.999Z</time></trkpt><trkpt lat="44.816679260634004" lon="7.370783204002316"><ele>314.3333333333333</ele><time>2026-04-07T15:13:27.999Z</time></trkpt><trkpt lat="44.81665972900381" lon="7.370881423782951"><ele>314.0</ele><time>2026-04-07T15:13:31.999Z</time></trkpt><trkpt lat="44.81663992946709" lon="7.370985155574195"><ele>313.66666666666663</ele><time>2026-04-07T15:13:33.999Z</time></trkpt><trkpt lat="44.81660952816574" lon="7.371076083820052"><ele>313.3333333333333</ele><time>2026-04-07T15:13:34.999Z</time></trkpt><trkpt lat="44.81659687699304" lon="7.371171172979155"><ele>313.0</ele><time>2026-04-07T15:13:35.999Z</time></trkpt><trkpt lat="44.816650860789835" lon="7.371342421406401"><ele>313.0</ele><time>2026-04-07T15:13:37.999Z</time></trkpt><trkpt lat="44.81671795922601" lon="7.371374924235844"><ele>313.0</ele><time>2026-04-07T15:13:38.999Z</time></trkpt><trkpt lat="44.81680269867662" lon="7.371350591910858"><ele>313.0</ele><time>2026-04-07T15:13:39.999Z</time></trkpt><trkpt lat="44.81689591534862" lon="7.37130070494875"><ele>313.0</ele><time>2026-04-07T15:13:40.999Z</time></trkpt><trkpt lat="44.81701175222604" lon="7.371239190969096"><ele>313.0</ele><time>2026-04-07T15:13:41.999Z</time></trkpt><trkpt lat="44.817144524261145" lon="7.371179059102966"><ele>312.66666666666663</ele><time>2026-04-07T15:13:42.999Z</time></trkpt><trkpt lat="44.81728206481793" lon="7.3711322775158274"><ele>312.3333333333333</ele><time>2026-04-07T15:13:43.999Z</time></trkpt><trkpt lat="44.81744785250389" lon="7.371093437621398"><ele>312.0</ele><time>2026-04-07T15:13:44.999Z</time></trkpt><trkpt lat="44.817630579563925" lon="7.371063292006795"><ele>312.0</ele><time>2026-04-07T15:13:45.999Z</time></trkpt><trkpt lat="44.817789682564936" lon="7.371038958145028"><ele>312.0</ele><time>2026-04-07T15:13:46.999Z</time></trkpt><trkpt lat="44.81795619920559" lon="7.371012802634177"><ele>312.0</ele><time>2026-04-07T15:13:47.999Z</time></trkpt><trkpt lat="44.818143517443744" lon="7.370981205058655"><ele>312.0</ele><time>2026-04-07T15:13:48.999Z</time></trkpt><trkpt lat="44.818341149907795" lon="7.370946836084277"><ele>312.0</ele><time>2026-04-07T15:13:49.999Z</time></trkpt><trkpt lat="44.81852824557369" lon="7.370918767904775"><ele>312.0</ele><time>2026-04-07T15:13:50.999Z</time></trkpt><trkpt lat="44.8187131262008" lon="7.370893069671092"><ele>312.3333333333333</ele><time>2026-04-07T15:13:51.999Z</time></trkpt><trkpt lat="44.818913017191484" lon="7.370859931330096"><ele>312.66666666666663</ele><time>2026-04-07T15:13:52.999Z</time></trkpt><trkpt lat="44.81910924127451" lon="7.370828762387099"><ele>313.0</ele><time>2026-04-07T15:13:53.999Z</time></trkpt><trkpt lat="44.8193040786795" lon="7.370801895271132"><ele>312.0</ele><time>2026-04-07T15:13:54.999Z</time></trkpt><trkpt lat="44.819501559536" lon="7.37077359606053"><ele>311.0</ele><time>2026-04-07T15:13:55.999Z</time></trkpt><trkpt lat="44.819716078529076" lon="7.37073897939343"><ele>310.0</ele><time>2026-04-07T15:13:56.999Z</time></trkpt><trkpt lat="44.8199367523714" lon="7.370702316621435"><ele>310.0</ele><time>2026-04-07T15:13:57.999Z</time></trkpt><trkpt lat="44.820145267105055" lon="7.370671719332172"><ele>310.0</ele><time>2026-04-07T15:13:58.999Z</time></trkpt><trkpt lat="44.82036353554769" lon="7.370636578669798"><ele>310.0</ele><time>2026-04-07T15:14:00Z</time></trkpt><trkpt lat="44.820568012398645" lon="7.37060607414585"><ele>310.3333333333333</ele><time>2026-04-07T15:14:01Z</time></trkpt><trkpt lat="44.8207628383132" lon="7.370577591933181"><ele>310.6666666666667</ele><time>2026-04-07T15:14:02Z</time></trkpt><trkpt lat="44.8209594666081" lon="7.370547128979079"><ele>311.0</ele><time>2026-04-07T15:14:03Z</time></trkpt><trkpt lat="44.82115885205703" lon="7.3705157590666674"><ele>311.33333333333337</ele><time>2026-04-07T15:14:04Z</time></trkpt><trkpt lat="44.82136074672549" lon="7.3704821921408055"><ele>311.6666666666667</ele><time>2026-04-07T15:14:05Z</time></trkpt><trkpt lat="44.82156011253441" lon="7.370450069826352"><ele>312.0</ele><time>2026-04-07T15:14:06Z</time></trkpt><trkpt lat="44.82175975253776" lon="7.370420727744269"><ele>312.3333333333333</ele><time>2026-04-07T15:14:07Z</time></trkpt><trkpt lat="44.82195762507606" lon="7.370388717000807"><ele>312.66666666666663</ele><time>2026-04-07T15:14:08Z</time></trkpt><trkpt lat="44.822153350897764" lon="7.3703551932609015"><ele>313.0</ele><time>2026-04-07T15:14:09Z</time></trkpt><trkpt lat="44.822349346438756" lon="7.370325968129104"><ele>313.0</ele><time>2026-04-07T15:14:10Z</time></trkpt><trkpt lat="44.822545330381665" lon="7.370298887337311"><ele>313.0</ele><time>2026-04-07T15:14:11Z</time></trkpt><trkpt lat="44.82273764124528" lon="7.370273198246641"><ele>313.0</ele><time>2026-04-07T15:14:12Z</time></trkpt><trkpt lat="44.82293253605599" lon="7.370242145808046"><ele>313.0</ele><time>2026-04-07T15:14:13Z</time></trkpt><trkpt lat="44.82312516238243" lon="7.370198111063748"><ele>313.0</ele><time>2026-04-07T15:14:14Z</time></trkpt><trkpt lat="44.82331816516463" lon="7.3701486321943115"><ele>313.0</ele><time>2026-04-07T15:14:15Z</time></trkpt><trkpt lat="44.82350492048791" lon="7.3700874728085575"><ele>313.0</ele><time>2026-04-07T15:14:16Z</time></trkpt><trkpt lat="44.823689986524165" lon="7.370019055510067"><ele>313.0</ele><time>2026-04-07T15:14:17Z</time></trkpt><trkpt lat="44.823875709425636" lon="7.369944995238525"><ele>313.0</ele><time>2026-04-07T15:14:18Z</time></trkpt><trkpt lat="44.824061936013294" lon="7.369878467092022"><ele>313.0</ele><time>2026-04-07T15:14:19Z</time></trkpt><trkpt lat="44.824251411042646" lon="7.369811721798809"><ele>313.0</ele><time>2026-04-07T15:14:20Z</time></trkpt><trkpt lat="44.82444201447255" lon="7.369737162253277"><ele>313.0</ele><time>2026-04-07T15:14:21Z</time></trkpt><trkpt lat="44.82463541910463" lon="7.36966218088722"><ele>313.66666666666663</ele><time>2026-04-07T15:14:22Z</time></trkpt><trkpt lat="44.82480992960913" lon="7.369594142799921"><ele>314.3333333333333</ele><time>2026-04-07T15:14:23Z</time></trkpt><trkpt lat="44.824985523539766" lon="7.369525554059776"><ele>315.0</ele><time>2026-04-07T15:14:24Z</time></trkpt><trkpt lat="44.825163866528065" lon="7.369456974055315"><ele>315.0</ele><time>2026-04-07T15:14:25Z</time></trkpt><trkpt lat="44.825355558796986" lon="7.369382902733911"><ele>315.0</ele><time>2026-04-07T15:14:26Z</time></trkpt><trkpt lat="44.82555717971227" lon="7.369301847826767"><ele>315.0</ele><time>2026-04-07T15:14:27Z</time></trkpt><trkpt lat="44.82576821470656" lon="7.369217257268469"><ele>313.5</ele><time>2026-04-07T15:14:28Z</time></trkpt><trkpt lat="44.82598973475227" lon="7.369133191911063"><ele>312.0</ele><time>2026-04-07T15:14:29Z</time></trkpt><trkpt lat="44.82621641612565" lon="7.369043365523082"><ele>312.0</ele><time>2026-04-07T15:14:30Z</time></trkpt><trkpt lat="44.826439185015026" lon="7.368953813835793"><ele>312.0</ele><time>2026-04-07T15:14:31Z</time></trkpt><trkpt lat="44.82664208131078" lon="7.368872549594719"><ele>312.0</ele><time>2026-04-07T15:14:32Z</time></trkpt><trkpt lat="44.82684568338495" lon="7.368792582353517"><ele>312.3333333333333</ele><time>2026-04-07T15:14:33Z</time></trkpt><trkpt lat="44.827047046894585" lon="7.368717964048757"><ele>312.66666666666663</ele><time>2026-04-07T15:14:34Z</time></trkpt><trkpt lat="44.82724759623314" lon="7.368644005738475"><ele>313.0</ele><time>2026-04-07T15:14:35Z</time></trkpt><trkpt lat="44.82744881213655" lon="7.3685615931273425"><ele>313.0</ele><time>2026-04-07T15:14:36Z</time></trkpt><trkpt lat="44.82765448031905" lon="7.368476488084201"><ele>313.0</ele><time>2026-04-07T15:14:37Z</time></trkpt><trkpt lat="44.82786030047022" lon="7.368390417201084"><ele>313.0</ele><time>2026-04-07T15:14:38Z</time></trkpt><trkpt lat="44.82806183400119" lon="7.368304975654607"><ele>313.0</ele><time>2026-04-07T15:14:39Z</time></trkpt><trkpt lat="44.8282612673483" lon="7.368220489760644"><ele>313.0</ele><time>2026-04-07T15:14:40Z</time></trkpt><trkpt lat="44.82845617185627" lon="7.368140159163218"><ele>313.0</ele><time>2026-04-07T15:14:41Z</time></trkpt><trkpt lat="44.82864209493771" lon="7.3680721844439745"><ele>312.66666666666663</ele><time>2026-04-07T15:14:42Z</time></trkpt><trkpt lat="44.8288211155996" lon="7.368006286122619"><ele>312.3333333333333</ele><time>2026-04-07T15:14:43Z</time></trkpt><trkpt lat="44.82897783723509" lon="7.3679401977684105"><ele>312.0</ele><time>2026-04-07T15:14:44Z</time></trkpt><trkpt lat="44.82911129365014" lon="7.367879490979238"><ele>312.0</ele><time>2026-04-07T15:14:45Z</time></trkpt><trkpt lat="44.82923403866281" lon="7.367830747181119"><ele>312.0</ele><time>2026-04-07T15:14:46Z</time></trkpt><trkpt lat="44.82934568546423" lon="7.367788652554625"><ele>312.0</ele><time>2026-04-07T15:14:47Z</time></trkpt><trkpt lat="44.82944318422396" lon="7.367751808601083"><ele>312.0</ele><time>2026-04-07T15:14:48Z</time></trkpt><trkpt lat="44.829529819176756" lon="7.367746849567896"><ele>312.0</ele><time>2026-04-07T15:14:49Z</time></trkpt><trkpt lat="44.829620647708715" lon="7.367782666007633"><ele>312.2</ele><time>2026-04-07T15:14:50Z</time></trkpt><trkpt lat="44.829703937920975" lon="7.367853132096151"><ele>312.4</ele><time>2026-04-07T15:14:51Z</time></trkpt><trkpt lat="44.829784846026456" lon="7.367940785054102"><ele>312.6</ele><time>2026-04-07T15:14:52Z</time></trkpt><trkpt lat="44.82987385658317" lon="7.368026744745456"><ele>312.8</ele><time>2026-04-07T15:14:53Z</time></trkpt><trkpt lat="44.82998758749372" lon="7.368104402089654"><ele>313.0</ele><time>2026-04-07T15:14:54Z</time></trkpt><trkpt lat="44.830122715441256" lon="7.368191579930185"><ele>312.66666666666663</ele><time>2026-04-07T15:14:55Z</time></trkpt><trkpt lat="44.830286539506886" lon="7.368212502885069"><ele>312.3333333333333</ele><time>2026-04-07T15:14:56Z</time></trkpt><trkpt lat="44.830464374778835" lon="7.368234538024848"><ele>312.0</ele><time>2026-04-07T15:14:57Z</time></trkpt><trkpt lat="44.83065448960491" lon="7.368262511979497"><ele>312.0</ele><time>2026-04-07T15:14:58Z</time></trkpt><trkpt lat="44.830847658771525" lon="7.36831027207903"><ele>312.0</ele><time>2026-04-07T15:14:59Z</time></trkpt><trkpt lat="44.83104647683428" lon="7.368395828714877"><ele>312.0</ele><time>2026-04-07T15:15:00Z</time></trkpt><trkpt lat="44.83124576188802" lon="7.368510504708112"><ele>312.0</ele><time>2026-04-07T15:15:01Z</time></trkpt><trkpt lat="44.831446635796766" lon="7.368645459600731"><ele>312.0</ele><time>2026-04-07T15:15:02Z</time></trkpt><trkpt lat="44.83165407379876" lon="7.368788883669399"><ele>312.0</ele><time>2026-04-07T15:15:03Z</time></trkpt><trkpt lat="44.83186341366997" lon="7.368919614533985"><ele>312.0</ele><time>2026-04-07T15:15:04Z</time></trkpt><trkpt lat="44.83205703486884" lon="7.369028415541013"><ele>312.0</ele><time>2026-04-07T15:15:05Z</time></trkpt><trkpt lat="44.832249748393075" lon="7.36913366739377"><ele>312.0</ele><time>2026-04-07T15:15:06Z</time></trkpt><trkpt lat="44.832446946343325" lon="7.369237992376637"><ele>312.0</ele><time>2026-04-07T15:15:07Z</time></trkpt><trkpt lat="44.83263319344401" lon="7.369330252919981"><ele>312.0</ele><time>2026-04-07T15:15:08Z</time></trkpt><trkpt lat="44.83282302137446" lon="7.369414614050631"><ele>311.3333333333333</ele><time>2026-04-07T15:15:09Z</time></trkpt><trkpt lat="44.83299041721806" lon="7.369493743972644"><ele>310.66666666666663</ele><time>2026-04-07T15:15:10Z</time></trkpt><trkpt lat="44.833131068484946" lon="7.369577397492841"><ele>310.0</ele><time>2026-04-07T15:15:10.999Z</time></trkpt><trkpt lat="44.833256230859824" lon="7.3696766368375055"><ele>310.0</ele><time>2026-04-07T15:15:11.999Z</time></trkpt><trkpt lat="44.833367900702626" lon="7.369815150217433"><ele>310.0</ele><time>2026-04-07T15:15:12.999Z</time></trkpt><trkpt lat="44.83345296575327" lon="7.369992583996319"><ele>310.0</ele><time>2026-04-07T15:15:13.999Z</time></trkpt><trkpt lat="44.83351703264351" lon="7.370208833099873"><ele>311.66666666666663</ele><time>2026-04-07T15:15:14.999Z</time></trkpt><trkpt lat="44.833567152181985" lon="7.370436434318819"><ele>313.3333333333333</ele><time>2026-04-07T15:15:15.999Z</time></trkpt><trkpt lat="44.833618564100284" lon="7.370663324021535"><ele>315.0</ele><time>2026-04-07T15:15:16.999Z</time></trkpt><trkpt lat="44.833670291653206" lon="7.370892227227327"><ele>315.0</ele><time>2026-04-07T15:15:17.999Z</time></trkpt><trkpt lat="44.833721938470674" lon="7.371143141649582"><ele>315.0</ele><time>2026-04-07T15:15:18.999Z</time></trkpt><trkpt lat="44.83377249191238" lon="7.371408558929646"><ele>315.0</ele><time>2026-04-07T15:15:19.999Z</time></trkpt><trkpt lat="44.83381626430328" lon="7.3716865144755905"><ele>313.3333333333333</ele><time>2026-04-07T15:15:20.999Z</time></trkpt><trkpt lat="44.83385330247158" lon="7.371948007416036"><ele>311.66666666666663</ele><time>2026-04-07T15:15:21.999Z</time></trkpt><trkpt lat="44.833889355149225" lon="7.372203018131832"><ele>310.0</ele><time>2026-04-07T15:15:22.999Z</time></trkpt><trkpt lat="44.83393241304554" lon="7.372457153148745"><ele>310.0</ele><time>2026-04-07T15:15:23.999Z</time></trkpt><trkpt lat="44.83397942930223" lon="7.372704870325729"><ele>310.0</ele><time>2026-04-07T15:15:24.999Z</time></trkpt><trkpt lat="44.834029433471756" lon="7.37295120150141"><ele>310.0</ele><time>2026-04-07T15:15:25.999Z</time></trkpt><trkpt lat="44.83408184778515" lon="7.373192724580617"><ele>310.0</ele><time>2026-04-07T15:15:26.999Z</time></trkpt><trkpt lat="44.834132970071984" lon="7.37341460627636"><ele>310.0</ele><time>2026-04-07T15:15:27.999Z</time></trkpt><trkpt lat="44.834188058764866" lon="7.373611775208055"><ele>310.0</ele><time>2026-04-07T15:15:28.999Z</time></trkpt><trkpt lat="44.83424677951003" lon="7.373787606891979"><ele>309.5</ele><time>2026-04-07T15:15:29.999Z</time></trkpt><trkpt lat="44.834309159474515" lon="7.373931813284507"><ele>309.0</ele><time>2026-04-07T15:15:30.999Z</time></trkpt><trkpt lat="44.83438930151595" lon="7.374051652430062"><ele>308.5</ele><time>2026-04-07T15:15:31.999Z</time></trkpt><trkpt lat="44.83450185087862" lon="7.374155473332536"><ele>308.0</ele><time>2026-04-07T15:15:32.999Z</time></trkpt><trkpt lat="44.83461962246121" lon="7.374261975869834"><ele>308.0</ele><time>2026-04-07T15:15:33.999Z</time></trkpt><trkpt lat="44.83472361539144" lon="7.374354316657618"><ele>308.0</ele><time>2026-04-07T15:15:34.999Z</time></trkpt><trkpt lat="44.83482914265671" lon="7.374432205009675"><ele>308.0</ele><time>2026-04-07T15:15:35.999Z</time></trkpt><trkpt lat="44.834931677603166" lon="7.374506926513329"><ele>308.0</ele><time>2026-04-07T15:15:36.999Z</time></trkpt><trkpt lat="44.83503090865815" lon="7.37457021147681"><ele>308.75</ele><time>2026-04-07T15:15:37.999Z</time></trkpt><trkpt lat="44.83514914754966" lon="7.374624196215784"><ele>309.5</ele><time>2026-04-07T15:15:38.999Z</time></trkpt><trkpt lat="44.83528456197462" lon="7.3746492061938"><ele>310.25</ele><time>2026-04-07T15:15:39.999Z</time></trkpt><trkpt lat="44.835419396763456" lon="7.374654793231569"><ele>311.0</ele><time>2026-04-07T15:15:40.999Z</time></trkpt><trkpt lat="44.83554766588896" lon="7.374651204762015"><ele>311.0</ele><time>2026-04-07T15:15:41.999Z</time></trkpt><trkpt lat="44.835674119317474" lon="7.374655869355598"><ele>311.0</ele><time>2026-04-07T15:15:42.999Z</time></trkpt><trkpt lat="44.83576997916265" lon="7.37472117632093"><ele>311.0</ele><time>2026-04-07T15:15:43.999Z</time></trkpt><trkpt lat="44.83586299201142" lon="7.3747879364114555"><ele>311.0</ele><time>2026-04-07T15:15:44.999Z</time></trkpt><trkpt lat="44.835962432264644" lon="7.374819964956339"><ele>311.0</ele><time>2026-04-07T15:15:45.999Z</time></trkpt><trkpt lat="44.836086896542206" lon="7.374796343048377"><ele>312.25</ele><time>2026-04-07T15:15:46.999Z</time></trkpt><trkpt lat="44.836226828515116" lon="7.374761913004569"><ele>313.5</ele><time>2026-04-07T15:15:47.999Z</time></trkpt><trkpt lat="44.836353861325726" lon="7.374719254812102"><ele>314.75</ele><time>2026-04-07T15:15:48.999Z</time></trkpt><trkpt lat="44.83646557115053" lon="7.3746798897393"><ele>316.0</ele><time>2026-04-07T15:15:49.999Z</time></trkpt><trkpt lat="44.83657323449987" lon="7.374641599168829"><ele>316.0</ele><time>2026-04-07T15:15:50.999Z</time></trkpt><trkpt lat="44.836677074976684" lon="7.374581287033729"><ele>316.0</ele><time>2026-04-07T15:15:51.999Z</time></trkpt><trkpt lat="44.83676651961493" lon="7.374478022897367"><ele>316.0</ele><time>2026-04-07T15:15:52.999Z</time></trkpt><trkpt lat="44.83686495279581" lon="7.374397916552326"><ele>316.0</ele><time>2026-04-07T15:15:53.999Z</time></trkpt><trkpt lat="44.836961867241406" lon="7.374316582636608"><ele>315.8</ele><time>2026-04-07T15:15:54.999Z</time></trkpt><trkpt lat="44.83703470002014" lon="7.3742613057118485"><ele>315.6</ele><time>2026-04-07T15:15:55.999Z</time></trkpt><trkpt lat="44.83710327616361" lon="7.3741942372561295"><ele>315.4</ele><time>2026-04-07T15:15:56.999Z</time></trkpt><trkpt lat="44.83717299519655" lon="7.374107081487954"><ele>315.2</ele><time>2026-04-07T15:15:57.999Z</time></trkpt><trkpt lat="44.83725749187894" lon="7.37401734861699"><ele>315.0</ele><time>2026-04-07T15:15:58.999Z</time></trkpt><trkpt lat="44.837354308755316" lon="7.373939115123064"><ele>315.0</ele><time>2026-04-07T15:15:59.999Z</time></trkpt><trkpt lat="44.83746031377784" lon="7.373879696947944"><ele>315.0</ele><time>2026-04-07T15:16:00.999Z</time></trkpt><trkpt lat="44.83755943988835" lon="7.373806777318259"><ele>315.0</ele><time>2026-04-07T15:16:01.999Z</time></trkpt><trkpt lat="44.8376712616862" lon="7.373720403033914"><ele>315.0</ele><time>2026-04-07T15:16:02.999Z</time></trkpt><trkpt lat="44.837778312995155" lon="7.373652153036953"><ele>315.4</ele><time>2026-04-07T15:16:03.999Z</time></trkpt><trkpt lat="44.837885524912615" lon="7.373620888662751"><ele>315.8</ele><time>2026-04-07T15:16:04.999Z</time></trkpt><trkpt lat="44.83798685417292" lon="7.373590767855587"><ele>316.2</ele><time>2026-04-07T15:16:06Z</time></trkpt><trkpt lat="44.838086687922356" lon="7.37356713046305"><ele>316.6</ele><time>2026-04-07T15:16:07Z</time></trkpt><trkpt lat="44.83819247810119" lon="7.373518751264393"><ele>317.0</ele><time>2026-04-07T15:16:08Z</time></trkpt><trkpt lat="44.838291135503994" lon="7.373451963312514"><ele>317.0</ele><time>2026-04-07T15:16:09Z</time></trkpt><trkpt lat="44.83838798868749" lon="7.373396185965921"><ele>317.0</ele><time>2026-04-07T15:16:10Z</time></trkpt><trkpt lat="44.8384846194229" lon="7.373338552149851"><ele>317.0</ele><time>2026-04-07T15:16:11Z</time></trkpt><trkpt lat="44.83858360468013" lon="7.373281139448132"><ele>317.0</ele><time>2026-04-07T15:16:12Z</time></trkpt><trkpt lat="44.8386692729726" lon="7.3732278766105335"><ele>317.0</ele><time>2026-04-07T15:16:13Z</time></trkpt><trkpt lat="44.838743129770975" lon="7.373177770390914"><ele>316.5</ele><time>2026-04-07T15:16:14Z</time></trkpt><trkpt lat="44.83880658105207" lon="7.3731360568932836"><ele>316.0</ele><time>2026-04-07T15:16:15Z</time></trkpt><trkpt lat="44.83891504489676" lon="7.373075550764805"><ele>315.5</ele><time>2026-04-07T15:16:17Z</time></trkpt><trkpt lat="44.83899791375652" lon="7.373277967501032"><ele>315.0</ele><time>2026-04-07T15:16:20Z</time></trkpt><trkpt lat="44.839010899866764" lon="7.373430490627359"><ele>315.0</ele><time>2026-04-07T15:16:21Z</time></trkpt><trkpt lat="44.839014296148264" lon="7.373614151385145"><ele>315.0</ele><time>2026-04-07T15:16:22Z</time></trkpt><trkpt lat="44.83902656164133" lon="7.373825864291814"><ele>315.0</ele><time>2026-04-07T15:16:23Z</time></trkpt><trkpt lat="44.83903750054987" lon="7.374043939605472"><ele>315.0</ele><time>2026-04-07T15:16:24Z</time></trkpt><trkpt lat="44.83904930512564" lon="7.374248899611156"><ele>314.6666666666667</ele><time>2026-04-07T15:16:25Z</time></trkpt><trkpt lat="44.839065649244596" lon="7.374473042798031"><ele>314.33333333333337</ele><time>2026-04-07T15:16:26Z</time></trkpt><trkpt lat="44.83907803787233" lon="7.374706460125076"><ele>314.0</ele><time>2026-04-07T15:16:27Z</time></trkpt><trkpt lat="44.83908897023603" lon="7.374945719703155"><ele>313.6666666666667</ele><time>2026-04-07T15:16:28Z</time></trkpt><trkpt lat="44.83910156009562" lon="7.37518807643006"><ele>313.3333333333333</ele><time>2026-04-07T15:16:29Z</time></trkpt><trkpt lat="44.839115636936654" lon="7.375432069748415"><ele>313.0</ele><time>2026-04-07T15:16:30Z</time></trkpt><trkpt lat="44.83912731977141" lon="7.375656069619957"><ele>312.75</ele><time>2026-04-07T15:16:31Z</time></trkpt><trkpt lat="44.83913682192242" lon="7.37584972323919"><ele>312.5</ele><time>2026-04-07T15:16:32Z</time></trkpt><trkpt lat="44.839145323603944" lon="7.376037466034089"><ele>312.25</ele><time>2026-04-07T15:16:33Z</time></trkpt><trkpt lat="44.83915595371396" lon="7.376214171813735"><ele>312.0</ele><time>2026-04-07T15:16:34Z</time></trkpt><trkpt lat="44.83923641041467" lon="7.3763703213852"><ele>312.0</ele><time>2026-04-07T15:16:35Z</time></trkpt><trkpt lat="44.83933408521051" lon="7.376532702579799"><ele>312.0</ele><time>2026-04-07T15:16:36Z</time></trkpt><trkpt lat="44.83944578918175" lon="7.376707874048427"><ele>312.0</ele><time>2026-04-07T15:16:37Z</time></trkpt><trkpt lat="44.8395422753105" lon="7.376923301474589"><ele>312.0</ele><time>2026-04-07T15:16:38Z</time></trkpt><trkpt lat="44.83962251566845" lon="7.377171955559367"><ele>312.0</ele><time>2026-04-07T15:16:39Z</time></trkpt><trkpt lat="44.83969806636951" lon="7.377435851699622"><ele>312.0</ele><time>2026-04-07T15:16:40Z</time></trkpt><trkpt lat="44.83975723578274" lon="7.3776940608657195"><ele>312.0</ele><time>2026-04-07T15:16:41Z</time></trkpt><trkpt lat="44.83980374049914" lon="7.377956780250246"><ele>312.0</ele><time>2026-04-07T15:16:42Z</time></trkpt><trkpt lat="44.839841607838885" lon="7.378239846263081"><ele>312.0</ele><time>2026-04-07T15:16:43Z</time></trkpt><trkpt lat="44.83987806378542" lon="7.3785187319206"><ele>311.6666666666667</ele><time>2026-04-07T15:16:44Z</time></trkpt><trkpt lat="44.83990775265316" lon="7.3787604568261544"><ele>311.33333333333337</ele><time>2026-04-07T15:16:45Z</time></trkpt><trkpt lat="44.83993559934919" lon="7.378970911273516"><ele>311.0</ele><time>2026-04-07T15:16:46Z</time></trkpt><trkpt lat="44.839968130718155" lon="7.379155353471015"><ele>311.0</ele><time>2026-04-07T15:16:47Z</time></trkpt><trkpt lat="44.8399966331316" lon="7.379325032618211"><ele>311.0</ele><time>2026-04-07T15:16:48Z</time></trkpt><trkpt lat="44.84007941908779" lon="7.379470804776123"><ele>311.0</ele><time>2026-04-07T15:16:49Z</time></trkpt><trkpt lat="44.84021169676923" lon="7.379583021007792"><ele>311.0</ele><time>2026-04-07T15:16:50Z</time></trkpt><trkpt lat="44.840357055633675" lon="7.379696743612095"><ele>310.6666666666667</ele><time>2026-04-07T15:16:51Z</time></trkpt><trkpt lat="44.840480840673884" lon="7.379866259744712"><ele>310.3333333333333</ele><time>2026-04-07T15:16:52Z</time></trkpt><trkpt lat="44.84056553815715" lon="7.38010174213577"><ele>310.0</ele><time>2026-04-07T15:16:53Z</time></trkpt><trkpt lat="44.84066768131394" lon="7.380348231765405"><ele>309.66666666666663</ele><time>2026-04-07T15:16:54Z</time></trkpt><trkpt lat="44.840787910173475" lon="7.38059367026033"><ele>309.3333333333333</ele><time>2026-04-07T15:16:55Z</time></trkpt><trkpt lat="44.84094557854154" lon="7.380777172792321"><ele>309.0</ele><time>2026-04-07T15:16:56Z</time></trkpt><trkpt lat="44.84112105305161" lon="7.380948084296445"><ele>309.0</ele><time>2026-04-07T15:16:57Z</time></trkpt><trkpt lat="44.84129398872452" lon="7.3811573012082725"><ele>309.0</ele><time>2026-04-07T15:16:58Z</time></trkpt><trkpt lat="44.84146167122704" lon="7.3813696433212455"><ele>309.0</ele><time>2026-04-07T15:16:59Z</time></trkpt><trkpt lat="44.84164703411972" lon="7.381577824485679"><ele>309.0</ele><time>2026-04-07T15:17:00Z</time></trkpt><trkpt lat="44.84180077141709" lon="7.381790571370042"><ele>309.3333333333333</ele><time>2026-04-07T15:17:01Z</time></trkpt><trkpt lat="44.841961854029776" lon="7.381994520725353"><ele>309.66666666666663</ele><time>2026-04-07T15:17:02Z</time></trkpt><trkpt lat="44.84212616476821" lon="7.382202676554842"><ele>310.0</ele><time>2026-04-07T15:17:03Z</time></trkpt><trkpt lat="44.84229570777815" lon="7.382414120421424"><ele>310.0</ele><time>2026-04-07T15:17:04Z</time></trkpt><trkpt lat="44.84247118252652" lon="7.382627668976301"><ele>310.0</ele><time>2026-04-07T15:17:05Z</time></trkpt><trkpt lat="44.84264479839206" lon="7.382834167079481"><ele>308.66666666666663</ele><time>2026-04-07T15:17:06Z</time></trkpt><trkpt lat="44.842812013484334" lon="7.3830308081978036"><ele>307.3333333333333</ele><time>2026-04-07T15:17:07Z</time></trkpt><trkpt lat="44.8429694245681" lon="7.383229719588103"><ele>306.0</ele><time>2026-04-07T15:17:08Z</time></trkpt><trkpt lat="44.8431229370399" lon="7.383432868856786"><ele>306.0</ele><time>2026-04-07T15:17:09Z</time></trkpt><trkpt lat="44.8432854608894" lon="7.383651598737491"><ele>306.0</ele><time>2026-04-07T15:17:10Z</time></trkpt><trkpt lat="44.843453361165" lon="7.3838767301356985"><ele>305.5</ele><time>2026-04-07T15:17:11Z</time></trkpt><trkpt lat="44.843633369561424" lon="7.3840998188364555"><ele>305.0</ele><time>2026-04-07T15:17:12Z</time></trkpt><trkpt lat="44.843817151639314" lon="7.384326531828778"><ele>305.0</ele><time>2026-04-07T15:17:13Z</time></trkpt><trkpt lat="44.843990885992284" lon="7.384547501586427"><ele>305.0</ele><time>2026-04-07T15:17:14Z</time></trkpt><trkpt lat="44.84415239194113" lon="7.384749299682681"><ele>306.33333333333337</ele><time>2026-04-07T15:17:15Z</time></trkpt><trkpt lat="44.84429729670954" lon="7.384929323152298"><ele>307.6666666666667</ele><time>2026-04-07T15:17:16Z</time></trkpt><trkpt lat="44.84442178883303" lon="7.385087220061708"><ele>309.0</ele><time>2026-04-07T15:17:17Z</time></trkpt><trkpt lat="44.84453931664282" lon="7.38524375461224"><ele>309.0</ele><time>2026-04-07T15:17:18Z</time></trkpt><trkpt lat="44.84466103048248" lon="7.385415111404512"><ele>309.0</ele><time>2026-04-07T15:17:18.999Z</time></trkpt><trkpt lat="44.84477615595044" lon="7.385584941859141"><ele>309.0</ele><time>2026-04-07T15:17:19.999Z</time></trkpt><trkpt lat="44.844882142799264" lon="7.385766450207721"><ele>309.0</ele><time>2026-04-07T15:17:20.999Z</time></trkpt><trkpt lat="44.84495962840025" lon="7.385972757744378"><ele>309.0</ele><time>2026-04-07T15:17:21.999Z</time></trkpt><trkpt lat="44.84499559747612" lon="7.386193767638612"><ele>309.0</ele><time>2026-04-07T15:17:22.999Z</time></trkpt><trkpt lat="44.84509987508801" lon="7.386365751885447"><ele>308.3333333333333</ele><time>2026-04-07T15:17:23.999Z</time></trkpt><trkpt lat="44.84521265933472" lon="7.386549471531764"><ele>307.66666666666663</ele><time>2026-04-07T15:17:24.999Z</time></trkpt><trkpt lat="44.845323561492236" lon="7.386761731980949"><ele>307.0</ele><time>2026-04-07T15:17:25.999Z</time></trkpt><trkpt lat="44.845449838785555" lon="7.38696869495164"><ele>307.0</ele><time>2026-04-07T15:17:26.999Z</time></trkpt><trkpt lat="44.845581955008754" lon="7.3871771740873475"><ele>307.0</ele><time>2026-04-07T15:17:27.999Z</time></trkpt><trkpt lat="44.845721055457425" lon="7.387383478292123"><ele>307.0</ele><time>2026-04-07T15:17:28.999Z</time></trkpt><trkpt lat="44.84587048781728" lon="7.387563512613147"><ele>307.3333333333333</ele><time>2026-04-07T15:17:29.999Z</time></trkpt><trkpt lat="44.84599144226542" lon="7.3877495460039855"><ele>307.6666666666667</ele><time>2026-04-07T15:17:30.999Z</time></trkpt><trkpt lat="44.84609064673555" lon="7.387931531381838"><ele>308.0</ele><time>2026-04-07T15:17:31.999Z</time></trkpt><trkpt lat="44.846158967961806" lon="7.388105434461668"><ele>308.25</ele><time>2026-04-07T15:17:32.999Z</time></trkpt><trkpt lat="44.846230763248734" lon="7.388264800665535"><ele>308.5</ele><time>2026-04-07T15:17:33.999Z</time></trkpt><trkpt lat="44.84633581655741" lon="7.388379841247336"><ele>308.75</ele><time>2026-04-07T15:17:34.999Z</time></trkpt><trkpt lat="44.84647880637882" lon="7.388476085791747"><ele>309.0</ele><time>2026-04-07T15:17:35.999Z</time></trkpt><trkpt lat="44.84665263368091" lon="7.388545880463624"><ele>308.0</ele><time>2026-04-07T15:17:36.999Z</time></trkpt><trkpt lat="44.846835279701764" lon="7.388628019579017"><ele>307.0</ele><time>2026-04-07T15:17:37.999Z</time></trkpt><trkpt lat="44.84702302652675" lon="7.388717579688056"><ele>306.0</ele><time>2026-04-07T15:17:38.999Z</time></trkpt><trkpt lat="44.847219872189164" lon="7.388805575810041"><ele>305.6666666666667</ele><time>2026-04-07T15:17:39.999Z</time></trkpt><trkpt lat="44.84740916776044" lon="7.388886330578265"><ele>305.33333333333337</ele><time>2026-04-07T15:17:40.999Z</time></trkpt><trkpt lat="44.84758071330674" lon="7.388967461431581"><ele>305.0</ele><time>2026-04-07T15:17:41.999Z</time></trkpt><trkpt lat="44.84775179346472" lon="7.389046613924283"><ele>305.0</ele><time>2026-04-07T15:17:42.999Z</time></trkpt><trkpt lat="44.847920620473396" lon="7.389129355216456"><ele>305.0</ele><time>2026-04-07T15:17:43.999Z</time></trkpt><trkpt lat="44.84808369530387" lon="7.389218131221628"><ele>305.0</ele><time>2026-04-07T15:17:44.999Z</time></trkpt><trkpt lat="44.848239903326835" lon="7.389339083081856"><ele>305.0</ele><time>2026-04-07T15:17:45.999Z</time></trkpt><trkpt lat="44.8483843235509" lon="7.389492697964275"><ele>305.0</ele><time>2026-04-07T15:17:46.999Z</time></trkpt><trkpt lat="44.8485210709144" lon="7.389673731962111"><ele>305.0</ele><time>2026-04-07T15:17:47.999Z</time></trkpt><trkpt lat="44.848654867205624" lon="7.389868519649965"><ele>305.33333333333337</ele><time>2026-04-07T15:17:48.999Z</time></trkpt><trkpt lat="44.848781660935494" lon="7.390084112099782"><ele>305.6666666666667</ele><time>2026-04-07T15:17:49.999Z</time></trkpt><trkpt lat="44.84887975595975" lon="7.390309715939485"><ele>306.0</ele><time>2026-04-07T15:17:50.999Z</time></trkpt><trkpt lat="44.848954065831556" lon="7.390529919306571"><ele>305.0</ele><time>2026-04-07T15:17:51.999Z</time></trkpt><trkpt lat="44.84901666823014" lon="7.390747604272439"><ele>304.0</ele><time>2026-04-07T15:17:52.999Z</time></trkpt><trkpt lat="44.84908291052838" lon="7.390965807141521"><ele>303.0</ele><time>2026-04-07T15:17:53.999Z</time></trkpt><trkpt lat="44.84913484361341" lon="7.391160949029055"><ele>303.6666666666667</ele><time>2026-04-07T15:17:54.999Z</time></trkpt><trkpt lat="44.849156084724264" lon="7.391356332128142"><ele>304.33333333333337</ele><time>2026-04-07T15:17:55.999Z</time></trkpt><trkpt lat="44.84914119208645" lon="7.391572918567613"><ele>305.0</ele><time>2026-04-07T15:17:56.999Z</time></trkpt><trkpt lat="44.849101925098864" lon="7.391804626645315"><ele>305.0</ele><time>2026-04-07T15:17:57.999Z</time></trkpt><trkpt lat="44.84906168669168" lon="7.3920557132813585"><ele>305.0</ele><time>2026-04-07T15:17:58.999Z</time></trkpt><trkpt lat="44.849047759325074" lon="7.392307348324758"><ele>305.0</ele><time>2026-04-07T15:17:59.999Z</time></trkpt><trkpt lat="44.84905010094372" lon="7.392535721801431"><ele>305.0</ele><time>2026-04-07T15:18:00.999Z</time></trkpt><trkpt lat="44.84906240182087" lon="7.392745365025122"><ele>305.0</ele><time>2026-04-07T15:18:01.999Z</time></trkpt><trkpt lat="44.849075851467056" lon="7.392943422759212"><ele>305.0</ele><time>2026-04-07T15:18:02.999Z</time></trkpt><trkpt lat="44.849087081889344" lon="7.393129482168252"><ele>305.0</ele><time>2026-04-07T15:18:03.999Z</time></trkpt><trkpt lat="44.8491151913559" lon="7.393312296080586"><ele>304.75</ele><time>2026-04-07T15:18:04.999Z</time></trkpt><trkpt lat="44.849182801055434" lon="7.393491099031872"><ele>304.5</ele><time>2026-04-07T15:18:05.999Z</time></trkpt><trkpt lat="44.849254830210434" lon="7.393674550732977"><ele>304.25</ele><time>2026-04-07T15:18:06.999Z</time></trkpt><trkpt lat="44.849310979507145" lon="7.3938485148284165"><ele>304.0</ele><time>2026-04-07T15:18:07.999Z</time></trkpt><trkpt lat="44.84936411029188" lon="7.394008277929498"><ele>304.0</ele><time>2026-04-07T15:18:08.999Z</time></trkpt><trkpt lat="44.84941372769269" lon="7.394160486125647"><ele>304.0</ele><time>2026-04-07T15:18:09.999Z</time></trkpt><trkpt lat="44.849458960359" lon="7.394312612523897"><ele>304.0</ele><time>2026-04-07T15:18:10.999Z</time></trkpt><trkpt lat="44.84949611758875" lon="7.3944714993666505"><ele>304.0</ele><time>2026-04-07T15:18:12Z</time></trkpt><trkpt lat="44.84952938506214" lon="7.3946214553248435"><ele>303.8</ele><time>2026-04-07T15:18:13Z</time></trkpt><trkpt lat="44.84955713495617" lon="7.3947620603548865"><ele>303.59999999999997</ele><time>2026-04-07T15:18:14Z</time></trkpt><trkpt lat="44.849584333701486" lon="7.394912328851598"><ele>303.4</ele><time>2026-04-07T15:18:15Z</time></trkpt><trkpt lat="44.84960932264772" lon="7.395062685390786"><ele>303.2</ele><time>2026-04-07T15:18:16Z</time></trkpt><trkpt lat="44.84963169312844" lon="7.395216377539186"><ele>303.0</ele><time>2026-04-07T15:18:17Z</time></trkpt><trkpt lat="44.84964804554373" lon="7.3953698660492755"><ele>303.0</ele><time>2026-04-07T15:18:18Z</time></trkpt><trkpt lat="44.84965948478567" lon="7.395514274940404"><ele>303.0</ele><time>2026-04-07T15:18:19Z</time></trkpt><trkpt lat="44.849663395064674" lon="7.3956590289258015"><ele>303.0</ele><time>2026-04-07T15:18:20Z</time></trkpt><trkpt lat="44.84964252439822" lon="7.395801313965041"><ele>303.0</ele><time>2026-04-07T15:18:21Z</time></trkpt><trkpt lat="44.849637059393984" lon="7.395931520273018"><ele>303.0</ele><time>2026-04-07T15:18:22Z</time></trkpt><trkpt lat="44.84964862718825" lon="7.396061757543566"><ele>303.0</ele><time>2026-04-07T15:18:23Z</time></trkpt><trkpt lat="44.84964936060675" lon="7.396179564431331"><ele>303.0</ele><time>2026-04-07T15:18:24Z</time></trkpt><trkpt lat="44.849653431324825" lon="7.396293096850049"><ele>303.0</ele><time>2026-04-07T15:18:25Z</time></trkpt><trkpt lat="44.849660328950655" lon="7.396401453528499"><ele>303.0</ele><time>2026-04-07T15:18:26Z</time></trkpt><trkpt lat="44.84966426048797" lon="7.396506749535313"><ele>303.0</ele><time>2026-04-07T15:18:27Z</time></trkpt><trkpt lat="44.849672177860825" lon="7.396609442113177"><ele>303.0</ele><time>2026-04-07T15:18:28Z</time></trkpt><trkpt lat="44.84968924734882" lon="7.396705134442534"><ele>302.8</ele><time>2026-04-07T15:18:29Z</time></trkpt><trkpt lat="44.84972790859115" lon="7.396798553668883"><ele>302.6</ele><time>2026-04-07T15:18:30Z</time></trkpt><trkpt lat="44.84979969170161" lon="7.396870955823019"><ele>302.4</ele><time>2026-04-07T15:18:31Z</time></trkpt><trkpt lat="44.849901326573544" lon="7.396922893488309"><ele>302.2</ele><time>2026-04-07T15:18:32Z</time></trkpt><trkpt lat="44.85001828728742" lon="7.396968357047451"><ele>302.0</ele><time>2026-04-07T15:18:33Z</time></trkpt><trkpt lat="44.85013362735185" lon="7.397017574929139"><ele>302.6</ele><time>2026-04-07T15:18:34Z</time></trkpt><trkpt lat="44.85024201355885" lon="7.397061163032248"><ele>303.2</ele><time>2026-04-07T15:18:35Z</time></trkpt><trkpt lat="44.85035279090281" lon="7.3970921955180176"><ele>303.8</ele><time>2026-04-07T15:18:36Z</time></trkpt><trkpt lat="44.850447955009905" lon="7.397124026932526"><ele>304.4</ele><time>2026-04-07T15:18:37Z</time></trkpt><trkpt lat="44.85051010948843" lon="7.397144396293618"><ele>305.0</ele><time>2026-04-07T15:18:38Z</time></trkpt><trkpt lat="44.8505889692154" lon="7.397167403536647"><ele>305.0</ele><time>2026-04-07T15:18:40Z</time></trkpt><trkpt lat="44.85068553200887" lon="7.397111005066844"><ele>305.0</ele><time>2026-04-07T15:18:44Z</time></trkpt><trkpt lat="44.85077867421026" lon="7.397018889485442"><ele>305.0</ele><time>2026-04-07T15:18:46Z</time></trkpt><trkpt lat="44.850731440270636" lon="7.3968119908354595"><ele>305.0</ele><time>2026-04-07T15:18:47Z</time></trkpt><trkpt lat="44.85075574396372" lon="7.396662622506756"><ele>305.0</ele><time>2026-04-07T15:18:48Z</time></trkpt><trkpt lat="44.85078981710184" lon="7.396495205996783"><ele>305.0</ele><time>2026-04-07T15:18:49Z</time></trkpt><trkpt lat="44.85081950686481" lon="7.396331679716319"><ele>305.0</ele><time>2026-04-07T15:18:50Z</time></trkpt><trkpt lat="44.85084707117631" lon="7.396163129000115"><ele>305.0</ele><time>2026-04-07T15:18:51Z</time></trkpt><trkpt lat="44.85088033824121" lon="7.3959801025961776"><ele>305.0</ele><time>2026-04-07T15:18:52Z</time></trkpt><trkpt lat="44.8509169466405" lon="7.395792337194449"><ele>305.0</ele><time>2026-04-07T15:18:53Z</time></trkpt><trkpt lat="44.85096083819709" lon="7.395591266959958"><ele>305.0</ele><time>2026-04-07T15:18:54Z</time></trkpt><trkpt lat="44.85099934834801" lon="7.395382414683485"><ele>305.0</ele><time>2026-04-07T15:18:55Z</time></trkpt><trkpt lat="44.851037220521285" lon="7.395175587681351"><ele>305.0</ele><time>2026-04-07T15:18:56Z</time></trkpt><trkpt lat="44.85107704246954" lon="7.394959143985495"><ele>305.0</ele><time>2026-04-07T15:18:57Z</time></trkpt><trkpt lat="44.851118417963725" lon="7.394734721925944"><ele>305.0</ele><time>2026-04-07T15:18:58Z</time></trkpt><trkpt lat="44.851159459534564" lon="7.394510260150914"><ele>305.0</ele><time>2026-04-07T15:18:59Z</time></trkpt><trkpt lat="44.85120174598095" lon="7.394281736297955"><ele>305.0</ele><time>2026-04-07T15:19:00Z</time></trkpt><trkpt lat="44.85124610413917" lon="7.394049479350259"><ele>305.0</ele><time>2026-04-07T15:19:01Z</time></trkpt><trkpt lat="44.85128843485221" lon="7.393817300883773"><ele>305.33333333333337</ele><time>2026-04-07T15:19:02Z</time></trkpt><trkpt lat="44.85133284651561" lon="7.393578789839483"><ele>305.6666666666667</ele><time>2026-04-07T15:19:03Z</time></trkpt><trkpt lat="44.85137833608509" lon="7.393339599109789"><ele>306.0</ele><time>2026-04-07T15:19:04Z</time></trkpt><trkpt lat="44.851421803190085" lon="7.393094865569232"><ele>306.0</ele><time>2026-04-07T15:19:05Z</time></trkpt><trkpt lat="44.851465365808345" lon="7.392855551774433"><ele>306.0</ele><time>2026-04-07T15:19:06Z</time></trkpt><trkpt lat="44.85151069474158" lon="7.392623827373211"><ele>306.0</ele><time>2026-04-07T15:19:07Z</time></trkpt><trkpt lat="44.85154824840275" lon="7.392417757078761"><ele>306.0</ele><time>2026-04-07T15:19:08Z</time></trkpt><trkpt lat="44.85158337549786" lon="7.392235553913545"><ele>306.0</ele><time>2026-04-07T15:19:09Z</time></trkpt><trkpt lat="44.85163344415525" lon="7.392071495482888"><ele>306.0</ele><time>2026-04-07T15:19:10Z</time></trkpt><trkpt lat="44.8517105560209" lon="7.391926547316636"><ele>306.0</ele><time>2026-04-07T15:19:11Z</time></trkpt><trkpt lat="44.851815139216605" lon="7.391810735021397"><ele>306.3333333333333</ele><time>2026-04-07T15:19:12Z</time></trkpt><trkpt lat="44.851950001554805" lon="7.391731109551504"><ele>306.66666666666663</ele><time>2026-04-07T15:19:13Z</time></trkpt><trkpt lat="44.85211026489281" lon="7.3916722041212335"><ele>307.0</ele><time>2026-04-07T15:19:14Z</time></trkpt><trkpt lat="44.85228917652514" lon="7.391619934789345"><ele>307.0</ele><time>2026-04-07T15:19:15Z</time></trkpt><trkpt lat="44.85248378244452" lon="7.391556319264524"><ele>307.0</ele><time>2026-04-07T15:19:16Z</time></trkpt><trkpt lat="44.85268921265032" lon="7.391477879795572"><ele>307.0</ele><time>2026-04-07T15:19:17Z</time></trkpt><trkpt lat="44.85287722092277" lon="7.391414786580395"><ele>307.3333333333333</ele><time>2026-04-07T15:19:18Z</time></trkpt><trkpt lat="44.853047962045515" lon="7.391364700178895"><ele>307.6666666666667</ele><time>2026-04-07T15:19:19Z</time></trkpt><trkpt lat="44.85320306611821" lon="7.391327335401948"><ele>308.0</ele><time>2026-04-07T15:19:20Z</time></trkpt><trkpt lat="44.85332259196228" lon="7.3912859555002814"><ele>308.0</ele><time>2026-04-07T15:19:21Z</time></trkpt><trkpt lat="44.85342733891659" lon="7.391200815902474"><ele>308.0</ele><time>2026-04-07T15:19:22Z</time></trkpt><trkpt lat="44.853529718559194" lon="7.391058579139012"><ele>308.0</ele><time>2026-04-07T15:19:22.999Z</time></trkpt><trkpt lat="44.853620376292405" lon="7.390866580247229"><ele>308.0</ele><time>2026-04-07T15:19:23.999Z</time></trkpt><trkpt lat="44.853740274938104" lon="7.390675410555111"><ele>309.6666666666667</ele><time>2026-04-07T15:19:24.999Z</time></trkpt><trkpt lat="44.8538507212229" lon="7.390449689843553"><ele>311.3333333333333</ele><time>2026-04-07T15:19:25.999Z</time></trkpt><trkpt lat="44.85399210896777" lon="7.39023942743333"><ele>313.0</ele><time>2026-04-07T15:19:26.999Z</time></trkpt><trkpt lat="44.85410964866173" lon="7.390015969025712"><ele>313.0</ele><time>2026-04-07T15:19:27.999Z</time></trkpt><trkpt lat="44.85422227717168" lon="7.3897584250085"><ele>313.0</ele><time>2026-04-07T15:19:28.999Z</time></trkpt><trkpt lat="44.85432907379957" lon="7.3894908082455615"><ele>313.0</ele><time>2026-04-07T15:19:29.999Z</time></trkpt><trkpt lat="44.85441893643798" lon="7.389207107119462"><ele>312.66666666666663</ele><time>2026-04-07T15:19:30.999Z</time></trkpt><trkpt lat="44.85452757052678" lon="7.388950727109683"><ele>312.3333333333333</ele><time>2026-04-07T15:19:31.999Z</time></trkpt><trkpt lat="44.85465346634345" lon="7.388710936176379"><ele>312.0</ele><time>2026-04-07T15:19:32.999Z</time></trkpt><trkpt lat="44.85474780840288" lon="7.388457162684745"><ele>312.0</ele><time>2026-04-07T15:19:33.999Z</time></trkpt><trkpt lat="44.85484920338032" lon="7.3882232131057"><ele>312.0</ele><time>2026-04-07T15:19:34.999Z</time></trkpt><trkpt lat="44.85496756564342" lon="7.387990024424289"><ele>312.0</ele><time>2026-04-07T15:19:35.999Z</time></trkpt><trkpt lat="44.85506221492626" lon="7.387755414783845"><ele>311.6666666666667</ele><time>2026-04-07T15:19:36.999Z</time></trkpt><trkpt lat="44.85514239543043" lon="7.387536370095723"><ele>311.33333333333337</ele><time>2026-04-07T15:19:37.999Z</time></trkpt><trkpt lat="44.85521592481964" lon="7.387335168547663"><ele>311.0</ele><time>2026-04-07T15:19:38.999Z</time></trkpt><trkpt lat="44.85527582865223" lon="7.387143787799248"><ele>311.0</ele><time>2026-04-07T15:19:39.999Z</time></trkpt><trkpt lat="44.85535506939587" lon="7.386978902020891"><ele>311.0</ele><time>2026-04-07T15:19:40.999Z</time></trkpt><trkpt lat="44.855442714438844" lon="7.3868261920514575"><ele>311.0</ele><time>2026-04-07T15:19:41.999Z</time></trkpt><trkpt lat="44.85554030172478" lon="7.386691042217927"><ele>311.0</ele><time>2026-04-07T15:19:42.999Z</time></trkpt><trkpt lat="44.85563682175093" lon="7.3865791124812485"><ele>311.0</ele><time>2026-04-07T15:19:43.999Z</time></trkpt><trkpt lat="44.855722559843834" lon="7.386469056018907"><ele>311.0</ele><time>2026-04-07T15:19:44.999Z</time></trkpt><trkpt lat="44.8558022069369" lon="7.386370925481531"><ele>311.0</ele><time>2026-04-07T15:19:45.999Z</time></trkpt><trkpt lat="44.85587265779418" lon="7.386288099038983"><ele>311.0</ele><time>2026-04-07T15:19:46.999Z</time></trkpt><trkpt lat="44.85593619213427" lon="7.386212317371846"><ele>311.0</ele><time>2026-04-07T15:19:47.999Z</time></trkpt><trkpt lat="44.855994136222265" lon="7.3861433987882"><ele>311.33333333333337</ele><time>2026-04-07T15:19:48.999Z</time></trkpt><trkpt lat="44.856051429422" lon="7.386075924615763"><ele>311.6666666666667</ele><time>2026-04-07T15:19:49.999Z</time></trkpt><trkpt lat="44.85611023146632" lon="7.386009346500297"><ele>312.0</ele><time>2026-04-07T15:19:50.999Z</time></trkpt><trkpt lat="44.85616683417527" lon="7.385944270180481"><ele>312.3333333333333</ele><time>2026-04-07T15:19:51.999Z</time></trkpt><trkpt lat="44.85622595676221" lon="7.3858741617995225"><ele>312.66666666666663</ele><time>2026-04-07T15:19:52.999Z</time></trkpt><trkpt lat="44.8562894612563" lon="7.385794758422718"><ele>313.0</ele><time>2026-04-07T15:19:53.999Z</time></trkpt><trkpt lat="44.85636892106112" lon="7.385729692158917"><ele>313.0</ele><time>2026-04-07T15:19:54.999Z</time></trkpt><trkpt lat="44.85644596501157" lon="7.385640570803196"><ele>313.0</ele><time>2026-04-07T15:19:55.999Z</time></trkpt><trkpt lat="44.85652801093318" lon="7.385540320953703"><ele>313.0</ele><time>2026-04-07T15:19:56.999Z</time></trkpt><trkpt lat="44.856598310610956" lon="7.38541960255885"><ele>313.0</ele><time>2026-04-07T15:19:57.999Z</time></trkpt><trkpt lat="44.85667918237816" lon="7.3853006479721754"><ele>313.0</ele><time>2026-04-07T15:19:58.999Z</time></trkpt><trkpt lat="44.856753894633385" lon="7.385174648759937"><ele>313.6</ele><time>2026-04-07T15:19:59.999Z</time></trkpt><trkpt lat="44.85682899069167" lon="7.3850474478725445"><ele>314.20000000000005</ele><time>2026-04-07T15:20:00.999Z</time></trkpt><trkpt lat="44.856895925432916" lon="7.384934365827094"><ele>314.8</ele><time>2026-04-07T15:20:01.999Z</time></trkpt><trkpt lat="44.85695963680285" lon="7.384830786955526"><ele>315.40000000000003</ele><time>2026-04-07T15:20:02.999Z</time></trkpt><trkpt lat="44.857016355638066" lon="7.384732217173375"><ele>316.0</ele><time>2026-04-07T15:20:03.999Z</time></trkpt><trkpt lat="44.857069186544145" lon="7.384631605756001"><ele>316.16666666666663</ele><time>2026-04-07T15:20:04.999Z</time></trkpt><trkpt lat="44.85712277221321" lon="7.384536533480331"><ele>316.3333333333333</ele><time>2026-04-07T15:20:05.999Z</time></trkpt><trkpt lat="44.85717849231134" lon="7.3844442392670455"><ele>316.5</ele><time>2026-04-07T15:20:06.999Z</time></trkpt><trkpt lat="44.857229846579905" lon="7.384349698296425"><ele>316.6666666666667</ele><time>2026-04-07T15:20:07.999Z</time></trkpt><trkpt lat="44.85727794773231" lon="7.384254357527819"><ele>316.83333333333337</ele><time>2026-04-07T15:20:08.999Z</time></trkpt><trkpt lat="44.85732603306269" lon="7.3841577142986345"><ele>317.0</ele><time>2026-04-07T15:20:09.999Z</time></trkpt><trkpt lat="44.85739088340291" lon="7.3840777816309675"><ele>317.0</ele><time>2026-04-07T15:20:10.999Z</time></trkpt><trkpt lat="44.857430470175714" lon="7.3839690956203485"><ele>317.0</ele><time>2026-04-07T15:20:11.999Z</time></trkpt><trkpt lat="44.85748754225773" lon="7.383876246111705"><ele>317.0</ele><time>2026-04-07T15:20:12.999Z</time></trkpt><trkpt lat="44.85753432561499" lon="7.383788509863018"><ele>317.0</ele><time>2026-04-07T15:20:13.999Z</time></trkpt><trkpt lat="44.85757130767825" lon="7.383712585945262"><ele>317.0</ele><time>2026-04-07T15:20:14.999Z</time></trkpt><trkpt lat="44.85763621996523" lon="7.383580692505265"><ele>317.0</ele><time>2026-04-07T15:20:16.999Z</time></trkpt><trkpt lat="44.85770789553437" lon="7.383488324185674"><ele>317.1666666666667</ele><time>2026-04-07T15:20:19Z</time></trkpt><trkpt lat="44.85779579704576" lon="7.383461553649805"><ele>317.33333333333337</ele><time>2026-04-07T15:20:21Z</time></trkpt><trkpt lat="44.85786584672045" lon="7.383495048183451"><ele>317.5</ele><time>2026-04-07T15:20:23Z</time></trkpt><trkpt lat="44.85796277041209" lon="7.383496654360069"><ele>317.6666666666667</ele><time>2026-04-07T15:20:25Z</time></trkpt><trkpt lat="44.858031065867856" lon="7.3835280071246725"><ele>317.8333333333333</ele><time>2026-04-07T15:20:26Z</time></trkpt><trkpt lat="44.8581342825776" lon="7.383533057742044"><ele>318.0</ele><time>2026-04-07T15:20:27Z</time></trkpt><trkpt lat="44.85823049714414" lon="7.383547755190382"><ele>318.0</ele><time>2026-04-07T15:20:28Z</time></trkpt><trkpt lat="44.85833649153058" lon="7.383573598179415"><ele>318.0</ele><time>2026-04-07T15:20:29Z</time></trkpt><trkpt lat="44.85843985869184" lon="7.383581062689082"><ele>318.0</ele><time>2026-04-07T15:20:30Z</time></trkpt><trkpt lat="44.85855848512575" lon="7.383571940562549"><ele>318.0</ele><time>2026-04-07T15:20:31Z</time></trkpt><trkpt lat="44.85867189866756" lon="7.383579448432949"><ele>318.0</ele><time>2026-04-07T15:20:32Z</time></trkpt><trkpt lat="44.858799909933694" lon="7.38357695333131"><ele>318.0</ele><time>2026-04-07T15:20:33Z</time></trkpt><trkpt lat="44.8589358670581" lon="7.383597028857228"><ele>318.0</ele><time>2026-04-07T15:20:34Z</time></trkpt><trkpt lat="44.859057768854065" lon="7.383612116228274"><ele>318.0</ele><time>2026-04-07T15:20:35Z</time></trkpt><trkpt lat="44.85916971404818" lon="7.383622416036796"><ele>318.0</ele><time>2026-04-07T15:20:36Z</time></trkpt><trkpt lat="44.85927817762278" lon="7.383637567097766"><ele>318.25</ele><time>2026-04-07T15:20:37Z</time></trkpt><trkpt lat="44.859392756911326" lon="7.383652762250678"><ele>318.5</ele><time>2026-04-07T15:20:38Z</time></trkpt><trkpt lat="44.859512673272945" lon="7.383671185319478"><ele>318.75</ele><time>2026-04-07T15:20:39Z</time></trkpt><trkpt lat="44.85963040557466" lon="7.383696567431791"><ele>319.0</ele><time>2026-04-07T15:20:40Z</time></trkpt><trkpt lat="44.85974933964832" lon="7.383712780451524"><ele>319.0</ele><time>2026-04-07T15:20:41Z</time></trkpt><trkpt lat="44.85986729054066" lon="7.383721705322513"><ele>319.0</ele><time>2026-04-07T15:20:42Z</time></trkpt><trkpt lat="44.85997604947334" lon="7.383737148108123"><ele>319.0</ele><time>2026-04-07T15:20:43Z</time></trkpt><trkpt lat="44.86006816594354" lon="7.383756405721487"><ele>319.0</ele><time>2026-04-07T15:20:44Z</time></trkpt><trkpt lat="44.86015455066773" lon="7.383767373571819"><ele>319.0</ele><time>2026-04-07T15:20:45Z</time></trkpt><trkpt lat="44.86023633030657" lon="7.383776974821632"><ele>318.59999999999997</ele><time>2026-04-07T15:20:46Z</time></trkpt><trkpt lat="44.86032179353539" lon="7.383772518261982"><ele>318.2</ele><time>2026-04-07T15:20:47Z</time></trkpt><trkpt lat="44.86040258835687" lon="7.3837168910903035"><ele>317.79999999999995</ele><time>2026-04-07T15:20:48Z</time></trkpt><trkpt lat="44.86047096660988" lon="7.383621923535375"><ele>317.4</ele><time>2026-04-07T15:20:49Z</time></trkpt><trkpt lat="44.86052300637382" lon="7.383494377868532"><ele>317.0</ele><time>2026-04-07T15:20:50Z</time></trkpt><trkpt lat="44.86056488544236" lon="7.383340115104097"><ele>317.0</ele><time>2026-04-07T15:20:51Z</time></trkpt><trkpt lat="44.860628005214934" lon="7.383184055786782"><ele>317.0</ele><time>2026-04-07T15:20:52Z</time></trkpt><trkpt lat="44.86067641636706" lon="7.382989498518794"><ele>317.0</ele><time>2026-04-07T15:20:53Z</time></trkpt><trkpt lat="44.86073303118247" lon="7.3828092393269715"><ele>317.0</ele><time>2026-04-07T15:20:54Z</time></trkpt><trkpt lat="44.8607850446208" lon="7.382621353165743"><ele>317.33333333333337</ele><time>2026-04-07T15:20:55Z</time></trkpt><trkpt lat="44.86084211757922" lon="7.382418478886584"><ele>317.6666666666667</ele><time>2026-04-07T15:20:56Z</time></trkpt><trkpt lat="44.860901046809545" lon="7.3822093863119695"><ele>318.0</ele><time>2026-04-07T15:20:57Z</time></trkpt><trkpt lat="44.860965318029535" lon="7.382004880308532"><ele>318.5</ele><time>2026-04-07T15:20:58Z</time></trkpt><trkpt lat="44.86102801640451" lon="7.381806511415529"><ele>319.0</ele><time>2026-04-07T15:20:59Z</time></trkpt><trkpt lat="44.86108009327444" lon="7.381623927477684"><ele>319.5</ele><time>2026-04-07T15:21:00Z</time></trkpt><trkpt lat="44.86113260842418" lon="7.38145161337764"><ele>320.0</ele><time>2026-04-07T15:21:01Z</time></trkpt><trkpt lat="44.86119094020064" lon="7.381287279346065"><ele>320.0</ele><time>2026-04-07T15:21:02Z</time></trkpt><trkpt lat="44.86127102639406" lon="7.381148326129924"><ele>320.0</ele><time>2026-04-07T15:21:03Z</time></trkpt><trkpt lat="44.861378672348" lon="7.381046269506005"><ele>320.0</ele><time>2026-04-07T15:21:04Z</time></trkpt><trkpt lat="44.86150136979998" lon="7.380964074104569"><ele>320.0</ele><time>2026-04-07T15:21:05Z</time></trkpt><trkpt lat="44.86163013009328" lon="7.380893345846108"><ele>320.0</ele><time>2026-04-07T15:21:06Z</time></trkpt><trkpt lat="44.86177876076688" lon="7.3808570318660145"><ele>320.0</ele><time>2026-04-07T15:21:07Z</time></trkpt><trkpt lat="44.86193702738782" lon="7.380848898970058"><ele>320.0</ele><time>2026-04-07T15:21:08Z</time></trkpt><trkpt lat="44.86209596876886" lon="7.380828948072805"><ele>320.25</ele><time>2026-04-07T15:21:09Z</time></trkpt><trkpt lat="44.86223954995766" lon="7.380808744789403"><ele>320.5</ele><time>2026-04-07T15:21:10Z</time></trkpt><trkpt lat="44.862368613238786" lon="7.380782803985367"><ele>320.75</ele><time>2026-04-07T15:21:11Z</time></trkpt><trkpt lat="44.86248752596827" lon="7.380719848261697"><ele>321.0</ele><time>2026-04-07T15:21:12Z</time></trkpt><trkpt lat="44.86258860423932" lon="7.3806141150120474"><ele>320.5</ele><time>2026-04-07T15:21:13Z</time></trkpt><trkpt lat="44.86266594136788" lon="7.380464004952421"><ele>320.0</ele><time>2026-04-07T15:21:14Z</time></trkpt><trkpt lat="44.86272820486896" lon="7.380276034237657"><ele>319.5</ele><time>2026-04-07T15:21:15Z</time></trkpt><trkpt lat="44.862802249924336" lon="7.380076184077315"><ele>319.0</ele><time>2026-04-07T15:21:16Z</time></trkpt><trkpt lat="44.86284181011043" lon="7.3798530381371785"><ele>320.0</ele><time>2026-04-07T15:21:17Z</time></trkpt><trkpt lat="44.86289783013816" lon="7.3796304398668155"><ele>321.0</ele><time>2026-04-07T15:21:18Z</time></trkpt><trkpt lat="44.862971188091365" lon="7.379408764529445"><ele>322.0</ele><time>2026-04-07T15:21:19Z</time></trkpt><trkpt lat="44.86303271012932" lon="7.379174251012716"><ele>322.0</ele><time>2026-04-07T15:21:20Z</time></trkpt><trkpt lat="44.86309606836065" lon="7.378932738066484"><ele>322.0</ele><time>2026-04-07T15:21:21Z</time></trkpt><trkpt lat="44.863160721286924" lon="7.378686290025144"><ele>322.0</ele><time>2026-04-07T15:21:22Z</time></trkpt><trkpt lat="44.86322444215953" lon="7.378434688150584"><ele>322.0</ele><time>2026-04-07T15:21:23Z</time></trkpt><trkpt lat="44.86328300197069" lon="7.378197150742511"><ele>322.0</ele><time>2026-04-07T15:21:24Z</time></trkpt><trkpt lat="44.86333884843274" lon="7.377970609987673"><ele>322.0</ele><time>2026-04-07T15:21:25Z</time></trkpt><trkpt lat="44.86339108096224" lon="7.377758729132741"><ele>321.75</ele><time>2026-04-07T15:21:26Z</time></trkpt><trkpt lat="44.86344179085554" lon="7.377553024865166"><ele>321.5</ele><time>2026-04-07T15:21:27Z</time></trkpt><trkpt lat="44.86349011731465" lon="7.377356988983443"><ele>321.25</ele><time>2026-04-07T15:21:27.999Z</time></trkpt><trkpt lat="44.86353770104343" lon="7.377163965956127"><ele>321.0</ele><time>2026-04-07T15:21:28.999Z</time></trkpt><trkpt lat="44.86358546366451" lon="7.376973775781523"><ele>321.5</ele><time>2026-04-07T15:21:29.999Z</time></trkpt><trkpt lat="44.86363410378506" lon="7.376780704294602"><ele>322.0</ele><time>2026-04-07T15:21:30.999Z</time></trkpt><trkpt lat="44.863683464448876" lon="7.376584740023399"><ele>322.5</ele><time>2026-04-07T15:21:31.999Z</time></trkpt><trkpt lat="44.863732925490275" lon="7.376388269193067"><ele>323.0</ele><time>2026-04-07T15:21:32.999Z</time></trkpt><trkpt lat="44.86377906006857" lon="7.376205011888156"><ele>323.25</ele><time>2026-04-07T15:21:33.999Z</time></trkpt><trkpt lat="44.86382630157406" lon="7.376017357550767"><ele>323.5</ele><time>2026-04-07T15:21:34.999Z</time></trkpt><trkpt lat="44.86387436342665" lon="7.375826444629842"><ele>323.75</ele><time>2026-04-07T15:21:35.999Z</time></trkpt><trkpt lat="44.86392284538641" lon="7.375634231405256"><ele>324.0</ele><time>2026-04-07T15:21:36.999Z</time></trkpt><trkpt lat="44.86397218527225" lon="7.375439623386202"><ele>324.0</ele><time>2026-04-07T15:21:37.999Z</time></trkpt><trkpt lat="44.863999900957644" lon="7.375254558842248"><ele>324.0</ele><time>2026-04-07T15:21:38.999Z</time></trkpt><trkpt lat="44.86403892560077" lon="7.375091269514469"><ele>324.0</ele><time>2026-04-07T15:21:39.999Z</time></trkpt><trkpt lat="44.86407210097437" lon="7.374940418218247"><ele>324.0</ele><time>2026-04-07T15:21:40.999Z</time></trkpt><trkpt lat="44.86410810977894" lon="7.37478870178896"><ele>324.0</ele><time>2026-04-07T15:21:41.999Z</time></trkpt><trkpt lat="44.86414633138102" lon="7.374655563637435"><ele>324.0</ele><time>2026-04-07T15:21:42.999Z</time></trkpt><trkpt lat="44.86419833089556" lon="7.374524792880844"><ele>324.0</ele><time>2026-04-07T15:21:43.999Z</time></trkpt><trkpt lat="44.86428200708789" lon="7.374397260836277"><ele>324.0</ele><time>2026-04-07T15:21:44.999Z</time></trkpt><trkpt lat="44.86440181014029" lon="7.3743276923191"><ele>324.0</ele><time>2026-04-07T15:21:45.999Z</time></trkpt><trkpt lat="44.864498457841606" lon="7.374224994320615"><ele>324.0</ele><time>2026-04-07T15:21:46.999Z</time></trkpt><trkpt lat="44.86459118450649" lon="7.374131812956424"><ele>324.0</ele><time>2026-04-07T15:21:47.999Z</time></trkpt><trkpt lat="44.864672397297845" lon="7.37400106387989"><ele>324.0</ele><time>2026-04-07T15:21:48.999Z</time></trkpt><trkpt lat="44.864730500019654" lon="7.373830586437123"><ele>323.6666666666667</ele><time>2026-04-07T15:21:49.999Z</time></trkpt><trkpt lat="44.86476455225164" lon="7.373635029944496"><ele>323.33333333333337</ele><time>2026-04-07T15:21:50.999Z</time></trkpt><trkpt lat="44.86481654600269" lon="7.373426449492486"><ele>323.0</ele><time>2026-04-07T15:21:51.999Z</time></trkpt><trkpt lat="44.86486150938242" lon="7.373181065753519"><ele>323.33333333333337</ele><time>2026-04-07T15:21:52.999Z</time></trkpt><trkpt lat="44.864896587280384" lon="7.372906848448781"><ele>323.6666666666667</ele><time>2026-04-07T15:21:53.999Z</time></trkpt><trkpt lat="44.864966167974714" lon="7.372630848718759"><ele>324.0</ele><time>2026-04-07T15:21:54.999Z</time></trkpt><trkpt lat="44.86501998799229" lon="7.372343008394262"><ele>325.0</ele><time>2026-04-07T15:21:55.999Z</time></trkpt><trkpt lat="44.86508086075835" lon="7.372032941827486"><ele>326.0</ele><time>2026-04-07T15:21:56.999Z</time></trkpt><trkpt lat="44.86513685784305" lon="7.371713279015153"><ele>326.6666666666667</ele><time>2026-04-07T15:21:57.999Z</time></trkpt><trkpt lat="44.86516990575731" lon="7.371411631930403"><ele>327.3333333333333</ele><time>2026-04-07T15:21:58.999Z</time></trkpt><trkpt lat="44.86518059344124" lon="7.371089458927623"><ele>328.0</ele><time>2026-04-07T15:21:59.999Z</time></trkpt><trkpt lat="44.86517883283567" lon="7.370787699318797"><ele>328.3333333333333</ele><time>2026-04-07T15:22:00.999Z</time></trkpt><trkpt lat="44.86517300065188" lon="7.37050881950773"><ele>328.6666666666667</ele><time>2026-04-07T15:22:01.999Z</time></trkpt><trkpt lat="44.86517024643928" lon="7.370271452485534"><ele>329.0</ele><time>2026-04-07T15:22:02.999Z</time></trkpt><trkpt lat="44.865163353743384" lon="7.370075422842395"><ele>329.0</ele><time>2026-04-07T15:22:03.999Z</time></trkpt><trkpt lat="44.86520292211244" lon="7.369922403660999"><ele>329.0</ele><time>2026-04-07T15:22:04.999Z</time></trkpt><trkpt lat="44.86525281337556" lon="7.369801649609689"><ele>329.0</ele><time>2026-04-07T15:22:05.999Z</time></trkpt><trkpt lat="44.86532984209249" lon="7.369714177482321"><ele>329.0</ele><time>2026-04-07T15:22:06.999Z</time></trkpt><trkpt lat="44.865439370104994" lon="7.36966812535021"><ele>329.0</ele><time>2026-04-07T15:22:07.999Z</time></trkpt><trkpt lat="44.86556729989813" lon="7.369625209227679"><ele>329.0</ele><time>2026-04-07T15:22:08.999Z</time></trkpt><trkpt lat="44.8657189784862" lon="7.369598452513166"><ele>329.0</ele><time>2026-04-07T15:22:09.999Z</time></trkpt><trkpt lat="44.86588803451442" lon="7.36955273722988"><ele>329.0</ele><time>2026-04-07T15:22:10.999Z</time></trkpt><trkpt lat="44.866070549068596" lon="7.3695052664172955"><ele>329.0</ele><time>2026-04-07T15:22:11.999Z</time></trkpt><trkpt lat="44.866257303925096" lon="7.3694465430223435"><ele>329.0</ele><time>2026-04-07T15:22:12.999Z</time></trkpt><trkpt lat="44.86641974072839" lon="7.369393837856228"><ele>329.0</ele><time>2026-04-07T15:22:13.999Z</time></trkpt><trkpt lat="44.866572395952346" lon="7.3693418405942674"><ele>329.0</ele><time>2026-04-07T15:22:14.999Z</time></trkpt><trkpt lat="44.86671366393881" lon="7.369290170959848"><ele>329.0</ele><time>2026-04-07T15:22:15.999Z</time></trkpt><trkpt lat="44.86684285394208" lon="7.369230122985102"><ele>329.0</ele><time>2026-04-07T15:22:16.999Z</time></trkpt><trkpt lat="44.866956311198926" lon="7.3691378819303734"><ele>329.0</ele><time>2026-04-07T15:22:17.999Z</time></trkpt><trkpt lat="44.86706080770596" lon="7.368990786277692"><ele>329.0</ele><time>2026-04-07T15:22:18.999Z</time></trkpt><trkpt lat="44.867176649800655" lon="7.368813626008554"><ele>329.0</ele><time>2026-04-07T15:22:19.999Z</time></trkpt><trkpt lat="44.86729389268832" lon="7.36861709729348"><ele>329.0</ele><time>2026-04-07T15:22:20.999Z</time></trkpt><trkpt lat="44.86741507167084" lon="7.368404239992981"><ele>329.0</ele><time>2026-04-07T15:22:21.999Z</time></trkpt><trkpt lat="44.867549163369304" lon="7.368233436144768"><ele>329.0</ele><time>2026-04-07T15:22:22.999Z</time></trkpt><trkpt lat="44.867694672391856" lon="7.368102036205319"><ele>329.0</ele><time>2026-04-07T15:22:24Z</time></trkpt><trkpt lat="44.86786654372249" lon="7.367996630471328"><ele>329.0</ele><time>2026-04-07T15:22:25Z</time></trkpt><trkpt lat="44.86806802095062" lon="7.367912341571794"><ele>329.0</ele><time>2026-04-07T15:22:26Z</time></trkpt><trkpt lat="44.86828563118228" lon="7.367840402201946"><ele>329.0</ele><time>2026-04-07T15:22:27Z</time></trkpt><trkpt lat="44.86850461362637" lon="7.367778212405798"><ele>329.0</ele><time>2026-04-07T15:22:28Z</time></trkpt><trkpt lat="44.86873142953812" lon="7.367716714157465"><ele>329.0</ele><time>2026-04-07T15:22:29Z</time></trkpt><trkpt lat="44.86897039306579" lon="7.367648995873143"><ele>329.0</ele><time>2026-04-07T15:22:30Z</time></trkpt><trkpt lat="44.86921373005673" lon="7.367585032217155"><ele>329.0</ele><time>2026-04-07T15:22:31Z</time></trkpt><trkpt lat="44.86943401988123" lon="7.3675283715988265"><ele>329.6666666666667</ele><time>2026-04-07T15:22:32Z</time></trkpt><trkpt lat="44.86963769470612" lon="7.367476103497961"><ele>330.3333333333333</ele><time>2026-04-07T15:22:33Z</time></trkpt><trkpt lat="44.869819544254064" lon="7.367429849198318"><ele>331.0</ele><time>2026-04-07T15:22:34Z</time></trkpt><trkpt lat="44.869978714803786" lon="7.367388802282717"><ele>331.0</ele><time>2026-04-07T15:22:35Z</time></trkpt><trkpt lat="44.87012226917467" lon="7.367352241681118"><ele>331.0</ele><time>2026-04-07T15:22:36Z</time></trkpt><trkpt lat="44.8702553739049" lon="7.367314529188708"><ele>331.0</ele><time>2026-04-07T15:22:37Z</time></trkpt><trkpt lat="44.87037666595305" lon="7.367259313214208"><ele>331.0</ele><time>2026-04-07T15:22:38Z</time></trkpt><trkpt lat="44.870476728407944" lon="7.367163271488029"><ele>331.25</ele><time>2026-04-07T15:22:39Z</time></trkpt><trkpt lat="44.870552158009666" lon="7.367011584806872"><ele>331.5</ele><time>2026-04-07T15:22:40Z</time></trkpt><trkpt lat="44.87060739698371" lon="7.366822185270068"><ele>331.75</ele><time>2026-04-07T15:22:41Z</time></trkpt><trkpt lat="44.87064670832115" lon="7.366594150826873"><ele>332.0</ele><time>2026-04-07T15:22:42Z</time></trkpt><trkpt lat="44.870685337237234" lon="7.3663550524619374"><ele>332.6666666666667</ele><time>2026-04-07T15:22:43Z</time></trkpt><trkpt lat="44.87074222401439" lon="7.366122602639535"><ele>333.3333333333333</ele><time>2026-04-07T15:22:44Z</time></trkpt><trkpt lat="44.87079172310149" lon="7.3658698266924425"><ele>334.0</ele><time>2026-04-07T15:22:45Z</time></trkpt><trkpt lat="44.87083906083214" lon="7.365615451937528"><ele>334.3333333333333</ele><time>2026-04-07T15:22:46Z</time></trkpt><trkpt lat="44.87090765111118" lon="7.3653794192320685"><ele>334.6666666666667</ele><time>2026-04-07T15:22:47Z</time></trkpt><trkpt lat="44.87099495824602" lon="7.365148983646625"><ele>335.0</ele><time>2026-04-07T15:22:48Z</time></trkpt><trkpt lat="44.87109777342566" lon="7.364920890992417"><ele>335.0</ele><time>2026-04-07T15:22:49Z</time></trkpt><trkpt lat="44.871207063747555" lon="7.364701253579029"><ele>335.0</ele><time>2026-04-07T15:22:50Z</time></trkpt><trkpt lat="44.87131514020593" lon="7.364511500793004"><ele>335.0</ele><time>2026-04-07T15:22:51Z</time></trkpt><trkpt lat="44.871411250000925" lon="7.364332766139314"><ele>335.0</ele><time>2026-04-07T15:22:52Z</time></trkpt><trkpt lat="44.871485632858246" lon="7.364150309388063"><ele>335.0</ele><time>2026-04-07T15:22:53Z</time></trkpt><trkpt lat="44.87155322250558" lon="7.363970899605674"><ele>335.0</ele><time>2026-04-07T15:22:54Z</time></trkpt><trkpt lat="44.87158303347263" lon="7.363765016973611"><ele>335.0</ele><time>2026-04-07T15:22:55Z</time></trkpt><trkpt lat="44.87156880454204" lon="7.363549093247741"><ele>335.25</ele><time>2026-04-07T15:22:56Z</time></trkpt><trkpt lat="44.8715143628348" lon="7.363379455795572"><ele>335.5</ele><time>2026-04-07T15:22:57Z</time></trkpt><trkpt lat="44.871498734326444" lon="7.363222512098077"><ele>335.75</ele><time>2026-04-07T15:22:58Z</time></trkpt><trkpt lat="44.87151357465532" lon="7.363067058244946"><ele>336.0</ele><time>2026-04-07T15:22:59Z</time></trkpt><trkpt lat="44.871572344223964" lon="7.362957382584624"><ele>336.0</ele><time>2026-04-07T15:23:00Z</time></trkpt><trkpt lat="44.871655022241846" lon="7.362883149383315"><ele>336.0</ele><time>2026-04-07T15:23:01Z</time></trkpt><trkpt lat="44.87177161064236" lon="7.362838706518151"><ele>336.0</ele><time>2026-04-07T15:23:02Z</time></trkpt><trkpt lat="44.871914497594936" lon="7.3628218373723895"><ele>336.0</ele><time>2026-04-07T15:23:03Z</time></trkpt><trkpt lat="44.872068391968455" lon="7.362804586153001"><ele>336.0</ele><time>2026-04-07T15:23:04Z</time></trkpt><trkpt lat="44.87223064847554" lon="7.362791494050278"><ele>336.0</ele><time>2026-04-07T15:23:05Z</time></trkpt><trkpt lat="44.87238594726738" lon="7.362785056951418"><ele>336.0</ele><time>2026-04-07T15:23:06Z</time></trkpt><trkpt lat="44.87253449069616" lon="7.362772645658865"><ele>336.0</ele><time>2026-04-07T15:23:07Z</time></trkpt><trkpt lat="44.87267898075238" lon="7.3627544229933894"><ele>336.0</ele><time>2026-04-07T15:23:08Z</time></trkpt><trkpt lat="44.87282288543335" lon="7.362727218055097"><ele>336.0</ele><time>2026-04-07T15:23:09Z</time></trkpt><trkpt lat="44.872954826484445" lon="7.362659520373199"><ele>336.0</ele><time>2026-04-07T15:23:10Z</time></trkpt><trkpt lat="44.87307368733273" lon="7.362552557396157"><ele>336.0</ele><time>2026-04-07T15:23:11Z</time></trkpt><trkpt lat="44.87316114438423" lon="7.362406556322785"><ele>336.0</ele><time>2026-04-07T15:23:12Z</time></trkpt><trkpt lat="44.87322349902369" lon="7.362224817097105"><ele>336.0</ele><time>2026-04-07T15:23:13Z</time></trkpt><trkpt lat="44.873260892208016" lon="7.362002073328204"><ele>336.0</ele><time>2026-04-07T15:23:14Z</time></trkpt><trkpt lat="44.873278489789065" lon="7.361753311312087"><ele>336.3333333333333</ele><time>2026-04-07T15:23:15Z</time></trkpt><trkpt lat="44.873299616856634" lon="7.361478950125918"><ele>336.66666666666663</ele><time>2026-04-07T15:23:16Z</time></trkpt><trkpt lat="44.87331987863864" lon="7.361181572533115"><ele>337.0</ele><time>2026-04-07T15:23:17Z</time></trkpt><trkpt lat="44.87334268815049" lon="7.360867320087165"><ele>337.5</ele><time>2026-04-07T15:23:18Z</time></trkpt><trkpt lat="44.87338277856115" lon="7.360564739508503"><ele>338.0</ele><time>2026-04-07T15:23:19Z</time></trkpt><trkpt lat="44.87340499036494" lon="7.3602396734813516"><ele>338.0</ele><time>2026-04-07T15:23:20Z</time></trkpt><trkpt lat="44.873418412891986" lon="7.359894477070698"><ele>338.0</ele><time>2026-04-07T15:23:21Z</time></trkpt><trkpt lat="44.8734147499352" lon="7.359550499799779"><ele>338.33333333333337</ele><time>2026-04-07T15:23:22Z</time></trkpt><trkpt lat="44.87342724487719" lon="7.359241087305178"><ele>338.6666666666667</ele><time>2026-04-07T15:23:23Z</time></trkpt><trkpt lat="44.87344621716113" lon="7.358949113089719"><ele>339.0</ele><time>2026-04-07T15:23:24Z</time></trkpt><trkpt lat="44.87348265498087" lon="7.358671968841701"><ele>339.0</ele><time>2026-04-07T15:23:25Z</time></trkpt><trkpt lat="44.873547792033264" lon="7.35840260914974"><ele>339.0</ele><time>2026-04-07T15:23:26Z</time></trkpt><trkpt lat="44.87361814610891" lon="7.358126703481429"><ele>339.0</ele><time>2026-04-07T15:23:27Z</time></trkpt><trkpt lat="44.87367976097825" lon="7.357838981235313"><ele>339.6666666666667</ele><time>2026-04-07T15:23:28Z</time></trkpt><trkpt lat="44.873740348940544" lon="7.357542083578723"><ele>340.33333333333337</ele><time>2026-04-07T15:23:29Z</time></trkpt><trkpt lat="44.87379774495374" lon="7.357235163652693"><ele>341.0</ele><time>2026-04-07T15:23:30Z</time></trkpt><trkpt lat="44.87385015671771" lon="7.356960365292884"><ele>341.0</ele><time>2026-04-07T15:23:31Z</time></trkpt><trkpt lat="44.87390060800713" lon="7.35670189775588"><ele>341.0</ele><time>2026-04-07T15:23:32Z</time></trkpt><trkpt lat="44.87395099972139" lon="7.356460943479802"><ele>341.0</ele><time>2026-04-07T15:23:33Z</time></trkpt><trkpt lat="44.873993956979106" lon="7.356252886264859"><ele>341.4</ele><time>2026-04-07T15:23:33.999Z</time></trkpt><trkpt lat="44.87402572974686" lon="7.3560808859836015"><ele>341.8</ele><time>2026-04-07T15:23:34.999Z</time></trkpt><trkpt lat="44.87405480003659" lon="7.355925466301641"><ele>342.2</ele><time>2026-04-07T15:23:35.999Z</time></trkpt><trkpt lat="44.87408414800039" lon="7.3557846368049535"><ele>342.59999999999997</ele><time>2026-04-07T15:23:36.999Z</time></trkpt><trkpt lat="44.87411285221803" lon="7.355655019591476"><ele>343.0</ele><time>2026-04-07T15:23:37.999Z</time></trkpt><trkpt lat="44.874140269181865" lon="7.355528833879366"><ele>343.3333333333333</ele><time>2026-04-07T15:23:38.999Z</time></trkpt><trkpt lat="44.87416631854513" lon="7.35541079585693"><ele>343.66666666666663</ele><time>2026-04-07T15:23:39.999Z</time></trkpt><trkpt lat="44.87418902804852" lon="7.355302801192683"><ele>344.0</ele><time>2026-04-07T15:23:40.999Z</time></trkpt><trkpt lat="44.87421725573646" lon="7.355194975891208"><ele>344.3333333333333</ele><time>2026-04-07T15:23:41.999Z</time></trkpt><trkpt lat="44.874258028121524" lon="7.355090214278894"><ele>344.6666666666667</ele><time>2026-04-07T15:23:42.999Z</time></trkpt><trkpt lat="44.874310391672694" lon="7.35498732559534"><ele>345.0</ele><time>2026-04-07T15:23:43.999Z</time></trkpt><trkpt lat="44.87437468197501" lon="7.35488833499245"><ele>345.0</ele><time>2026-04-07T15:23:44.999Z</time></trkpt><trkpt lat="44.87443468031317" lon="7.354803311604976"><ele>345.0</ele><time>2026-04-07T15:23:45.999Z</time></trkpt><trkpt lat="44.8744867505489" lon="7.354723921267083"><ele>345.0</ele><time>2026-04-07T15:23:46.999Z</time></trkpt><trkpt lat="44.87453481174226" lon="7.354636616408876"><ele>345.0</ele><time>2026-04-07T15:23:47.999Z</time></trkpt><trkpt lat="44.87458688220019" lon="7.3545432109433495"><ele>345.0</ele><time>2026-04-07T15:23:48.999Z</time></trkpt><trkpt lat="44.87464488996321" lon="7.3544476785327095"><ele>345.0</ele><time>2026-04-07T15:23:49.999Z</time></trkpt><trkpt lat="44.87471897794148" lon="7.354357563669029"><ele>345.0</ele><time>2026-04-07T15:23:50.999Z</time></trkpt><trkpt lat="44.87478764771463" lon="7.354254563866899"><ele>345.0</ele><time>2026-04-07T15:23:51.999Z</time></trkpt><trkpt lat="44.87485859912193" lon="7.354146898179711"><ele>345.0</ele><time>2026-04-07T15:23:52.999Z</time></trkpt><trkpt lat="44.874915860289065" lon="7.354023712795867"><ele>345.0</ele><time>2026-04-07T15:23:53.999Z</time></trkpt><trkpt lat="44.87496505028629" lon="7.353886505623006"><ele>345.0</ele><time>2026-04-07T15:23:54.999Z</time></trkpt><trkpt lat="44.87502059399366" lon="7.353747742133511"><ele>345.25</ele><time>2026-04-07T15:23:55.999Z</time></trkpt><trkpt lat="44.87507952207969" lon="7.353607624547851"><ele>345.5</ele><time>2026-04-07T15:23:56.999Z</time></trkpt><trkpt lat="44.875130678245505" lon="7.353454476915888"><ele>345.75</ele><time>2026-04-07T15:23:57.999Z</time></trkpt><trkpt lat="44.87517276059568" lon="7.353289713474254"><ele>346.0</ele><time>2026-04-07T15:23:58.999Z</time></trkpt><trkpt lat="44.87521630786549" lon="7.3531316020158375"><ele>346.20000000000005</ele><time>2026-04-07T15:23:59.999Z</time></trkpt><trkpt lat="44.87525440175579" lon="7.352989760760044"><ele>346.40000000000003</ele><time>2026-04-07T15:24:00.999Z</time></trkpt><trkpt lat="44.87529102439762" lon="7.352840138850467"><ele>346.6</ele><time>2026-04-07T15:24:01.999Z</time></trkpt><trkpt lat="44.87532730586199" lon="7.3526913962417595"><ele>346.8</ele><time>2026-04-07T15:24:02.999Z</time></trkpt><trkpt lat="44.87536339076799" lon="7.35254569152739"><ele>347.0</ele><time>2026-04-07T15:24:03.999Z</time></trkpt><trkpt lat="44.87539945690759" lon="7.352399893321201"><ele>347.0</ele><time>2026-04-07T15:24:04.999Z</time></trkpt><trkpt lat="44.87543812267975" lon="7.352248841334774"><ele>347.0</ele><time>2026-04-07T15:24:05.999Z</time></trkpt><trkpt lat="44.87547674737531" lon="7.35209459149121"><ele>347.0</ele><time>2026-04-07T15:24:06.999Z</time></trkpt><trkpt lat="44.87551109106339" lon="7.351952277770744"><ele>347.0</ele><time>2026-04-07T15:24:07.999Z</time></trkpt><trkpt lat="44.87554007415767" lon="7.351820406956597"><ele>347.0</ele><time>2026-04-07T15:24:08.999Z</time></trkpt><trkpt lat="44.87556732193667" lon="7.351698543470049"><ele>347.0</ele><time>2026-04-07T15:24:09.999Z</time></trkpt><trkpt lat="44.875598071281175" lon="7.35158637791205"><ele>347.0</ele><time>2026-04-07T15:24:10.999Z</time></trkpt><trkpt lat="44.875623703292604" lon="7.351478517682974"><ele>347.0</ele><time>2026-04-07T15:24:11.999Z</time></trkpt><trkpt lat="44.87564115335702" lon="7.3513770178691695"><ele>347.0</ele><time>2026-04-07T15:24:12.999Z</time></trkpt><trkpt lat="44.87565010614798" lon="7.351285059649157"><ele>347.0</ele><time>2026-04-07T15:24:13.999Z</time></trkpt><trkpt lat="44.87563970652071" lon="7.35112479239273"><ele>347.0</ele><time>2026-04-07T15:24:15.999Z</time></trkpt><trkpt lat="44.87561428985976" lon="7.350972830889004"><ele>347.0</ele><time>2026-04-07T15:24:17.999Z</time></trkpt><trkpt lat="44.87559973067492" lon="7.3508315993488"><ele>347.0</ele><time>2026-04-07T15:24:19.999Z</time></trkpt><trkpt lat="44.875570002156984" lon="7.350689965954888"><ele>347.0</ele><time>2026-04-07T15:24:21.999Z</time></trkpt><trkpt lat="44.87553416671791" lon="7.350602272795147"><ele>347.0</ele><time>2026-04-07T15:24:23.999Z</time></trkpt><trkpt lat="44.87551229648159" lon="7.3504956077350645"><ele>347.0</ele><time>2026-04-07T15:24:26.999Z</time></trkpt><trkpt lat="44.875502204127926" lon="7.350395942964782"><ele>347.0</ele><time>2026-04-07T15:24:54Z</time></trkpt><trkpt lat="44.87549538572304" lon="7.350259242545547"><ele>347.6</ele><time>2026-04-07T15:24:56Z</time></trkpt><trkpt lat="44.87548999887723" lon="7.350121790887676"><ele>348.20000000000005</ele><time>2026-04-07T15:24:57Z</time></trkpt><trkpt lat="44.87551087957065" lon="7.349976492694532"><ele>348.8</ele><time>2026-04-07T15:24:58Z</time></trkpt><trkpt lat="44.87552816992146" lon="7.349802191187984"><ele>349.4</ele><time>2026-04-07T15:24:59Z</time></trkpt><trkpt lat="44.87554490914841" lon="7.349635679900952"><ele>350.0</ele><time>2026-04-07T15:25:00Z</time></trkpt><trkpt lat="44.875560824261456" lon="7.349477366494545"><ele>350.25</ele><time>2026-04-07T15:25:01Z</time></trkpt><trkpt lat="44.87557831530562" lon="7.3493148555337"><ele>350.5</ele><time>2026-04-07T15:25:02Z</time></trkpt><trkpt lat="44.87559826134909" lon="7.349132979015406"><ele>350.75</ele><time>2026-04-07T15:25:03Z</time></trkpt><trkpt lat="44.875622968953635" lon="7.348931837276154"><ele>351.0</ele><time>2026-04-07T15:25:04Z</time></trkpt><trkpt lat="44.875651844732914" lon="7.348744635160558"><ele>351.20000000000005</ele><time>2026-04-07T15:25:05Z</time></trkpt><trkpt lat="44.875680456027965" lon="7.348585087954992"><ele>351.40000000000003</ele><time>2026-04-07T15:25:06Z</time></trkpt><trkpt lat="44.87570978325379" lon="7.348440221073769"><ele>351.6</ele><time>2026-04-07T15:25:07Z</time></trkpt><trkpt lat="44.875739860459284" lon="7.348311492621421"><ele>351.8</ele><time>2026-04-07T15:25:08Z</time></trkpt><trkpt lat="44.8757711035266" lon="7.3482024175346545"><ele>352.0</ele><time>2026-04-07T15:25:09Z</time></trkpt><trkpt lat="44.875807621688494" lon="7.348050369696629"><ele>352.25</ele><time>2026-04-07T15:25:10Z</time></trkpt><trkpt lat="44.87588837702464" lon="7.347902523168207"><ele>352.5</ele><time>2026-04-07T15:25:11Z</time></trkpt><trkpt lat="44.875971786759735" lon="7.3477281804146655"><ele>352.75</ele><time>2026-04-07T15:25:12Z</time></trkpt><trkpt lat="44.87606978134911" lon="7.347539603528977"><ele>353.0</ele><time>2026-04-07T15:25:13Z</time></trkpt><trkpt lat="44.876185102814866" lon="7.347352060422456"><ele>353.33333333333337</ele><time>2026-04-07T15:25:14Z</time></trkpt><trkpt lat="44.87629672306015" lon="7.34719256966049"><ele>353.6666666666667</ele><time>2026-04-07T15:25:15Z</time></trkpt><trkpt lat="44.87641039022313" lon="7.3470512936696455"><ele>354.0</ele><time>2026-04-07T15:25:16Z</time></trkpt><trkpt lat="44.876538814498424" lon="7.346929761491202"><ele>354.0</ele><time>2026-04-07T15:25:17Z</time></trkpt><trkpt lat="44.87666476952845" lon="7.3468193429836175"><ele>354.0</ele><time>2026-04-07T15:25:18Z</time></trkpt><trkpt lat="44.876782147959574" lon="7.346727067682671"><ele>354.0</ele><time>2026-04-07T15:25:19Z</time></trkpt><trkpt lat="44.87690436028588" lon="7.346647397414044"><ele>354.0</ele><time>2026-04-07T15:25:20Z</time></trkpt><trkpt lat="44.87702773613606" lon="7.346568817032313"><ele>354.0</ele><time>2026-04-07T15:25:21Z</time></trkpt><trkpt lat="44.87715244782357" lon="7.346490377941187"><ele>354.0</ele><time>2026-04-07T15:25:22Z</time></trkpt><trkpt lat="44.87727478018665" lon="7.3464219565425"><ele>354.0</ele><time>2026-04-07T15:25:23Z</time></trkpt><trkpt lat="44.877389708952364" lon="7.3463552488892105"><ele>354.0</ele><time>2026-04-07T15:25:24Z</time></trkpt><trkpt lat="44.87752355319086" lon="7.346280115570278"><ele>354.3333333333333</ele><time>2026-04-07T15:25:25Z</time></trkpt><trkpt lat="44.8776653001538" lon="7.3462063256111305"><ele>354.66666666666663</ele><time>2026-04-07T15:25:26Z</time></trkpt><trkpt lat="44.877809575680445" lon="7.3461275314528836"><ele>355.0</ele><time>2026-04-07T15:25:27Z</time></trkpt><trkpt lat="44.87795834518807" lon="7.346049138688764"><ele>355.0</ele><time>2026-04-07T15:25:28Z</time></trkpt><trkpt lat="44.878102380226856" lon="7.345972051008027"><ele>355.0</ele><time>2026-04-07T15:25:29Z</time></trkpt><trkpt lat="44.878251693479534" lon="7.3458990642330635"><ele>355.0</ele><time>2026-04-07T15:25:30Z</time></trkpt><trkpt lat="44.87840625007977" lon="7.345820151526791"><ele>354.66666666666663</ele><time>2026-04-07T15:25:31Z</time></trkpt><trkpt lat="44.87855383351813" lon="7.345746216529837"><ele>354.3333333333333</ele><time>2026-04-07T15:25:32Z</time></trkpt><trkpt lat="44.87869585564852" lon="7.345672131487514"><ele>354.0</ele><time>2026-04-07T15:25:33Z</time></trkpt><trkpt lat="44.878840080485155" lon="7.34560005420233"><ele>354.6666666666667</ele><time>2026-04-07T15:25:34Z</time></trkpt><trkpt lat="44.87898914288509" lon="7.345524141762327"><ele>355.33333333333337</ele><time>2026-04-07T15:25:35Z</time></trkpt><trkpt lat="44.87914291826402" lon="7.345438424014602"><ele>356.0</ele><time>2026-04-07T15:25:36Z</time></trkpt><trkpt lat="44.87929328095169" lon="7.345355438977212"><ele>356.25</ele><time>2026-04-07T15:25:37Z</time></trkpt><trkpt lat="44.879426152423775" lon="7.345286343969457"><ele>356.5</ele><time>2026-04-07T15:25:38Z</time></trkpt><trkpt lat="44.87955727534256" lon="7.345222817215709"><ele>356.75</ele><time>2026-04-07T15:25:39Z</time></trkpt><trkpt lat="44.87967254832622" lon="7.345167286654904"><ele>357.0</ele><time>2026-04-07T15:25:40Z</time></trkpt><trkpt lat="44.8797903728641" lon="7.34510799826812"><ele>357.0</ele><time>2026-04-07T15:25:40.999Z</time></trkpt><trkpt lat="44.87992415519408" lon="7.345064414762978"><ele>357.0</ele><time>2026-04-07T15:25:41.999Z</time></trkpt><trkpt lat="44.88006483715906" lon="7.345053896551266"><ele>357.0</ele><time>2026-04-07T15:25:42.999Z</time></trkpt><trkpt lat="44.880195980098435" lon="7.3450659486737315"><ele>357.0</ele><time>2026-04-07T15:25:43.999Z</time></trkpt><trkpt lat="44.88032948255716" lon="7.345089062269796"><ele>358.0</ele><time>2026-04-07T15:25:44.999Z</time></trkpt><trkpt lat="44.88045646460905" lon="7.345113146338144"><ele>359.0</ele><time>2026-04-07T15:25:45.999Z</time></trkpt><trkpt lat="44.88060532012891" lon="7.345133933165619"><ele>360.0</ele><time>2026-04-07T15:25:46.999Z</time></trkpt><trkpt lat="44.880724832156886" lon="7.345155790505618"><ele>361.0</ele><time>2026-04-07T15:25:47.999Z</time></trkpt><trkpt lat="44.8808439316848" lon="7.345174182489568"><ele>360.20000000000005</ele><time>2026-04-07T15:25:48.999Z</time></trkpt><trkpt lat="44.88096479619463" lon="7.345194097976011"><ele>359.40000000000003</ele><time>2026-04-07T15:25:49.999Z</time></trkpt><trkpt lat="44.88106923510747" lon="7.345215327930761"><ele>358.6</ele><time>2026-04-07T15:25:50.999Z</time></trkpt><trkpt lat="44.881166181569014" lon="7.345232286013011"><ele>357.8</ele><time>2026-04-07T15:25:51.999Z</time></trkpt><trkpt lat="44.88125985666212" lon="7.345243836668891"><ele>357.0</ele><time>2026-04-07T15:25:52.999Z</time></trkpt><trkpt lat="44.88133608049929" lon="7.345259937697727"><ele>357.0</ele><time>2026-04-07T15:25:53.999Z</time></trkpt><trkpt lat="44.881430522450906" lon="7.345293792894411"><ele>357.0</ele><time>2026-04-07T15:25:55.999Z</time></trkpt><trkpt lat="44.88142696771926" lon="7.345469338604448"><ele>357.0</ele><time>2026-04-07T15:25:56.999Z</time></trkpt><trkpt lat="44.88141712542989" lon="7.345584489711372"><ele>357.0</ele><time>2026-04-07T15:25:57.999Z</time></trkpt><trkpt lat="44.88141982425093" lon="7.345719731068227"><ele>357.0</ele><time>2026-04-07T15:25:58.999Z</time></trkpt><trkpt lat="44.88143067159387" lon="7.34588254073175"><ele>356.75</ele><time>2026-04-07T15:25:59.999Z</time></trkpt><trkpt lat="44.88144182784298" lon="7.346053552843206"><ele>356.5</ele><time>2026-04-07T15:26:00.999Z</time></trkpt><trkpt lat="44.881442443743204" lon="7.346242020320776"><ele>356.25</ele><time>2026-04-07T15:26:01.999Z</time></trkpt><trkpt lat="44.88142956874421" lon="7.346406847263729"><ele>356.0</ele><time>2026-04-07T15:26:02.999Z</time></trkpt><trkpt lat="44.88141716349641" lon="7.346565233732119"><ele>355.83333333333337</ele><time>2026-04-07T15:26:03.999Z</time></trkpt><trkpt lat="44.88140353080059" lon="7.346692361241217"><ele>355.6666666666667</ele><time>2026-04-07T15:26:04.999Z</time></trkpt><trkpt lat="44.88138598979606" lon="7.346802244384368"><ele>355.5</ele><time>2026-04-07T15:26:05.999Z</time></trkpt><trkpt lat="44.88138346821922" lon="7.346926710133471"><ele>355.3333333333333</ele><time>2026-04-07T15:26:06.999Z</time></trkpt><trkpt lat="44.881374257545204" lon="7.347028585484946"><ele>355.16666666666663</ele><time>2026-04-07T15:26:07.999Z</time></trkpt><trkpt lat="44.88135663293094" lon="7.347123973620743"><ele>355.0</ele><time>2026-04-07T15:26:08.999Z</time></trkpt><trkpt lat="44.88133422810868" lon="7.347229925662159"><ele>354.8333333333333</ele><time>2026-04-07T15:26:09.999Z</time></trkpt><trkpt lat="44.8813233074848" lon="7.347340735430672"><ele>354.66666666666663</ele><time>2026-04-07T15:26:10.999Z</time></trkpt><trkpt lat="44.881317222244746" lon="7.347435318843118"><ele>354.5</ele><time>2026-04-07T15:26:11.999Z</time></trkpt><trkpt lat="44.88129837247786" lon="7.3475845995487195"><ele>354.3333333333333</ele><time>2026-04-07T15:26:13.999Z</time></trkpt><trkpt lat="44.88127694783652" lon="7.347719166898659"><ele>354.1666666666667</ele><time>2026-04-07T15:26:15.999Z</time></trkpt><trkpt lat="44.88123708940862" lon="7.347828819163766"><ele>354.0</ele><time>2026-04-07T15:26:16.999Z</time></trkpt><trkpt lat="44.88123254150032" lon="7.3479806105223755"><ele>354.0</ele><time>2026-04-07T15:26:17.999Z</time></trkpt><trkpt lat="44.88119570718639" lon="7.348163769618748"><ele>354.0</ele><time>2026-04-07T15:26:18.999Z</time></trkpt><trkpt lat="44.8811656831728" lon="7.34839184621689"><ele>354.0</ele><time>2026-04-07T15:26:19.999Z</time></trkpt><trkpt lat="44.88114371508421" lon="7.348621447152145"><ele>354.0</ele><time>2026-04-07T15:26:20.999Z</time></trkpt><trkpt lat="44.881119203893" lon="7.348814811538165"><ele>354.0</ele><time>2026-04-07T15:26:21.999Z</time></trkpt><trkpt lat="44.88108983697472" lon="7.349004697003413"><ele>354.0</ele><time>2026-04-07T15:26:22.999Z</time></trkpt><trkpt lat="44.881064082309365" lon="7.3491798031235405"><ele>354.0</ele><time>2026-04-07T15:26:23.999Z</time></trkpt><trkpt lat="44.88104033815116" lon="7.349355799451087"><ele>353.75</ele><time>2026-04-07T15:26:24.999Z</time></trkpt><trkpt lat="44.88101640622294" lon="7.349537663781648"><ele>353.5</ele><time>2026-04-07T15:26:25.999Z</time></trkpt><trkpt lat="44.88099101194272" lon="7.349710732809925"><ele>353.25</ele><time>2026-04-07T15:26:26.999Z</time></trkpt><trkpt lat="44.88096337279697" lon="7.349881024110525"><ele>353.0</ele><time>2026-04-07T15:26:27.999Z</time></trkpt><trkpt lat="44.88093019895225" lon="7.350047656259242"><ele>352.75</ele><time>2026-04-07T15:26:28.999Z</time></trkpt><trkpt lat="44.8808835576046" lon="7.350229355213655"><ele>352.5</ele><time>2026-04-07T15:26:29.999Z</time></trkpt><trkpt lat="44.880832245557826" lon="7.350422582172422"><ele>352.25</ele><time>2026-04-07T15:26:30.999Z</time></trkpt><trkpt lat="44.88078276508128" lon="7.350619158512999"><ele>352.0</ele><time>2026-04-07T15:26:31.999Z</time></trkpt><trkpt lat="44.88073790301936" lon="7.350808838602746"><ele>351.3333333333333</ele><time>2026-04-07T15:26:32.999Z</time></trkpt><trkpt lat="44.88070692122337" lon="7.35102186863388"><ele>350.6666666666667</ele><time>2026-04-07T15:26:33.999Z</time></trkpt><trkpt lat="44.880680494718995" lon="7.351252792949552"><ele>350.0</ele><time>2026-04-07T15:26:34.999Z</time></trkpt><trkpt lat="44.88071411317683" lon="7.351499277409939"><ele>349.0</ele><time>2026-04-07T15:26:36Z</time></trkpt><trkpt lat="44.88074255735605" lon="7.3517560202310515"><ele>348.0</ele><time>2026-04-07T15:26:37Z</time></trkpt><trkpt lat="44.88076600826283" lon="7.352023493713913"><ele>347.0</ele><time>2026-04-07T15:26:38Z</time></trkpt><trkpt lat="44.880783590986724" lon="7.3522822722796555"><ele>347.0</ele><time>2026-04-07T15:26:39Z</time></trkpt><trkpt lat="44.88079886589434" lon="7.352520004693363"><ele>347.0</ele><time>2026-04-07T15:26:40Z</time></trkpt><trkpt lat="44.880812468222295" lon="7.352746298447155"><ele>347.0</ele><time>2026-04-07T15:26:41Z</time></trkpt><trkpt lat="44.88082661227811" lon="7.35295434388835"><ele>346.8</ele><time>2026-04-07T15:26:42Z</time></trkpt><trkpt lat="44.880841818719915" lon="7.35314642697471"><ele>346.6</ele><time>2026-04-07T15:26:43Z</time></trkpt><trkpt lat="44.88085256557237" lon="7.353308459511989"><ele>346.40000000000003</ele><time>2026-04-07T15:26:44Z</time></trkpt><trkpt lat="44.88086767646126" lon="7.3534398109591885"><ele>346.20000000000005</ele><time>2026-04-07T15:26:45Z</time></trkpt><trkpt lat="44.88090521584959" lon="7.353526279991532"><ele>346.0</ele><time>2026-04-07T15:26:46Z</time></trkpt><trkpt lat="44.88098323923534" lon="7.353595187157357"><ele>345.8</ele><time>2026-04-07T15:26:47Z</time></trkpt><trkpt lat="44.88108284605474" lon="7.3536541343632065"><ele>345.6</ele><time>2026-04-07T15:26:48Z</time></trkpt><trkpt lat="44.88117853406967" lon="7.353675542861365"><ele>345.4</ele><time>2026-04-07T15:26:49Z</time></trkpt><trkpt lat="44.8812578448639" lon="7.353671327235982"><ele>345.2</ele><time>2026-04-07T15:26:50Z</time></trkpt><trkpt lat="44.88134003744329" lon="7.353666301006201"><ele>345.0</ele><time>2026-04-07T15:26:51Z</time></trkpt><trkpt lat="44.88142521195499" lon="7.3536630494082456"><ele>345.0</ele><time>2026-04-07T15:26:52Z</time></trkpt><trkpt lat="44.881489376024774" lon="7.3536630788700785"><ele>345.0</ele><time>2026-04-07T15:26:53Z</time></trkpt><trkpt lat="44.88155502610162" lon="7.353653532705444"><ele>345.0</ele><time>2026-04-07T15:26:54Z</time></trkpt><trkpt lat="44.88162942372074" lon="7.353675116727804"><ele>345.0</ele><time>2026-04-07T15:26:55Z</time></trkpt><trkpt lat="44.88169774081342" lon="7.353463044318112"><ele>345.0</ele><time>2026-04-07T15:26:56Z</time></trkpt><trkpt lat="44.881749394249375" lon="7.353312051293948"><ele>345.2</ele><time>2026-04-07T15:26:57Z</time></trkpt><trkpt lat="44.88179752724144" lon="7.3531644728809775"><ele>345.4</ele><time>2026-04-07T15:26:58Z</time></trkpt><trkpt lat="44.881848563083985" lon="7.353036451090218"><ele>345.6</ele><time>2026-04-07T15:26:59Z</time></trkpt><trkpt lat="44.88190421912548" lon="7.352902804587634"><ele>345.8</ele><time>2026-04-07T15:27:00Z</time></trkpt><trkpt lat="44.881959606614416" lon="7.3527906701592185"><ele>346.0</ele><time>2026-04-07T15:27:01Z</time></trkpt><trkpt lat="44.88202079786483" lon="7.352703687962094"><ele>346.20000000000005</ele><time>2026-04-07T15:27:02Z</time></trkpt><trkpt lat="44.882099318316435" lon="7.352642653286186"><ele>346.40000000000003</ele><time>2026-04-07T15:27:03Z</time></trkpt><trkpt lat="44.88216968143548" lon="7.3525841661821945"><ele>346.6</ele><time>2026-04-07T15:27:04Z</time></trkpt><trkpt lat="44.88228847889833" lon="7.3526524246347575"><ele>346.8</ele><time>2026-04-07T15:27:05Z</time></trkpt><trkpt lat="44.882364577663076" lon="7.3526195726157955"><ele>347.0</ele><time>2026-04-07T15:27:06Z</time></trkpt><trkpt lat="44.882426126348165" lon="7.352539863219064"><ele>347.0</ele><time>2026-04-07T15:27:07Z</time></trkpt><trkpt lat="44.88247488364469" lon="7.352428691462206"><ele>347.0</ele><time>2026-04-07T15:27:08Z</time></trkpt><trkpt lat="44.882472769401716" lon="7.352275246757474"><ele>347.0</ele><time>2026-04-07T15:27:09Z</time></trkpt><trkpt lat="44.8824668231716" lon="7.352129058517372"><ele>347.0</ele><time>2026-04-07T15:27:10Z</time></trkpt><trkpt lat="44.882613606458904" lon="7.352041600870216"><ele>347.5</ele><time>2026-04-07T15:27:11Z</time></trkpt><trkpt lat="44.882714544418455" lon="7.351912922279334"><ele>348.0</ele><time>2026-04-07T15:27:12Z</time></trkpt><trkpt lat="44.88283738038692" lon="7.3518157763438685"><ele>348.5</ele><time>2026-04-07T15:27:13Z</time></trkpt><trkpt lat="44.88297265718238" lon="7.351757751442924"><ele>349.0</ele><time>2026-04-07T15:27:14Z</time></trkpt><trkpt lat="44.883093114012595" lon="7.351747714006068"><ele>349.0</ele><time>2026-04-07T15:27:15Z</time></trkpt><trkpt lat="44.8832186684984" lon="7.35172948060694"><ele>349.0</ele><time>2026-04-07T15:27:16Z</time></trkpt><trkpt lat="44.88336147776024" lon="7.351721026303363"><ele>349.0</ele><time>2026-04-07T15:27:17Z</time></trkpt><trkpt lat="44.88351462069711" lon="7.351704302421028"><ele>349.0</ele><time>2026-04-07T15:27:18Z</time></trkpt><trkpt lat="44.883660152623065" lon="7.351691926730232"><ele>349.0</ele><time>2026-04-07T15:27:19Z</time></trkpt><trkpt lat="44.88377557416688" lon="7.351680273703207"><ele>349.0</ele><time>2026-04-07T15:27:20Z</time></trkpt><trkpt lat="44.883878595082315" lon="7.351669156639389"><ele>349.0</ele><time>2026-04-07T15:27:21Z</time></trkpt><trkpt lat="44.88398141691843" lon="7.351657861865582"><ele>349.0</ele><time>2026-04-07T15:27:22Z</time></trkpt><trkpt lat="44.88408798944147" lon="7.351644225147788"><ele>349.0</ele><time>2026-04-07T15:27:23Z</time></trkpt><trkpt lat="44.884182383690096" lon="7.351632556871285"><ele>349.2</ele><time>2026-04-07T15:27:24Z</time></trkpt><trkpt lat="44.88427025735081" lon="7.351622952787878"><ele>349.4</ele><time>2026-04-07T15:27:25Z</time></trkpt><trkpt lat="44.884371314572824" lon="7.351602030999891"><ele>349.6</ele><time>2026-04-07T15:27:26Z</time></trkpt><trkpt lat="44.88446943226304" lon="7.35157370458223"><ele>349.8</ele><time>2026-04-07T15:27:27Z</time></trkpt><trkpt lat="44.884565044714144" lon="7.351551162458367"><ele>350.0</ele><time>2026-04-07T15:27:28Z</time></trkpt><trkpt lat="44.88464890196671" lon="7.351526657939724"><ele>350.0</ele><time>2026-04-07T15:27:29Z</time></trkpt><trkpt lat="44.88472325469869" lon="7.351499521533745"><ele>350.0</ele><time>2026-04-07T15:27:30Z</time></trkpt><trkpt lat="44.88478853770322" lon="7.351492863920559"><ele>350.0</ele><time>2026-04-07T15:27:31Z</time></trkpt><trkpt lat="44.88485917594981" lon="7.351518678382888"><ele>350.0</ele><time>2026-04-07T15:27:32Z</time></trkpt><trkpt lat="44.884917749307064" lon="7.351583779022034"><ele>350.0</ele><time>2026-04-07T15:27:33Z</time></trkpt><trkpt lat="44.88496146955936" lon="7.351677485772413"><ele>350.0</ele><time>2026-04-07T15:27:34Z</time></trkpt><trkpt lat="44.88499346619772" lon="7.351793884875555"><ele>350.0</ele><time>2026-04-07T15:27:35Z</time></trkpt><trkpt lat="44.88499510844373" lon="7.351921494906386"><ele>350.0</ele><time>2026-04-07T15:27:36Z</time></trkpt><trkpt lat="44.88498942542782" lon="7.35203539005758"><ele>350.0</ele><time>2026-04-07T15:27:37Z</time></trkpt><trkpt lat="44.884988805088064" lon="7.352159039668966"><ele>350.0</ele><time>2026-04-07T15:27:38Z</time></trkpt><trkpt lat="44.88498569234826" lon="7.352296430742215"><ele>350.0</ele><time>2026-04-07T15:27:39Z</time></trkpt><trkpt lat="44.88499300733377" lon="7.352437562710141"><ele>349.6</ele><time>2026-04-07T15:27:40Z</time></trkpt><trkpt lat="44.884945854985006" lon="7.35258175964822"><ele>349.2</ele><time>2026-04-07T15:27:41Z</time></trkpt><trkpt lat="44.88496159802074" lon="7.352730000468483"><ele>348.79999999999995</ele><time>2026-04-07T15:27:42Z</time></trkpt><trkpt lat="44.88499326650774" lon="7.352875024559285"><ele>348.4</ele><time>2026-04-07T15:27:43Z</time></trkpt><trkpt lat="44.88500566457182" lon="7.353019066667216"><ele>348.0</ele><time>2026-04-07T15:27:44Z</time></trkpt><trkpt lat="44.885011962555375" lon="7.353149250035817"><ele>347.8333333333333</ele><time>2026-04-07T15:27:45Z</time></trkpt><trkpt lat="44.88502183011737" lon="7.3532853555378885"><ele>347.6666666666667</ele><time>2026-04-07T15:27:46Z</time></trkpt><trkpt lat="44.885030801391935" lon="7.353410831339388"><ele>347.5</ele><time>2026-04-07T15:27:46.999Z</time></trkpt><trkpt lat="44.88503494920898" lon="7.353524500699992"><ele>347.33333333333337</ele><time>2026-04-07T15:27:47.999Z</time></trkpt><trkpt lat="44.88503269335648" lon="7.35362817818591"><ele>347.1666666666667</ele><time>2026-04-07T15:27:48.999Z</time></trkpt><trkpt lat="44.88502957563552" lon="7.353729108222063"><ele>347.0</ele><time>2026-04-07T15:27:49.999Z</time></trkpt><trkpt lat="44.88503136875717" lon="7.353831628996261"><ele>346.83333333333337</ele><time>2026-04-07T15:27:50.999Z</time></trkpt><trkpt lat="44.88503418245827" lon="7.353931232337483"><ele>346.6666666666667</ele><time>2026-04-07T15:27:51.999Z</time></trkpt><trkpt lat="44.88503730533501" lon="7.354024450600127"><ele>346.5</ele><time>2026-04-07T15:27:52.999Z</time></trkpt><trkpt lat="44.88503806280521" lon="7.354193031773138"><ele>346.3333333333333</ele><time>2026-04-07T15:27:54.999Z</time></trkpt><trkpt lat="44.88503011839147" lon="7.354330073777125"><ele>346.16666666666663</ele><time>2026-04-07T15:27:56.999Z</time></trkpt><trkpt lat="44.88506496735513" lon="7.354439130160927"><ele>346.0</ele><time>2026-04-07T15:27:58.999Z</time></trkpt><trkpt lat="44.88514803960357" lon="7.354461782833232"><ele>346.57142857142856</ele><time>2026-04-07T15:28:00.999Z</time></trkpt><trkpt lat="44.885225663696154" lon="7.354400316088186"><ele>347.14285714285717</ele><time>2026-04-07T15:28:03.999Z</time></trkpt><trkpt lat="44.88528980307717" lon="7.3543619697093705"><ele>347.7142857142857</ele><time>2026-04-07T15:28:05.999Z</time></trkpt><trkpt lat="44.88536003368093" lon="7.354333234676888"><ele>348.2857142857143</ele><time>2026-04-07T15:28:08.999Z</time></trkpt><trkpt lat="44.88542647172442" lon="7.354320605044353"><ele>348.8571428571429</ele><time>2026-04-07T15:28:10.999Z</time></trkpt><trkpt lat="44.88548571960421" lon="7.354248398571561"><ele>349.42857142857144</ele><time>2026-04-07T15:28:13.999Z</time></trkpt><trkpt lat="44.88543931233284" lon="7.354321567892809"><ele>350.0</ele><time>2026-04-07T15:28:29.999Z</time></trkpt><trkpt lat="44.88539155054785" lon="7.354172773509818"><ele>350.0</ele><time>2026-04-07T15:28:35.999Z</time></trkpt></trkseg></trk></gpx>